<?xml version="1.0" encoding="UTF-8" standalone="no" ?>
<gpx xmlns="http://www.topografix.com/GPX/1/1" xmlns:xsi="http://www.w3.org/2001/XMLSchema-instance" xsi:schemaLocation="http://www.topografix.com/GPX/1/1 http://www.topografix.com/GPX/1/1/gpx.xsd" version="1.1" creator="VisuGPX - https://www.visugpx.com">
  <metadata>
    <name>Grenoble Trail - Jalla direct (leve de soleil sous l'orage)</name>
  </metadata>
  <trk>
    <name><![CDATA[Grenoble Trail - Jalla direct]]></name>
    <trkseg>
      <trkpt lat="45.19659" lon="5.73957">
        <ele>214</ele>
        <time>2022-06-02T02:09:26.000Z</time>
      </trkpt>
      <trkpt lat="45.19659" lon="5.73958">
        <ele>214</ele>
        <time>2022-06-02T02:09:27.000Z</time>
      </trkpt>
      <trkpt lat="45.19658" lon="5.7396">
        <ele>214</ele>
        <time>2022-06-02T02:09:28.000Z</time>
      </trkpt>
      <trkpt lat="45.19657" lon="5.73961">
        <ele>214</ele>
        <time>2022-06-02T02:09:29.000Z</time>
      </trkpt>
      <trkpt lat="45.19653" lon="5.7396">
        <ele>214</ele>
        <time>2022-06-02T02:09:30.000Z</time>
      </trkpt>
      <trkpt lat="45.19652" lon="5.73961">
        <ele>214</ele>
        <time>2022-06-02T02:09:31.000Z</time>
      </trkpt>
      <trkpt lat="45.19652" lon="5.73964">
        <ele>214.19999694824</ele>
        <time>2022-06-02T02:09:32.000Z</time>
      </trkpt>
      <trkpt lat="45.1965" lon="5.73966">
        <ele>214.19999694824</ele>
        <time>2022-06-02T02:09:33.000Z</time>
      </trkpt>
      <trkpt lat="45.19649" lon="5.73968">
        <ele>214.19999694824</ele>
        <time>2022-06-02T02:09:34.000Z</time>
      </trkpt>
      <trkpt lat="45.19646" lon="5.73969">
        <ele>214.19999694824</ele>
        <time>2022-06-02T02:09:35.000Z</time>
      </trkpt>
      <trkpt lat="45.19646" lon="5.7397">
        <ele>213.80000305176</ele>
        <time>2022-06-02T02:09:36.000Z</time>
      </trkpt>
      <trkpt lat="45.19646" lon="5.73972">
        <ele>214</ele>
        <time>2022-06-02T02:09:37.000Z</time>
      </trkpt>
      <trkpt lat="45.19642" lon="5.7397">
        <ele>214</ele>
        <time>2022-06-02T02:09:38.000Z</time>
      </trkpt>
      <trkpt lat="45.19641" lon="5.7397">
        <ele>214.19999694824</ele>
        <time>2022-06-02T02:09:39.000Z</time>
      </trkpt>
      <trkpt lat="45.19639" lon="5.7397">
        <ele>214.19999694824</ele>
        <time>2022-06-02T02:09:40.000Z</time>
      </trkpt>
      <trkpt lat="45.19636" lon="5.7397">
        <ele>214</ele>
        <time>2022-06-02T02:09:41.000Z</time>
      </trkpt>
      <trkpt lat="45.19637" lon="5.73971">
        <ele>214</ele>
        <time>2022-06-02T02:09:42.000Z</time>
      </trkpt>
      <trkpt lat="45.19635" lon="5.7397">
        <ele>214.19999694824</ele>
        <time>2022-06-02T02:09:43.000Z</time>
      </trkpt>
      <trkpt lat="45.19634" lon="5.7397">
        <ele>214.19999694824</ele>
        <time>2022-06-02T02:09:44.000Z</time>
      </trkpt>
      <trkpt lat="45.19633" lon="5.7397">
        <ele>213.80000305176</ele>
        <time>2022-06-02T02:09:45.000Z</time>
      </trkpt>
      <trkpt lat="45.19633" lon="5.73971">
        <ele>214</ele>
        <time>2022-06-02T02:09:46.000Z</time>
      </trkpt>
      <trkpt lat="45.19634" lon="5.73972">
        <ele>214</ele>
        <time>2022-06-02T02:09:47.000Z</time>
      </trkpt>
      <trkpt lat="45.19639" lon="5.7398">
        <ele>214</ele>
        <time>2022-06-02T02:09:48.000Z</time>
      </trkpt>
      <trkpt lat="45.19633" lon="5.73974">
        <ele>213.39999389648</ele>
        <time>2022-06-02T02:09:49.000Z</time>
      </trkpt>
      <trkpt lat="45.19633" lon="5.73975">
        <ele>213</ele>
        <time>2022-06-02T02:09:50.000Z</time>
      </trkpt>
      <trkpt lat="45.1964" lon="5.73981">
        <ele>212.60000610352</ele>
        <time>2022-06-02T02:09:51.000Z</time>
      </trkpt>
      <trkpt lat="45.19641" lon="5.73982">
        <ele>212.39999389648</ele>
        <time>2022-06-02T02:09:52.000Z</time>
      </trkpt>
      <trkpt lat="45.1964" lon="5.73982">
        <ele>211.80000305176</ele>
        <time>2022-06-02T02:09:53.000Z</time>
      </trkpt>
      <trkpt lat="45.19639" lon="5.7398">
        <ele>211.60000610352</ele>
        <time>2022-06-02T02:09:54.000Z</time>
      </trkpt>
      <trkpt lat="45.19637" lon="5.73978">
        <ele>211.39999389648</ele>
        <time>2022-06-02T02:09:55.000Z</time>
      </trkpt>
      <trkpt lat="45.19637" lon="5.73978">
        <ele>211.39999389648</ele>
        <time>2022-06-02T02:09:56.000Z</time>
      </trkpt>
      <trkpt lat="45.19635" lon="5.73975">
        <ele>211.19999694824</ele>
        <time>2022-06-02T02:09:57.000Z</time>
      </trkpt>
      <trkpt lat="45.19633" lon="5.73971">
        <ele>211.39999389648</ele>
        <time>2022-06-02T02:09:58.000Z</time>
      </trkpt>
      <trkpt lat="45.19628" lon="5.7398">
        <ele>211</ele>
        <time>2022-06-02T02:09:59.000Z</time>
      </trkpt>
      <trkpt lat="45.19629" lon="5.73975">
        <ele>210.60000610352</ele>
        <time>2022-06-02T02:10:00.000Z</time>
      </trkpt>
      <trkpt lat="45.19639" lon="5.73983">
        <ele>211.39999389648</ele>
        <time>2022-06-02T02:10:01.000Z</time>
      </trkpt>
      <trkpt lat="45.1964" lon="5.73984">
        <ele>211</ele>
        <time>2022-06-02T02:10:02.000Z</time>
      </trkpt>
      <trkpt lat="45.19639" lon="5.73981">
        <ele>210.80000305176</ele>
        <time>2022-06-02T02:10:03.000Z</time>
      </trkpt>
      <trkpt lat="45.19638" lon="5.73981">
        <ele>210.60000610352</ele>
        <time>2022-06-02T02:10:04.000Z</time>
      </trkpt>
      <trkpt lat="45.19636" lon="5.7398">
        <ele>210</ele>
        <time>2022-06-02T02:10:05.000Z</time>
      </trkpt>
      <trkpt lat="45.19633" lon="5.73977">
        <ele>209.80000305176</ele>
        <time>2022-06-02T02:10:06.000Z</time>
      </trkpt>
      <trkpt lat="45.19633" lon="5.73976">
        <ele>209.80000305176</ele>
        <time>2022-06-02T02:10:07.000Z</time>
      </trkpt>
      <trkpt lat="45.19631" lon="5.73974">
        <ele>209.80000305176</ele>
        <time>2022-06-02T02:10:08.000Z</time>
      </trkpt>
      <trkpt lat="45.19631" lon="5.7397">
        <ele>210</ele>
        <time>2022-06-02T02:10:09.000Z</time>
      </trkpt>
      <trkpt lat="45.19631" lon="5.7397">
        <ele>209.80000305176</ele>
        <time>2022-06-02T02:10:10.000Z</time>
      </trkpt>
      <trkpt lat="45.19641" lon="5.73971">
        <ele>209.39999389648</ele>
        <time>2022-06-02T02:10:12.000Z</time>
      </trkpt>
      <trkpt lat="45.19639" lon="5.7397">
        <ele>208.80000305176</ele>
        <time>2022-06-02T02:10:13.000Z</time>
      </trkpt>
      <trkpt lat="45.19638" lon="5.73972">
        <ele>208.60000610352</ele>
        <time>2022-06-02T02:10:14.000Z</time>
      </trkpt>
      <trkpt lat="45.19637" lon="5.73972">
        <ele>208.19999694824</ele>
        <time>2022-06-02T02:10:15.000Z</time>
      </trkpt>
      <trkpt lat="45.19636" lon="5.73972">
        <ele>207.60000610352</ele>
        <time>2022-06-02T02:10:16.000Z</time>
      </trkpt>
      <trkpt lat="45.19635" lon="5.73973">
        <ele>207.19999694824</ele>
        <time>2022-06-02T02:10:17.000Z</time>
      </trkpt>
      <trkpt lat="45.19634" lon="5.73973">
        <ele>206.80000305176</ele>
        <time>2022-06-02T02:10:18.000Z</time>
      </trkpt>
      <trkpt lat="45.1963" lon="5.73972">
        <ele>207</ele>
        <time>2022-06-02T02:10:19.000Z</time>
      </trkpt>
      <trkpt lat="45.19628" lon="5.73972">
        <ele>207</ele>
        <time>2022-06-02T02:10:20.000Z</time>
      </trkpt>
      <trkpt lat="45.19625" lon="5.7397">
        <ele>206.80000305176</ele>
        <time>2022-06-02T02:10:21.000Z</time>
      </trkpt>
      <trkpt lat="45.19623" lon="5.73968">
        <ele>206.80000305176</ele>
        <time>2022-06-02T02:10:22.000Z</time>
      </trkpt>
      <trkpt lat="45.1962" lon="5.73967">
        <ele>206.60000610352</ele>
        <time>2022-06-02T02:10:23.000Z</time>
      </trkpt>
      <trkpt lat="45.19621" lon="5.73967">
        <ele>206.80000305176</ele>
        <time>2022-06-02T02:10:24.000Z</time>
      </trkpt>
      <trkpt lat="45.19622" lon="5.73968">
        <ele>206.80000305176</ele>
        <time>2022-06-02T02:10:25.000Z</time>
      </trkpt>
      <trkpt lat="45.19629" lon="5.73964">
        <ele>206.60000610352</ele>
        <time>2022-06-02T02:10:26.000Z</time>
      </trkpt>
      <trkpt lat="45.19629" lon="5.73969">
        <ele>207.19999694824</ele>
        <time>2022-06-02T02:10:27.000Z</time>
      </trkpt>
      <trkpt lat="45.19631" lon="5.73972">
        <ele>207.19999694824</ele>
        <time>2022-06-02T02:10:28.000Z</time>
      </trkpt>
      <trkpt lat="45.19638" lon="5.73976">
        <ele>207.19999694824</ele>
        <time>2022-06-02T02:10:29.000Z</time>
      </trkpt>
      <trkpt lat="45.19642" lon="5.73977">
        <ele>206.80000305176</ele>
        <time>2022-06-02T02:10:30.000Z</time>
      </trkpt>
      <trkpt lat="45.19641" lon="5.73975">
        <ele>207.39999389648</ele>
        <time>2022-06-02T02:10:31.000Z</time>
      </trkpt>
      <trkpt lat="45.19643" lon="5.73974">
        <ele>207.39999389648</ele>
        <time>2022-06-02T02:10:32.000Z</time>
      </trkpt>
      <trkpt lat="45.19644" lon="5.73972">
        <ele>207.19999694824</ele>
        <time>2022-06-02T02:10:33.000Z</time>
      </trkpt>
      <trkpt lat="45.19644" lon="5.73971">
        <ele>207.19999694824</ele>
        <time>2022-06-02T02:10:34.000Z</time>
      </trkpt>
      <trkpt lat="45.1965" lon="5.73969">
        <ele>207.19999694824</ele>
        <time>2022-06-02T02:10:35.000Z</time>
      </trkpt>
      <trkpt lat="45.19654" lon="5.73967">
        <ele>207.39999389648</ele>
        <time>2022-06-02T02:10:36.000Z</time>
      </trkpt>
      <trkpt lat="45.19654" lon="5.73964">
        <ele>207.39999389648</ele>
        <time>2022-06-02T02:10:37.000Z</time>
      </trkpt>
      <trkpt lat="45.1966" lon="5.73961">
        <ele>207</ele>
        <time>2022-06-02T02:10:38.000Z</time>
      </trkpt>
      <trkpt lat="45.1966" lon="5.73958">
        <ele>207.39999389648</ele>
        <time>2022-06-02T02:10:39.000Z</time>
      </trkpt>
      <trkpt lat="45.19662" lon="5.73955">
        <ele>206.80000305176</ele>
        <time>2022-06-02T02:10:40.000Z</time>
      </trkpt>
      <trkpt lat="45.19664" lon="5.73952">
        <ele>206.80000305176</ele>
        <time>2022-06-02T02:10:41.000Z</time>
      </trkpt>
      <trkpt lat="45.19665" lon="5.73949">
        <ele>206.80000305176</ele>
        <time>2022-06-02T02:10:42.000Z</time>
      </trkpt>
      <trkpt lat="45.1967" lon="5.73945">
        <ele>207</ele>
        <time>2022-06-02T02:10:43.000Z</time>
      </trkpt>
      <trkpt lat="45.19671" lon="5.73946">
        <ele>207</ele>
        <time>2022-06-02T02:10:44.000Z</time>
      </trkpt>
      <trkpt lat="45.1967" lon="5.73947">
        <ele>207</ele>
        <time>2022-06-02T02:10:45.000Z</time>
      </trkpt>
      <trkpt lat="45.1967" lon="5.73946">
        <ele>207</ele>
        <time>2022-06-02T02:10:46.000Z</time>
      </trkpt>
      <trkpt lat="45.1967" lon="5.73947">
        <ele>207</ele>
        <time>2022-06-02T02:10:47.000Z</time>
      </trkpt>
      <trkpt lat="45.19674" lon="5.73947">
        <ele>207</ele>
        <time>2022-06-02T02:10:48.000Z</time>
      </trkpt>
      <trkpt lat="45.19676" lon="5.73946">
        <ele>206.80000305176</ele>
        <time>2022-06-02T02:10:49.000Z</time>
      </trkpt>
      <trkpt lat="45.19678" lon="5.73947">
        <ele>207</ele>
        <time>2022-06-02T02:10:50.000Z</time>
      </trkpt>
      <trkpt lat="45.1968" lon="5.73948">
        <ele>206.80000305176</ele>
        <time>2022-06-02T02:10:51.000Z</time>
      </trkpt>
      <trkpt lat="45.19682" lon="5.73949">
        <ele>207</ele>
        <time>2022-06-02T02:10:52.000Z</time>
      </trkpt>
      <trkpt lat="45.19684" lon="5.7395">
        <ele>207.19999694824</ele>
        <time>2022-06-02T02:10:53.000Z</time>
      </trkpt>
      <trkpt lat="45.19686" lon="5.73951">
        <ele>207</ele>
        <time>2022-06-02T02:10:54.000Z</time>
      </trkpt>
      <trkpt lat="45.19687" lon="5.73953">
        <ele>207.19999694824</ele>
        <time>2022-06-02T02:10:55.000Z</time>
      </trkpt>
      <trkpt lat="45.19687" lon="5.73953">
        <ele>207.19999694824</ele>
        <time>2022-06-02T02:10:56.000Z</time>
      </trkpt>
      <trkpt lat="45.19687" lon="5.73955">
        <ele>207.19999694824</ele>
        <time>2022-06-02T02:10:57.000Z</time>
      </trkpt>
      <trkpt lat="45.19686" lon="5.73957">
        <ele>207.39999389648</ele>
        <time>2022-06-02T02:10:58.000Z</time>
      </trkpt>
      <trkpt lat="45.19688" lon="5.73962">
        <ele>207</ele>
        <time>2022-06-02T02:10:59.000Z</time>
      </trkpt>
      <trkpt lat="45.19689" lon="5.73967">
        <ele>207.39999389648</ele>
        <time>2022-06-02T02:11:00.000Z</time>
      </trkpt>
      <trkpt lat="45.1969" lon="5.73971">
        <ele>207.39999389648</ele>
        <time>2022-06-02T02:11:01.000Z</time>
      </trkpt>
      <trkpt lat="45.19691" lon="5.73975">
        <ele>207</ele>
        <time>2022-06-02T02:11:02.000Z</time>
      </trkpt>
      <trkpt lat="45.19692" lon="5.73978">
        <ele>207</ele>
        <time>2022-06-02T02:11:03.000Z</time>
      </trkpt>
      <trkpt lat="45.19692" lon="5.7398">
        <ele>207</ele>
        <time>2022-06-02T02:11:04.000Z</time>
      </trkpt>
      <trkpt lat="45.19693" lon="5.73983">
        <ele>207.60000610352</ele>
        <time>2022-06-02T02:11:05.000Z</time>
      </trkpt>
      <trkpt lat="45.19694" lon="5.73988">
        <ele>207</ele>
        <time>2022-06-02T02:11:06.000Z</time>
      </trkpt>
      <trkpt lat="45.19694" lon="5.73991">
        <ele>207.39999389648</ele>
        <time>2022-06-02T02:11:07.000Z</time>
      </trkpt>
      <trkpt lat="45.19694" lon="5.73996">
        <ele>207.39999389648</ele>
        <time>2022-06-02T02:11:08.000Z</time>
      </trkpt>
      <trkpt lat="45.19695" lon="5.73999">
        <ele>207.39999389648</ele>
        <time>2022-06-02T02:11:09.000Z</time>
      </trkpt>
      <trkpt lat="45.19695" lon="5.74002">
        <ele>207.39999389648</ele>
        <time>2022-06-02T02:11:10.000Z</time>
      </trkpt>
      <trkpt lat="45.19695" lon="5.74006">
        <ele>207.39999389648</ele>
        <time>2022-06-02T02:11:11.000Z</time>
      </trkpt>
      <trkpt lat="45.19695" lon="5.74009">
        <ele>207.39999389648</ele>
        <time>2022-06-02T02:11:12.000Z</time>
      </trkpt>
      <trkpt lat="45.19696" lon="5.74012">
        <ele>207.19999694824</ele>
        <time>2022-06-02T02:11:13.000Z</time>
      </trkpt>
      <trkpt lat="45.19697" lon="5.74015">
        <ele>207.19999694824</ele>
        <time>2022-06-02T02:11:14.000Z</time>
      </trkpt>
      <trkpt lat="45.19697" lon="5.74019">
        <ele>207.19999694824</ele>
        <time>2022-06-02T02:11:15.000Z</time>
      </trkpt>
      <trkpt lat="45.19697" lon="5.74022">
        <ele>207.39999389648</ele>
        <time>2022-06-02T02:11:16.000Z</time>
      </trkpt>
      <trkpt lat="45.19698" lon="5.74025">
        <ele>207.39999389648</ele>
        <time>2022-06-02T02:11:17.000Z</time>
      </trkpt>
      <trkpt lat="45.19698" lon="5.74028">
        <ele>207.39999389648</ele>
        <time>2022-06-02T02:11:18.000Z</time>
      </trkpt>
      <trkpt lat="45.19699" lon="5.74032">
        <ele>207.60000610352</ele>
        <time>2022-06-02T02:11:19.000Z</time>
      </trkpt>
      <trkpt lat="45.19699" lon="5.74035">
        <ele>207.60000610352</ele>
        <time>2022-06-02T02:11:20.000Z</time>
      </trkpt>
      <trkpt lat="45.19699" lon="5.74039">
        <ele>207.39999389648</ele>
        <time>2022-06-02T02:11:21.000Z</time>
      </trkpt>
      <trkpt lat="45.197" lon="5.74042">
        <ele>207.19999694824</ele>
        <time>2022-06-02T02:11:22.000Z</time>
      </trkpt>
      <trkpt lat="45.197" lon="5.74044">
        <ele>207.19999694824</ele>
        <time>2022-06-02T02:11:23.000Z</time>
      </trkpt>
      <trkpt lat="45.197" lon="5.74046">
        <ele>207.39999389648</ele>
        <time>2022-06-02T02:11:24.000Z</time>
      </trkpt>
      <trkpt lat="45.197" lon="5.74049">
        <ele>207.19999694824</ele>
        <time>2022-06-02T02:11:25.000Z</time>
      </trkpt>
      <trkpt lat="45.197" lon="5.74052">
        <ele>207.39999389648</ele>
        <time>2022-06-02T02:11:26.000Z</time>
      </trkpt>
      <trkpt lat="45.19701" lon="5.74055">
        <ele>207.60000610352</ele>
        <time>2022-06-02T02:11:27.000Z</time>
      </trkpt>
      <trkpt lat="45.19702" lon="5.74059">
        <ele>207.19999694824</ele>
        <time>2022-06-02T02:11:28.000Z</time>
      </trkpt>
      <trkpt lat="45.19703" lon="5.74062">
        <ele>207</ele>
        <time>2022-06-02T02:11:29.000Z</time>
      </trkpt>
      <trkpt lat="45.19704" lon="5.74066">
        <ele>207.39999389648</ele>
        <time>2022-06-02T02:11:30.000Z</time>
      </trkpt>
      <trkpt lat="45.19704" lon="5.74069">
        <ele>207.39999389648</ele>
        <time>2022-06-02T02:11:31.000Z</time>
      </trkpt>
      <trkpt lat="45.19705" lon="5.74072">
        <ele>207</ele>
        <time>2022-06-02T02:11:32.000Z</time>
      </trkpt>
      <trkpt lat="45.19705" lon="5.74075">
        <ele>207.60000610352</ele>
        <time>2022-06-02T02:11:33.000Z</time>
      </trkpt>
      <trkpt lat="45.19706" lon="5.74078">
        <ele>207.19999694824</ele>
        <time>2022-06-02T02:11:34.000Z</time>
      </trkpt>
      <trkpt lat="45.19707" lon="5.74081">
        <ele>207.39999389648</ele>
        <time>2022-06-02T02:11:35.000Z</time>
      </trkpt>
      <trkpt lat="45.19707" lon="5.74084">
        <ele>207.60000610352</ele>
        <time>2022-06-02T02:11:36.000Z</time>
      </trkpt>
      <trkpt lat="45.19708" lon="5.74087">
        <ele>207.39999389648</ele>
        <time>2022-06-02T02:11:37.000Z</time>
      </trkpt>
      <trkpt lat="45.19709" lon="5.7409">
        <ele>207.39999389648</ele>
        <time>2022-06-02T02:11:38.000Z</time>
      </trkpt>
      <trkpt lat="45.1971" lon="5.74093">
        <ele>207.39999389648</ele>
        <time>2022-06-02T02:11:39.000Z</time>
      </trkpt>
      <trkpt lat="45.1971" lon="5.74096">
        <ele>208</ele>
        <time>2022-06-02T02:11:40.000Z</time>
      </trkpt>
      <trkpt lat="45.1971" lon="5.74099">
        <ele>207.19999694824</ele>
        <time>2022-06-02T02:11:41.000Z</time>
      </trkpt>
      <trkpt lat="45.1971" lon="5.74102">
        <ele>207.39999389648</ele>
        <time>2022-06-02T02:11:42.000Z</time>
      </trkpt>
      <trkpt lat="45.19711" lon="5.74105">
        <ele>207.80000305176</ele>
        <time>2022-06-02T02:11:43.000Z</time>
      </trkpt>
      <trkpt lat="45.19711" lon="5.74108">
        <ele>207.80000305176</ele>
        <time>2022-06-02T02:11:44.000Z</time>
      </trkpt>
      <trkpt lat="45.19712" lon="5.74112">
        <ele>207.39999389648</ele>
        <time>2022-06-02T02:11:45.000Z</time>
      </trkpt>
      <trkpt lat="45.19713" lon="5.74116">
        <ele>207.39999389648</ele>
        <time>2022-06-02T02:11:46.000Z</time>
      </trkpt>
      <trkpt lat="45.19713" lon="5.7412">
        <ele>207.60000610352</ele>
        <time>2022-06-02T02:11:47.000Z</time>
      </trkpt>
      <trkpt lat="45.19714" lon="5.74123">
        <ele>207.19999694824</ele>
        <time>2022-06-02T02:11:48.000Z</time>
      </trkpt>
      <trkpt lat="45.19715" lon="5.74127">
        <ele>207.39999389648</ele>
        <time>2022-06-02T02:11:49.000Z</time>
      </trkpt>
      <trkpt lat="45.19716" lon="5.7413">
        <ele>207.39999389648</ele>
        <time>2022-06-02T02:11:50.000Z</time>
      </trkpt>
      <trkpt lat="45.19716" lon="5.74134">
        <ele>207.39999389648</ele>
        <time>2022-06-02T02:11:51.000Z</time>
      </trkpt>
      <trkpt lat="45.19717" lon="5.74137">
        <ele>207.39999389648</ele>
        <time>2022-06-02T02:11:52.000Z</time>
      </trkpt>
      <trkpt lat="45.19717" lon="5.7414">
        <ele>207.60000610352</ele>
        <time>2022-06-02T02:11:53.000Z</time>
      </trkpt>
      <trkpt lat="45.19718" lon="5.74144">
        <ele>207.60000610352</ele>
        <time>2022-06-02T02:11:54.000Z</time>
      </trkpt>
      <trkpt lat="45.19718" lon="5.74148">
        <ele>207.39999389648</ele>
        <time>2022-06-02T02:11:55.000Z</time>
      </trkpt>
      <trkpt lat="45.19719" lon="5.74151">
        <ele>207.39999389648</ele>
        <time>2022-06-02T02:11:56.000Z</time>
      </trkpt>
      <trkpt lat="45.1972" lon="5.74154">
        <ele>206.80000305176</ele>
        <time>2022-06-02T02:11:57.000Z</time>
      </trkpt>
      <trkpt lat="45.1972" lon="5.74157">
        <ele>206.80000305176</ele>
        <time>2022-06-02T02:11:58.000Z</time>
      </trkpt>
      <trkpt lat="45.19721" lon="5.7416">
        <ele>207</ele>
        <time>2022-06-02T02:11:59.000Z</time>
      </trkpt>
      <trkpt lat="45.19721" lon="5.74164">
        <ele>207.80000305176</ele>
        <time>2022-06-02T02:12:00.000Z</time>
      </trkpt>
      <trkpt lat="45.19722" lon="5.74167">
        <ele>207.60000610352</ele>
        <time>2022-06-02T02:12:01.000Z</time>
      </trkpt>
      <trkpt lat="45.19722" lon="5.7417">
        <ele>207.39999389648</ele>
        <time>2022-06-02T02:12:02.000Z</time>
      </trkpt>
      <trkpt lat="45.19723" lon="5.74173">
        <ele>207.80000305176</ele>
        <time>2022-06-02T02:12:03.000Z</time>
      </trkpt>
      <trkpt lat="45.19724" lon="5.74177">
        <ele>207.19999694824</ele>
        <time>2022-06-02T02:12:04.000Z</time>
      </trkpt>
      <trkpt lat="45.19725" lon="5.7418">
        <ele>207.19999694824</ele>
        <time>2022-06-02T02:12:05.000Z</time>
      </trkpt>
      <trkpt lat="45.19725" lon="5.74184">
        <ele>207.19999694824</ele>
        <time>2022-06-02T02:12:06.000Z</time>
      </trkpt>
      <trkpt lat="45.19726" lon="5.74187">
        <ele>207.19999694824</ele>
        <time>2022-06-02T02:12:07.000Z</time>
      </trkpt>
      <trkpt lat="45.19727" lon="5.7419">
        <ele>207.39999389648</ele>
        <time>2022-06-02T02:12:08.000Z</time>
      </trkpt>
      <trkpt lat="45.19728" lon="5.74194">
        <ele>207.39999389648</ele>
        <time>2022-06-02T02:12:09.000Z</time>
      </trkpt>
      <trkpt lat="45.19729" lon="5.74196">
        <ele>207.19999694824</ele>
        <time>2022-06-02T02:12:10.000Z</time>
      </trkpt>
      <trkpt lat="45.19729" lon="5.74199">
        <ele>207.39999389648</ele>
        <time>2022-06-02T02:12:11.000Z</time>
      </trkpt>
      <trkpt lat="45.19729" lon="5.74202">
        <ele>207.39999389648</ele>
        <time>2022-06-02T02:12:12.000Z</time>
      </trkpt>
      <trkpt lat="45.19728" lon="5.74204">
        <ele>207.39999389648</ele>
        <time>2022-06-02T02:12:13.000Z</time>
      </trkpt>
      <trkpt lat="45.19728" lon="5.74207">
        <ele>207.60000610352</ele>
        <time>2022-06-02T02:12:14.000Z</time>
      </trkpt>
      <trkpt lat="45.19729" lon="5.7421">
        <ele>207.60000610352</ele>
        <time>2022-06-02T02:12:15.000Z</time>
      </trkpt>
      <trkpt lat="45.19729" lon="5.74213">
        <ele>207.60000610352</ele>
        <time>2022-06-02T02:12:16.000Z</time>
      </trkpt>
      <trkpt lat="45.1973" lon="5.74217">
        <ele>208</ele>
        <time>2022-06-02T02:12:17.000Z</time>
      </trkpt>
      <trkpt lat="45.19731" lon="5.74221">
        <ele>207.60000610352</ele>
        <time>2022-06-02T02:12:18.000Z</time>
      </trkpt>
      <trkpt lat="45.19731" lon="5.74224">
        <ele>207.80000305176</ele>
        <time>2022-06-02T02:12:19.000Z</time>
      </trkpt>
      <trkpt lat="45.19733" lon="5.74228">
        <ele>207.80000305176</ele>
        <time>2022-06-02T02:12:20.000Z</time>
      </trkpt>
      <trkpt lat="45.19734" lon="5.74231">
        <ele>207.80000305176</ele>
        <time>2022-06-02T02:12:21.000Z</time>
      </trkpt>
      <trkpt lat="45.19735" lon="5.74234">
        <ele>207.60000610352</ele>
        <time>2022-06-02T02:12:22.000Z</time>
      </trkpt>
      <trkpt lat="45.19736" lon="5.74238">
        <ele>207.19999694824</ele>
        <time>2022-06-02T02:12:23.000Z</time>
      </trkpt>
      <trkpt lat="45.19736" lon="5.74241">
        <ele>208</ele>
        <time>2022-06-02T02:12:24.000Z</time>
      </trkpt>
      <trkpt lat="45.19736" lon="5.74243">
        <ele>208.19999694824</ele>
        <time>2022-06-02T02:12:25.000Z</time>
      </trkpt>
      <trkpt lat="45.19736" lon="5.74244">
        <ele>208.80000305176</ele>
        <time>2022-06-02T02:12:26.000Z</time>
      </trkpt>
      <trkpt lat="45.19736" lon="5.74245">
        <ele>208.80000305176</ele>
        <time>2022-06-02T02:12:27.000Z</time>
      </trkpt>
      <trkpt lat="45.19737" lon="5.74246">
        <ele>209.19999694824</ele>
        <time>2022-06-02T02:12:28.000Z</time>
      </trkpt>
      <trkpt lat="45.19738" lon="5.74246">
        <ele>209.19999694824</ele>
        <time>2022-06-02T02:12:29.000Z</time>
      </trkpt>
      <trkpt lat="45.1974" lon="5.74246">
        <ele>209.19999694824</ele>
        <time>2022-06-02T02:12:30.000Z</time>
      </trkpt>
      <trkpt lat="45.19741" lon="5.74246">
        <ele>209.60000610352</ele>
        <time>2022-06-02T02:12:31.000Z</time>
      </trkpt>
      <trkpt lat="45.19743" lon="5.74245">
        <ele>209</ele>
        <time>2022-06-02T02:12:32.000Z</time>
      </trkpt>
      <trkpt lat="45.19745" lon="5.74245">
        <ele>209</ele>
        <time>2022-06-02T02:12:33.000Z</time>
      </trkpt>
      <trkpt lat="45.19747" lon="5.74245">
        <ele>209.19999694824</ele>
        <time>2022-06-02T02:12:34.000Z</time>
      </trkpt>
      <trkpt lat="45.19749" lon="5.74245">
        <ele>209.19999694824</ele>
        <time>2022-06-02T02:12:35.000Z</time>
      </trkpt>
      <trkpt lat="45.19751" lon="5.74244">
        <ele>209.39999389648</ele>
        <time>2022-06-02T02:12:36.000Z</time>
      </trkpt>
      <trkpt lat="45.19753" lon="5.74244">
        <ele>209.19999694824</ele>
        <time>2022-06-02T02:12:37.000Z</time>
      </trkpt>
      <trkpt lat="45.19756" lon="5.74244">
        <ele>209.19999694824</ele>
        <time>2022-06-02T02:12:38.000Z</time>
      </trkpt>
      <trkpt lat="45.19757" lon="5.74243">
        <ele>209</ele>
        <time>2022-06-02T02:12:39.000Z</time>
      </trkpt>
      <trkpt lat="45.1976" lon="5.74243">
        <ele>209</ele>
        <time>2022-06-02T02:12:40.000Z</time>
      </trkpt>
      <trkpt lat="45.19763" lon="5.74243">
        <ele>209.39999389648</ele>
        <time>2022-06-02T02:12:41.000Z</time>
      </trkpt>
      <trkpt lat="45.19765" lon="5.74243">
        <ele>209</ele>
        <time>2022-06-02T02:12:42.000Z</time>
      </trkpt>
      <trkpt lat="45.19767" lon="5.74242">
        <ele>209.19999694824</ele>
        <time>2022-06-02T02:12:43.000Z</time>
      </trkpt>
      <trkpt lat="45.19769" lon="5.74242">
        <ele>209</ele>
        <time>2022-06-02T02:12:44.000Z</time>
      </trkpt>
      <trkpt lat="45.19771" lon="5.74242">
        <ele>209</ele>
        <time>2022-06-02T02:12:45.000Z</time>
      </trkpt>
      <trkpt lat="45.19773" lon="5.74241">
        <ele>209.19999694824</ele>
        <time>2022-06-02T02:12:46.000Z</time>
      </trkpt>
      <trkpt lat="45.19775" lon="5.74241">
        <ele>209</ele>
        <time>2022-06-02T02:12:47.000Z</time>
      </trkpt>
      <trkpt lat="45.19778" lon="5.7424">
        <ele>209.19999694824</ele>
        <time>2022-06-02T02:12:48.000Z</time>
      </trkpt>
      <trkpt lat="45.1978" lon="5.7424">
        <ele>209.19999694824</ele>
        <time>2022-06-02T02:12:49.000Z</time>
      </trkpt>
      <trkpt lat="45.19782" lon="5.74239">
        <ele>209.19999694824</ele>
        <time>2022-06-02T02:12:50.000Z</time>
      </trkpt>
      <trkpt lat="45.19784" lon="5.74239">
        <ele>209.19999694824</ele>
        <time>2022-06-02T02:12:51.000Z</time>
      </trkpt>
      <trkpt lat="45.19785" lon="5.74239">
        <ele>208.80000305176</ele>
        <time>2022-06-02T02:12:52.000Z</time>
      </trkpt>
      <trkpt lat="45.19787" lon="5.74239">
        <ele>209.19999694824</ele>
        <time>2022-06-02T02:12:53.000Z</time>
      </trkpt>
      <trkpt lat="45.19789" lon="5.74238">
        <ele>209.39999389648</ele>
        <time>2022-06-02T02:12:54.000Z</time>
      </trkpt>
      <trkpt lat="45.19791" lon="5.74238">
        <ele>209.39999389648</ele>
        <time>2022-06-02T02:12:55.000Z</time>
      </trkpt>
      <trkpt lat="45.19793" lon="5.74238">
        <ele>209.19999694824</ele>
        <time>2022-06-02T02:12:56.000Z</time>
      </trkpt>
      <trkpt lat="45.19795" lon="5.74237">
        <ele>209.19999694824</ele>
        <time>2022-06-02T02:12:57.000Z</time>
      </trkpt>
      <trkpt lat="45.19798" lon="5.74237">
        <ele>209.19999694824</ele>
        <time>2022-06-02T02:12:58.000Z</time>
      </trkpt>
      <trkpt lat="45.198" lon="5.74236">
        <ele>209.19999694824</ele>
        <time>2022-06-02T02:12:59.000Z</time>
      </trkpt>
      <trkpt lat="45.19803" lon="5.74235">
        <ele>209.39999389648</ele>
        <time>2022-06-02T02:13:00.000Z</time>
      </trkpt>
      <trkpt lat="45.19806" lon="5.74235">
        <ele>209</ele>
        <time>2022-06-02T02:13:01.000Z</time>
      </trkpt>
      <trkpt lat="45.19808" lon="5.74234">
        <ele>209.39999389648</ele>
        <time>2022-06-02T02:13:02.000Z</time>
      </trkpt>
      <trkpt lat="45.19811" lon="5.74233">
        <ele>209.39999389648</ele>
        <time>2022-06-02T02:13:03.000Z</time>
      </trkpt>
      <trkpt lat="45.19814" lon="5.74232">
        <ele>209.39999389648</ele>
        <time>2022-06-02T02:13:04.000Z</time>
      </trkpt>
      <trkpt lat="45.19817" lon="5.74231">
        <ele>209.39999389648</ele>
        <time>2022-06-02T02:13:05.000Z</time>
      </trkpt>
      <trkpt lat="45.1982" lon="5.74229">
        <ele>209.19999694824</ele>
        <time>2022-06-02T02:13:06.000Z</time>
      </trkpt>
      <trkpt lat="45.19822" lon="5.74228">
        <ele>209.19999694824</ele>
        <time>2022-06-02T02:13:07.000Z</time>
      </trkpt>
      <trkpt lat="45.19825" lon="5.74227">
        <ele>209</ele>
        <time>2022-06-02T02:13:08.000Z</time>
      </trkpt>
      <trkpt lat="45.19827" lon="5.74226">
        <ele>209.60000610352</ele>
        <time>2022-06-02T02:13:09.000Z</time>
      </trkpt>
      <trkpt lat="45.1983" lon="5.74224">
        <ele>209</ele>
        <time>2022-06-02T02:13:10.000Z</time>
      </trkpt>
      <trkpt lat="45.19832" lon="5.74223">
        <ele>209</ele>
        <time>2022-06-02T02:13:11.000Z</time>
      </trkpt>
      <trkpt lat="45.19835" lon="5.74222">
        <ele>209</ele>
        <time>2022-06-02T02:13:12.000Z</time>
      </trkpt>
      <trkpt lat="45.19838" lon="5.74222">
        <ele>209.19999694824</ele>
        <time>2022-06-02T02:13:13.000Z</time>
      </trkpt>
      <trkpt lat="45.1984" lon="5.74221">
        <ele>209.19999694824</ele>
        <time>2022-06-02T02:13:14.000Z</time>
      </trkpt>
      <trkpt lat="45.19842" lon="5.7422">
        <ele>209</ele>
        <time>2022-06-02T02:13:15.000Z</time>
      </trkpt>
      <trkpt lat="45.19844" lon="5.7422">
        <ele>209.19999694824</ele>
        <time>2022-06-02T02:13:16.000Z</time>
      </trkpt>
      <trkpt lat="45.19846" lon="5.7422">
        <ele>209.19999694824</ele>
        <time>2022-06-02T02:13:17.000Z</time>
      </trkpt>
      <trkpt lat="45.19849" lon="5.74219">
        <ele>209.19999694824</ele>
        <time>2022-06-02T02:13:18.000Z</time>
      </trkpt>
      <trkpt lat="45.19851" lon="5.74218">
        <ele>209.19999694824</ele>
        <time>2022-06-02T02:13:19.000Z</time>
      </trkpt>
      <trkpt lat="45.19853" lon="5.74217">
        <ele>209</ele>
        <time>2022-06-02T02:13:20.000Z</time>
      </trkpt>
      <trkpt lat="45.19855" lon="5.74217">
        <ele>209</ele>
        <time>2022-06-02T02:13:21.000Z</time>
      </trkpt>
      <trkpt lat="45.19858" lon="5.74216">
        <ele>208.80000305176</ele>
        <time>2022-06-02T02:13:22.000Z</time>
      </trkpt>
      <trkpt lat="45.1986" lon="5.74216">
        <ele>209.19999694824</ele>
        <time>2022-06-02T02:13:23.000Z</time>
      </trkpt>
      <trkpt lat="45.19863" lon="5.74215">
        <ele>208.80000305176</ele>
        <time>2022-06-02T02:13:24.000Z</time>
      </trkpt>
      <trkpt lat="45.19865" lon="5.74214">
        <ele>209</ele>
        <time>2022-06-02T02:13:25.000Z</time>
      </trkpt>
      <trkpt lat="45.19868" lon="5.74213">
        <ele>209</ele>
        <time>2022-06-02T02:13:26.000Z</time>
      </trkpt>
      <trkpt lat="45.1987" lon="5.74212">
        <ele>209</ele>
        <time>2022-06-02T02:13:27.000Z</time>
      </trkpt>
      <trkpt lat="45.19872" lon="5.74212">
        <ele>209</ele>
        <time>2022-06-02T02:13:28.000Z</time>
      </trkpt>
      <trkpt lat="45.19875" lon="5.74211">
        <ele>209.19999694824</ele>
        <time>2022-06-02T02:13:29.000Z</time>
      </trkpt>
      <trkpt lat="45.19877" lon="5.7421">
        <ele>209</ele>
        <time>2022-06-02T02:13:30.000Z</time>
      </trkpt>
      <trkpt lat="45.19879" lon="5.74209">
        <ele>208.80000305176</ele>
        <time>2022-06-02T02:13:31.000Z</time>
      </trkpt>
      <trkpt lat="45.19882" lon="5.74208">
        <ele>209.39999389648</ele>
        <time>2022-06-02T02:13:32.000Z</time>
      </trkpt>
      <trkpt lat="45.19884" lon="5.74207">
        <ele>209.19999694824</ele>
        <time>2022-06-02T02:13:33.000Z</time>
      </trkpt>
      <trkpt lat="45.19887" lon="5.74206">
        <ele>209.19999694824</ele>
        <time>2022-06-02T02:13:34.000Z</time>
      </trkpt>
      <trkpt lat="45.19889" lon="5.74205">
        <ele>209.19999694824</ele>
        <time>2022-06-02T02:13:35.000Z</time>
      </trkpt>
      <trkpt lat="45.19892" lon="5.74204">
        <ele>209.19999694824</ele>
        <time>2022-06-02T02:13:36.000Z</time>
      </trkpt>
      <trkpt lat="45.19895" lon="5.74203">
        <ele>209.19999694824</ele>
        <time>2022-06-02T02:13:37.000Z</time>
      </trkpt>
      <trkpt lat="45.19897" lon="5.74201">
        <ele>209.39999389648</ele>
        <time>2022-06-02T02:13:38.000Z</time>
      </trkpt>
      <trkpt lat="45.199" lon="5.742">
        <ele>209.39999389648</ele>
        <time>2022-06-02T02:13:39.000Z</time>
      </trkpt>
      <trkpt lat="45.19903" lon="5.74199">
        <ele>209.60000610352</ele>
        <time>2022-06-02T02:13:40.000Z</time>
      </trkpt>
      <trkpt lat="45.19905" lon="5.74197">
        <ele>209.60000610352</ele>
        <time>2022-06-02T02:13:41.000Z</time>
      </trkpt>
      <trkpt lat="45.19908" lon="5.74195">
        <ele>209</ele>
        <time>2022-06-02T02:13:42.000Z</time>
      </trkpt>
      <trkpt lat="45.19911" lon="5.74194">
        <ele>209.39999389648</ele>
        <time>2022-06-02T02:13:43.000Z</time>
      </trkpt>
      <trkpt lat="45.19913" lon="5.74193">
        <ele>209.39999389648</ele>
        <time>2022-06-02T02:13:44.000Z</time>
      </trkpt>
      <trkpt lat="45.19916" lon="5.74191">
        <ele>209</ele>
        <time>2022-06-02T02:13:45.000Z</time>
      </trkpt>
      <trkpt lat="45.19919" lon="5.7419">
        <ele>209</ele>
        <time>2022-06-02T02:13:46.000Z</time>
      </trkpt>
      <trkpt lat="45.19921" lon="5.74188">
        <ele>209.39999389648</ele>
        <time>2022-06-02T02:13:47.000Z</time>
      </trkpt>
      <trkpt lat="45.19923" lon="5.74186">
        <ele>209.19999694824</ele>
        <time>2022-06-02T02:13:48.000Z</time>
      </trkpt>
      <trkpt lat="45.19926" lon="5.74184">
        <ele>208.60000610352</ele>
        <time>2022-06-02T02:13:49.000Z</time>
      </trkpt>
      <trkpt lat="45.19928" lon="5.74183">
        <ele>209.39999389648</ele>
        <time>2022-06-02T02:13:50.000Z</time>
      </trkpt>
      <trkpt lat="45.1993" lon="5.74181">
        <ele>209</ele>
        <time>2022-06-02T02:13:51.000Z</time>
      </trkpt>
      <trkpt lat="45.19932" lon="5.7418">
        <ele>209</ele>
        <time>2022-06-02T02:13:52.000Z</time>
      </trkpt>
      <trkpt lat="45.19934" lon="5.74178">
        <ele>209</ele>
        <time>2022-06-02T02:13:53.000Z</time>
      </trkpt>
      <trkpt lat="45.19937" lon="5.74177">
        <ele>209.39999389648</ele>
        <time>2022-06-02T02:13:54.000Z</time>
      </trkpt>
      <trkpt lat="45.19939" lon="5.74175">
        <ele>208.80000305176</ele>
        <time>2022-06-02T02:13:55.000Z</time>
      </trkpt>
      <trkpt lat="45.19942" lon="5.74173">
        <ele>209.39999389648</ele>
        <time>2022-06-02T02:13:56.000Z</time>
      </trkpt>
      <trkpt lat="45.19944" lon="5.74172">
        <ele>209.39999389648</ele>
        <time>2022-06-02T02:13:57.000Z</time>
      </trkpt>
      <trkpt lat="45.19946" lon="5.7417">
        <ele>209</ele>
        <time>2022-06-02T02:13:58.000Z</time>
      </trkpt>
      <trkpt lat="45.19949" lon="5.74169">
        <ele>209.39999389648</ele>
        <time>2022-06-02T02:13:59.000Z</time>
      </trkpt>
      <trkpt lat="45.19951" lon="5.74167">
        <ele>209.19999694824</ele>
        <time>2022-06-02T02:14:00.000Z</time>
      </trkpt>
      <trkpt lat="45.19953" lon="5.74165">
        <ele>209</ele>
        <time>2022-06-02T02:14:01.000Z</time>
      </trkpt>
      <trkpt lat="45.19956" lon="5.74164">
        <ele>208.60000610352</ele>
        <time>2022-06-02T02:14:02.000Z</time>
      </trkpt>
      <trkpt lat="45.19958" lon="5.74162">
        <ele>209</ele>
        <time>2022-06-02T02:14:03.000Z</time>
      </trkpt>
      <trkpt lat="45.19961" lon="5.7416">
        <ele>208.80000305176</ele>
        <time>2022-06-02T02:14:04.000Z</time>
      </trkpt>
      <trkpt lat="45.19963" lon="5.74157">
        <ele>209</ele>
        <time>2022-06-02T02:14:05.000Z</time>
      </trkpt>
      <trkpt lat="45.19966" lon="5.74155">
        <ele>209</ele>
        <time>2022-06-02T02:14:06.000Z</time>
      </trkpt>
      <trkpt lat="45.19968" lon="5.74153">
        <ele>208.60000610352</ele>
        <time>2022-06-02T02:14:07.000Z</time>
      </trkpt>
      <trkpt lat="45.19971" lon="5.74151">
        <ele>209.39999389648</ele>
        <time>2022-06-02T02:14:08.000Z</time>
      </trkpt>
      <trkpt lat="45.19973" lon="5.74149">
        <ele>208.80000305176</ele>
        <time>2022-06-02T02:14:09.000Z</time>
      </trkpt>
      <trkpt lat="45.19975" lon="5.74146">
        <ele>209.19999694824</ele>
        <time>2022-06-02T02:14:10.000Z</time>
      </trkpt>
      <trkpt lat="45.19977" lon="5.74144">
        <ele>209.19999694824</ele>
        <time>2022-06-02T02:14:11.000Z</time>
      </trkpt>
      <trkpt lat="45.19979" lon="5.74142">
        <ele>209</ele>
        <time>2022-06-02T02:14:12.000Z</time>
      </trkpt>
      <trkpt lat="45.19982" lon="5.7414">
        <ele>208.80000305176</ele>
        <time>2022-06-02T02:14:13.000Z</time>
      </trkpt>
      <trkpt lat="45.19983" lon="5.74139">
        <ele>208.80000305176</ele>
        <time>2022-06-02T02:14:14.000Z</time>
      </trkpt>
      <trkpt lat="45.19985" lon="5.74138">
        <ele>209.19999694824</ele>
        <time>2022-06-02T02:14:15.000Z</time>
      </trkpt>
      <trkpt lat="45.19987" lon="5.74137">
        <ele>208.60000610352</ele>
        <time>2022-06-02T02:14:16.000Z</time>
      </trkpt>
      <trkpt lat="45.19989" lon="5.74135">
        <ele>208.60000610352</ele>
        <time>2022-06-02T02:14:17.000Z</time>
      </trkpt>
      <trkpt lat="45.19992" lon="5.74133">
        <ele>208.19999694824</ele>
        <time>2022-06-02T02:14:18.000Z</time>
      </trkpt>
      <trkpt lat="45.19994" lon="5.74131">
        <ele>207.80000305176</ele>
        <time>2022-06-02T02:14:19.000Z</time>
      </trkpt>
      <trkpt lat="45.19997" lon="5.74129">
        <ele>207.60000610352</ele>
        <time>2022-06-02T02:14:20.000Z</time>
      </trkpt>
      <trkpt lat="45.19999" lon="5.74126">
        <ele>207</ele>
        <time>2022-06-02T02:14:21.000Z</time>
      </trkpt>
      <trkpt lat="45.20001" lon="5.74124">
        <ele>207</ele>
        <time>2022-06-02T02:14:22.000Z</time>
      </trkpt>
      <trkpt lat="45.20003" lon="5.74121">
        <ele>206.60000610352</ele>
        <time>2022-06-02T02:14:23.000Z</time>
      </trkpt>
      <trkpt lat="45.20005" lon="5.74118">
        <ele>206.60000610352</ele>
        <time>2022-06-02T02:14:24.000Z</time>
      </trkpt>
      <trkpt lat="45.20008" lon="5.74116">
        <ele>206.39999389648</ele>
        <time>2022-06-02T02:14:25.000Z</time>
      </trkpt>
      <trkpt lat="45.20009" lon="5.74113">
        <ele>206.80000305176</ele>
        <time>2022-06-02T02:14:26.000Z</time>
      </trkpt>
      <trkpt lat="45.20011" lon="5.74111">
        <ele>206.60000610352</ele>
        <time>2022-06-02T02:14:27.000Z</time>
      </trkpt>
      <trkpt lat="45.20013" lon="5.74108">
        <ele>206.19999694824</ele>
        <time>2022-06-02T02:14:28.000Z</time>
      </trkpt>
      <trkpt lat="45.20015" lon="5.74106">
        <ele>206.19999694824</ele>
        <time>2022-06-02T02:14:29.000Z</time>
      </trkpt>
      <trkpt lat="45.20017" lon="5.74103">
        <ele>206.19999694824</ele>
        <time>2022-06-02T02:14:30.000Z</time>
      </trkpt>
      <trkpt lat="45.20019" lon="5.74101">
        <ele>206.19999694824</ele>
        <time>2022-06-02T02:14:31.000Z</time>
      </trkpt>
      <trkpt lat="45.20021" lon="5.74099">
        <ele>206</ele>
        <time>2022-06-02T02:14:32.000Z</time>
      </trkpt>
      <trkpt lat="45.20023" lon="5.74095">
        <ele>206.39999389648</ele>
        <time>2022-06-02T02:14:33.000Z</time>
      </trkpt>
      <trkpt lat="45.20025" lon="5.74094">
        <ele>206.19999694824</ele>
        <time>2022-06-02T02:14:34.000Z</time>
      </trkpt>
      <trkpt lat="45.20025" lon="5.74093">
        <ele>206.19999694824</ele>
        <time>2022-06-02T02:14:35.000Z</time>
      </trkpt>
      <trkpt lat="45.20027" lon="5.74091">
        <ele>206.19999694824</ele>
        <time>2022-06-02T02:14:36.000Z</time>
      </trkpt>
      <trkpt lat="45.20028" lon="5.74089">
        <ele>205.60000610352</ele>
        <time>2022-06-02T02:14:37.000Z</time>
      </trkpt>
      <trkpt lat="45.2003" lon="5.74087">
        <ele>206.19999694824</ele>
        <time>2022-06-02T02:14:38.000Z</time>
      </trkpt>
      <trkpt lat="45.20034" lon="5.74084">
        <ele>205.60000610352</ele>
        <time>2022-06-02T02:14:39.000Z</time>
      </trkpt>
      <trkpt lat="45.20037" lon="5.74082">
        <ele>205.60000610352</ele>
        <time>2022-06-02T02:14:40.000Z</time>
      </trkpt>
      <trkpt lat="45.20039" lon="5.74079">
        <ele>205.39999389648</ele>
        <time>2022-06-02T02:14:41.000Z</time>
      </trkpt>
      <trkpt lat="45.20041" lon="5.74077">
        <ele>206.19999694824</ele>
        <time>2022-06-02T02:14:42.000Z</time>
      </trkpt>
      <trkpt lat="45.20042" lon="5.74074">
        <ele>207</ele>
        <time>2022-06-02T02:14:43.000Z</time>
      </trkpt>
      <trkpt lat="45.20044" lon="5.74072">
        <ele>206.80000305176</ele>
        <time>2022-06-02T02:14:44.000Z</time>
      </trkpt>
      <trkpt lat="45.20046" lon="5.7407">
        <ele>206.80000305176</ele>
        <time>2022-06-02T02:14:45.000Z</time>
      </trkpt>
      <trkpt lat="45.20048" lon="5.74067">
        <ele>207.39999389648</ele>
        <time>2022-06-02T02:14:46.000Z</time>
      </trkpt>
      <trkpt lat="45.20052" lon="5.74064">
        <ele>207.80000305176</ele>
        <time>2022-06-02T02:14:47.000Z</time>
      </trkpt>
      <trkpt lat="45.20055" lon="5.7406">
        <ele>207.80000305176</ele>
        <time>2022-06-02T02:14:48.000Z</time>
      </trkpt>
      <trkpt lat="45.20057" lon="5.74058">
        <ele>207.39999389648</ele>
        <time>2022-06-02T02:14:49.000Z</time>
      </trkpt>
      <trkpt lat="45.20059" lon="5.74055">
        <ele>207.80000305176</ele>
        <time>2022-06-02T02:14:50.000Z</time>
      </trkpt>
      <trkpt lat="45.20062" lon="5.74052">
        <ele>208</ele>
        <time>2022-06-02T02:14:51.000Z</time>
      </trkpt>
      <trkpt lat="45.20062" lon="5.7405">
        <ele>208.39999389648</ele>
        <time>2022-06-02T02:14:52.000Z</time>
      </trkpt>
      <trkpt lat="45.20065" lon="5.74047">
        <ele>208.60000610352</ele>
        <time>2022-06-02T02:14:53.000Z</time>
      </trkpt>
      <trkpt lat="45.20067" lon="5.74044">
        <ele>208.60000610352</ele>
        <time>2022-06-02T02:14:54.000Z</time>
      </trkpt>
      <trkpt lat="45.20068" lon="5.74041">
        <ele>208.60000610352</ele>
        <time>2022-06-02T02:14:55.000Z</time>
      </trkpt>
      <trkpt lat="45.2007" lon="5.74038">
        <ele>208.60000610352</ele>
        <time>2022-06-02T02:14:56.000Z</time>
      </trkpt>
      <trkpt lat="45.20071" lon="5.74036">
        <ele>208.39999389648</ele>
        <time>2022-06-02T02:14:57.000Z</time>
      </trkpt>
      <trkpt lat="45.20073" lon="5.74034">
        <ele>208.80000305176</ele>
        <time>2022-06-02T02:14:58.000Z</time>
      </trkpt>
      <trkpt lat="45.20075" lon="5.74032">
        <ele>208.39999389648</ele>
        <time>2022-06-02T02:14:59.000Z</time>
      </trkpt>
      <trkpt lat="45.20076" lon="5.7403">
        <ele>208.80000305176</ele>
        <time>2022-06-02T02:15:00.000Z</time>
      </trkpt>
      <trkpt lat="45.20078" lon="5.74028">
        <ele>208.80000305176</ele>
        <time>2022-06-02T02:15:01.000Z</time>
      </trkpt>
      <trkpt lat="45.2008" lon="5.74025">
        <ele>208.19999694824</ele>
        <time>2022-06-02T02:15:02.000Z</time>
      </trkpt>
      <trkpt lat="45.20082" lon="5.74024">
        <ele>208.19999694824</ele>
        <time>2022-06-02T02:15:03.000Z</time>
      </trkpt>
      <trkpt lat="45.20084" lon="5.74021">
        <ele>208</ele>
        <time>2022-06-02T02:15:04.000Z</time>
      </trkpt>
      <trkpt lat="45.20085" lon="5.74019">
        <ele>208</ele>
        <time>2022-06-02T02:15:05.000Z</time>
      </trkpt>
      <trkpt lat="45.20087" lon="5.74017">
        <ele>208</ele>
        <time>2022-06-02T02:15:06.000Z</time>
      </trkpt>
      <trkpt lat="45.20089" lon="5.74015">
        <ele>208</ele>
        <time>2022-06-02T02:15:07.000Z</time>
      </trkpt>
      <trkpt lat="45.2009" lon="5.74013">
        <ele>208</ele>
        <time>2022-06-02T02:15:08.000Z</time>
      </trkpt>
      <trkpt lat="45.20092" lon="5.74011">
        <ele>207.39999389648</ele>
        <time>2022-06-02T02:15:09.000Z</time>
      </trkpt>
      <trkpt lat="45.20094" lon="5.74009">
        <ele>207.80000305176</ele>
        <time>2022-06-02T02:15:10.000Z</time>
      </trkpt>
      <trkpt lat="45.20095" lon="5.74006">
        <ele>208.19999694824</ele>
        <time>2022-06-02T02:15:11.000Z</time>
      </trkpt>
      <trkpt lat="45.20097" lon="5.74003">
        <ele>208.19999694824</ele>
        <time>2022-06-02T02:15:12.000Z</time>
      </trkpt>
      <trkpt lat="45.201" lon="5.74">
        <ele>208.19999694824</ele>
        <time>2022-06-02T02:15:13.000Z</time>
      </trkpt>
      <trkpt lat="45.20102" lon="5.73997">
        <ele>207.60000610352</ele>
        <time>2022-06-02T02:15:14.000Z</time>
      </trkpt>
      <trkpt lat="45.20105" lon="5.73994">
        <ele>207.60000610352</ele>
        <time>2022-06-02T02:15:15.000Z</time>
      </trkpt>
      <trkpt lat="45.20107" lon="5.73991">
        <ele>208</ele>
        <time>2022-06-02T02:15:16.000Z</time>
      </trkpt>
      <trkpt lat="45.20109" lon="5.73988">
        <ele>207.60000610352</ele>
        <time>2022-06-02T02:15:17.000Z</time>
      </trkpt>
      <trkpt lat="45.20112" lon="5.73985">
        <ele>207.60000610352</ele>
        <time>2022-06-02T02:15:18.000Z</time>
      </trkpt>
      <trkpt lat="45.20114" lon="5.73982">
        <ele>207</ele>
        <time>2022-06-02T02:15:19.000Z</time>
      </trkpt>
      <trkpt lat="45.20116" lon="5.73979">
        <ele>207.60000610352</ele>
        <time>2022-06-02T02:15:20.000Z</time>
      </trkpt>
      <trkpt lat="45.20117" lon="5.73977">
        <ele>207.39999389648</ele>
        <time>2022-06-02T02:15:21.000Z</time>
      </trkpt>
      <trkpt lat="45.20119" lon="5.73974">
        <ele>207.39999389648</ele>
        <time>2022-06-02T02:15:22.000Z</time>
      </trkpt>
      <trkpt lat="45.20121" lon="5.73971">
        <ele>207.19999694824</ele>
        <time>2022-06-02T02:15:23.000Z</time>
      </trkpt>
      <trkpt lat="45.20122" lon="5.73968">
        <ele>207.19999694824</ele>
        <time>2022-06-02T02:15:24.000Z</time>
      </trkpt>
      <trkpt lat="45.20123" lon="5.73965">
        <ele>207.19999694824</ele>
        <time>2022-06-02T02:15:25.000Z</time>
      </trkpt>
      <trkpt lat="45.20125" lon="5.73961">
        <ele>207</ele>
        <time>2022-06-02T02:15:26.000Z</time>
      </trkpt>
      <trkpt lat="45.20126" lon="5.73958">
        <ele>207.19999694824</ele>
        <time>2022-06-02T02:15:27.000Z</time>
      </trkpt>
      <trkpt lat="45.20127" lon="5.73954">
        <ele>207.19999694824</ele>
        <time>2022-06-02T02:15:28.000Z</time>
      </trkpt>
      <trkpt lat="45.20129" lon="5.73951">
        <ele>207.19999694824</ele>
        <time>2022-06-02T02:15:29.000Z</time>
      </trkpt>
      <trkpt lat="45.2013" lon="5.73947">
        <ele>207.19999694824</ele>
        <time>2022-06-02T02:15:30.000Z</time>
      </trkpt>
      <trkpt lat="45.20133" lon="5.73944">
        <ele>207.19999694824</ele>
        <time>2022-06-02T02:15:31.000Z</time>
      </trkpt>
      <trkpt lat="45.20134" lon="5.73942">
        <ele>208</ele>
        <time>2022-06-02T02:15:32.000Z</time>
      </trkpt>
      <trkpt lat="45.20136" lon="5.7394">
        <ele>207.80000305176</ele>
        <time>2022-06-02T02:15:33.000Z</time>
      </trkpt>
      <trkpt lat="45.20137" lon="5.73937">
        <ele>207.80000305176</ele>
        <time>2022-06-02T02:15:34.000Z</time>
      </trkpt>
      <trkpt lat="45.20138" lon="5.73933">
        <ele>207.39999389648</ele>
        <time>2022-06-02T02:15:35.000Z</time>
      </trkpt>
      <trkpt lat="45.2014" lon="5.7393">
        <ele>207.39999389648</ele>
        <time>2022-06-02T02:15:36.000Z</time>
      </trkpt>
      <trkpt lat="45.20142" lon="5.73927">
        <ele>207.39999389648</ele>
        <time>2022-06-02T02:15:37.000Z</time>
      </trkpt>
      <trkpt lat="45.20143" lon="5.73923">
        <ele>207.19999694824</ele>
        <time>2022-06-02T02:15:38.000Z</time>
      </trkpt>
      <trkpt lat="45.20145" lon="5.7392">
        <ele>207.60000610352</ele>
        <time>2022-06-02T02:15:39.000Z</time>
      </trkpt>
      <trkpt lat="45.20147" lon="5.73916">
        <ele>207.19999694824</ele>
        <time>2022-06-02T02:15:40.000Z</time>
      </trkpt>
      <trkpt lat="45.20148" lon="5.73913">
        <ele>207.39999389648</ele>
        <time>2022-06-02T02:15:41.000Z</time>
      </trkpt>
      <trkpt lat="45.2015" lon="5.7391">
        <ele>207.39999389648</ele>
        <time>2022-06-02T02:15:42.000Z</time>
      </trkpt>
      <trkpt lat="45.20152" lon="5.73906">
        <ele>207.19999694824</ele>
        <time>2022-06-02T02:15:43.000Z</time>
      </trkpt>
      <trkpt lat="45.20153" lon="5.73903">
        <ele>207.19999694824</ele>
        <time>2022-06-02T02:15:44.000Z</time>
      </trkpt>
      <trkpt lat="45.20155" lon="5.739">
        <ele>207.19999694824</ele>
        <time>2022-06-02T02:15:45.000Z</time>
      </trkpt>
      <trkpt lat="45.20157" lon="5.73897">
        <ele>207.39999389648</ele>
        <time>2022-06-02T02:15:46.000Z</time>
      </trkpt>
      <trkpt lat="45.20159" lon="5.73894">
        <ele>207.19999694824</ele>
        <time>2022-06-02T02:15:47.000Z</time>
      </trkpt>
      <trkpt lat="45.20161" lon="5.73891">
        <ele>207.19999694824</ele>
        <time>2022-06-02T02:15:48.000Z</time>
      </trkpt>
      <trkpt lat="45.20163" lon="5.73887">
        <ele>207.19999694824</ele>
        <time>2022-06-02T02:15:49.000Z</time>
      </trkpt>
      <trkpt lat="45.20164" lon="5.73884">
        <ele>207.39999389648</ele>
        <time>2022-06-02T02:15:50.000Z</time>
      </trkpt>
      <trkpt lat="45.20165" lon="5.7388">
        <ele>207.19999694824</ele>
        <time>2022-06-02T02:15:51.000Z</time>
      </trkpt>
      <trkpt lat="45.20167" lon="5.73877">
        <ele>207.19999694824</ele>
        <time>2022-06-02T02:15:52.000Z</time>
      </trkpt>
      <trkpt lat="45.20168" lon="5.73874">
        <ele>207.39999389648</ele>
        <time>2022-06-02T02:15:53.000Z</time>
      </trkpt>
      <trkpt lat="45.2017" lon="5.7387">
        <ele>207</ele>
        <time>2022-06-02T02:15:54.000Z</time>
      </trkpt>
      <trkpt lat="45.20171" lon="5.73867">
        <ele>207</ele>
        <time>2022-06-02T02:15:55.000Z</time>
      </trkpt>
      <trkpt lat="45.20173" lon="5.73863">
        <ele>207</ele>
        <time>2022-06-02T02:15:56.000Z</time>
      </trkpt>
      <trkpt lat="45.20174" lon="5.7386">
        <ele>207.19999694824</ele>
        <time>2022-06-02T02:15:57.000Z</time>
      </trkpt>
      <trkpt lat="45.20176" lon="5.73857">
        <ele>207.19999694824</ele>
        <time>2022-06-02T02:15:58.000Z</time>
      </trkpt>
      <trkpt lat="45.20177" lon="5.73854">
        <ele>206.60000610352</ele>
        <time>2022-06-02T02:15:59.000Z</time>
      </trkpt>
      <trkpt lat="45.20178" lon="5.7385">
        <ele>207</ele>
        <time>2022-06-02T02:16:00.000Z</time>
      </trkpt>
      <trkpt lat="45.20179" lon="5.73847">
        <ele>207</ele>
        <time>2022-06-02T02:16:01.000Z</time>
      </trkpt>
      <trkpt lat="45.2018" lon="5.73844">
        <ele>207.19999694824</ele>
        <time>2022-06-02T02:16:02.000Z</time>
      </trkpt>
      <trkpt lat="45.20181" lon="5.7384">
        <ele>207</ele>
        <time>2022-06-02T02:16:03.000Z</time>
      </trkpt>
      <trkpt lat="45.20182" lon="5.73837">
        <ele>207.19999694824</ele>
        <time>2022-06-02T02:16:04.000Z</time>
      </trkpt>
      <trkpt lat="45.20183" lon="5.73834">
        <ele>207.19999694824</ele>
        <time>2022-06-02T02:16:05.000Z</time>
      </trkpt>
      <trkpt lat="45.20184" lon="5.73831">
        <ele>207.19999694824</ele>
        <time>2022-06-02T02:16:06.000Z</time>
      </trkpt>
      <trkpt lat="45.20184" lon="5.73828">
        <ele>207.19999694824</ele>
        <time>2022-06-02T02:16:07.000Z</time>
      </trkpt>
      <trkpt lat="45.20185" lon="5.73824">
        <ele>206.80000305176</ele>
        <time>2022-06-02T02:16:08.000Z</time>
      </trkpt>
      <trkpt lat="45.20185" lon="5.7382">
        <ele>207.19999694824</ele>
        <time>2022-06-02T02:16:09.000Z</time>
      </trkpt>
      <trkpt lat="45.20185" lon="5.73817">
        <ele>207.19999694824</ele>
        <time>2022-06-02T02:16:10.000Z</time>
      </trkpt>
      <trkpt lat="45.20185" lon="5.73813">
        <ele>207.19999694824</ele>
        <time>2022-06-02T02:16:11.000Z</time>
      </trkpt>
      <trkpt lat="45.20185" lon="5.73809">
        <ele>207</ele>
        <time>2022-06-02T02:16:12.000Z</time>
      </trkpt>
      <trkpt lat="45.20185" lon="5.73805">
        <ele>207</ele>
        <time>2022-06-02T02:16:13.000Z</time>
      </trkpt>
      <trkpt lat="45.20186" lon="5.738">
        <ele>207.39999389648</ele>
        <time>2022-06-02T02:16:14.000Z</time>
      </trkpt>
      <trkpt lat="45.20186" lon="5.73795">
        <ele>206.60000610352</ele>
        <time>2022-06-02T02:16:15.000Z</time>
      </trkpt>
      <trkpt lat="45.20185" lon="5.73791">
        <ele>207.39999389648</ele>
        <time>2022-06-02T02:16:16.000Z</time>
      </trkpt>
      <trkpt lat="45.20186" lon="5.73787">
        <ele>207.39999389648</ele>
        <time>2022-06-02T02:16:17.000Z</time>
      </trkpt>
      <trkpt lat="45.20186" lon="5.73783">
        <ele>207.19999694824</ele>
        <time>2022-06-02T02:16:18.000Z</time>
      </trkpt>
      <trkpt lat="45.20185" lon="5.73778">
        <ele>207.19999694824</ele>
        <time>2022-06-02T02:16:19.000Z</time>
      </trkpt>
      <trkpt lat="45.20185" lon="5.73774">
        <ele>207.19999694824</ele>
        <time>2022-06-02T02:16:20.000Z</time>
      </trkpt>
      <trkpt lat="45.20185" lon="5.7377">
        <ele>207.39999389648</ele>
        <time>2022-06-02T02:16:21.000Z</time>
      </trkpt>
      <trkpt lat="45.20185" lon="5.73766">
        <ele>207</ele>
        <time>2022-06-02T02:16:22.000Z</time>
      </trkpt>
      <trkpt lat="45.20185" lon="5.73762">
        <ele>207.39999389648</ele>
        <time>2022-06-02T02:16:23.000Z</time>
      </trkpt>
      <trkpt lat="45.20185" lon="5.73758">
        <ele>207</ele>
        <time>2022-06-02T02:16:24.000Z</time>
      </trkpt>
      <trkpt lat="45.20185" lon="5.73754">
        <ele>207</ele>
        <time>2022-06-02T02:16:25.000Z</time>
      </trkpt>
      <trkpt lat="45.20184" lon="5.73751">
        <ele>207</ele>
        <time>2022-06-02T02:16:26.000Z</time>
      </trkpt>
      <trkpt lat="45.20184" lon="5.73747">
        <ele>207.60000610352</ele>
        <time>2022-06-02T02:16:27.000Z</time>
      </trkpt>
      <trkpt lat="45.20183" lon="5.73743">
        <ele>207.39999389648</ele>
        <time>2022-06-02T02:16:28.000Z</time>
      </trkpt>
      <trkpt lat="45.20183" lon="5.73739">
        <ele>207.19999694824</ele>
        <time>2022-06-02T02:16:29.000Z</time>
      </trkpt>
      <trkpt lat="45.20182" lon="5.73734">
        <ele>207.19999694824</ele>
        <time>2022-06-02T02:16:30.000Z</time>
      </trkpt>
      <trkpt lat="45.20182" lon="5.7373">
        <ele>207</ele>
        <time>2022-06-02T02:16:31.000Z</time>
      </trkpt>
      <trkpt lat="45.20181" lon="5.73726">
        <ele>207</ele>
        <time>2022-06-02T02:16:32.000Z</time>
      </trkpt>
      <trkpt lat="45.20181" lon="5.73722">
        <ele>207</ele>
        <time>2022-06-02T02:16:33.000Z</time>
      </trkpt>
      <trkpt lat="45.2018" lon="5.73719">
        <ele>207.19999694824</ele>
        <time>2022-06-02T02:16:34.000Z</time>
      </trkpt>
      <trkpt lat="45.2018" lon="5.73716">
        <ele>207.19999694824</ele>
        <time>2022-06-02T02:16:35.000Z</time>
      </trkpt>
      <trkpt lat="45.20179" lon="5.73713">
        <ele>207</ele>
        <time>2022-06-02T02:16:36.000Z</time>
      </trkpt>
      <trkpt lat="45.20179" lon="5.7371">
        <ele>206.60000610352</ele>
        <time>2022-06-02T02:16:37.000Z</time>
      </trkpt>
      <trkpt lat="45.20179" lon="5.73707">
        <ele>206.60000610352</ele>
        <time>2022-06-02T02:16:38.000Z</time>
      </trkpt>
      <trkpt lat="45.20178" lon="5.73704">
        <ele>207</ele>
        <time>2022-06-02T02:16:39.000Z</time>
      </trkpt>
      <trkpt lat="45.20178" lon="5.737">
        <ele>206.80000305176</ele>
        <time>2022-06-02T02:16:40.000Z</time>
      </trkpt>
      <trkpt lat="45.20177" lon="5.73697">
        <ele>206.60000610352</ele>
        <time>2022-06-02T02:16:41.000Z</time>
      </trkpt>
      <trkpt lat="45.20176" lon="5.73693">
        <ele>207.39999389648</ele>
        <time>2022-06-02T02:16:42.000Z</time>
      </trkpt>
      <trkpt lat="45.20175" lon="5.73688">
        <ele>207</ele>
        <time>2022-06-02T02:16:43.000Z</time>
      </trkpt>
      <trkpt lat="45.20173" lon="5.73684">
        <ele>207</ele>
        <time>2022-06-02T02:16:44.000Z</time>
      </trkpt>
      <trkpt lat="45.20173" lon="5.7368">
        <ele>206.80000305176</ele>
        <time>2022-06-02T02:16:45.000Z</time>
      </trkpt>
      <trkpt lat="45.20172" lon="5.73676">
        <ele>206.80000305176</ele>
        <time>2022-06-02T02:16:46.000Z</time>
      </trkpt>
      <trkpt lat="45.20171" lon="5.73672">
        <ele>206.80000305176</ele>
        <time>2022-06-02T02:16:47.000Z</time>
      </trkpt>
      <trkpt lat="45.2017" lon="5.73668">
        <ele>206.60000610352</ele>
        <time>2022-06-02T02:16:48.000Z</time>
      </trkpt>
      <trkpt lat="45.20169" lon="5.73664">
        <ele>207</ele>
        <time>2022-06-02T02:16:49.000Z</time>
      </trkpt>
      <trkpt lat="45.20169" lon="5.7366">
        <ele>206.39999389648</ele>
        <time>2022-06-02T02:16:50.000Z</time>
      </trkpt>
      <trkpt lat="45.20167" lon="5.73657">
        <ele>206.39999389648</ele>
        <time>2022-06-02T02:16:51.000Z</time>
      </trkpt>
      <trkpt lat="45.20166" lon="5.73653">
        <ele>206.39999389648</ele>
        <time>2022-06-02T02:16:52.000Z</time>
      </trkpt>
      <trkpt lat="45.20165" lon="5.73649">
        <ele>206.80000305176</ele>
        <time>2022-06-02T02:16:53.000Z</time>
      </trkpt>
      <trkpt lat="45.20164" lon="5.73644">
        <ele>206.80000305176</ele>
        <time>2022-06-02T02:16:54.000Z</time>
      </trkpt>
      <trkpt lat="45.20162" lon="5.7364">
        <ele>206.80000305176</ele>
        <time>2022-06-02T02:16:55.000Z</time>
      </trkpt>
      <trkpt lat="45.20161" lon="5.73636">
        <ele>207</ele>
        <time>2022-06-02T02:16:56.000Z</time>
      </trkpt>
      <trkpt lat="45.20159" lon="5.73632">
        <ele>206.80000305176</ele>
        <time>2022-06-02T02:16:57.000Z</time>
      </trkpt>
      <trkpt lat="45.20158" lon="5.73629">
        <ele>207</ele>
        <time>2022-06-02T02:16:58.000Z</time>
      </trkpt>
      <trkpt lat="45.20157" lon="5.73625">
        <ele>206.80000305176</ele>
        <time>2022-06-02T02:16:59.000Z</time>
      </trkpt>
      <trkpt lat="45.20155" lon="5.73622">
        <ele>206.80000305176</ele>
        <time>2022-06-02T02:17:00.000Z</time>
      </trkpt>
      <trkpt lat="45.20154" lon="5.73618">
        <ele>207</ele>
        <time>2022-06-02T02:17:01.000Z</time>
      </trkpt>
      <trkpt lat="45.20152" lon="5.73615">
        <ele>207</ele>
        <time>2022-06-02T02:17:02.000Z</time>
      </trkpt>
      <trkpt lat="45.20151" lon="5.73612">
        <ele>207.19999694824</ele>
        <time>2022-06-02T02:17:03.000Z</time>
      </trkpt>
      <trkpt lat="45.20149" lon="5.73609">
        <ele>206.39999389648</ele>
        <time>2022-06-02T02:17:04.000Z</time>
      </trkpt>
      <trkpt lat="45.20148" lon="5.73605">
        <ele>206.60000610352</ele>
        <time>2022-06-02T02:17:05.000Z</time>
      </trkpt>
      <trkpt lat="45.20147" lon="5.73602">
        <ele>206.60000610352</ele>
        <time>2022-06-02T02:17:06.000Z</time>
      </trkpt>
      <trkpt lat="45.20145" lon="5.736">
        <ele>206.39999389648</ele>
        <time>2022-06-02T02:17:07.000Z</time>
      </trkpt>
      <trkpt lat="45.20144" lon="5.73596">
        <ele>206.39999389648</ele>
        <time>2022-06-02T02:17:08.000Z</time>
      </trkpt>
      <trkpt lat="45.20142" lon="5.73593">
        <ele>206</ele>
        <time>2022-06-02T02:17:09.000Z</time>
      </trkpt>
      <trkpt lat="45.2014" lon="5.7359">
        <ele>206.39999389648</ele>
        <time>2022-06-02T02:17:10.000Z</time>
      </trkpt>
      <trkpt lat="45.20138" lon="5.73587">
        <ele>206.60000610352</ele>
        <time>2022-06-02T02:17:11.000Z</time>
      </trkpt>
      <trkpt lat="45.20136" lon="5.73584">
        <ele>207</ele>
        <time>2022-06-02T02:17:12.000Z</time>
      </trkpt>
      <trkpt lat="45.20134" lon="5.73581">
        <ele>207</ele>
        <time>2022-06-02T02:17:13.000Z</time>
      </trkpt>
      <trkpt lat="45.20132" lon="5.73579">
        <ele>206.39999389648</ele>
        <time>2022-06-02T02:17:14.000Z</time>
      </trkpt>
      <trkpt lat="45.2013" lon="5.73577">
        <ele>206.80000305176</ele>
        <time>2022-06-02T02:17:15.000Z</time>
      </trkpt>
      <trkpt lat="45.20128" lon="5.73574">
        <ele>206.39999389648</ele>
        <time>2022-06-02T02:17:16.000Z</time>
      </trkpt>
      <trkpt lat="45.20126" lon="5.73572">
        <ele>207.19999694824</ele>
        <time>2022-06-02T02:17:17.000Z</time>
      </trkpt>
      <trkpt lat="45.20125" lon="5.7357">
        <ele>206.39999389648</ele>
        <time>2022-06-02T02:17:18.000Z</time>
      </trkpt>
      <trkpt lat="45.20123" lon="5.73567">
        <ele>206.60000610352</ele>
        <time>2022-06-02T02:17:19.000Z</time>
      </trkpt>
      <trkpt lat="45.20122" lon="5.73564">
        <ele>207</ele>
        <time>2022-06-02T02:17:20.000Z</time>
      </trkpt>
      <trkpt lat="45.2012" lon="5.73561">
        <ele>206.60000610352</ele>
        <time>2022-06-02T02:17:21.000Z</time>
      </trkpt>
      <trkpt lat="45.20118" lon="5.73558">
        <ele>206.60000610352</ele>
        <time>2022-06-02T02:17:22.000Z</time>
      </trkpt>
      <trkpt lat="45.20116" lon="5.73556">
        <ele>206.60000610352</ele>
        <time>2022-06-02T02:17:23.000Z</time>
      </trkpt>
      <trkpt lat="45.20114" lon="5.73553">
        <ele>206.60000610352</ele>
        <time>2022-06-02T02:17:24.000Z</time>
      </trkpt>
      <trkpt lat="45.20112" lon="5.73551">
        <ele>206.39999389648</ele>
        <time>2022-06-02T02:17:25.000Z</time>
      </trkpt>
      <trkpt lat="45.2011" lon="5.73548">
        <ele>206.60000610352</ele>
        <time>2022-06-02T02:17:26.000Z</time>
      </trkpt>
      <trkpt lat="45.20108" lon="5.73546">
        <ele>206.80000305176</ele>
        <time>2022-06-02T02:17:27.000Z</time>
      </trkpt>
      <trkpt lat="45.20106" lon="5.73543">
        <ele>206.39999389648</ele>
        <time>2022-06-02T02:17:28.000Z</time>
      </trkpt>
      <trkpt lat="45.20104" lon="5.73539">
        <ele>206.60000610352</ele>
        <time>2022-06-02T02:17:29.000Z</time>
      </trkpt>
      <trkpt lat="45.20101" lon="5.73536">
        <ele>206.39999389648</ele>
        <time>2022-06-02T02:17:30.000Z</time>
      </trkpt>
      <trkpt lat="45.20099" lon="5.73533">
        <ele>206.39999389648</ele>
        <time>2022-06-02T02:17:31.000Z</time>
      </trkpt>
      <trkpt lat="45.20096" lon="5.7353">
        <ele>206.39999389648</ele>
        <time>2022-06-02T02:17:32.000Z</time>
      </trkpt>
      <trkpt lat="45.20094" lon="5.73527">
        <ele>206.60000610352</ele>
        <time>2022-06-02T02:17:33.000Z</time>
      </trkpt>
      <trkpt lat="45.20092" lon="5.73525">
        <ele>206.60000610352</ele>
        <time>2022-06-02T02:17:34.000Z</time>
      </trkpt>
      <trkpt lat="45.20089" lon="5.73522">
        <ele>206.39999389648</ele>
        <time>2022-06-02T02:17:35.000Z</time>
      </trkpt>
      <trkpt lat="45.20087" lon="5.7352">
        <ele>206.60000610352</ele>
        <time>2022-06-02T02:17:36.000Z</time>
      </trkpt>
      <trkpt lat="45.20085" lon="5.73517">
        <ele>206.39999389648</ele>
        <time>2022-06-02T02:17:37.000Z</time>
      </trkpt>
      <trkpt lat="45.20082" lon="5.73515">
        <ele>206.19999694824</ele>
        <time>2022-06-02T02:17:38.000Z</time>
      </trkpt>
      <trkpt lat="45.2008" lon="5.73513">
        <ele>206.19999694824</ele>
        <time>2022-06-02T02:17:39.000Z</time>
      </trkpt>
      <trkpt lat="45.20077" lon="5.7351">
        <ele>206.39999389648</ele>
        <time>2022-06-02T02:17:40.000Z</time>
      </trkpt>
      <trkpt lat="45.20076" lon="5.73508">
        <ele>206.60000610352</ele>
        <time>2022-06-02T02:17:41.000Z</time>
      </trkpt>
      <trkpt lat="45.20074" lon="5.73506">
        <ele>206.60000610352</ele>
        <time>2022-06-02T02:17:42.000Z</time>
      </trkpt>
      <trkpt lat="45.20072" lon="5.73505">
        <ele>206.80000305176</ele>
        <time>2022-06-02T02:17:43.000Z</time>
      </trkpt>
      <trkpt lat="45.20069" lon="5.73503">
        <ele>206.19999694824</ele>
        <time>2022-06-02T02:17:44.000Z</time>
      </trkpt>
      <trkpt lat="45.20067" lon="5.73502">
        <ele>206.60000610352</ele>
        <time>2022-06-02T02:17:45.000Z</time>
      </trkpt>
      <trkpt lat="45.20065" lon="5.735">
        <ele>206.60000610352</ele>
        <time>2022-06-02T02:17:46.000Z</time>
      </trkpt>
      <trkpt lat="45.20063" lon="5.73498">
        <ele>206.80000305176</ele>
        <time>2022-06-02T02:17:47.000Z</time>
      </trkpt>
      <trkpt lat="45.2006" lon="5.73497">
        <ele>206.60000610352</ele>
        <time>2022-06-02T02:17:48.000Z</time>
      </trkpt>
      <trkpt lat="45.20057" lon="5.73495">
        <ele>206.19999694824</ele>
        <time>2022-06-02T02:17:49.000Z</time>
      </trkpt>
      <trkpt lat="45.20054" lon="5.73493">
        <ele>206.80000305176</ele>
        <time>2022-06-02T02:17:50.000Z</time>
      </trkpt>
      <trkpt lat="45.20051" lon="5.73492">
        <ele>206.19999694824</ele>
        <time>2022-06-02T02:17:51.000Z</time>
      </trkpt>
      <trkpt lat="45.20047" lon="5.7349">
        <ele>206.60000610352</ele>
        <time>2022-06-02T02:17:52.000Z</time>
      </trkpt>
      <trkpt lat="45.20045" lon="5.73488">
        <ele>206.80000305176</ele>
        <time>2022-06-02T02:17:53.000Z</time>
      </trkpt>
      <trkpt lat="45.20042" lon="5.73486">
        <ele>206.39999389648</ele>
        <time>2022-06-02T02:17:54.000Z</time>
      </trkpt>
      <trkpt lat="45.2004" lon="5.73485">
        <ele>206.39999389648</ele>
        <time>2022-06-02T02:17:55.000Z</time>
      </trkpt>
      <trkpt lat="45.20038" lon="5.73482">
        <ele>206.60000610352</ele>
        <time>2022-06-02T02:17:56.000Z</time>
      </trkpt>
      <trkpt lat="45.20036" lon="5.73481">
        <ele>206</ele>
        <time>2022-06-02T02:17:57.000Z</time>
      </trkpt>
      <trkpt lat="45.20033" lon="5.73479">
        <ele>205.39999389648</ele>
        <time>2022-06-02T02:17:58.000Z</time>
      </trkpt>
      <trkpt lat="45.20032" lon="5.73478">
        <ele>205.80000305176</ele>
        <time>2022-06-02T02:17:59.000Z</time>
      </trkpt>
      <trkpt lat="45.2003" lon="5.73476">
        <ele>205.39999389648</ele>
        <time>2022-06-02T02:18:00.000Z</time>
      </trkpt>
      <trkpt lat="45.20028" lon="5.73475">
        <ele>205.39999389648</ele>
        <time>2022-06-02T02:18:01.000Z</time>
      </trkpt>
      <trkpt lat="45.20026" lon="5.73473">
        <ele>205.39999389648</ele>
        <time>2022-06-02T02:18:02.000Z</time>
      </trkpt>
      <trkpt lat="45.20024" lon="5.73471">
        <ele>205.39999389648</ele>
        <time>2022-06-02T02:18:03.000Z</time>
      </trkpt>
      <trkpt lat="45.20022" lon="5.7347">
        <ele>205.19999694824</ele>
        <time>2022-06-02T02:18:04.000Z</time>
      </trkpt>
      <trkpt lat="45.20019" lon="5.73468">
        <ele>205.60000610352</ele>
        <time>2022-06-02T02:18:05.000Z</time>
      </trkpt>
      <trkpt lat="45.20017" lon="5.73466">
        <ele>205.39999389648</ele>
        <time>2022-06-02T02:18:06.000Z</time>
      </trkpt>
      <trkpt lat="45.20015" lon="5.73465">
        <ele>205.19999694824</ele>
        <time>2022-06-02T02:18:07.000Z</time>
      </trkpt>
      <trkpt lat="45.20012" lon="5.73463">
        <ele>205.80000305176</ele>
        <time>2022-06-02T02:18:08.000Z</time>
      </trkpt>
      <trkpt lat="45.20011" lon="5.73462">
        <ele>206</ele>
        <time>2022-06-02T02:18:09.000Z</time>
      </trkpt>
      <trkpt lat="45.20008" lon="5.7346">
        <ele>206.39999389648</ele>
        <time>2022-06-02T02:18:10.000Z</time>
      </trkpt>
      <trkpt lat="45.20006" lon="5.73458">
        <ele>206</ele>
        <time>2022-06-02T02:18:11.000Z</time>
      </trkpt>
      <trkpt lat="45.20004" lon="5.73456">
        <ele>206.19999694824</ele>
        <time>2022-06-02T02:18:12.000Z</time>
      </trkpt>
      <trkpt lat="45.20001" lon="5.73455">
        <ele>206.39999389648</ele>
        <time>2022-06-02T02:18:13.000Z</time>
      </trkpt>
      <trkpt lat="45.19999" lon="5.73453">
        <ele>206.19999694824</ele>
        <time>2022-06-02T02:18:14.000Z</time>
      </trkpt>
      <trkpt lat="45.19997" lon="5.73451">
        <ele>206</ele>
        <time>2022-06-02T02:18:15.000Z</time>
      </trkpt>
      <trkpt lat="45.19995" lon="5.7345">
        <ele>206</ele>
        <time>2022-06-02T02:18:16.000Z</time>
      </trkpt>
      <trkpt lat="45.19993" lon="5.73449">
        <ele>206</ele>
        <time>2022-06-02T02:18:17.000Z</time>
      </trkpt>
      <trkpt lat="45.19991" lon="5.73447">
        <ele>206</ele>
        <time>2022-06-02T02:18:18.000Z</time>
      </trkpt>
      <trkpt lat="45.19989" lon="5.73445">
        <ele>205.39999389648</ele>
        <time>2022-06-02T02:18:19.000Z</time>
      </trkpt>
      <trkpt lat="45.19987" lon="5.73443">
        <ele>206.19999694824</ele>
        <time>2022-06-02T02:18:20.000Z</time>
      </trkpt>
      <trkpt lat="45.19984" lon="5.73441">
        <ele>205.80000305176</ele>
        <time>2022-06-02T02:18:21.000Z</time>
      </trkpt>
      <trkpt lat="45.19982" lon="5.7344">
        <ele>206</ele>
        <time>2022-06-02T02:18:22.000Z</time>
      </trkpt>
      <trkpt lat="45.1998" lon="5.73439">
        <ele>205.80000305176</ele>
        <time>2022-06-02T02:18:23.000Z</time>
      </trkpt>
      <trkpt lat="45.19978" lon="5.73438">
        <ele>205.80000305176</ele>
        <time>2022-06-02T02:18:24.000Z</time>
      </trkpt>
      <trkpt lat="45.19976" lon="5.73437">
        <ele>205.80000305176</ele>
        <time>2022-06-02T02:18:25.000Z</time>
      </trkpt>
      <trkpt lat="45.19973" lon="5.73436">
        <ele>206</ele>
        <time>2022-06-02T02:18:26.000Z</time>
      </trkpt>
      <trkpt lat="45.1997" lon="5.73435">
        <ele>206</ele>
        <time>2022-06-02T02:18:27.000Z</time>
      </trkpt>
      <trkpt lat="45.19968" lon="5.73434">
        <ele>205.19999694824</ele>
        <time>2022-06-02T02:18:28.000Z</time>
      </trkpt>
      <trkpt lat="45.19965" lon="5.73433">
        <ele>206.19999694824</ele>
        <time>2022-06-02T02:18:29.000Z</time>
      </trkpt>
      <trkpt lat="45.19962" lon="5.73432">
        <ele>205.19999694824</ele>
        <time>2022-06-02T02:18:30.000Z</time>
      </trkpt>
      <trkpt lat="45.19959" lon="5.73431">
        <ele>206</ele>
        <time>2022-06-02T02:18:31.000Z</time>
      </trkpt>
      <trkpt lat="45.19957" lon="5.7343">
        <ele>205.60000610352</ele>
        <time>2022-06-02T02:18:32.000Z</time>
      </trkpt>
      <trkpt lat="45.19954" lon="5.73429">
        <ele>205.60000610352</ele>
        <time>2022-06-02T02:18:33.000Z</time>
      </trkpt>
      <trkpt lat="45.19951" lon="5.73428">
        <ele>205.60000610352</ele>
        <time>2022-06-02T02:18:34.000Z</time>
      </trkpt>
      <trkpt lat="45.19948" lon="5.73426">
        <ele>205.60000610352</ele>
        <time>2022-06-02T02:18:35.000Z</time>
      </trkpt>
      <trkpt lat="45.19945" lon="5.73426">
        <ele>205.80000305176</ele>
        <time>2022-06-02T02:18:36.000Z</time>
      </trkpt>
      <trkpt lat="45.19943" lon="5.73425">
        <ele>205.39999389648</ele>
        <time>2022-06-02T02:18:37.000Z</time>
      </trkpt>
      <trkpt lat="45.1994" lon="5.73424">
        <ele>206</ele>
        <time>2022-06-02T02:18:38.000Z</time>
      </trkpt>
      <trkpt lat="45.19937" lon="5.73424">
        <ele>205.39999389648</ele>
        <time>2022-06-02T02:18:39.000Z</time>
      </trkpt>
      <trkpt lat="45.19935" lon="5.73422">
        <ele>205.60000610352</ele>
        <time>2022-06-02T02:18:40.000Z</time>
      </trkpt>
      <trkpt lat="45.19932" lon="5.73421">
        <ele>205.39999389648</ele>
        <time>2022-06-02T02:18:41.000Z</time>
      </trkpt>
      <trkpt lat="45.1993" lon="5.7342">
        <ele>205.39999389648</ele>
        <time>2022-06-02T02:18:42.000Z</time>
      </trkpt>
      <trkpt lat="45.19928" lon="5.73418">
        <ele>205.39999389648</ele>
        <time>2022-06-02T02:18:43.000Z</time>
      </trkpt>
      <trkpt lat="45.19925" lon="5.73417">
        <ele>205.80000305176</ele>
        <time>2022-06-02T02:18:44.000Z</time>
      </trkpt>
      <trkpt lat="45.19923" lon="5.73416">
        <ele>205.60000610352</ele>
        <time>2022-06-02T02:18:45.000Z</time>
      </trkpt>
      <trkpt lat="45.19921" lon="5.73415">
        <ele>205</ele>
        <time>2022-06-02T02:18:46.000Z</time>
      </trkpt>
      <trkpt lat="45.19918" lon="5.73414">
        <ele>205.80000305176</ele>
        <time>2022-06-02T02:18:47.000Z</time>
      </trkpt>
      <trkpt lat="45.19916" lon="5.73414">
        <ele>205.19999694824</ele>
        <time>2022-06-02T02:18:48.000Z</time>
      </trkpt>
      <trkpt lat="45.19913" lon="5.73414">
        <ele>205.39999389648</ele>
        <time>2022-06-02T02:18:49.000Z</time>
      </trkpt>
      <trkpt lat="45.1991" lon="5.73413">
        <ele>205.39999389648</ele>
        <time>2022-06-02T02:18:50.000Z</time>
      </trkpt>
      <trkpt lat="45.19907" lon="5.73413">
        <ele>205.80000305176</ele>
        <time>2022-06-02T02:18:51.000Z</time>
      </trkpt>
      <trkpt lat="45.19904" lon="5.73412">
        <ele>205.19999694824</ele>
        <time>2022-06-02T02:18:52.000Z</time>
      </trkpt>
      <trkpt lat="45.19901" lon="5.73411">
        <ele>205.80000305176</ele>
        <time>2022-06-02T02:18:53.000Z</time>
      </trkpt>
      <trkpt lat="45.19898" lon="5.73411">
        <ele>206</ele>
        <time>2022-06-02T02:18:54.000Z</time>
      </trkpt>
      <trkpt lat="45.19896" lon="5.7341">
        <ele>205.39999389648</ele>
        <time>2022-06-02T02:18:55.000Z</time>
      </trkpt>
      <trkpt lat="45.19893" lon="5.73409">
        <ele>205.80000305176</ele>
        <time>2022-06-02T02:18:56.000Z</time>
      </trkpt>
      <trkpt lat="45.19891" lon="5.73409">
        <ele>206</ele>
        <time>2022-06-02T02:18:57.000Z</time>
      </trkpt>
      <trkpt lat="45.19888" lon="5.73409">
        <ele>205.80000305176</ele>
        <time>2022-06-02T02:18:58.000Z</time>
      </trkpt>
      <trkpt lat="45.19886" lon="5.73409">
        <ele>205.39999389648</ele>
        <time>2022-06-02T02:18:59.000Z</time>
      </trkpt>
      <trkpt lat="45.19883" lon="5.73408">
        <ele>205.80000305176</ele>
        <time>2022-06-02T02:19:00.000Z</time>
      </trkpt>
      <trkpt lat="45.1988" lon="5.73408">
        <ele>206.39999389648</ele>
        <time>2022-06-02T02:19:01.000Z</time>
      </trkpt>
      <trkpt lat="45.19878" lon="5.73407">
        <ele>205.39999389648</ele>
        <time>2022-06-02T02:19:02.000Z</time>
      </trkpt>
      <trkpt lat="45.19875" lon="5.73406">
        <ele>205.60000610352</ele>
        <time>2022-06-02T02:19:03.000Z</time>
      </trkpt>
      <trkpt lat="45.19872" lon="5.73405">
        <ele>205.60000610352</ele>
        <time>2022-06-02T02:19:04.000Z</time>
      </trkpt>
      <trkpt lat="45.19869" lon="5.73405">
        <ele>205.80000305176</ele>
        <time>2022-06-02T02:19:05.000Z</time>
      </trkpt>
      <trkpt lat="45.19866" lon="5.73404">
        <ele>205.19999694824</ele>
        <time>2022-06-02T02:19:06.000Z</time>
      </trkpt>
      <trkpt lat="45.19863" lon="5.73404">
        <ele>206.19999694824</ele>
        <time>2022-06-02T02:19:07.000Z</time>
      </trkpt>
      <trkpt lat="45.1986" lon="5.73403">
        <ele>205.60000610352</ele>
        <time>2022-06-02T02:19:08.000Z</time>
      </trkpt>
      <trkpt lat="45.19857" lon="5.73401">
        <ele>205.39999389648</ele>
        <time>2022-06-02T02:19:09.000Z</time>
      </trkpt>
      <trkpt lat="45.19854" lon="5.734">
        <ele>205.80000305176</ele>
        <time>2022-06-02T02:19:10.000Z</time>
      </trkpt>
      <trkpt lat="45.19852" lon="5.73399">
        <ele>205.60000610352</ele>
        <time>2022-06-02T02:19:11.000Z</time>
      </trkpt>
      <trkpt lat="45.1985" lon="5.73398">
        <ele>205.60000610352</ele>
        <time>2022-06-02T02:19:12.000Z</time>
      </trkpt>
      <trkpt lat="45.19847" lon="5.73397">
        <ele>205.39999389648</ele>
        <time>2022-06-02T02:19:13.000Z</time>
      </trkpt>
      <trkpt lat="45.19845" lon="5.73396">
        <ele>206</ele>
        <time>2022-06-02T02:19:14.000Z</time>
      </trkpt>
      <trkpt lat="45.19842" lon="5.73396">
        <ele>205</ele>
        <time>2022-06-02T02:19:15.000Z</time>
      </trkpt>
      <trkpt lat="45.1984" lon="5.73395">
        <ele>205.60000610352</ele>
        <time>2022-06-02T02:19:16.000Z</time>
      </trkpt>
      <trkpt lat="45.19837" lon="5.73395">
        <ele>205.60000610352</ele>
        <time>2022-06-02T02:19:17.000Z</time>
      </trkpt>
      <trkpt lat="45.19834" lon="5.73393">
        <ele>205.60000610352</ele>
        <time>2022-06-02T02:19:18.000Z</time>
      </trkpt>
      <trkpt lat="45.19831" lon="5.73393">
        <ele>205.60000610352</ele>
        <time>2022-06-02T02:19:19.000Z</time>
      </trkpt>
      <trkpt lat="45.19829" lon="5.73392">
        <ele>205.60000610352</ele>
        <time>2022-06-02T02:19:20.000Z</time>
      </trkpt>
      <trkpt lat="45.19826" lon="5.73391">
        <ele>205.19999694824</ele>
        <time>2022-06-02T02:19:21.000Z</time>
      </trkpt>
      <trkpt lat="45.19823" lon="5.7339">
        <ele>205.19999694824</ele>
        <time>2022-06-02T02:19:22.000Z</time>
      </trkpt>
      <trkpt lat="45.1982" lon="5.73389">
        <ele>205.19999694824</ele>
        <time>2022-06-02T02:19:23.000Z</time>
      </trkpt>
      <trkpt lat="45.19819" lon="5.73388">
        <ele>205.19999694824</ele>
        <time>2022-06-02T02:19:24.000Z</time>
      </trkpt>
      <trkpt lat="45.19816" lon="5.73387">
        <ele>204.80000305176</ele>
        <time>2022-06-02T02:19:25.000Z</time>
      </trkpt>
      <trkpt lat="45.19813" lon="5.73386">
        <ele>205.60000610352</ele>
        <time>2022-06-02T02:19:26.000Z</time>
      </trkpt>
      <trkpt lat="45.19811" lon="5.73386">
        <ele>205.19999694824</ele>
        <time>2022-06-02T02:19:27.000Z</time>
      </trkpt>
      <trkpt lat="45.19808" lon="5.73385">
        <ele>205.19999694824</ele>
        <time>2022-06-02T02:19:28.000Z</time>
      </trkpt>
      <trkpt lat="45.19805" lon="5.73384">
        <ele>205.19999694824</ele>
        <time>2022-06-02T02:19:29.000Z</time>
      </trkpt>
      <trkpt lat="45.19802" lon="5.73383">
        <ele>205.60000610352</ele>
        <time>2022-06-02T02:19:30.000Z</time>
      </trkpt>
      <trkpt lat="45.19799" lon="5.73382">
        <ele>205.19999694824</ele>
        <time>2022-06-02T02:19:31.000Z</time>
      </trkpt>
      <trkpt lat="45.19796" lon="5.73381">
        <ele>204.60000610352</ele>
        <time>2022-06-02T02:19:32.000Z</time>
      </trkpt>
      <trkpt lat="45.19793" lon="5.73381">
        <ele>205.19999694824</ele>
        <time>2022-06-02T02:19:33.000Z</time>
      </trkpt>
      <trkpt lat="45.1979" lon="5.7338">
        <ele>204.80000305176</ele>
        <time>2022-06-02T02:19:34.000Z</time>
      </trkpt>
      <trkpt lat="45.19788" lon="5.73379">
        <ele>205</ele>
        <time>2022-06-02T02:19:35.000Z</time>
      </trkpt>
      <trkpt lat="45.19785" lon="5.73378">
        <ele>205</ele>
        <time>2022-06-02T02:19:36.000Z</time>
      </trkpt>
      <trkpt lat="45.19783" lon="5.73378">
        <ele>205</ele>
        <time>2022-06-02T02:19:37.000Z</time>
      </trkpt>
      <trkpt lat="45.1978" lon="5.73378">
        <ele>204.60000610352</ele>
        <time>2022-06-02T02:19:38.000Z</time>
      </trkpt>
      <trkpt lat="45.19777" lon="5.73377">
        <ele>204.60000610352</ele>
        <time>2022-06-02T02:19:39.000Z</time>
      </trkpt>
      <trkpt lat="45.19774" lon="5.73376">
        <ele>205.19999694824</ele>
        <time>2022-06-02T02:19:40.000Z</time>
      </trkpt>
      <trkpt lat="45.19772" lon="5.73376">
        <ele>204.80000305176</ele>
        <time>2022-06-02T02:19:41.000Z</time>
      </trkpt>
      <trkpt lat="45.19769" lon="5.73375">
        <ele>205</ele>
        <time>2022-06-02T02:19:42.000Z</time>
      </trkpt>
      <trkpt lat="45.19767" lon="5.73374">
        <ele>205</ele>
        <time>2022-06-02T02:19:43.000Z</time>
      </trkpt>
      <trkpt lat="45.19764" lon="5.73374">
        <ele>205.60000610352</ele>
        <time>2022-06-02T02:19:44.000Z</time>
      </trkpt>
      <trkpt lat="45.19762" lon="5.73373">
        <ele>205.80000305176</ele>
        <time>2022-06-02T02:19:45.000Z</time>
      </trkpt>
      <trkpt lat="45.19759" lon="5.73372">
        <ele>205.39999389648</ele>
        <time>2022-06-02T02:19:46.000Z</time>
      </trkpt>
      <trkpt lat="45.19756" lon="5.73371">
        <ele>206.19999694824</ele>
        <time>2022-06-02T02:19:47.000Z</time>
      </trkpt>
      <trkpt lat="45.19754" lon="5.7337">
        <ele>206</ele>
        <time>2022-06-02T02:19:48.000Z</time>
      </trkpt>
      <trkpt lat="45.19752" lon="5.73369">
        <ele>206</ele>
        <time>2022-06-02T02:19:49.000Z</time>
      </trkpt>
      <trkpt lat="45.19749" lon="5.73369">
        <ele>206</ele>
        <time>2022-06-02T02:19:50.000Z</time>
      </trkpt>
      <trkpt lat="45.19746" lon="5.73368">
        <ele>206.39999389648</ele>
        <time>2022-06-02T02:19:51.000Z</time>
      </trkpt>
      <trkpt lat="45.19744" lon="5.73367">
        <ele>206.60000610352</ele>
        <time>2022-06-02T02:19:52.000Z</time>
      </trkpt>
      <trkpt lat="45.19741" lon="5.73367">
        <ele>206.60000610352</ele>
        <time>2022-06-02T02:19:53.000Z</time>
      </trkpt>
      <trkpt lat="45.19739" lon="5.73366">
        <ele>206.80000305176</ele>
        <time>2022-06-02T02:19:54.000Z</time>
      </trkpt>
      <trkpt lat="45.19736" lon="5.73365">
        <ele>207</ele>
        <time>2022-06-02T02:19:55.000Z</time>
      </trkpt>
      <trkpt lat="45.19733" lon="5.73364">
        <ele>207.19999694824</ele>
        <time>2022-06-02T02:19:56.000Z</time>
      </trkpt>
      <trkpt lat="45.1973" lon="5.73363">
        <ele>207.19999694824</ele>
        <time>2022-06-02T02:19:57.000Z</time>
      </trkpt>
      <trkpt lat="45.19728" lon="5.73363">
        <ele>207</ele>
        <time>2022-06-02T02:19:58.000Z</time>
      </trkpt>
      <trkpt lat="45.19725" lon="5.73363">
        <ele>206.80000305176</ele>
        <time>2022-06-02T02:19:59.000Z</time>
      </trkpt>
      <trkpt lat="45.19723" lon="5.73364">
        <ele>206.80000305176</ele>
        <time>2022-06-02T02:20:00.000Z</time>
      </trkpt>
      <trkpt lat="45.1972" lon="5.73365">
        <ele>206.80000305176</ele>
        <time>2022-06-02T02:20:01.000Z</time>
      </trkpt>
      <trkpt lat="45.19718" lon="5.73367">
        <ele>206.60000610352</ele>
        <time>2022-06-02T02:20:02.000Z</time>
      </trkpt>
      <trkpt lat="45.19716" lon="5.7337">
        <ele>205.80000305176</ele>
        <time>2022-06-02T02:20:03.000Z</time>
      </trkpt>
      <trkpt lat="45.19714" lon="5.73373">
        <ele>206.19999694824</ele>
        <time>2022-06-02T02:20:04.000Z</time>
      </trkpt>
      <trkpt lat="45.19712" lon="5.73376">
        <ele>206.19999694824</ele>
        <time>2022-06-02T02:20:05.000Z</time>
      </trkpt>
      <trkpt lat="45.1971" lon="5.73379">
        <ele>206.19999694824</ele>
        <time>2022-06-02T02:20:06.000Z</time>
      </trkpt>
      <trkpt lat="45.19709" lon="5.73382">
        <ele>205.80000305176</ele>
        <time>2022-06-02T02:20:07.000Z</time>
      </trkpt>
      <trkpt lat="45.19706" lon="5.73384">
        <ele>205.39999389648</ele>
        <time>2022-06-02T02:20:08.000Z</time>
      </trkpt>
      <trkpt lat="45.19705" lon="5.73386">
        <ele>205.19999694824</ele>
        <time>2022-06-02T02:20:09.000Z</time>
      </trkpt>
      <trkpt lat="45.19703" lon="5.73388">
        <ele>204.80000305176</ele>
        <time>2022-06-02T02:20:10.000Z</time>
      </trkpt>
      <trkpt lat="45.19701" lon="5.73389">
        <ele>204.60000610352</ele>
        <time>2022-06-02T02:20:11.000Z</time>
      </trkpt>
      <trkpt lat="45.19698" lon="5.7339">
        <ele>204.19999694824</ele>
        <time>2022-06-02T02:20:12.000Z</time>
      </trkpt>
      <trkpt lat="45.19697" lon="5.73388">
        <ele>204.39999389648</ele>
        <time>2022-06-02T02:20:13.000Z</time>
      </trkpt>
      <trkpt lat="45.19695" lon="5.73386">
        <ele>204.60000610352</ele>
        <time>2022-06-02T02:20:14.000Z</time>
      </trkpt>
      <trkpt lat="45.19693" lon="5.73384">
        <ele>204.60000610352</ele>
        <time>2022-06-02T02:20:15.000Z</time>
      </trkpt>
      <trkpt lat="45.19692" lon="5.7338">
        <ele>204.60000610352</ele>
        <time>2022-06-02T02:20:16.000Z</time>
      </trkpt>
      <trkpt lat="45.1969" lon="5.73377">
        <ele>204.60000610352</ele>
        <time>2022-06-02T02:20:17.000Z</time>
      </trkpt>
      <trkpt lat="45.19689" lon="5.73373">
        <ele>205</ele>
        <time>2022-06-02T02:20:18.000Z</time>
      </trkpt>
      <trkpt lat="45.19687" lon="5.7337">
        <ele>204.80000305176</ele>
        <time>2022-06-02T02:20:19.000Z</time>
      </trkpt>
      <trkpt lat="45.19686" lon="5.73367">
        <ele>205</ele>
        <time>2022-06-02T02:20:20.000Z</time>
      </trkpt>
      <trkpt lat="45.19684" lon="5.73363">
        <ele>205</ele>
        <time>2022-06-02T02:20:21.000Z</time>
      </trkpt>
      <trkpt lat="45.19682" lon="5.7336">
        <ele>204.39999389648</ele>
        <time>2022-06-02T02:20:22.000Z</time>
      </trkpt>
      <trkpt lat="45.1968" lon="5.73357">
        <ele>205</ele>
        <time>2022-06-02T02:20:23.000Z</time>
      </trkpt>
      <trkpt lat="45.19678" lon="5.73354">
        <ele>205</ele>
        <time>2022-06-02T02:20:24.000Z</time>
      </trkpt>
      <trkpt lat="45.19676" lon="5.73351">
        <ele>205</ele>
        <time>2022-06-02T02:20:25.000Z</time>
      </trkpt>
      <trkpt lat="45.19674" lon="5.73349">
        <ele>204.60000610352</ele>
        <time>2022-06-02T02:20:26.000Z</time>
      </trkpt>
      <trkpt lat="45.19672" lon="5.73347">
        <ele>204.60000610352</ele>
        <time>2022-06-02T02:20:27.000Z</time>
      </trkpt>
      <trkpt lat="45.19671" lon="5.73344">
        <ele>205</ele>
        <time>2022-06-02T02:20:28.000Z</time>
      </trkpt>
      <trkpt lat="45.19669" lon="5.73342">
        <ele>204.60000610352</ele>
        <time>2022-06-02T02:20:29.000Z</time>
      </trkpt>
      <trkpt lat="45.19667" lon="5.73339">
        <ele>204.60000610352</ele>
        <time>2022-06-02T02:20:30.000Z</time>
      </trkpt>
      <trkpt lat="45.19665" lon="5.73337">
        <ele>204.39999389648</ele>
        <time>2022-06-02T02:20:31.000Z</time>
      </trkpt>
      <trkpt lat="45.19663" lon="5.73335">
        <ele>204.60000610352</ele>
        <time>2022-06-02T02:20:32.000Z</time>
      </trkpt>
      <trkpt lat="45.19662" lon="5.73333">
        <ele>204.19999694824</ele>
        <time>2022-06-02T02:20:33.000Z</time>
      </trkpt>
      <trkpt lat="45.1966" lon="5.7333">
        <ele>204.19999694824</ele>
        <time>2022-06-02T02:20:34.000Z</time>
      </trkpt>
      <trkpt lat="45.19658" lon="5.73328">
        <ele>204.19999694824</ele>
        <time>2022-06-02T02:20:35.000Z</time>
      </trkpt>
      <trkpt lat="45.19656" lon="5.73325">
        <ele>204.60000610352</ele>
        <time>2022-06-02T02:20:36.000Z</time>
      </trkpt>
      <trkpt lat="45.19654" lon="5.73323">
        <ele>204.80000305176</ele>
        <time>2022-06-02T02:20:37.000Z</time>
      </trkpt>
      <trkpt lat="45.19652" lon="5.7332">
        <ele>204.80000305176</ele>
        <time>2022-06-02T02:20:38.000Z</time>
      </trkpt>
      <trkpt lat="45.1965" lon="5.73317">
        <ele>205</ele>
        <time>2022-06-02T02:20:39.000Z</time>
      </trkpt>
      <trkpt lat="45.19649" lon="5.73315">
        <ele>204.60000610352</ele>
        <time>2022-06-02T02:20:40.000Z</time>
      </trkpt>
      <trkpt lat="45.19647" lon="5.73312">
        <ele>204.60000610352</ele>
        <time>2022-06-02T02:20:41.000Z</time>
      </trkpt>
      <trkpt lat="45.19645" lon="5.73309">
        <ele>205</ele>
        <time>2022-06-02T02:20:42.000Z</time>
      </trkpt>
      <trkpt lat="45.19643" lon="5.73307">
        <ele>204.80000305176</ele>
        <time>2022-06-02T02:20:43.000Z</time>
      </trkpt>
      <trkpt lat="45.19641" lon="5.73304">
        <ele>205</ele>
        <time>2022-06-02T02:20:44.000Z</time>
      </trkpt>
      <trkpt lat="45.1964" lon="5.73301">
        <ele>204.80000305176</ele>
        <time>2022-06-02T02:20:45.000Z</time>
      </trkpt>
      <trkpt lat="45.19638" lon="5.73299">
        <ele>204.80000305176</ele>
        <time>2022-06-02T02:20:46.000Z</time>
      </trkpt>
      <trkpt lat="45.19636" lon="5.73296">
        <ele>205</ele>
        <time>2022-06-02T02:20:47.000Z</time>
      </trkpt>
      <trkpt lat="45.19635" lon="5.73294">
        <ele>205</ele>
        <time>2022-06-02T02:20:48.000Z</time>
      </trkpt>
      <trkpt lat="45.19633" lon="5.73292">
        <ele>205.60000610352</ele>
        <time>2022-06-02T02:20:49.000Z</time>
      </trkpt>
      <trkpt lat="45.19631" lon="5.73289">
        <ele>204.80000305176</ele>
        <time>2022-06-02T02:20:50.000Z</time>
      </trkpt>
      <trkpt lat="45.1963" lon="5.73287">
        <ele>204.80000305176</ele>
        <time>2022-06-02T02:20:51.000Z</time>
      </trkpt>
      <trkpt lat="45.19628" lon="5.73284">
        <ele>205.19999694824</ele>
        <time>2022-06-02T02:20:52.000Z</time>
      </trkpt>
      <trkpt lat="45.19627" lon="5.73281">
        <ele>205.19999694824</ele>
        <time>2022-06-02T02:20:53.000Z</time>
      </trkpt>
      <trkpt lat="45.19625" lon="5.73279">
        <ele>205</ele>
        <time>2022-06-02T02:20:54.000Z</time>
      </trkpt>
      <trkpt lat="45.19624" lon="5.73276">
        <ele>205.39999389648</ele>
        <time>2022-06-02T02:20:55.000Z</time>
      </trkpt>
      <trkpt lat="45.19622" lon="5.73273">
        <ele>205.39999389648</ele>
        <time>2022-06-02T02:20:56.000Z</time>
      </trkpt>
      <trkpt lat="45.1962" lon="5.73271">
        <ele>205.19999694824</ele>
        <time>2022-06-02T02:20:57.000Z</time>
      </trkpt>
      <trkpt lat="45.19618" lon="5.73268">
        <ele>205.39999389648</ele>
        <time>2022-06-02T02:20:58.000Z</time>
      </trkpt>
      <trkpt lat="45.19616" lon="5.73265">
        <ele>205.19999694824</ele>
        <time>2022-06-02T02:20:59.000Z</time>
      </trkpt>
      <trkpt lat="45.19614" lon="5.73262">
        <ele>205.19999694824</ele>
        <time>2022-06-02T02:21:00.000Z</time>
      </trkpt>
      <trkpt lat="45.19612" lon="5.7326">
        <ele>205.19999694824</ele>
        <time>2022-06-02T02:21:01.000Z</time>
      </trkpt>
      <trkpt lat="45.1961" lon="5.73257">
        <ele>205.60000610352</ele>
        <time>2022-06-02T02:21:02.000Z</time>
      </trkpt>
      <trkpt lat="45.19609" lon="5.73254">
        <ele>205.39999389648</ele>
        <time>2022-06-02T02:21:03.000Z</time>
      </trkpt>
      <trkpt lat="45.19607" lon="5.73251">
        <ele>205.39999389648</ele>
        <time>2022-06-02T02:21:04.000Z</time>
      </trkpt>
      <trkpt lat="45.19605" lon="5.73249">
        <ele>205.60000610352</ele>
        <time>2022-06-02T02:21:05.000Z</time>
      </trkpt>
      <trkpt lat="45.19603" lon="5.73246">
        <ele>205.60000610352</ele>
        <time>2022-06-02T02:21:06.000Z</time>
      </trkpt>
      <trkpt lat="45.19601" lon="5.73243">
        <ele>205.39999389648</ele>
        <time>2022-06-02T02:21:07.000Z</time>
      </trkpt>
      <trkpt lat="45.19599" lon="5.73241">
        <ele>205.39999389648</ele>
        <time>2022-06-02T02:21:08.000Z</time>
      </trkpt>
      <trkpt lat="45.19597" lon="5.73238">
        <ele>205.80000305176</ele>
        <time>2022-06-02T02:21:09.000Z</time>
      </trkpt>
      <trkpt lat="45.19596" lon="5.73236">
        <ele>205.60000610352</ele>
        <time>2022-06-02T02:21:10.000Z</time>
      </trkpt>
      <trkpt lat="45.19594" lon="5.73233">
        <ele>205.39999389648</ele>
        <time>2022-06-02T02:21:11.000Z</time>
      </trkpt>
      <trkpt lat="45.19593" lon="5.73231">
        <ele>206</ele>
        <time>2022-06-02T02:21:12.000Z</time>
      </trkpt>
      <trkpt lat="45.19591" lon="5.73229">
        <ele>205.60000610352</ele>
        <time>2022-06-02T02:21:13.000Z</time>
      </trkpt>
      <trkpt lat="45.19589" lon="5.73226">
        <ele>205.60000610352</ele>
        <time>2022-06-02T02:21:14.000Z</time>
      </trkpt>
      <trkpt lat="45.19587" lon="5.73223">
        <ele>206</ele>
        <time>2022-06-02T02:21:15.000Z</time>
      </trkpt>
      <trkpt lat="45.19585" lon="5.7322">
        <ele>206</ele>
        <time>2022-06-02T02:21:16.000Z</time>
      </trkpt>
      <trkpt lat="45.19584" lon="5.73217">
        <ele>206</ele>
        <time>2022-06-02T02:21:17.000Z</time>
      </trkpt>
      <trkpt lat="45.19582" lon="5.73215">
        <ele>205.80000305176</ele>
        <time>2022-06-02T02:21:18.000Z</time>
      </trkpt>
      <trkpt lat="45.1958" lon="5.73212">
        <ele>205.80000305176</ele>
        <time>2022-06-02T02:21:19.000Z</time>
      </trkpt>
      <trkpt lat="45.19578" lon="5.7321">
        <ele>205.19999694824</ele>
        <time>2022-06-02T02:21:20.000Z</time>
      </trkpt>
      <trkpt lat="45.19576" lon="5.73208">
        <ele>206</ele>
        <time>2022-06-02T02:21:21.000Z</time>
      </trkpt>
      <trkpt lat="45.19575" lon="5.73205">
        <ele>205.39999389648</ele>
        <time>2022-06-02T02:21:22.000Z</time>
      </trkpt>
      <trkpt lat="45.19573" lon="5.73203">
        <ele>205.80000305176</ele>
        <time>2022-06-02T02:21:23.000Z</time>
      </trkpt>
      <trkpt lat="45.19571" lon="5.732">
        <ele>206.19999694824</ele>
        <time>2022-06-02T02:21:24.000Z</time>
      </trkpt>
      <trkpt lat="45.19569" lon="5.73198">
        <ele>206</ele>
        <time>2022-06-02T02:21:25.000Z</time>
      </trkpt>
      <trkpt lat="45.19568" lon="5.73195">
        <ele>206</ele>
        <time>2022-06-02T02:21:26.000Z</time>
      </trkpt>
      <trkpt lat="45.19566" lon="5.73193">
        <ele>206.19999694824</ele>
        <time>2022-06-02T02:21:27.000Z</time>
      </trkpt>
      <trkpt lat="45.19564" lon="5.73191">
        <ele>205.80000305176</ele>
        <time>2022-06-02T02:21:28.000Z</time>
      </trkpt>
      <trkpt lat="45.19562" lon="5.73188">
        <ele>205.60000610352</ele>
        <time>2022-06-02T02:21:29.000Z</time>
      </trkpt>
      <trkpt lat="45.19561" lon="5.73185">
        <ele>206.39999389648</ele>
        <time>2022-06-02T02:21:30.000Z</time>
      </trkpt>
      <trkpt lat="45.19559" lon="5.73183">
        <ele>205.80000305176</ele>
        <time>2022-06-02T02:21:31.000Z</time>
      </trkpt>
      <trkpt lat="45.19557" lon="5.7318">
        <ele>206.19999694824</ele>
        <time>2022-06-02T02:21:32.000Z</time>
      </trkpt>
      <trkpt lat="45.19556" lon="5.73178">
        <ele>206.39999389648</ele>
        <time>2022-06-02T02:21:33.000Z</time>
      </trkpt>
      <trkpt lat="45.19554" lon="5.73175">
        <ele>206.19999694824</ele>
        <time>2022-06-02T02:21:34.000Z</time>
      </trkpt>
      <trkpt lat="45.19553" lon="5.73173">
        <ele>206.19999694824</ele>
        <time>2022-06-02T02:21:35.000Z</time>
      </trkpt>
      <trkpt lat="45.19551" lon="5.7317">
        <ele>206.19999694824</ele>
        <time>2022-06-02T02:21:36.000Z</time>
      </trkpt>
      <trkpt lat="45.19549" lon="5.73167">
        <ele>205.39999389648</ele>
        <time>2022-06-02T02:21:37.000Z</time>
      </trkpt>
      <trkpt lat="45.19547" lon="5.73164">
        <ele>205.60000610352</ele>
        <time>2022-06-02T02:21:38.000Z</time>
      </trkpt>
      <trkpt lat="45.19545" lon="5.73161">
        <ele>206.39999389648</ele>
        <time>2022-06-02T02:21:39.000Z</time>
      </trkpt>
      <trkpt lat="45.19543" lon="5.73159">
        <ele>205.60000610352</ele>
        <time>2022-06-02T02:21:40.000Z</time>
      </trkpt>
      <trkpt lat="45.19541" lon="5.73156">
        <ele>206</ele>
        <time>2022-06-02T02:21:41.000Z</time>
      </trkpt>
      <trkpt lat="45.19539" lon="5.73153">
        <ele>206.19999694824</ele>
        <time>2022-06-02T02:21:42.000Z</time>
      </trkpt>
      <trkpt lat="45.19537" lon="5.7315">
        <ele>206</ele>
        <time>2022-06-02T02:21:43.000Z</time>
      </trkpt>
      <trkpt lat="45.19535" lon="5.73147">
        <ele>206</ele>
        <time>2022-06-02T02:21:44.000Z</time>
      </trkpt>
      <trkpt lat="45.19534" lon="5.73144">
        <ele>206.19999694824</ele>
        <time>2022-06-02T02:21:45.000Z</time>
      </trkpt>
      <trkpt lat="45.19532" lon="5.73141">
        <ele>206</ele>
        <time>2022-06-02T02:21:46.000Z</time>
      </trkpt>
      <trkpt lat="45.1953" lon="5.73139">
        <ele>206</ele>
        <time>2022-06-02T02:21:47.000Z</time>
      </trkpt>
      <trkpt lat="45.19528" lon="5.73136">
        <ele>206.60000610352</ele>
        <time>2022-06-02T02:21:48.000Z</time>
      </trkpt>
      <trkpt lat="45.19527" lon="5.73133">
        <ele>206.39999389648</ele>
        <time>2022-06-02T02:21:49.000Z</time>
      </trkpt>
      <trkpt lat="45.19525" lon="5.73131">
        <ele>206.39999389648</ele>
        <time>2022-06-02T02:21:50.000Z</time>
      </trkpt>
      <trkpt lat="45.19523" lon="5.73128">
        <ele>205.80000305176</ele>
        <time>2022-06-02T02:21:51.000Z</time>
      </trkpt>
      <trkpt lat="45.19521" lon="5.73126">
        <ele>206.19999694824</ele>
        <time>2022-06-02T02:21:52.000Z</time>
      </trkpt>
      <trkpt lat="45.19519" lon="5.73123">
        <ele>206.39999389648</ele>
        <time>2022-06-02T02:21:53.000Z</time>
      </trkpt>
      <trkpt lat="45.19518" lon="5.7312">
        <ele>206.80000305176</ele>
        <time>2022-06-02T02:21:54.000Z</time>
      </trkpt>
      <trkpt lat="45.19516" lon="5.73117">
        <ele>206.39999389648</ele>
        <time>2022-06-02T02:21:55.000Z</time>
      </trkpt>
      <trkpt lat="45.19515" lon="5.73114">
        <ele>206.60000610352</ele>
        <time>2022-06-02T02:21:56.000Z</time>
      </trkpt>
      <trkpt lat="45.19513" lon="5.73112">
        <ele>206.19999694824</ele>
        <time>2022-06-02T02:21:57.000Z</time>
      </trkpt>
      <trkpt lat="45.19511" lon="5.73109">
        <ele>206.80000305176</ele>
        <time>2022-06-02T02:21:58.000Z</time>
      </trkpt>
      <trkpt lat="45.19509" lon="5.73106">
        <ele>206.60000610352</ele>
        <time>2022-06-02T02:21:59.000Z</time>
      </trkpt>
      <trkpt lat="45.19508" lon="5.73104">
        <ele>206.39999389648</ele>
        <time>2022-06-02T02:22:00.000Z</time>
      </trkpt>
      <trkpt lat="45.19506" lon="5.73101">
        <ele>207.19999694824</ele>
        <time>2022-06-02T02:22:01.000Z</time>
      </trkpt>
      <trkpt lat="45.19504" lon="5.73098">
        <ele>206.39999389648</ele>
        <time>2022-06-02T02:22:02.000Z</time>
      </trkpt>
      <trkpt lat="45.19502" lon="5.73095">
        <ele>206.39999389648</ele>
        <time>2022-06-02T02:22:03.000Z</time>
      </trkpt>
      <trkpt lat="45.19501" lon="5.73092">
        <ele>206</ele>
        <time>2022-06-02T02:22:04.000Z</time>
      </trkpt>
      <trkpt lat="45.19499" lon="5.73089">
        <ele>206.80000305176</ele>
        <time>2022-06-02T02:22:05.000Z</time>
      </trkpt>
      <trkpt lat="45.19498" lon="5.73087">
        <ele>206.19999694824</ele>
        <time>2022-06-02T02:22:06.000Z</time>
      </trkpt>
      <trkpt lat="45.19496" lon="5.73084">
        <ele>206.80000305176</ele>
        <time>2022-06-02T02:22:07.000Z</time>
      </trkpt>
      <trkpt lat="45.19494" lon="5.73082">
        <ele>206.80000305176</ele>
        <time>2022-06-02T02:22:08.000Z</time>
      </trkpt>
      <trkpt lat="45.19493" lon="5.73079">
        <ele>206.39999389648</ele>
        <time>2022-06-02T02:22:09.000Z</time>
      </trkpt>
      <trkpt lat="45.19492" lon="5.73077">
        <ele>206.60000610352</ele>
        <time>2022-06-02T02:22:10.000Z</time>
      </trkpt>
      <trkpt lat="45.19492" lon="5.73074">
        <ele>206.80000305176</ele>
        <time>2022-06-02T02:22:11.000Z</time>
      </trkpt>
      <trkpt lat="45.19493" lon="5.73071">
        <ele>207</ele>
        <time>2022-06-02T02:22:12.000Z</time>
      </trkpt>
      <trkpt lat="45.19494" lon="5.73068">
        <ele>207</ele>
        <time>2022-06-02T02:22:13.000Z</time>
      </trkpt>
      <trkpt lat="45.19496" lon="5.73065">
        <ele>207</ele>
        <time>2022-06-02T02:22:14.000Z</time>
      </trkpt>
      <trkpt lat="45.19498" lon="5.73062">
        <ele>207.39999389648</ele>
        <time>2022-06-02T02:22:15.000Z</time>
      </trkpt>
      <trkpt lat="45.195" lon="5.73059">
        <ele>207.39999389648</ele>
        <time>2022-06-02T02:22:16.000Z</time>
      </trkpt>
      <trkpt lat="45.19502" lon="5.73056">
        <ele>207.60000610352</ele>
        <time>2022-06-02T02:22:17.000Z</time>
      </trkpt>
      <trkpt lat="45.19504" lon="5.73054">
        <ele>207.60000610352</ele>
        <time>2022-06-02T02:22:18.000Z</time>
      </trkpt>
      <trkpt lat="45.19506" lon="5.73051">
        <ele>207.19999694824</ele>
        <time>2022-06-02T02:22:19.000Z</time>
      </trkpt>
      <trkpt lat="45.19508" lon="5.73049">
        <ele>207.60000610352</ele>
        <time>2022-06-02T02:22:20.000Z</time>
      </trkpt>
      <trkpt lat="45.1951" lon="5.73046">
        <ele>207.39999389648</ele>
        <time>2022-06-02T02:22:21.000Z</time>
      </trkpt>
      <trkpt lat="45.19512" lon="5.73043">
        <ele>207.60000610352</ele>
        <time>2022-06-02T02:22:22.000Z</time>
      </trkpt>
      <trkpt lat="45.19514" lon="5.73041">
        <ele>207.60000610352</ele>
        <time>2022-06-02T02:22:23.000Z</time>
      </trkpt>
      <trkpt lat="45.19516" lon="5.73038">
        <ele>207.60000610352</ele>
        <time>2022-06-02T02:22:24.000Z</time>
      </trkpt>
      <trkpt lat="45.19518" lon="5.73036">
        <ele>207.60000610352</ele>
        <time>2022-06-02T02:22:25.000Z</time>
      </trkpt>
      <trkpt lat="45.1952" lon="5.73033">
        <ele>206.80000305176</ele>
        <time>2022-06-02T02:22:26.000Z</time>
      </trkpt>
      <trkpt lat="45.19522" lon="5.73031">
        <ele>207.19999694824</ele>
        <time>2022-06-02T02:22:27.000Z</time>
      </trkpt>
      <trkpt lat="45.19524" lon="5.73028">
        <ele>207.19999694824</ele>
        <time>2022-06-02T02:22:28.000Z</time>
      </trkpt>
      <trkpt lat="45.19526" lon="5.73026">
        <ele>207.39999389648</ele>
        <time>2022-06-02T02:22:29.000Z</time>
      </trkpt>
      <trkpt lat="45.19528" lon="5.73024">
        <ele>207.19999694824</ele>
        <time>2022-06-02T02:22:30.000Z</time>
      </trkpt>
      <trkpt lat="45.1953" lon="5.73022">
        <ele>207.19999694824</ele>
        <time>2022-06-02T02:22:31.000Z</time>
      </trkpt>
      <trkpt lat="45.19532" lon="5.73019">
        <ele>207</ele>
        <time>2022-06-02T02:22:32.000Z</time>
      </trkpt>
      <trkpt lat="45.19534" lon="5.73017">
        <ele>207.39999389648</ele>
        <time>2022-06-02T02:22:33.000Z</time>
      </trkpt>
      <trkpt lat="45.19536" lon="5.73014">
        <ele>207.19999694824</ele>
        <time>2022-06-02T02:22:34.000Z</time>
      </trkpt>
      <trkpt lat="45.19538" lon="5.73012">
        <ele>207</ele>
        <time>2022-06-02T02:22:35.000Z</time>
      </trkpt>
      <trkpt lat="45.1954" lon="5.7301">
        <ele>206.80000305176</ele>
        <time>2022-06-02T02:22:36.000Z</time>
      </trkpt>
      <trkpt lat="45.19542" lon="5.73008">
        <ele>206.60000610352</ele>
        <time>2022-06-02T02:22:37.000Z</time>
      </trkpt>
      <trkpt lat="45.19544" lon="5.73006">
        <ele>206.80000305176</ele>
        <time>2022-06-02T02:22:38.000Z</time>
      </trkpt>
      <trkpt lat="45.19545" lon="5.73003">
        <ele>206.80000305176</ele>
        <time>2022-06-02T02:22:39.000Z</time>
      </trkpt>
      <trkpt lat="45.19546" lon="5.73">
        <ele>206.80000305176</ele>
        <time>2022-06-02T02:22:40.000Z</time>
      </trkpt>
      <trkpt lat="45.19546" lon="5.72996">
        <ele>206.80000305176</ele>
        <time>2022-06-02T02:22:41.000Z</time>
      </trkpt>
      <trkpt lat="45.19546" lon="5.72993">
        <ele>206.19999694824</ele>
        <time>2022-06-02T02:22:42.000Z</time>
      </trkpt>
      <trkpt lat="45.19547" lon="5.72989">
        <ele>207</ele>
        <time>2022-06-02T02:22:43.000Z</time>
      </trkpt>
      <trkpt lat="45.19547" lon="5.72985">
        <ele>206.60000610352</ele>
        <time>2022-06-02T02:22:44.000Z</time>
      </trkpt>
      <trkpt lat="45.19548" lon="5.72981">
        <ele>206.60000610352</ele>
        <time>2022-06-02T02:22:45.000Z</time>
      </trkpt>
      <trkpt lat="45.19549" lon="5.72978">
        <ele>206.39999389648</ele>
        <time>2022-06-02T02:22:46.000Z</time>
      </trkpt>
      <trkpt lat="45.19551" lon="5.72976">
        <ele>206.60000610352</ele>
        <time>2022-06-02T02:22:47.000Z</time>
      </trkpt>
      <trkpt lat="45.19553" lon="5.72973">
        <ele>206.60000610352</ele>
        <time>2022-06-02T02:22:48.000Z</time>
      </trkpt>
      <trkpt lat="45.19554" lon="5.7297">
        <ele>206.60000610352</ele>
        <time>2022-06-02T02:22:49.000Z</time>
      </trkpt>
      <trkpt lat="45.19556" lon="5.72967">
        <ele>207</ele>
        <time>2022-06-02T02:22:50.000Z</time>
      </trkpt>
      <trkpt lat="45.19558" lon="5.72965">
        <ele>206.60000610352</ele>
        <time>2022-06-02T02:22:51.000Z</time>
      </trkpt>
      <trkpt lat="45.19559" lon="5.72963">
        <ele>206.60000610352</ele>
        <time>2022-06-02T02:22:52.000Z</time>
      </trkpt>
      <trkpt lat="45.19561" lon="5.7296">
        <ele>206.19999694824</ele>
        <time>2022-06-02T02:22:53.000Z</time>
      </trkpt>
      <trkpt lat="45.1956" lon="5.72959">
        <ele>206</ele>
        <time>2022-06-02T02:22:54.000Z</time>
      </trkpt>
      <trkpt lat="45.19561" lon="5.72959">
        <ele>205.80000305176</ele>
        <time>2022-06-02T02:22:55.000Z</time>
      </trkpt>
      <trkpt lat="45.19561" lon="5.7296">
        <ele>205.19999694824</ele>
        <time>2022-06-02T02:22:56.000Z</time>
      </trkpt>
      <trkpt lat="45.19563" lon="5.7296">
        <ele>204.60000610352</ele>
        <time>2022-06-02T02:22:57.000Z</time>
      </trkpt>
      <trkpt lat="45.19563" lon="5.72961">
        <ele>204</ele>
        <time>2022-06-02T02:22:58.000Z</time>
      </trkpt>
      <trkpt lat="45.19564" lon="5.72962">
        <ele>203.60000610352</ele>
        <time>2022-06-02T02:22:59.000Z</time>
      </trkpt>
      <trkpt lat="45.19564" lon="5.72963">
        <ele>203.60000610352</ele>
        <time>2022-06-02T02:23:00.000Z</time>
      </trkpt>
      <trkpt lat="45.19564" lon="5.72964">
        <ele>203.39999389648</ele>
        <time>2022-06-02T02:23:01.000Z</time>
      </trkpt>
      <trkpt lat="45.19565" lon="5.72965">
        <ele>203</ele>
        <time>2022-06-02T02:23:02.000Z</time>
      </trkpt>
      <trkpt lat="45.19566" lon="5.72966">
        <ele>203.39999389648</ele>
        <time>2022-06-02T02:23:03.000Z</time>
      </trkpt>
      <trkpt lat="45.19567" lon="5.72966">
        <ele>203.39999389648</ele>
        <time>2022-06-02T02:23:04.000Z</time>
      </trkpt>
      <trkpt lat="45.1957" lon="5.72966">
        <ele>203.39999389648</ele>
        <time>2022-06-02T02:23:05.000Z</time>
      </trkpt>
      <trkpt lat="45.19573" lon="5.72967">
        <ele>203.19999694824</ele>
        <time>2022-06-02T02:23:06.000Z</time>
      </trkpt>
      <trkpt lat="45.19575" lon="5.72968">
        <ele>203.19999694824</ele>
        <time>2022-06-02T02:23:07.000Z</time>
      </trkpt>
      <trkpt lat="45.19577" lon="5.7297">
        <ele>203.39999389648</ele>
        <time>2022-06-02T02:23:08.000Z</time>
      </trkpt>
      <trkpt lat="45.1958" lon="5.72972">
        <ele>203</ele>
        <time>2022-06-02T02:23:09.000Z</time>
      </trkpt>
      <trkpt lat="45.19581" lon="5.72974">
        <ele>203</ele>
        <time>2022-06-02T02:23:10.000Z</time>
      </trkpt>
      <trkpt lat="45.19583" lon="5.72977">
        <ele>202.80000305176</ele>
        <time>2022-06-02T02:23:11.000Z</time>
      </trkpt>
      <trkpt lat="45.19585" lon="5.7298">
        <ele>203.19999694824</ele>
        <time>2022-06-02T02:23:12.000Z</time>
      </trkpt>
      <trkpt lat="45.19588" lon="5.72983">
        <ele>203</ele>
        <time>2022-06-02T02:23:13.000Z</time>
      </trkpt>
      <trkpt lat="45.1959" lon="5.72985">
        <ele>202.60000610352</ele>
        <time>2022-06-02T02:23:14.000Z</time>
      </trkpt>
      <trkpt lat="45.19592" lon="5.72987">
        <ele>202.80000305176</ele>
        <time>2022-06-02T02:23:15.000Z</time>
      </trkpt>
      <trkpt lat="45.19594" lon="5.7299">
        <ele>202.80000305176</ele>
        <time>2022-06-02T02:23:16.000Z</time>
      </trkpt>
      <trkpt lat="45.19597" lon="5.72992">
        <ele>202.60000610352</ele>
        <time>2022-06-02T02:23:17.000Z</time>
      </trkpt>
      <trkpt lat="45.19598" lon="5.72995">
        <ele>203</ele>
        <time>2022-06-02T02:23:18.000Z</time>
      </trkpt>
      <trkpt lat="45.196" lon="5.72998">
        <ele>203.19999694824</ele>
        <time>2022-06-02T02:23:19.000Z</time>
      </trkpt>
      <trkpt lat="45.19602" lon="5.73001">
        <ele>203</ele>
        <time>2022-06-02T02:23:20.000Z</time>
      </trkpt>
      <trkpt lat="45.19603" lon="5.73004">
        <ele>203.19999694824</ele>
        <time>2022-06-02T02:23:21.000Z</time>
      </trkpt>
      <trkpt lat="45.19605" lon="5.73007">
        <ele>203.19999694824</ele>
        <time>2022-06-02T02:23:22.000Z</time>
      </trkpt>
      <trkpt lat="45.19607" lon="5.7301">
        <ele>203</ele>
        <time>2022-06-02T02:23:23.000Z</time>
      </trkpt>
      <trkpt lat="45.19609" lon="5.73013">
        <ele>202.60000610352</ele>
        <time>2022-06-02T02:23:24.000Z</time>
      </trkpt>
      <trkpt lat="45.19612" lon="5.73016">
        <ele>203.19999694824</ele>
        <time>2022-06-02T02:23:25.000Z</time>
      </trkpt>
      <trkpt lat="45.19613" lon="5.73019">
        <ele>203.39999389648</ele>
        <time>2022-06-02T02:23:26.000Z</time>
      </trkpt>
      <trkpt lat="45.19615" lon="5.73021">
        <ele>203</ele>
        <time>2022-06-02T02:23:27.000Z</time>
      </trkpt>
      <trkpt lat="45.19617" lon="5.73025">
        <ele>203</ele>
        <time>2022-06-02T02:23:28.000Z</time>
      </trkpt>
      <trkpt lat="45.19619" lon="5.73028">
        <ele>203</ele>
        <time>2022-06-02T02:23:29.000Z</time>
      </trkpt>
      <trkpt lat="45.19621" lon="5.73031">
        <ele>203.19999694824</ele>
        <time>2022-06-02T02:23:30.000Z</time>
      </trkpt>
      <trkpt lat="45.19623" lon="5.73034">
        <ele>203</ele>
        <time>2022-06-02T02:23:31.000Z</time>
      </trkpt>
      <trkpt lat="45.19624" lon="5.73036">
        <ele>203.19999694824</ele>
        <time>2022-06-02T02:23:32.000Z</time>
      </trkpt>
      <trkpt lat="45.19626" lon="5.73038">
        <ele>203.19999694824</ele>
        <time>2022-06-02T02:23:33.000Z</time>
      </trkpt>
      <trkpt lat="45.19628" lon="5.73042">
        <ele>203</ele>
        <time>2022-06-02T02:23:34.000Z</time>
      </trkpt>
      <trkpt lat="45.1963" lon="5.73045">
        <ele>203.19999694824</ele>
        <time>2022-06-02T02:23:35.000Z</time>
      </trkpt>
      <trkpt lat="45.19632" lon="5.73048">
        <ele>203.19999694824</ele>
        <time>2022-06-02T02:23:36.000Z</time>
      </trkpt>
      <trkpt lat="45.19633" lon="5.7305">
        <ele>203.39999389648</ele>
        <time>2022-06-02T02:23:37.000Z</time>
      </trkpt>
      <trkpt lat="45.19634" lon="5.73053">
        <ele>203.39999389648</ele>
        <time>2022-06-02T02:23:38.000Z</time>
      </trkpt>
      <trkpt lat="45.19636" lon="5.73055">
        <ele>203</ele>
        <time>2022-06-02T02:23:39.000Z</time>
      </trkpt>
      <trkpt lat="45.19638" lon="5.73059">
        <ele>203</ele>
        <time>2022-06-02T02:23:40.000Z</time>
      </trkpt>
      <trkpt lat="45.19641" lon="5.73061">
        <ele>203</ele>
        <time>2022-06-02T02:23:41.000Z</time>
      </trkpt>
      <trkpt lat="45.19643" lon="5.73063">
        <ele>203</ele>
        <time>2022-06-02T02:23:42.000Z</time>
      </trkpt>
      <trkpt lat="45.19645" lon="5.73066">
        <ele>203.19999694824</ele>
        <time>2022-06-02T02:23:43.000Z</time>
      </trkpt>
      <trkpt lat="45.19647" lon="5.73068">
        <ele>203.19999694824</ele>
        <time>2022-06-02T02:23:44.000Z</time>
      </trkpt>
      <trkpt lat="45.19649" lon="5.7307">
        <ele>202.80000305176</ele>
        <time>2022-06-02T02:23:45.000Z</time>
      </trkpt>
      <trkpt lat="45.19651" lon="5.73072">
        <ele>202.80000305176</ele>
        <time>2022-06-02T02:23:46.000Z</time>
      </trkpt>
      <trkpt lat="45.19653" lon="5.73075">
        <ele>202.60000610352</ele>
        <time>2022-06-02T02:23:47.000Z</time>
      </trkpt>
      <trkpt lat="45.19655" lon="5.73078">
        <ele>202.60000610352</ele>
        <time>2022-06-02T02:23:48.000Z</time>
      </trkpt>
      <trkpt lat="45.19657" lon="5.73081">
        <ele>203</ele>
        <time>2022-06-02T02:23:49.000Z</time>
      </trkpt>
      <trkpt lat="45.19659" lon="5.73084">
        <ele>203</ele>
        <time>2022-06-02T02:23:50.000Z</time>
      </trkpt>
      <trkpt lat="45.19661" lon="5.73087">
        <ele>202.80000305176</ele>
        <time>2022-06-02T02:23:51.000Z</time>
      </trkpt>
      <trkpt lat="45.19663" lon="5.73089">
        <ele>203</ele>
        <time>2022-06-02T02:23:52.000Z</time>
      </trkpt>
      <trkpt lat="45.19665" lon="5.73092">
        <ele>202.60000610352</ele>
        <time>2022-06-02T02:23:53.000Z</time>
      </trkpt>
      <trkpt lat="45.19668" lon="5.73094">
        <ele>202.60000610352</ele>
        <time>2022-06-02T02:23:54.000Z</time>
      </trkpt>
      <trkpt lat="45.19669" lon="5.73096">
        <ele>202.80000305176</ele>
        <time>2022-06-02T02:23:55.000Z</time>
      </trkpt>
      <trkpt lat="45.19672" lon="5.73098">
        <ele>203</ele>
        <time>2022-06-02T02:23:56.000Z</time>
      </trkpt>
      <trkpt lat="45.19675" lon="5.731">
        <ele>202.60000610352</ele>
        <time>2022-06-02T02:23:57.000Z</time>
      </trkpt>
      <trkpt lat="45.19677" lon="5.73103">
        <ele>202.60000610352</ele>
        <time>2022-06-02T02:23:58.000Z</time>
      </trkpt>
      <trkpt lat="45.19679" lon="5.73106">
        <ele>202.39999389648</ele>
        <time>2022-06-02T02:23:59.000Z</time>
      </trkpt>
      <trkpt lat="45.19681" lon="5.73109">
        <ele>202.39999389648</ele>
        <time>2022-06-02T02:24:00.000Z</time>
      </trkpt>
      <trkpt lat="45.19683" lon="5.73112">
        <ele>202.60000610352</ele>
        <time>2022-06-02T02:24:01.000Z</time>
      </trkpt>
      <trkpt lat="45.19685" lon="5.73114">
        <ele>202.39999389648</ele>
        <time>2022-06-02T02:24:02.000Z</time>
      </trkpt>
      <trkpt lat="45.19688" lon="5.73117">
        <ele>202.39999389648</ele>
        <time>2022-06-02T02:24:03.000Z</time>
      </trkpt>
      <trkpt lat="45.1969" lon="5.73119">
        <ele>202</ele>
        <time>2022-06-02T02:24:04.000Z</time>
      </trkpt>
      <trkpt lat="45.19693" lon="5.73121">
        <ele>202.19999694824</ele>
        <time>2022-06-02T02:24:05.000Z</time>
      </trkpt>
      <trkpt lat="45.19695" lon="5.73124">
        <ele>202</ele>
        <time>2022-06-02T02:24:06.000Z</time>
      </trkpt>
      <trkpt lat="45.19697" lon="5.73126">
        <ele>202.39999389648</ele>
        <time>2022-06-02T02:24:07.000Z</time>
      </trkpt>
      <trkpt lat="45.197" lon="5.73129">
        <ele>202</ele>
        <time>2022-06-02T02:24:08.000Z</time>
      </trkpt>
      <trkpt lat="45.19703" lon="5.73131">
        <ele>202</ele>
        <time>2022-06-02T02:24:09.000Z</time>
      </trkpt>
      <trkpt lat="45.19705" lon="5.73134">
        <ele>202.19999694824</ele>
        <time>2022-06-02T02:24:10.000Z</time>
      </trkpt>
      <trkpt lat="45.19707" lon="5.73137">
        <ele>202.39999389648</ele>
        <time>2022-06-02T02:24:11.000Z</time>
      </trkpt>
      <trkpt lat="45.19709" lon="5.7314">
        <ele>202.39999389648</ele>
        <time>2022-06-02T02:24:12.000Z</time>
      </trkpt>
      <trkpt lat="45.19711" lon="5.73144">
        <ele>202.19999694824</ele>
        <time>2022-06-02T02:24:13.000Z</time>
      </trkpt>
      <trkpt lat="45.19713" lon="5.73146">
        <ele>202.19999694824</ele>
        <time>2022-06-02T02:24:14.000Z</time>
      </trkpt>
      <trkpt lat="45.19715" lon="5.7315">
        <ele>202</ele>
        <time>2022-06-02T02:24:15.000Z</time>
      </trkpt>
      <trkpt lat="45.19714" lon="5.7315">
        <ele>202.39999389648</ele>
        <time>2022-06-02T02:24:16.000Z</time>
      </trkpt>
      <trkpt lat="45.19718" lon="5.73152">
        <ele>202.39999389648</ele>
        <time>2022-06-02T02:24:17.000Z</time>
      </trkpt>
      <trkpt lat="45.19719" lon="5.73154">
        <ele>202.60000610352</ele>
        <time>2022-06-02T02:24:18.000Z</time>
      </trkpt>
      <trkpt lat="45.19721" lon="5.73157">
        <ele>202.39999389648</ele>
        <time>2022-06-02T02:24:19.000Z</time>
      </trkpt>
      <trkpt lat="45.19723" lon="5.7316">
        <ele>202.60000610352</ele>
        <time>2022-06-02T02:24:20.000Z</time>
      </trkpt>
      <trkpt lat="45.19725" lon="5.73162">
        <ele>202.60000610352</ele>
        <time>2022-06-02T02:24:21.000Z</time>
      </trkpt>
      <trkpt lat="45.19727" lon="5.73164">
        <ele>202.60000610352</ele>
        <time>2022-06-02T02:24:22.000Z</time>
      </trkpt>
      <trkpt lat="45.19728" lon="5.73165">
        <ele>202.39999389648</ele>
        <time>2022-06-02T02:24:23.000Z</time>
      </trkpt>
      <trkpt lat="45.1973" lon="5.73167">
        <ele>202.39999389648</ele>
        <time>2022-06-02T02:24:24.000Z</time>
      </trkpt>
      <trkpt lat="45.19731" lon="5.73168">
        <ele>202.80000305176</ele>
        <time>2022-06-02T02:24:25.000Z</time>
      </trkpt>
      <trkpt lat="45.19734" lon="5.73171">
        <ele>202.60000610352</ele>
        <time>2022-06-02T02:24:26.000Z</time>
      </trkpt>
      <trkpt lat="45.19736" lon="5.73172">
        <ele>202.60000610352</ele>
        <time>2022-06-02T02:24:27.000Z</time>
      </trkpt>
      <trkpt lat="45.19737" lon="5.73174">
        <ele>202.60000610352</ele>
        <time>2022-06-02T02:24:28.000Z</time>
      </trkpt>
      <trkpt lat="45.1974" lon="5.73175">
        <ele>202.80000305176</ele>
        <time>2022-06-02T02:24:29.000Z</time>
      </trkpt>
      <trkpt lat="45.19742" lon="5.73176">
        <ele>202</ele>
        <time>2022-06-02T02:24:30.000Z</time>
      </trkpt>
      <trkpt lat="45.19745" lon="5.73178">
        <ele>202.80000305176</ele>
        <time>2022-06-02T02:24:31.000Z</time>
      </trkpt>
      <trkpt lat="45.19746" lon="5.73179">
        <ele>203.19999694824</ele>
        <time>2022-06-02T02:24:32.000Z</time>
      </trkpt>
      <trkpt lat="45.19748" lon="5.73181">
        <ele>202.60000610352</ele>
        <time>2022-06-02T02:24:33.000Z</time>
      </trkpt>
      <trkpt lat="45.19749" lon="5.73182">
        <ele>203.19999694824</ele>
        <time>2022-06-02T02:24:34.000Z</time>
      </trkpt>
      <trkpt lat="45.1975" lon="5.73183">
        <ele>202.60000610352</ele>
        <time>2022-06-02T02:24:35.000Z</time>
      </trkpt>
      <trkpt lat="45.19753" lon="5.73184">
        <ele>202.80000305176</ele>
        <time>2022-06-02T02:24:36.000Z</time>
      </trkpt>
      <trkpt lat="45.19756" lon="5.73186">
        <ele>203</ele>
        <time>2022-06-02T02:24:37.000Z</time>
      </trkpt>
      <trkpt lat="45.19758" lon="5.73187">
        <ele>203.19999694824</ele>
        <time>2022-06-02T02:24:38.000Z</time>
      </trkpt>
      <trkpt lat="45.19761" lon="5.73188">
        <ele>203.19999694824</ele>
        <time>2022-06-02T02:24:39.000Z</time>
      </trkpt>
      <trkpt lat="45.19764" lon="5.73188">
        <ele>203.60000610352</ele>
        <time>2022-06-02T02:24:40.000Z</time>
      </trkpt>
      <trkpt lat="45.19765" lon="5.73187">
        <ele>203.60000610352</ele>
        <time>2022-06-02T02:24:41.000Z</time>
      </trkpt>
      <trkpt lat="45.19767" lon="5.73186">
        <ele>204</ele>
        <time>2022-06-02T02:24:42.000Z</time>
      </trkpt>
      <trkpt lat="45.19769" lon="5.73183">
        <ele>203.39999389648</ele>
        <time>2022-06-02T02:24:43.000Z</time>
      </trkpt>
      <trkpt lat="45.1977" lon="5.7318">
        <ele>203.19999694824</ele>
        <time>2022-06-02T02:24:44.000Z</time>
      </trkpt>
      <trkpt lat="45.19771" lon="5.73177">
        <ele>203.19999694824</ele>
        <time>2022-06-02T02:24:45.000Z</time>
      </trkpt>
      <trkpt lat="45.19772" lon="5.73174">
        <ele>204.39999389648</ele>
        <time>2022-06-02T02:24:46.000Z</time>
      </trkpt>
      <trkpt lat="45.19773" lon="5.73171">
        <ele>204.19999694824</ele>
        <time>2022-06-02T02:24:47.000Z</time>
      </trkpt>
      <trkpt lat="45.19774" lon="5.73168">
        <ele>204.60000610352</ele>
        <time>2022-06-02T02:24:48.000Z</time>
      </trkpt>
      <trkpt lat="45.19774" lon="5.73166">
        <ele>204.80000305176</ele>
        <time>2022-06-02T02:24:49.000Z</time>
      </trkpt>
      <trkpt lat="45.19775" lon="5.73164">
        <ele>205.19999694824</ele>
        <time>2022-06-02T02:24:50.000Z</time>
      </trkpt>
      <trkpt lat="45.19775" lon="5.73162">
        <ele>205.39999389648</ele>
        <time>2022-06-02T02:24:51.000Z</time>
      </trkpt>
      <trkpt lat="45.19775" lon="5.73159">
        <ele>205.39999389648</ele>
        <time>2022-06-02T02:24:52.000Z</time>
      </trkpt>
      <trkpt lat="45.19776" lon="5.73157">
        <ele>205.80000305176</ele>
        <time>2022-06-02T02:24:53.000Z</time>
      </trkpt>
      <trkpt lat="45.19776" lon="5.73154">
        <ele>206.19999694824</ele>
        <time>2022-06-02T02:24:54.000Z</time>
      </trkpt>
      <trkpt lat="45.19777" lon="5.73152">
        <ele>206.60000610352</ele>
        <time>2022-06-02T02:24:55.000Z</time>
      </trkpt>
      <trkpt lat="45.19778" lon="5.73149">
        <ele>207.39999389648</ele>
        <time>2022-06-02T02:24:56.000Z</time>
      </trkpt>
      <trkpt lat="45.19779" lon="5.73147">
        <ele>207.60000610352</ele>
        <time>2022-06-02T02:24:57.000Z</time>
      </trkpt>
      <trkpt lat="45.1978" lon="5.73145">
        <ele>207.60000610352</ele>
        <time>2022-06-02T02:24:58.000Z</time>
      </trkpt>
      <trkpt lat="45.19781" lon="5.73142">
        <ele>207.80000305176</ele>
        <time>2022-06-02T02:24:59.000Z</time>
      </trkpt>
      <trkpt lat="45.19782" lon="5.7314">
        <ele>207.80000305176</ele>
        <time>2022-06-02T02:25:00.000Z</time>
      </trkpt>
      <trkpt lat="45.19783" lon="5.73138">
        <ele>208.39999389648</ele>
        <time>2022-06-02T02:25:01.000Z</time>
      </trkpt>
      <trkpt lat="45.19785" lon="5.73137">
        <ele>208.80000305176</ele>
        <time>2022-06-02T02:25:02.000Z</time>
      </trkpt>
      <trkpt lat="45.19786" lon="5.73136">
        <ele>209</ele>
        <time>2022-06-02T02:25:03.000Z</time>
      </trkpt>
      <trkpt lat="45.19788" lon="5.73135">
        <ele>209</ele>
        <time>2022-06-02T02:25:04.000Z</time>
      </trkpt>
      <trkpt lat="45.1979" lon="5.73135">
        <ele>209.60000610352</ele>
        <time>2022-06-02T02:25:05.000Z</time>
      </trkpt>
      <trkpt lat="45.19791" lon="5.73134">
        <ele>209.60000610352</ele>
        <time>2022-06-02T02:25:06.000Z</time>
      </trkpt>
      <trkpt lat="45.19793" lon="5.73133">
        <ele>209.80000305176</ele>
        <time>2022-06-02T02:25:07.000Z</time>
      </trkpt>
      <trkpt lat="45.19794" lon="5.73134">
        <ele>210.19999694824</ele>
        <time>2022-06-02T02:25:08.000Z</time>
      </trkpt>
      <trkpt lat="45.19797" lon="5.73134">
        <ele>210.60000610352</ele>
        <time>2022-06-02T02:25:09.000Z</time>
      </trkpt>
      <trkpt lat="45.19799" lon="5.73134">
        <ele>210.60000610352</ele>
        <time>2022-06-02T02:25:10.000Z</time>
      </trkpt>
      <trkpt lat="45.198" lon="5.73133">
        <ele>210.60000610352</ele>
        <time>2022-06-02T02:25:11.000Z</time>
      </trkpt>
      <trkpt lat="45.19801" lon="5.73132">
        <ele>210.60000610352</ele>
        <time>2022-06-02T02:25:12.000Z</time>
      </trkpt>
      <trkpt lat="45.19801" lon="5.73132">
        <ele>211</ele>
        <time>2022-06-02T02:25:13.000Z</time>
      </trkpt>
      <trkpt lat="45.198" lon="5.73131">
        <ele>211</ele>
        <time>2022-06-02T02:25:14.000Z</time>
      </trkpt>
      <trkpt lat="45.19798" lon="5.7313">
        <ele>211.19999694824</ele>
        <time>2022-06-02T02:25:15.000Z</time>
      </trkpt>
      <trkpt lat="45.19797" lon="5.7313">
        <ele>211.39999389648</ele>
        <time>2022-06-02T02:25:16.000Z</time>
      </trkpt>
      <trkpt lat="45.19795" lon="5.73129">
        <ele>211.60000610352</ele>
        <time>2022-06-02T02:25:17.000Z</time>
      </trkpt>
      <trkpt lat="45.19793" lon="5.73128">
        <ele>212</ele>
        <time>2022-06-02T02:25:18.000Z</time>
      </trkpt>
      <trkpt lat="45.19792" lon="5.73127">
        <ele>212</ele>
        <time>2022-06-02T02:25:19.000Z</time>
      </trkpt>
      <trkpt lat="45.19789" lon="5.73126">
        <ele>212.39999389648</ele>
        <time>2022-06-02T02:25:20.000Z</time>
      </trkpt>
      <trkpt lat="45.19788" lon="5.73125">
        <ele>212.60000610352</ele>
        <time>2022-06-02T02:25:21.000Z</time>
      </trkpt>
      <trkpt lat="45.19787" lon="5.73123">
        <ele>212.80000305176</ele>
        <time>2022-06-02T02:25:22.000Z</time>
      </trkpt>
      <trkpt lat="45.19785" lon="5.73121">
        <ele>212.80000305176</ele>
        <time>2022-06-02T02:25:23.000Z</time>
      </trkpt>
      <trkpt lat="45.19784" lon="5.7312">
        <ele>213.19999694824</ele>
        <time>2022-06-02T02:25:24.000Z</time>
      </trkpt>
      <trkpt lat="45.19783" lon="5.7312">
        <ele>213.19999694824</ele>
        <time>2022-06-02T02:25:25.000Z</time>
      </trkpt>
      <trkpt lat="45.1978" lon="5.7312">
        <ele>214</ele>
        <time>2022-06-02T02:25:28.000Z</time>
      </trkpt>
      <trkpt lat="45.1978" lon="5.73121">
        <ele>214.39999389648</ele>
        <time>2022-06-02T02:25:29.000Z</time>
      </trkpt>
      <trkpt lat="45.19779" lon="5.73118">
        <ele>214.80000305176</ele>
        <time>2022-06-02T02:25:30.000Z</time>
      </trkpt>
      <trkpt lat="45.19777" lon="5.73117">
        <ele>215.39999389648</ele>
        <time>2022-06-02T02:25:31.000Z</time>
      </trkpt>
      <trkpt lat="45.19775" lon="5.73115">
        <ele>214.80000305176</ele>
        <time>2022-06-02T02:25:32.000Z</time>
      </trkpt>
      <trkpt lat="45.19773" lon="5.73115">
        <ele>214.80000305176</ele>
        <time>2022-06-02T02:25:33.000Z</time>
      </trkpt>
      <trkpt lat="45.19772" lon="5.73114">
        <ele>215.60000610352</ele>
        <time>2022-06-02T02:25:34.000Z</time>
      </trkpt>
      <trkpt lat="45.19771" lon="5.73113">
        <ele>215.80000305176</ele>
        <time>2022-06-02T02:25:35.000Z</time>
      </trkpt>
      <trkpt lat="45.1977" lon="5.73112">
        <ele>216.19999694824</ele>
        <time>2022-06-02T02:25:36.000Z</time>
      </trkpt>
      <trkpt lat="45.19768" lon="5.7311">
        <ele>216.19999694824</ele>
        <time>2022-06-02T02:25:37.000Z</time>
      </trkpt>
      <trkpt lat="45.19767" lon="5.73109">
        <ele>216.60000610352</ele>
        <time>2022-06-02T02:25:38.000Z</time>
      </trkpt>
      <trkpt lat="45.19765" lon="5.73106">
        <ele>216.80000305176</ele>
        <time>2022-06-02T02:25:39.000Z</time>
      </trkpt>
      <trkpt lat="45.19764" lon="5.73103">
        <ele>217</ele>
        <time>2022-06-02T02:25:40.000Z</time>
      </trkpt>
      <trkpt lat="45.19763" lon="5.73101">
        <ele>216.80000305176</ele>
        <time>2022-06-02T02:25:41.000Z</time>
      </trkpt>
      <trkpt lat="45.19762" lon="5.73098">
        <ele>217.19999694824</ele>
        <time>2022-06-02T02:25:42.000Z</time>
      </trkpt>
      <trkpt lat="45.19763" lon="5.73095">
        <ele>217.19999694824</ele>
        <time>2022-06-02T02:25:43.000Z</time>
      </trkpt>
      <trkpt lat="45.19764" lon="5.73092">
        <ele>217.60000610352</ele>
        <time>2022-06-02T02:25:44.000Z</time>
      </trkpt>
      <trkpt lat="45.19764" lon="5.7309">
        <ele>217.80000305176</ele>
        <time>2022-06-02T02:25:45.000Z</time>
      </trkpt>
      <trkpt lat="45.19764" lon="5.73089">
        <ele>217.60000610352</ele>
        <time>2022-06-02T02:25:46.000Z</time>
      </trkpt>
      <trkpt lat="45.19765" lon="5.73089">
        <ele>217.60000610352</ele>
        <time>2022-06-02T02:25:47.000Z</time>
      </trkpt>
      <trkpt lat="45.19766" lon="5.73089">
        <ele>217.80000305176</ele>
        <time>2022-06-02T02:25:48.000Z</time>
      </trkpt>
      <trkpt lat="45.19768" lon="5.7309">
        <ele>218</ele>
        <time>2022-06-02T02:25:49.000Z</time>
      </trkpt>
      <trkpt lat="45.19769" lon="5.7309">
        <ele>218.39999389648</ele>
        <time>2022-06-02T02:25:50.000Z</time>
      </trkpt>
      <trkpt lat="45.1977" lon="5.73091">
        <ele>218.60000610352</ele>
        <time>2022-06-02T02:25:51.000Z</time>
      </trkpt>
      <trkpt lat="45.19772" lon="5.73091">
        <ele>218.80000305176</ele>
        <time>2022-06-02T02:25:52.000Z</time>
      </trkpt>
      <trkpt lat="45.19774" lon="5.73092">
        <ele>219</ele>
        <time>2022-06-02T02:25:53.000Z</time>
      </trkpt>
      <trkpt lat="45.19776" lon="5.73093">
        <ele>219.19999694824</ele>
        <time>2022-06-02T02:25:54.000Z</time>
      </trkpt>
      <trkpt lat="45.19777" lon="5.73094">
        <ele>219.39999389648</ele>
        <time>2022-06-02T02:25:55.000Z</time>
      </trkpt>
      <trkpt lat="45.19779" lon="5.73095">
        <ele>219.19999694824</ele>
        <time>2022-06-02T02:25:56.000Z</time>
      </trkpt>
      <trkpt lat="45.19781" lon="5.73096">
        <ele>219.80000305176</ele>
        <time>2022-06-02T02:25:57.000Z</time>
      </trkpt>
      <trkpt lat="45.19782" lon="5.73096">
        <ele>220.19999694824</ele>
        <time>2022-06-02T02:25:58.000Z</time>
      </trkpt>
      <trkpt lat="45.19784" lon="5.73097">
        <ele>220.60000610352</ele>
        <time>2022-06-02T02:25:59.000Z</time>
      </trkpt>
      <trkpt lat="45.19786" lon="5.73098">
        <ele>220.80000305176</ele>
        <time>2022-06-02T02:26:00.000Z</time>
      </trkpt>
      <trkpt lat="45.19788" lon="5.73099">
        <ele>221</ele>
        <time>2022-06-02T02:26:01.000Z</time>
      </trkpt>
      <trkpt lat="45.1979" lon="5.731">
        <ele>220.60000610352</ele>
        <time>2022-06-02T02:26:02.000Z</time>
      </trkpt>
      <trkpt lat="45.19792" lon="5.73101">
        <ele>220.80000305176</ele>
        <time>2022-06-02T02:26:03.000Z</time>
      </trkpt>
      <trkpt lat="45.19794" lon="5.73102">
        <ele>221.39999389648</ele>
        <time>2022-06-02T02:26:04.000Z</time>
      </trkpt>
      <trkpt lat="45.19796" lon="5.73103">
        <ele>221.60000610352</ele>
        <time>2022-06-02T02:26:05.000Z</time>
      </trkpt>
      <trkpt lat="45.19798" lon="5.73104">
        <ele>221.80000305176</ele>
        <time>2022-06-02T02:26:06.000Z</time>
      </trkpt>
      <trkpt lat="45.19799" lon="5.73104">
        <ele>221.80000305176</ele>
        <time>2022-06-02T02:26:07.000Z</time>
      </trkpt>
      <trkpt lat="45.19801" lon="5.73105">
        <ele>221.80000305176</ele>
        <time>2022-06-02T02:26:08.000Z</time>
      </trkpt>
      <trkpt lat="45.19802" lon="5.73105">
        <ele>222.19999694824</ele>
        <time>2022-06-02T02:26:09.000Z</time>
      </trkpt>
      <trkpt lat="45.19803" lon="5.73105">
        <ele>222.39999389648</ele>
        <time>2022-06-02T02:26:10.000Z</time>
      </trkpt>
      <trkpt lat="45.19804" lon="5.73104">
        <ele>222.39999389648</ele>
        <time>2022-06-02T02:26:11.000Z</time>
      </trkpt>
      <trkpt lat="45.19804" lon="5.73103">
        <ele>222.39999389648</ele>
        <time>2022-06-02T02:26:12.000Z</time>
      </trkpt>
      <trkpt lat="45.19803" lon="5.73101">
        <ele>222.60000610352</ele>
        <time>2022-06-02T02:26:13.000Z</time>
      </trkpt>
      <trkpt lat="45.19802" lon="5.73101">
        <ele>223</ele>
        <time>2022-06-02T02:26:14.000Z</time>
      </trkpt>
      <trkpt lat="45.19799" lon="5.73099">
        <ele>223</ele>
        <time>2022-06-02T02:26:15.000Z</time>
      </trkpt>
      <trkpt lat="45.19798" lon="5.73098">
        <ele>223</ele>
        <time>2022-06-02T02:26:16.000Z</time>
      </trkpt>
      <trkpt lat="45.19797" lon="5.73097">
        <ele>223.19999694824</ele>
        <time>2022-06-02T02:26:17.000Z</time>
      </trkpt>
      <trkpt lat="45.19796" lon="5.73096">
        <ele>223.39999389648</ele>
        <time>2022-06-02T02:26:18.000Z</time>
      </trkpt>
      <trkpt lat="45.19795" lon="5.73095">
        <ele>224</ele>
        <time>2022-06-02T02:26:19.000Z</time>
      </trkpt>
      <trkpt lat="45.19793" lon="5.73094">
        <ele>224</ele>
        <time>2022-06-02T02:26:20.000Z</time>
      </trkpt>
      <trkpt lat="45.19792" lon="5.73093">
        <ele>224</ele>
        <time>2022-06-02T02:26:21.000Z</time>
      </trkpt>
      <trkpt lat="45.19791" lon="5.73091">
        <ele>224.60000610352</ele>
        <time>2022-06-02T02:26:22.000Z</time>
      </trkpt>
      <trkpt lat="45.19789" lon="5.7309">
        <ele>224.39999389648</ele>
        <time>2022-06-02T02:26:23.000Z</time>
      </trkpt>
      <trkpt lat="45.19787" lon="5.73089">
        <ele>225</ele>
        <time>2022-06-02T02:26:24.000Z</time>
      </trkpt>
      <trkpt lat="45.19785" lon="5.73088">
        <ele>225</ele>
        <time>2022-06-02T02:26:25.000Z</time>
      </trkpt>
      <trkpt lat="45.19784" lon="5.73087">
        <ele>225</ele>
        <time>2022-06-02T02:26:26.000Z</time>
      </trkpt>
      <trkpt lat="45.19782" lon="5.73086">
        <ele>225.39999389648</ele>
        <time>2022-06-02T02:26:27.000Z</time>
      </trkpt>
      <trkpt lat="45.1978" lon="5.73085">
        <ele>225.39999389648</ele>
        <time>2022-06-02T02:26:28.000Z</time>
      </trkpt>
      <trkpt lat="45.19779" lon="5.73084">
        <ele>225.39999389648</ele>
        <time>2022-06-02T02:26:29.000Z</time>
      </trkpt>
      <trkpt lat="45.19776" lon="5.73083">
        <ele>226</ele>
        <time>2022-06-02T02:26:30.000Z</time>
      </trkpt>
      <trkpt lat="45.19774" lon="5.73082">
        <ele>226</ele>
        <time>2022-06-02T02:26:31.000Z</time>
      </trkpt>
      <trkpt lat="45.19772" lon="5.7308">
        <ele>225.80000305176</ele>
        <time>2022-06-02T02:26:32.000Z</time>
      </trkpt>
      <trkpt lat="45.1977" lon="5.73079">
        <ele>226.39999389648</ele>
        <time>2022-06-02T02:26:33.000Z</time>
      </trkpt>
      <trkpt lat="45.19769" lon="5.73078">
        <ele>226.80000305176</ele>
        <time>2022-06-02T02:26:34.000Z</time>
      </trkpt>
      <trkpt lat="45.19767" lon="5.73076">
        <ele>226.80000305176</ele>
        <time>2022-06-02T02:26:35.000Z</time>
      </trkpt>
      <trkpt lat="45.19766" lon="5.73075">
        <ele>226.80000305176</ele>
        <time>2022-06-02T02:26:36.000Z</time>
      </trkpt>
      <trkpt lat="45.19764" lon="5.73074">
        <ele>227.19999694824</ele>
        <time>2022-06-02T02:26:37.000Z</time>
      </trkpt>
      <trkpt lat="45.19762" lon="5.73073">
        <ele>227.39999389648</ele>
        <time>2022-06-02T02:26:38.000Z</time>
      </trkpt>
      <trkpt lat="45.1976" lon="5.73072">
        <ele>227.80000305176</ele>
        <time>2022-06-02T02:26:39.000Z</time>
      </trkpt>
      <trkpt lat="45.19758" lon="5.73071">
        <ele>228.19999694824</ele>
        <time>2022-06-02T02:26:40.000Z</time>
      </trkpt>
      <trkpt lat="45.19756" lon="5.7307">
        <ele>228.39999389648</ele>
        <time>2022-06-02T02:26:41.000Z</time>
      </trkpt>
      <trkpt lat="45.19754" lon="5.73069">
        <ele>228.80000305176</ele>
        <time>2022-06-02T02:26:42.000Z</time>
      </trkpt>
      <trkpt lat="45.19752" lon="5.73068">
        <ele>228.60000610352</ele>
        <time>2022-06-02T02:26:43.000Z</time>
      </trkpt>
      <trkpt lat="45.1975" lon="5.73066">
        <ele>228.60000610352</ele>
        <time>2022-06-02T02:26:44.000Z</time>
      </trkpt>
      <trkpt lat="45.19748" lon="5.73065">
        <ele>229</ele>
        <time>2022-06-02T02:26:45.000Z</time>
      </trkpt>
      <trkpt lat="45.19748" lon="5.73062">
        <ele>229</ele>
        <time>2022-06-02T02:26:46.000Z</time>
      </trkpt>
      <trkpt lat="45.19747" lon="5.73061">
        <ele>229.19999694824</ele>
        <time>2022-06-02T02:26:47.000Z</time>
      </trkpt>
      <trkpt lat="45.19748" lon="5.7306">
        <ele>229.39999389648</ele>
        <time>2022-06-02T02:26:48.000Z</time>
      </trkpt>
      <trkpt lat="45.19749" lon="5.73059">
        <ele>229.19999694824</ele>
        <time>2022-06-02T02:26:49.000Z</time>
      </trkpt>
      <trkpt lat="45.19751" lon="5.73059">
        <ele>229.60000610352</ele>
        <time>2022-06-02T02:26:50.000Z</time>
      </trkpt>
      <trkpt lat="45.19752" lon="5.73059">
        <ele>229.60000610352</ele>
        <time>2022-06-02T02:26:51.000Z</time>
      </trkpt>
      <trkpt lat="45.19754" lon="5.73059">
        <ele>229.80000305176</ele>
        <time>2022-06-02T02:26:52.000Z</time>
      </trkpt>
      <trkpt lat="45.19756" lon="5.7306">
        <ele>229.80000305176</ele>
        <time>2022-06-02T02:26:53.000Z</time>
      </trkpt>
      <trkpt lat="45.19757" lon="5.73061">
        <ele>230.39999389648</ele>
        <time>2022-06-02T02:26:54.000Z</time>
      </trkpt>
      <trkpt lat="45.19759" lon="5.73061">
        <ele>230.19999694824</ele>
        <time>2022-06-02T02:26:55.000Z</time>
      </trkpt>
      <trkpt lat="45.1976" lon="5.73062">
        <ele>230.19999694824</ele>
        <time>2022-06-02T02:26:56.000Z</time>
      </trkpt>
      <trkpt lat="45.19762" lon="5.73062">
        <ele>230.80000305176</ele>
        <time>2022-06-02T02:26:57.000Z</time>
      </trkpt>
      <trkpt lat="45.19763" lon="5.73062">
        <ele>230.80000305176</ele>
        <time>2022-06-02T02:26:58.000Z</time>
      </trkpt>
      <trkpt lat="45.19764" lon="5.73063">
        <ele>231.19999694824</ele>
        <time>2022-06-02T02:26:59.000Z</time>
      </trkpt>
      <trkpt lat="45.19766" lon="5.73063">
        <ele>231.19999694824</ele>
        <time>2022-06-02T02:27:00.000Z</time>
      </trkpt>
      <trkpt lat="45.19767" lon="5.73063">
        <ele>231.39999389648</ele>
        <time>2022-06-02T02:27:01.000Z</time>
      </trkpt>
      <trkpt lat="45.19769" lon="5.73064">
        <ele>231.60000610352</ele>
        <time>2022-06-02T02:27:02.000Z</time>
      </trkpt>
      <trkpt lat="45.19771" lon="5.73064">
        <ele>231.60000610352</ele>
        <time>2022-06-02T02:27:03.000Z</time>
      </trkpt>
      <trkpt lat="45.19773" lon="5.73065">
        <ele>231.80000305176</ele>
        <time>2022-06-02T02:27:04.000Z</time>
      </trkpt>
      <trkpt lat="45.19775" lon="5.73065">
        <ele>232.19999694824</ele>
        <time>2022-06-02T02:27:05.000Z</time>
      </trkpt>
      <trkpt lat="45.19776" lon="5.73065">
        <ele>232.60000610352</ele>
        <time>2022-06-02T02:27:06.000Z</time>
      </trkpt>
      <trkpt lat="45.19776" lon="5.73065">
        <ele>232.80000305176</ele>
        <time>2022-06-02T02:27:07.000Z</time>
      </trkpt>
      <trkpt lat="45.19778" lon="5.73065">
        <ele>233</ele>
        <time>2022-06-02T02:27:08.000Z</time>
      </trkpt>
      <trkpt lat="45.1978" lon="5.73066">
        <ele>233</ele>
        <time>2022-06-02T02:27:09.000Z</time>
      </trkpt>
      <trkpt lat="45.19781" lon="5.73066">
        <ele>233.39999389648</ele>
        <time>2022-06-02T02:27:10.000Z</time>
      </trkpt>
      <trkpt lat="45.19783" lon="5.73067">
        <ele>233.80000305176</ele>
        <time>2022-06-02T02:27:11.000Z</time>
      </trkpt>
      <trkpt lat="45.19785" lon="5.73067">
        <ele>233.60000610352</ele>
        <time>2022-06-02T02:27:12.000Z</time>
      </trkpt>
      <trkpt lat="45.19786" lon="5.73068">
        <ele>234</ele>
        <time>2022-06-02T02:27:13.000Z</time>
      </trkpt>
      <trkpt lat="45.19788" lon="5.73069">
        <ele>234.19999694824</ele>
        <time>2022-06-02T02:27:14.000Z</time>
      </trkpt>
      <trkpt lat="45.1979" lon="5.73069">
        <ele>234.19999694824</ele>
        <time>2022-06-02T02:27:15.000Z</time>
      </trkpt>
      <trkpt lat="45.19792" lon="5.7307">
        <ele>234.39999389648</ele>
        <time>2022-06-02T02:27:16.000Z</time>
      </trkpt>
      <trkpt lat="45.19794" lon="5.73071">
        <ele>234.19999694824</ele>
        <time>2022-06-02T02:27:17.000Z</time>
      </trkpt>
      <trkpt lat="45.19795" lon="5.73071">
        <ele>234.60000610352</ele>
        <time>2022-06-02T02:27:18.000Z</time>
      </trkpt>
      <trkpt lat="45.19796" lon="5.73071">
        <ele>234.80000305176</ele>
        <time>2022-06-02T02:27:19.000Z</time>
      </trkpt>
      <trkpt lat="45.19797" lon="5.73069">
        <ele>234.80000305176</ele>
        <time>2022-06-02T02:27:20.000Z</time>
      </trkpt>
      <trkpt lat="45.19797" lon="5.73068">
        <ele>235.39999389648</ele>
        <time>2022-06-02T02:27:21.000Z</time>
      </trkpt>
      <trkpt lat="45.19796" lon="5.73065">
        <ele>235.60000610352</ele>
        <time>2022-06-02T02:27:22.000Z</time>
      </trkpt>
      <trkpt lat="45.19794" lon="5.73064">
        <ele>235.19999694824</ele>
        <time>2022-06-02T02:27:23.000Z</time>
      </trkpt>
      <trkpt lat="45.19793" lon="5.73063">
        <ele>235.39999389648</ele>
        <time>2022-06-02T02:27:24.000Z</time>
      </trkpt>
      <trkpt lat="45.19792" lon="5.73062">
        <ele>235.39999389648</ele>
        <time>2022-06-02T02:27:25.000Z</time>
      </trkpt>
      <trkpt lat="45.1979" lon="5.73061">
        <ele>235.80000305176</ele>
        <time>2022-06-02T02:27:26.000Z</time>
      </trkpt>
      <trkpt lat="45.19788" lon="5.7306">
        <ele>236.19999694824</ele>
        <time>2022-06-02T02:27:27.000Z</time>
      </trkpt>
      <trkpt lat="45.19787" lon="5.7306">
        <ele>236.19999694824</ele>
        <time>2022-06-02T02:27:28.000Z</time>
      </trkpt>
      <trkpt lat="45.19785" lon="5.73059">
        <ele>236.80000305176</ele>
        <time>2022-06-02T02:27:29.000Z</time>
      </trkpt>
      <trkpt lat="45.19783" lon="5.73059">
        <ele>236.80000305176</ele>
        <time>2022-06-02T02:27:30.000Z</time>
      </trkpt>
      <trkpt lat="45.19782" lon="5.73058">
        <ele>236.80000305176</ele>
        <time>2022-06-02T02:27:31.000Z</time>
      </trkpt>
      <trkpt lat="45.1978" lon="5.73057">
        <ele>237</ele>
        <time>2022-06-02T02:27:32.000Z</time>
      </trkpt>
      <trkpt lat="45.19778" lon="5.73056">
        <ele>237.19999694824</ele>
        <time>2022-06-02T02:27:33.000Z</time>
      </trkpt>
      <trkpt lat="45.19777" lon="5.73055">
        <ele>237.19999694824</ele>
        <time>2022-06-02T02:27:34.000Z</time>
      </trkpt>
      <trkpt lat="45.19775" lon="5.73055">
        <ele>237.60000610352</ele>
        <time>2022-06-02T02:27:35.000Z</time>
      </trkpt>
      <trkpt lat="45.19773" lon="5.73053">
        <ele>238</ele>
        <time>2022-06-02T02:27:36.000Z</time>
      </trkpt>
      <trkpt lat="45.19772" lon="5.73052">
        <ele>238</ele>
        <time>2022-06-02T02:27:37.000Z</time>
      </trkpt>
      <trkpt lat="45.1977" lon="5.73051">
        <ele>238</ele>
        <time>2022-06-02T02:27:38.000Z</time>
      </trkpt>
      <trkpt lat="45.19768" lon="5.7305">
        <ele>238.39999389648</ele>
        <time>2022-06-02T02:27:39.000Z</time>
      </trkpt>
      <trkpt lat="45.19766" lon="5.73048">
        <ele>239</ele>
        <time>2022-06-02T02:27:40.000Z</time>
      </trkpt>
      <trkpt lat="45.19764" lon="5.73047">
        <ele>239</ele>
        <time>2022-06-02T02:27:41.000Z</time>
      </trkpt>
      <trkpt lat="45.19762" lon="5.73047">
        <ele>239.19999694824</ele>
        <time>2022-06-02T02:27:42.000Z</time>
      </trkpt>
      <trkpt lat="45.19761" lon="5.73045">
        <ele>239.19999694824</ele>
        <time>2022-06-02T02:27:43.000Z</time>
      </trkpt>
      <trkpt lat="45.19759" lon="5.73044">
        <ele>239.80000305176</ele>
        <time>2022-06-02T02:27:44.000Z</time>
      </trkpt>
      <trkpt lat="45.19757" lon="5.73042">
        <ele>240</ele>
        <time>2022-06-02T02:27:45.000Z</time>
      </trkpt>
      <trkpt lat="45.19755" lon="5.7304">
        <ele>240.19999694824</ele>
        <time>2022-06-02T02:27:46.000Z</time>
      </trkpt>
      <trkpt lat="45.19754" lon="5.73039">
        <ele>240.39999389648</ele>
        <time>2022-06-02T02:27:47.000Z</time>
      </trkpt>
      <trkpt lat="45.19753" lon="5.73037">
        <ele>240.39999389648</ele>
        <time>2022-06-02T02:27:48.000Z</time>
      </trkpt>
      <trkpt lat="45.19752" lon="5.73035">
        <ele>240.19999694824</ele>
        <time>2022-06-02T02:27:49.000Z</time>
      </trkpt>
      <trkpt lat="45.19752" lon="5.73034">
        <ele>240.39999389648</ele>
        <time>2022-06-02T02:27:50.000Z</time>
      </trkpt>
      <trkpt lat="45.19753" lon="5.73033">
        <ele>240.60000610352</ele>
        <time>2022-06-02T02:27:51.000Z</time>
      </trkpt>
      <trkpt lat="45.19754" lon="5.73032">
        <ele>240.60000610352</ele>
        <time>2022-06-02T02:27:52.000Z</time>
      </trkpt>
      <trkpt lat="45.19755" lon="5.73033">
        <ele>241</ele>
        <time>2022-06-02T02:27:53.000Z</time>
      </trkpt>
      <trkpt lat="45.19757" lon="5.73033">
        <ele>240.80000305176</ele>
        <time>2022-06-02T02:27:54.000Z</time>
      </trkpt>
      <trkpt lat="45.19757" lon="5.73034">
        <ele>241.39999389648</ele>
        <time>2022-06-02T02:27:55.000Z</time>
      </trkpt>
      <trkpt lat="45.19759" lon="5.73034">
        <ele>241.60000610352</ele>
        <time>2022-06-02T02:27:56.000Z</time>
      </trkpt>
      <trkpt lat="45.1976" lon="5.73034">
        <ele>241.60000610352</ele>
        <time>2022-06-02T02:27:57.000Z</time>
      </trkpt>
      <trkpt lat="45.19761" lon="5.73035">
        <ele>241.80000305176</ele>
        <time>2022-06-02T02:27:58.000Z</time>
      </trkpt>
      <trkpt lat="45.19763" lon="5.73036">
        <ele>242</ele>
        <time>2022-06-02T02:27:59.000Z</time>
      </trkpt>
      <trkpt lat="45.19764" lon="5.73036">
        <ele>242</ele>
        <time>2022-06-02T02:28:00.000Z</time>
      </trkpt>
      <trkpt lat="45.19765" lon="5.73036">
        <ele>242.39999389648</ele>
        <time>2022-06-02T02:28:01.000Z</time>
      </trkpt>
      <trkpt lat="45.19767" lon="5.73037">
        <ele>242.60000610352</ele>
        <time>2022-06-02T02:28:02.000Z</time>
      </trkpt>
      <trkpt lat="45.19768" lon="5.73037">
        <ele>242.39999389648</ele>
        <time>2022-06-02T02:28:03.000Z</time>
      </trkpt>
      <trkpt lat="45.1977" lon="5.73037">
        <ele>243</ele>
        <time>2022-06-02T02:28:04.000Z</time>
      </trkpt>
      <trkpt lat="45.19772" lon="5.73038">
        <ele>243.19999694824</ele>
        <time>2022-06-02T02:28:05.000Z</time>
      </trkpt>
      <trkpt lat="45.19774" lon="5.73039">
        <ele>243.19999694824</ele>
        <time>2022-06-02T02:28:06.000Z</time>
      </trkpt>
      <trkpt lat="45.19776" lon="5.7304">
        <ele>243.39999389648</ele>
        <time>2022-06-02T02:28:07.000Z</time>
      </trkpt>
      <trkpt lat="45.19778" lon="5.73041">
        <ele>243.80000305176</ele>
        <time>2022-06-02T02:28:08.000Z</time>
      </trkpt>
      <trkpt lat="45.19779" lon="5.73041">
        <ele>243.60000610352</ele>
        <time>2022-06-02T02:28:09.000Z</time>
      </trkpt>
      <trkpt lat="45.19781" lon="5.73041">
        <ele>244</ele>
        <time>2022-06-02T02:28:10.000Z</time>
      </trkpt>
      <trkpt lat="45.19782" lon="5.73042">
        <ele>244.60000610352</ele>
        <time>2022-06-02T02:28:11.000Z</time>
      </trkpt>
      <trkpt lat="45.19784" lon="5.73042">
        <ele>244.80000305176</ele>
        <time>2022-06-02T02:28:12.000Z</time>
      </trkpt>
      <trkpt lat="45.19786" lon="5.73041">
        <ele>245</ele>
        <time>2022-06-02T02:28:13.000Z</time>
      </trkpt>
      <trkpt lat="45.19788" lon="5.73041">
        <ele>245.19999694824</ele>
        <time>2022-06-02T02:28:14.000Z</time>
      </trkpt>
      <trkpt lat="45.1979" lon="5.73041">
        <ele>244.80000305176</ele>
        <time>2022-06-02T02:28:15.000Z</time>
      </trkpt>
      <trkpt lat="45.19792" lon="5.73042">
        <ele>245.39999389648</ele>
        <time>2022-06-02T02:28:16.000Z</time>
      </trkpt>
      <trkpt lat="45.19794" lon="5.73043">
        <ele>246</ele>
        <time>2022-06-02T02:28:17.000Z</time>
      </trkpt>
      <trkpt lat="45.19796" lon="5.73043">
        <ele>245.80000305176</ele>
        <time>2022-06-02T02:28:18.000Z</time>
      </trkpt>
      <trkpt lat="45.19797" lon="5.73044">
        <ele>246</ele>
        <time>2022-06-02T02:28:19.000Z</time>
      </trkpt>
      <trkpt lat="45.19799" lon="5.73045">
        <ele>246.39999389648</ele>
        <time>2022-06-02T02:28:20.000Z</time>
      </trkpt>
      <trkpt lat="45.198" lon="5.73046">
        <ele>246.60000610352</ele>
        <time>2022-06-02T02:28:21.000Z</time>
      </trkpt>
      <trkpt lat="45.19801" lon="5.73047">
        <ele>246.80000305176</ele>
        <time>2022-06-02T02:28:22.000Z</time>
      </trkpt>
      <trkpt lat="45.19803" lon="5.73048">
        <ele>247.19999694824</ele>
        <time>2022-06-02T02:28:23.000Z</time>
      </trkpt>
      <trkpt lat="45.19805" lon="5.73048">
        <ele>247.19999694824</ele>
        <time>2022-06-02T02:28:24.000Z</time>
      </trkpt>
      <trkpt lat="45.19805" lon="5.73047">
        <ele>247</ele>
        <time>2022-06-02T02:28:25.000Z</time>
      </trkpt>
      <trkpt lat="45.19806" lon="5.73045">
        <ele>247.19999694824</ele>
        <time>2022-06-02T02:28:26.000Z</time>
      </trkpt>
      <trkpt lat="45.19806" lon="5.73044">
        <ele>247.39999389648</ele>
        <time>2022-06-02T02:28:27.000Z</time>
      </trkpt>
      <trkpt lat="45.19805" lon="5.73043">
        <ele>247.39999389648</ele>
        <time>2022-06-02T02:28:28.000Z</time>
      </trkpt>
      <trkpt lat="45.19803" lon="5.73043">
        <ele>247.80000305176</ele>
        <time>2022-06-02T02:28:29.000Z</time>
      </trkpt>
      <trkpt lat="45.19802" lon="5.73042">
        <ele>247.39999389648</ele>
        <time>2022-06-02T02:28:30.000Z</time>
      </trkpt>
      <trkpt lat="45.198" lon="5.73042">
        <ele>248</ele>
        <time>2022-06-02T02:28:31.000Z</time>
      </trkpt>
      <trkpt lat="45.19799" lon="5.73041">
        <ele>248.39999389648</ele>
        <time>2022-06-02T02:28:32.000Z</time>
      </trkpt>
      <trkpt lat="45.19797" lon="5.7304">
        <ele>248.60000610352</ele>
        <time>2022-06-02T02:28:33.000Z</time>
      </trkpt>
      <trkpt lat="45.19796" lon="5.7304">
        <ele>248.80000305176</ele>
        <time>2022-06-02T02:28:34.000Z</time>
      </trkpt>
      <trkpt lat="45.19794" lon="5.73039">
        <ele>248.80000305176</ele>
        <time>2022-06-02T02:28:35.000Z</time>
      </trkpt>
      <trkpt lat="45.19793" lon="5.73038">
        <ele>249.19999694824</ele>
        <time>2022-06-02T02:28:36.000Z</time>
      </trkpt>
      <trkpt lat="45.19791" lon="5.73037">
        <ele>249.19999694824</ele>
        <time>2022-06-02T02:28:37.000Z</time>
      </trkpt>
      <trkpt lat="45.19789" lon="5.73037">
        <ele>249.60000610352</ele>
        <time>2022-06-02T02:28:38.000Z</time>
      </trkpt>
      <trkpt lat="45.19787" lon="5.73036">
        <ele>249.19999694824</ele>
        <time>2022-06-02T02:28:39.000Z</time>
      </trkpt>
      <trkpt lat="45.19785" lon="5.73035">
        <ele>249.60000610352</ele>
        <time>2022-06-02T02:28:40.000Z</time>
      </trkpt>
      <trkpt lat="45.19784" lon="5.73034">
        <ele>250.19999694824</ele>
        <time>2022-06-02T02:28:41.000Z</time>
      </trkpt>
      <trkpt lat="45.19782" lon="5.73034">
        <ele>250.19999694824</ele>
        <time>2022-06-02T02:28:42.000Z</time>
      </trkpt>
      <trkpt lat="45.1978" lon="5.73033">
        <ele>250.19999694824</ele>
        <time>2022-06-02T02:28:43.000Z</time>
      </trkpt>
      <trkpt lat="45.19778" lon="5.73032">
        <ele>250.60000610352</ele>
        <time>2022-06-02T02:28:44.000Z</time>
      </trkpt>
      <trkpt lat="45.19777" lon="5.7303">
        <ele>250.80000305176</ele>
        <time>2022-06-02T02:28:45.000Z</time>
      </trkpt>
      <trkpt lat="45.19775" lon="5.73029">
        <ele>251</ele>
        <time>2022-06-02T02:28:46.000Z</time>
      </trkpt>
      <trkpt lat="45.19773" lon="5.73028">
        <ele>251.19999694824</ele>
        <time>2022-06-02T02:28:47.000Z</time>
      </trkpt>
      <trkpt lat="45.19771" lon="5.73027">
        <ele>250.80000305176</ele>
        <time>2022-06-02T02:28:48.000Z</time>
      </trkpt>
      <trkpt lat="45.19769" lon="5.73025">
        <ele>251.19999694824</ele>
        <time>2022-06-02T02:28:49.000Z</time>
      </trkpt>
      <trkpt lat="45.19767" lon="5.73024">
        <ele>251.39999389648</ele>
        <time>2022-06-02T02:28:50.000Z</time>
      </trkpt>
      <trkpt lat="45.19765" lon="5.73023">
        <ele>251.60000610352</ele>
        <time>2022-06-02T02:28:51.000Z</time>
      </trkpt>
      <trkpt lat="45.19763" lon="5.73021">
        <ele>251.80000305176</ele>
        <time>2022-06-02T02:28:52.000Z</time>
      </trkpt>
      <trkpt lat="45.19762" lon="5.73019">
        <ele>252</ele>
        <time>2022-06-02T02:28:53.000Z</time>
      </trkpt>
      <trkpt lat="45.19761" lon="5.73018">
        <ele>251.80000305176</ele>
        <time>2022-06-02T02:28:54.000Z</time>
      </trkpt>
      <trkpt lat="45.19762" lon="5.73016">
        <ele>252</ele>
        <time>2022-06-02T02:28:55.000Z</time>
      </trkpt>
      <trkpt lat="45.19763" lon="5.73015">
        <ele>252</ele>
        <time>2022-06-02T02:28:56.000Z</time>
      </trkpt>
      <trkpt lat="45.19765" lon="5.73014">
        <ele>252.19999694824</ele>
        <time>2022-06-02T02:28:57.000Z</time>
      </trkpt>
      <trkpt lat="45.19767" lon="5.73013">
        <ele>252.60000610352</ele>
        <time>2022-06-02T02:28:58.000Z</time>
      </trkpt>
      <trkpt lat="45.19769" lon="5.73013">
        <ele>252.60000610352</ele>
        <time>2022-06-02T02:28:59.000Z</time>
      </trkpt>
      <trkpt lat="45.19771" lon="5.73014">
        <ele>253.19999694824</ele>
        <time>2022-06-02T02:29:00.000Z</time>
      </trkpt>
      <trkpt lat="45.19773" lon="5.73015">
        <ele>253.39999389648</ele>
        <time>2022-06-02T02:29:01.000Z</time>
      </trkpt>
      <trkpt lat="45.19774" lon="5.73016">
        <ele>253</ele>
        <time>2022-06-02T02:29:02.000Z</time>
      </trkpt>
      <trkpt lat="45.19776" lon="5.73016">
        <ele>253</ele>
        <time>2022-06-02T02:29:03.000Z</time>
      </trkpt>
      <trkpt lat="45.19778" lon="5.73017">
        <ele>253</ele>
        <time>2022-06-02T02:29:04.000Z</time>
      </trkpt>
      <trkpt lat="45.19779" lon="5.73018">
        <ele>253.80000305176</ele>
        <time>2022-06-02T02:29:05.000Z</time>
      </trkpt>
      <trkpt lat="45.19781" lon="5.73019">
        <ele>254.39999389648</ele>
        <time>2022-06-02T02:29:06.000Z</time>
      </trkpt>
      <trkpt lat="45.19783" lon="5.73019">
        <ele>254.60000610352</ele>
        <time>2022-06-02T02:29:07.000Z</time>
      </trkpt>
      <trkpt lat="45.19785" lon="5.7302">
        <ele>254.19999694824</ele>
        <time>2022-06-02T02:29:08.000Z</time>
      </trkpt>
      <trkpt lat="45.19787" lon="5.73021">
        <ele>254.19999694824</ele>
        <time>2022-06-02T02:29:09.000Z</time>
      </trkpt>
      <trkpt lat="45.19788" lon="5.73021">
        <ele>254.60000610352</ele>
        <time>2022-06-02T02:29:10.000Z</time>
      </trkpt>
      <trkpt lat="45.1979" lon="5.73021">
        <ele>254.80000305176</ele>
        <time>2022-06-02T02:29:11.000Z</time>
      </trkpt>
      <trkpt lat="45.19792" lon="5.73022">
        <ele>254.80000305176</ele>
        <time>2022-06-02T02:29:12.000Z</time>
      </trkpt>
      <trkpt lat="45.19794" lon="5.73023">
        <ele>255.19999694824</ele>
        <time>2022-06-02T02:29:13.000Z</time>
      </trkpt>
      <trkpt lat="45.19796" lon="5.73024">
        <ele>255.19999694824</ele>
        <time>2022-06-02T02:29:14.000Z</time>
      </trkpt>
      <trkpt lat="45.19798" lon="5.73025">
        <ele>255.60000610352</ele>
        <time>2022-06-02T02:29:15.000Z</time>
      </trkpt>
      <trkpt lat="45.198" lon="5.73025">
        <ele>255.80000305176</ele>
        <time>2022-06-02T02:29:16.000Z</time>
      </trkpt>
      <trkpt lat="45.19801" lon="5.73026">
        <ele>256.20001220703</ele>
        <time>2022-06-02T02:29:17.000Z</time>
      </trkpt>
      <trkpt lat="45.19802" lon="5.73027">
        <ele>256</ele>
        <time>2022-06-02T02:29:18.000Z</time>
      </trkpt>
      <trkpt lat="45.19804" lon="5.73028">
        <ele>256</ele>
        <time>2022-06-02T02:29:19.000Z</time>
      </trkpt>
      <trkpt lat="45.19805" lon="5.73029">
        <ele>256.60000610352</ele>
        <time>2022-06-02T02:29:20.000Z</time>
      </trkpt>
      <trkpt lat="45.19807" lon="5.7303">
        <ele>256.60000610352</ele>
        <time>2022-06-02T02:29:21.000Z</time>
      </trkpt>
      <trkpt lat="45.19809" lon="5.7303">
        <ele>257.20001220703</ele>
        <time>2022-06-02T02:29:22.000Z</time>
      </trkpt>
      <trkpt lat="45.19811" lon="5.73032">
        <ele>257</ele>
        <time>2022-06-02T02:29:23.000Z</time>
      </trkpt>
      <trkpt lat="45.19813" lon="5.73033">
        <ele>256.79998779297</ele>
        <time>2022-06-02T02:29:24.000Z</time>
      </trkpt>
      <trkpt lat="45.19816" lon="5.73035">
        <ele>256.60000610352</ele>
        <time>2022-06-02T02:29:25.000Z</time>
      </trkpt>
      <trkpt lat="45.19818" lon="5.73037">
        <ele>256.60000610352</ele>
        <time>2022-06-02T02:29:26.000Z</time>
      </trkpt>
      <trkpt lat="45.1982" lon="5.73039">
        <ele>256.60000610352</ele>
        <time>2022-06-02T02:29:27.000Z</time>
      </trkpt>
      <trkpt lat="45.19822" lon="5.73041">
        <ele>256.39999389648</ele>
        <time>2022-06-02T02:29:28.000Z</time>
      </trkpt>
      <trkpt lat="45.19823" lon="5.73043">
        <ele>256.39999389648</ele>
        <time>2022-06-02T02:29:29.000Z</time>
      </trkpt>
      <trkpt lat="45.19825" lon="5.73045">
        <ele>256.20001220703</ele>
        <time>2022-06-02T02:29:30.000Z</time>
      </trkpt>
      <trkpt lat="45.19827" lon="5.73046">
        <ele>256</ele>
        <time>2022-06-02T02:29:31.000Z</time>
      </trkpt>
      <trkpt lat="45.19828" lon="5.73048">
        <ele>256</ele>
        <time>2022-06-02T02:29:32.000Z</time>
      </trkpt>
      <trkpt lat="45.19829" lon="5.73048">
        <ele>256.20001220703</ele>
        <time>2022-06-02T02:29:33.000Z</time>
      </trkpt>
      <trkpt lat="45.19829" lon="5.73047">
        <ele>256</ele>
        <time>2022-06-02T02:29:34.000Z</time>
      </trkpt>
      <trkpt lat="45.19827" lon="5.73046">
        <ele>256.20001220703</ele>
        <time>2022-06-02T02:29:35.000Z</time>
      </trkpt>
      <trkpt lat="45.19825" lon="5.73044">
        <ele>256.20001220703</ele>
        <time>2022-06-02T02:29:36.000Z</time>
      </trkpt>
      <trkpt lat="45.19823" lon="5.73041">
        <ele>256.20001220703</ele>
        <time>2022-06-02T02:29:37.000Z</time>
      </trkpt>
      <trkpt lat="45.19822" lon="5.7304">
        <ele>256.20001220703</ele>
        <time>2022-06-02T02:29:38.000Z</time>
      </trkpt>
      <trkpt lat="45.1982" lon="5.73037">
        <ele>256.20001220703</ele>
        <time>2022-06-02T02:29:39.000Z</time>
      </trkpt>
      <trkpt lat="45.19819" lon="5.73036">
        <ele>256.39999389648</ele>
        <time>2022-06-02T02:29:40.000Z</time>
      </trkpt>
      <trkpt lat="45.19817" lon="5.73033">
        <ele>256.79998779297</ele>
        <time>2022-06-02T02:29:41.000Z</time>
      </trkpt>
      <trkpt lat="45.19816" lon="5.73031">
        <ele>257.20001220703</ele>
        <time>2022-06-02T02:29:42.000Z</time>
      </trkpt>
      <trkpt lat="45.19814" lon="5.73029">
        <ele>257.20001220703</ele>
        <time>2022-06-02T02:29:43.000Z</time>
      </trkpt>
      <trkpt lat="45.19813" lon="5.73027">
        <ele>257.39999389648</ele>
        <time>2022-06-02T02:29:44.000Z</time>
      </trkpt>
      <trkpt lat="45.19812" lon="5.73026">
        <ele>257.39999389648</ele>
        <time>2022-06-02T02:29:45.000Z</time>
      </trkpt>
      <trkpt lat="45.1981" lon="5.73024">
        <ele>258</ele>
        <time>2022-06-02T02:29:46.000Z</time>
      </trkpt>
      <trkpt lat="45.19809" lon="5.73024">
        <ele>258.39999389648</ele>
        <time>2022-06-02T02:29:47.000Z</time>
      </trkpt>
      <trkpt lat="45.19808" lon="5.73023">
        <ele>257.79998779297</ele>
        <time>2022-06-02T02:29:48.000Z</time>
      </trkpt>
      <trkpt lat="45.19806" lon="5.73022">
        <ele>258.39999389648</ele>
        <time>2022-06-02T02:29:49.000Z</time>
      </trkpt>
      <trkpt lat="45.19804" lon="5.73022">
        <ele>258.20001220703</ele>
        <time>2022-06-02T02:29:50.000Z</time>
      </trkpt>
      <trkpt lat="45.19802" lon="5.73021">
        <ele>258.39999389648</ele>
        <time>2022-06-02T02:29:51.000Z</time>
      </trkpt>
      <trkpt lat="45.198" lon="5.7302">
        <ele>258.79998779297</ele>
        <time>2022-06-02T02:29:52.000Z</time>
      </trkpt>
      <trkpt lat="45.19799" lon="5.73019">
        <ele>258.79998779297</ele>
        <time>2022-06-02T02:29:53.000Z</time>
      </trkpt>
      <trkpt lat="45.19797" lon="5.73018">
        <ele>259.39999389648</ele>
        <time>2022-06-02T02:29:54.000Z</time>
      </trkpt>
      <trkpt lat="45.19795" lon="5.73018">
        <ele>259.79998779297</ele>
        <time>2022-06-02T02:29:55.000Z</time>
      </trkpt>
      <trkpt lat="45.19792" lon="5.73017">
        <ele>259.79998779297</ele>
        <time>2022-06-02T02:29:56.000Z</time>
      </trkpt>
      <trkpt lat="45.1979" lon="5.73015">
        <ele>260</ele>
        <time>2022-06-02T02:29:57.000Z</time>
      </trkpt>
      <trkpt lat="45.19788" lon="5.73013">
        <ele>260.39999389648</ele>
        <time>2022-06-02T02:29:58.000Z</time>
      </trkpt>
      <trkpt lat="45.19786" lon="5.73012">
        <ele>260.20001220703</ele>
        <time>2022-06-02T02:29:59.000Z</time>
      </trkpt>
      <trkpt lat="45.19784" lon="5.7301">
        <ele>260.39999389648</ele>
        <time>2022-06-02T02:30:00.000Z</time>
      </trkpt>
      <trkpt lat="45.19782" lon="5.73008">
        <ele>260.39999389648</ele>
        <time>2022-06-02T02:30:01.000Z</time>
      </trkpt>
      <trkpt lat="45.19781" lon="5.73006">
        <ele>260.79998779297</ele>
        <time>2022-06-02T02:30:02.000Z</time>
      </trkpt>
      <trkpt lat="45.19779" lon="5.73004">
        <ele>261</ele>
        <time>2022-06-02T02:30:03.000Z</time>
      </trkpt>
      <trkpt lat="45.19778" lon="5.73002">
        <ele>261.20001220703</ele>
        <time>2022-06-02T02:30:04.000Z</time>
      </trkpt>
      <trkpt lat="45.19776" lon="5.73001">
        <ele>261.20001220703</ele>
        <time>2022-06-02T02:30:05.000Z</time>
      </trkpt>
      <trkpt lat="45.19775" lon="5.72999">
        <ele>261.60000610352</ele>
        <time>2022-06-02T02:30:06.000Z</time>
      </trkpt>
      <trkpt lat="45.19773" lon="5.72997">
        <ele>262</ele>
        <time>2022-06-02T02:30:07.000Z</time>
      </trkpt>
      <trkpt lat="45.19772" lon="5.72996">
        <ele>262</ele>
        <time>2022-06-02T02:30:08.000Z</time>
      </trkpt>
      <trkpt lat="45.1977" lon="5.72994">
        <ele>262.39999389648</ele>
        <time>2022-06-02T02:30:09.000Z</time>
      </trkpt>
      <trkpt lat="45.19769" lon="5.72992">
        <ele>262.39999389648</ele>
        <time>2022-06-02T02:30:10.000Z</time>
      </trkpt>
      <trkpt lat="45.19767" lon="5.7299">
        <ele>262.79998779297</ele>
        <time>2022-06-02T02:30:11.000Z</time>
      </trkpt>
      <trkpt lat="45.19766" lon="5.72989">
        <ele>263</ele>
        <time>2022-06-02T02:30:12.000Z</time>
      </trkpt>
      <trkpt lat="45.19764" lon="5.72987">
        <ele>263.20001220703</ele>
        <time>2022-06-02T02:30:13.000Z</time>
      </trkpt>
      <trkpt lat="45.19763" lon="5.72985">
        <ele>263.39999389648</ele>
        <time>2022-06-02T02:30:14.000Z</time>
      </trkpt>
      <trkpt lat="45.19761" lon="5.72984">
        <ele>263.79998779297</ele>
        <time>2022-06-02T02:30:15.000Z</time>
      </trkpt>
      <trkpt lat="45.1976" lon="5.72981">
        <ele>263.79998779297</ele>
        <time>2022-06-02T02:30:16.000Z</time>
      </trkpt>
      <trkpt lat="45.19758" lon="5.72979">
        <ele>263.79998779297</ele>
        <time>2022-06-02T02:30:17.000Z</time>
      </trkpt>
      <trkpt lat="45.19757" lon="5.72976">
        <ele>263.79998779297</ele>
        <time>2022-06-02T02:30:18.000Z</time>
      </trkpt>
      <trkpt lat="45.19755" lon="5.72974">
        <ele>264.20001220703</ele>
        <time>2022-06-02T02:30:19.000Z</time>
      </trkpt>
      <trkpt lat="45.19754" lon="5.72972">
        <ele>264.39999389648</ele>
        <time>2022-06-02T02:30:20.000Z</time>
      </trkpt>
      <trkpt lat="45.19753" lon="5.7297">
        <ele>264.60000610352</ele>
        <time>2022-06-02T02:30:21.000Z</time>
      </trkpt>
      <trkpt lat="45.19751" lon="5.72968">
        <ele>265</ele>
        <time>2022-06-02T02:30:22.000Z</time>
      </trkpt>
      <trkpt lat="45.19749" lon="5.72966">
        <ele>265.20001220703</ele>
        <time>2022-06-02T02:30:23.000Z</time>
      </trkpt>
      <trkpt lat="45.19748" lon="5.72964">
        <ele>265.39999389648</ele>
        <time>2022-06-02T02:30:24.000Z</time>
      </trkpt>
      <trkpt lat="45.19747" lon="5.72961">
        <ele>265.39999389648</ele>
        <time>2022-06-02T02:30:25.000Z</time>
      </trkpt>
      <trkpt lat="45.19745" lon="5.72959">
        <ele>265.60000610352</ele>
        <time>2022-06-02T02:30:26.000Z</time>
      </trkpt>
      <trkpt lat="45.19744" lon="5.72957">
        <ele>265.60000610352</ele>
        <time>2022-06-02T02:30:27.000Z</time>
      </trkpt>
      <trkpt lat="45.19743" lon="5.72954">
        <ele>266.39999389648</ele>
        <time>2022-06-02T02:30:28.000Z</time>
      </trkpt>
      <trkpt lat="45.19742" lon="5.72952">
        <ele>266.39999389648</ele>
        <time>2022-06-02T02:30:29.000Z</time>
      </trkpt>
      <trkpt lat="45.19741" lon="5.7295">
        <ele>266.39999389648</ele>
        <time>2022-06-02T02:30:30.000Z</time>
      </trkpt>
      <trkpt lat="45.19739" lon="5.72948">
        <ele>267</ele>
        <time>2022-06-02T02:30:31.000Z</time>
      </trkpt>
      <trkpt lat="45.19738" lon="5.72946">
        <ele>267.20001220703</ele>
        <time>2022-06-02T02:30:32.000Z</time>
      </trkpt>
      <trkpt lat="45.19736" lon="5.72944">
        <ele>267.79998779297</ele>
        <time>2022-06-02T02:30:33.000Z</time>
      </trkpt>
      <trkpt lat="45.19734" lon="5.72942">
        <ele>268.20001220703</ele>
        <time>2022-06-02T02:30:34.000Z</time>
      </trkpt>
      <trkpt lat="45.19733" lon="5.7294">
        <ele>268.39999389648</ele>
        <time>2022-06-02T02:30:35.000Z</time>
      </trkpt>
      <trkpt lat="45.19732" lon="5.72938">
        <ele>268.39999389648</ele>
        <time>2022-06-02T02:30:36.000Z</time>
      </trkpt>
      <trkpt lat="45.1973" lon="5.72936">
        <ele>268.39999389648</ele>
        <time>2022-06-02T02:30:37.000Z</time>
      </trkpt>
      <trkpt lat="45.1973" lon="5.72933">
        <ele>268.60000610352</ele>
        <time>2022-06-02T02:30:38.000Z</time>
      </trkpt>
      <trkpt lat="45.19728" lon="5.72931">
        <ele>268.60000610352</ele>
        <time>2022-06-02T02:30:39.000Z</time>
      </trkpt>
      <trkpt lat="45.19727" lon="5.72928">
        <ele>269.20001220703</ele>
        <time>2022-06-02T02:30:40.000Z</time>
      </trkpt>
      <trkpt lat="45.19726" lon="5.72926">
        <ele>269.39999389648</ele>
        <time>2022-06-02T02:30:41.000Z</time>
      </trkpt>
      <trkpt lat="45.19725" lon="5.72923">
        <ele>269.39999389648</ele>
        <time>2022-06-02T02:30:42.000Z</time>
      </trkpt>
      <trkpt lat="45.19724" lon="5.72921">
        <ele>269.60000610352</ele>
        <time>2022-06-02T02:30:43.000Z</time>
      </trkpt>
      <trkpt lat="45.19723" lon="5.72919">
        <ele>269.60000610352</ele>
        <time>2022-06-02T02:30:44.000Z</time>
      </trkpt>
      <trkpt lat="45.19721" lon="5.72917">
        <ele>269.60000610352</ele>
        <time>2022-06-02T02:30:45.000Z</time>
      </trkpt>
      <trkpt lat="45.1972" lon="5.72916">
        <ele>270.39999389648</ele>
        <time>2022-06-02T02:30:46.000Z</time>
      </trkpt>
      <trkpt lat="45.19719" lon="5.72914">
        <ele>270.39999389648</ele>
        <time>2022-06-02T02:30:47.000Z</time>
      </trkpt>
      <trkpt lat="45.19718" lon="5.72912">
        <ele>270.60000610352</ele>
        <time>2022-06-02T02:30:48.000Z</time>
      </trkpt>
      <trkpt lat="45.19717" lon="5.7291">
        <ele>270.79998779297</ele>
        <time>2022-06-02T02:30:49.000Z</time>
      </trkpt>
      <trkpt lat="45.19716" lon="5.72908">
        <ele>271.20001220703</ele>
        <time>2022-06-02T02:30:50.000Z</time>
      </trkpt>
      <trkpt lat="45.19715" lon="5.72907">
        <ele>271.39999389648</ele>
        <time>2022-06-02T02:30:51.000Z</time>
      </trkpt>
      <trkpt lat="45.19713" lon="5.72904">
        <ele>271.60000610352</ele>
        <time>2022-06-02T02:30:52.000Z</time>
      </trkpt>
      <trkpt lat="45.19713" lon="5.72901">
        <ele>271.79998779297</ele>
        <time>2022-06-02T02:30:53.000Z</time>
      </trkpt>
      <trkpt lat="45.19712" lon="5.729">
        <ele>272</ele>
        <time>2022-06-02T02:30:54.000Z</time>
      </trkpt>
      <trkpt lat="45.1971" lon="5.72897">
        <ele>272</ele>
        <time>2022-06-02T02:30:55.000Z</time>
      </trkpt>
      <trkpt lat="45.19709" lon="5.72895">
        <ele>272</ele>
        <time>2022-06-02T02:30:56.000Z</time>
      </trkpt>
      <trkpt lat="45.19708" lon="5.72894">
        <ele>272.39999389648</ele>
        <time>2022-06-02T02:30:57.000Z</time>
      </trkpt>
      <trkpt lat="45.19706" lon="5.72892">
        <ele>272.60000610352</ele>
        <time>2022-06-02T02:30:58.000Z</time>
      </trkpt>
      <trkpt lat="45.19705" lon="5.7289">
        <ele>272.60000610352</ele>
        <time>2022-06-02T02:30:59.000Z</time>
      </trkpt>
      <trkpt lat="45.19704" lon="5.72888">
        <ele>272.79998779297</ele>
        <time>2022-06-02T02:31:00.000Z</time>
      </trkpt>
      <trkpt lat="45.19703" lon="5.72886">
        <ele>272.79998779297</ele>
        <time>2022-06-02T02:31:01.000Z</time>
      </trkpt>
      <trkpt lat="45.19701" lon="5.72883">
        <ele>273.20001220703</ele>
        <time>2022-06-02T02:31:02.000Z</time>
      </trkpt>
      <trkpt lat="45.197" lon="5.72881">
        <ele>273.60000610352</ele>
        <time>2022-06-02T02:31:03.000Z</time>
      </trkpt>
      <trkpt lat="45.19698" lon="5.72879">
        <ele>273.60000610352</ele>
        <time>2022-06-02T02:31:04.000Z</time>
      </trkpt>
      <trkpt lat="45.19697" lon="5.72877">
        <ele>274.39999389648</ele>
        <time>2022-06-02T02:31:05.000Z</time>
      </trkpt>
      <trkpt lat="45.19696" lon="5.72874">
        <ele>274.39999389648</ele>
        <time>2022-06-02T02:31:06.000Z</time>
      </trkpt>
      <trkpt lat="45.19695" lon="5.72873">
        <ele>274.39999389648</ele>
        <time>2022-06-02T02:31:07.000Z</time>
      </trkpt>
      <trkpt lat="45.19693" lon="5.7287">
        <ele>274.79998779297</ele>
        <time>2022-06-02T02:31:08.000Z</time>
      </trkpt>
      <trkpt lat="45.19693" lon="5.72868">
        <ele>275.20001220703</ele>
        <time>2022-06-02T02:31:09.000Z</time>
      </trkpt>
      <trkpt lat="45.19692" lon="5.72866">
        <ele>275.20001220703</ele>
        <time>2022-06-02T02:31:10.000Z</time>
      </trkpt>
      <trkpt lat="45.19691" lon="5.72864">
        <ele>275.60000610352</ele>
        <time>2022-06-02T02:31:11.000Z</time>
      </trkpt>
      <trkpt lat="45.1969" lon="5.72861">
        <ele>275.60000610352</ele>
        <time>2022-06-02T02:31:12.000Z</time>
      </trkpt>
      <trkpt lat="45.1969" lon="5.72859">
        <ele>275.60000610352</ele>
        <time>2022-06-02T02:31:13.000Z</time>
      </trkpt>
      <trkpt lat="45.19691" lon="5.72857">
        <ele>276</ele>
        <time>2022-06-02T02:31:14.000Z</time>
      </trkpt>
      <trkpt lat="45.19691" lon="5.72857">
        <ele>276.20001220703</ele>
        <time>2022-06-02T02:31:15.000Z</time>
      </trkpt>
      <trkpt lat="45.19692" lon="5.72857">
        <ele>276.20001220703</ele>
        <time>2022-06-02T02:31:16.000Z</time>
      </trkpt>
      <trkpt lat="45.19694" lon="5.72858">
        <ele>276.60000610352</ele>
        <time>2022-06-02T02:31:17.000Z</time>
      </trkpt>
      <trkpt lat="45.19695" lon="5.72859">
        <ele>276.79998779297</ele>
        <time>2022-06-02T02:31:18.000Z</time>
      </trkpt>
      <trkpt lat="45.19697" lon="5.7286">
        <ele>276.79998779297</ele>
        <time>2022-06-02T02:31:19.000Z</time>
      </trkpt>
      <trkpt lat="45.19699" lon="5.72861">
        <ele>276.79998779297</ele>
        <time>2022-06-02T02:31:20.000Z</time>
      </trkpt>
      <trkpt lat="45.197" lon="5.72862">
        <ele>277.39999389648</ele>
        <time>2022-06-02T02:31:21.000Z</time>
      </trkpt>
      <trkpt lat="45.19701" lon="5.72864">
        <ele>277.79998779297</ele>
        <time>2022-06-02T02:31:22.000Z</time>
      </trkpt>
      <trkpt lat="45.19703" lon="5.72866">
        <ele>277.39999389648</ele>
        <time>2022-06-02T02:31:23.000Z</time>
      </trkpt>
      <trkpt lat="45.19705" lon="5.72867">
        <ele>278</ele>
        <time>2022-06-02T02:31:24.000Z</time>
      </trkpt>
      <trkpt lat="45.19706" lon="5.72868">
        <ele>278</ele>
        <time>2022-06-02T02:31:25.000Z</time>
      </trkpt>
      <trkpt lat="45.19708" lon="5.72869">
        <ele>278</ele>
        <time>2022-06-02T02:31:26.000Z</time>
      </trkpt>
      <trkpt lat="45.1971" lon="5.7287">
        <ele>278.39999389648</ele>
        <time>2022-06-02T02:31:27.000Z</time>
      </trkpt>
      <trkpt lat="45.19712" lon="5.72871">
        <ele>278.60000610352</ele>
        <time>2022-06-02T02:31:28.000Z</time>
      </trkpt>
      <trkpt lat="45.19713" lon="5.72872">
        <ele>278.60000610352</ele>
        <time>2022-06-02T02:31:29.000Z</time>
      </trkpt>
      <trkpt lat="45.19714" lon="5.72873">
        <ele>278.79998779297</ele>
        <time>2022-06-02T02:31:30.000Z</time>
      </trkpt>
      <trkpt lat="45.19716" lon="5.72874">
        <ele>279.39999389648</ele>
        <time>2022-06-02T02:31:31.000Z</time>
      </trkpt>
      <trkpt lat="45.19717" lon="5.72876">
        <ele>279.20001220703</ele>
        <time>2022-06-02T02:31:32.000Z</time>
      </trkpt>
      <trkpt lat="45.19719" lon="5.72877">
        <ele>279.39999389648</ele>
        <time>2022-06-02T02:31:33.000Z</time>
      </trkpt>
      <trkpt lat="45.1972" lon="5.72878">
        <ele>280.20001220703</ele>
        <time>2022-06-02T02:31:34.000Z</time>
      </trkpt>
      <trkpt lat="45.19722" lon="5.72879">
        <ele>279.79998779297</ele>
        <time>2022-06-02T02:31:35.000Z</time>
      </trkpt>
      <trkpt lat="45.19723" lon="5.7288">
        <ele>280</ele>
        <time>2022-06-02T02:31:36.000Z</time>
      </trkpt>
      <trkpt lat="45.19724" lon="5.72881">
        <ele>280.39999389648</ele>
        <time>2022-06-02T02:31:37.000Z</time>
      </trkpt>
      <trkpt lat="45.19726" lon="5.72882">
        <ele>280.39999389648</ele>
        <time>2022-06-02T02:31:38.000Z</time>
      </trkpt>
      <trkpt lat="45.19727" lon="5.72883">
        <ele>280.79998779297</ele>
        <time>2022-06-02T02:31:39.000Z</time>
      </trkpt>
      <trkpt lat="45.19727" lon="5.72884">
        <ele>281.20001220703</ele>
        <time>2022-06-02T02:31:40.000Z</time>
      </trkpt>
      <trkpt lat="45.19729" lon="5.72885">
        <ele>281.20001220703</ele>
        <time>2022-06-02T02:31:41.000Z</time>
      </trkpt>
      <trkpt lat="45.1973" lon="5.72886">
        <ele>281.39999389648</ele>
        <time>2022-06-02T02:31:42.000Z</time>
      </trkpt>
      <trkpt lat="45.19731" lon="5.72887">
        <ele>281.60000610352</ele>
        <time>2022-06-02T02:31:43.000Z</time>
      </trkpt>
      <trkpt lat="45.19733" lon="5.72889">
        <ele>281.60000610352</ele>
        <time>2022-06-02T02:31:44.000Z</time>
      </trkpt>
      <trkpt lat="45.19733" lon="5.7289">
        <ele>282</ele>
        <time>2022-06-02T02:31:45.000Z</time>
      </trkpt>
      <trkpt lat="45.19735" lon="5.72891">
        <ele>282.39999389648</ele>
        <time>2022-06-02T02:31:46.000Z</time>
      </trkpt>
      <trkpt lat="45.19737" lon="5.72893">
        <ele>282.39999389648</ele>
        <time>2022-06-02T02:31:47.000Z</time>
      </trkpt>
      <trkpt lat="45.19738" lon="5.72894">
        <ele>283</ele>
        <time>2022-06-02T02:31:48.000Z</time>
      </trkpt>
      <trkpt lat="45.1974" lon="5.72896">
        <ele>283</ele>
        <time>2022-06-02T02:31:49.000Z</time>
      </trkpt>
      <trkpt lat="45.19742" lon="5.72897">
        <ele>283.20001220703</ele>
        <time>2022-06-02T02:31:50.000Z</time>
      </trkpt>
      <trkpt lat="45.19744" lon="5.72898">
        <ele>283.60000610352</ele>
        <time>2022-06-02T02:31:51.000Z</time>
      </trkpt>
      <trkpt lat="45.19747" lon="5.729">
        <ele>283.60000610352</ele>
        <time>2022-06-02T02:31:52.000Z</time>
      </trkpt>
      <trkpt lat="45.19749" lon="5.72901">
        <ele>283.79998779297</ele>
        <time>2022-06-02T02:31:53.000Z</time>
      </trkpt>
      <trkpt lat="45.19751" lon="5.72902">
        <ele>284.20001220703</ele>
        <time>2022-06-02T02:31:54.000Z</time>
      </trkpt>
      <trkpt lat="45.19753" lon="5.72903">
        <ele>284.20001220703</ele>
        <time>2022-06-02T02:31:55.000Z</time>
      </trkpt>
      <trkpt lat="45.19755" lon="5.72904">
        <ele>284.20001220703</ele>
        <time>2022-06-02T02:31:56.000Z</time>
      </trkpt>
      <trkpt lat="45.19757" lon="5.72905">
        <ele>284.79998779297</ele>
        <time>2022-06-02T02:31:57.000Z</time>
      </trkpt>
      <trkpt lat="45.19758" lon="5.72906">
        <ele>284.79998779297</ele>
        <time>2022-06-02T02:31:58.000Z</time>
      </trkpt>
      <trkpt lat="45.1976" lon="5.72907">
        <ele>285</ele>
        <time>2022-06-02T02:31:59.000Z</time>
      </trkpt>
      <trkpt lat="45.19762" lon="5.72909">
        <ele>285.20001220703</ele>
        <time>2022-06-02T02:32:00.000Z</time>
      </trkpt>
      <trkpt lat="45.19763" lon="5.7291">
        <ele>285.60000610352</ele>
        <time>2022-06-02T02:32:01.000Z</time>
      </trkpt>
      <trkpt lat="45.19765" lon="5.72911">
        <ele>285.60000610352</ele>
        <time>2022-06-02T02:32:02.000Z</time>
      </trkpt>
      <trkpt lat="45.19767" lon="5.72912">
        <ele>285.79998779297</ele>
        <time>2022-06-02T02:32:03.000Z</time>
      </trkpt>
      <trkpt lat="45.19768" lon="5.72912">
        <ele>286.20001220703</ele>
        <time>2022-06-02T02:32:04.000Z</time>
      </trkpt>
      <trkpt lat="45.1977" lon="5.72913">
        <ele>286.20001220703</ele>
        <time>2022-06-02T02:32:05.000Z</time>
      </trkpt>
      <trkpt lat="45.19772" lon="5.72914">
        <ele>286.60000610352</ele>
        <time>2022-06-02T02:32:06.000Z</time>
      </trkpt>
      <trkpt lat="45.19773" lon="5.72914">
        <ele>286.79998779297</ele>
        <time>2022-06-02T02:32:07.000Z</time>
      </trkpt>
      <trkpt lat="45.19774" lon="5.72916">
        <ele>286.79998779297</ele>
        <time>2022-06-02T02:32:08.000Z</time>
      </trkpt>
      <trkpt lat="45.19776" lon="5.72917">
        <ele>287.39999389648</ele>
        <time>2022-06-02T02:32:09.000Z</time>
      </trkpt>
      <trkpt lat="45.19777" lon="5.72917">
        <ele>287.39999389648</ele>
        <time>2022-06-02T02:32:10.000Z</time>
      </trkpt>
      <trkpt lat="45.19778" lon="5.72918">
        <ele>287.79998779297</ele>
        <time>2022-06-02T02:32:11.000Z</time>
      </trkpt>
      <trkpt lat="45.1978" lon="5.72918">
        <ele>288</ele>
        <time>2022-06-02T02:32:12.000Z</time>
      </trkpt>
      <trkpt lat="45.19781" lon="5.72918">
        <ele>288.20001220703</ele>
        <time>2022-06-02T02:32:13.000Z</time>
      </trkpt>
      <trkpt lat="45.19783" lon="5.72919">
        <ele>288.20001220703</ele>
        <time>2022-06-02T02:32:14.000Z</time>
      </trkpt>
      <trkpt lat="45.19784" lon="5.7292">
        <ele>288.39999389648</ele>
        <time>2022-06-02T02:32:15.000Z</time>
      </trkpt>
      <trkpt lat="45.19786" lon="5.7292">
        <ele>288.79998779297</ele>
        <time>2022-06-02T02:32:16.000Z</time>
      </trkpt>
      <trkpt lat="45.19787" lon="5.72922">
        <ele>289</ele>
        <time>2022-06-02T02:32:17.000Z</time>
      </trkpt>
      <trkpt lat="45.19789" lon="5.72924">
        <ele>289.20001220703</ele>
        <time>2022-06-02T02:32:18.000Z</time>
      </trkpt>
      <trkpt lat="45.19791" lon="5.72925">
        <ele>289.39999389648</ele>
        <time>2022-06-02T02:32:19.000Z</time>
      </trkpt>
      <trkpt lat="45.19793" lon="5.72926">
        <ele>289.39999389648</ele>
        <time>2022-06-02T02:32:20.000Z</time>
      </trkpt>
      <trkpt lat="45.19795" lon="5.72927">
        <ele>290</ele>
        <time>2022-06-02T02:32:21.000Z</time>
      </trkpt>
      <trkpt lat="45.19797" lon="5.72928">
        <ele>290</ele>
        <time>2022-06-02T02:32:22.000Z</time>
      </trkpt>
      <trkpt lat="45.198" lon="5.7293">
        <ele>290</ele>
        <time>2022-06-02T02:32:23.000Z</time>
      </trkpt>
      <trkpt lat="45.19802" lon="5.7293">
        <ele>290</ele>
        <time>2022-06-02T02:32:24.000Z</time>
      </trkpt>
      <trkpt lat="45.19804" lon="5.7293">
        <ele>290</ele>
        <time>2022-06-02T02:32:25.000Z</time>
      </trkpt>
      <trkpt lat="45.19804" lon="5.72929">
        <ele>290.20001220703</ele>
        <time>2022-06-02T02:32:26.000Z</time>
      </trkpt>
      <trkpt lat="45.19804" lon="5.72927">
        <ele>290</ele>
        <time>2022-06-02T02:32:27.000Z</time>
      </trkpt>
      <trkpt lat="45.19803" lon="5.72927">
        <ele>290.39999389648</ele>
        <time>2022-06-02T02:32:28.000Z</time>
      </trkpt>
      <trkpt lat="45.19801" lon="5.72925">
        <ele>291</ele>
        <time>2022-06-02T02:32:29.000Z</time>
      </trkpt>
      <trkpt lat="45.198" lon="5.72923">
        <ele>291</ele>
        <time>2022-06-02T02:32:30.000Z</time>
      </trkpt>
      <trkpt lat="45.19797" lon="5.72921">
        <ele>291.20001220703</ele>
        <time>2022-06-02T02:32:31.000Z</time>
      </trkpt>
      <trkpt lat="45.19796" lon="5.7292">
        <ele>291.60000610352</ele>
        <time>2022-06-02T02:32:32.000Z</time>
      </trkpt>
      <trkpt lat="45.19794" lon="5.7292">
        <ele>291.60000610352</ele>
        <time>2022-06-02T02:32:33.000Z</time>
      </trkpt>
      <trkpt lat="45.19793" lon="5.72919">
        <ele>291.79998779297</ele>
        <time>2022-06-02T02:32:34.000Z</time>
      </trkpt>
      <trkpt lat="45.19791" lon="5.72918">
        <ele>292.20001220703</ele>
        <time>2022-06-02T02:32:35.000Z</time>
      </trkpt>
      <trkpt lat="45.1979" lon="5.72916">
        <ele>292.20001220703</ele>
        <time>2022-06-02T02:32:36.000Z</time>
      </trkpt>
      <trkpt lat="45.19788" lon="5.72915">
        <ele>292.39999389648</ele>
        <time>2022-06-02T02:32:37.000Z</time>
      </trkpt>
      <trkpt lat="45.19786" lon="5.72913">
        <ele>292.79998779297</ele>
        <time>2022-06-02T02:32:38.000Z</time>
      </trkpt>
      <trkpt lat="45.19785" lon="5.72911">
        <ele>293</ele>
        <time>2022-06-02T02:32:39.000Z</time>
      </trkpt>
      <trkpt lat="45.19783" lon="5.7291">
        <ele>293.20001220703</ele>
        <time>2022-06-02T02:32:40.000Z</time>
      </trkpt>
      <trkpt lat="45.19782" lon="5.72908">
        <ele>292.79998779297</ele>
        <time>2022-06-02T02:32:41.000Z</time>
      </trkpt>
      <trkpt lat="45.1978" lon="5.72905">
        <ele>293.60000610352</ele>
        <time>2022-06-02T02:32:42.000Z</time>
      </trkpt>
      <trkpt lat="45.19779" lon="5.72903">
        <ele>293.60000610352</ele>
        <time>2022-06-02T02:32:43.000Z</time>
      </trkpt>
      <trkpt lat="45.19777" lon="5.72901">
        <ele>293.60000610352</ele>
        <time>2022-06-02T02:32:44.000Z</time>
      </trkpt>
      <trkpt lat="45.19775" lon="5.72898">
        <ele>294</ele>
        <time>2022-06-02T02:32:45.000Z</time>
      </trkpt>
      <trkpt lat="45.19774" lon="5.72897">
        <ele>294.20001220703</ele>
        <time>2022-06-02T02:32:46.000Z</time>
      </trkpt>
      <trkpt lat="45.19772" lon="5.72895">
        <ele>294.20001220703</ele>
        <time>2022-06-02T02:32:47.000Z</time>
      </trkpt>
      <trkpt lat="45.19771" lon="5.72893">
        <ele>295</ele>
        <time>2022-06-02T02:32:48.000Z</time>
      </trkpt>
      <trkpt lat="45.1977" lon="5.72891">
        <ele>295.20001220703</ele>
        <time>2022-06-02T02:32:49.000Z</time>
      </trkpt>
      <trkpt lat="45.19769" lon="5.7289">
        <ele>295.39999389648</ele>
        <time>2022-06-02T02:32:50.000Z</time>
      </trkpt>
      <trkpt lat="45.19768" lon="5.72887">
        <ele>295.79998779297</ele>
        <time>2022-06-02T02:32:51.000Z</time>
      </trkpt>
      <trkpt lat="45.19767" lon="5.72886">
        <ele>295.79998779297</ele>
        <time>2022-06-02T02:32:52.000Z</time>
      </trkpt>
      <trkpt lat="45.19766" lon="5.72884">
        <ele>296.39999389648</ele>
        <time>2022-06-02T02:32:53.000Z</time>
      </trkpt>
      <trkpt lat="45.19764" lon="5.72882">
        <ele>296.39999389648</ele>
        <time>2022-06-02T02:32:54.000Z</time>
      </trkpt>
      <trkpt lat="45.19763" lon="5.72881">
        <ele>296.60000610352</ele>
        <time>2022-06-02T02:32:55.000Z</time>
      </trkpt>
      <trkpt lat="45.19762" lon="5.72879">
        <ele>296.60000610352</ele>
        <time>2022-06-02T02:32:56.000Z</time>
      </trkpt>
      <trkpt lat="45.1976" lon="5.72877">
        <ele>297.20001220703</ele>
        <time>2022-06-02T02:32:57.000Z</time>
      </trkpt>
      <trkpt lat="45.19759" lon="5.72876">
        <ele>297.20001220703</ele>
        <time>2022-06-02T02:32:58.000Z</time>
      </trkpt>
      <trkpt lat="45.19758" lon="5.72873">
        <ele>296.60000610352</ele>
        <time>2022-06-02T02:32:59.000Z</time>
      </trkpt>
      <trkpt lat="45.19757" lon="5.72872">
        <ele>297.39999389648</ele>
        <time>2022-06-02T02:33:00.000Z</time>
      </trkpt>
      <trkpt lat="45.19755" lon="5.7287">
        <ele>298.20001220703</ele>
        <time>2022-06-02T02:33:01.000Z</time>
      </trkpt>
      <trkpt lat="45.19754" lon="5.72868">
        <ele>297.60000610352</ele>
        <time>2022-06-02T02:33:02.000Z</time>
      </trkpt>
      <trkpt lat="45.19753" lon="5.72866">
        <ele>298</ele>
        <time>2022-06-02T02:33:03.000Z</time>
      </trkpt>
      <trkpt lat="45.19752" lon="5.72864">
        <ele>298</ele>
        <time>2022-06-02T02:33:04.000Z</time>
      </trkpt>
      <trkpt lat="45.1975" lon="5.72862">
        <ele>298</ele>
        <time>2022-06-02T02:33:05.000Z</time>
      </trkpt>
      <trkpt lat="45.19748" lon="5.7286">
        <ele>298.39999389648</ele>
        <time>2022-06-02T02:33:06.000Z</time>
      </trkpt>
      <trkpt lat="45.19747" lon="5.72859">
        <ele>298.79998779297</ele>
        <time>2022-06-02T02:33:07.000Z</time>
      </trkpt>
      <trkpt lat="45.19745" lon="5.72857">
        <ele>299</ele>
        <time>2022-06-02T02:33:08.000Z</time>
      </trkpt>
      <trkpt lat="45.19744" lon="5.72856">
        <ele>299.20001220703</ele>
        <time>2022-06-02T02:33:09.000Z</time>
      </trkpt>
      <trkpt lat="45.19743" lon="5.72854">
        <ele>299.39999389648</ele>
        <time>2022-06-02T02:33:10.000Z</time>
      </trkpt>
      <trkpt lat="45.19742" lon="5.72852">
        <ele>299.60000610352</ele>
        <time>2022-06-02T02:33:11.000Z</time>
      </trkpt>
      <trkpt lat="45.1974" lon="5.7285">
        <ele>300</ele>
        <time>2022-06-02T02:33:12.000Z</time>
      </trkpt>
      <trkpt lat="45.19739" lon="5.72849">
        <ele>299.79998779297</ele>
        <time>2022-06-02T02:33:13.000Z</time>
      </trkpt>
      <trkpt lat="45.19738" lon="5.72846">
        <ele>300.20001220703</ele>
        <time>2022-06-02T02:33:14.000Z</time>
      </trkpt>
      <trkpt lat="45.19738" lon="5.72844">
        <ele>300.20001220703</ele>
        <time>2022-06-02T02:33:15.000Z</time>
      </trkpt>
      <trkpt lat="45.19738" lon="5.72842">
        <ele>300.20001220703</ele>
        <time>2022-06-02T02:33:16.000Z</time>
      </trkpt>
      <trkpt lat="45.19739" lon="5.72841">
        <ele>300.20001220703</ele>
        <time>2022-06-02T02:33:17.000Z</time>
      </trkpt>
      <trkpt lat="45.1974" lon="5.7284">
        <ele>300.60000610352</ele>
        <time>2022-06-02T02:33:18.000Z</time>
      </trkpt>
      <trkpt lat="45.19742" lon="5.72841">
        <ele>300.60000610352</ele>
        <time>2022-06-02T02:33:19.000Z</time>
      </trkpt>
      <trkpt lat="45.19744" lon="5.72843">
        <ele>300.60000610352</ele>
        <time>2022-06-02T02:33:20.000Z</time>
      </trkpt>
      <trkpt lat="45.19746" lon="5.72844">
        <ele>300.39999389648</ele>
        <time>2022-06-02T02:33:21.000Z</time>
      </trkpt>
      <trkpt lat="45.19747" lon="5.72846">
        <ele>300.79998779297</ele>
        <time>2022-06-02T02:33:22.000Z</time>
      </trkpt>
      <trkpt lat="45.19749" lon="5.72847">
        <ele>301</ele>
        <time>2022-06-02T02:33:23.000Z</time>
      </trkpt>
      <trkpt lat="45.1975" lon="5.72849">
        <ele>301.39999389648</ele>
        <time>2022-06-02T02:33:24.000Z</time>
      </trkpt>
      <trkpt lat="45.19751" lon="5.7285">
        <ele>301.20001220703</ele>
        <time>2022-06-02T02:33:25.000Z</time>
      </trkpt>
      <trkpt lat="45.19752" lon="5.72851">
        <ele>301.39999389648</ele>
        <time>2022-06-02T02:33:26.000Z</time>
      </trkpt>
      <trkpt lat="45.19753" lon="5.72852">
        <ele>301.79998779297</ele>
        <time>2022-06-02T02:33:27.000Z</time>
      </trkpt>
      <trkpt lat="45.19755" lon="5.72853">
        <ele>302</ele>
        <time>2022-06-02T02:33:28.000Z</time>
      </trkpt>
      <trkpt lat="45.19756" lon="5.72854">
        <ele>302.20001220703</ele>
        <time>2022-06-02T02:33:29.000Z</time>
      </trkpt>
      <trkpt lat="45.19758" lon="5.72855">
        <ele>302.39999389648</ele>
        <time>2022-06-02T02:33:30.000Z</time>
      </trkpt>
      <trkpt lat="45.19759" lon="5.72856">
        <ele>302.79998779297</ele>
        <time>2022-06-02T02:33:31.000Z</time>
      </trkpt>
      <trkpt lat="45.19761" lon="5.72858">
        <ele>303</ele>
        <time>2022-06-02T02:33:32.000Z</time>
      </trkpt>
      <trkpt lat="45.19762" lon="5.72858">
        <ele>303.20001220703</ele>
        <time>2022-06-02T02:33:33.000Z</time>
      </trkpt>
      <trkpt lat="45.19764" lon="5.72859">
        <ele>303.20001220703</ele>
        <time>2022-06-02T02:33:34.000Z</time>
      </trkpt>
      <trkpt lat="45.19765" lon="5.72861">
        <ele>303</ele>
        <time>2022-06-02T02:33:35.000Z</time>
      </trkpt>
      <trkpt lat="45.19767" lon="5.72862">
        <ele>303</ele>
        <time>2022-06-02T02:33:36.000Z</time>
      </trkpt>
      <trkpt lat="45.19769" lon="5.72863">
        <ele>303.20001220703</ele>
        <time>2022-06-02T02:33:37.000Z</time>
      </trkpt>
      <trkpt lat="45.19771" lon="5.72864">
        <ele>304.39999389648</ele>
        <time>2022-06-02T02:33:38.000Z</time>
      </trkpt>
      <trkpt lat="45.19773" lon="5.72866">
        <ele>304.60000610352</ele>
        <time>2022-06-02T02:33:39.000Z</time>
      </trkpt>
      <trkpt lat="45.19775" lon="5.72867">
        <ele>304.79998779297</ele>
        <time>2022-06-02T02:33:40.000Z</time>
      </trkpt>
      <trkpt lat="45.19776" lon="5.72868">
        <ele>304.79998779297</ele>
        <time>2022-06-02T02:33:41.000Z</time>
      </trkpt>
      <trkpt lat="45.19778" lon="5.72869">
        <ele>304.79998779297</ele>
        <time>2022-06-02T02:33:42.000Z</time>
      </trkpt>
      <trkpt lat="45.19779" lon="5.7287">
        <ele>305.20001220703</ele>
        <time>2022-06-02T02:33:43.000Z</time>
      </trkpt>
      <trkpt lat="45.1978" lon="5.7287">
        <ele>305.39999389648</ele>
        <time>2022-06-02T02:33:44.000Z</time>
      </trkpt>
      <trkpt lat="45.19781" lon="5.72871">
        <ele>305.60000610352</ele>
        <time>2022-06-02T02:33:45.000Z</time>
      </trkpt>
      <trkpt lat="45.19782" lon="5.72872">
        <ele>306</ele>
        <time>2022-06-02T02:33:46.000Z</time>
      </trkpt>
      <trkpt lat="45.19783" lon="5.72873">
        <ele>306</ele>
        <time>2022-06-02T02:33:47.000Z</time>
      </trkpt>
      <trkpt lat="45.19785" lon="5.72875">
        <ele>305.79998779297</ele>
        <time>2022-06-02T02:33:48.000Z</time>
      </trkpt>
      <trkpt lat="45.19786" lon="5.72876">
        <ele>306.79998779297</ele>
        <time>2022-06-02T02:33:49.000Z</time>
      </trkpt>
      <trkpt lat="45.19787" lon="5.72877">
        <ele>306.79998779297</ele>
        <time>2022-06-02T02:33:50.000Z</time>
      </trkpt>
      <trkpt lat="45.19789" lon="5.72878">
        <ele>306.79998779297</ele>
        <time>2022-06-02T02:33:51.000Z</time>
      </trkpt>
      <trkpt lat="45.1979" lon="5.72878">
        <ele>307.39999389648</ele>
        <time>2022-06-02T02:33:52.000Z</time>
      </trkpt>
      <trkpt lat="45.19792" lon="5.72879">
        <ele>307.39999389648</ele>
        <time>2022-06-02T02:33:53.000Z</time>
      </trkpt>
      <trkpt lat="45.19793" lon="5.7288">
        <ele>307.60000610352</ele>
        <time>2022-06-02T02:33:54.000Z</time>
      </trkpt>
      <trkpt lat="45.19796" lon="5.72881">
        <ele>307.79998779297</ele>
        <time>2022-06-02T02:33:55.000Z</time>
      </trkpt>
      <trkpt lat="45.19797" lon="5.72882">
        <ele>308</ele>
        <time>2022-06-02T02:33:56.000Z</time>
      </trkpt>
      <trkpt lat="45.19799" lon="5.72883">
        <ele>308</ele>
        <time>2022-06-02T02:33:57.000Z</time>
      </trkpt>
      <trkpt lat="45.198" lon="5.72884">
        <ele>308.20001220703</ele>
        <time>2022-06-02T02:33:58.000Z</time>
      </trkpt>
      <trkpt lat="45.19801" lon="5.72885">
        <ele>308.60000610352</ele>
        <time>2022-06-02T02:33:59.000Z</time>
      </trkpt>
      <trkpt lat="45.19803" lon="5.72886">
        <ele>308.79998779297</ele>
        <time>2022-06-02T02:34:00.000Z</time>
      </trkpt>
      <trkpt lat="45.19805" lon="5.72888">
        <ele>309</ele>
        <time>2022-06-02T02:34:01.000Z</time>
      </trkpt>
      <trkpt lat="45.19807" lon="5.72889">
        <ele>309.20001220703</ele>
        <time>2022-06-02T02:34:02.000Z</time>
      </trkpt>
      <trkpt lat="45.19809" lon="5.7289">
        <ele>309.20001220703</ele>
        <time>2022-06-02T02:34:03.000Z</time>
      </trkpt>
      <trkpt lat="45.1981" lon="5.72891">
        <ele>308.79998779297</ele>
        <time>2022-06-02T02:34:04.000Z</time>
      </trkpt>
      <trkpt lat="45.19811" lon="5.72891">
        <ele>308.60000610352</ele>
        <time>2022-06-02T02:34:05.000Z</time>
      </trkpt>
      <trkpt lat="45.19812" lon="5.72889">
        <ele>308.79998779297</ele>
        <time>2022-06-02T02:34:06.000Z</time>
      </trkpt>
      <trkpt lat="45.19811" lon="5.72887">
        <ele>309.60000610352</ele>
        <time>2022-06-02T02:34:07.000Z</time>
      </trkpt>
      <trkpt lat="45.1981" lon="5.72886">
        <ele>309.39999389648</ele>
        <time>2022-06-02T02:34:08.000Z</time>
      </trkpt>
      <trkpt lat="45.19809" lon="5.72885">
        <ele>309.39999389648</ele>
        <time>2022-06-02T02:34:09.000Z</time>
      </trkpt>
      <trkpt lat="45.19808" lon="5.72884">
        <ele>309.79998779297</ele>
        <time>2022-06-02T02:34:10.000Z</time>
      </trkpt>
      <trkpt lat="45.19806" lon="5.72883">
        <ele>309.20001220703</ele>
        <time>2022-06-02T02:34:11.000Z</time>
      </trkpt>
      <trkpt lat="45.19804" lon="5.72883">
        <ele>310</ele>
        <time>2022-06-02T02:34:12.000Z</time>
      </trkpt>
      <trkpt lat="45.19803" lon="5.72881">
        <ele>310.20001220703</ele>
        <time>2022-06-02T02:34:13.000Z</time>
      </trkpt>
      <trkpt lat="45.19802" lon="5.7288">
        <ele>310.79998779297</ele>
        <time>2022-06-02T02:34:14.000Z</time>
      </trkpt>
      <trkpt lat="45.19801" lon="5.72879">
        <ele>310.79998779297</ele>
        <time>2022-06-02T02:34:15.000Z</time>
      </trkpt>
      <trkpt lat="45.198" lon="5.72877">
        <ele>311</ele>
        <time>2022-06-02T02:34:16.000Z</time>
      </trkpt>
      <trkpt lat="45.19798" lon="5.72876">
        <ele>311</ele>
        <time>2022-06-02T02:34:17.000Z</time>
      </trkpt>
      <trkpt lat="45.19797" lon="5.72874">
        <ele>311.39999389648</ele>
        <time>2022-06-02T02:34:18.000Z</time>
      </trkpt>
      <trkpt lat="45.19796" lon="5.72872">
        <ele>311.60000610352</ele>
        <time>2022-06-02T02:34:19.000Z</time>
      </trkpt>
      <trkpt lat="45.19795" lon="5.72871">
        <ele>311.60000610352</ele>
        <time>2022-06-02T02:34:20.000Z</time>
      </trkpt>
      <trkpt lat="45.19794" lon="5.7287">
        <ele>312</ele>
        <time>2022-06-02T02:34:21.000Z</time>
      </trkpt>
      <trkpt lat="45.19792" lon="5.72868">
        <ele>312.20001220703</ele>
        <time>2022-06-02T02:34:22.000Z</time>
      </trkpt>
      <trkpt lat="45.1979" lon="5.72866">
        <ele>312.20001220703</ele>
        <time>2022-06-02T02:34:23.000Z</time>
      </trkpt>
      <trkpt lat="45.19788" lon="5.72864">
        <ele>312.39999389648</ele>
        <time>2022-06-02T02:34:24.000Z</time>
      </trkpt>
      <trkpt lat="45.19787" lon="5.72862">
        <ele>312.60000610352</ele>
        <time>2022-06-02T02:34:25.000Z</time>
      </trkpt>
      <trkpt lat="45.19785" lon="5.7286">
        <ele>312.60000610352</ele>
        <time>2022-06-02T02:34:26.000Z</time>
      </trkpt>
      <trkpt lat="45.19784" lon="5.72858">
        <ele>312.79998779297</ele>
        <time>2022-06-02T02:34:27.000Z</time>
      </trkpt>
      <trkpt lat="45.19782" lon="5.72857">
        <ele>313.20001220703</ele>
        <time>2022-06-02T02:34:28.000Z</time>
      </trkpt>
      <trkpt lat="45.19781" lon="5.72855">
        <ele>313.39999389648</ele>
        <time>2022-06-02T02:34:29.000Z</time>
      </trkpt>
      <trkpt lat="45.1978" lon="5.72853">
        <ele>313.79998779297</ele>
        <time>2022-06-02T02:34:30.000Z</time>
      </trkpt>
      <trkpt lat="45.19779" lon="5.72851">
        <ele>314</ele>
        <time>2022-06-02T02:34:31.000Z</time>
      </trkpt>
      <trkpt lat="45.19777" lon="5.7285">
        <ele>314</ele>
        <time>2022-06-02T02:34:32.000Z</time>
      </trkpt>
      <trkpt lat="45.19776" lon="5.72848">
        <ele>314.60000610352</ele>
        <time>2022-06-02T02:34:33.000Z</time>
      </trkpt>
      <trkpt lat="45.19775" lon="5.72846">
        <ele>314.60000610352</ele>
        <time>2022-06-02T02:34:34.000Z</time>
      </trkpt>
      <trkpt lat="45.19774" lon="5.72845">
        <ele>314.60000610352</ele>
        <time>2022-06-02T02:34:35.000Z</time>
      </trkpt>
      <trkpt lat="45.19773" lon="5.72843">
        <ele>315.39999389648</ele>
        <time>2022-06-02T02:34:36.000Z</time>
      </trkpt>
      <trkpt lat="45.19772" lon="5.72841">
        <ele>315.39999389648</ele>
        <time>2022-06-02T02:34:37.000Z</time>
      </trkpt>
      <trkpt lat="45.1977" lon="5.7284">
        <ele>315.39999389648</ele>
        <time>2022-06-02T02:34:38.000Z</time>
      </trkpt>
      <trkpt lat="45.19769" lon="5.72838">
        <ele>315.60000610352</ele>
        <time>2022-06-02T02:34:39.000Z</time>
      </trkpt>
      <trkpt lat="45.19768" lon="5.72836">
        <ele>315.79998779297</ele>
        <time>2022-06-02T02:34:40.000Z</time>
      </trkpt>
      <trkpt lat="45.19766" lon="5.72834">
        <ele>316</ele>
        <time>2022-06-02T02:34:41.000Z</time>
      </trkpt>
      <trkpt lat="45.19765" lon="5.72832">
        <ele>316.20001220703</ele>
        <time>2022-06-02T02:34:42.000Z</time>
      </trkpt>
      <trkpt lat="45.19763" lon="5.72831">
        <ele>316.20001220703</ele>
        <time>2022-06-02T02:34:43.000Z</time>
      </trkpt>
      <trkpt lat="45.19762" lon="5.72829">
        <ele>316.39999389648</ele>
        <time>2022-06-02T02:34:44.000Z</time>
      </trkpt>
      <trkpt lat="45.1976" lon="5.72828">
        <ele>317</ele>
        <time>2022-06-02T02:34:45.000Z</time>
      </trkpt>
      <trkpt lat="45.19758" lon="5.72826">
        <ele>317.39999389648</ele>
        <time>2022-06-02T02:34:46.000Z</time>
      </trkpt>
      <trkpt lat="45.19757" lon="5.72824">
        <ele>317.39999389648</ele>
        <time>2022-06-02T02:34:47.000Z</time>
      </trkpt>
      <trkpt lat="45.19755" lon="5.72822">
        <ele>318</ele>
        <time>2022-06-02T02:34:48.000Z</time>
      </trkpt>
      <trkpt lat="45.19754" lon="5.7282">
        <ele>318</ele>
        <time>2022-06-02T02:34:49.000Z</time>
      </trkpt>
      <trkpt lat="45.19752" lon="5.72818">
        <ele>318.20001220703</ele>
        <time>2022-06-02T02:34:50.000Z</time>
      </trkpt>
      <trkpt lat="45.1975" lon="5.72816">
        <ele>318.39999389648</ele>
        <time>2022-06-02T02:34:51.000Z</time>
      </trkpt>
      <trkpt lat="45.19749" lon="5.72814">
        <ele>318.39999389648</ele>
        <time>2022-06-02T02:34:52.000Z</time>
      </trkpt>
      <trkpt lat="45.19748" lon="5.72813">
        <ele>318.39999389648</ele>
        <time>2022-06-02T02:34:53.000Z</time>
      </trkpt>
      <trkpt lat="45.19746" lon="5.72811">
        <ele>318.79998779297</ele>
        <time>2022-06-02T02:34:54.000Z</time>
      </trkpt>
      <trkpt lat="45.19745" lon="5.72809">
        <ele>319</ele>
        <time>2022-06-02T02:34:55.000Z</time>
      </trkpt>
      <trkpt lat="45.19745" lon="5.72807">
        <ele>318.60000610352</ele>
        <time>2022-06-02T02:34:56.000Z</time>
      </trkpt>
      <trkpt lat="45.19746" lon="5.72806">
        <ele>318.60000610352</ele>
        <time>2022-06-02T02:34:57.000Z</time>
      </trkpt>
      <trkpt lat="45.19747" lon="5.72806">
        <ele>318.79998779297</ele>
        <time>2022-06-02T02:34:58.000Z</time>
      </trkpt>
      <trkpt lat="45.19749" lon="5.72806">
        <ele>318.79998779297</ele>
        <time>2022-06-02T02:34:59.000Z</time>
      </trkpt>
      <trkpt lat="45.19751" lon="5.72807">
        <ele>318.79998779297</ele>
        <time>2022-06-02T02:35:00.000Z</time>
      </trkpt>
      <trkpt lat="45.19754" lon="5.72809">
        <ele>319.20001220703</ele>
        <time>2022-06-02T02:35:01.000Z</time>
      </trkpt>
      <trkpt lat="45.19756" lon="5.7281">
        <ele>319.20001220703</ele>
        <time>2022-06-02T02:35:02.000Z</time>
      </trkpt>
      <trkpt lat="45.19758" lon="5.72812">
        <ele>319.39999389648</ele>
        <time>2022-06-02T02:35:03.000Z</time>
      </trkpt>
      <trkpt lat="45.19759" lon="5.72813">
        <ele>319.39999389648</ele>
        <time>2022-06-02T02:35:04.000Z</time>
      </trkpt>
      <trkpt lat="45.19761" lon="5.72814">
        <ele>319.79998779297</ele>
        <time>2022-06-02T02:35:05.000Z</time>
      </trkpt>
      <trkpt lat="45.19763" lon="5.72816">
        <ele>320</ele>
        <time>2022-06-02T02:35:06.000Z</time>
      </trkpt>
      <trkpt lat="45.19764" lon="5.72817">
        <ele>320.39999389648</ele>
        <time>2022-06-02T02:35:07.000Z</time>
      </trkpt>
      <trkpt lat="45.19766" lon="5.72818">
        <ele>320.60000610352</ele>
        <time>2022-06-02T02:35:08.000Z</time>
      </trkpt>
      <trkpt lat="45.19767" lon="5.72819">
        <ele>320.60000610352</ele>
        <time>2022-06-02T02:35:09.000Z</time>
      </trkpt>
      <trkpt lat="45.19769" lon="5.7282">
        <ele>320.79998779297</ele>
        <time>2022-06-02T02:35:10.000Z</time>
      </trkpt>
      <trkpt lat="45.1977" lon="5.72821">
        <ele>320.79998779297</ele>
        <time>2022-06-02T02:35:11.000Z</time>
      </trkpt>
      <trkpt lat="45.19772" lon="5.72823">
        <ele>321.20001220703</ele>
        <time>2022-06-02T02:35:12.000Z</time>
      </trkpt>
      <trkpt lat="45.19773" lon="5.72824">
        <ele>321.20001220703</ele>
        <time>2022-06-02T02:35:13.000Z</time>
      </trkpt>
      <trkpt lat="45.19775" lon="5.72825">
        <ele>321.39999389648</ele>
        <time>2022-06-02T02:35:14.000Z</time>
      </trkpt>
      <trkpt lat="45.19776" lon="5.72826">
        <ele>322</ele>
        <time>2022-06-02T02:35:15.000Z</time>
      </trkpt>
      <trkpt lat="45.19777" lon="5.72827">
        <ele>322</ele>
        <time>2022-06-02T02:35:16.000Z</time>
      </trkpt>
      <trkpt lat="45.19778" lon="5.72828">
        <ele>322.39999389648</ele>
        <time>2022-06-02T02:35:17.000Z</time>
      </trkpt>
      <trkpt lat="45.1978" lon="5.7283">
        <ele>322.60000610352</ele>
        <time>2022-06-02T02:35:18.000Z</time>
      </trkpt>
      <trkpt lat="45.19782" lon="5.72831">
        <ele>322.60000610352</ele>
        <time>2022-06-02T02:35:19.000Z</time>
      </trkpt>
      <trkpt lat="45.19783" lon="5.72831">
        <ele>323.20001220703</ele>
        <time>2022-06-02T02:35:20.000Z</time>
      </trkpt>
      <trkpt lat="45.19784" lon="5.72832">
        <ele>323.20001220703</ele>
        <time>2022-06-02T02:35:21.000Z</time>
      </trkpt>
      <trkpt lat="45.19786" lon="5.72834">
        <ele>323.20001220703</ele>
        <time>2022-06-02T02:35:22.000Z</time>
      </trkpt>
      <trkpt lat="45.19787" lon="5.72835">
        <ele>323.39999389648</ele>
        <time>2022-06-02T02:35:23.000Z</time>
      </trkpt>
      <trkpt lat="45.19789" lon="5.72836">
        <ele>323.60000610352</ele>
        <time>2022-06-02T02:35:24.000Z</time>
      </trkpt>
      <trkpt lat="45.19791" lon="5.72838">
        <ele>323.79998779297</ele>
        <time>2022-06-02T02:35:25.000Z</time>
      </trkpt>
      <trkpt lat="45.19792" lon="5.72838">
        <ele>324</ele>
        <time>2022-06-02T02:35:26.000Z</time>
      </trkpt>
      <trkpt lat="45.19794" lon="5.7284">
        <ele>324.20001220703</ele>
        <time>2022-06-02T02:35:27.000Z</time>
      </trkpt>
      <trkpt lat="45.19796" lon="5.72841">
        <ele>324.60000610352</ele>
        <time>2022-06-02T02:35:28.000Z</time>
      </trkpt>
      <trkpt lat="45.19798" lon="5.72842">
        <ele>325</ele>
        <time>2022-06-02T02:35:29.000Z</time>
      </trkpt>
      <trkpt lat="45.198" lon="5.72844">
        <ele>325.20001220703</ele>
        <time>2022-06-02T02:35:30.000Z</time>
      </trkpt>
      <trkpt lat="45.19802" lon="5.72845">
        <ele>325.20001220703</ele>
        <time>2022-06-02T02:35:31.000Z</time>
      </trkpt>
      <trkpt lat="45.19804" lon="5.72846">
        <ele>325.39999389648</ele>
        <time>2022-06-02T02:35:32.000Z</time>
      </trkpt>
      <trkpt lat="45.19805" lon="5.72847">
        <ele>325.39999389648</ele>
        <time>2022-06-02T02:35:33.000Z</time>
      </trkpt>
      <trkpt lat="45.19807" lon="5.72848">
        <ele>326</ele>
        <time>2022-06-02T02:35:34.000Z</time>
      </trkpt>
      <trkpt lat="45.19809" lon="5.72848">
        <ele>326.39999389648</ele>
        <time>2022-06-02T02:35:35.000Z</time>
      </trkpt>
      <trkpt lat="45.1981" lon="5.72849">
        <ele>326.60000610352</ele>
        <time>2022-06-02T02:35:36.000Z</time>
      </trkpt>
      <trkpt lat="45.19812" lon="5.7285">
        <ele>326.79998779297</ele>
        <time>2022-06-02T02:35:37.000Z</time>
      </trkpt>
      <trkpt lat="45.19814" lon="5.72851">
        <ele>326.79998779297</ele>
        <time>2022-06-02T02:35:38.000Z</time>
      </trkpt>
      <trkpt lat="45.19815" lon="5.72852">
        <ele>327.20001220703</ele>
        <time>2022-06-02T02:35:39.000Z</time>
      </trkpt>
      <trkpt lat="45.19817" lon="5.72853">
        <ele>327.20001220703</ele>
        <time>2022-06-02T02:35:40.000Z</time>
      </trkpt>
      <trkpt lat="45.19819" lon="5.72854">
        <ele>327.60000610352</ele>
        <time>2022-06-02T02:35:41.000Z</time>
      </trkpt>
      <trkpt lat="45.1982" lon="5.72856">
        <ele>327.79998779297</ele>
        <time>2022-06-02T02:35:42.000Z</time>
      </trkpt>
      <trkpt lat="45.19822" lon="5.72857">
        <ele>327.79998779297</ele>
        <time>2022-06-02T02:35:43.000Z</time>
      </trkpt>
      <trkpt lat="45.19824" lon="5.72858">
        <ele>328</ele>
        <time>2022-06-02T02:35:44.000Z</time>
      </trkpt>
      <trkpt lat="45.19826" lon="5.72859">
        <ele>327.79998779297</ele>
        <time>2022-06-02T02:35:45.000Z</time>
      </trkpt>
      <trkpt lat="45.19828" lon="5.7286">
        <ele>327.39999389648</ele>
        <time>2022-06-02T02:35:46.000Z</time>
      </trkpt>
      <trkpt lat="45.19829" lon="5.7286">
        <ele>327.39999389648</ele>
        <time>2022-06-02T02:35:47.000Z</time>
      </trkpt>
      <trkpt lat="45.1983" lon="5.72859">
        <ele>327.60000610352</ele>
        <time>2022-06-02T02:35:48.000Z</time>
      </trkpt>
      <trkpt lat="45.1983" lon="5.72858">
        <ele>327.60000610352</ele>
        <time>2022-06-02T02:35:49.000Z</time>
      </trkpt>
      <trkpt lat="45.1983" lon="5.72857">
        <ele>327.79998779297</ele>
        <time>2022-06-02T02:35:50.000Z</time>
      </trkpt>
      <trkpt lat="45.19828" lon="5.72855">
        <ele>328</ele>
        <time>2022-06-02T02:35:51.000Z</time>
      </trkpt>
      <trkpt lat="45.19826" lon="5.72853">
        <ele>328</ele>
        <time>2022-06-02T02:35:52.000Z</time>
      </trkpt>
      <trkpt lat="45.19825" lon="5.72851">
        <ele>328</ele>
        <time>2022-06-02T02:35:53.000Z</time>
      </trkpt>
      <trkpt lat="45.19824" lon="5.7285">
        <ele>328</ele>
        <time>2022-06-02T02:35:54.000Z</time>
      </trkpt>
      <trkpt lat="45.19822" lon="5.72849">
        <ele>328</ele>
        <time>2022-06-02T02:35:55.000Z</time>
      </trkpt>
      <trkpt lat="45.1982" lon="5.72848">
        <ele>328.39999389648</ele>
        <time>2022-06-02T02:35:56.000Z</time>
      </trkpt>
      <trkpt lat="45.19818" lon="5.72846">
        <ele>328.60000610352</ele>
        <time>2022-06-02T02:35:57.000Z</time>
      </trkpt>
      <trkpt lat="45.19816" lon="5.72845">
        <ele>328.60000610352</ele>
        <time>2022-06-02T02:35:58.000Z</time>
      </trkpt>
      <trkpt lat="45.19814" lon="5.72844">
        <ele>328.39999389648</ele>
        <time>2022-06-02T02:35:59.000Z</time>
      </trkpt>
      <trkpt lat="45.19812" lon="5.72844">
        <ele>328.39999389648</ele>
        <time>2022-06-02T02:36:00.000Z</time>
      </trkpt>
      <trkpt lat="45.1981" lon="5.72843">
        <ele>328.39999389648</ele>
        <time>2022-06-02T02:36:01.000Z</time>
      </trkpt>
      <trkpt lat="45.19808" lon="5.72841">
        <ele>328.60000610352</ele>
        <time>2022-06-02T02:36:02.000Z</time>
      </trkpt>
      <trkpt lat="45.19806" lon="5.7284">
        <ele>329.79998779297</ele>
        <time>2022-06-02T02:36:03.000Z</time>
      </trkpt>
      <trkpt lat="45.19804" lon="5.72838">
        <ele>329.60000610352</ele>
        <time>2022-06-02T02:36:04.000Z</time>
      </trkpt>
      <trkpt lat="45.19802" lon="5.72836">
        <ele>329</ele>
        <time>2022-06-02T02:36:05.000Z</time>
      </trkpt>
      <trkpt lat="45.198" lon="5.72834">
        <ele>329.39999389648</ele>
        <time>2022-06-02T02:36:06.000Z</time>
      </trkpt>
      <trkpt lat="45.19798" lon="5.72833">
        <ele>329.20001220703</ele>
        <time>2022-06-02T02:36:07.000Z</time>
      </trkpt>
      <trkpt lat="45.19796" lon="5.72831">
        <ele>329.79998779297</ele>
        <time>2022-06-02T02:36:08.000Z</time>
      </trkpt>
      <trkpt lat="45.19795" lon="5.72829">
        <ele>330</ele>
        <time>2022-06-02T02:36:09.000Z</time>
      </trkpt>
      <trkpt lat="45.19793" lon="5.72828">
        <ele>330.39999389648</ele>
        <time>2022-06-02T02:36:10.000Z</time>
      </trkpt>
      <trkpt lat="45.19792" lon="5.72826">
        <ele>330.60000610352</ele>
        <time>2022-06-02T02:36:11.000Z</time>
      </trkpt>
      <trkpt lat="45.1979" lon="5.72824">
        <ele>330.79998779297</ele>
        <time>2022-06-02T02:36:12.000Z</time>
      </trkpt>
      <trkpt lat="45.19789" lon="5.72823">
        <ele>330</ele>
        <time>2022-06-02T02:36:13.000Z</time>
      </trkpt>
      <trkpt lat="45.19787" lon="5.72821">
        <ele>330.20001220703</ele>
        <time>2022-06-02T02:36:14.000Z</time>
      </trkpt>
      <trkpt lat="45.19786" lon="5.72818">
        <ele>330</ele>
        <time>2022-06-02T02:36:15.000Z</time>
      </trkpt>
      <trkpt lat="45.19787" lon="5.72815">
        <ele>330.39999389648</ele>
        <time>2022-06-02T02:36:16.000Z</time>
      </trkpt>
      <trkpt lat="45.19788" lon="5.72815">
        <ele>330.39999389648</ele>
        <time>2022-06-02T02:36:17.000Z</time>
      </trkpt>
      <trkpt lat="45.19789" lon="5.72814">
        <ele>330.39999389648</ele>
        <time>2022-06-02T02:36:18.000Z</time>
      </trkpt>
      <trkpt lat="45.19791" lon="5.72815">
        <ele>330.79998779297</ele>
        <time>2022-06-02T02:36:19.000Z</time>
      </trkpt>
      <trkpt lat="45.19793" lon="5.72816">
        <ele>330.79998779297</ele>
        <time>2022-06-02T02:36:20.000Z</time>
      </trkpt>
      <trkpt lat="45.19795" lon="5.72816">
        <ele>331</ele>
        <time>2022-06-02T02:36:21.000Z</time>
      </trkpt>
      <trkpt lat="45.19797" lon="5.72817">
        <ele>331.20001220703</ele>
        <time>2022-06-02T02:36:22.000Z</time>
      </trkpt>
      <trkpt lat="45.19798" lon="5.72818">
        <ele>331.39999389648</ele>
        <time>2022-06-02T02:36:23.000Z</time>
      </trkpt>
      <trkpt lat="45.198" lon="5.7282">
        <ele>331.20001220703</ele>
        <time>2022-06-02T02:36:24.000Z</time>
      </trkpt>
      <trkpt lat="45.19802" lon="5.72821">
        <ele>331.79998779297</ele>
        <time>2022-06-02T02:36:25.000Z</time>
      </trkpt>
      <trkpt lat="45.19803" lon="5.72822">
        <ele>332</ele>
        <time>2022-06-02T02:36:26.000Z</time>
      </trkpt>
      <trkpt lat="45.19804" lon="5.72823">
        <ele>332</ele>
        <time>2022-06-02T02:36:27.000Z</time>
      </trkpt>
      <trkpt lat="45.19806" lon="5.72824">
        <ele>332.20001220703</ele>
        <time>2022-06-02T02:36:28.000Z</time>
      </trkpt>
      <trkpt lat="45.19808" lon="5.72825">
        <ele>332.20001220703</ele>
        <time>2022-06-02T02:36:29.000Z</time>
      </trkpt>
      <trkpt lat="45.19809" lon="5.72826">
        <ele>332.60000610352</ele>
        <time>2022-06-02T02:36:30.000Z</time>
      </trkpt>
      <trkpt lat="45.19811" lon="5.72827">
        <ele>332.79998779297</ele>
        <time>2022-06-02T02:36:31.000Z</time>
      </trkpt>
      <trkpt lat="45.19812" lon="5.72828">
        <ele>332.79998779297</ele>
        <time>2022-06-02T02:36:32.000Z</time>
      </trkpt>
      <trkpt lat="45.19814" lon="5.72829">
        <ele>333.20001220703</ele>
        <time>2022-06-02T02:36:33.000Z</time>
      </trkpt>
      <trkpt lat="45.19815" lon="5.7283">
        <ele>333.20001220703</ele>
        <time>2022-06-02T02:36:34.000Z</time>
      </trkpt>
      <trkpt lat="45.19817" lon="5.72831">
        <ele>333.60000610352</ele>
        <time>2022-06-02T02:36:35.000Z</time>
      </trkpt>
      <trkpt lat="45.19818" lon="5.72832">
        <ele>333.60000610352</ele>
        <time>2022-06-02T02:36:36.000Z</time>
      </trkpt>
      <trkpt lat="45.19819" lon="5.72834">
        <ele>333.60000610352</ele>
        <time>2022-06-02T02:36:37.000Z</time>
      </trkpt>
      <trkpt lat="45.1982" lon="5.72835">
        <ele>334</ele>
        <time>2022-06-02T02:36:38.000Z</time>
      </trkpt>
      <trkpt lat="45.19821" lon="5.72836">
        <ele>334</ele>
        <time>2022-06-02T02:36:39.000Z</time>
      </trkpt>
      <trkpt lat="45.19823" lon="5.72837">
        <ele>334.20001220703</ele>
        <time>2022-06-02T02:36:40.000Z</time>
      </trkpt>
      <trkpt lat="45.19824" lon="5.72838">
        <ele>334.39999389648</ele>
        <time>2022-06-02T02:36:41.000Z</time>
      </trkpt>
      <trkpt lat="45.19826" lon="5.72839">
        <ele>334.60000610352</ele>
        <time>2022-06-02T02:36:42.000Z</time>
      </trkpt>
      <trkpt lat="45.19828" lon="5.7284">
        <ele>334.79998779297</ele>
        <time>2022-06-02T02:36:43.000Z</time>
      </trkpt>
      <trkpt lat="45.19829" lon="5.7284">
        <ele>335</ele>
        <time>2022-06-02T02:36:44.000Z</time>
      </trkpt>
      <trkpt lat="45.19831" lon="5.72841">
        <ele>335.20001220703</ele>
        <time>2022-06-02T02:36:45.000Z</time>
      </trkpt>
      <trkpt lat="45.19833" lon="5.72842">
        <ele>335.39999389648</ele>
        <time>2022-06-02T02:36:46.000Z</time>
      </trkpt>
      <trkpt lat="45.19835" lon="5.72843">
        <ele>335.39999389648</ele>
        <time>2022-06-02T02:36:47.000Z</time>
      </trkpt>
      <trkpt lat="45.19837" lon="5.72844">
        <ele>335.60000610352</ele>
        <time>2022-06-02T02:36:48.000Z</time>
      </trkpt>
      <trkpt lat="45.19839" lon="5.72845">
        <ele>335.60000610352</ele>
        <time>2022-06-02T02:36:49.000Z</time>
      </trkpt>
      <trkpt lat="45.19841" lon="5.72846">
        <ele>335.39999389648</ele>
        <time>2022-06-02T02:36:50.000Z</time>
      </trkpt>
      <trkpt lat="45.19843" lon="5.72847">
        <ele>335.60000610352</ele>
        <time>2022-06-02T02:36:51.000Z</time>
      </trkpt>
      <trkpt lat="45.19845" lon="5.72848">
        <ele>335.20001220703</ele>
        <time>2022-06-02T02:36:52.000Z</time>
      </trkpt>
      <trkpt lat="45.19846" lon="5.72849">
        <ele>335.20001220703</ele>
        <time>2022-06-02T02:36:53.000Z</time>
      </trkpt>
      <trkpt lat="45.19848" lon="5.72851">
        <ele>335.20001220703</ele>
        <time>2022-06-02T02:36:54.000Z</time>
      </trkpt>
      <trkpt lat="45.1985" lon="5.72853">
        <ele>334.60000610352</ele>
        <time>2022-06-02T02:36:55.000Z</time>
      </trkpt>
      <trkpt lat="45.19851" lon="5.72855">
        <ele>334.79998779297</ele>
        <time>2022-06-02T02:36:56.000Z</time>
      </trkpt>
      <trkpt lat="45.19853" lon="5.72856">
        <ele>335.20001220703</ele>
        <time>2022-06-02T02:36:57.000Z</time>
      </trkpt>
      <trkpt lat="45.19854" lon="5.72857">
        <ele>335.20001220703</ele>
        <time>2022-06-02T02:36:58.000Z</time>
      </trkpt>
      <trkpt lat="45.19854" lon="5.72858">
        <ele>335.39999389648</ele>
        <time>2022-06-02T02:36:59.000Z</time>
      </trkpt>
      <trkpt lat="45.19855" lon="5.7286">
        <ele>335.60000610352</ele>
        <time>2022-06-02T02:37:00.000Z</time>
      </trkpt>
      <trkpt lat="45.19856" lon="5.7286">
        <ele>335.39999389648</ele>
        <time>2022-06-02T02:37:01.000Z</time>
      </trkpt>
      <trkpt lat="45.19857" lon="5.72861">
        <ele>335.60000610352</ele>
        <time>2022-06-02T02:37:02.000Z</time>
      </trkpt>
      <trkpt lat="45.19858" lon="5.72862">
        <ele>335.79998779297</ele>
        <time>2022-06-02T02:37:03.000Z</time>
      </trkpt>
      <trkpt lat="45.1986" lon="5.72863">
        <ele>335.20001220703</ele>
        <time>2022-06-02T02:37:04.000Z</time>
      </trkpt>
      <trkpt lat="45.19862" lon="5.72864">
        <ele>335.39999389648</ele>
        <time>2022-06-02T02:37:05.000Z</time>
      </trkpt>
      <trkpt lat="45.19863" lon="5.72866">
        <ele>335.20001220703</ele>
        <time>2022-06-02T02:37:06.000Z</time>
      </trkpt>
      <trkpt lat="45.19863" lon="5.72866">
        <ele>335.20001220703</ele>
        <time>2022-06-02T02:37:07.000Z</time>
      </trkpt>
      <trkpt lat="45.19863" lon="5.72867">
        <ele>335.20001220703</ele>
        <time>2022-06-02T02:37:08.000Z</time>
      </trkpt>
      <trkpt lat="45.19863" lon="5.72867">
        <ele>335</ele>
        <time>2022-06-02T02:37:09.000Z</time>
      </trkpt>
      <trkpt lat="45.19863" lon="5.72867">
        <ele>335.20001220703</ele>
        <time>2022-06-02T02:37:10.000Z</time>
      </trkpt>
      <trkpt lat="45.19863" lon="5.72867">
        <ele>335.20001220703</ele>
        <time>2022-06-02T02:37:11.000Z</time>
      </trkpt>
      <trkpt lat="45.19863" lon="5.72868">
        <ele>335.20001220703</ele>
        <time>2022-06-02T02:37:12.000Z</time>
      </trkpt>
      <trkpt lat="45.19863" lon="5.72868">
        <ele>335.20001220703</ele>
        <time>2022-06-02T02:37:13.000Z</time>
      </trkpt>
      <trkpt lat="45.19863" lon="5.72868">
        <ele>335.20001220703</ele>
        <time>2022-06-02T02:37:14.000Z</time>
      </trkpt>
      <trkpt lat="45.19863" lon="5.72868">
        <ele>335.20001220703</ele>
        <time>2022-06-02T02:37:15.000Z</time>
      </trkpt>
      <trkpt lat="45.19863" lon="5.72868">
        <ele>335.20001220703</ele>
        <time>2022-06-02T02:37:16.000Z</time>
      </trkpt>
      <trkpt lat="45.19863" lon="5.72868">
        <ele>335.20001220703</ele>
        <time>2022-06-02T02:37:17.000Z</time>
      </trkpt>
      <trkpt lat="45.19863" lon="5.72869">
        <ele>335</ele>
        <time>2022-06-02T02:37:18.000Z</time>
      </trkpt>
      <trkpt lat="45.19863" lon="5.72869">
        <ele>335</ele>
        <time>2022-06-02T02:37:19.000Z</time>
      </trkpt>
      <trkpt lat="45.19863" lon="5.72869">
        <ele>335</ele>
        <time>2022-06-02T02:37:20.000Z</time>
      </trkpt>
      <trkpt lat="45.19863" lon="5.72869">
        <ele>335.20001220703</ele>
        <time>2022-06-02T02:37:21.000Z</time>
      </trkpt>
      <trkpt lat="45.19863" lon="5.72868">
        <ele>335</ele>
        <time>2022-06-02T02:37:22.000Z</time>
      </trkpt>
      <trkpt lat="45.19863" lon="5.72868">
        <ele>334.79998779297</ele>
        <time>2022-06-02T02:37:23.000Z</time>
      </trkpt>
      <trkpt lat="45.19863" lon="5.72868">
        <ele>334.79998779297</ele>
        <time>2022-06-02T02:37:24.000Z</time>
      </trkpt>
      <trkpt lat="45.19863" lon="5.72868">
        <ele>334.79998779297</ele>
        <time>2022-06-02T02:37:25.000Z</time>
      </trkpt>
      <trkpt lat="45.19863" lon="5.72868">
        <ele>335</ele>
        <time>2022-06-02T02:37:26.000Z</time>
      </trkpt>
      <trkpt lat="45.19863" lon="5.72868">
        <ele>335</ele>
        <time>2022-06-02T02:37:27.000Z</time>
      </trkpt>
      <trkpt lat="45.19863" lon="5.72868">
        <ele>334.79998779297</ele>
        <time>2022-06-02T02:37:28.000Z</time>
      </trkpt>
      <trkpt lat="45.19863" lon="5.72868">
        <ele>334.79998779297</ele>
        <time>2022-06-02T02:37:29.000Z</time>
      </trkpt>
      <trkpt lat="45.19863" lon="5.72868">
        <ele>334.79998779297</ele>
        <time>2022-06-02T02:37:30.000Z</time>
      </trkpt>
      <trkpt lat="45.19863" lon="5.72867">
        <ele>335</ele>
        <time>2022-06-02T02:37:31.000Z</time>
      </trkpt>
      <trkpt lat="45.19864" lon="5.72868">
        <ele>335</ele>
        <time>2022-06-02T02:37:32.000Z</time>
      </trkpt>
      <trkpt lat="45.19863" lon="5.72867">
        <ele>335.20001220703</ele>
        <time>2022-06-02T02:37:33.000Z</time>
      </trkpt>
      <trkpt lat="45.19863" lon="5.72864">
        <ele>335.20001220703</ele>
        <time>2022-06-02T02:37:34.000Z</time>
      </trkpt>
      <trkpt lat="45.19862" lon="5.72862">
        <ele>335</ele>
        <time>2022-06-02T02:37:35.000Z</time>
      </trkpt>
      <trkpt lat="45.1986" lon="5.7286">
        <ele>335.20001220703</ele>
        <time>2022-06-02T02:37:36.000Z</time>
      </trkpt>
      <trkpt lat="45.19858" lon="5.72858">
        <ele>334.79998779297</ele>
        <time>2022-06-02T02:37:37.000Z</time>
      </trkpt>
      <trkpt lat="45.19856" lon="5.72856">
        <ele>335.39999389648</ele>
        <time>2022-06-02T02:37:38.000Z</time>
      </trkpt>
      <trkpt lat="45.19855" lon="5.72854">
        <ele>335.20001220703</ele>
        <time>2022-06-02T02:37:39.000Z</time>
      </trkpt>
      <trkpt lat="45.19853" lon="5.72851">
        <ele>335</ele>
        <time>2022-06-02T02:37:40.000Z</time>
      </trkpt>
      <trkpt lat="45.19851" lon="5.72849">
        <ele>335</ele>
        <time>2022-06-02T02:37:41.000Z</time>
      </trkpt>
      <trkpt lat="45.19849" lon="5.72847">
        <ele>335</ele>
        <time>2022-06-02T02:37:42.000Z</time>
      </trkpt>
      <trkpt lat="45.19847" lon="5.72845">
        <ele>335</ele>
        <time>2022-06-02T02:37:43.000Z</time>
      </trkpt>
      <trkpt lat="45.19844" lon="5.72843">
        <ele>335</ele>
        <time>2022-06-02T02:37:44.000Z</time>
      </trkpt>
      <trkpt lat="45.19842" lon="5.72841">
        <ele>335.60000610352</ele>
        <time>2022-06-02T02:37:45.000Z</time>
      </trkpt>
      <trkpt lat="45.1984" lon="5.7284">
        <ele>335.20001220703</ele>
        <time>2022-06-02T02:37:46.000Z</time>
      </trkpt>
      <trkpt lat="45.19838" lon="5.72838">
        <ele>335.20001220703</ele>
        <time>2022-06-02T02:37:47.000Z</time>
      </trkpt>
      <trkpt lat="45.19836" lon="5.72836">
        <ele>335.79998779297</ele>
        <time>2022-06-02T02:37:48.000Z</time>
      </trkpt>
      <trkpt lat="45.19834" lon="5.72835">
        <ele>335.79998779297</ele>
        <time>2022-06-02T02:37:49.000Z</time>
      </trkpt>
      <trkpt lat="45.19832" lon="5.72833">
        <ele>335.79998779297</ele>
        <time>2022-06-02T02:37:50.000Z</time>
      </trkpt>
      <trkpt lat="45.19829" lon="5.72832">
        <ele>335.79998779297</ele>
        <time>2022-06-02T02:37:51.000Z</time>
      </trkpt>
      <trkpt lat="45.19827" lon="5.72831">
        <ele>336.20001220703</ele>
        <time>2022-06-02T02:37:52.000Z</time>
      </trkpt>
      <trkpt lat="45.19826" lon="5.7283">
        <ele>336.39999389648</ele>
        <time>2022-06-02T02:37:53.000Z</time>
      </trkpt>
      <trkpt lat="45.19824" lon="5.72828">
        <ele>335.79998779297</ele>
        <time>2022-06-02T02:37:54.000Z</time>
      </trkpt>
      <trkpt lat="45.19822" lon="5.72828">
        <ele>336.20001220703</ele>
        <time>2022-06-02T02:37:55.000Z</time>
      </trkpt>
      <trkpt lat="45.1982" lon="5.72827">
        <ele>337.20001220703</ele>
        <time>2022-06-02T02:37:56.000Z</time>
      </trkpt>
      <trkpt lat="45.19818" lon="5.72826">
        <ele>337.20001220703</ele>
        <time>2022-06-02T02:37:57.000Z</time>
      </trkpt>
      <trkpt lat="45.19816" lon="5.72825">
        <ele>337.39999389648</ele>
        <time>2022-06-02T02:37:58.000Z</time>
      </trkpt>
      <trkpt lat="45.19814" lon="5.72823">
        <ele>338.20001220703</ele>
        <time>2022-06-02T02:37:59.000Z</time>
      </trkpt>
      <trkpt lat="45.19813" lon="5.72821">
        <ele>338</ele>
        <time>2022-06-02T02:38:00.000Z</time>
      </trkpt>
      <trkpt lat="45.19812" lon="5.72819">
        <ele>337.60000610352</ele>
        <time>2022-06-02T02:38:01.000Z</time>
      </trkpt>
      <trkpt lat="45.19812" lon="5.72817">
        <ele>337.20001220703</ele>
        <time>2022-06-02T02:38:02.000Z</time>
      </trkpt>
      <trkpt lat="45.19813" lon="5.72817">
        <ele>337.60000610352</ele>
        <time>2022-06-02T02:38:03.000Z</time>
      </trkpt>
      <trkpt lat="45.19815" lon="5.72818">
        <ele>338</ele>
        <time>2022-06-02T02:38:04.000Z</time>
      </trkpt>
      <trkpt lat="45.19818" lon="5.72819">
        <ele>338.20001220703</ele>
        <time>2022-06-02T02:38:05.000Z</time>
      </trkpt>
      <trkpt lat="45.1982" lon="5.7282">
        <ele>338.20001220703</ele>
        <time>2022-06-02T02:38:06.000Z</time>
      </trkpt>
      <trkpt lat="45.19822" lon="5.72821">
        <ele>338.79998779297</ele>
        <time>2022-06-02T02:38:07.000Z</time>
      </trkpt>
      <trkpt lat="45.19824" lon="5.72822">
        <ele>339</ele>
        <time>2022-06-02T02:38:08.000Z</time>
      </trkpt>
      <trkpt lat="45.19825" lon="5.72822">
        <ele>339.39999389648</ele>
        <time>2022-06-02T02:38:09.000Z</time>
      </trkpt>
      <trkpt lat="45.19827" lon="5.72824">
        <ele>339.39999389648</ele>
        <time>2022-06-02T02:38:10.000Z</time>
      </trkpt>
      <trkpt lat="45.19828" lon="5.72825">
        <ele>339.79998779297</ele>
        <time>2022-06-02T02:38:11.000Z</time>
      </trkpt>
      <trkpt lat="45.1983" lon="5.72827">
        <ele>340</ele>
        <time>2022-06-02T02:38:12.000Z</time>
      </trkpt>
      <trkpt lat="45.19832" lon="5.72828">
        <ele>340.20001220703</ele>
        <time>2022-06-02T02:38:13.000Z</time>
      </trkpt>
      <trkpt lat="45.19834" lon="5.7283">
        <ele>340.39999389648</ele>
        <time>2022-06-02T02:38:14.000Z</time>
      </trkpt>
      <trkpt lat="45.19835" lon="5.72832">
        <ele>340.39999389648</ele>
        <time>2022-06-02T02:38:15.000Z</time>
      </trkpt>
      <trkpt lat="45.19837" lon="5.72833">
        <ele>340.60000610352</ele>
        <time>2022-06-02T02:38:16.000Z</time>
      </trkpt>
      <trkpt lat="45.19839" lon="5.72834">
        <ele>340.60000610352</ele>
        <time>2022-06-02T02:38:17.000Z</time>
      </trkpt>
      <trkpt lat="45.19841" lon="5.72835">
        <ele>341</ele>
        <time>2022-06-02T02:38:18.000Z</time>
      </trkpt>
      <trkpt lat="45.19843" lon="5.72836">
        <ele>341.20001220703</ele>
        <time>2022-06-02T02:38:19.000Z</time>
      </trkpt>
      <trkpt lat="45.19845" lon="5.72837">
        <ele>341.60000610352</ele>
        <time>2022-06-02T02:38:20.000Z</time>
      </trkpt>
      <trkpt lat="45.19847" lon="5.72838">
        <ele>341.79998779297</ele>
        <time>2022-06-02T02:38:21.000Z</time>
      </trkpt>
      <trkpt lat="45.19849" lon="5.72839">
        <ele>341.79998779297</ele>
        <time>2022-06-02T02:38:22.000Z</time>
      </trkpt>
      <trkpt lat="45.1985" lon="5.7284">
        <ele>342</ele>
        <time>2022-06-02T02:38:23.000Z</time>
      </trkpt>
      <trkpt lat="45.19852" lon="5.72842">
        <ele>341.79998779297</ele>
        <time>2022-06-02T02:38:24.000Z</time>
      </trkpt>
      <trkpt lat="45.19854" lon="5.72843">
        <ele>342</ele>
        <time>2022-06-02T02:38:25.000Z</time>
      </trkpt>
      <trkpt lat="45.19856" lon="5.72844">
        <ele>341.79998779297</ele>
        <time>2022-06-02T02:38:26.000Z</time>
      </trkpt>
      <trkpt lat="45.19858" lon="5.72846">
        <ele>341.79998779297</ele>
        <time>2022-06-02T02:38:27.000Z</time>
      </trkpt>
      <trkpt lat="45.19859" lon="5.72848">
        <ele>342.20001220703</ele>
        <time>2022-06-02T02:38:28.000Z</time>
      </trkpt>
      <trkpt lat="45.19862" lon="5.72849">
        <ele>342</ele>
        <time>2022-06-02T02:38:29.000Z</time>
      </trkpt>
      <trkpt lat="45.19863" lon="5.7285">
        <ele>342.20001220703</ele>
        <time>2022-06-02T02:38:30.000Z</time>
      </trkpt>
      <trkpt lat="45.19864" lon="5.7285">
        <ele>341.79998779297</ele>
        <time>2022-06-02T02:38:31.000Z</time>
      </trkpt>
      <trkpt lat="45.19865" lon="5.7285">
        <ele>341.79998779297</ele>
        <time>2022-06-02T02:38:32.000Z</time>
      </trkpt>
      <trkpt lat="45.19864" lon="5.7285">
        <ele>341.60000610352</ele>
        <time>2022-06-02T02:38:33.000Z</time>
      </trkpt>
      <trkpt lat="45.19862" lon="5.72849">
        <ele>342.20001220703</ele>
        <time>2022-06-02T02:38:34.000Z</time>
      </trkpt>
      <trkpt lat="45.1986" lon="5.72848">
        <ele>341.39999389648</ele>
        <time>2022-06-02T02:38:35.000Z</time>
      </trkpt>
      <trkpt lat="45.19858" lon="5.72846">
        <ele>342</ele>
        <time>2022-06-02T02:38:36.000Z</time>
      </trkpt>
      <trkpt lat="45.19856" lon="5.72845">
        <ele>342.20001220703</ele>
        <time>2022-06-02T02:38:37.000Z</time>
      </trkpt>
      <trkpt lat="45.19855" lon="5.72843">
        <ele>341.60000610352</ele>
        <time>2022-06-02T02:38:38.000Z</time>
      </trkpt>
      <trkpt lat="45.19853" lon="5.72841">
        <ele>341.79998779297</ele>
        <time>2022-06-02T02:38:39.000Z</time>
      </trkpt>
      <trkpt lat="45.19851" lon="5.72838">
        <ele>341.60000610352</ele>
        <time>2022-06-02T02:38:40.000Z</time>
      </trkpt>
      <trkpt lat="45.1985" lon="5.72836">
        <ele>341.60000610352</ele>
        <time>2022-06-02T02:38:41.000Z</time>
      </trkpt>
      <trkpt lat="45.19848" lon="5.72833">
        <ele>342</ele>
        <time>2022-06-02T02:38:42.000Z</time>
      </trkpt>
      <trkpt lat="45.19845" lon="5.72831">
        <ele>341.60000610352</ele>
        <time>2022-06-02T02:38:43.000Z</time>
      </trkpt>
      <trkpt lat="45.19843" lon="5.72829">
        <ele>342</ele>
        <time>2022-06-02T02:38:44.000Z</time>
      </trkpt>
      <trkpt lat="45.19841" lon="5.72828">
        <ele>342</ele>
        <time>2022-06-02T02:38:45.000Z</time>
      </trkpt>
      <trkpt lat="45.1984" lon="5.72826">
        <ele>342.60000610352</ele>
        <time>2022-06-02T02:38:46.000Z</time>
      </trkpt>
      <trkpt lat="45.19838" lon="5.72825">
        <ele>342.60000610352</ele>
        <time>2022-06-02T02:38:47.000Z</time>
      </trkpt>
      <trkpt lat="45.19836" lon="5.72824">
        <ele>343</ele>
        <time>2022-06-02T02:38:48.000Z</time>
      </trkpt>
      <trkpt lat="45.19835" lon="5.72822">
        <ele>343</ele>
        <time>2022-06-02T02:38:49.000Z</time>
      </trkpt>
      <trkpt lat="45.19833" lon="5.7282">
        <ele>343</ele>
        <time>2022-06-02T02:38:50.000Z</time>
      </trkpt>
      <trkpt lat="45.19832" lon="5.72818">
        <ele>343.39999389648</ele>
        <time>2022-06-02T02:38:51.000Z</time>
      </trkpt>
      <trkpt lat="45.1983" lon="5.72817">
        <ele>344</ele>
        <time>2022-06-02T02:38:52.000Z</time>
      </trkpt>
      <trkpt lat="45.19829" lon="5.72816">
        <ele>344</ele>
        <time>2022-06-02T02:38:53.000Z</time>
      </trkpt>
      <trkpt lat="45.19827" lon="5.72814">
        <ele>344.39999389648</ele>
        <time>2022-06-02T02:38:54.000Z</time>
      </trkpt>
      <trkpt lat="45.19826" lon="5.72812">
        <ele>344.79998779297</ele>
        <time>2022-06-02T02:38:55.000Z</time>
      </trkpt>
      <trkpt lat="45.19824" lon="5.72811">
        <ele>345</ele>
        <time>2022-06-02T02:38:56.000Z</time>
      </trkpt>
      <trkpt lat="45.19823" lon="5.72809">
        <ele>345.39999389648</ele>
        <time>2022-06-02T02:38:57.000Z</time>
      </trkpt>
      <trkpt lat="45.19822" lon="5.72809">
        <ele>345.39999389648</ele>
        <time>2022-06-02T02:38:58.000Z</time>
      </trkpt>
      <trkpt lat="45.1982" lon="5.72807">
        <ele>345.79998779297</ele>
        <time>2022-06-02T02:38:59.000Z</time>
      </trkpt>
      <trkpt lat="45.19819" lon="5.72806">
        <ele>346.20001220703</ele>
        <time>2022-06-02T02:39:00.000Z</time>
      </trkpt>
      <trkpt lat="45.19817" lon="5.72805">
        <ele>346.60000610352</ele>
        <time>2022-06-02T02:39:01.000Z</time>
      </trkpt>
      <trkpt lat="45.19816" lon="5.72803">
        <ele>346.39999389648</ele>
        <time>2022-06-02T02:39:02.000Z</time>
      </trkpt>
      <trkpt lat="45.19814" lon="5.72803">
        <ele>346.60000610352</ele>
        <time>2022-06-02T02:39:03.000Z</time>
      </trkpt>
      <trkpt lat="45.19813" lon="5.72801">
        <ele>346.79998779297</ele>
        <time>2022-06-02T02:39:04.000Z</time>
      </trkpt>
      <trkpt lat="45.19811" lon="5.728">
        <ele>347</ele>
        <time>2022-06-02T02:39:05.000Z</time>
      </trkpt>
      <trkpt lat="45.1981" lon="5.72799">
        <ele>347</ele>
        <time>2022-06-02T02:39:06.000Z</time>
      </trkpt>
      <trkpt lat="45.19808" lon="5.72797">
        <ele>347.60000610352</ele>
        <time>2022-06-02T02:39:07.000Z</time>
      </trkpt>
      <trkpt lat="45.19807" lon="5.72796">
        <ele>347.20001220703</ele>
        <time>2022-06-02T02:39:08.000Z</time>
      </trkpt>
      <trkpt lat="45.19805" lon="5.72795">
        <ele>347.79998779297</ele>
        <time>2022-06-02T02:39:09.000Z</time>
      </trkpt>
      <trkpt lat="45.19803" lon="5.72793">
        <ele>347.79998779297</ele>
        <time>2022-06-02T02:39:10.000Z</time>
      </trkpt>
      <trkpt lat="45.19802" lon="5.72792">
        <ele>347.60000610352</ele>
        <time>2022-06-02T02:39:11.000Z</time>
      </trkpt>
      <trkpt lat="45.198" lon="5.7279">
        <ele>347.79998779297</ele>
        <time>2022-06-02T02:39:12.000Z</time>
      </trkpt>
      <trkpt lat="45.19798" lon="5.72789">
        <ele>348</ele>
        <time>2022-06-02T02:39:13.000Z</time>
      </trkpt>
      <trkpt lat="45.19797" lon="5.72788">
        <ele>347.79998779297</ele>
        <time>2022-06-02T02:39:14.000Z</time>
      </trkpt>
      <trkpt lat="45.19796" lon="5.72786">
        <ele>348.20001220703</ele>
        <time>2022-06-02T02:39:15.000Z</time>
      </trkpt>
      <trkpt lat="45.19794" lon="5.72784">
        <ele>348.20001220703</ele>
        <time>2022-06-02T02:39:16.000Z</time>
      </trkpt>
      <trkpt lat="45.19794" lon="5.72782">
        <ele>348.79998779297</ele>
        <time>2022-06-02T02:39:17.000Z</time>
      </trkpt>
      <trkpt lat="45.19795" lon="5.72782">
        <ele>348.60000610352</ele>
        <time>2022-06-02T02:39:18.000Z</time>
      </trkpt>
      <trkpt lat="45.19796" lon="5.72781">
        <ele>348.39999389648</ele>
        <time>2022-06-02T02:39:19.000Z</time>
      </trkpt>
      <trkpt lat="45.19797" lon="5.72781">
        <ele>348.60000610352</ele>
        <time>2022-06-02T02:39:20.000Z</time>
      </trkpt>
      <trkpt lat="45.19799" lon="5.72781">
        <ele>348.79998779297</ele>
        <time>2022-06-02T02:39:21.000Z</time>
      </trkpt>
      <trkpt lat="45.198" lon="5.72782">
        <ele>349.60000610352</ele>
        <time>2022-06-02T02:39:22.000Z</time>
      </trkpt>
      <trkpt lat="45.19802" lon="5.72784">
        <ele>349.60000610352</ele>
        <time>2022-06-02T02:39:23.000Z</time>
      </trkpt>
      <trkpt lat="45.19804" lon="5.72785">
        <ele>349.79998779297</ele>
        <time>2022-06-02T02:39:24.000Z</time>
      </trkpt>
      <trkpt lat="45.19806" lon="5.72786">
        <ele>349.79998779297</ele>
        <time>2022-06-02T02:39:25.000Z</time>
      </trkpt>
      <trkpt lat="45.19807" lon="5.72787">
        <ele>349.60000610352</ele>
        <time>2022-06-02T02:39:26.000Z</time>
      </trkpt>
      <trkpt lat="45.19809" lon="5.72788">
        <ele>350.20001220703</ele>
        <time>2022-06-02T02:39:27.000Z</time>
      </trkpt>
      <trkpt lat="45.1981" lon="5.72789">
        <ele>350.39999389648</ele>
        <time>2022-06-02T02:39:28.000Z</time>
      </trkpt>
      <trkpt lat="45.19812" lon="5.7279">
        <ele>350.20001220703</ele>
        <time>2022-06-02T02:39:29.000Z</time>
      </trkpt>
      <trkpt lat="45.19813" lon="5.72791">
        <ele>350.79998779297</ele>
        <time>2022-06-02T02:39:30.000Z</time>
      </trkpt>
      <trkpt lat="45.19815" lon="5.72792">
        <ele>351</ele>
        <time>2022-06-02T02:39:31.000Z</time>
      </trkpt>
      <trkpt lat="45.19817" lon="5.72793">
        <ele>351.60000610352</ele>
        <time>2022-06-02T02:39:32.000Z</time>
      </trkpt>
      <trkpt lat="45.19818" lon="5.72794">
        <ele>351.60000610352</ele>
        <time>2022-06-02T02:39:33.000Z</time>
      </trkpt>
      <trkpt lat="45.19819" lon="5.72795">
        <ele>351.79998779297</ele>
        <time>2022-06-02T02:39:34.000Z</time>
      </trkpt>
      <trkpt lat="45.1982" lon="5.72797">
        <ele>352</ele>
        <time>2022-06-02T02:39:35.000Z</time>
      </trkpt>
      <trkpt lat="45.19822" lon="5.72798">
        <ele>352.20001220703</ele>
        <time>2022-06-02T02:39:36.000Z</time>
      </trkpt>
      <trkpt lat="45.19824" lon="5.728">
        <ele>352.20001220703</ele>
        <time>2022-06-02T02:39:37.000Z</time>
      </trkpt>
      <trkpt lat="45.19826" lon="5.72801">
        <ele>352.60000610352</ele>
        <time>2022-06-02T02:39:38.000Z</time>
      </trkpt>
      <trkpt lat="45.19828" lon="5.72803">
        <ele>352.79998779297</ele>
        <time>2022-06-02T02:39:39.000Z</time>
      </trkpt>
      <trkpt lat="45.1983" lon="5.72804">
        <ele>352.79998779297</ele>
        <time>2022-06-02T02:39:40.000Z</time>
      </trkpt>
      <trkpt lat="45.19832" lon="5.72805">
        <ele>353</ele>
        <time>2022-06-02T02:39:41.000Z</time>
      </trkpt>
      <trkpt lat="45.19834" lon="5.72806">
        <ele>353.20001220703</ele>
        <time>2022-06-02T02:39:42.000Z</time>
      </trkpt>
      <trkpt lat="45.19836" lon="5.72807">
        <ele>353.39999389648</ele>
        <time>2022-06-02T02:39:43.000Z</time>
      </trkpt>
      <trkpt lat="45.19838" lon="5.72808">
        <ele>353.79998779297</ele>
        <time>2022-06-02T02:39:44.000Z</time>
      </trkpt>
      <trkpt lat="45.19839" lon="5.72808">
        <ele>354</ele>
        <time>2022-06-02T02:39:45.000Z</time>
      </trkpt>
      <trkpt lat="45.19841" lon="5.72809">
        <ele>354.60000610352</ele>
        <time>2022-06-02T02:39:46.000Z</time>
      </trkpt>
      <trkpt lat="45.19843" lon="5.7281">
        <ele>354.60000610352</ele>
        <time>2022-06-02T02:39:47.000Z</time>
      </trkpt>
      <trkpt lat="45.19845" lon="5.72811">
        <ele>354.79998779297</ele>
        <time>2022-06-02T02:39:48.000Z</time>
      </trkpt>
      <trkpt lat="45.19847" lon="5.72813">
        <ele>354.79998779297</ele>
        <time>2022-06-02T02:39:49.000Z</time>
      </trkpt>
      <trkpt lat="45.19848" lon="5.72815">
        <ele>354.79998779297</ele>
        <time>2022-06-02T02:39:50.000Z</time>
      </trkpt>
      <trkpt lat="45.1985" lon="5.72815">
        <ele>354.79998779297</ele>
        <time>2022-06-02T02:39:51.000Z</time>
      </trkpt>
      <trkpt lat="45.19852" lon="5.72814">
        <ele>355</ele>
        <time>2022-06-02T02:39:52.000Z</time>
      </trkpt>
      <trkpt lat="45.19852" lon="5.72813">
        <ele>355.39999389648</ele>
        <time>2022-06-02T02:39:53.000Z</time>
      </trkpt>
      <trkpt lat="45.19852" lon="5.72812">
        <ele>355</ele>
        <time>2022-06-02T02:39:54.000Z</time>
      </trkpt>
      <trkpt lat="45.19851" lon="5.7281">
        <ele>355</ele>
        <time>2022-06-02T02:39:55.000Z</time>
      </trkpt>
      <trkpt lat="45.19849" lon="5.72808">
        <ele>355</ele>
        <time>2022-06-02T02:39:56.000Z</time>
      </trkpt>
      <trkpt lat="45.19847" lon="5.72807">
        <ele>355.20001220703</ele>
        <time>2022-06-02T02:39:57.000Z</time>
      </trkpt>
      <trkpt lat="45.19845" lon="5.72805">
        <ele>355</ele>
        <time>2022-06-02T02:39:58.000Z</time>
      </trkpt>
      <trkpt lat="45.19844" lon="5.72804">
        <ele>355.39999389648</ele>
        <time>2022-06-02T02:39:59.000Z</time>
      </trkpt>
      <trkpt lat="45.19842" lon="5.72803">
        <ele>356</ele>
        <time>2022-06-02T02:40:00.000Z</time>
      </trkpt>
      <trkpt lat="45.19841" lon="5.72802">
        <ele>356</ele>
        <time>2022-06-02T02:40:01.000Z</time>
      </trkpt>
      <trkpt lat="45.19839" lon="5.72801">
        <ele>356.39999389648</ele>
        <time>2022-06-02T02:40:02.000Z</time>
      </trkpt>
      <trkpt lat="45.19837" lon="5.728">
        <ele>357</ele>
        <time>2022-06-02T02:40:03.000Z</time>
      </trkpt>
      <trkpt lat="45.19836" lon="5.72798">
        <ele>357</ele>
        <time>2022-06-02T02:40:04.000Z</time>
      </trkpt>
      <trkpt lat="45.19835" lon="5.72796">
        <ele>357</ele>
        <time>2022-06-02T02:40:05.000Z</time>
      </trkpt>
      <trkpt lat="45.19833" lon="5.72795">
        <ele>357.20001220703</ele>
        <time>2022-06-02T02:40:06.000Z</time>
      </trkpt>
      <trkpt lat="45.19831" lon="5.72793">
        <ele>357.60000610352</ele>
        <time>2022-06-02T02:40:07.000Z</time>
      </trkpt>
      <trkpt lat="45.1983" lon="5.72792">
        <ele>358</ele>
        <time>2022-06-02T02:40:08.000Z</time>
      </trkpt>
      <trkpt lat="45.19828" lon="5.7279">
        <ele>358.39999389648</ele>
        <time>2022-06-02T02:40:09.000Z</time>
      </trkpt>
      <trkpt lat="45.19826" lon="5.72789">
        <ele>358.20001220703</ele>
        <time>2022-06-02T02:40:10.000Z</time>
      </trkpt>
      <trkpt lat="45.19825" lon="5.72787">
        <ele>358.20001220703</ele>
        <time>2022-06-02T02:40:11.000Z</time>
      </trkpt>
      <trkpt lat="45.19823" lon="5.72786">
        <ele>359</ele>
        <time>2022-06-02T02:40:12.000Z</time>
      </trkpt>
      <trkpt lat="45.19821" lon="5.72784">
        <ele>359</ele>
        <time>2022-06-02T02:40:13.000Z</time>
      </trkpt>
      <trkpt lat="45.1982" lon="5.72783">
        <ele>359.20001220703</ele>
        <time>2022-06-02T02:40:14.000Z</time>
      </trkpt>
      <trkpt lat="45.19818" lon="5.72781">
        <ele>359</ele>
        <time>2022-06-02T02:40:15.000Z</time>
      </trkpt>
      <trkpt lat="45.19817" lon="5.72779">
        <ele>359</ele>
        <time>2022-06-02T02:40:16.000Z</time>
      </trkpt>
      <trkpt lat="45.19816" lon="5.72778">
        <ele>360</ele>
        <time>2022-06-02T02:40:17.000Z</time>
      </trkpt>
      <trkpt lat="45.19814" lon="5.72776">
        <ele>360</ele>
        <time>2022-06-02T02:40:18.000Z</time>
      </trkpt>
      <trkpt lat="45.19813" lon="5.72774">
        <ele>360</ele>
        <time>2022-06-02T02:40:19.000Z</time>
      </trkpt>
      <trkpt lat="45.19811" lon="5.72772">
        <ele>360.60000610352</ele>
        <time>2022-06-02T02:40:20.000Z</time>
      </trkpt>
      <trkpt lat="45.1981" lon="5.7277">
        <ele>360.79998779297</ele>
        <time>2022-06-02T02:40:21.000Z</time>
      </trkpt>
      <trkpt lat="45.19809" lon="5.72768">
        <ele>360.39999389648</ele>
        <time>2022-06-02T02:40:22.000Z</time>
      </trkpt>
      <trkpt lat="45.19809" lon="5.72765">
        <ele>360.79998779297</ele>
        <time>2022-06-02T02:40:23.000Z</time>
      </trkpt>
      <trkpt lat="45.19808" lon="5.72764">
        <ele>361</ele>
        <time>2022-06-02T02:40:24.000Z</time>
      </trkpt>
      <trkpt lat="45.19807" lon="5.72763">
        <ele>361.39999389648</ele>
        <time>2022-06-02T02:40:25.000Z</time>
      </trkpt>
      <trkpt lat="45.19805" lon="5.72761">
        <ele>361.60000610352</ele>
        <time>2022-06-02T02:40:26.000Z</time>
      </trkpt>
      <trkpt lat="45.19805" lon="5.7276">
        <ele>362.20001220703</ele>
        <time>2022-06-02T02:40:27.000Z</time>
      </trkpt>
      <trkpt lat="45.19804" lon="5.72758">
        <ele>362.60000610352</ele>
        <time>2022-06-02T02:40:28.000Z</time>
      </trkpt>
      <trkpt lat="45.19803" lon="5.72757">
        <ele>362.39999389648</ele>
        <time>2022-06-02T02:40:29.000Z</time>
      </trkpt>
      <trkpt lat="45.19802" lon="5.72756">
        <ele>362.79998779297</ele>
        <time>2022-06-02T02:40:30.000Z</time>
      </trkpt>
      <trkpt lat="45.198" lon="5.72754">
        <ele>363</ele>
        <time>2022-06-02T02:40:31.000Z</time>
      </trkpt>
      <trkpt lat="45.19799" lon="5.72752">
        <ele>363</ele>
        <time>2022-06-02T02:40:32.000Z</time>
      </trkpt>
      <trkpt lat="45.19797" lon="5.72751">
        <ele>363.20001220703</ele>
        <time>2022-06-02T02:40:33.000Z</time>
      </trkpt>
      <trkpt lat="45.19795" lon="5.72749">
        <ele>363.39999389648</ele>
        <time>2022-06-02T02:40:34.000Z</time>
      </trkpt>
      <trkpt lat="45.19794" lon="5.72748">
        <ele>363.39999389648</ele>
        <time>2022-06-02T02:40:35.000Z</time>
      </trkpt>
      <trkpt lat="45.19792" lon="5.72746">
        <ele>363.79998779297</ele>
        <time>2022-06-02T02:40:36.000Z</time>
      </trkpt>
      <trkpt lat="45.19791" lon="5.72744">
        <ele>363.79998779297</ele>
        <time>2022-06-02T02:40:37.000Z</time>
      </trkpt>
      <trkpt lat="45.19789" lon="5.72743">
        <ele>364</ele>
        <time>2022-06-02T02:40:38.000Z</time>
      </trkpt>
      <trkpt lat="45.19788" lon="5.72741">
        <ele>364.39999389648</ele>
        <time>2022-06-02T02:40:39.000Z</time>
      </trkpt>
      <trkpt lat="45.19787" lon="5.72739">
        <ele>364.39999389648</ele>
        <time>2022-06-02T02:40:40.000Z</time>
      </trkpt>
      <trkpt lat="45.19787" lon="5.72736">
        <ele>364.39999389648</ele>
        <time>2022-06-02T02:40:41.000Z</time>
      </trkpt>
      <trkpt lat="45.19787" lon="5.72736">
        <ele>364.60000610352</ele>
        <time>2022-06-02T02:40:42.000Z</time>
      </trkpt>
      <trkpt lat="45.19787" lon="5.72735">
        <ele>365</ele>
        <time>2022-06-02T02:40:43.000Z</time>
      </trkpt>
      <trkpt lat="45.19789" lon="5.72736">
        <ele>364.60000610352</ele>
        <time>2022-06-02T02:40:44.000Z</time>
      </trkpt>
      <trkpt lat="45.1979" lon="5.72736">
        <ele>364.60000610352</ele>
        <time>2022-06-02T02:40:45.000Z</time>
      </trkpt>
      <trkpt lat="45.19792" lon="5.72737">
        <ele>365.20001220703</ele>
        <time>2022-06-02T02:40:46.000Z</time>
      </trkpt>
      <trkpt lat="45.19794" lon="5.72737">
        <ele>365.20001220703</ele>
        <time>2022-06-02T02:40:47.000Z</time>
      </trkpt>
      <trkpt lat="45.19795" lon="5.72738">
        <ele>365.60000610352</ele>
        <time>2022-06-02T02:40:48.000Z</time>
      </trkpt>
      <trkpt lat="45.19797" lon="5.72739">
        <ele>365.60000610352</ele>
        <time>2022-06-02T02:40:49.000Z</time>
      </trkpt>
      <trkpt lat="45.19799" lon="5.7274">
        <ele>366</ele>
        <time>2022-06-02T02:40:50.000Z</time>
      </trkpt>
      <trkpt lat="45.198" lon="5.72741">
        <ele>366.20001220703</ele>
        <time>2022-06-02T02:40:51.000Z</time>
      </trkpt>
      <trkpt lat="45.19802" lon="5.72742">
        <ele>366.20001220703</ele>
        <time>2022-06-02T02:40:52.000Z</time>
      </trkpt>
      <trkpt lat="45.19804" lon="5.72744">
        <ele>366.39999389648</ele>
        <time>2022-06-02T02:40:53.000Z</time>
      </trkpt>
      <trkpt lat="45.19805" lon="5.72745">
        <ele>366.79998779297</ele>
        <time>2022-06-02T02:40:54.000Z</time>
      </trkpt>
      <trkpt lat="45.19807" lon="5.72747">
        <ele>367</ele>
        <time>2022-06-02T02:40:55.000Z</time>
      </trkpt>
      <trkpt lat="45.19808" lon="5.72748">
        <ele>367</ele>
        <time>2022-06-02T02:40:56.000Z</time>
      </trkpt>
      <trkpt lat="45.1981" lon="5.7275">
        <ele>367</ele>
        <time>2022-06-02T02:40:57.000Z</time>
      </trkpt>
      <trkpt lat="45.19812" lon="5.72752">
        <ele>367.20001220703</ele>
        <time>2022-06-02T02:40:58.000Z</time>
      </trkpt>
      <trkpt lat="45.19814" lon="5.72754">
        <ele>367.20001220703</ele>
        <time>2022-06-02T02:40:59.000Z</time>
      </trkpt>
      <trkpt lat="45.19816" lon="5.72755">
        <ele>367.39999389648</ele>
        <time>2022-06-02T02:41:00.000Z</time>
      </trkpt>
      <trkpt lat="45.19818" lon="5.72756">
        <ele>367.79998779297</ele>
        <time>2022-06-02T02:41:01.000Z</time>
      </trkpt>
      <trkpt lat="45.1982" lon="5.72758">
        <ele>367.79998779297</ele>
        <time>2022-06-02T02:41:02.000Z</time>
      </trkpt>
      <trkpt lat="45.19821" lon="5.7276">
        <ele>367.79998779297</ele>
        <time>2022-06-02T02:41:03.000Z</time>
      </trkpt>
      <trkpt lat="45.19823" lon="5.72761">
        <ele>367.79998779297</ele>
        <time>2022-06-02T02:41:04.000Z</time>
      </trkpt>
      <trkpt lat="45.19825" lon="5.72762">
        <ele>367.79998779297</ele>
        <time>2022-06-02T02:41:05.000Z</time>
      </trkpt>
      <trkpt lat="45.19826" lon="5.72764">
        <ele>368.20001220703</ele>
        <time>2022-06-02T02:41:06.000Z</time>
      </trkpt>
      <trkpt lat="45.19828" lon="5.72765">
        <ele>368.60000610352</ele>
        <time>2022-06-02T02:41:07.000Z</time>
      </trkpt>
      <trkpt lat="45.19829" lon="5.72767">
        <ele>368.79998779297</ele>
        <time>2022-06-02T02:41:08.000Z</time>
      </trkpt>
      <trkpt lat="45.19831" lon="5.72768">
        <ele>369</ele>
        <time>2022-06-02T02:41:09.000Z</time>
      </trkpt>
      <trkpt lat="45.19832" lon="5.72769">
        <ele>369</ele>
        <time>2022-06-02T02:41:10.000Z</time>
      </trkpt>
      <trkpt lat="45.19834" lon="5.72771">
        <ele>369.20001220703</ele>
        <time>2022-06-02T02:41:11.000Z</time>
      </trkpt>
      <trkpt lat="45.19836" lon="5.72772">
        <ele>369.60000610352</ele>
        <time>2022-06-02T02:41:12.000Z</time>
      </trkpt>
      <trkpt lat="45.19838" lon="5.72774">
        <ele>369.60000610352</ele>
        <time>2022-06-02T02:41:13.000Z</time>
      </trkpt>
      <trkpt lat="45.1984" lon="5.72775">
        <ele>370</ele>
        <time>2022-06-02T02:41:14.000Z</time>
      </trkpt>
      <trkpt lat="45.19842" lon="5.72776">
        <ele>370</ele>
        <time>2022-06-02T02:41:15.000Z</time>
      </trkpt>
      <trkpt lat="45.19843" lon="5.72778">
        <ele>370</ele>
        <time>2022-06-02T02:41:16.000Z</time>
      </trkpt>
      <trkpt lat="45.19844" lon="5.72779">
        <ele>370.79998779297</ele>
        <time>2022-06-02T02:41:17.000Z</time>
      </trkpt>
      <trkpt lat="45.19845" lon="5.7278">
        <ele>370.79998779297</ele>
        <time>2022-06-02T02:41:18.000Z</time>
      </trkpt>
      <trkpt lat="45.19847" lon="5.72781">
        <ele>370.79998779297</ele>
        <time>2022-06-02T02:41:19.000Z</time>
      </trkpt>
      <trkpt lat="45.19848" lon="5.72783">
        <ele>371.39999389648</ele>
        <time>2022-06-02T02:41:20.000Z</time>
      </trkpt>
      <trkpt lat="45.1985" lon="5.72784">
        <ele>371.39999389648</ele>
        <time>2022-06-02T02:41:21.000Z</time>
      </trkpt>
      <trkpt lat="45.19852" lon="5.72785">
        <ele>371.39999389648</ele>
        <time>2022-06-02T02:41:22.000Z</time>
      </trkpt>
      <trkpt lat="45.19853" lon="5.72787">
        <ele>371.79998779297</ele>
        <time>2022-06-02T02:41:23.000Z</time>
      </trkpt>
      <trkpt lat="45.19855" lon="5.72789">
        <ele>371.60000610352</ele>
        <time>2022-06-02T02:41:24.000Z</time>
      </trkpt>
      <trkpt lat="45.19858" lon="5.7279">
        <ele>371.39999389648</ele>
        <time>2022-06-02T02:41:25.000Z</time>
      </trkpt>
      <trkpt lat="45.19859" lon="5.72792">
        <ele>371.39999389648</ele>
        <time>2022-06-02T02:41:26.000Z</time>
      </trkpt>
      <trkpt lat="45.1986" lon="5.72793">
        <ele>371.39999389648</ele>
        <time>2022-06-02T02:41:27.000Z</time>
      </trkpt>
      <trkpt lat="45.19861" lon="5.72793">
        <ele>371.20001220703</ele>
        <time>2022-06-02T02:41:28.000Z</time>
      </trkpt>
      <trkpt lat="45.19862" lon="5.72792">
        <ele>371.20001220703</ele>
        <time>2022-06-02T02:41:29.000Z</time>
      </trkpt>
      <trkpt lat="45.19862" lon="5.72791">
        <ele>371.20001220703</ele>
        <time>2022-06-02T02:41:30.000Z</time>
      </trkpt>
      <trkpt lat="45.1986" lon="5.7279">
        <ele>371.20001220703</ele>
        <time>2022-06-02T02:41:31.000Z</time>
      </trkpt>
      <trkpt lat="45.19859" lon="5.72788">
        <ele>371.39999389648</ele>
        <time>2022-06-02T02:41:32.000Z</time>
      </trkpt>
      <trkpt lat="45.19857" lon="5.72786">
        <ele>371.60000610352</ele>
        <time>2022-06-02T02:41:33.000Z</time>
      </trkpt>
      <trkpt lat="45.19855" lon="5.72784">
        <ele>372</ele>
        <time>2022-06-02T02:41:34.000Z</time>
      </trkpt>
      <trkpt lat="45.19853" lon="5.72782">
        <ele>372.20001220703</ele>
        <time>2022-06-02T02:41:35.000Z</time>
      </trkpt>
      <trkpt lat="45.19852" lon="5.7278">
        <ele>372.20001220703</ele>
        <time>2022-06-02T02:41:36.000Z</time>
      </trkpt>
      <trkpt lat="45.1985" lon="5.72779">
        <ele>372.20001220703</ele>
        <time>2022-06-02T02:41:37.000Z</time>
      </trkpt>
      <trkpt lat="45.19849" lon="5.72777">
        <ele>372.39999389648</ele>
        <time>2022-06-02T02:41:38.000Z</time>
      </trkpt>
      <trkpt lat="45.19847" lon="5.72776">
        <ele>372.79998779297</ele>
        <time>2022-06-02T02:41:39.000Z</time>
      </trkpt>
      <trkpt lat="45.19846" lon="5.72775">
        <ele>372.79998779297</ele>
        <time>2022-06-02T02:41:40.000Z</time>
      </trkpt>
      <trkpt lat="45.19845" lon="5.72773">
        <ele>372.79998779297</ele>
        <time>2022-06-02T02:41:41.000Z</time>
      </trkpt>
      <trkpt lat="45.19845" lon="5.72771">
        <ele>372.39999389648</ele>
        <time>2022-06-02T02:41:42.000Z</time>
      </trkpt>
      <trkpt lat="45.19846" lon="5.72771">
        <ele>372.39999389648</ele>
        <time>2022-06-02T02:41:43.000Z</time>
      </trkpt>
      <trkpt lat="45.19847" lon="5.72771">
        <ele>372.60000610352</ele>
        <time>2022-06-02T02:41:44.000Z</time>
      </trkpt>
      <trkpt lat="45.19848" lon="5.72772">
        <ele>373.20001220703</ele>
        <time>2022-06-02T02:41:45.000Z</time>
      </trkpt>
      <trkpt lat="45.19849" lon="5.72773">
        <ele>373.39999389648</ele>
        <time>2022-06-02T02:41:46.000Z</time>
      </trkpt>
      <trkpt lat="45.1985" lon="5.72773">
        <ele>374.20001220703</ele>
        <time>2022-06-02T02:41:47.000Z</time>
      </trkpt>
      <trkpt lat="45.19851" lon="5.72774">
        <ele>374.20001220703</ele>
        <time>2022-06-02T02:41:48.000Z</time>
      </trkpt>
      <trkpt lat="45.19852" lon="5.72774">
        <ele>375</ele>
        <time>2022-06-02T02:41:49.000Z</time>
      </trkpt>
      <trkpt lat="45.19853" lon="5.72774">
        <ele>375.39999389648</ele>
        <time>2022-06-02T02:41:50.000Z</time>
      </trkpt>
      <trkpt lat="45.19854" lon="5.72774">
        <ele>376</ele>
        <time>2022-06-02T02:41:51.000Z</time>
      </trkpt>
      <trkpt lat="45.19854" lon="5.72774">
        <ele>376.39999389648</ele>
        <time>2022-06-02T02:41:52.000Z</time>
      </trkpt>
      <trkpt lat="45.19855" lon="5.72774">
        <ele>376.60000610352</ele>
        <time>2022-06-02T02:41:53.000Z</time>
      </trkpt>
      <trkpt lat="45.19855" lon="5.72774">
        <ele>376.79998779297</ele>
        <time>2022-06-02T02:41:54.000Z</time>
      </trkpt>
      <trkpt lat="45.19856" lon="5.72775">
        <ele>377</ele>
        <time>2022-06-02T02:41:55.000Z</time>
      </trkpt>
      <trkpt lat="45.19857" lon="5.72776">
        <ele>376.79998779297</ele>
        <time>2022-06-02T02:41:56.000Z</time>
      </trkpt>
      <trkpt lat="45.19857" lon="5.72776">
        <ele>377.20001220703</ele>
        <time>2022-06-02T02:41:57.000Z</time>
      </trkpt>
      <trkpt lat="45.19857" lon="5.72774">
        <ele>377.39999389648</ele>
        <time>2022-06-02T02:41:58.000Z</time>
      </trkpt>
      <trkpt lat="45.19857" lon="5.72774">
        <ele>377.60000610352</ele>
        <time>2022-06-02T02:41:59.000Z</time>
      </trkpt>
      <trkpt lat="45.19856" lon="5.72773">
        <ele>377.79998779297</ele>
        <time>2022-06-02T02:42:00.000Z</time>
      </trkpt>
      <trkpt lat="45.19856" lon="5.72772">
        <ele>378.39999389648</ele>
        <time>2022-06-02T02:42:01.000Z</time>
      </trkpt>
      <trkpt lat="45.19857" lon="5.72771">
        <ele>378.60000610352</ele>
        <time>2022-06-02T02:42:02.000Z</time>
      </trkpt>
      <trkpt lat="45.19857" lon="5.72769">
        <ele>378.60000610352</ele>
        <time>2022-06-02T02:42:03.000Z</time>
      </trkpt>
      <trkpt lat="45.19857" lon="5.72768">
        <ele>378.79998779297</ele>
        <time>2022-06-02T02:42:04.000Z</time>
      </trkpt>
      <trkpt lat="45.19869" lon="5.72773">
        <ele>386.20001220703</ele>
        <time>2022-06-02T02:42:28.000Z</time>
      </trkpt>
      <trkpt lat="45.1987" lon="5.72775">
        <ele>386.20001220703</ele>
        <time>2022-06-02T02:42:29.000Z</time>
      </trkpt>
      <trkpt lat="45.19868" lon="5.72778">
        <ele>386.60000610352</ele>
        <time>2022-06-02T02:42:30.000Z</time>
      </trkpt>
      <trkpt lat="45.19868" lon="5.72776">
        <ele>386.39999389648</ele>
        <time>2022-06-02T02:42:31.000Z</time>
      </trkpt>
      <trkpt lat="45.19869" lon="5.72773">
        <ele>386.60000610352</ele>
        <time>2022-06-02T02:42:33.000Z</time>
      </trkpt>
      <trkpt lat="45.19868" lon="5.72772">
        <ele>387.20001220703</ele>
        <time>2022-06-02T02:42:34.000Z</time>
      </trkpt>
      <trkpt lat="45.19868" lon="5.72771">
        <ele>387.60000610352</ele>
        <time>2022-06-02T02:42:35.000Z</time>
      </trkpt>
      <trkpt lat="45.19867" lon="5.72762">
        <ele>388.79998779297</ele>
        <time>2022-06-02T02:42:44.000Z</time>
      </trkpt>
      <trkpt lat="45.19867" lon="5.7276">
        <ele>388.79998779297</ele>
        <time>2022-06-02T02:42:45.000Z</time>
      </trkpt>
      <trkpt lat="45.19866" lon="5.72757">
        <ele>389.20001220703</ele>
        <time>2022-06-02T02:42:47.000Z</time>
      </trkpt>
      <trkpt lat="45.19861" lon="5.72761">
        <ele>389.20001220703</ele>
        <time>2022-06-02T02:42:48.000Z</time>
      </trkpt>
      <trkpt lat="45.19859" lon="5.7276">
        <ele>389.79998779297</ele>
        <time>2022-06-02T02:42:49.000Z</time>
      </trkpt>
      <trkpt lat="45.19858" lon="5.72759">
        <ele>389.79998779297</ele>
        <time>2022-06-02T02:42:50.000Z</time>
      </trkpt>
      <trkpt lat="45.19857" lon="5.72757">
        <ele>390.20001220703</ele>
        <time>2022-06-02T02:42:51.000Z</time>
      </trkpt>
      <trkpt lat="45.19856" lon="5.72758">
        <ele>390.20001220703</ele>
        <time>2022-06-02T02:42:52.000Z</time>
      </trkpt>
      <trkpt lat="45.19856" lon="5.72761">
        <ele>390.60000610352</ele>
        <time>2022-06-02T02:42:53.000Z</time>
      </trkpt>
      <trkpt lat="45.19855" lon="5.72761">
        <ele>390.79998779297</ele>
        <time>2022-06-02T02:42:54.000Z</time>
      </trkpt>
      <trkpt lat="45.19855" lon="5.72762">
        <ele>391</ele>
        <time>2022-06-02T02:42:55.000Z</time>
      </trkpt>
      <trkpt lat="45.19855" lon="5.72763">
        <ele>391.39999389648</ele>
        <time>2022-06-02T02:42:56.000Z</time>
      </trkpt>
      <trkpt lat="45.19856" lon="5.72763">
        <ele>391.60000610352</ele>
        <time>2022-06-02T02:42:57.000Z</time>
      </trkpt>
      <trkpt lat="45.19856" lon="5.72763">
        <ele>392.39999389648</ele>
        <time>2022-06-02T02:42:58.000Z</time>
      </trkpt>
      <trkpt lat="45.19856" lon="5.72764">
        <ele>392.60000610352</ele>
        <time>2022-06-02T02:42:59.000Z</time>
      </trkpt>
      <trkpt lat="45.19856" lon="5.72764">
        <ele>393.20001220703</ele>
        <time>2022-06-02T02:43:00.000Z</time>
      </trkpt>
      <trkpt lat="45.19856" lon="5.72764">
        <ele>393.60000610352</ele>
        <time>2022-06-02T02:43:01.000Z</time>
      </trkpt>
      <trkpt lat="45.19856" lon="5.72765">
        <ele>394</ele>
        <time>2022-06-02T02:43:02.000Z</time>
      </trkpt>
      <trkpt lat="45.19856" lon="5.72765">
        <ele>394</ele>
        <time>2022-06-02T02:43:03.000Z</time>
      </trkpt>
      <trkpt lat="45.19856" lon="5.72766">
        <ele>394</ele>
        <time>2022-06-02T02:43:04.000Z</time>
      </trkpt>
      <trkpt lat="45.19856" lon="5.72768">
        <ele>394</ele>
        <time>2022-06-02T02:43:05.000Z</time>
      </trkpt>
      <trkpt lat="45.19856" lon="5.72769">
        <ele>394</ele>
        <time>2022-06-02T02:43:06.000Z</time>
      </trkpt>
      <trkpt lat="45.19857" lon="5.72771">
        <ele>394.20001220703</ele>
        <time>2022-06-02T02:43:07.000Z</time>
      </trkpt>
      <trkpt lat="45.19858" lon="5.72772">
        <ele>394.20001220703</ele>
        <time>2022-06-02T02:43:08.000Z</time>
      </trkpt>
      <trkpt lat="45.19859" lon="5.72773">
        <ele>394.60000610352</ele>
        <time>2022-06-02T02:43:09.000Z</time>
      </trkpt>
      <trkpt lat="45.19859" lon="5.72774">
        <ele>394.60000610352</ele>
        <time>2022-06-02T02:43:10.000Z</time>
      </trkpt>
      <trkpt lat="45.1986" lon="5.72775">
        <ele>395.20001220703</ele>
        <time>2022-06-02T02:43:11.000Z</time>
      </trkpt>
      <trkpt lat="45.1986" lon="5.72775">
        <ele>395.39999389648</ele>
        <time>2022-06-02T02:43:12.000Z</time>
      </trkpt>
      <trkpt lat="45.19861" lon="5.72775">
        <ele>395.39999389648</ele>
        <time>2022-06-02T02:43:13.000Z</time>
      </trkpt>
      <trkpt lat="45.19861" lon="5.72776">
        <ele>396.20001220703</ele>
        <time>2022-06-02T02:43:14.000Z</time>
      </trkpt>
      <trkpt lat="45.19861" lon="5.72776">
        <ele>396.20001220703</ele>
        <time>2022-06-02T02:43:15.000Z</time>
      </trkpt>
      <trkpt lat="45.19862" lon="5.72777">
        <ele>396.79998779297</ele>
        <time>2022-06-02T02:43:16.000Z</time>
      </trkpt>
      <trkpt lat="45.19863" lon="5.72776">
        <ele>396.79998779297</ele>
        <time>2022-06-02T02:43:17.000Z</time>
      </trkpt>
      <trkpt lat="45.19863" lon="5.72775">
        <ele>396.60000610352</ele>
        <time>2022-06-02T02:43:18.000Z</time>
      </trkpt>
      <trkpt lat="45.19863" lon="5.72774">
        <ele>396.60000610352</ele>
        <time>2022-06-02T02:43:19.000Z</time>
      </trkpt>
      <trkpt lat="45.19863" lon="5.72772">
        <ele>396.60000610352</ele>
        <time>2022-06-02T02:43:20.000Z</time>
      </trkpt>
      <trkpt lat="45.19864" lon="5.72772">
        <ele>396.60000610352</ele>
        <time>2022-06-02T02:43:21.000Z</time>
      </trkpt>
      <trkpt lat="45.19864" lon="5.72772">
        <ele>397</ele>
        <time>2022-06-02T02:43:22.000Z</time>
      </trkpt>
      <trkpt lat="45.19864" lon="5.72773">
        <ele>397.20001220703</ele>
        <time>2022-06-02T02:43:23.000Z</time>
      </trkpt>
      <trkpt lat="45.19865" lon="5.72774">
        <ele>397.60000610352</ele>
        <time>2022-06-02T02:43:24.000Z</time>
      </trkpt>
      <trkpt lat="45.19866" lon="5.72775">
        <ele>397.60000610352</ele>
        <time>2022-06-02T02:43:25.000Z</time>
      </trkpt>
      <trkpt lat="45.19866" lon="5.72776">
        <ele>397.60000610352</ele>
        <time>2022-06-02T02:43:26.000Z</time>
      </trkpt>
      <trkpt lat="45.19866" lon="5.72777">
        <ele>397.60000610352</ele>
        <time>2022-06-02T02:43:27.000Z</time>
      </trkpt>
      <trkpt lat="45.19866" lon="5.72777">
        <ele>397.60000610352</ele>
        <time>2022-06-02T02:43:28.000Z</time>
      </trkpt>
      <trkpt lat="45.19866" lon="5.72777">
        <ele>397.39999389648</ele>
        <time>2022-06-02T02:43:29.000Z</time>
      </trkpt>
      <trkpt lat="45.19865" lon="5.72778">
        <ele>397.39999389648</ele>
        <time>2022-06-02T02:43:30.000Z</time>
      </trkpt>
      <trkpt lat="45.19865" lon="5.72778">
        <ele>397.20001220703</ele>
        <time>2022-06-02T02:43:31.000Z</time>
      </trkpt>
      <trkpt lat="45.19865" lon="5.72778">
        <ele>397.20001220703</ele>
        <time>2022-06-02T02:43:32.000Z</time>
      </trkpt>
      <trkpt lat="45.19865" lon="5.72778">
        <ele>397.39999389648</ele>
        <time>2022-06-02T02:43:33.000Z</time>
      </trkpt>
      <trkpt lat="45.19865" lon="5.72778">
        <ele>397.39999389648</ele>
        <time>2022-06-02T02:43:34.000Z</time>
      </trkpt>
      <trkpt lat="45.19865" lon="5.72778">
        <ele>397.39999389648</ele>
        <time>2022-06-02T02:43:35.000Z</time>
      </trkpt>
      <trkpt lat="45.19865" lon="5.72778">
        <ele>397.39999389648</ele>
        <time>2022-06-02T02:43:36.000Z</time>
      </trkpt>
      <trkpt lat="45.19865" lon="5.72778">
        <ele>397.39999389648</ele>
        <time>2022-06-02T02:43:37.000Z</time>
      </trkpt>
      <trkpt lat="45.19865" lon="5.72778">
        <ele>397.20001220703</ele>
        <time>2022-06-02T02:43:38.000Z</time>
      </trkpt>
      <trkpt lat="45.19865" lon="5.72778">
        <ele>397.20001220703</ele>
        <time>2022-06-02T02:43:39.000Z</time>
      </trkpt>
      <trkpt lat="45.19865" lon="5.72778">
        <ele>397.20001220703</ele>
        <time>2022-06-02T02:43:40.000Z</time>
      </trkpt>
      <trkpt lat="45.19865" lon="5.72778">
        <ele>397.20001220703</ele>
        <time>2022-06-02T02:43:41.000Z</time>
      </trkpt>
      <trkpt lat="45.19865" lon="5.72777">
        <ele>397</ele>
        <time>2022-06-02T02:43:42.000Z</time>
      </trkpt>
      <trkpt lat="45.19865" lon="5.72777">
        <ele>397.39999389648</ele>
        <time>2022-06-02T02:43:43.000Z</time>
      </trkpt>
      <trkpt lat="45.19864" lon="5.72778">
        <ele>397.39999389648</ele>
        <time>2022-06-02T02:43:44.000Z</time>
      </trkpt>
      <trkpt lat="45.19864" lon="5.72778">
        <ele>397.39999389648</ele>
        <time>2022-06-02T02:43:45.000Z</time>
      </trkpt>
      <trkpt lat="45.19864" lon="5.72778">
        <ele>397.39999389648</ele>
        <time>2022-06-02T02:43:46.000Z</time>
      </trkpt>
      <trkpt lat="45.19864" lon="5.72778">
        <ele>397.39999389648</ele>
        <time>2022-06-02T02:43:47.000Z</time>
      </trkpt>
      <trkpt lat="45.19864" lon="5.72778">
        <ele>397.39999389648</ele>
        <time>2022-06-02T02:43:48.000Z</time>
      </trkpt>
      <trkpt lat="45.19864" lon="5.72778">
        <ele>397.39999389648</ele>
        <time>2022-06-02T02:43:49.000Z</time>
      </trkpt>
      <trkpt lat="45.19864" lon="5.72778">
        <ele>397.39999389648</ele>
        <time>2022-06-02T02:43:50.000Z</time>
      </trkpt>
      <trkpt lat="45.19864" lon="5.72778">
        <ele>397.39999389648</ele>
        <time>2022-06-02T02:43:51.000Z</time>
      </trkpt>
      <trkpt lat="45.19864" lon="5.72778">
        <ele>397.20001220703</ele>
        <time>2022-06-02T02:43:52.000Z</time>
      </trkpt>
      <trkpt lat="45.19864" lon="5.72778">
        <ele>397.20001220703</ele>
        <time>2022-06-02T02:43:53.000Z</time>
      </trkpt>
      <trkpt lat="45.19864" lon="5.72778">
        <ele>397.20001220703</ele>
        <time>2022-06-02T02:43:54.000Z</time>
      </trkpt>
      <trkpt lat="45.19864" lon="5.72778">
        <ele>397.20001220703</ele>
        <time>2022-06-02T02:43:55.000Z</time>
      </trkpt>
      <trkpt lat="45.19864" lon="5.72778">
        <ele>397</ele>
        <time>2022-06-02T02:43:56.000Z</time>
      </trkpt>
      <trkpt lat="45.19865" lon="5.72778">
        <ele>397.20001220703</ele>
        <time>2022-06-02T02:43:57.000Z</time>
      </trkpt>
      <trkpt lat="45.19865" lon="5.72778">
        <ele>397.20001220703</ele>
        <time>2022-06-02T02:43:58.000Z</time>
      </trkpt>
      <trkpt lat="45.19865" lon="5.72777">
        <ele>397.20001220703</ele>
        <time>2022-06-02T02:43:59.000Z</time>
      </trkpt>
      <trkpt lat="45.19865" lon="5.72777">
        <ele>397</ele>
        <time>2022-06-02T02:44:00.000Z</time>
      </trkpt>
      <trkpt lat="45.19865" lon="5.72778">
        <ele>397</ele>
        <time>2022-06-02T02:44:01.000Z</time>
      </trkpt>
      <trkpt lat="45.19865" lon="5.72778">
        <ele>397</ele>
        <time>2022-06-02T02:44:02.000Z</time>
      </trkpt>
      <trkpt lat="45.19865" lon="5.72778">
        <ele>397.20001220703</ele>
        <time>2022-06-02T02:44:03.000Z</time>
      </trkpt>
      <trkpt lat="45.19865" lon="5.72777">
        <ele>397.20001220703</ele>
        <time>2022-06-02T02:44:04.000Z</time>
      </trkpt>
      <trkpt lat="45.19865" lon="5.72777">
        <ele>397</ele>
        <time>2022-06-02T02:44:05.000Z</time>
      </trkpt>
      <trkpt lat="45.19864" lon="5.72777">
        <ele>397</ele>
        <time>2022-06-02T02:44:06.000Z</time>
      </trkpt>
      <trkpt lat="45.19864" lon="5.72777">
        <ele>397</ele>
        <time>2022-06-02T02:44:07.000Z</time>
      </trkpt>
      <trkpt lat="45.19864" lon="5.72777">
        <ele>396.79998779297</ele>
        <time>2022-06-02T02:44:08.000Z</time>
      </trkpt>
      <trkpt lat="45.19864" lon="5.72777">
        <ele>397</ele>
        <time>2022-06-02T02:44:09.000Z</time>
      </trkpt>
      <trkpt lat="45.19864" lon="5.72777">
        <ele>397</ele>
        <time>2022-06-02T02:44:10.000Z</time>
      </trkpt>
      <trkpt lat="45.19864" lon="5.72777">
        <ele>397</ele>
        <time>2022-06-02T02:44:11.000Z</time>
      </trkpt>
      <trkpt lat="45.19864" lon="5.72777">
        <ele>396.79998779297</ele>
        <time>2022-06-02T02:44:12.000Z</time>
      </trkpt>
      <trkpt lat="45.19862" lon="5.72777">
        <ele>396.79998779297</ele>
        <time>2022-06-02T02:44:13.000Z</time>
      </trkpt>
      <trkpt lat="45.19862" lon="5.72777">
        <ele>396.79998779297</ele>
        <time>2022-06-02T02:44:14.000Z</time>
      </trkpt>
      <trkpt lat="45.19862" lon="5.72777">
        <ele>396.79998779297</ele>
        <time>2022-06-02T02:44:15.000Z</time>
      </trkpt>
      <trkpt lat="45.19862" lon="5.72777">
        <ele>396.79998779297</ele>
        <time>2022-06-02T02:44:16.000Z</time>
      </trkpt>
      <trkpt lat="45.19862" lon="5.72777">
        <ele>396.79998779297</ele>
        <time>2022-06-02T02:44:17.000Z</time>
      </trkpt>
      <trkpt lat="45.19862" lon="5.72777">
        <ele>396.60000610352</ele>
        <time>2022-06-02T02:44:18.000Z</time>
      </trkpt>
      <trkpt lat="45.19862" lon="5.72778">
        <ele>396.60000610352</ele>
        <time>2022-06-02T02:44:19.000Z</time>
      </trkpt>
      <trkpt lat="45.19862" lon="5.72778">
        <ele>396.79998779297</ele>
        <time>2022-06-02T02:44:20.000Z</time>
      </trkpt>
      <trkpt lat="45.19862" lon="5.72777">
        <ele>396.79998779297</ele>
        <time>2022-06-02T02:44:21.000Z</time>
      </trkpt>
      <trkpt lat="45.19862" lon="5.72778">
        <ele>396.60000610352</ele>
        <time>2022-06-02T02:44:22.000Z</time>
      </trkpt>
      <trkpt lat="45.19862" lon="5.72778">
        <ele>396.60000610352</ele>
        <time>2022-06-02T02:44:23.000Z</time>
      </trkpt>
      <trkpt lat="45.19862" lon="5.72778">
        <ele>396.79998779297</ele>
        <time>2022-06-02T02:44:24.000Z</time>
      </trkpt>
      <trkpt lat="45.19862" lon="5.72778">
        <ele>396.60000610352</ele>
        <time>2022-06-02T02:44:25.000Z</time>
      </trkpt>
      <trkpt lat="45.19862" lon="5.72778">
        <ele>396.39999389648</ele>
        <time>2022-06-02T02:44:26.000Z</time>
      </trkpt>
      <trkpt lat="45.19862" lon="5.72778">
        <ele>397</ele>
        <time>2022-06-02T02:44:27.000Z</time>
      </trkpt>
      <trkpt lat="45.19862" lon="5.72778">
        <ele>396.60000610352</ele>
        <time>2022-06-02T02:44:28.000Z</time>
      </trkpt>
      <trkpt lat="45.19862" lon="5.72778">
        <ele>396.60000610352</ele>
        <time>2022-06-02T02:44:29.000Z</time>
      </trkpt>
      <trkpt lat="45.19862" lon="5.72778">
        <ele>396.60000610352</ele>
        <time>2022-06-02T02:44:30.000Z</time>
      </trkpt>
      <trkpt lat="45.19862" lon="5.72778">
        <ele>396.60000610352</ele>
        <time>2022-06-02T02:44:31.000Z</time>
      </trkpt>
      <trkpt lat="45.19861" lon="5.72778">
        <ele>396.79998779297</ele>
        <time>2022-06-02T02:44:32.000Z</time>
      </trkpt>
      <trkpt lat="45.19861" lon="5.7278">
        <ele>396.79998779297</ele>
        <time>2022-06-02T02:44:33.000Z</time>
      </trkpt>
      <trkpt lat="45.19861" lon="5.7278">
        <ele>396.79998779297</ele>
        <time>2022-06-02T02:44:34.000Z</time>
      </trkpt>
      <trkpt lat="45.19861" lon="5.7278">
        <ele>396.60000610352</ele>
        <time>2022-06-02T02:44:35.000Z</time>
      </trkpt>
      <trkpt lat="45.1986" lon="5.7278">
        <ele>396.60000610352</ele>
        <time>2022-06-02T02:44:36.000Z</time>
      </trkpt>
      <trkpt lat="45.1986" lon="5.7278">
        <ele>396.60000610352</ele>
        <time>2022-06-02T02:44:37.000Z</time>
      </trkpt>
      <trkpt lat="45.1986" lon="5.7278">
        <ele>396.60000610352</ele>
        <time>2022-06-02T02:44:38.000Z</time>
      </trkpt>
      <trkpt lat="45.1986" lon="5.7278">
        <ele>396.60000610352</ele>
        <time>2022-06-02T02:44:39.000Z</time>
      </trkpt>
      <trkpt lat="45.1986" lon="5.7278">
        <ele>396.60000610352</ele>
        <time>2022-06-02T02:44:40.000Z</time>
      </trkpt>
      <trkpt lat="45.1986" lon="5.7278">
        <ele>396.60000610352</ele>
        <time>2022-06-02T02:44:41.000Z</time>
      </trkpt>
      <trkpt lat="45.1986" lon="5.7278">
        <ele>396.60000610352</ele>
        <time>2022-06-02T02:44:42.000Z</time>
      </trkpt>
      <trkpt lat="45.1986" lon="5.7278">
        <ele>396.60000610352</ele>
        <time>2022-06-02T02:44:43.000Z</time>
      </trkpt>
      <trkpt lat="45.1986" lon="5.7278">
        <ele>396.79998779297</ele>
        <time>2022-06-02T02:44:44.000Z</time>
      </trkpt>
      <trkpt lat="45.1986" lon="5.7278">
        <ele>396.60000610352</ele>
        <time>2022-06-02T02:44:45.000Z</time>
      </trkpt>
      <trkpt lat="45.1986" lon="5.7278">
        <ele>396.79998779297</ele>
        <time>2022-06-02T02:44:46.000Z</time>
      </trkpt>
      <trkpt lat="45.19861" lon="5.72779">
        <ele>396.39999389648</ele>
        <time>2022-06-02T02:44:47.000Z</time>
      </trkpt>
      <trkpt lat="45.19861" lon="5.72777">
        <ele>396.39999389648</ele>
        <time>2022-06-02T02:44:48.000Z</time>
      </trkpt>
      <trkpt lat="45.19861" lon="5.72775">
        <ele>396.39999389648</ele>
        <time>2022-06-02T02:44:49.000Z</time>
      </trkpt>
      <trkpt lat="45.19862" lon="5.72774">
        <ele>396.20001220703</ele>
        <time>2022-06-02T02:44:50.000Z</time>
      </trkpt>
      <trkpt lat="45.19862" lon="5.72773">
        <ele>396.20001220703</ele>
        <time>2022-06-02T02:44:51.000Z</time>
      </trkpt>
      <trkpt lat="45.19862" lon="5.72772">
        <ele>396</ele>
        <time>2022-06-02T02:44:52.000Z</time>
      </trkpt>
      <trkpt lat="45.19862" lon="5.72771">
        <ele>396</ele>
        <time>2022-06-02T02:44:53.000Z</time>
      </trkpt>
      <trkpt lat="45.19861" lon="5.7277">
        <ele>395.60000610352</ele>
        <time>2022-06-02T02:44:54.000Z</time>
      </trkpt>
      <trkpt lat="45.19861" lon="5.72769">
        <ele>395.39999389648</ele>
        <time>2022-06-02T02:44:55.000Z</time>
      </trkpt>
      <trkpt lat="45.19861" lon="5.72768">
        <ele>395.39999389648</ele>
        <time>2022-06-02T02:44:56.000Z</time>
      </trkpt>
      <trkpt lat="45.19861" lon="5.72767">
        <ele>395.39999389648</ele>
        <time>2022-06-02T02:44:57.000Z</time>
      </trkpt>
      <trkpt lat="45.19861" lon="5.72766">
        <ele>395</ele>
        <time>2022-06-02T02:44:58.000Z</time>
      </trkpt>
      <trkpt lat="45.19861" lon="5.72765">
        <ele>394.79998779297</ele>
        <time>2022-06-02T02:44:59.000Z</time>
      </trkpt>
      <trkpt lat="45.1986" lon="5.72764">
        <ele>394.39999389648</ele>
        <time>2022-06-02T02:45:00.000Z</time>
      </trkpt>
      <trkpt lat="45.19859" lon="5.72763">
        <ele>394.20001220703</ele>
        <time>2022-06-02T02:45:01.000Z</time>
      </trkpt>
      <trkpt lat="45.19858" lon="5.72762">
        <ele>394</ele>
        <time>2022-06-02T02:45:02.000Z</time>
      </trkpt>
      <trkpt lat="45.19857" lon="5.7276">
        <ele>394</ele>
        <time>2022-06-02T02:45:03.000Z</time>
      </trkpt>
      <trkpt lat="45.19856" lon="5.72758">
        <ele>394.20001220703</ele>
        <time>2022-06-02T02:45:04.000Z</time>
      </trkpt>
      <trkpt lat="45.19855" lon="5.72757">
        <ele>393.79998779297</ele>
        <time>2022-06-02T02:45:05.000Z</time>
      </trkpt>
      <trkpt lat="45.19855" lon="5.72753">
        <ele>394.20001220703</ele>
        <time>2022-06-02T02:45:06.000Z</time>
      </trkpt>
      <trkpt lat="45.19854" lon="5.72751">
        <ele>394.60000610352</ele>
        <time>2022-06-02T02:45:07.000Z</time>
      </trkpt>
      <trkpt lat="45.19854" lon="5.72748">
        <ele>395</ele>
        <time>2022-06-02T02:45:08.000Z</time>
      </trkpt>
      <trkpt lat="45.19854" lon="5.72745">
        <ele>395</ele>
        <time>2022-06-02T02:45:09.000Z</time>
      </trkpt>
      <trkpt lat="45.19854" lon="5.72743">
        <ele>394.39999389648</ele>
        <time>2022-06-02T02:45:10.000Z</time>
      </trkpt>
      <trkpt lat="45.19852" lon="5.72741">
        <ele>394.60000610352</ele>
        <time>2022-06-02T02:45:11.000Z</time>
      </trkpt>
      <trkpt lat="45.19852" lon="5.72739">
        <ele>395</ele>
        <time>2022-06-02T02:45:12.000Z</time>
      </trkpt>
      <trkpt lat="45.19851" lon="5.72738">
        <ele>395.39999389648</ele>
        <time>2022-06-02T02:45:13.000Z</time>
      </trkpt>
      <trkpt lat="45.1985" lon="5.72737">
        <ele>395.79998779297</ele>
        <time>2022-06-02T02:45:14.000Z</time>
      </trkpt>
      <trkpt lat="45.1985" lon="5.72736">
        <ele>396.60000610352</ele>
        <time>2022-06-02T02:45:15.000Z</time>
      </trkpt>
      <trkpt lat="45.1985" lon="5.72733">
        <ele>396.20001220703</ele>
        <time>2022-06-02T02:45:16.000Z</time>
      </trkpt>
      <trkpt lat="45.1985" lon="5.72731">
        <ele>396.60000610352</ele>
        <time>2022-06-02T02:45:17.000Z</time>
      </trkpt>
      <trkpt lat="45.1985" lon="5.7273">
        <ele>396.60000610352</ele>
        <time>2022-06-02T02:45:18.000Z</time>
      </trkpt>
      <trkpt lat="45.1985" lon="5.7273">
        <ele>397.20001220703</ele>
        <time>2022-06-02T02:45:19.000Z</time>
      </trkpt>
      <trkpt lat="45.1985" lon="5.72729">
        <ele>397.79998779297</ele>
        <time>2022-06-02T02:45:20.000Z</time>
      </trkpt>
      <trkpt lat="45.1985" lon="5.72729">
        <ele>398</ele>
        <time>2022-06-02T02:45:21.000Z</time>
      </trkpt>
      <trkpt lat="45.1985" lon="5.72731">
        <ele>398.60000610352</ele>
        <time>2022-06-02T02:45:22.000Z</time>
      </trkpt>
      <trkpt lat="45.1985" lon="5.72733">
        <ele>398.60000610352</ele>
        <time>2022-06-02T02:45:23.000Z</time>
      </trkpt>
      <trkpt lat="45.19849" lon="5.72736">
        <ele>398.60000610352</ele>
        <time>2022-06-02T02:45:24.000Z</time>
      </trkpt>
      <trkpt lat="45.19849" lon="5.72738">
        <ele>398.60000610352</ele>
        <time>2022-06-02T02:45:25.000Z</time>
      </trkpt>
      <trkpt lat="45.1985" lon="5.7274">
        <ele>398.60000610352</ele>
        <time>2022-06-02T02:45:26.000Z</time>
      </trkpt>
      <trkpt lat="45.19851" lon="5.72744">
        <ele>398.60000610352</ele>
        <time>2022-06-02T02:45:27.000Z</time>
      </trkpt>
      <trkpt lat="45.19851" lon="5.72748">
        <ele>398.60000610352</ele>
        <time>2022-06-02T02:45:28.000Z</time>
      </trkpt>
      <trkpt lat="45.19851" lon="5.72751">
        <ele>398.39999389648</ele>
        <time>2022-06-02T02:45:29.000Z</time>
      </trkpt>
      <trkpt lat="45.19849" lon="5.72752">
        <ele>398.39999389648</ele>
        <time>2022-06-02T02:45:30.000Z</time>
      </trkpt>
      <trkpt lat="45.19848" lon="5.72751">
        <ele>398.39999389648</ele>
        <time>2022-06-02T02:45:31.000Z</time>
      </trkpt>
      <trkpt lat="45.19846" lon="5.72749">
        <ele>398.39999389648</ele>
        <time>2022-06-02T02:45:32.000Z</time>
      </trkpt>
      <trkpt lat="45.19843" lon="5.72746">
        <ele>398.39999389648</ele>
        <time>2022-06-02T02:45:33.000Z</time>
      </trkpt>
      <trkpt lat="45.19841" lon="5.72745">
        <ele>398.39999389648</ele>
        <time>2022-06-02T02:45:34.000Z</time>
      </trkpt>
      <trkpt lat="45.19838" lon="5.72742">
        <ele>399</ele>
        <time>2022-06-02T02:45:35.000Z</time>
      </trkpt>
      <trkpt lat="45.19836" lon="5.72741">
        <ele>398.79998779297</ele>
        <time>2022-06-02T02:45:36.000Z</time>
      </trkpt>
      <trkpt lat="45.19834" lon="5.72739">
        <ele>398.39999389648</ele>
        <time>2022-06-02T02:45:37.000Z</time>
      </trkpt>
      <trkpt lat="45.19832" lon="5.72737">
        <ele>398.60000610352</ele>
        <time>2022-06-02T02:45:38.000Z</time>
      </trkpt>
      <trkpt lat="45.19831" lon="5.72735">
        <ele>398.39999389648</ele>
        <time>2022-06-02T02:45:39.000Z</time>
      </trkpt>
      <trkpt lat="45.19831" lon="5.72732">
        <ele>398.20001220703</ele>
        <time>2022-06-02T02:45:40.000Z</time>
      </trkpt>
      <trkpt lat="45.19831" lon="5.72729">
        <ele>398.60000610352</ele>
        <time>2022-06-02T02:45:41.000Z</time>
      </trkpt>
      <trkpt lat="45.19831" lon="5.72726">
        <ele>398.39999389648</ele>
        <time>2022-06-02T02:45:42.000Z</time>
      </trkpt>
      <trkpt lat="45.1983" lon="5.72725">
        <ele>398.39999389648</ele>
        <time>2022-06-02T02:45:43.000Z</time>
      </trkpt>
      <trkpt lat="45.19829" lon="5.72723">
        <ele>398.20001220703</ele>
        <time>2022-06-02T02:45:44.000Z</time>
      </trkpt>
      <trkpt lat="45.19827" lon="5.72721">
        <ele>398.20001220703</ele>
        <time>2022-06-02T02:45:45.000Z</time>
      </trkpt>
      <trkpt lat="45.19825" lon="5.72719">
        <ele>398</ele>
        <time>2022-06-02T02:45:46.000Z</time>
      </trkpt>
      <trkpt lat="45.19822" lon="5.72717">
        <ele>398</ele>
        <time>2022-06-02T02:45:47.000Z</time>
      </trkpt>
      <trkpt lat="45.1982" lon="5.72715">
        <ele>397.79998779297</ele>
        <time>2022-06-02T02:45:48.000Z</time>
      </trkpt>
      <trkpt lat="45.19818" lon="5.72713">
        <ele>398.20001220703</ele>
        <time>2022-06-02T02:45:49.000Z</time>
      </trkpt>
      <trkpt lat="45.19816" lon="5.72711">
        <ele>398.20001220703</ele>
        <time>2022-06-02T02:45:50.000Z</time>
      </trkpt>
      <trkpt lat="45.19814" lon="5.7271">
        <ele>398.20001220703</ele>
        <time>2022-06-02T02:45:51.000Z</time>
      </trkpt>
      <trkpt lat="45.19812" lon="5.72708">
        <ele>398.20001220703</ele>
        <time>2022-06-02T02:45:52.000Z</time>
      </trkpt>
      <trkpt lat="45.1981" lon="5.72706">
        <ele>397.20001220703</ele>
        <time>2022-06-02T02:45:53.000Z</time>
      </trkpt>
      <trkpt lat="45.19808" lon="5.72704">
        <ele>397.20001220703</ele>
        <time>2022-06-02T02:45:54.000Z</time>
      </trkpt>
      <trkpt lat="45.19806" lon="5.72702">
        <ele>397.39999389648</ele>
        <time>2022-06-02T02:45:55.000Z</time>
      </trkpt>
      <trkpt lat="45.19804" lon="5.727">
        <ele>398.20001220703</ele>
        <time>2022-06-02T02:45:56.000Z</time>
      </trkpt>
      <trkpt lat="45.19802" lon="5.72699">
        <ele>398.20001220703</ele>
        <time>2022-06-02T02:45:57.000Z</time>
      </trkpt>
      <trkpt lat="45.19801" lon="5.72697">
        <ele>397.79998779297</ele>
        <time>2022-06-02T02:45:58.000Z</time>
      </trkpt>
      <trkpt lat="45.19799" lon="5.72695">
        <ele>397.79998779297</ele>
        <time>2022-06-02T02:45:59.000Z</time>
      </trkpt>
      <trkpt lat="45.19797" lon="5.72693">
        <ele>397</ele>
        <time>2022-06-02T02:46:00.000Z</time>
      </trkpt>
      <trkpt lat="45.19795" lon="5.72692">
        <ele>398</ele>
        <time>2022-06-02T02:46:01.000Z</time>
      </trkpt>
      <trkpt lat="45.19793" lon="5.7269">
        <ele>397.79998779297</ele>
        <time>2022-06-02T02:46:02.000Z</time>
      </trkpt>
      <trkpt lat="45.19792" lon="5.72688">
        <ele>397.39999389648</ele>
        <time>2022-06-02T02:46:03.000Z</time>
      </trkpt>
      <trkpt lat="45.1979" lon="5.72687">
        <ele>397.60000610352</ele>
        <time>2022-06-02T02:46:04.000Z</time>
      </trkpt>
      <trkpt lat="45.19789" lon="5.72685">
        <ele>397</ele>
        <time>2022-06-02T02:46:05.000Z</time>
      </trkpt>
      <trkpt lat="45.19787" lon="5.72683">
        <ele>397.79998779297</ele>
        <time>2022-06-02T02:46:06.000Z</time>
      </trkpt>
      <trkpt lat="45.19785" lon="5.72682">
        <ele>397.79998779297</ele>
        <time>2022-06-02T02:46:07.000Z</time>
      </trkpt>
      <trkpt lat="45.19783" lon="5.7268">
        <ele>397.79998779297</ele>
        <time>2022-06-02T02:46:08.000Z</time>
      </trkpt>
      <trkpt lat="45.19782" lon="5.72678">
        <ele>397.60000610352</ele>
        <time>2022-06-02T02:46:09.000Z</time>
      </trkpt>
      <trkpt lat="45.1978" lon="5.72676">
        <ele>397.20001220703</ele>
        <time>2022-06-02T02:46:10.000Z</time>
      </trkpt>
      <trkpt lat="45.19778" lon="5.72676">
        <ele>397.20001220703</ele>
        <time>2022-06-02T02:46:11.000Z</time>
      </trkpt>
      <trkpt lat="45.19777" lon="5.72677">
        <ele>397.20001220703</ele>
        <time>2022-06-02T02:46:12.000Z</time>
      </trkpt>
      <trkpt lat="45.19776" lon="5.72679">
        <ele>397.20001220703</ele>
        <time>2022-06-02T02:46:13.000Z</time>
      </trkpt>
      <trkpt lat="45.19774" lon="5.72681">
        <ele>397.20001220703</ele>
        <time>2022-06-02T02:46:14.000Z</time>
      </trkpt>
      <trkpt lat="45.19773" lon="5.72683">
        <ele>397.20001220703</ele>
        <time>2022-06-02T02:46:15.000Z</time>
      </trkpt>
      <trkpt lat="45.19772" lon="5.72684">
        <ele>396.79998779297</ele>
        <time>2022-06-02T02:46:16.000Z</time>
      </trkpt>
      <trkpt lat="45.19771" lon="5.72685">
        <ele>396.79998779297</ele>
        <time>2022-06-02T02:46:17.000Z</time>
      </trkpt>
      <trkpt lat="45.19771" lon="5.72686">
        <ele>396.79998779297</ele>
        <time>2022-06-02T02:46:18.000Z</time>
      </trkpt>
      <trkpt lat="45.19771" lon="5.72686">
        <ele>396.60000610352</ele>
        <time>2022-06-02T02:46:19.000Z</time>
      </trkpt>
      <trkpt lat="45.19771" lon="5.72685">
        <ele>396.60000610352</ele>
        <time>2022-06-02T02:46:20.000Z</time>
      </trkpt>
      <trkpt lat="45.19771" lon="5.72685">
        <ele>396.79998779297</ele>
        <time>2022-06-02T02:46:21.000Z</time>
      </trkpt>
      <trkpt lat="45.19771" lon="5.72685">
        <ele>397</ele>
        <time>2022-06-02T02:46:22.000Z</time>
      </trkpt>
      <trkpt lat="45.19771" lon="5.72685">
        <ele>396.60000610352</ele>
        <time>2022-06-02T02:46:23.000Z</time>
      </trkpt>
      <trkpt lat="45.19771" lon="5.72685">
        <ele>396.60000610352</ele>
        <time>2022-06-02T02:46:24.000Z</time>
      </trkpt>
      <trkpt lat="45.19771" lon="5.72685">
        <ele>396.79998779297</ele>
        <time>2022-06-02T02:46:25.000Z</time>
      </trkpt>
      <trkpt lat="45.19771" lon="5.72685">
        <ele>396.79998779297</ele>
        <time>2022-06-02T02:46:26.000Z</time>
      </trkpt>
      <trkpt lat="45.19771" lon="5.72685">
        <ele>396.79998779297</ele>
        <time>2022-06-02T02:46:27.000Z</time>
      </trkpt>
      <trkpt lat="45.19771" lon="5.72685">
        <ele>396.60000610352</ele>
        <time>2022-06-02T02:46:28.000Z</time>
      </trkpt>
      <trkpt lat="45.19771" lon="5.72685">
        <ele>396.60000610352</ele>
        <time>2022-06-02T02:46:29.000Z</time>
      </trkpt>
      <trkpt lat="45.19772" lon="5.72685">
        <ele>396.60000610352</ele>
        <time>2022-06-02T02:46:30.000Z</time>
      </trkpt>
      <trkpt lat="45.19772" lon="5.72685">
        <ele>396.60000610352</ele>
        <time>2022-06-02T02:46:31.000Z</time>
      </trkpt>
      <trkpt lat="45.19772" lon="5.72685">
        <ele>396.39999389648</ele>
        <time>2022-06-02T02:46:32.000Z</time>
      </trkpt>
      <trkpt lat="45.19772" lon="5.72685">
        <ele>396.39999389648</ele>
        <time>2022-06-02T02:46:33.000Z</time>
      </trkpt>
      <trkpt lat="45.19772" lon="5.72685">
        <ele>396.60000610352</ele>
        <time>2022-06-02T02:46:34.000Z</time>
      </trkpt>
      <trkpt lat="45.19772" lon="5.72685">
        <ele>396.60000610352</ele>
        <time>2022-06-02T02:46:35.000Z</time>
      </trkpt>
      <trkpt lat="45.19772" lon="5.72685">
        <ele>396.39999389648</ele>
        <time>2022-06-02T02:46:36.000Z</time>
      </trkpt>
      <trkpt lat="45.19772" lon="5.72685">
        <ele>396.39999389648</ele>
        <time>2022-06-02T02:46:37.000Z</time>
      </trkpt>
      <trkpt lat="45.19772" lon="5.72685">
        <ele>396.60000610352</ele>
        <time>2022-06-02T02:46:38.000Z</time>
      </trkpt>
      <trkpt lat="45.19772" lon="5.72686">
        <ele>396.79998779297</ele>
        <time>2022-06-02T02:46:39.000Z</time>
      </trkpt>
      <trkpt lat="45.19772" lon="5.72686">
        <ele>396.60000610352</ele>
        <time>2022-06-02T02:46:40.000Z</time>
      </trkpt>
      <trkpt lat="45.19772" lon="5.72687">
        <ele>396.60000610352</ele>
        <time>2022-06-02T02:46:41.000Z</time>
      </trkpt>
      <trkpt lat="45.19772" lon="5.72687">
        <ele>396.60000610352</ele>
        <time>2022-06-02T02:46:42.000Z</time>
      </trkpt>
      <trkpt lat="45.19772" lon="5.72687">
        <ele>396.39999389648</ele>
        <time>2022-06-02T02:46:43.000Z</time>
      </trkpt>
      <trkpt lat="45.19772" lon="5.72687">
        <ele>396.39999389648</ele>
        <time>2022-06-02T02:46:44.000Z</time>
      </trkpt>
      <trkpt lat="45.19772" lon="5.72687">
        <ele>396.39999389648</ele>
        <time>2022-06-02T02:46:45.000Z</time>
      </trkpt>
      <trkpt lat="45.19772" lon="5.72687">
        <ele>396.39999389648</ele>
        <time>2022-06-02T02:46:46.000Z</time>
      </trkpt>
      <trkpt lat="45.19772" lon="5.72687">
        <ele>396.39999389648</ele>
        <time>2022-06-02T02:46:47.000Z</time>
      </trkpt>
      <trkpt lat="45.19772" lon="5.72687">
        <ele>396.79998779297</ele>
        <time>2022-06-02T02:46:48.000Z</time>
      </trkpt>
      <trkpt lat="45.19772" lon="5.72687">
        <ele>396.20001220703</ele>
        <time>2022-06-02T02:46:49.000Z</time>
      </trkpt>
      <trkpt lat="45.19772" lon="5.72687">
        <ele>396.39999389648</ele>
        <time>2022-06-02T02:46:50.000Z</time>
      </trkpt>
      <trkpt lat="45.19772" lon="5.72687">
        <ele>396.60000610352</ele>
        <time>2022-06-02T02:46:51.000Z</time>
      </trkpt>
      <trkpt lat="45.19772" lon="5.72687">
        <ele>396.60000610352</ele>
        <time>2022-06-02T02:46:52.000Z</time>
      </trkpt>
      <trkpt lat="45.19772" lon="5.72687">
        <ele>396.60000610352</ele>
        <time>2022-06-02T02:46:53.000Z</time>
      </trkpt>
      <trkpt lat="45.19772" lon="5.72687">
        <ele>396.39999389648</ele>
        <time>2022-06-02T02:46:54.000Z</time>
      </trkpt>
      <trkpt lat="45.19772" lon="5.72687">
        <ele>396.39999389648</ele>
        <time>2022-06-02T02:46:55.000Z</time>
      </trkpt>
      <trkpt lat="45.19773" lon="5.72687">
        <ele>396.39999389648</ele>
        <time>2022-06-02T02:46:56.000Z</time>
      </trkpt>
      <trkpt lat="45.19773" lon="5.72687">
        <ele>396.39999389648</ele>
        <time>2022-06-02T02:46:57.000Z</time>
      </trkpt>
      <trkpt lat="45.19773" lon="5.72687">
        <ele>396.39999389648</ele>
        <time>2022-06-02T02:46:58.000Z</time>
      </trkpt>
      <trkpt lat="45.19773" lon="5.72687">
        <ele>396.39999389648</ele>
        <time>2022-06-02T02:46:59.000Z</time>
      </trkpt>
      <trkpt lat="45.19773" lon="5.72687">
        <ele>396.60000610352</ele>
        <time>2022-06-02T02:47:00.000Z</time>
      </trkpt>
      <trkpt lat="45.19773" lon="5.72687">
        <ele>396.60000610352</ele>
        <time>2022-06-02T02:47:01.000Z</time>
      </trkpt>
      <trkpt lat="45.19773" lon="5.72687">
        <ele>396.39999389648</ele>
        <time>2022-06-02T02:47:02.000Z</time>
      </trkpt>
      <trkpt lat="45.19772" lon="5.72687">
        <ele>396.39999389648</ele>
        <time>2022-06-02T02:47:03.000Z</time>
      </trkpt>
      <trkpt lat="45.19772" lon="5.72687">
        <ele>396.39999389648</ele>
        <time>2022-06-02T02:47:04.000Z</time>
      </trkpt>
      <trkpt lat="45.19772" lon="5.72687">
        <ele>396.39999389648</ele>
        <time>2022-06-02T02:47:05.000Z</time>
      </trkpt>
      <trkpt lat="45.19772" lon="5.72687">
        <ele>396.39999389648</ele>
        <time>2022-06-02T02:47:06.000Z</time>
      </trkpt>
      <trkpt lat="45.19772" lon="5.72687">
        <ele>396.39999389648</ele>
        <time>2022-06-02T02:47:07.000Z</time>
      </trkpt>
      <trkpt lat="45.19772" lon="5.72687">
        <ele>396.39999389648</ele>
        <time>2022-06-02T02:47:08.000Z</time>
      </trkpt>
      <trkpt lat="45.19772" lon="5.72687">
        <ele>396.39999389648</ele>
        <time>2022-06-02T02:47:09.000Z</time>
      </trkpt>
      <trkpt lat="45.19772" lon="5.72687">
        <ele>396.39999389648</ele>
        <time>2022-06-02T02:47:10.000Z</time>
      </trkpt>
      <trkpt lat="45.19772" lon="5.72687">
        <ele>396.20001220703</ele>
        <time>2022-06-02T02:47:11.000Z</time>
      </trkpt>
      <trkpt lat="45.19772" lon="5.72687">
        <ele>396.20001220703</ele>
        <time>2022-06-02T02:47:12.000Z</time>
      </trkpt>
      <trkpt lat="45.19772" lon="5.72687">
        <ele>396.39999389648</ele>
        <time>2022-06-02T02:47:13.000Z</time>
      </trkpt>
      <trkpt lat="45.19772" lon="5.72687">
        <ele>396.39999389648</ele>
        <time>2022-06-02T02:47:14.000Z</time>
      </trkpt>
      <trkpt lat="45.19772" lon="5.72687">
        <ele>396.20001220703</ele>
        <time>2022-06-02T02:47:15.000Z</time>
      </trkpt>
      <trkpt lat="45.19772" lon="5.72687">
        <ele>396.39999389648</ele>
        <time>2022-06-02T02:47:16.000Z</time>
      </trkpt>
      <trkpt lat="45.19772" lon="5.72686">
        <ele>396.39999389648</ele>
        <time>2022-06-02T02:47:17.000Z</time>
      </trkpt>
      <trkpt lat="45.19772" lon="5.72686">
        <ele>396.60000610352</ele>
        <time>2022-06-02T02:47:18.000Z</time>
      </trkpt>
      <trkpt lat="45.19771" lon="5.72686">
        <ele>396.39999389648</ele>
        <time>2022-06-02T02:47:19.000Z</time>
      </trkpt>
      <trkpt lat="45.19771" lon="5.72686">
        <ele>396.39999389648</ele>
        <time>2022-06-02T02:47:20.000Z</time>
      </trkpt>
      <trkpt lat="45.19772" lon="5.72686">
        <ele>396.39999389648</ele>
        <time>2022-06-02T02:47:21.000Z</time>
      </trkpt>
      <trkpt lat="45.19771" lon="5.72684">
        <ele>396.20001220703</ele>
        <time>2022-06-02T02:47:22.000Z</time>
      </trkpt>
      <trkpt lat="45.19771" lon="5.72683">
        <ele>396</ele>
        <time>2022-06-02T02:47:23.000Z</time>
      </trkpt>
      <trkpt lat="45.1977" lon="5.72681">
        <ele>396</ele>
        <time>2022-06-02T02:47:24.000Z</time>
      </trkpt>
      <trkpt lat="45.19769" lon="5.7268">
        <ele>396</ele>
        <time>2022-06-02T02:47:25.000Z</time>
      </trkpt>
      <trkpt lat="45.19768" lon="5.72678">
        <ele>396</ele>
        <time>2022-06-02T02:47:26.000Z</time>
      </trkpt>
      <trkpt lat="45.19768" lon="5.72676">
        <ele>395.79998779297</ele>
        <time>2022-06-02T02:47:27.000Z</time>
      </trkpt>
      <trkpt lat="45.19769" lon="5.72674">
        <ele>396</ele>
        <time>2022-06-02T02:47:28.000Z</time>
      </trkpt>
      <trkpt lat="45.1977" lon="5.72672">
        <ele>396.20001220703</ele>
        <time>2022-06-02T02:47:29.000Z</time>
      </trkpt>
      <trkpt lat="45.19771" lon="5.7267">
        <ele>396.39999389648</ele>
        <time>2022-06-02T02:47:30.000Z</time>
      </trkpt>
      <trkpt lat="45.19771" lon="5.72668">
        <ele>396.20001220703</ele>
        <time>2022-06-02T02:47:31.000Z</time>
      </trkpt>
      <trkpt lat="45.19771" lon="5.72667">
        <ele>396.39999389648</ele>
        <time>2022-06-02T02:47:32.000Z</time>
      </trkpt>
      <trkpt lat="45.19771" lon="5.72665">
        <ele>396.20001220703</ele>
        <time>2022-06-02T02:47:33.000Z</time>
      </trkpt>
      <trkpt lat="45.1977" lon="5.72664">
        <ele>396.60000610352</ele>
        <time>2022-06-02T02:47:34.000Z</time>
      </trkpt>
      <trkpt lat="45.19768" lon="5.72662">
        <ele>396.60000610352</ele>
        <time>2022-06-02T02:47:35.000Z</time>
      </trkpt>
      <trkpt lat="45.19767" lon="5.7266">
        <ele>396.60000610352</ele>
        <time>2022-06-02T02:47:36.000Z</time>
      </trkpt>
      <trkpt lat="45.19766" lon="5.72659">
        <ele>396.60000610352</ele>
        <time>2022-06-02T02:47:37.000Z</time>
      </trkpt>
      <trkpt lat="45.19765" lon="5.72656">
        <ele>396.60000610352</ele>
        <time>2022-06-02T02:47:38.000Z</time>
      </trkpt>
      <trkpt lat="45.19763" lon="5.72653">
        <ele>396.39999389648</ele>
        <time>2022-06-02T02:47:39.000Z</time>
      </trkpt>
      <trkpt lat="45.19761" lon="5.7265">
        <ele>396.39999389648</ele>
        <time>2022-06-02T02:47:40.000Z</time>
      </trkpt>
      <trkpt lat="45.1976" lon="5.72648">
        <ele>396.60000610352</ele>
        <time>2022-06-02T02:47:41.000Z</time>
      </trkpt>
      <trkpt lat="45.19758" lon="5.72646">
        <ele>397</ele>
        <time>2022-06-02T02:47:42.000Z</time>
      </trkpt>
      <trkpt lat="45.19756" lon="5.72644">
        <ele>397</ele>
        <time>2022-06-02T02:47:43.000Z</time>
      </trkpt>
      <trkpt lat="45.19754" lon="5.72642">
        <ele>397.20001220703</ele>
        <time>2022-06-02T02:47:44.000Z</time>
      </trkpt>
      <trkpt lat="45.19752" lon="5.72639">
        <ele>397.20001220703</ele>
        <time>2022-06-02T02:47:45.000Z</time>
      </trkpt>
      <trkpt lat="45.1975" lon="5.72637">
        <ele>396.79998779297</ele>
        <time>2022-06-02T02:47:46.000Z</time>
      </trkpt>
      <trkpt lat="45.19749" lon="5.72635">
        <ele>396.79998779297</ele>
        <time>2022-06-02T02:47:47.000Z</time>
      </trkpt>
      <trkpt lat="45.19747" lon="5.72633">
        <ele>396.39999389648</ele>
        <time>2022-06-02T02:47:48.000Z</time>
      </trkpt>
      <trkpt lat="45.19745" lon="5.72632">
        <ele>397.20001220703</ele>
        <time>2022-06-02T02:47:49.000Z</time>
      </trkpt>
      <trkpt lat="45.19744" lon="5.72631">
        <ele>397</ele>
        <time>2022-06-02T02:47:50.000Z</time>
      </trkpt>
      <trkpt lat="45.19744" lon="5.72631">
        <ele>397.39999389648</ele>
        <time>2022-06-02T02:47:51.000Z</time>
      </trkpt>
      <trkpt lat="45.19743" lon="5.72632">
        <ele>397.39999389648</ele>
        <time>2022-06-02T02:47:52.000Z</time>
      </trkpt>
      <trkpt lat="45.19741" lon="5.72633">
        <ele>397.39999389648</ele>
        <time>2022-06-02T02:47:53.000Z</time>
      </trkpt>
      <trkpt lat="45.19739" lon="5.72634">
        <ele>397.39999389648</ele>
        <time>2022-06-02T02:47:54.000Z</time>
      </trkpt>
      <trkpt lat="45.19738" lon="5.72634">
        <ele>396.79998779297</ele>
        <time>2022-06-02T02:47:55.000Z</time>
      </trkpt>
      <trkpt lat="45.19736" lon="5.72632">
        <ele>397</ele>
        <time>2022-06-02T02:47:56.000Z</time>
      </trkpt>
      <trkpt lat="45.19734" lon="5.72631">
        <ele>397.39999389648</ele>
        <time>2022-06-02T02:47:57.000Z</time>
      </trkpt>
      <trkpt lat="45.19732" lon="5.7263">
        <ele>397.20001220703</ele>
        <time>2022-06-02T02:47:58.000Z</time>
      </trkpt>
      <trkpt lat="45.19731" lon="5.72628">
        <ele>397</ele>
        <time>2022-06-02T02:47:59.000Z</time>
      </trkpt>
      <trkpt lat="45.19731" lon="5.72626">
        <ele>397</ele>
        <time>2022-06-02T02:48:00.000Z</time>
      </trkpt>
      <trkpt lat="45.19731" lon="5.72624">
        <ele>396.79998779297</ele>
        <time>2022-06-02T02:48:01.000Z</time>
      </trkpt>
      <trkpt lat="45.19731" lon="5.72621">
        <ele>397.39999389648</ele>
        <time>2022-06-02T02:48:02.000Z</time>
      </trkpt>
      <trkpt lat="45.19731" lon="5.72619">
        <ele>397.20001220703</ele>
        <time>2022-06-02T02:48:03.000Z</time>
      </trkpt>
      <trkpt lat="45.19732" lon="5.72617">
        <ele>397.20001220703</ele>
        <time>2022-06-02T02:48:04.000Z</time>
      </trkpt>
      <trkpt lat="45.19733" lon="5.72616">
        <ele>397.20001220703</ele>
        <time>2022-06-02T02:48:05.000Z</time>
      </trkpt>
      <trkpt lat="45.19735" lon="5.72616">
        <ele>397.20001220703</ele>
        <time>2022-06-02T02:48:06.000Z</time>
      </trkpt>
      <trkpt lat="45.19736" lon="5.72615">
        <ele>397</ele>
        <time>2022-06-02T02:48:07.000Z</time>
      </trkpt>
      <trkpt lat="45.19738" lon="5.72614">
        <ele>396.79998779297</ele>
        <time>2022-06-02T02:48:08.000Z</time>
      </trkpt>
      <trkpt lat="45.19739" lon="5.72613">
        <ele>396.79998779297</ele>
        <time>2022-06-02T02:48:09.000Z</time>
      </trkpt>
      <trkpt lat="45.1974" lon="5.72611">
        <ele>397</ele>
        <time>2022-06-02T02:48:10.000Z</time>
      </trkpt>
      <trkpt lat="45.19741" lon="5.72608">
        <ele>397.20001220703</ele>
        <time>2022-06-02T02:48:11.000Z</time>
      </trkpt>
      <trkpt lat="45.19741" lon="5.72605">
        <ele>396.79998779297</ele>
        <time>2022-06-02T02:48:12.000Z</time>
      </trkpt>
      <trkpt lat="45.19741" lon="5.72602">
        <ele>396.79998779297</ele>
        <time>2022-06-02T02:48:13.000Z</time>
      </trkpt>
      <trkpt lat="45.1974" lon="5.72598">
        <ele>397</ele>
        <time>2022-06-02T02:48:14.000Z</time>
      </trkpt>
      <trkpt lat="45.1974" lon="5.72595">
        <ele>396.79998779297</ele>
        <time>2022-06-02T02:48:15.000Z</time>
      </trkpt>
      <trkpt lat="45.1974" lon="5.72592">
        <ele>397.39999389648</ele>
        <time>2022-06-02T02:48:16.000Z</time>
      </trkpt>
      <trkpt lat="45.1974" lon="5.72589">
        <ele>397.20001220703</ele>
        <time>2022-06-02T02:48:17.000Z</time>
      </trkpt>
      <trkpt lat="45.1974" lon="5.72586">
        <ele>396.79998779297</ele>
        <time>2022-06-02T02:48:18.000Z</time>
      </trkpt>
      <trkpt lat="45.1974" lon="5.72582">
        <ele>397</ele>
        <time>2022-06-02T02:48:19.000Z</time>
      </trkpt>
      <trkpt lat="45.1974" lon="5.72579">
        <ele>397</ele>
        <time>2022-06-02T02:48:20.000Z</time>
      </trkpt>
      <trkpt lat="45.1974" lon="5.72576">
        <ele>397.39999389648</ele>
        <time>2022-06-02T02:48:21.000Z</time>
      </trkpt>
      <trkpt lat="45.1974" lon="5.72573">
        <ele>396.79998779297</ele>
        <time>2022-06-02T02:48:22.000Z</time>
      </trkpt>
      <trkpt lat="45.1974" lon="5.7257">
        <ele>397</ele>
        <time>2022-06-02T02:48:23.000Z</time>
      </trkpt>
      <trkpt lat="45.1974" lon="5.72566">
        <ele>397.39999389648</ele>
        <time>2022-06-02T02:48:24.000Z</time>
      </trkpt>
      <trkpt lat="45.1974" lon="5.72564">
        <ele>397.39999389648</ele>
        <time>2022-06-02T02:48:25.000Z</time>
      </trkpt>
      <trkpt lat="45.19739" lon="5.72561">
        <ele>397.39999389648</ele>
        <time>2022-06-02T02:48:26.000Z</time>
      </trkpt>
      <trkpt lat="45.19739" lon="5.72559">
        <ele>396.79998779297</ele>
        <time>2022-06-02T02:48:27.000Z</time>
      </trkpt>
      <trkpt lat="45.19739" lon="5.72556">
        <ele>397.39999389648</ele>
        <time>2022-06-02T02:48:28.000Z</time>
      </trkpt>
      <trkpt lat="45.19739" lon="5.72552">
        <ele>397.60000610352</ele>
        <time>2022-06-02T02:48:29.000Z</time>
      </trkpt>
      <trkpt lat="45.1974" lon="5.72549">
        <ele>397.39999389648</ele>
        <time>2022-06-02T02:48:30.000Z</time>
      </trkpt>
      <trkpt lat="45.1974" lon="5.72545">
        <ele>397</ele>
        <time>2022-06-02T02:48:31.000Z</time>
      </trkpt>
      <trkpt lat="45.1974" lon="5.72541">
        <ele>397</ele>
        <time>2022-06-02T02:48:32.000Z</time>
      </trkpt>
      <trkpt lat="45.1974" lon="5.72538">
        <ele>397.39999389648</ele>
        <time>2022-06-02T02:48:33.000Z</time>
      </trkpt>
      <trkpt lat="45.1974" lon="5.72535">
        <ele>397.20001220703</ele>
        <time>2022-06-02T02:48:34.000Z</time>
      </trkpt>
      <trkpt lat="45.19738" lon="5.72533">
        <ele>396.79998779297</ele>
        <time>2022-06-02T02:48:35.000Z</time>
      </trkpt>
      <trkpt lat="45.19737" lon="5.72533">
        <ele>397.20001220703</ele>
        <time>2022-06-02T02:48:36.000Z</time>
      </trkpt>
      <trkpt lat="45.19735" lon="5.72533">
        <ele>397.20001220703</ele>
        <time>2022-06-02T02:48:37.000Z</time>
      </trkpt>
      <trkpt lat="45.19734" lon="5.72533">
        <ele>396.79998779297</ele>
        <time>2022-06-02T02:48:38.000Z</time>
      </trkpt>
      <trkpt lat="45.19732" lon="5.72533">
        <ele>396.79998779297</ele>
        <time>2022-06-02T02:48:39.000Z</time>
      </trkpt>
      <trkpt lat="45.1973" lon="5.72532">
        <ele>396.79998779297</ele>
        <time>2022-06-02T02:48:40.000Z</time>
      </trkpt>
      <trkpt lat="45.1973" lon="5.7253">
        <ele>397</ele>
        <time>2022-06-02T02:48:41.000Z</time>
      </trkpt>
      <trkpt lat="45.19729" lon="5.72528">
        <ele>397.20001220703</ele>
        <time>2022-06-02T02:48:42.000Z</time>
      </trkpt>
      <trkpt lat="45.19728" lon="5.72524">
        <ele>397.20001220703</ele>
        <time>2022-06-02T02:48:43.000Z</time>
      </trkpt>
      <trkpt lat="45.19728" lon="5.72521">
        <ele>397.39999389648</ele>
        <time>2022-06-02T02:48:44.000Z</time>
      </trkpt>
      <trkpt lat="45.19727" lon="5.72519">
        <ele>397</ele>
        <time>2022-06-02T02:48:45.000Z</time>
      </trkpt>
      <trkpt lat="45.19727" lon="5.72517">
        <ele>397</ele>
        <time>2022-06-02T02:48:46.000Z</time>
      </trkpt>
      <trkpt lat="45.19728" lon="5.72515">
        <ele>397.39999389648</ele>
        <time>2022-06-02T02:48:47.000Z</time>
      </trkpt>
      <trkpt lat="45.19729" lon="5.72513">
        <ele>397.60000610352</ele>
        <time>2022-06-02T02:48:48.000Z</time>
      </trkpt>
      <trkpt lat="45.19731" lon="5.72511">
        <ele>397.20001220703</ele>
        <time>2022-06-02T02:48:49.000Z</time>
      </trkpt>
      <trkpt lat="45.19732" lon="5.72509">
        <ele>397.20001220703</ele>
        <time>2022-06-02T02:48:50.000Z</time>
      </trkpt>
      <trkpt lat="45.19734" lon="5.72507">
        <ele>397</ele>
        <time>2022-06-02T02:48:51.000Z</time>
      </trkpt>
      <trkpt lat="45.19735" lon="5.72506">
        <ele>397</ele>
        <time>2022-06-02T02:48:52.000Z</time>
      </trkpt>
      <trkpt lat="45.19736" lon="5.72507">
        <ele>397.79998779297</ele>
        <time>2022-06-02T02:48:53.000Z</time>
      </trkpt>
      <trkpt lat="45.19738" lon="5.72508">
        <ele>397.79998779297</ele>
        <time>2022-06-02T02:48:54.000Z</time>
      </trkpt>
      <trkpt lat="45.19741" lon="5.7251">
        <ele>397.79998779297</ele>
        <time>2022-06-02T02:48:55.000Z</time>
      </trkpt>
      <trkpt lat="45.19743" lon="5.72511">
        <ele>397</ele>
        <time>2022-06-02T02:48:56.000Z</time>
      </trkpt>
      <trkpt lat="45.19744" lon="5.72511">
        <ele>396.79998779297</ele>
        <time>2022-06-02T02:48:57.000Z</time>
      </trkpt>
      <trkpt lat="45.19745" lon="5.7251">
        <ele>396.79998779297</ele>
        <time>2022-06-02T02:48:58.000Z</time>
      </trkpt>
      <trkpt lat="45.19748" lon="5.72508">
        <ele>397.39999389648</ele>
        <time>2022-06-02T02:48:59.000Z</time>
      </trkpt>
      <trkpt lat="45.19749" lon="5.72505">
        <ele>397.39999389648</ele>
        <time>2022-06-02T02:49:00.000Z</time>
      </trkpt>
      <trkpt lat="45.19751" lon="5.72501">
        <ele>397</ele>
        <time>2022-06-02T02:49:01.000Z</time>
      </trkpt>
      <trkpt lat="45.19753" lon="5.72498">
        <ele>396.60000610352</ele>
        <time>2022-06-02T02:49:02.000Z</time>
      </trkpt>
      <trkpt lat="45.19754" lon="5.72496">
        <ele>397.39999389648</ele>
        <time>2022-06-02T02:49:03.000Z</time>
      </trkpt>
      <trkpt lat="45.19756" lon="5.72493">
        <ele>397</ele>
        <time>2022-06-02T02:49:04.000Z</time>
      </trkpt>
      <trkpt lat="45.19757" lon="5.7249">
        <ele>396.79998779297</ele>
        <time>2022-06-02T02:49:05.000Z</time>
      </trkpt>
      <trkpt lat="45.19758" lon="5.72488">
        <ele>397.20001220703</ele>
        <time>2022-06-02T02:49:06.000Z</time>
      </trkpt>
      <trkpt lat="45.1976" lon="5.72486">
        <ele>397.60000610352</ele>
        <time>2022-06-02T02:49:07.000Z</time>
      </trkpt>
      <trkpt lat="45.19762" lon="5.72483">
        <ele>397.20001220703</ele>
        <time>2022-06-02T02:49:08.000Z</time>
      </trkpt>
      <trkpt lat="45.19763" lon="5.7248">
        <ele>397.20001220703</ele>
        <time>2022-06-02T02:49:09.000Z</time>
      </trkpt>
      <trkpt lat="45.19765" lon="5.72477">
        <ele>397</ele>
        <time>2022-06-02T02:49:10.000Z</time>
      </trkpt>
      <trkpt lat="45.19766" lon="5.72474">
        <ele>397.39999389648</ele>
        <time>2022-06-02T02:49:11.000Z</time>
      </trkpt>
      <trkpt lat="45.19768" lon="5.72472">
        <ele>396.79998779297</ele>
        <time>2022-06-02T02:49:12.000Z</time>
      </trkpt>
      <trkpt lat="45.19769" lon="5.72469">
        <ele>396.79998779297</ele>
        <time>2022-06-02T02:49:13.000Z</time>
      </trkpt>
      <trkpt lat="45.19771" lon="5.72466">
        <ele>397.39999389648</ele>
        <time>2022-06-02T02:49:14.000Z</time>
      </trkpt>
      <trkpt lat="45.19772" lon="5.72463">
        <ele>396.79998779297</ele>
        <time>2022-06-02T02:49:15.000Z</time>
      </trkpt>
      <trkpt lat="45.19774" lon="5.7246">
        <ele>396.79998779297</ele>
        <time>2022-06-02T02:49:16.000Z</time>
      </trkpt>
      <trkpt lat="45.19775" lon="5.72458">
        <ele>397.39999389648</ele>
        <time>2022-06-02T02:49:17.000Z</time>
      </trkpt>
      <trkpt lat="45.19777" lon="5.72455">
        <ele>397</ele>
        <time>2022-06-02T02:49:18.000Z</time>
      </trkpt>
      <trkpt lat="45.19778" lon="5.72453">
        <ele>396.60000610352</ele>
        <time>2022-06-02T02:49:19.000Z</time>
      </trkpt>
      <trkpt lat="45.19779" lon="5.7245">
        <ele>397</ele>
        <time>2022-06-02T02:49:20.000Z</time>
      </trkpt>
      <trkpt lat="45.19781" lon="5.72447">
        <ele>397.20001220703</ele>
        <time>2022-06-02T02:49:21.000Z</time>
      </trkpt>
      <trkpt lat="45.19782" lon="5.72445">
        <ele>397.20001220703</ele>
        <time>2022-06-02T02:49:22.000Z</time>
      </trkpt>
      <trkpt lat="45.19783" lon="5.72442">
        <ele>396.60000610352</ele>
        <time>2022-06-02T02:49:23.000Z</time>
      </trkpt>
      <trkpt lat="45.19785" lon="5.72439">
        <ele>397.39999389648</ele>
        <time>2022-06-02T02:49:24.000Z</time>
      </trkpt>
      <trkpt lat="45.19787" lon="5.72436">
        <ele>397.79998779297</ele>
        <time>2022-06-02T02:49:25.000Z</time>
      </trkpt>
      <trkpt lat="45.19788" lon="5.72433">
        <ele>397</ele>
        <time>2022-06-02T02:49:26.000Z</time>
      </trkpt>
      <trkpt lat="45.19789" lon="5.72431">
        <ele>397</ele>
        <time>2022-06-02T02:49:27.000Z</time>
      </trkpt>
      <trkpt lat="45.19791" lon="5.72428">
        <ele>397</ele>
        <time>2022-06-02T02:49:28.000Z</time>
      </trkpt>
      <trkpt lat="45.19792" lon="5.72425">
        <ele>397.79998779297</ele>
        <time>2022-06-02T02:49:29.000Z</time>
      </trkpt>
      <trkpt lat="45.19793" lon="5.72422">
        <ele>397.79998779297</ele>
        <time>2022-06-02T02:49:30.000Z</time>
      </trkpt>
      <trkpt lat="45.19794" lon="5.72418">
        <ele>397.39999389648</ele>
        <time>2022-06-02T02:49:31.000Z</time>
      </trkpt>
      <trkpt lat="45.19794" lon="5.72415">
        <ele>397.60000610352</ele>
        <time>2022-06-02T02:49:32.000Z</time>
      </trkpt>
      <trkpt lat="45.19794" lon="5.72412">
        <ele>397.79998779297</ele>
        <time>2022-06-02T02:49:33.000Z</time>
      </trkpt>
      <trkpt lat="45.19794" lon="5.72409">
        <ele>398</ele>
        <time>2022-06-02T02:49:34.000Z</time>
      </trkpt>
      <trkpt lat="45.19793" lon="5.72405">
        <ele>398.20001220703</ele>
        <time>2022-06-02T02:49:35.000Z</time>
      </trkpt>
      <trkpt lat="45.19793" lon="5.72402">
        <ele>397.79998779297</ele>
        <time>2022-06-02T02:49:36.000Z</time>
      </trkpt>
      <trkpt lat="45.19792" lon="5.72398">
        <ele>397.79998779297</ele>
        <time>2022-06-02T02:49:37.000Z</time>
      </trkpt>
      <trkpt lat="45.19792" lon="5.72394">
        <ele>397.39999389648</ele>
        <time>2022-06-02T02:49:38.000Z</time>
      </trkpt>
      <trkpt lat="45.19792" lon="5.7239">
        <ele>398.20001220703</ele>
        <time>2022-06-02T02:49:39.000Z</time>
      </trkpt>
      <trkpt lat="45.19792" lon="5.72386">
        <ele>397.79998779297</ele>
        <time>2022-06-02T02:49:40.000Z</time>
      </trkpt>
      <trkpt lat="45.19792" lon="5.72383">
        <ele>397.60000610352</ele>
        <time>2022-06-02T02:49:41.000Z</time>
      </trkpt>
      <trkpt lat="45.19792" lon="5.72379">
        <ele>398</ele>
        <time>2022-06-02T02:49:42.000Z</time>
      </trkpt>
      <trkpt lat="45.19793" lon="5.72377">
        <ele>398.60000610352</ele>
        <time>2022-06-02T02:49:43.000Z</time>
      </trkpt>
      <trkpt lat="45.19794" lon="5.72374">
        <ele>398</ele>
        <time>2022-06-02T02:49:44.000Z</time>
      </trkpt>
      <trkpt lat="45.19795" lon="5.72371">
        <ele>397.79998779297</ele>
        <time>2022-06-02T02:49:45.000Z</time>
      </trkpt>
      <trkpt lat="45.19797" lon="5.72367">
        <ele>398</ele>
        <time>2022-06-02T02:49:46.000Z</time>
      </trkpt>
      <trkpt lat="45.19798" lon="5.72364">
        <ele>398</ele>
        <time>2022-06-02T02:49:47.000Z</time>
      </trkpt>
      <trkpt lat="45.19799" lon="5.72361">
        <ele>397.60000610352</ele>
        <time>2022-06-02T02:49:48.000Z</time>
      </trkpt>
      <trkpt lat="45.19801" lon="5.72358">
        <ele>397.79998779297</ele>
        <time>2022-06-02T02:49:49.000Z</time>
      </trkpt>
      <trkpt lat="45.19802" lon="5.72355">
        <ele>397.79998779297</ele>
        <time>2022-06-02T02:49:50.000Z</time>
      </trkpt>
      <trkpt lat="45.19804" lon="5.72351">
        <ele>398.20001220703</ele>
        <time>2022-06-02T02:49:51.000Z</time>
      </trkpt>
      <trkpt lat="45.19805" lon="5.72349">
        <ele>397.79998779297</ele>
        <time>2022-06-02T02:49:52.000Z</time>
      </trkpt>
      <trkpt lat="45.19806" lon="5.72346">
        <ele>397.39999389648</ele>
        <time>2022-06-02T02:49:53.000Z</time>
      </trkpt>
      <trkpt lat="45.19807" lon="5.72343">
        <ele>398.20001220703</ele>
        <time>2022-06-02T02:49:54.000Z</time>
      </trkpt>
      <trkpt lat="45.19809" lon="5.72339">
        <ele>397.79998779297</ele>
        <time>2022-06-02T02:49:55.000Z</time>
      </trkpt>
      <trkpt lat="45.1981" lon="5.72336">
        <ele>397.79998779297</ele>
        <time>2022-06-02T02:49:56.000Z</time>
      </trkpt>
      <trkpt lat="45.19811" lon="5.72333">
        <ele>397.79998779297</ele>
        <time>2022-06-02T02:49:57.000Z</time>
      </trkpt>
      <trkpt lat="45.19812" lon="5.7233">
        <ele>398.20001220703</ele>
        <time>2022-06-02T02:49:58.000Z</time>
      </trkpt>
      <trkpt lat="45.19813" lon="5.72327">
        <ele>397.79998779297</ele>
        <time>2022-06-02T02:49:59.000Z</time>
      </trkpt>
      <trkpt lat="45.19815" lon="5.72324">
        <ele>397.60000610352</ele>
        <time>2022-06-02T02:50:00.000Z</time>
      </trkpt>
      <trkpt lat="45.19815" lon="5.72321">
        <ele>398</ele>
        <time>2022-06-02T02:50:01.000Z</time>
      </trkpt>
      <trkpt lat="45.19815" lon="5.7232">
        <ele>398</ele>
        <time>2022-06-02T02:50:02.000Z</time>
      </trkpt>
      <trkpt lat="45.19814" lon="5.72319">
        <ele>398</ele>
        <time>2022-06-02T02:50:03.000Z</time>
      </trkpt>
      <trkpt lat="45.19814" lon="5.72318">
        <ele>397.79998779297</ele>
        <time>2022-06-02T02:50:04.000Z</time>
      </trkpt>
      <trkpt lat="45.19815" lon="5.72316">
        <ele>397.39999389648</ele>
        <time>2022-06-02T02:50:05.000Z</time>
      </trkpt>
      <trkpt lat="45.19815" lon="5.72314">
        <ele>397.79998779297</ele>
        <time>2022-06-02T02:50:06.000Z</time>
      </trkpt>
      <trkpt lat="45.19816" lon="5.72311">
        <ele>397.79998779297</ele>
        <time>2022-06-02T02:50:07.000Z</time>
      </trkpt>
      <trkpt lat="45.19817" lon="5.72309">
        <ele>397.60000610352</ele>
        <time>2022-06-02T02:50:08.000Z</time>
      </trkpt>
      <trkpt lat="45.19818" lon="5.72306">
        <ele>397.79998779297</ele>
        <time>2022-06-02T02:50:09.000Z</time>
      </trkpt>
      <trkpt lat="45.19819" lon="5.72304">
        <ele>397.79998779297</ele>
        <time>2022-06-02T02:50:10.000Z</time>
      </trkpt>
      <trkpt lat="45.1982" lon="5.72301">
        <ele>397.20001220703</ele>
        <time>2022-06-02T02:50:11.000Z</time>
      </trkpt>
      <trkpt lat="45.1982" lon="5.723">
        <ele>397.20001220703</ele>
        <time>2022-06-02T02:50:12.000Z</time>
      </trkpt>
      <trkpt lat="45.1982" lon="5.72299">
        <ele>397.39999389648</ele>
        <time>2022-06-02T02:50:13.000Z</time>
      </trkpt>
      <trkpt lat="45.1982" lon="5.72299">
        <ele>397.39999389648</ele>
        <time>2022-06-02T02:50:14.000Z</time>
      </trkpt>
      <trkpt lat="45.1982" lon="5.72299">
        <ele>397.20001220703</ele>
        <time>2022-06-02T02:50:15.000Z</time>
      </trkpt>
      <trkpt lat="45.1982" lon="5.72299">
        <ele>397</ele>
        <time>2022-06-02T02:50:16.000Z</time>
      </trkpt>
      <trkpt lat="45.1982" lon="5.72299">
        <ele>397.20001220703</ele>
        <time>2022-06-02T02:50:17.000Z</time>
      </trkpt>
      <trkpt lat="45.1982" lon="5.72299">
        <ele>397.20001220703</ele>
        <time>2022-06-02T02:50:18.000Z</time>
      </trkpt>
      <trkpt lat="45.1982" lon="5.72299">
        <ele>397</ele>
        <time>2022-06-02T02:50:19.000Z</time>
      </trkpt>
      <trkpt lat="45.1982" lon="5.72299">
        <ele>397.20001220703</ele>
        <time>2022-06-02T02:50:20.000Z</time>
      </trkpt>
      <trkpt lat="45.1982" lon="5.72299">
        <ele>397.20001220703</ele>
        <time>2022-06-02T02:50:21.000Z</time>
      </trkpt>
      <trkpt lat="45.1982" lon="5.72299">
        <ele>397</ele>
        <time>2022-06-02T02:50:22.000Z</time>
      </trkpt>
      <trkpt lat="45.1982" lon="5.72299">
        <ele>397</ele>
        <time>2022-06-02T02:50:23.000Z</time>
      </trkpt>
      <trkpt lat="45.1982" lon="5.72298">
        <ele>397</ele>
        <time>2022-06-02T02:50:24.000Z</time>
      </trkpt>
      <trkpt lat="45.1982" lon="5.72298">
        <ele>397</ele>
        <time>2022-06-02T02:50:25.000Z</time>
      </trkpt>
      <trkpt lat="45.1982" lon="5.72298">
        <ele>397.20001220703</ele>
        <time>2022-06-02T02:50:26.000Z</time>
      </trkpt>
      <trkpt lat="45.1982" lon="5.72298">
        <ele>397.20001220703</ele>
        <time>2022-06-02T02:50:27.000Z</time>
      </trkpt>
      <trkpt lat="45.1982" lon="5.72298">
        <ele>397.20001220703</ele>
        <time>2022-06-02T02:50:28.000Z</time>
      </trkpt>
      <trkpt lat="45.1982" lon="5.72299">
        <ele>397.20001220703</ele>
        <time>2022-06-02T02:50:29.000Z</time>
      </trkpt>
      <trkpt lat="45.1982" lon="5.72299">
        <ele>397.20001220703</ele>
        <time>2022-06-02T02:50:30.000Z</time>
      </trkpt>
      <trkpt lat="45.1982" lon="5.72298">
        <ele>397</ele>
        <time>2022-06-02T02:50:31.000Z</time>
      </trkpt>
      <trkpt lat="45.1982" lon="5.72299">
        <ele>396.79998779297</ele>
        <time>2022-06-02T02:50:32.000Z</time>
      </trkpt>
      <trkpt lat="45.1982" lon="5.72298">
        <ele>397</ele>
        <time>2022-06-02T02:50:33.000Z</time>
      </trkpt>
      <trkpt lat="45.1982" lon="5.72298">
        <ele>396.79998779297</ele>
        <time>2022-06-02T02:50:34.000Z</time>
      </trkpt>
      <trkpt lat="45.1982" lon="5.72298">
        <ele>397</ele>
        <time>2022-06-02T02:50:35.000Z</time>
      </trkpt>
      <trkpt lat="45.1982" lon="5.72298">
        <ele>397</ele>
        <time>2022-06-02T02:50:36.000Z</time>
      </trkpt>
      <trkpt lat="45.1982" lon="5.72298">
        <ele>397</ele>
        <time>2022-06-02T02:50:37.000Z</time>
      </trkpt>
      <trkpt lat="45.1982" lon="5.72298">
        <ele>397</ele>
        <time>2022-06-02T02:50:38.000Z</time>
      </trkpt>
      <trkpt lat="45.1982" lon="5.72298">
        <ele>397</ele>
        <time>2022-06-02T02:50:39.000Z</time>
      </trkpt>
      <trkpt lat="45.1982" lon="5.72298">
        <ele>397.20001220703</ele>
        <time>2022-06-02T02:50:40.000Z</time>
      </trkpt>
      <trkpt lat="45.1982" lon="5.72299">
        <ele>397.20001220703</ele>
        <time>2022-06-02T02:50:41.000Z</time>
      </trkpt>
      <trkpt lat="45.1982" lon="5.72298">
        <ele>397</ele>
        <time>2022-06-02T02:50:42.000Z</time>
      </trkpt>
      <trkpt lat="45.1982" lon="5.72298">
        <ele>397.20001220703</ele>
        <time>2022-06-02T02:50:43.000Z</time>
      </trkpt>
      <trkpt lat="45.1982" lon="5.72298">
        <ele>397.20001220703</ele>
        <time>2022-06-02T02:50:44.000Z</time>
      </trkpt>
      <trkpt lat="45.1982" lon="5.72298">
        <ele>397.20001220703</ele>
        <time>2022-06-02T02:50:45.000Z</time>
      </trkpt>
      <trkpt lat="45.1982" lon="5.72298">
        <ele>397</ele>
        <time>2022-06-02T02:50:46.000Z</time>
      </trkpt>
      <trkpt lat="45.1982" lon="5.72298">
        <ele>397</ele>
        <time>2022-06-02T02:50:47.000Z</time>
      </trkpt>
      <trkpt lat="45.1982" lon="5.72298">
        <ele>397</ele>
        <time>2022-06-02T02:50:48.000Z</time>
      </trkpt>
      <trkpt lat="45.1982" lon="5.72298">
        <ele>397</ele>
        <time>2022-06-02T02:50:49.000Z</time>
      </trkpt>
      <trkpt lat="45.1982" lon="5.72298">
        <ele>397</ele>
        <time>2022-06-02T02:50:50.000Z</time>
      </trkpt>
      <trkpt lat="45.1982" lon="5.72298">
        <ele>397</ele>
        <time>2022-06-02T02:50:51.000Z</time>
      </trkpt>
      <trkpt lat="45.1982" lon="5.72298">
        <ele>397</ele>
        <time>2022-06-02T02:50:52.000Z</time>
      </trkpt>
      <trkpt lat="45.1982" lon="5.72298">
        <ele>397</ele>
        <time>2022-06-02T02:50:53.000Z</time>
      </trkpt>
      <trkpt lat="45.1982" lon="5.72298">
        <ele>397</ele>
        <time>2022-06-02T02:50:54.000Z</time>
      </trkpt>
      <trkpt lat="45.1982" lon="5.72298">
        <ele>397.20001220703</ele>
        <time>2022-06-02T02:50:55.000Z</time>
      </trkpt>
      <trkpt lat="45.1982" lon="5.72298">
        <ele>397.20001220703</ele>
        <time>2022-06-02T02:50:56.000Z</time>
      </trkpt>
      <trkpt lat="45.1982" lon="5.72298">
        <ele>397.20001220703</ele>
        <time>2022-06-02T02:50:57.000Z</time>
      </trkpt>
      <trkpt lat="45.1982" lon="5.72298">
        <ele>397</ele>
        <time>2022-06-02T02:50:58.000Z</time>
      </trkpt>
      <trkpt lat="45.1982" lon="5.72298">
        <ele>397</ele>
        <time>2022-06-02T02:50:59.000Z</time>
      </trkpt>
      <trkpt lat="45.1982" lon="5.72298">
        <ele>397.20001220703</ele>
        <time>2022-06-02T02:51:00.000Z</time>
      </trkpt>
      <trkpt lat="45.1982" lon="5.72298">
        <ele>397</ele>
        <time>2022-06-02T02:51:01.000Z</time>
      </trkpt>
      <trkpt lat="45.1982" lon="5.72298">
        <ele>397</ele>
        <time>2022-06-02T02:51:02.000Z</time>
      </trkpt>
      <trkpt lat="45.1982" lon="5.72298">
        <ele>397</ele>
        <time>2022-06-02T02:51:03.000Z</time>
      </trkpt>
      <trkpt lat="45.1982" lon="5.72298">
        <ele>397</ele>
        <time>2022-06-02T02:51:04.000Z</time>
      </trkpt>
      <trkpt lat="45.1982" lon="5.72298">
        <ele>397</ele>
        <time>2022-06-02T02:51:05.000Z</time>
      </trkpt>
      <trkpt lat="45.1982" lon="5.72298">
        <ele>397</ele>
        <time>2022-06-02T02:51:06.000Z</time>
      </trkpt>
      <trkpt lat="45.1982" lon="5.72298">
        <ele>396.79998779297</ele>
        <time>2022-06-02T02:51:07.000Z</time>
      </trkpt>
      <trkpt lat="45.1982" lon="5.72298">
        <ele>396.79998779297</ele>
        <time>2022-06-02T02:51:08.000Z</time>
      </trkpt>
      <trkpt lat="45.1982" lon="5.72298">
        <ele>396.79998779297</ele>
        <time>2022-06-02T02:51:09.000Z</time>
      </trkpt>
      <trkpt lat="45.1982" lon="5.72298">
        <ele>396.79998779297</ele>
        <time>2022-06-02T02:51:10.000Z</time>
      </trkpt>
      <trkpt lat="45.1982" lon="5.72298">
        <ele>396.79998779297</ele>
        <time>2022-06-02T02:51:11.000Z</time>
      </trkpt>
      <trkpt lat="45.1982" lon="5.72298">
        <ele>396.60000610352</ele>
        <time>2022-06-02T02:51:12.000Z</time>
      </trkpt>
      <trkpt lat="45.1982" lon="5.72298">
        <ele>396.79998779297</ele>
        <time>2022-06-02T02:51:13.000Z</time>
      </trkpt>
      <trkpt lat="45.1982" lon="5.72298">
        <ele>396.79998779297</ele>
        <time>2022-06-02T02:51:14.000Z</time>
      </trkpt>
      <trkpt lat="45.19821" lon="5.72299">
        <ele>396.79998779297</ele>
        <time>2022-06-02T02:51:15.000Z</time>
      </trkpt>
      <trkpt lat="45.19821" lon="5.723">
        <ele>396.79998779297</ele>
        <time>2022-06-02T02:51:16.000Z</time>
      </trkpt>
      <trkpt lat="45.19822" lon="5.723">
        <ele>396.79998779297</ele>
        <time>2022-06-02T02:51:17.000Z</time>
      </trkpt>
      <trkpt lat="45.19822" lon="5.72301">
        <ele>397</ele>
        <time>2022-06-02T02:51:18.000Z</time>
      </trkpt>
      <trkpt lat="45.19822" lon="5.72302">
        <ele>396.79998779297</ele>
        <time>2022-06-02T02:51:19.000Z</time>
      </trkpt>
      <trkpt lat="45.19822" lon="5.72304">
        <ele>396.79998779297</ele>
        <time>2022-06-02T02:51:20.000Z</time>
      </trkpt>
      <trkpt lat="45.19821" lon="5.72305">
        <ele>396.79998779297</ele>
        <time>2022-06-02T02:51:21.000Z</time>
      </trkpt>
      <trkpt lat="45.19821" lon="5.72307">
        <ele>396.60000610352</ele>
        <time>2022-06-02T02:51:22.000Z</time>
      </trkpt>
      <trkpt lat="45.19821" lon="5.72309">
        <ele>396.60000610352</ele>
        <time>2022-06-02T02:51:23.000Z</time>
      </trkpt>
      <trkpt lat="45.1982" lon="5.7231">
        <ele>396.60000610352</ele>
        <time>2022-06-02T02:51:24.000Z</time>
      </trkpt>
      <trkpt lat="45.19819" lon="5.72312">
        <ele>396.20001220703</ele>
        <time>2022-06-02T02:51:25.000Z</time>
      </trkpt>
      <trkpt lat="45.19819" lon="5.72315">
        <ele>396.60000610352</ele>
        <time>2022-06-02T02:51:26.000Z</time>
      </trkpt>
      <trkpt lat="45.19819" lon="5.72316">
        <ele>396.39999389648</ele>
        <time>2022-06-02T02:51:27.000Z</time>
      </trkpt>
      <trkpt lat="45.19819" lon="5.72318">
        <ele>395.79998779297</ele>
        <time>2022-06-02T02:51:28.000Z</time>
      </trkpt>
      <trkpt lat="45.19818" lon="5.7232">
        <ele>395.79998779297</ele>
        <time>2022-06-02T02:51:29.000Z</time>
      </trkpt>
      <trkpt lat="45.19818" lon="5.72323">
        <ele>396</ele>
        <time>2022-06-02T02:51:30.000Z</time>
      </trkpt>
      <trkpt lat="45.19817" lon="5.72326">
        <ele>396</ele>
        <time>2022-06-02T02:51:31.000Z</time>
      </trkpt>
      <trkpt lat="45.19816" lon="5.72328">
        <ele>395.79998779297</ele>
        <time>2022-06-02T02:51:32.000Z</time>
      </trkpt>
      <trkpt lat="45.19815" lon="5.72331">
        <ele>396.60000610352</ele>
        <time>2022-06-02T02:51:33.000Z</time>
      </trkpt>
      <trkpt lat="45.19814" lon="5.72334">
        <ele>397</ele>
        <time>2022-06-02T02:51:34.000Z</time>
      </trkpt>
      <trkpt lat="45.19812" lon="5.72338">
        <ele>397.39999389648</ele>
        <time>2022-06-02T02:51:35.000Z</time>
      </trkpt>
      <trkpt lat="45.1981" lon="5.72341">
        <ele>397.79998779297</ele>
        <time>2022-06-02T02:51:36.000Z</time>
      </trkpt>
      <trkpt lat="45.19809" lon="5.72344">
        <ele>397.79998779297</ele>
        <time>2022-06-02T02:51:37.000Z</time>
      </trkpt>
      <trkpt lat="45.19808" lon="5.72347">
        <ele>397.60000610352</ele>
        <time>2022-06-02T02:51:38.000Z</time>
      </trkpt>
      <trkpt lat="45.19807" lon="5.72349">
        <ele>397.39999389648</ele>
        <time>2022-06-02T02:51:39.000Z</time>
      </trkpt>
      <trkpt lat="45.19806" lon="5.72352">
        <ele>397.39999389648</ele>
        <time>2022-06-02T02:51:40.000Z</time>
      </trkpt>
      <trkpt lat="45.19805" lon="5.72355">
        <ele>397.39999389648</ele>
        <time>2022-06-02T02:51:41.000Z</time>
      </trkpt>
      <trkpt lat="45.19804" lon="5.72358">
        <ele>397.39999389648</ele>
        <time>2022-06-02T02:51:42.000Z</time>
      </trkpt>
      <trkpt lat="45.19802" lon="5.72361">
        <ele>397.39999389648</ele>
        <time>2022-06-02T02:51:43.000Z</time>
      </trkpt>
      <trkpt lat="45.19801" lon="5.72364">
        <ele>397.39999389648</ele>
        <time>2022-06-02T02:51:44.000Z</time>
      </trkpt>
      <trkpt lat="45.198" lon="5.72366">
        <ele>397.39999389648</ele>
        <time>2022-06-02T02:51:45.000Z</time>
      </trkpt>
      <trkpt lat="45.19798" lon="5.72369">
        <ele>397.60000610352</ele>
        <time>2022-06-02T02:51:46.000Z</time>
      </trkpt>
      <trkpt lat="45.19797" lon="5.72372">
        <ele>397.60000610352</ele>
        <time>2022-06-02T02:51:47.000Z</time>
      </trkpt>
      <trkpt lat="45.19795" lon="5.72375">
        <ele>397.39999389648</ele>
        <time>2022-06-02T02:51:48.000Z</time>
      </trkpt>
      <trkpt lat="45.19794" lon="5.72378">
        <ele>397.39999389648</ele>
        <time>2022-06-02T02:51:49.000Z</time>
      </trkpt>
      <trkpt lat="45.19792" lon="5.72381">
        <ele>397.20001220703</ele>
        <time>2022-06-02T02:51:50.000Z</time>
      </trkpt>
      <trkpt lat="45.19791" lon="5.72384">
        <ele>397</ele>
        <time>2022-06-02T02:51:51.000Z</time>
      </trkpt>
      <trkpt lat="45.19791" lon="5.72386">
        <ele>397</ele>
        <time>2022-06-02T02:51:52.000Z</time>
      </trkpt>
      <trkpt lat="45.1979" lon="5.72388">
        <ele>397</ele>
        <time>2022-06-02T02:51:53.000Z</time>
      </trkpt>
      <trkpt lat="45.1979" lon="5.72391">
        <ele>397</ele>
        <time>2022-06-02T02:51:54.000Z</time>
      </trkpt>
      <trkpt lat="45.1979" lon="5.72395">
        <ele>397</ele>
        <time>2022-06-02T02:51:55.000Z</time>
      </trkpt>
      <trkpt lat="45.19789" lon="5.72399">
        <ele>397.20001220703</ele>
        <time>2022-06-02T02:51:56.000Z</time>
      </trkpt>
      <trkpt lat="45.19789" lon="5.72403">
        <ele>397</ele>
        <time>2022-06-02T02:51:57.000Z</time>
      </trkpt>
      <trkpt lat="45.1979" lon="5.72407">
        <ele>396.79998779297</ele>
        <time>2022-06-02T02:51:58.000Z</time>
      </trkpt>
      <trkpt lat="45.1979" lon="5.72412">
        <ele>396.79998779297</ele>
        <time>2022-06-02T02:51:59.000Z</time>
      </trkpt>
      <trkpt lat="45.19791" lon="5.72416">
        <ele>396.60000610352</ele>
        <time>2022-06-02T02:52:00.000Z</time>
      </trkpt>
      <trkpt lat="45.19791" lon="5.7242">
        <ele>396.60000610352</ele>
        <time>2022-06-02T02:52:01.000Z</time>
      </trkpt>
      <trkpt lat="45.19791" lon="5.72423">
        <ele>396.60000610352</ele>
        <time>2022-06-02T02:52:02.000Z</time>
      </trkpt>
      <trkpt lat="45.19791" lon="5.72426">
        <ele>396.20001220703</ele>
        <time>2022-06-02T02:52:03.000Z</time>
      </trkpt>
      <trkpt lat="45.1979" lon="5.72429">
        <ele>396.20001220703</ele>
        <time>2022-06-02T02:52:04.000Z</time>
      </trkpt>
      <trkpt lat="45.1979" lon="5.72432">
        <ele>396.20001220703</ele>
        <time>2022-06-02T02:52:05.000Z</time>
      </trkpt>
      <trkpt lat="45.19789" lon="5.72436">
        <ele>395.79998779297</ele>
        <time>2022-06-02T02:52:06.000Z</time>
      </trkpt>
      <trkpt lat="45.19789" lon="5.7244">
        <ele>395.79998779297</ele>
        <time>2022-06-02T02:52:07.000Z</time>
      </trkpt>
      <trkpt lat="45.19789" lon="5.72444">
        <ele>396</ele>
        <time>2022-06-02T02:52:08.000Z</time>
      </trkpt>
      <trkpt lat="45.19789" lon="5.72447">
        <ele>396</ele>
        <time>2022-06-02T02:52:09.000Z</time>
      </trkpt>
      <trkpt lat="45.19789" lon="5.7245">
        <ele>396</ele>
        <time>2022-06-02T02:52:10.000Z</time>
      </trkpt>
      <trkpt lat="45.19788" lon="5.72453">
        <ele>396.20001220703</ele>
        <time>2022-06-02T02:52:11.000Z</time>
      </trkpt>
      <trkpt lat="45.19788" lon="5.72457">
        <ele>396.39999389648</ele>
        <time>2022-06-02T02:52:12.000Z</time>
      </trkpt>
      <trkpt lat="45.19787" lon="5.7246">
        <ele>396.60000610352</ele>
        <time>2022-06-02T02:52:13.000Z</time>
      </trkpt>
      <trkpt lat="45.19786" lon="5.72463">
        <ele>396.60000610352</ele>
        <time>2022-06-02T02:52:14.000Z</time>
      </trkpt>
      <trkpt lat="45.19786" lon="5.72466">
        <ele>396.79998779297</ele>
        <time>2022-06-02T02:52:15.000Z</time>
      </trkpt>
      <trkpt lat="45.19785" lon="5.72469">
        <ele>396.79998779297</ele>
        <time>2022-06-02T02:52:16.000Z</time>
      </trkpt>
      <trkpt lat="45.19785" lon="5.72472">
        <ele>396.79998779297</ele>
        <time>2022-06-02T02:52:17.000Z</time>
      </trkpt>
      <trkpt lat="45.19784" lon="5.72475">
        <ele>397</ele>
        <time>2022-06-02T02:52:18.000Z</time>
      </trkpt>
      <trkpt lat="45.19783" lon="5.72479">
        <ele>396.79998779297</ele>
        <time>2022-06-02T02:52:19.000Z</time>
      </trkpt>
      <trkpt lat="45.19783" lon="5.72481">
        <ele>397.39999389648</ele>
        <time>2022-06-02T02:52:20.000Z</time>
      </trkpt>
      <trkpt lat="45.19782" lon="5.72484">
        <ele>397.39999389648</ele>
        <time>2022-06-02T02:52:21.000Z</time>
      </trkpt>
      <trkpt lat="45.19781" lon="5.72487">
        <ele>397.39999389648</ele>
        <time>2022-06-02T02:52:22.000Z</time>
      </trkpt>
      <trkpt lat="45.1978" lon="5.7249">
        <ele>397.39999389648</ele>
        <time>2022-06-02T02:52:23.000Z</time>
      </trkpt>
      <trkpt lat="45.19778" lon="5.72494">
        <ele>397.79998779297</ele>
        <time>2022-06-02T02:52:24.000Z</time>
      </trkpt>
      <trkpt lat="45.19777" lon="5.72497">
        <ele>398</ele>
        <time>2022-06-02T02:52:25.000Z</time>
      </trkpt>
      <trkpt lat="45.19776" lon="5.725">
        <ele>398</ele>
        <time>2022-06-02T02:52:26.000Z</time>
      </trkpt>
      <trkpt lat="45.19775" lon="5.72502">
        <ele>398.20001220703</ele>
        <time>2022-06-02T02:52:27.000Z</time>
      </trkpt>
      <trkpt lat="45.19775" lon="5.72504">
        <ele>398.20001220703</ele>
        <time>2022-06-02T02:52:28.000Z</time>
      </trkpt>
      <trkpt lat="45.19773" lon="5.72507">
        <ele>398.39999389648</ele>
        <time>2022-06-02T02:52:29.000Z</time>
      </trkpt>
      <trkpt lat="45.19772" lon="5.7251">
        <ele>398.60000610352</ele>
        <time>2022-06-02T02:52:30.000Z</time>
      </trkpt>
      <trkpt lat="45.19771" lon="5.72512">
        <ele>398.39999389648</ele>
        <time>2022-06-02T02:52:31.000Z</time>
      </trkpt>
      <trkpt lat="45.1977" lon="5.72514">
        <ele>398.39999389648</ele>
        <time>2022-06-02T02:52:32.000Z</time>
      </trkpt>
      <trkpt lat="45.19769" lon="5.72517">
        <ele>399</ele>
        <time>2022-06-02T02:52:33.000Z</time>
      </trkpt>
      <trkpt lat="45.19768" lon="5.72519">
        <ele>399</ele>
        <time>2022-06-02T02:52:34.000Z</time>
      </trkpt>
      <trkpt lat="45.19767" lon="5.72521">
        <ele>399.20001220703</ele>
        <time>2022-06-02T02:52:35.000Z</time>
      </trkpt>
      <trkpt lat="45.19766" lon="5.72523">
        <ele>399.39999389648</ele>
        <time>2022-06-02T02:52:36.000Z</time>
      </trkpt>
      <trkpt lat="45.19765" lon="5.72525">
        <ele>399.39999389648</ele>
        <time>2022-06-02T02:52:37.000Z</time>
      </trkpt>
      <trkpt lat="45.19764" lon="5.72529">
        <ele>399.60000610352</ele>
        <time>2022-06-02T02:52:38.000Z</time>
      </trkpt>
      <trkpt lat="45.19763" lon="5.72531">
        <ele>400</ele>
        <time>2022-06-02T02:52:39.000Z</time>
      </trkpt>
      <trkpt lat="45.19763" lon="5.72534">
        <ele>399.79998779297</ele>
        <time>2022-06-02T02:52:40.000Z</time>
      </trkpt>
      <trkpt lat="45.19763" lon="5.72536">
        <ele>400.20001220703</ele>
        <time>2022-06-02T02:52:41.000Z</time>
      </trkpt>
      <trkpt lat="45.19762" lon="5.72539">
        <ele>400.39999389648</ele>
        <time>2022-06-02T02:52:42.000Z</time>
      </trkpt>
      <trkpt lat="45.19762" lon="5.72541">
        <ele>400.60000610352</ele>
        <time>2022-06-02T02:52:43.000Z</time>
      </trkpt>
      <trkpt lat="45.19762" lon="5.72543">
        <ele>400.20001220703</ele>
        <time>2022-06-02T02:52:44.000Z</time>
      </trkpt>
      <trkpt lat="45.19762" lon="5.72546">
        <ele>400.60000610352</ele>
        <time>2022-06-02T02:52:45.000Z</time>
      </trkpt>
      <trkpt lat="45.19762" lon="5.72549">
        <ele>401.39999389648</ele>
        <time>2022-06-02T02:52:46.000Z</time>
      </trkpt>
      <trkpt lat="45.19761" lon="5.72552">
        <ele>401.60000610352</ele>
        <time>2022-06-02T02:52:47.000Z</time>
      </trkpt>
      <trkpt lat="45.19761" lon="5.72555">
        <ele>401.39999389648</ele>
        <time>2022-06-02T02:52:48.000Z</time>
      </trkpt>
      <trkpt lat="45.19761" lon="5.72557">
        <ele>401.60000610352</ele>
        <time>2022-06-02T02:52:49.000Z</time>
      </trkpt>
      <trkpt lat="45.19761" lon="5.72559">
        <ele>401.79998779297</ele>
        <time>2022-06-02T02:52:50.000Z</time>
      </trkpt>
      <trkpt lat="45.19761" lon="5.72561">
        <ele>401.79998779297</ele>
        <time>2022-06-02T02:52:51.000Z</time>
      </trkpt>
      <trkpt lat="45.19762" lon="5.72563">
        <ele>402</ele>
        <time>2022-06-02T02:52:52.000Z</time>
      </trkpt>
      <trkpt lat="45.19762" lon="5.72566">
        <ele>402.39999389648</ele>
        <time>2022-06-02T02:52:53.000Z</time>
      </trkpt>
      <trkpt lat="45.19763" lon="5.72568">
        <ele>402.60000610352</ele>
        <time>2022-06-02T02:52:54.000Z</time>
      </trkpt>
      <trkpt lat="45.19763" lon="5.72571">
        <ele>402.60000610352</ele>
        <time>2022-06-02T02:52:55.000Z</time>
      </trkpt>
      <trkpt lat="45.19763" lon="5.72573">
        <ele>402.60000610352</ele>
        <time>2022-06-02T02:52:56.000Z</time>
      </trkpt>
      <trkpt lat="45.19763" lon="5.72576">
        <ele>403</ele>
        <time>2022-06-02T02:52:57.000Z</time>
      </trkpt>
      <trkpt lat="45.19763" lon="5.72579">
        <ele>403.20001220703</ele>
        <time>2022-06-02T02:52:58.000Z</time>
      </trkpt>
      <trkpt lat="45.19762" lon="5.72581">
        <ele>403.39999389648</ele>
        <time>2022-06-02T02:52:59.000Z</time>
      </trkpt>
      <trkpt lat="45.19762" lon="5.72583">
        <ele>403.60000610352</ele>
        <time>2022-06-02T02:53:00.000Z</time>
      </trkpt>
      <trkpt lat="45.19762" lon="5.72586">
        <ele>404</ele>
        <time>2022-06-02T02:53:01.000Z</time>
      </trkpt>
      <trkpt lat="45.19763" lon="5.72588">
        <ele>404</ele>
        <time>2022-06-02T02:53:02.000Z</time>
      </trkpt>
      <trkpt lat="45.19763" lon="5.7259">
        <ele>404.39999389648</ele>
        <time>2022-06-02T02:53:03.000Z</time>
      </trkpt>
      <trkpt lat="45.19764" lon="5.72591">
        <ele>404.60000610352</ele>
        <time>2022-06-02T02:53:04.000Z</time>
      </trkpt>
      <trkpt lat="45.19766" lon="5.72591">
        <ele>404.39999389648</ele>
        <time>2022-06-02T02:53:05.000Z</time>
      </trkpt>
      <trkpt lat="45.19767" lon="5.7259">
        <ele>404.39999389648</ele>
        <time>2022-06-02T02:53:06.000Z</time>
      </trkpt>
      <trkpt lat="45.19768" lon="5.72588">
        <ele>404.79998779297</ele>
        <time>2022-06-02T02:53:07.000Z</time>
      </trkpt>
      <trkpt lat="45.19769" lon="5.72584">
        <ele>404.79998779297</ele>
        <time>2022-06-02T02:53:08.000Z</time>
      </trkpt>
      <trkpt lat="45.19769" lon="5.72582">
        <ele>405.20001220703</ele>
        <time>2022-06-02T02:53:09.000Z</time>
      </trkpt>
      <trkpt lat="45.1977" lon="5.72579">
        <ele>405.20001220703</ele>
        <time>2022-06-02T02:53:10.000Z</time>
      </trkpt>
      <trkpt lat="45.1977" lon="5.72577">
        <ele>405</ele>
        <time>2022-06-02T02:53:11.000Z</time>
      </trkpt>
      <trkpt lat="45.19771" lon="5.72573">
        <ele>405.20001220703</ele>
        <time>2022-06-02T02:53:12.000Z</time>
      </trkpt>
      <trkpt lat="45.19772" lon="5.7257">
        <ele>405.20001220703</ele>
        <time>2022-06-02T02:53:13.000Z</time>
      </trkpt>
      <trkpt lat="45.19772" lon="5.72568">
        <ele>405.20001220703</ele>
        <time>2022-06-02T02:53:14.000Z</time>
      </trkpt>
      <trkpt lat="45.19773" lon="5.72566">
        <ele>405.79998779297</ele>
        <time>2022-06-02T02:53:15.000Z</time>
      </trkpt>
      <trkpt lat="45.19774" lon="5.72563">
        <ele>406</ele>
        <time>2022-06-02T02:53:16.000Z</time>
      </trkpt>
      <trkpt lat="45.19774" lon="5.72561">
        <ele>406.39999389648</ele>
        <time>2022-06-02T02:53:17.000Z</time>
      </trkpt>
      <trkpt lat="45.19775" lon="5.72558">
        <ele>406.60000610352</ele>
        <time>2022-06-02T02:53:18.000Z</time>
      </trkpt>
      <trkpt lat="45.19776" lon="5.72556">
        <ele>407</ele>
        <time>2022-06-02T02:53:19.000Z</time>
      </trkpt>
      <trkpt lat="45.19777" lon="5.72554">
        <ele>407</ele>
        <time>2022-06-02T02:53:20.000Z</time>
      </trkpt>
      <trkpt lat="45.19778" lon="5.72551">
        <ele>407</ele>
        <time>2022-06-02T02:53:21.000Z</time>
      </trkpt>
      <trkpt lat="45.19778" lon="5.72548">
        <ele>407.20001220703</ele>
        <time>2022-06-02T02:53:22.000Z</time>
      </trkpt>
      <trkpt lat="45.19779" lon="5.72546">
        <ele>407.60000610352</ele>
        <time>2022-06-02T02:53:23.000Z</time>
      </trkpt>
      <trkpt lat="45.19779" lon="5.72544">
        <ele>407.39999389648</ele>
        <time>2022-06-02T02:53:24.000Z</time>
      </trkpt>
      <trkpt lat="45.19779" lon="5.72542">
        <ele>406.79998779297</ele>
        <time>2022-06-02T02:53:25.000Z</time>
      </trkpt>
      <trkpt lat="45.1978" lon="5.7254">
        <ele>406.79998779297</ele>
        <time>2022-06-02T02:53:26.000Z</time>
      </trkpt>
      <trkpt lat="45.19781" lon="5.72537">
        <ele>408</ele>
        <time>2022-06-02T02:53:27.000Z</time>
      </trkpt>
      <trkpt lat="45.19781" lon="5.72535">
        <ele>408.39999389648</ele>
        <time>2022-06-02T02:53:28.000Z</time>
      </trkpt>
      <trkpt lat="45.19782" lon="5.72532">
        <ele>408.39999389648</ele>
        <time>2022-06-02T02:53:29.000Z</time>
      </trkpt>
      <trkpt lat="45.19783" lon="5.72529">
        <ele>408.60000610352</ele>
        <time>2022-06-02T02:53:30.000Z</time>
      </trkpt>
      <trkpt lat="45.19784" lon="5.72527">
        <ele>408.79998779297</ele>
        <time>2022-06-02T02:53:31.000Z</time>
      </trkpt>
      <trkpt lat="45.19785" lon="5.72525">
        <ele>408.79998779297</ele>
        <time>2022-06-02T02:53:32.000Z</time>
      </trkpt>
      <trkpt lat="45.19786" lon="5.72524">
        <ele>408.79998779297</ele>
        <time>2022-06-02T02:53:33.000Z</time>
      </trkpt>
      <trkpt lat="45.19787" lon="5.72523">
        <ele>408.79998779297</ele>
        <time>2022-06-02T02:53:34.000Z</time>
      </trkpt>
      <trkpt lat="45.19788" lon="5.72524">
        <ele>409.60000610352</ele>
        <time>2022-06-02T02:53:35.000Z</time>
      </trkpt>
      <trkpt lat="45.19789" lon="5.72525">
        <ele>409.39999389648</ele>
        <time>2022-06-02T02:53:36.000Z</time>
      </trkpt>
      <trkpt lat="45.19789" lon="5.72527">
        <ele>409</ele>
        <time>2022-06-02T02:53:37.000Z</time>
      </trkpt>
      <trkpt lat="45.19789" lon="5.7253">
        <ele>409.79998779297</ele>
        <time>2022-06-02T02:53:38.000Z</time>
      </trkpt>
      <trkpt lat="45.19788" lon="5.72533">
        <ele>409.79998779297</ele>
        <time>2022-06-02T02:53:39.000Z</time>
      </trkpt>
      <trkpt lat="45.19788" lon="5.72535">
        <ele>409.39999389648</ele>
        <time>2022-06-02T02:53:40.000Z</time>
      </trkpt>
      <trkpt lat="45.19787" lon="5.72537">
        <ele>409.79998779297</ele>
        <time>2022-06-02T02:53:41.000Z</time>
      </trkpt>
      <trkpt lat="45.19786" lon="5.72539">
        <ele>409.79998779297</ele>
        <time>2022-06-02T02:53:42.000Z</time>
      </trkpt>
      <trkpt lat="45.19786" lon="5.72542">
        <ele>409.60000610352</ele>
        <time>2022-06-02T02:53:43.000Z</time>
      </trkpt>
      <trkpt lat="45.19785" lon="5.72545">
        <ele>410</ele>
        <time>2022-06-02T02:53:44.000Z</time>
      </trkpt>
      <trkpt lat="45.19785" lon="5.72547">
        <ele>410.20001220703</ele>
        <time>2022-06-02T02:53:45.000Z</time>
      </trkpt>
      <trkpt lat="45.19784" lon="5.7255">
        <ele>410.39999389648</ele>
        <time>2022-06-02T02:53:46.000Z</time>
      </trkpt>
      <trkpt lat="45.19784" lon="5.72552">
        <ele>410.39999389648</ele>
        <time>2022-06-02T02:53:47.000Z</time>
      </trkpt>
      <trkpt lat="45.19783" lon="5.72555">
        <ele>410.60000610352</ele>
        <time>2022-06-02T02:53:48.000Z</time>
      </trkpt>
      <trkpt lat="45.19783" lon="5.72558">
        <ele>410.60000610352</ele>
        <time>2022-06-02T02:53:49.000Z</time>
      </trkpt>
      <trkpt lat="45.19783" lon="5.72561">
        <ele>410.79998779297</ele>
        <time>2022-06-02T02:53:50.000Z</time>
      </trkpt>
      <trkpt lat="45.19783" lon="5.72563">
        <ele>411.20001220703</ele>
        <time>2022-06-02T02:53:51.000Z</time>
      </trkpt>
      <trkpt lat="45.19783" lon="5.72566">
        <ele>411.20001220703</ele>
        <time>2022-06-02T02:53:52.000Z</time>
      </trkpt>
      <trkpt lat="45.19783" lon="5.72568">
        <ele>411.39999389648</ele>
        <time>2022-06-02T02:53:53.000Z</time>
      </trkpt>
      <trkpt lat="45.19783" lon="5.7257">
        <ele>411.60000610352</ele>
        <time>2022-06-02T02:53:54.000Z</time>
      </trkpt>
      <trkpt lat="45.19783" lon="5.72573">
        <ele>411.79998779297</ele>
        <time>2022-06-02T02:53:55.000Z</time>
      </trkpt>
      <trkpt lat="45.19783" lon="5.72575">
        <ele>411.79998779297</ele>
        <time>2022-06-02T02:53:56.000Z</time>
      </trkpt>
      <trkpt lat="45.19783" lon="5.72578">
        <ele>412.20001220703</ele>
        <time>2022-06-02T02:53:57.000Z</time>
      </trkpt>
      <trkpt lat="45.19783" lon="5.7258">
        <ele>412.39999389648</ele>
        <time>2022-06-02T02:53:58.000Z</time>
      </trkpt>
      <trkpt lat="45.19782" lon="5.72582">
        <ele>412.39999389648</ele>
        <time>2022-06-02T02:53:59.000Z</time>
      </trkpt>
      <trkpt lat="45.19783" lon="5.72584">
        <ele>412.60000610352</ele>
        <time>2022-06-02T02:54:00.000Z</time>
      </trkpt>
      <trkpt lat="45.19783" lon="5.72587">
        <ele>412.60000610352</ele>
        <time>2022-06-02T02:54:01.000Z</time>
      </trkpt>
      <trkpt lat="45.19783" lon="5.7259">
        <ele>413.39999389648</ele>
        <time>2022-06-02T02:54:02.000Z</time>
      </trkpt>
      <trkpt lat="45.19783" lon="5.72592">
        <ele>413.39999389648</ele>
        <time>2022-06-02T02:54:03.000Z</time>
      </trkpt>
      <trkpt lat="45.19783" lon="5.72595">
        <ele>413.60000610352</ele>
        <time>2022-06-02T02:54:04.000Z</time>
      </trkpt>
      <trkpt lat="45.19783" lon="5.72598">
        <ele>413.60000610352</ele>
        <time>2022-06-02T02:54:05.000Z</time>
      </trkpt>
      <trkpt lat="45.19784" lon="5.72601">
        <ele>413.79998779297</ele>
        <time>2022-06-02T02:54:06.000Z</time>
      </trkpt>
      <trkpt lat="45.19784" lon="5.72603">
        <ele>413.79998779297</ele>
        <time>2022-06-02T02:54:07.000Z</time>
      </trkpt>
      <trkpt lat="45.19784" lon="5.72606">
        <ele>413.60000610352</ele>
        <time>2022-06-02T02:54:08.000Z</time>
      </trkpt>
      <trkpt lat="45.19785" lon="5.72609">
        <ele>414.39999389648</ele>
        <time>2022-06-02T02:54:09.000Z</time>
      </trkpt>
      <trkpt lat="45.19785" lon="5.72611">
        <ele>414.60000610352</ele>
        <time>2022-06-02T02:54:10.000Z</time>
      </trkpt>
      <trkpt lat="45.19786" lon="5.72614">
        <ele>414.60000610352</ele>
        <time>2022-06-02T02:54:11.000Z</time>
      </trkpt>
      <trkpt lat="45.19787" lon="5.72616">
        <ele>414.79998779297</ele>
        <time>2022-06-02T02:54:12.000Z</time>
      </trkpt>
      <trkpt lat="45.19788" lon="5.72618">
        <ele>415</ele>
        <time>2022-06-02T02:54:13.000Z</time>
      </trkpt>
      <trkpt lat="45.19789" lon="5.7262">
        <ele>415</ele>
        <time>2022-06-02T02:54:14.000Z</time>
      </trkpt>
      <trkpt lat="45.1979" lon="5.72622">
        <ele>415.39999389648</ele>
        <time>2022-06-02T02:54:15.000Z</time>
      </trkpt>
      <trkpt lat="45.19791" lon="5.72624">
        <ele>415.39999389648</ele>
        <time>2022-06-02T02:54:16.000Z</time>
      </trkpt>
      <trkpt lat="45.19793" lon="5.72625">
        <ele>415.39999389648</ele>
        <time>2022-06-02T02:54:17.000Z</time>
      </trkpt>
      <trkpt lat="45.19794" lon="5.72627">
        <ele>415.39999389648</ele>
        <time>2022-06-02T02:54:18.000Z</time>
      </trkpt>
      <trkpt lat="45.19796" lon="5.72628">
        <ele>415.60000610352</ele>
        <time>2022-06-02T02:54:19.000Z</time>
      </trkpt>
      <trkpt lat="45.19797" lon="5.7263">
        <ele>416</ele>
        <time>2022-06-02T02:54:20.000Z</time>
      </trkpt>
      <trkpt lat="45.19798" lon="5.72631">
        <ele>416.60000610352</ele>
        <time>2022-06-02T02:54:21.000Z</time>
      </trkpt>
      <trkpt lat="45.198" lon="5.72633">
        <ele>416.39999389648</ele>
        <time>2022-06-02T02:54:22.000Z</time>
      </trkpt>
      <trkpt lat="45.19801" lon="5.72634">
        <ele>416.79998779297</ele>
        <time>2022-06-02T02:54:23.000Z</time>
      </trkpt>
      <trkpt lat="45.19803" lon="5.72636">
        <ele>417.20001220703</ele>
        <time>2022-06-02T02:54:24.000Z</time>
      </trkpt>
      <trkpt lat="45.19804" lon="5.72638">
        <ele>417</ele>
        <time>2022-06-02T02:54:25.000Z</time>
      </trkpt>
      <trkpt lat="45.19806" lon="5.72639">
        <ele>417</ele>
        <time>2022-06-02T02:54:26.000Z</time>
      </trkpt>
      <trkpt lat="45.19807" lon="5.7264">
        <ele>417.60000610352</ele>
        <time>2022-06-02T02:54:27.000Z</time>
      </trkpt>
      <trkpt lat="45.19809" lon="5.72642">
        <ele>417.60000610352</ele>
        <time>2022-06-02T02:54:28.000Z</time>
      </trkpt>
      <trkpt lat="45.1981" lon="5.72643">
        <ele>417.60000610352</ele>
        <time>2022-06-02T02:54:29.000Z</time>
      </trkpt>
      <trkpt lat="45.19811" lon="5.72644">
        <ele>418</ele>
        <time>2022-06-02T02:54:30.000Z</time>
      </trkpt>
      <trkpt lat="45.19813" lon="5.72646">
        <ele>418.20001220703</ele>
        <time>2022-06-02T02:54:31.000Z</time>
      </trkpt>
      <trkpt lat="45.19814" lon="5.72647">
        <ele>418</ele>
        <time>2022-06-02T02:54:32.000Z</time>
      </trkpt>
      <trkpt lat="45.19816" lon="5.72647">
        <ele>418.20001220703</ele>
        <time>2022-06-02T02:54:33.000Z</time>
      </trkpt>
      <trkpt lat="45.19817" lon="5.72648">
        <ele>418.39999389648</ele>
        <time>2022-06-02T02:54:34.000Z</time>
      </trkpt>
      <trkpt lat="45.19819" lon="5.72649">
        <ele>418.60000610352</ele>
        <time>2022-06-02T02:54:35.000Z</time>
      </trkpt>
      <trkpt lat="45.19821" lon="5.7265">
        <ele>418.79998779297</ele>
        <time>2022-06-02T02:54:36.000Z</time>
      </trkpt>
      <trkpt lat="45.19822" lon="5.72652">
        <ele>419</ele>
        <time>2022-06-02T02:54:37.000Z</time>
      </trkpt>
      <trkpt lat="45.19824" lon="5.72654">
        <ele>419</ele>
        <time>2022-06-02T02:54:38.000Z</time>
      </trkpt>
      <trkpt lat="45.19826" lon="5.72656">
        <ele>419.39999389648</ele>
        <time>2022-06-02T02:54:39.000Z</time>
      </trkpt>
      <trkpt lat="45.19828" lon="5.72657">
        <ele>419.79998779297</ele>
        <time>2022-06-02T02:54:40.000Z</time>
      </trkpt>
      <trkpt lat="45.19829" lon="5.72659">
        <ele>419.79998779297</ele>
        <time>2022-06-02T02:54:41.000Z</time>
      </trkpt>
      <trkpt lat="45.1983" lon="5.7266">
        <ele>420</ele>
        <time>2022-06-02T02:54:42.000Z</time>
      </trkpt>
      <trkpt lat="45.19831" lon="5.72662">
        <ele>420</ele>
        <time>2022-06-02T02:54:43.000Z</time>
      </trkpt>
      <trkpt lat="45.19833" lon="5.72664">
        <ele>420.39999389648</ele>
        <time>2022-06-02T02:54:44.000Z</time>
      </trkpt>
      <trkpt lat="45.19834" lon="5.72666">
        <ele>420.60000610352</ele>
        <time>2022-06-02T02:54:45.000Z</time>
      </trkpt>
      <trkpt lat="45.19835" lon="5.72668">
        <ele>421</ele>
        <time>2022-06-02T02:54:46.000Z</time>
      </trkpt>
      <trkpt lat="45.19836" lon="5.72669">
        <ele>421</ele>
        <time>2022-06-02T02:54:47.000Z</time>
      </trkpt>
      <trkpt lat="45.19838" lon="5.72671">
        <ele>421</ele>
        <time>2022-06-02T02:54:48.000Z</time>
      </trkpt>
      <trkpt lat="45.19839" lon="5.72672">
        <ele>421</ele>
        <time>2022-06-02T02:54:49.000Z</time>
      </trkpt>
      <trkpt lat="45.1984" lon="5.72673">
        <ele>421</ele>
        <time>2022-06-02T02:54:50.000Z</time>
      </trkpt>
      <trkpt lat="45.19841" lon="5.72675">
        <ele>421.20001220703</ele>
        <time>2022-06-02T02:54:51.000Z</time>
      </trkpt>
      <trkpt lat="45.19842" lon="5.72676">
        <ele>421.39999389648</ele>
        <time>2022-06-02T02:54:52.000Z</time>
      </trkpt>
      <trkpt lat="45.19844" lon="5.72678">
        <ele>421.60000610352</ele>
        <time>2022-06-02T02:54:53.000Z</time>
      </trkpt>
      <trkpt lat="45.19845" lon="5.72679">
        <ele>421.60000610352</ele>
        <time>2022-06-02T02:54:54.000Z</time>
      </trkpt>
      <trkpt lat="45.19847" lon="5.72681">
        <ele>422</ele>
        <time>2022-06-02T02:54:55.000Z</time>
      </trkpt>
      <trkpt lat="45.19848" lon="5.72682">
        <ele>421.79998779297</ele>
        <time>2022-06-02T02:54:56.000Z</time>
      </trkpt>
      <trkpt lat="45.19849" lon="5.72683">
        <ele>421.79998779297</ele>
        <time>2022-06-02T02:54:57.000Z</time>
      </trkpt>
      <trkpt lat="45.1985" lon="5.72684">
        <ele>422.39999389648</ele>
        <time>2022-06-02T02:54:58.000Z</time>
      </trkpt>
      <trkpt lat="45.19851" lon="5.72685">
        <ele>422.60000610352</ele>
        <time>2022-06-02T02:54:59.000Z</time>
      </trkpt>
      <trkpt lat="45.19852" lon="5.72687">
        <ele>422.60000610352</ele>
        <time>2022-06-02T02:55:00.000Z</time>
      </trkpt>
      <trkpt lat="45.19853" lon="5.72688">
        <ele>422.60000610352</ele>
        <time>2022-06-02T02:55:01.000Z</time>
      </trkpt>
      <trkpt lat="45.19854" lon="5.72689">
        <ele>423</ele>
        <time>2022-06-02T02:55:02.000Z</time>
      </trkpt>
      <trkpt lat="45.19856" lon="5.7269">
        <ele>422.79998779297</ele>
        <time>2022-06-02T02:55:03.000Z</time>
      </trkpt>
      <trkpt lat="45.19858" lon="5.72692">
        <ele>422.79998779297</ele>
        <time>2022-06-02T02:55:04.000Z</time>
      </trkpt>
      <trkpt lat="45.19861" lon="5.72694">
        <ele>422.79998779297</ele>
        <time>2022-06-02T02:55:05.000Z</time>
      </trkpt>
      <trkpt lat="45.19863" lon="5.72696">
        <ele>423</ele>
        <time>2022-06-02T02:55:06.000Z</time>
      </trkpt>
      <trkpt lat="45.19864" lon="5.72698">
        <ele>423</ele>
        <time>2022-06-02T02:55:07.000Z</time>
      </trkpt>
      <trkpt lat="45.19866" lon="5.72698">
        <ele>423</ele>
        <time>2022-06-02T02:55:08.000Z</time>
      </trkpt>
      <trkpt lat="45.19866" lon="5.72699">
        <ele>423.20001220703</ele>
        <time>2022-06-02T02:55:09.000Z</time>
      </trkpt>
      <trkpt lat="45.19867" lon="5.72699">
        <ele>423.39999389648</ele>
        <time>2022-06-02T02:55:10.000Z</time>
      </trkpt>
      <trkpt lat="45.19869" lon="5.72698">
        <ele>423.60000610352</ele>
        <time>2022-06-02T02:55:11.000Z</time>
      </trkpt>
      <trkpt lat="45.19871" lon="5.72698">
        <ele>423.60000610352</ele>
        <time>2022-06-02T02:55:12.000Z</time>
      </trkpt>
      <trkpt lat="45.19872" lon="5.72697">
        <ele>423.39999389648</ele>
        <time>2022-06-02T02:55:13.000Z</time>
      </trkpt>
      <trkpt lat="45.19874" lon="5.72698">
        <ele>423.39999389648</ele>
        <time>2022-06-02T02:55:14.000Z</time>
      </trkpt>
      <trkpt lat="45.19876" lon="5.72699">
        <ele>423.79998779297</ele>
        <time>2022-06-02T02:55:15.000Z</time>
      </trkpt>
      <trkpt lat="45.19877" lon="5.72699">
        <ele>423.79998779297</ele>
        <time>2022-06-02T02:55:16.000Z</time>
      </trkpt>
      <trkpt lat="45.19877" lon="5.72699">
        <ele>423.39999389648</ele>
        <time>2022-06-02T02:55:17.000Z</time>
      </trkpt>
      <trkpt lat="45.19877" lon="5.72699">
        <ele>423.60000610352</ele>
        <time>2022-06-02T02:55:18.000Z</time>
      </trkpt>
      <trkpt lat="45.19878" lon="5.727">
        <ele>423.20001220703</ele>
        <time>2022-06-02T02:55:19.000Z</time>
      </trkpt>
      <trkpt lat="45.19878" lon="5.72701">
        <ele>423.20001220703</ele>
        <time>2022-06-02T02:55:20.000Z</time>
      </trkpt>
      <trkpt lat="45.19878" lon="5.72702">
        <ele>423.39999389648</ele>
        <time>2022-06-02T02:55:21.000Z</time>
      </trkpt>
      <trkpt lat="45.19878" lon="5.72703">
        <ele>423.39999389648</ele>
        <time>2022-06-02T02:55:22.000Z</time>
      </trkpt>
      <trkpt lat="45.19878" lon="5.72703">
        <ele>423.39999389648</ele>
        <time>2022-06-02T02:55:23.000Z</time>
      </trkpt>
      <trkpt lat="45.19876" lon="5.72704">
        <ele>423.39999389648</ele>
        <time>2022-06-02T02:55:24.000Z</time>
      </trkpt>
      <trkpt lat="45.19875" lon="5.72706">
        <ele>423</ele>
        <time>2022-06-02T02:55:25.000Z</time>
      </trkpt>
      <trkpt lat="45.19872" lon="5.72706">
        <ele>423</ele>
        <time>2022-06-02T02:55:26.000Z</time>
      </trkpt>
      <trkpt lat="45.19869" lon="5.72706">
        <ele>423.39999389648</ele>
        <time>2022-06-02T02:55:27.000Z</time>
      </trkpt>
      <trkpt lat="45.19868" lon="5.72703">
        <ele>423.20001220703</ele>
        <time>2022-06-02T02:55:28.000Z</time>
      </trkpt>
      <trkpt lat="45.19866" lon="5.72702">
        <ele>423.39999389648</ele>
        <time>2022-06-02T02:55:29.000Z</time>
      </trkpt>
      <trkpt lat="45.19865" lon="5.72699">
        <ele>423.39999389648</ele>
        <time>2022-06-02T02:55:30.000Z</time>
      </trkpt>
      <trkpt lat="45.19865" lon="5.72696">
        <ele>423.39999389648</ele>
        <time>2022-06-02T02:55:31.000Z</time>
      </trkpt>
      <trkpt lat="45.19865" lon="5.72692">
        <ele>423.79998779297</ele>
        <time>2022-06-02T02:55:32.000Z</time>
      </trkpt>
      <trkpt lat="45.19865" lon="5.7269">
        <ele>423.60000610352</ele>
        <time>2022-06-02T02:55:33.000Z</time>
      </trkpt>
      <trkpt lat="45.19865" lon="5.72688">
        <ele>423.60000610352</ele>
        <time>2022-06-02T02:55:34.000Z</time>
      </trkpt>
      <trkpt lat="45.19864" lon="5.72687">
        <ele>424</ele>
        <time>2022-06-02T02:55:35.000Z</time>
      </trkpt>
      <trkpt lat="45.19862" lon="5.72685">
        <ele>423.79998779297</ele>
        <time>2022-06-02T02:55:36.000Z</time>
      </trkpt>
      <trkpt lat="45.1986" lon="5.72684">
        <ele>423.79998779297</ele>
        <time>2022-06-02T02:55:37.000Z</time>
      </trkpt>
      <trkpt lat="45.19859" lon="5.72682">
        <ele>424.60000610352</ele>
        <time>2022-06-02T02:55:38.000Z</time>
      </trkpt>
      <trkpt lat="45.19857" lon="5.72681">
        <ele>424.79998779297</ele>
        <time>2022-06-02T02:55:39.000Z</time>
      </trkpt>
      <trkpt lat="45.19855" lon="5.7268">
        <ele>424.60000610352</ele>
        <time>2022-06-02T02:55:40.000Z</time>
      </trkpt>
      <trkpt lat="45.19853" lon="5.72679">
        <ele>425.20001220703</ele>
        <time>2022-06-02T02:55:41.000Z</time>
      </trkpt>
      <trkpt lat="45.19852" lon="5.72678">
        <ele>425.20001220703</ele>
        <time>2022-06-02T02:55:42.000Z</time>
      </trkpt>
      <trkpt lat="45.1985" lon="5.72676">
        <ele>425.20001220703</ele>
        <time>2022-06-02T02:55:43.000Z</time>
      </trkpt>
      <trkpt lat="45.19848" lon="5.72674">
        <ele>425.79998779297</ele>
        <time>2022-06-02T02:55:44.000Z</time>
      </trkpt>
      <trkpt lat="45.19847" lon="5.72672">
        <ele>426.20001220703</ele>
        <time>2022-06-02T02:55:45.000Z</time>
      </trkpt>
      <trkpt lat="45.19845" lon="5.7267">
        <ele>426.39999389648</ele>
        <time>2022-06-02T02:55:46.000Z</time>
      </trkpt>
      <trkpt lat="45.19844" lon="5.72667">
        <ele>426.39999389648</ele>
        <time>2022-06-02T02:55:47.000Z</time>
      </trkpt>
      <trkpt lat="45.19843" lon="5.72665">
        <ele>426.79998779297</ele>
        <time>2022-06-02T02:55:48.000Z</time>
      </trkpt>
      <trkpt lat="45.19841" lon="5.72662">
        <ele>426.60000610352</ele>
        <time>2022-06-02T02:55:49.000Z</time>
      </trkpt>
      <trkpt lat="45.1984" lon="5.7266">
        <ele>426.60000610352</ele>
        <time>2022-06-02T02:55:50.000Z</time>
      </trkpt>
      <trkpt lat="45.19838" lon="5.72658">
        <ele>426.79998779297</ele>
        <time>2022-06-02T02:55:51.000Z</time>
      </trkpt>
      <trkpt lat="45.19837" lon="5.72656">
        <ele>426.60000610352</ele>
        <time>2022-06-02T02:55:52.000Z</time>
      </trkpt>
      <trkpt lat="45.19836" lon="5.72656">
        <ele>426.79998779297</ele>
        <time>2022-06-02T02:55:53.000Z</time>
      </trkpt>
      <trkpt lat="45.19835" lon="5.72656">
        <ele>426.39999389648</ele>
        <time>2022-06-02T02:55:54.000Z</time>
      </trkpt>
      <trkpt lat="45.19833" lon="5.72655">
        <ele>426</ele>
        <time>2022-06-02T02:55:55.000Z</time>
      </trkpt>
      <trkpt lat="45.19832" lon="5.72653">
        <ele>426.39999389648</ele>
        <time>2022-06-02T02:55:56.000Z</time>
      </trkpt>
      <trkpt lat="45.1983" lon="5.72651">
        <ele>426.39999389648</ele>
        <time>2022-06-02T02:55:57.000Z</time>
      </trkpt>
      <trkpt lat="45.19828" lon="5.72649">
        <ele>426.39999389648</ele>
        <time>2022-06-02T02:55:58.000Z</time>
      </trkpt>
      <trkpt lat="45.19826" lon="5.72647">
        <ele>426.20001220703</ele>
        <time>2022-06-02T02:55:59.000Z</time>
      </trkpt>
      <trkpt lat="45.19825" lon="5.72645">
        <ele>426</ele>
        <time>2022-06-02T02:56:00.000Z</time>
      </trkpt>
      <trkpt lat="45.19823" lon="5.72644">
        <ele>426</ele>
        <time>2022-06-02T02:56:01.000Z</time>
      </trkpt>
      <trkpt lat="45.19821" lon="5.72642">
        <ele>425.60000610352</ele>
        <time>2022-06-02T02:56:02.000Z</time>
      </trkpt>
      <trkpt lat="45.19819" lon="5.7264">
        <ele>426</ele>
        <time>2022-06-02T02:56:03.000Z</time>
      </trkpt>
      <trkpt lat="45.19816" lon="5.72638">
        <ele>426</ele>
        <time>2022-06-02T02:56:04.000Z</time>
      </trkpt>
      <trkpt lat="45.19814" lon="5.72637">
        <ele>425.39999389648</ele>
        <time>2022-06-02T02:56:05.000Z</time>
      </trkpt>
      <trkpt lat="45.19812" lon="5.72635">
        <ele>425.60000610352</ele>
        <time>2022-06-02T02:56:06.000Z</time>
      </trkpt>
      <trkpt lat="45.1981" lon="5.72633">
        <ele>425.79998779297</ele>
        <time>2022-06-02T02:56:07.000Z</time>
      </trkpt>
      <trkpt lat="45.19809" lon="5.7263">
        <ele>426</ele>
        <time>2022-06-02T02:56:08.000Z</time>
      </trkpt>
      <trkpt lat="45.19808" lon="5.72628">
        <ele>426</ele>
        <time>2022-06-02T02:56:09.000Z</time>
      </trkpt>
      <trkpt lat="45.19809" lon="5.72626">
        <ele>425.79998779297</ele>
        <time>2022-06-02T02:56:10.000Z</time>
      </trkpt>
      <trkpt lat="45.1981" lon="5.72625">
        <ele>425.79998779297</ele>
        <time>2022-06-02T02:56:11.000Z</time>
      </trkpt>
      <trkpt lat="45.19811" lon="5.72624">
        <ele>425.60000610352</ele>
        <time>2022-06-02T02:56:12.000Z</time>
      </trkpt>
      <trkpt lat="45.19813" lon="5.72623">
        <ele>425.79998779297</ele>
        <time>2022-06-02T02:56:13.000Z</time>
      </trkpt>
      <trkpt lat="45.19814" lon="5.72623">
        <ele>425.79998779297</ele>
        <time>2022-06-02T02:56:14.000Z</time>
      </trkpt>
      <trkpt lat="45.19816" lon="5.72622">
        <ele>425.39999389648</ele>
        <time>2022-06-02T02:56:15.000Z</time>
      </trkpt>
      <trkpt lat="45.19817" lon="5.72623">
        <ele>425.39999389648</ele>
        <time>2022-06-02T02:56:16.000Z</time>
      </trkpt>
      <trkpt lat="45.19818" lon="5.72624">
        <ele>425.60000610352</ele>
        <time>2022-06-02T02:56:17.000Z</time>
      </trkpt>
      <trkpt lat="45.19818" lon="5.72627">
        <ele>425.79998779297</ele>
        <time>2022-06-02T02:56:18.000Z</time>
      </trkpt>
      <trkpt lat="45.19819" lon="5.7263">
        <ele>425.79998779297</ele>
        <time>2022-06-02T02:56:19.000Z</time>
      </trkpt>
      <trkpt lat="45.1982" lon="5.72632">
        <ele>425.79998779297</ele>
        <time>2022-06-02T02:56:20.000Z</time>
      </trkpt>
      <trkpt lat="45.19822" lon="5.72633">
        <ele>426.39999389648</ele>
        <time>2022-06-02T02:56:21.000Z</time>
      </trkpt>
      <trkpt lat="45.19823" lon="5.72634">
        <ele>426.39999389648</ele>
        <time>2022-06-02T02:56:22.000Z</time>
      </trkpt>
      <trkpt lat="45.19824" lon="5.72634">
        <ele>426.79998779297</ele>
        <time>2022-06-02T02:56:23.000Z</time>
      </trkpt>
      <trkpt lat="45.19825" lon="5.72633">
        <ele>427.20001220703</ele>
        <time>2022-06-02T02:56:24.000Z</time>
      </trkpt>
      <trkpt lat="45.19826" lon="5.72633">
        <ele>427.79998779297</ele>
        <time>2022-06-02T02:56:25.000Z</time>
      </trkpt>
      <trkpt lat="45.19827" lon="5.72633">
        <ele>428</ele>
        <time>2022-06-02T02:56:26.000Z</time>
      </trkpt>
      <trkpt lat="45.19828" lon="5.72632">
        <ele>428.20001220703</ele>
        <time>2022-06-02T02:56:27.000Z</time>
      </trkpt>
      <trkpt lat="45.19829" lon="5.72631">
        <ele>428.79998779297</ele>
        <time>2022-06-02T02:56:28.000Z</time>
      </trkpt>
      <trkpt lat="45.19828" lon="5.72629">
        <ele>429.20001220703</ele>
        <time>2022-06-02T02:56:29.000Z</time>
      </trkpt>
      <trkpt lat="45.19828" lon="5.72626">
        <ele>429</ele>
        <time>2022-06-02T02:56:30.000Z</time>
      </trkpt>
      <trkpt lat="45.19826" lon="5.72623">
        <ele>429</ele>
        <time>2022-06-02T02:56:31.000Z</time>
      </trkpt>
      <trkpt lat="45.19826" lon="5.72621">
        <ele>429.39999389648</ele>
        <time>2022-06-02T02:56:32.000Z</time>
      </trkpt>
      <trkpt lat="45.19825" lon="5.72619">
        <ele>429.60000610352</ele>
        <time>2022-06-02T02:56:33.000Z</time>
      </trkpt>
      <trkpt lat="45.19824" lon="5.72616">
        <ele>429.60000610352</ele>
        <time>2022-06-02T02:56:34.000Z</time>
      </trkpt>
      <trkpt lat="45.19823" lon="5.72614">
        <ele>430.20001220703</ele>
        <time>2022-06-02T02:56:35.000Z</time>
      </trkpt>
      <trkpt lat="45.19822" lon="5.72611">
        <ele>430.20001220703</ele>
        <time>2022-06-02T02:56:36.000Z</time>
      </trkpt>
      <trkpt lat="45.19821" lon="5.72608">
        <ele>430.60000610352</ele>
        <time>2022-06-02T02:56:37.000Z</time>
      </trkpt>
      <trkpt lat="45.19821" lon="5.72606">
        <ele>430.60000610352</ele>
        <time>2022-06-02T02:56:38.000Z</time>
      </trkpt>
      <trkpt lat="45.1982" lon="5.72604">
        <ele>431</ele>
        <time>2022-06-02T02:56:39.000Z</time>
      </trkpt>
      <trkpt lat="45.1982" lon="5.72602">
        <ele>430.39999389648</ele>
        <time>2022-06-02T02:56:40.000Z</time>
      </trkpt>
      <trkpt lat="45.1982" lon="5.72599">
        <ele>430.79998779297</ele>
        <time>2022-06-02T02:56:41.000Z</time>
      </trkpt>
      <trkpt lat="45.1982" lon="5.72596">
        <ele>431</ele>
        <time>2022-06-02T02:56:42.000Z</time>
      </trkpt>
      <trkpt lat="45.1982" lon="5.72593">
        <ele>431</ele>
        <time>2022-06-02T02:56:43.000Z</time>
      </trkpt>
      <trkpt lat="45.1982" lon="5.72591">
        <ele>431.39999389648</ele>
        <time>2022-06-02T02:56:44.000Z</time>
      </trkpt>
      <trkpt lat="45.1982" lon="5.72589">
        <ele>431</ele>
        <time>2022-06-02T02:56:45.000Z</time>
      </trkpt>
      <trkpt lat="45.1982" lon="5.72587">
        <ele>431.20001220703</ele>
        <time>2022-06-02T02:56:46.000Z</time>
      </trkpt>
      <trkpt lat="45.1982" lon="5.72585">
        <ele>431.39999389648</ele>
        <time>2022-06-02T02:56:47.000Z</time>
      </trkpt>
      <trkpt lat="45.1982" lon="5.72582">
        <ele>431.79998779297</ele>
        <time>2022-06-02T02:56:48.000Z</time>
      </trkpt>
      <trkpt lat="45.1982" lon="5.72579">
        <ele>432</ele>
        <time>2022-06-02T02:56:49.000Z</time>
      </trkpt>
      <trkpt lat="45.1982" lon="5.72576">
        <ele>432</ele>
        <time>2022-06-02T02:56:50.000Z</time>
      </trkpt>
      <trkpt lat="45.1982" lon="5.72573">
        <ele>432.20001220703</ele>
        <time>2022-06-02T02:56:51.000Z</time>
      </trkpt>
      <trkpt lat="45.1982" lon="5.72571">
        <ele>432.39999389648</ele>
        <time>2022-06-02T02:56:52.000Z</time>
      </trkpt>
      <trkpt lat="45.19819" lon="5.72568">
        <ele>432.60000610352</ele>
        <time>2022-06-02T02:56:53.000Z</time>
      </trkpt>
      <trkpt lat="45.19819" lon="5.72565">
        <ele>433</ele>
        <time>2022-06-02T02:56:54.000Z</time>
      </trkpt>
      <trkpt lat="45.19818" lon="5.72562">
        <ele>433.20001220703</ele>
        <time>2022-06-02T02:56:55.000Z</time>
      </trkpt>
      <trkpt lat="45.19818" lon="5.72559">
        <ele>433.60000610352</ele>
        <time>2022-06-02T02:56:56.000Z</time>
      </trkpt>
      <trkpt lat="45.19818" lon="5.72557">
        <ele>433.60000610352</ele>
        <time>2022-06-02T02:56:57.000Z</time>
      </trkpt>
      <trkpt lat="45.19818" lon="5.72555">
        <ele>433.79998779297</ele>
        <time>2022-06-02T02:56:58.000Z</time>
      </trkpt>
      <trkpt lat="45.19818" lon="5.72552">
        <ele>434.20001220703</ele>
        <time>2022-06-02T02:56:59.000Z</time>
      </trkpt>
      <trkpt lat="45.19818" lon="5.72549">
        <ele>434.20001220703</ele>
        <time>2022-06-02T02:57:00.000Z</time>
      </trkpt>
      <trkpt lat="45.19818" lon="5.72547">
        <ele>434.79998779297</ele>
        <time>2022-06-02T02:57:01.000Z</time>
      </trkpt>
      <trkpt lat="45.19818" lon="5.72544">
        <ele>435</ele>
        <time>2022-06-02T02:57:02.000Z</time>
      </trkpt>
      <trkpt lat="45.19818" lon="5.7254">
        <ele>434.79998779297</ele>
        <time>2022-06-02T02:57:03.000Z</time>
      </trkpt>
      <trkpt lat="45.19817" lon="5.72537">
        <ele>434.79998779297</ele>
        <time>2022-06-02T02:57:04.000Z</time>
      </trkpt>
      <trkpt lat="45.19817" lon="5.72533">
        <ele>434.79998779297</ele>
        <time>2022-06-02T02:57:05.000Z</time>
      </trkpt>
      <trkpt lat="45.19818" lon="5.7253">
        <ele>434.79998779297</ele>
        <time>2022-06-02T02:57:06.000Z</time>
      </trkpt>
      <trkpt lat="45.19818" lon="5.72527">
        <ele>435.39999389648</ele>
        <time>2022-06-02T02:57:07.000Z</time>
      </trkpt>
      <trkpt lat="45.19818" lon="5.72524">
        <ele>435.60000610352</ele>
        <time>2022-06-02T02:57:08.000Z</time>
      </trkpt>
      <trkpt lat="45.19819" lon="5.72521">
        <ele>435.79998779297</ele>
        <time>2022-06-02T02:57:09.000Z</time>
      </trkpt>
      <trkpt lat="45.19819" lon="5.72519">
        <ele>436</ele>
        <time>2022-06-02T02:57:10.000Z</time>
      </trkpt>
      <trkpt lat="45.1982" lon="5.72516">
        <ele>436</ele>
        <time>2022-06-02T02:57:11.000Z</time>
      </trkpt>
      <trkpt lat="45.1982" lon="5.72513">
        <ele>436.39999389648</ele>
        <time>2022-06-02T02:57:12.000Z</time>
      </trkpt>
      <trkpt lat="45.19821" lon="5.72511">
        <ele>436.60000610352</ele>
        <time>2022-06-02T02:57:13.000Z</time>
      </trkpt>
      <trkpt lat="45.19821" lon="5.72508">
        <ele>436.79998779297</ele>
        <time>2022-06-02T02:57:14.000Z</time>
      </trkpt>
      <trkpt lat="45.19822" lon="5.72506">
        <ele>437.39999389648</ele>
        <time>2022-06-02T02:57:15.000Z</time>
      </trkpt>
      <trkpt lat="45.19822" lon="5.72504">
        <ele>437.60000610352</ele>
        <time>2022-06-02T02:57:16.000Z</time>
      </trkpt>
      <trkpt lat="45.19823" lon="5.72501">
        <ele>437.79998779297</ele>
        <time>2022-06-02T02:57:17.000Z</time>
      </trkpt>
      <trkpt lat="45.19823" lon="5.72499">
        <ele>437.60000610352</ele>
        <time>2022-06-02T02:57:18.000Z</time>
      </trkpt>
      <trkpt lat="45.19824" lon="5.72496">
        <ele>437.60000610352</ele>
        <time>2022-06-02T02:57:19.000Z</time>
      </trkpt>
      <trkpt lat="45.19825" lon="5.72493">
        <ele>437.79998779297</ele>
        <time>2022-06-02T02:57:20.000Z</time>
      </trkpt>
      <trkpt lat="45.19825" lon="5.72491">
        <ele>438.20001220703</ele>
        <time>2022-06-02T02:57:21.000Z</time>
      </trkpt>
      <trkpt lat="45.19826" lon="5.72489">
        <ele>438.39999389648</ele>
        <time>2022-06-02T02:57:22.000Z</time>
      </trkpt>
      <trkpt lat="45.19827" lon="5.72485">
        <ele>438.60000610352</ele>
        <time>2022-06-02T02:57:23.000Z</time>
      </trkpt>
      <trkpt lat="45.19828" lon="5.72483">
        <ele>438.79998779297</ele>
        <time>2022-06-02T02:57:24.000Z</time>
      </trkpt>
      <trkpt lat="45.19828" lon="5.72481">
        <ele>439</ele>
        <time>2022-06-02T02:57:25.000Z</time>
      </trkpt>
      <trkpt lat="45.19829" lon="5.72478">
        <ele>439.39999389648</ele>
        <time>2022-06-02T02:57:26.000Z</time>
      </trkpt>
      <trkpt lat="45.1983" lon="5.72476">
        <ele>439.60000610352</ele>
        <time>2022-06-02T02:57:27.000Z</time>
      </trkpt>
      <trkpt lat="45.19831" lon="5.72473">
        <ele>440.20001220703</ele>
        <time>2022-06-02T02:57:28.000Z</time>
      </trkpt>
      <trkpt lat="45.19831" lon="5.7247">
        <ele>440.39999389648</ele>
        <time>2022-06-02T02:57:29.000Z</time>
      </trkpt>
      <trkpt lat="45.19832" lon="5.72468">
        <ele>440.60000610352</ele>
        <time>2022-06-02T02:57:30.000Z</time>
      </trkpt>
      <trkpt lat="45.19832" lon="5.72465">
        <ele>440.60000610352</ele>
        <time>2022-06-02T02:57:31.000Z</time>
      </trkpt>
      <trkpt lat="45.19833" lon="5.72462">
        <ele>440.79998779297</ele>
        <time>2022-06-02T02:57:32.000Z</time>
      </trkpt>
      <trkpt lat="45.19833" lon="5.7246">
        <ele>441.20001220703</ele>
        <time>2022-06-02T02:57:33.000Z</time>
      </trkpt>
      <trkpt lat="45.19834" lon="5.72458">
        <ele>441.39999389648</ele>
        <time>2022-06-02T02:57:34.000Z</time>
      </trkpt>
      <trkpt lat="45.19834" lon="5.72455">
        <ele>441.79998779297</ele>
        <time>2022-06-02T02:57:35.000Z</time>
      </trkpt>
      <trkpt lat="45.19835" lon="5.72453">
        <ele>441.79998779297</ele>
        <time>2022-06-02T02:57:36.000Z</time>
      </trkpt>
      <trkpt lat="45.19835" lon="5.7245">
        <ele>442.20001220703</ele>
        <time>2022-06-02T02:57:37.000Z</time>
      </trkpt>
      <trkpt lat="45.19836" lon="5.72447">
        <ele>442.39999389648</ele>
        <time>2022-06-02T02:57:38.000Z</time>
      </trkpt>
      <trkpt lat="45.19836" lon="5.72444">
        <ele>442.39999389648</ele>
        <time>2022-06-02T02:57:39.000Z</time>
      </trkpt>
      <trkpt lat="45.19836" lon="5.72441">
        <ele>442.39999389648</ele>
        <time>2022-06-02T02:57:40.000Z</time>
      </trkpt>
      <trkpt lat="45.19837" lon="5.72439">
        <ele>442.79998779297</ele>
        <time>2022-06-02T02:57:41.000Z</time>
      </trkpt>
      <trkpt lat="45.19838" lon="5.72437">
        <ele>443.39999389648</ele>
        <time>2022-06-02T02:57:42.000Z</time>
      </trkpt>
      <trkpt lat="45.19839" lon="5.72436">
        <ele>443.39999389648</ele>
        <time>2022-06-02T02:57:43.000Z</time>
      </trkpt>
      <trkpt lat="45.19841" lon="5.72434">
        <ele>443.60000610352</ele>
        <time>2022-06-02T02:57:44.000Z</time>
      </trkpt>
      <trkpt lat="45.19842" lon="5.72433">
        <ele>443.60000610352</ele>
        <time>2022-06-02T02:57:45.000Z</time>
      </trkpt>
      <trkpt lat="45.19844" lon="5.72433">
        <ele>443.60000610352</ele>
        <time>2022-06-02T02:57:46.000Z</time>
      </trkpt>
      <trkpt lat="45.19845" lon="5.72434">
        <ele>443.60000610352</ele>
        <time>2022-06-02T02:57:47.000Z</time>
      </trkpt>
      <trkpt lat="45.19846" lon="5.72436">
        <ele>443.39999389648</ele>
        <time>2022-06-02T02:57:48.000Z</time>
      </trkpt>
      <trkpt lat="45.19847" lon="5.72439">
        <ele>443.60000610352</ele>
        <time>2022-06-02T02:57:49.000Z</time>
      </trkpt>
      <trkpt lat="45.19847" lon="5.72443">
        <ele>443.79998779297</ele>
        <time>2022-06-02T02:57:50.000Z</time>
      </trkpt>
      <trkpt lat="45.19847" lon="5.72446">
        <ele>443.60000610352</ele>
        <time>2022-06-02T02:57:51.000Z</time>
      </trkpt>
      <trkpt lat="45.19847" lon="5.72449">
        <ele>443.79998779297</ele>
        <time>2022-06-02T02:57:52.000Z</time>
      </trkpt>
      <trkpt lat="45.19847" lon="5.72452">
        <ele>444</ele>
        <time>2022-06-02T02:57:53.000Z</time>
      </trkpt>
      <trkpt lat="45.19846" lon="5.72455">
        <ele>444.39999389648</ele>
        <time>2022-06-02T02:57:54.000Z</time>
      </trkpt>
      <trkpt lat="45.19846" lon="5.72457">
        <ele>444.60000610352</ele>
        <time>2022-06-02T02:57:55.000Z</time>
      </trkpt>
      <trkpt lat="45.19846" lon="5.72458">
        <ele>445</ele>
        <time>2022-06-02T02:57:56.000Z</time>
      </trkpt>
      <trkpt lat="45.19846" lon="5.7246">
        <ele>445</ele>
        <time>2022-06-02T02:57:57.000Z</time>
      </trkpt>
      <trkpt lat="45.19847" lon="5.72462">
        <ele>445.20001220703</ele>
        <time>2022-06-02T02:57:58.000Z</time>
      </trkpt>
      <trkpt lat="45.19847" lon="5.72464">
        <ele>445.39999389648</ele>
        <time>2022-06-02T02:57:59.000Z</time>
      </trkpt>
      <trkpt lat="45.19847" lon="5.72467">
        <ele>445.60000610352</ele>
        <time>2022-06-02T02:58:00.000Z</time>
      </trkpt>
      <trkpt lat="45.19847" lon="5.7247">
        <ele>445.60000610352</ele>
        <time>2022-06-02T02:58:01.000Z</time>
      </trkpt>
      <trkpt lat="45.19848" lon="5.72472">
        <ele>446.20001220703</ele>
        <time>2022-06-02T02:58:02.000Z</time>
      </trkpt>
      <trkpt lat="45.19849" lon="5.72475">
        <ele>446.20001220703</ele>
        <time>2022-06-02T02:58:03.000Z</time>
      </trkpt>
      <trkpt lat="45.19849" lon="5.72478">
        <ele>446.60000610352</ele>
        <time>2022-06-02T02:58:04.000Z</time>
      </trkpt>
      <trkpt lat="45.1985" lon="5.7248">
        <ele>446.79998779297</ele>
        <time>2022-06-02T02:58:05.000Z</time>
      </trkpt>
      <trkpt lat="45.1985" lon="5.72483">
        <ele>446.79998779297</ele>
        <time>2022-06-02T02:58:06.000Z</time>
      </trkpt>
      <trkpt lat="45.19851" lon="5.72486">
        <ele>447</ele>
        <time>2022-06-02T02:58:07.000Z</time>
      </trkpt>
      <trkpt lat="45.19851" lon="5.72488">
        <ele>447.39999389648</ele>
        <time>2022-06-02T02:58:08.000Z</time>
      </trkpt>
      <trkpt lat="45.19851" lon="5.72491">
        <ele>447.60000610352</ele>
        <time>2022-06-02T02:58:09.000Z</time>
      </trkpt>
      <trkpt lat="45.19852" lon="5.72493">
        <ele>447.60000610352</ele>
        <time>2022-06-02T02:58:10.000Z</time>
      </trkpt>
      <trkpt lat="45.19852" lon="5.72496">
        <ele>448.20001220703</ele>
        <time>2022-06-02T02:58:11.000Z</time>
      </trkpt>
      <trkpt lat="45.19852" lon="5.72499">
        <ele>448.39999389648</ele>
        <time>2022-06-02T02:58:12.000Z</time>
      </trkpt>
      <trkpt lat="45.19852" lon="5.72502">
        <ele>448.39999389648</ele>
        <time>2022-06-02T02:58:13.000Z</time>
      </trkpt>
      <trkpt lat="45.19852" lon="5.72505">
        <ele>448.79998779297</ele>
        <time>2022-06-02T02:58:14.000Z</time>
      </trkpt>
      <trkpt lat="45.19852" lon="5.72507">
        <ele>448.79998779297</ele>
        <time>2022-06-02T02:58:15.000Z</time>
      </trkpt>
      <trkpt lat="45.19852" lon="5.7251">
        <ele>448.79998779297</ele>
        <time>2022-06-02T02:58:16.000Z</time>
      </trkpt>
      <trkpt lat="45.19852" lon="5.72512">
        <ele>449</ele>
        <time>2022-06-02T02:58:17.000Z</time>
      </trkpt>
      <trkpt lat="45.19853" lon="5.72515">
        <ele>449</ele>
        <time>2022-06-02T02:58:18.000Z</time>
      </trkpt>
      <trkpt lat="45.19853" lon="5.72517">
        <ele>449</ele>
        <time>2022-06-02T02:58:19.000Z</time>
      </trkpt>
      <trkpt lat="45.19853" lon="5.7252">
        <ele>449.39999389648</ele>
        <time>2022-06-02T02:58:20.000Z</time>
      </trkpt>
      <trkpt lat="45.19853" lon="5.72523">
        <ele>449.39999389648</ele>
        <time>2022-06-02T02:58:21.000Z</time>
      </trkpt>
      <trkpt lat="45.19853" lon="5.72525">
        <ele>449.39999389648</ele>
        <time>2022-06-02T02:58:22.000Z</time>
      </trkpt>
      <trkpt lat="45.19854" lon="5.72528">
        <ele>449.20001220703</ele>
        <time>2022-06-02T02:58:23.000Z</time>
      </trkpt>
      <trkpt lat="45.19854" lon="5.72531">
        <ele>450</ele>
        <time>2022-06-02T02:58:24.000Z</time>
      </trkpt>
      <trkpt lat="45.19854" lon="5.72533">
        <ele>450.39999389648</ele>
        <time>2022-06-02T02:58:25.000Z</time>
      </trkpt>
      <trkpt lat="45.19854" lon="5.72536">
        <ele>450.60000610352</ele>
        <time>2022-06-02T02:58:26.000Z</time>
      </trkpt>
      <trkpt lat="45.19854" lon="5.7254">
        <ele>450.79998779297</ele>
        <time>2022-06-02T02:58:27.000Z</time>
      </trkpt>
      <trkpt lat="45.19854" lon="5.72543">
        <ele>451.20001220703</ele>
        <time>2022-06-02T02:58:28.000Z</time>
      </trkpt>
      <trkpt lat="45.19854" lon="5.72546">
        <ele>451.20001220703</ele>
        <time>2022-06-02T02:58:29.000Z</time>
      </trkpt>
      <trkpt lat="45.19854" lon="5.72548">
        <ele>451.39999389648</ele>
        <time>2022-06-02T02:58:30.000Z</time>
      </trkpt>
      <trkpt lat="45.19854" lon="5.72552">
        <ele>451.39999389648</ele>
        <time>2022-06-02T02:58:31.000Z</time>
      </trkpt>
      <trkpt lat="45.19855" lon="5.72554">
        <ele>451.39999389648</ele>
        <time>2022-06-02T02:58:32.000Z</time>
      </trkpt>
      <trkpt lat="45.19855" lon="5.72556">
        <ele>451.39999389648</ele>
        <time>2022-06-02T02:58:33.000Z</time>
      </trkpt>
      <trkpt lat="45.19855" lon="5.72559">
        <ele>452</ele>
        <time>2022-06-02T02:58:34.000Z</time>
      </trkpt>
      <trkpt lat="45.19856" lon="5.7256">
        <ele>451.60000610352</ele>
        <time>2022-06-02T02:58:35.000Z</time>
      </trkpt>
      <trkpt lat="45.19857" lon="5.72561">
        <ele>451.60000610352</ele>
        <time>2022-06-02T02:58:36.000Z</time>
      </trkpt>
      <trkpt lat="45.19858" lon="5.7256">
        <ele>451.79998779297</ele>
        <time>2022-06-02T02:58:37.000Z</time>
      </trkpt>
      <trkpt lat="45.1986" lon="5.72559">
        <ele>451.79998779297</ele>
        <time>2022-06-02T02:58:38.000Z</time>
      </trkpt>
      <trkpt lat="45.1986" lon="5.72557">
        <ele>452.20001220703</ele>
        <time>2022-06-02T02:58:39.000Z</time>
      </trkpt>
      <trkpt lat="45.19861" lon="5.72554">
        <ele>452</ele>
        <time>2022-06-02T02:58:40.000Z</time>
      </trkpt>
      <trkpt lat="45.19862" lon="5.72551">
        <ele>451.79998779297</ele>
        <time>2022-06-02T02:58:41.000Z</time>
      </trkpt>
      <trkpt lat="45.19862" lon="5.72547">
        <ele>452.20001220703</ele>
        <time>2022-06-02T02:58:42.000Z</time>
      </trkpt>
      <trkpt lat="45.19861" lon="5.72544">
        <ele>452.39999389648</ele>
        <time>2022-06-02T02:58:43.000Z</time>
      </trkpt>
      <trkpt lat="45.1986" lon="5.72542">
        <ele>452.39999389648</ele>
        <time>2022-06-02T02:58:44.000Z</time>
      </trkpt>
      <trkpt lat="45.19859" lon="5.72539">
        <ele>453</ele>
        <time>2022-06-02T02:58:45.000Z</time>
      </trkpt>
      <trkpt lat="45.19858" lon="5.72536">
        <ele>453</ele>
        <time>2022-06-02T02:58:46.000Z</time>
      </trkpt>
      <trkpt lat="45.19857" lon="5.72533">
        <ele>453.39999389648</ele>
        <time>2022-06-02T02:58:47.000Z</time>
      </trkpt>
      <trkpt lat="45.19857" lon="5.72531">
        <ele>453.79998779297</ele>
        <time>2022-06-02T02:58:48.000Z</time>
      </trkpt>
      <trkpt lat="45.19856" lon="5.72528">
        <ele>454.20001220703</ele>
        <time>2022-06-02T02:58:49.000Z</time>
      </trkpt>
      <trkpt lat="45.19856" lon="5.72525">
        <ele>454.39999389648</ele>
        <time>2022-06-02T02:58:50.000Z</time>
      </trkpt>
      <trkpt lat="45.19855" lon="5.72521">
        <ele>454.60000610352</ele>
        <time>2022-06-02T02:58:51.000Z</time>
      </trkpt>
      <trkpt lat="45.19855" lon="5.72519">
        <ele>454.60000610352</ele>
        <time>2022-06-02T02:58:52.000Z</time>
      </trkpt>
      <trkpt lat="45.19855" lon="5.72516">
        <ele>455.20001220703</ele>
        <time>2022-06-02T02:58:53.000Z</time>
      </trkpt>
      <trkpt lat="45.19855" lon="5.72513">
        <ele>455.39999389648</ele>
        <time>2022-06-02T02:58:54.000Z</time>
      </trkpt>
      <trkpt lat="45.19855" lon="5.7251">
        <ele>455.39999389648</ele>
        <time>2022-06-02T02:58:55.000Z</time>
      </trkpt>
      <trkpt lat="45.19855" lon="5.72508">
        <ele>455.39999389648</ele>
        <time>2022-06-02T02:58:56.000Z</time>
      </trkpt>
      <trkpt lat="45.19854" lon="5.72504">
        <ele>455.39999389648</ele>
        <time>2022-06-02T02:58:57.000Z</time>
      </trkpt>
      <trkpt lat="45.19854" lon="5.72502">
        <ele>455.20001220703</ele>
        <time>2022-06-02T02:58:58.000Z</time>
      </trkpt>
      <trkpt lat="45.19853" lon="5.72499">
        <ele>455.20001220703</ele>
        <time>2022-06-02T02:58:59.000Z</time>
      </trkpt>
      <trkpt lat="45.19852" lon="5.72496">
        <ele>455</ele>
        <time>2022-06-02T02:59:00.000Z</time>
      </trkpt>
      <trkpt lat="45.19852" lon="5.72493">
        <ele>454.79998779297</ele>
        <time>2022-06-02T02:59:01.000Z</time>
      </trkpt>
      <trkpt lat="45.19852" lon="5.72491">
        <ele>455.20001220703</ele>
        <time>2022-06-02T02:59:02.000Z</time>
      </trkpt>
      <trkpt lat="45.19851" lon="5.72488">
        <ele>455.20001220703</ele>
        <time>2022-06-02T02:59:03.000Z</time>
      </trkpt>
      <trkpt lat="45.19851" lon="5.72484">
        <ele>454.79998779297</ele>
        <time>2022-06-02T02:59:04.000Z</time>
      </trkpt>
      <trkpt lat="45.19851" lon="5.72482">
        <ele>455.39999389648</ele>
        <time>2022-06-02T02:59:05.000Z</time>
      </trkpt>
      <trkpt lat="45.1985" lon="5.72479">
        <ele>455.39999389648</ele>
        <time>2022-06-02T02:59:06.000Z</time>
      </trkpt>
      <trkpt lat="45.19851" lon="5.72477">
        <ele>455.79998779297</ele>
        <time>2022-06-02T02:59:07.000Z</time>
      </trkpt>
      <trkpt lat="45.19851" lon="5.72476">
        <ele>455.39999389648</ele>
        <time>2022-06-02T02:59:08.000Z</time>
      </trkpt>
      <trkpt lat="45.19853" lon="5.72476">
        <ele>455.79998779297</ele>
        <time>2022-06-02T02:59:09.000Z</time>
      </trkpt>
      <trkpt lat="45.19854" lon="5.72476">
        <ele>455.39999389648</ele>
        <time>2022-06-02T02:59:10.000Z</time>
      </trkpt>
      <trkpt lat="45.19856" lon="5.72476">
        <ele>456</ele>
        <time>2022-06-02T02:59:11.000Z</time>
      </trkpt>
      <trkpt lat="45.19857" lon="5.72476">
        <ele>455.79998779297</ele>
        <time>2022-06-02T02:59:12.000Z</time>
      </trkpt>
      <trkpt lat="45.19859" lon="5.72476">
        <ele>455.79998779297</ele>
        <time>2022-06-02T02:59:13.000Z</time>
      </trkpt>
      <trkpt lat="45.19861" lon="5.72476">
        <ele>456</ele>
        <time>2022-06-02T02:59:14.000Z</time>
      </trkpt>
      <trkpt lat="45.19863" lon="5.72477">
        <ele>456</ele>
        <time>2022-06-02T02:59:15.000Z</time>
      </trkpt>
      <trkpt lat="45.19865" lon="5.72475">
        <ele>456</ele>
        <time>2022-06-02T02:59:16.000Z</time>
      </trkpt>
      <trkpt lat="45.19867" lon="5.72474">
        <ele>456.20001220703</ele>
        <time>2022-06-02T02:59:17.000Z</time>
      </trkpt>
      <trkpt lat="45.19869" lon="5.72472">
        <ele>456.60000610352</ele>
        <time>2022-06-02T02:59:18.000Z</time>
      </trkpt>
      <trkpt lat="45.19871" lon="5.72471">
        <ele>456.60000610352</ele>
        <time>2022-06-02T02:59:19.000Z</time>
      </trkpt>
      <trkpt lat="45.19873" lon="5.7247">
        <ele>456.39999389648</ele>
        <time>2022-06-02T02:59:20.000Z</time>
      </trkpt>
      <trkpt lat="45.19875" lon="5.7247">
        <ele>456.20001220703</ele>
        <time>2022-06-02T02:59:21.000Z</time>
      </trkpt>
      <trkpt lat="45.19876" lon="5.7247">
        <ele>456</ele>
        <time>2022-06-02T02:59:22.000Z</time>
      </trkpt>
      <trkpt lat="45.19879" lon="5.7247">
        <ele>456.20001220703</ele>
        <time>2022-06-02T02:59:23.000Z</time>
      </trkpt>
      <trkpt lat="45.1988" lon="5.7247">
        <ele>456.20001220703</ele>
        <time>2022-06-02T02:59:24.000Z</time>
      </trkpt>
      <trkpt lat="45.19882" lon="5.7247">
        <ele>456.60000610352</ele>
        <time>2022-06-02T02:59:25.000Z</time>
      </trkpt>
      <trkpt lat="45.19883" lon="5.72468">
        <ele>456.39999389648</ele>
        <time>2022-06-02T02:59:26.000Z</time>
      </trkpt>
      <trkpt lat="45.19886" lon="5.72466">
        <ele>456.20001220703</ele>
        <time>2022-06-02T02:59:27.000Z</time>
      </trkpt>
      <trkpt lat="45.19888" lon="5.72464">
        <ele>455.79998779297</ele>
        <time>2022-06-02T02:59:28.000Z</time>
      </trkpt>
      <trkpt lat="45.19889" lon="5.72462">
        <ele>455.79998779297</ele>
        <time>2022-06-02T02:59:29.000Z</time>
      </trkpt>
      <trkpt lat="45.1989" lon="5.72461">
        <ele>455.79998779297</ele>
        <time>2022-06-02T02:59:30.000Z</time>
      </trkpt>
      <trkpt lat="45.1989" lon="5.7246">
        <ele>456</ele>
        <time>2022-06-02T02:59:31.000Z</time>
      </trkpt>
      <trkpt lat="45.19891" lon="5.7246">
        <ele>455.79998779297</ele>
        <time>2022-06-02T02:59:32.000Z</time>
      </trkpt>
      <trkpt lat="45.1989" lon="5.7246">
        <ele>455.79998779297</ele>
        <time>2022-06-02T02:59:33.000Z</time>
      </trkpt>
      <trkpt lat="45.19889" lon="5.72459">
        <ele>456</ele>
        <time>2022-06-02T02:59:34.000Z</time>
      </trkpt>
      <trkpt lat="45.19889" lon="5.72458">
        <ele>455.79998779297</ele>
        <time>2022-06-02T02:59:35.000Z</time>
      </trkpt>
      <trkpt lat="45.19888" lon="5.72456">
        <ele>456.20001220703</ele>
        <time>2022-06-02T02:59:36.000Z</time>
      </trkpt>
      <trkpt lat="45.19888" lon="5.72454">
        <ele>455.79998779297</ele>
        <time>2022-06-02T02:59:37.000Z</time>
      </trkpt>
      <trkpt lat="45.19888" lon="5.72452">
        <ele>456</ele>
        <time>2022-06-02T02:59:38.000Z</time>
      </trkpt>
      <trkpt lat="45.19889" lon="5.72449">
        <ele>455.79998779297</ele>
        <time>2022-06-02T02:59:39.000Z</time>
      </trkpt>
      <trkpt lat="45.1989" lon="5.72446">
        <ele>455.60000610352</ele>
        <time>2022-06-02T02:59:40.000Z</time>
      </trkpt>
      <trkpt lat="45.19892" lon="5.72444">
        <ele>455.39999389648</ele>
        <time>2022-06-02T02:59:41.000Z</time>
      </trkpt>
      <trkpt lat="45.19894" lon="5.72442">
        <ele>455.39999389648</ele>
        <time>2022-06-02T02:59:42.000Z</time>
      </trkpt>
      <trkpt lat="45.19896" lon="5.72441">
        <ele>455</ele>
        <time>2022-06-02T02:59:43.000Z</time>
      </trkpt>
      <trkpt lat="45.19899" lon="5.7244">
        <ele>454.20001220703</ele>
        <time>2022-06-02T02:59:44.000Z</time>
      </trkpt>
      <trkpt lat="45.19901" lon="5.72439">
        <ele>454</ele>
        <time>2022-06-02T02:59:45.000Z</time>
      </trkpt>
      <trkpt lat="45.19904" lon="5.72438">
        <ele>453.60000610352</ele>
        <time>2022-06-02T02:59:46.000Z</time>
      </trkpt>
      <trkpt lat="45.19906" lon="5.72437">
        <ele>454</ele>
        <time>2022-06-02T02:59:47.000Z</time>
      </trkpt>
      <trkpt lat="45.19909" lon="5.72436">
        <ele>453.39999389648</ele>
        <time>2022-06-02T02:59:48.000Z</time>
      </trkpt>
      <trkpt lat="45.19911" lon="5.72435">
        <ele>453.39999389648</ele>
        <time>2022-06-02T02:59:49.000Z</time>
      </trkpt>
      <trkpt lat="45.19914" lon="5.72434">
        <ele>453</ele>
        <time>2022-06-02T02:59:50.000Z</time>
      </trkpt>
      <trkpt lat="45.19916" lon="5.72433">
        <ele>453</ele>
        <time>2022-06-02T02:59:51.000Z</time>
      </trkpt>
      <trkpt lat="45.19919" lon="5.72432">
        <ele>452.60000610352</ele>
        <time>2022-06-02T02:59:52.000Z</time>
      </trkpt>
      <trkpt lat="45.19922" lon="5.72431">
        <ele>452.39999389648</ele>
        <time>2022-06-02T02:59:53.000Z</time>
      </trkpt>
      <trkpt lat="45.19924" lon="5.7243">
        <ele>452.20001220703</ele>
        <time>2022-06-02T02:59:54.000Z</time>
      </trkpt>
      <trkpt lat="45.19927" lon="5.72429">
        <ele>452.20001220703</ele>
        <time>2022-06-02T02:59:55.000Z</time>
      </trkpt>
      <trkpt lat="45.1993" lon="5.72428">
        <ele>452.20001220703</ele>
        <time>2022-06-02T02:59:56.000Z</time>
      </trkpt>
      <trkpt lat="45.19932" lon="5.72426">
        <ele>452.20001220703</ele>
        <time>2022-06-02T02:59:57.000Z</time>
      </trkpt>
      <trkpt lat="45.19935" lon="5.72425">
        <ele>452</ele>
        <time>2022-06-02T02:59:58.000Z</time>
      </trkpt>
      <trkpt lat="45.19938" lon="5.72425">
        <ele>452</ele>
        <time>2022-06-02T02:59:59.000Z</time>
      </trkpt>
      <trkpt lat="45.19941" lon="5.72424">
        <ele>452</ele>
        <time>2022-06-02T03:00:00.000Z</time>
      </trkpt>
      <trkpt lat="45.19944" lon="5.72423">
        <ele>452.60000610352</ele>
        <time>2022-06-02T03:00:01.000Z</time>
      </trkpt>
      <trkpt lat="45.19946" lon="5.72423">
        <ele>452.60000610352</ele>
        <time>2022-06-02T03:00:02.000Z</time>
      </trkpt>
      <trkpt lat="45.19949" lon="5.72423">
        <ele>452.20001220703</ele>
        <time>2022-06-02T03:00:03.000Z</time>
      </trkpt>
      <trkpt lat="45.19951" lon="5.72422">
        <ele>452.39999389648</ele>
        <time>2022-06-02T03:00:04.000Z</time>
      </trkpt>
      <trkpt lat="45.19954" lon="5.72422">
        <ele>452.20001220703</ele>
        <time>2022-06-02T03:00:05.000Z</time>
      </trkpt>
      <trkpt lat="45.19956" lon="5.72422">
        <ele>452</ele>
        <time>2022-06-02T03:00:06.000Z</time>
      </trkpt>
      <trkpt lat="45.19958" lon="5.72422">
        <ele>452</ele>
        <time>2022-06-02T03:00:07.000Z</time>
      </trkpt>
      <trkpt lat="45.1996" lon="5.72422">
        <ele>452.39999389648</ele>
        <time>2022-06-02T03:00:08.000Z</time>
      </trkpt>
      <trkpt lat="45.19962" lon="5.72422">
        <ele>452.60000610352</ele>
        <time>2022-06-02T03:00:09.000Z</time>
      </trkpt>
      <trkpt lat="45.19964" lon="5.72422">
        <ele>453</ele>
        <time>2022-06-02T03:00:10.000Z</time>
      </trkpt>
      <trkpt lat="45.19967" lon="5.72422">
        <ele>453.20001220703</ele>
        <time>2022-06-02T03:00:11.000Z</time>
      </trkpt>
      <trkpt lat="45.19968" lon="5.72422">
        <ele>453.60000610352</ele>
        <time>2022-06-02T03:00:12.000Z</time>
      </trkpt>
      <trkpt lat="45.1997" lon="5.72422">
        <ele>454.20001220703</ele>
        <time>2022-06-02T03:00:13.000Z</time>
      </trkpt>
      <trkpt lat="45.19972" lon="5.72423">
        <ele>454.79998779297</ele>
        <time>2022-06-02T03:00:14.000Z</time>
      </trkpt>
      <trkpt lat="45.19975" lon="5.72423">
        <ele>455</ele>
        <time>2022-06-02T03:00:15.000Z</time>
      </trkpt>
      <trkpt lat="45.19977" lon="5.72423">
        <ele>454.60000610352</ele>
        <time>2022-06-02T03:00:16.000Z</time>
      </trkpt>
      <trkpt lat="45.1998" lon="5.72423">
        <ele>454.39999389648</ele>
        <time>2022-06-02T03:00:17.000Z</time>
      </trkpt>
      <trkpt lat="45.19982" lon="5.72423">
        <ele>455.20001220703</ele>
        <time>2022-06-02T03:00:18.000Z</time>
      </trkpt>
      <trkpt lat="45.19984" lon="5.72423">
        <ele>455.79998779297</ele>
        <time>2022-06-02T03:00:19.000Z</time>
      </trkpt>
      <trkpt lat="45.19987" lon="5.72424">
        <ele>455.79998779297</ele>
        <time>2022-06-02T03:00:20.000Z</time>
      </trkpt>
      <trkpt lat="45.19988" lon="5.72424">
        <ele>456.39999389648</ele>
        <time>2022-06-02T03:00:21.000Z</time>
      </trkpt>
      <trkpt lat="45.19991" lon="5.72424">
        <ele>456.39999389648</ele>
        <time>2022-06-02T03:00:22.000Z</time>
      </trkpt>
      <trkpt lat="45.19993" lon="5.72424">
        <ele>456.39999389648</ele>
        <time>2022-06-02T03:00:23.000Z</time>
      </trkpt>
      <trkpt lat="45.19995" lon="5.72425">
        <ele>456.79998779297</ele>
        <time>2022-06-02T03:00:24.000Z</time>
      </trkpt>
      <trkpt lat="45.19997" lon="5.72425">
        <ele>456.79998779297</ele>
        <time>2022-06-02T03:00:25.000Z</time>
      </trkpt>
      <trkpt lat="45.19999" lon="5.72425">
        <ele>458</ele>
        <time>2022-06-02T03:00:26.000Z</time>
      </trkpt>
      <trkpt lat="45.20001" lon="5.72426">
        <ele>458</ele>
        <time>2022-06-02T03:00:27.000Z</time>
      </trkpt>
      <trkpt lat="45.20003" lon="5.72426">
        <ele>457.39999389648</ele>
        <time>2022-06-02T03:00:28.000Z</time>
      </trkpt>
      <trkpt lat="45.20005" lon="5.72426">
        <ele>457.79998779297</ele>
        <time>2022-06-02T03:00:29.000Z</time>
      </trkpt>
      <trkpt lat="45.20007" lon="5.72426">
        <ele>457.39999389648</ele>
        <time>2022-06-02T03:00:30.000Z</time>
      </trkpt>
      <trkpt lat="45.20007" lon="5.72426">
        <ele>457.60000610352</ele>
        <time>2022-06-02T03:00:31.000Z</time>
      </trkpt>
      <trkpt lat="45.20007" lon="5.72426">
        <ele>457.39999389648</ele>
        <time>2022-06-02T03:00:32.000Z</time>
      </trkpt>
      <trkpt lat="45.20006" lon="5.72426">
        <ele>457.39999389648</ele>
        <time>2022-06-02T03:00:33.000Z</time>
      </trkpt>
      <trkpt lat="45.20006" lon="5.72425">
        <ele>457.39999389648</ele>
        <time>2022-06-02T03:00:34.000Z</time>
      </trkpt>
      <trkpt lat="45.20006" lon="5.72425">
        <ele>457.39999389648</ele>
        <time>2022-06-02T03:00:35.000Z</time>
      </trkpt>
      <trkpt lat="45.20006" lon="5.72426">
        <ele>457.39999389648</ele>
        <time>2022-06-02T03:00:36.000Z</time>
      </trkpt>
      <trkpt lat="45.20006" lon="5.72426">
        <ele>457.39999389648</ele>
        <time>2022-06-02T03:00:37.000Z</time>
      </trkpt>
      <trkpt lat="45.20006" lon="5.72426">
        <ele>457.39999389648</ele>
        <time>2022-06-02T03:00:38.000Z</time>
      </trkpt>
      <trkpt lat="45.20006" lon="5.72425">
        <ele>457.60000610352</ele>
        <time>2022-06-02T03:00:39.000Z</time>
      </trkpt>
      <trkpt lat="45.20006" lon="5.72425">
        <ele>457.39999389648</ele>
        <time>2022-06-02T03:00:40.000Z</time>
      </trkpt>
      <trkpt lat="45.20006" lon="5.72425">
        <ele>457.39999389648</ele>
        <time>2022-06-02T03:00:41.000Z</time>
      </trkpt>
      <trkpt lat="45.20006" lon="5.72425">
        <ele>457.39999389648</ele>
        <time>2022-06-02T03:00:42.000Z</time>
      </trkpt>
      <trkpt lat="45.20006" lon="5.72425">
        <ele>457.60000610352</ele>
        <time>2022-06-02T03:00:43.000Z</time>
      </trkpt>
      <trkpt lat="45.20006" lon="5.72425">
        <ele>457.39999389648</ele>
        <time>2022-06-02T03:00:44.000Z</time>
      </trkpt>
      <trkpt lat="45.20006" lon="5.72425">
        <ele>457.20001220703</ele>
        <time>2022-06-02T03:00:45.000Z</time>
      </trkpt>
      <trkpt lat="45.20006" lon="5.72425">
        <ele>457.20001220703</ele>
        <time>2022-06-02T03:00:46.000Z</time>
      </trkpt>
      <trkpt lat="45.20006" lon="5.72425">
        <ele>457.39999389648</ele>
        <time>2022-06-02T03:00:47.000Z</time>
      </trkpt>
      <trkpt lat="45.20006" lon="5.72425">
        <ele>457.39999389648</ele>
        <time>2022-06-02T03:00:48.000Z</time>
      </trkpt>
      <trkpt lat="45.20006" lon="5.72425">
        <ele>457.39999389648</ele>
        <time>2022-06-02T03:00:49.000Z</time>
      </trkpt>
      <trkpt lat="45.20006" lon="5.72425">
        <ele>457.39999389648</ele>
        <time>2022-06-02T03:00:50.000Z</time>
      </trkpt>
      <trkpt lat="45.20006" lon="5.72425">
        <ele>457.20001220703</ele>
        <time>2022-06-02T03:00:51.000Z</time>
      </trkpt>
      <trkpt lat="45.20006" lon="5.72425">
        <ele>457.39999389648</ele>
        <time>2022-06-02T03:00:52.000Z</time>
      </trkpt>
      <trkpt lat="45.20006" lon="5.72425">
        <ele>457.39999389648</ele>
        <time>2022-06-02T03:00:53.000Z</time>
      </trkpt>
      <trkpt lat="45.20006" lon="5.72425">
        <ele>457.20001220703</ele>
        <time>2022-06-02T03:00:54.000Z</time>
      </trkpt>
      <trkpt lat="45.20006" lon="5.72425">
        <ele>457.20001220703</ele>
        <time>2022-06-02T03:00:55.000Z</time>
      </trkpt>
      <trkpt lat="45.20006" lon="5.72425">
        <ele>457.20001220703</ele>
        <time>2022-06-02T03:00:56.000Z</time>
      </trkpt>
      <trkpt lat="45.20006" lon="5.72425">
        <ele>457.20001220703</ele>
        <time>2022-06-02T03:00:57.000Z</time>
      </trkpt>
      <trkpt lat="45.20006" lon="5.72425">
        <ele>457.39999389648</ele>
        <time>2022-06-02T03:00:58.000Z</time>
      </trkpt>
      <trkpt lat="45.20006" lon="5.72425">
        <ele>457.39999389648</ele>
        <time>2022-06-02T03:00:59.000Z</time>
      </trkpt>
      <trkpt lat="45.20006" lon="5.72425">
        <ele>457.39999389648</ele>
        <time>2022-06-02T03:01:00.000Z</time>
      </trkpt>
      <trkpt lat="45.20006" lon="5.72425">
        <ele>457.20001220703</ele>
        <time>2022-06-02T03:01:01.000Z</time>
      </trkpt>
      <trkpt lat="45.20006" lon="5.72425">
        <ele>457.20001220703</ele>
        <time>2022-06-02T03:01:02.000Z</time>
      </trkpt>
      <trkpt lat="45.20006" lon="5.72425">
        <ele>457.20001220703</ele>
        <time>2022-06-02T03:01:03.000Z</time>
      </trkpt>
      <trkpt lat="45.20006" lon="5.72425">
        <ele>457.20001220703</ele>
        <time>2022-06-02T03:01:04.000Z</time>
      </trkpt>
      <trkpt lat="45.20006" lon="5.72425">
        <ele>457.39999389648</ele>
        <time>2022-06-02T03:01:05.000Z</time>
      </trkpt>
      <trkpt lat="45.20006" lon="5.72425">
        <ele>457.20001220703</ele>
        <time>2022-06-02T03:01:06.000Z</time>
      </trkpt>
      <trkpt lat="45.20006" lon="5.72425">
        <ele>457</ele>
        <time>2022-06-02T03:01:07.000Z</time>
      </trkpt>
      <trkpt lat="45.20006" lon="5.72425">
        <ele>457</ele>
        <time>2022-06-02T03:01:08.000Z</time>
      </trkpt>
      <trkpt lat="45.20006" lon="5.72425">
        <ele>457.20001220703</ele>
        <time>2022-06-02T03:01:09.000Z</time>
      </trkpt>
      <trkpt lat="45.20006" lon="5.72425">
        <ele>457.20001220703</ele>
        <time>2022-06-02T03:01:10.000Z</time>
      </trkpt>
      <trkpt lat="45.20006" lon="5.72425">
        <ele>457</ele>
        <time>2022-06-02T03:01:11.000Z</time>
      </trkpt>
      <trkpt lat="45.20006" lon="5.72425">
        <ele>457</ele>
        <time>2022-06-02T03:01:12.000Z</time>
      </trkpt>
      <trkpt lat="45.20006" lon="5.72425">
        <ele>457</ele>
        <time>2022-06-02T03:01:13.000Z</time>
      </trkpt>
      <trkpt lat="45.20006" lon="5.72425">
        <ele>457</ele>
        <time>2022-06-02T03:01:14.000Z</time>
      </trkpt>
      <trkpt lat="45.20006" lon="5.72425">
        <ele>457</ele>
        <time>2022-06-02T03:01:15.000Z</time>
      </trkpt>
      <trkpt lat="45.20006" lon="5.72425">
        <ele>457</ele>
        <time>2022-06-02T03:01:16.000Z</time>
      </trkpt>
      <trkpt lat="45.20006" lon="5.72425">
        <ele>457</ele>
        <time>2022-06-02T03:01:17.000Z</time>
      </trkpt>
      <trkpt lat="45.20006" lon="5.72425">
        <ele>457</ele>
        <time>2022-06-02T03:01:18.000Z</time>
      </trkpt>
      <trkpt lat="45.20006" lon="5.72425">
        <ele>457</ele>
        <time>2022-06-02T03:01:19.000Z</time>
      </trkpt>
      <trkpt lat="45.20006" lon="5.72425">
        <ele>457</ele>
        <time>2022-06-02T03:01:20.000Z</time>
      </trkpt>
      <trkpt lat="45.20006" lon="5.72425">
        <ele>457</ele>
        <time>2022-06-02T03:01:21.000Z</time>
      </trkpt>
      <trkpt lat="45.20006" lon="5.72425">
        <ele>456.79998779297</ele>
        <time>2022-06-02T03:01:22.000Z</time>
      </trkpt>
      <trkpt lat="45.20006" lon="5.72425">
        <ele>457</ele>
        <time>2022-06-02T03:01:23.000Z</time>
      </trkpt>
      <trkpt lat="45.20006" lon="5.72426">
        <ele>457</ele>
        <time>2022-06-02T03:01:24.000Z</time>
      </trkpt>
      <trkpt lat="45.20006" lon="5.72426">
        <ele>457</ele>
        <time>2022-06-02T03:01:25.000Z</time>
      </trkpt>
      <trkpt lat="45.20008" lon="5.72426">
        <ele>457.20001220703</ele>
        <time>2022-06-02T03:01:26.000Z</time>
      </trkpt>
      <trkpt lat="45.20009" lon="5.72426">
        <ele>457.20001220703</ele>
        <time>2022-06-02T03:01:27.000Z</time>
      </trkpt>
      <trkpt lat="45.2001" lon="5.72426">
        <ele>457.20001220703</ele>
        <time>2022-06-02T03:01:28.000Z</time>
      </trkpt>
      <trkpt lat="45.20012" lon="5.72426">
        <ele>457.39999389648</ele>
        <time>2022-06-02T03:01:29.000Z</time>
      </trkpt>
      <trkpt lat="45.20014" lon="5.72426">
        <ele>457.60000610352</ele>
        <time>2022-06-02T03:01:30.000Z</time>
      </trkpt>
      <trkpt lat="45.20015" lon="5.72426">
        <ele>458</ele>
        <time>2022-06-02T03:01:31.000Z</time>
      </trkpt>
      <trkpt lat="45.20017" lon="5.72426">
        <ele>458.39999389648</ele>
        <time>2022-06-02T03:01:32.000Z</time>
      </trkpt>
      <trkpt lat="45.20019" lon="5.72427">
        <ele>458.39999389648</ele>
        <time>2022-06-02T03:01:33.000Z</time>
      </trkpt>
      <trkpt lat="45.20021" lon="5.72427">
        <ele>458.39999389648</ele>
        <time>2022-06-02T03:01:34.000Z</time>
      </trkpt>
      <trkpt lat="45.20022" lon="5.72427">
        <ele>458.60000610352</ele>
        <time>2022-06-02T03:01:35.000Z</time>
      </trkpt>
      <trkpt lat="45.20024" lon="5.72427">
        <ele>459</ele>
        <time>2022-06-02T03:01:36.000Z</time>
      </trkpt>
      <trkpt lat="45.20026" lon="5.72427">
        <ele>459</ele>
        <time>2022-06-02T03:01:37.000Z</time>
      </trkpt>
      <trkpt lat="45.20028" lon="5.72428">
        <ele>459.20001220703</ele>
        <time>2022-06-02T03:01:38.000Z</time>
      </trkpt>
      <trkpt lat="45.2003" lon="5.72428">
        <ele>459.20001220703</ele>
        <time>2022-06-02T03:01:39.000Z</time>
      </trkpt>
      <trkpt lat="45.20032" lon="5.72429">
        <ele>459.39999389648</ele>
        <time>2022-06-02T03:01:40.000Z</time>
      </trkpt>
      <trkpt lat="45.20033" lon="5.72429">
        <ele>459.39999389648</ele>
        <time>2022-06-02T03:01:41.000Z</time>
      </trkpt>
      <trkpt lat="45.20035" lon="5.7243">
        <ele>459.60000610352</ele>
        <time>2022-06-02T03:01:42.000Z</time>
      </trkpt>
      <trkpt lat="45.20037" lon="5.7243">
        <ele>459.60000610352</ele>
        <time>2022-06-02T03:01:43.000Z</time>
      </trkpt>
      <trkpt lat="45.20038" lon="5.7243">
        <ele>460.39999389648</ele>
        <time>2022-06-02T03:01:44.000Z</time>
      </trkpt>
      <trkpt lat="45.2004" lon="5.72431">
        <ele>460.39999389648</ele>
        <time>2022-06-02T03:01:45.000Z</time>
      </trkpt>
      <trkpt lat="45.20042" lon="5.72431">
        <ele>460.39999389648</ele>
        <time>2022-06-02T03:01:46.000Z</time>
      </trkpt>
      <trkpt lat="45.20044" lon="5.72431">
        <ele>461.39999389648</ele>
        <time>2022-06-02T03:01:47.000Z</time>
      </trkpt>
      <trkpt lat="45.20046" lon="5.72431">
        <ele>461.79998779297</ele>
        <time>2022-06-02T03:01:48.000Z</time>
      </trkpt>
      <trkpt lat="45.20048" lon="5.72431">
        <ele>461.60000610352</ele>
        <time>2022-06-02T03:01:49.000Z</time>
      </trkpt>
      <trkpt lat="45.2005" lon="5.72432">
        <ele>461.60000610352</ele>
        <time>2022-06-02T03:01:50.000Z</time>
      </trkpt>
      <trkpt lat="45.20053" lon="5.72432">
        <ele>462.39999389648</ele>
        <time>2022-06-02T03:01:51.000Z</time>
      </trkpt>
      <trkpt lat="45.20054" lon="5.72432">
        <ele>462.39999389648</ele>
        <time>2022-06-02T03:01:52.000Z</time>
      </trkpt>
      <trkpt lat="45.20057" lon="5.72433">
        <ele>462.79998779297</ele>
        <time>2022-06-02T03:01:53.000Z</time>
      </trkpt>
      <trkpt lat="45.20059" lon="5.72433">
        <ele>462.79998779297</ele>
        <time>2022-06-02T03:01:54.000Z</time>
      </trkpt>
      <trkpt lat="45.20061" lon="5.72434">
        <ele>463.39999389648</ele>
        <time>2022-06-02T03:01:55.000Z</time>
      </trkpt>
      <trkpt lat="45.20063" lon="5.72436">
        <ele>463.60000610352</ele>
        <time>2022-06-02T03:01:56.000Z</time>
      </trkpt>
      <trkpt lat="45.20065" lon="5.72438">
        <ele>464</ele>
        <time>2022-06-02T03:01:57.000Z</time>
      </trkpt>
      <trkpt lat="45.20067" lon="5.7244">
        <ele>464.60000610352</ele>
        <time>2022-06-02T03:01:58.000Z</time>
      </trkpt>
      <trkpt lat="45.20068" lon="5.72441">
        <ele>464.60000610352</ele>
        <time>2022-06-02T03:01:59.000Z</time>
      </trkpt>
      <trkpt lat="45.20069" lon="5.72443">
        <ele>464.79998779297</ele>
        <time>2022-06-02T03:02:00.000Z</time>
      </trkpt>
      <trkpt lat="45.20071" lon="5.72445">
        <ele>465</ele>
        <time>2022-06-02T03:02:01.000Z</time>
      </trkpt>
      <trkpt lat="45.20072" lon="5.72447">
        <ele>465</ele>
        <time>2022-06-02T03:02:02.000Z</time>
      </trkpt>
      <trkpt lat="45.20072" lon="5.72449">
        <ele>465.20001220703</ele>
        <time>2022-06-02T03:02:03.000Z</time>
      </trkpt>
      <trkpt lat="45.20073" lon="5.72453">
        <ele>466</ele>
        <time>2022-06-02T03:02:04.000Z</time>
      </trkpt>
      <trkpt lat="45.20073" lon="5.72456">
        <ele>466</ele>
        <time>2022-06-02T03:02:05.000Z</time>
      </trkpt>
      <trkpt lat="45.20073" lon="5.72459">
        <ele>465.79998779297</ele>
        <time>2022-06-02T03:02:06.000Z</time>
      </trkpt>
      <trkpt lat="45.20073" lon="5.72462">
        <ele>466</ele>
        <time>2022-06-02T03:02:07.000Z</time>
      </trkpt>
      <trkpt lat="45.20073" lon="5.72465">
        <ele>466</ele>
        <time>2022-06-02T03:02:08.000Z</time>
      </trkpt>
      <trkpt lat="45.20073" lon="5.72468">
        <ele>466.39999389648</ele>
        <time>2022-06-02T03:02:09.000Z</time>
      </trkpt>
      <trkpt lat="45.20073" lon="5.7247">
        <ele>466.60000610352</ele>
        <time>2022-06-02T03:02:10.000Z</time>
      </trkpt>
      <trkpt lat="45.20073" lon="5.72473">
        <ele>466.79998779297</ele>
        <time>2022-06-02T03:02:11.000Z</time>
      </trkpt>
      <trkpt lat="45.20074" lon="5.72476">
        <ele>467.20001220703</ele>
        <time>2022-06-02T03:02:12.000Z</time>
      </trkpt>
      <trkpt lat="45.20073" lon="5.72479">
        <ele>467.20001220703</ele>
        <time>2022-06-02T03:02:13.000Z</time>
      </trkpt>
      <trkpt lat="45.20073" lon="5.72483">
        <ele>467</ele>
        <time>2022-06-02T03:02:14.000Z</time>
      </trkpt>
      <trkpt lat="45.20073" lon="5.72486">
        <ele>467.60000610352</ele>
        <time>2022-06-02T03:02:15.000Z</time>
      </trkpt>
      <trkpt lat="45.20073" lon="5.72489">
        <ele>467.60000610352</ele>
        <time>2022-06-02T03:02:16.000Z</time>
      </trkpt>
      <trkpt lat="45.20073" lon="5.72493">
        <ele>467.60000610352</ele>
        <time>2022-06-02T03:02:17.000Z</time>
      </trkpt>
      <trkpt lat="45.20072" lon="5.72497">
        <ele>467.79998779297</ele>
        <time>2022-06-02T03:02:18.000Z</time>
      </trkpt>
      <trkpt lat="45.20072" lon="5.72501">
        <ele>467.79998779297</ele>
        <time>2022-06-02T03:02:19.000Z</time>
      </trkpt>
      <trkpt lat="45.20071" lon="5.72504">
        <ele>468</ele>
        <time>2022-06-02T03:02:20.000Z</time>
      </trkpt>
      <trkpt lat="45.2007" lon="5.72507">
        <ele>468.20001220703</ele>
        <time>2022-06-02T03:02:21.000Z</time>
      </trkpt>
      <trkpt lat="45.2007" lon="5.7251">
        <ele>468.20001220703</ele>
        <time>2022-06-02T03:02:22.000Z</time>
      </trkpt>
      <trkpt lat="45.20069" lon="5.72513">
        <ele>468.39999389648</ele>
        <time>2022-06-02T03:02:23.000Z</time>
      </trkpt>
      <trkpt lat="45.20068" lon="5.72516">
        <ele>468.39999389648</ele>
        <time>2022-06-02T03:02:24.000Z</time>
      </trkpt>
      <trkpt lat="45.20068" lon="5.72519">
        <ele>468.79998779297</ele>
        <time>2022-06-02T03:02:25.000Z</time>
      </trkpt>
      <trkpt lat="45.20067" lon="5.72523">
        <ele>468.79998779297</ele>
        <time>2022-06-02T03:02:26.000Z</time>
      </trkpt>
      <trkpt lat="45.20067" lon="5.72526">
        <ele>468.60000610352</ele>
        <time>2022-06-02T03:02:27.000Z</time>
      </trkpt>
      <trkpt lat="45.20067" lon="5.72529">
        <ele>468.60000610352</ele>
        <time>2022-06-02T03:02:28.000Z</time>
      </trkpt>
      <trkpt lat="45.20068" lon="5.72531">
        <ele>468.60000610352</ele>
        <time>2022-06-02T03:02:29.000Z</time>
      </trkpt>
      <trkpt lat="45.20069" lon="5.72533">
        <ele>468.39999389648</ele>
        <time>2022-06-02T03:02:30.000Z</time>
      </trkpt>
      <trkpt lat="45.2007" lon="5.72535">
        <ele>468.79998779297</ele>
        <time>2022-06-02T03:02:31.000Z</time>
      </trkpt>
      <trkpt lat="45.20072" lon="5.72538">
        <ele>468.79998779297</ele>
        <time>2022-06-02T03:02:32.000Z</time>
      </trkpt>
      <trkpt lat="45.20073" lon="5.72541">
        <ele>469</ele>
        <time>2022-06-02T03:02:33.000Z</time>
      </trkpt>
      <trkpt lat="45.20075" lon="5.72543">
        <ele>468.79998779297</ele>
        <time>2022-06-02T03:02:34.000Z</time>
      </trkpt>
      <trkpt lat="45.20076" lon="5.72545">
        <ele>468.79998779297</ele>
        <time>2022-06-02T03:02:35.000Z</time>
      </trkpt>
      <trkpt lat="45.20078" lon="5.72546">
        <ele>469</ele>
        <time>2022-06-02T03:02:36.000Z</time>
      </trkpt>
      <trkpt lat="45.2008" lon="5.72546">
        <ele>469.20001220703</ele>
        <time>2022-06-02T03:02:37.000Z</time>
      </trkpt>
      <trkpt lat="45.20082" lon="5.72546">
        <ele>469.39999389648</ele>
        <time>2022-06-02T03:02:38.000Z</time>
      </trkpt>
      <trkpt lat="45.20084" lon="5.72546">
        <ele>469.60000610352</ele>
        <time>2022-06-02T03:02:39.000Z</time>
      </trkpt>
      <trkpt lat="45.20086" lon="5.72545">
        <ele>469.60000610352</ele>
        <time>2022-06-02T03:02:40.000Z</time>
      </trkpt>
      <trkpt lat="45.20087" lon="5.72545">
        <ele>470.39999389648</ele>
        <time>2022-06-02T03:02:41.000Z</time>
      </trkpt>
      <trkpt lat="45.20089" lon="5.72545">
        <ele>470.60000610352</ele>
        <time>2022-06-02T03:02:42.000Z</time>
      </trkpt>
      <trkpt lat="45.2009" lon="5.72545">
        <ele>470.79998779297</ele>
        <time>2022-06-02T03:02:43.000Z</time>
      </trkpt>
      <trkpt lat="45.20091" lon="5.72544">
        <ele>471.20001220703</ele>
        <time>2022-06-02T03:02:44.000Z</time>
      </trkpt>
      <trkpt lat="45.20093" lon="5.72544">
        <ele>471.39999389648</ele>
        <time>2022-06-02T03:02:45.000Z</time>
      </trkpt>
      <trkpt lat="45.20095" lon="5.72544">
        <ele>472</ele>
        <time>2022-06-02T03:02:46.000Z</time>
      </trkpt>
      <trkpt lat="45.20096" lon="5.72543">
        <ele>472.39999389648</ele>
        <time>2022-06-02T03:02:47.000Z</time>
      </trkpt>
      <trkpt lat="45.20098" lon="5.72543">
        <ele>472.60000610352</ele>
        <time>2022-06-02T03:02:48.000Z</time>
      </trkpt>
      <trkpt lat="45.20099" lon="5.72543">
        <ele>472.60000610352</ele>
        <time>2022-06-02T03:02:49.000Z</time>
      </trkpt>
      <trkpt lat="45.20101" lon="5.72543">
        <ele>472.79998779297</ele>
        <time>2022-06-02T03:02:50.000Z</time>
      </trkpt>
      <trkpt lat="45.20102" lon="5.72543">
        <ele>473.20001220703</ele>
        <time>2022-06-02T03:02:51.000Z</time>
      </trkpt>
      <trkpt lat="45.20104" lon="5.72543">
        <ele>473.79998779297</ele>
        <time>2022-06-02T03:02:52.000Z</time>
      </trkpt>
      <trkpt lat="45.20105" lon="5.72543">
        <ele>474.20001220703</ele>
        <time>2022-06-02T03:02:53.000Z</time>
      </trkpt>
      <trkpt lat="45.20107" lon="5.72543">
        <ele>474.20001220703</ele>
        <time>2022-06-02T03:02:54.000Z</time>
      </trkpt>
      <trkpt lat="45.20107" lon="5.72543">
        <ele>474.39999389648</ele>
        <time>2022-06-02T03:02:55.000Z</time>
      </trkpt>
      <trkpt lat="45.20108" lon="5.72543">
        <ele>474.39999389648</ele>
        <time>2022-06-02T03:02:56.000Z</time>
      </trkpt>
      <trkpt lat="45.20109" lon="5.72543">
        <ele>474.60000610352</ele>
        <time>2022-06-02T03:02:57.000Z</time>
      </trkpt>
      <trkpt lat="45.2011" lon="5.72544">
        <ele>475</ele>
        <time>2022-06-02T03:02:58.000Z</time>
      </trkpt>
      <trkpt lat="45.20111" lon="5.72545">
        <ele>475</ele>
        <time>2022-06-02T03:02:59.000Z</time>
      </trkpt>
      <trkpt lat="45.20112" lon="5.72546">
        <ele>475.20001220703</ele>
        <time>2022-06-02T03:03:00.000Z</time>
      </trkpt>
      <trkpt lat="45.20113" lon="5.72546">
        <ele>475.79998779297</ele>
        <time>2022-06-02T03:03:01.000Z</time>
      </trkpt>
      <trkpt lat="45.20114" lon="5.72547">
        <ele>475.79998779297</ele>
        <time>2022-06-02T03:03:02.000Z</time>
      </trkpt>
      <trkpt lat="45.20115" lon="5.72547">
        <ele>475.79998779297</ele>
        <time>2022-06-02T03:03:03.000Z</time>
      </trkpt>
      <trkpt lat="45.20117" lon="5.72546">
        <ele>476</ele>
        <time>2022-06-02T03:03:04.000Z</time>
      </trkpt>
      <trkpt lat="45.20117" lon="5.72544">
        <ele>476.20001220703</ele>
        <time>2022-06-02T03:03:05.000Z</time>
      </trkpt>
      <trkpt lat="45.20116" lon="5.72542">
        <ele>476.60000610352</ele>
        <time>2022-06-02T03:03:06.000Z</time>
      </trkpt>
      <trkpt lat="45.20115" lon="5.7254">
        <ele>477.20001220703</ele>
        <time>2022-06-02T03:03:07.000Z</time>
      </trkpt>
      <trkpt lat="45.20115" lon="5.72538">
        <ele>477.20001220703</ele>
        <time>2022-06-02T03:03:08.000Z</time>
      </trkpt>
      <trkpt lat="45.20114" lon="5.72537">
        <ele>477.79998779297</ele>
        <time>2022-06-02T03:03:09.000Z</time>
      </trkpt>
      <trkpt lat="45.20113" lon="5.72536">
        <ele>478</ele>
        <time>2022-06-02T03:03:10.000Z</time>
      </trkpt>
      <trkpt lat="45.20112" lon="5.72534">
        <ele>478</ele>
        <time>2022-06-02T03:03:11.000Z</time>
      </trkpt>
      <trkpt lat="45.20111" lon="5.72533">
        <ele>478</ele>
        <time>2022-06-02T03:03:12.000Z</time>
      </trkpt>
      <trkpt lat="45.20111" lon="5.72531">
        <ele>478.20001220703</ele>
        <time>2022-06-02T03:03:13.000Z</time>
      </trkpt>
      <trkpt lat="45.2011" lon="5.72529">
        <ele>478.20001220703</ele>
        <time>2022-06-02T03:03:14.000Z</time>
      </trkpt>
      <trkpt lat="45.2011" lon="5.72527">
        <ele>478.39999389648</ele>
        <time>2022-06-02T03:03:15.000Z</time>
      </trkpt>
      <trkpt lat="45.2011" lon="5.72526">
        <ele>478.79998779297</ele>
        <time>2022-06-02T03:03:16.000Z</time>
      </trkpt>
      <trkpt lat="45.2011" lon="5.72524">
        <ele>479</ele>
        <time>2022-06-02T03:03:17.000Z</time>
      </trkpt>
      <trkpt lat="45.2011" lon="5.72522">
        <ele>479.20001220703</ele>
        <time>2022-06-02T03:03:18.000Z</time>
      </trkpt>
      <trkpt lat="45.2011" lon="5.7252">
        <ele>479.39999389648</ele>
        <time>2022-06-02T03:03:19.000Z</time>
      </trkpt>
      <trkpt lat="45.2011" lon="5.72519">
        <ele>479.60000610352</ele>
        <time>2022-06-02T03:03:20.000Z</time>
      </trkpt>
      <trkpt lat="45.2011" lon="5.72517">
        <ele>480</ele>
        <time>2022-06-02T03:03:21.000Z</time>
      </trkpt>
      <trkpt lat="45.20111" lon="5.72516">
        <ele>480</ele>
        <time>2022-06-02T03:03:22.000Z</time>
      </trkpt>
      <trkpt lat="45.20111" lon="5.72515">
        <ele>480.39999389648</ele>
        <time>2022-06-02T03:03:23.000Z</time>
      </trkpt>
      <trkpt lat="45.20112" lon="5.72515">
        <ele>480.60000610352</ele>
        <time>2022-06-02T03:03:24.000Z</time>
      </trkpt>
      <trkpt lat="45.20113" lon="5.72513">
        <ele>481</ele>
        <time>2022-06-02T03:03:25.000Z</time>
      </trkpt>
      <trkpt lat="45.20114" lon="5.72512">
        <ele>481.39999389648</ele>
        <time>2022-06-02T03:03:26.000Z</time>
      </trkpt>
      <trkpt lat="45.20115" lon="5.72511">
        <ele>481.39999389648</ele>
        <time>2022-06-02T03:03:27.000Z</time>
      </trkpt>
      <trkpt lat="45.20117" lon="5.72509">
        <ele>482</ele>
        <time>2022-06-02T03:03:28.000Z</time>
      </trkpt>
      <trkpt lat="45.20118" lon="5.72508">
        <ele>482.20001220703</ele>
        <time>2022-06-02T03:03:29.000Z</time>
      </trkpt>
      <trkpt lat="45.20119" lon="5.72507">
        <ele>482.20001220703</ele>
        <time>2022-06-02T03:03:30.000Z</time>
      </trkpt>
      <trkpt lat="45.2012" lon="5.72506">
        <ele>482.60000610352</ele>
        <time>2022-06-02T03:03:31.000Z</time>
      </trkpt>
      <trkpt lat="45.20121" lon="5.72504">
        <ele>482.79998779297</ele>
        <time>2022-06-02T03:03:32.000Z</time>
      </trkpt>
      <trkpt lat="45.20122" lon="5.72503">
        <ele>483.20001220703</ele>
        <time>2022-06-02T03:03:33.000Z</time>
      </trkpt>
      <trkpt lat="45.20123" lon="5.72501">
        <ele>483.20001220703</ele>
        <time>2022-06-02T03:03:34.000Z</time>
      </trkpt>
      <trkpt lat="45.20124" lon="5.725">
        <ele>483.79998779297</ele>
        <time>2022-06-02T03:03:35.000Z</time>
      </trkpt>
      <trkpt lat="45.20124" lon="5.72499">
        <ele>483.79998779297</ele>
        <time>2022-06-02T03:03:36.000Z</time>
      </trkpt>
      <trkpt lat="45.20125" lon="5.72498">
        <ele>484</ele>
        <time>2022-06-02T03:03:37.000Z</time>
      </trkpt>
      <trkpt lat="45.20126" lon="5.72497">
        <ele>484.39999389648</ele>
        <time>2022-06-02T03:03:38.000Z</time>
      </trkpt>
      <trkpt lat="45.20127" lon="5.72496">
        <ele>484.60000610352</ele>
        <time>2022-06-02T03:03:39.000Z</time>
      </trkpt>
      <trkpt lat="45.20128" lon="5.72495">
        <ele>484.60000610352</ele>
        <time>2022-06-02T03:03:40.000Z</time>
      </trkpt>
      <trkpt lat="45.20129" lon="5.72494">
        <ele>485.39999389648</ele>
        <time>2022-06-02T03:03:41.000Z</time>
      </trkpt>
      <trkpt lat="45.2013" lon="5.72493">
        <ele>485.60000610352</ele>
        <time>2022-06-02T03:03:42.000Z</time>
      </trkpt>
      <trkpt lat="45.2013" lon="5.72491">
        <ele>485.79998779297</ele>
        <time>2022-06-02T03:03:43.000Z</time>
      </trkpt>
      <trkpt lat="45.20131" lon="5.7249">
        <ele>486.20001220703</ele>
        <time>2022-06-02T03:03:44.000Z</time>
      </trkpt>
      <trkpt lat="45.20131" lon="5.72488">
        <ele>486.20001220703</ele>
        <time>2022-06-02T03:03:45.000Z</time>
      </trkpt>
      <trkpt lat="45.20131" lon="5.72486">
        <ele>486.60000610352</ele>
        <time>2022-06-02T03:03:46.000Z</time>
      </trkpt>
      <trkpt lat="45.20131" lon="5.72484">
        <ele>486.79998779297</ele>
        <time>2022-06-02T03:03:47.000Z</time>
      </trkpt>
      <trkpt lat="45.20131" lon="5.72484">
        <ele>487</ele>
        <time>2022-06-02T03:03:48.000Z</time>
      </trkpt>
      <trkpt lat="45.20132" lon="5.72483">
        <ele>487.60000610352</ele>
        <time>2022-06-02T03:03:49.000Z</time>
      </trkpt>
      <trkpt lat="45.20132" lon="5.72481">
        <ele>487.60000610352</ele>
        <time>2022-06-02T03:03:50.000Z</time>
      </trkpt>
      <trkpt lat="45.20132" lon="5.7248">
        <ele>488.20001220703</ele>
        <time>2022-06-02T03:03:51.000Z</time>
      </trkpt>
      <trkpt lat="45.20133" lon="5.72478">
        <ele>488.39999389648</ele>
        <time>2022-06-02T03:03:52.000Z</time>
      </trkpt>
      <trkpt lat="45.20133" lon="5.72477">
        <ele>488.60000610352</ele>
        <time>2022-06-02T03:03:53.000Z</time>
      </trkpt>
      <trkpt lat="45.20133" lon="5.72476">
        <ele>488.60000610352</ele>
        <time>2022-06-02T03:03:54.000Z</time>
      </trkpt>
      <trkpt lat="45.20133" lon="5.72474">
        <ele>489</ele>
        <time>2022-06-02T03:03:55.000Z</time>
      </trkpt>
      <trkpt lat="45.20133" lon="5.72473">
        <ele>489.20001220703</ele>
        <time>2022-06-02T03:03:56.000Z</time>
      </trkpt>
      <trkpt lat="45.20134" lon="5.72471">
        <ele>489.60000610352</ele>
        <time>2022-06-02T03:03:57.000Z</time>
      </trkpt>
      <trkpt lat="45.20135" lon="5.7247">
        <ele>489.79998779297</ele>
        <time>2022-06-02T03:03:58.000Z</time>
      </trkpt>
      <trkpt lat="45.20135" lon="5.72469">
        <ele>490.20001220703</ele>
        <time>2022-06-02T03:03:59.000Z</time>
      </trkpt>
      <trkpt lat="45.20136" lon="5.72469">
        <ele>490.60000610352</ele>
        <time>2022-06-02T03:04:00.000Z</time>
      </trkpt>
      <trkpt lat="45.20136" lon="5.72469">
        <ele>491</ele>
        <time>2022-06-02T03:04:01.000Z</time>
      </trkpt>
      <trkpt lat="45.20137" lon="5.72468">
        <ele>491</ele>
        <time>2022-06-02T03:04:02.000Z</time>
      </trkpt>
      <trkpt lat="45.20137" lon="5.72467">
        <ele>491.20001220703</ele>
        <time>2022-06-02T03:04:03.000Z</time>
      </trkpt>
      <trkpt lat="45.20137" lon="5.72466">
        <ele>491.20001220703</ele>
        <time>2022-06-02T03:04:04.000Z</time>
      </trkpt>
      <trkpt lat="45.20137" lon="5.72465">
        <ele>491.60000610352</ele>
        <time>2022-06-02T03:04:05.000Z</time>
      </trkpt>
      <trkpt lat="45.20138" lon="5.72465">
        <ele>491.79998779297</ele>
        <time>2022-06-02T03:04:06.000Z</time>
      </trkpt>
      <trkpt lat="45.20138" lon="5.72465">
        <ele>492</ele>
        <time>2022-06-02T03:04:07.000Z</time>
      </trkpt>
      <trkpt lat="45.20139" lon="5.72465">
        <ele>492.20001220703</ele>
        <time>2022-06-02T03:04:08.000Z</time>
      </trkpt>
      <trkpt lat="45.2014" lon="5.72465">
        <ele>493</ele>
        <time>2022-06-02T03:04:09.000Z</time>
      </trkpt>
      <trkpt lat="45.2014" lon="5.72465">
        <ele>493</ele>
        <time>2022-06-02T03:04:10.000Z</time>
      </trkpt>
      <trkpt lat="45.20141" lon="5.72464">
        <ele>493</ele>
        <time>2022-06-02T03:04:11.000Z</time>
      </trkpt>
      <trkpt lat="45.20141" lon="5.72462">
        <ele>493.39999389648</ele>
        <time>2022-06-02T03:04:12.000Z</time>
      </trkpt>
      <trkpt lat="45.20141" lon="5.72461">
        <ele>493.60000610352</ele>
        <time>2022-06-02T03:04:13.000Z</time>
      </trkpt>
      <trkpt lat="45.20142" lon="5.7246">
        <ele>493.60000610352</ele>
        <time>2022-06-02T03:04:14.000Z</time>
      </trkpt>
      <trkpt lat="45.20142" lon="5.72459">
        <ele>494.20001220703</ele>
        <time>2022-06-02T03:04:15.000Z</time>
      </trkpt>
      <trkpt lat="45.20143" lon="5.72458">
        <ele>494.20001220703</ele>
        <time>2022-06-02T03:04:16.000Z</time>
      </trkpt>
      <trkpt lat="45.20143" lon="5.72458">
        <ele>494.39999389648</ele>
        <time>2022-06-02T03:04:17.000Z</time>
      </trkpt>
      <trkpt lat="45.20144" lon="5.72457">
        <ele>494.39999389648</ele>
        <time>2022-06-02T03:04:18.000Z</time>
      </trkpt>
      <trkpt lat="45.20144" lon="5.72457">
        <ele>494.79998779297</ele>
        <time>2022-06-02T03:04:19.000Z</time>
      </trkpt>
      <trkpt lat="45.20145" lon="5.72458">
        <ele>495</ele>
        <time>2022-06-02T03:04:20.000Z</time>
      </trkpt>
      <trkpt lat="45.20145" lon="5.72459">
        <ele>495.39999389648</ele>
        <time>2022-06-02T03:04:21.000Z</time>
      </trkpt>
      <trkpt lat="45.20146" lon="5.7246">
        <ele>495.60000610352</ele>
        <time>2022-06-02T03:04:22.000Z</time>
      </trkpt>
      <trkpt lat="45.20146" lon="5.72461">
        <ele>495.79998779297</ele>
        <time>2022-06-02T03:04:23.000Z</time>
      </trkpt>
      <trkpt lat="45.20146" lon="5.72462">
        <ele>496.39999389648</ele>
        <time>2022-06-02T03:04:24.000Z</time>
      </trkpt>
      <trkpt lat="45.20147" lon="5.72462">
        <ele>496.39999389648</ele>
        <time>2022-06-02T03:04:25.000Z</time>
      </trkpt>
      <trkpt lat="45.20148" lon="5.72462">
        <ele>497</ele>
        <time>2022-06-02T03:04:26.000Z</time>
      </trkpt>
      <trkpt lat="45.20148" lon="5.72462">
        <ele>497.20001220703</ele>
        <time>2022-06-02T03:04:27.000Z</time>
      </trkpt>
      <trkpt lat="45.20149" lon="5.72463">
        <ele>497.39999389648</ele>
        <time>2022-06-02T03:04:28.000Z</time>
      </trkpt>
      <trkpt lat="45.20149" lon="5.72463">
        <ele>497.79998779297</ele>
        <time>2022-06-02T03:04:29.000Z</time>
      </trkpt>
      <trkpt lat="45.2015" lon="5.72463">
        <ele>497.79998779297</ele>
        <time>2022-06-02T03:04:30.000Z</time>
      </trkpt>
      <trkpt lat="45.20151" lon="5.72464">
        <ele>498</ele>
        <time>2022-06-02T03:04:31.000Z</time>
      </trkpt>
      <trkpt lat="45.20151" lon="5.72464">
        <ele>498.60000610352</ele>
        <time>2022-06-02T03:04:32.000Z</time>
      </trkpt>
      <trkpt lat="45.20151" lon="5.72465">
        <ele>498.79998779297</ele>
        <time>2022-06-02T03:04:33.000Z</time>
      </trkpt>
      <trkpt lat="45.20152" lon="5.72465">
        <ele>499</ele>
        <time>2022-06-02T03:04:34.000Z</time>
      </trkpt>
      <trkpt lat="45.20152" lon="5.72466">
        <ele>499.20001220703</ele>
        <time>2022-06-02T03:04:35.000Z</time>
      </trkpt>
      <trkpt lat="45.20152" lon="5.72466">
        <ele>499.39999389648</ele>
        <time>2022-06-02T03:04:36.000Z</time>
      </trkpt>
      <trkpt lat="45.20153" lon="5.72467">
        <ele>499.79998779297</ele>
        <time>2022-06-02T03:04:37.000Z</time>
      </trkpt>
      <trkpt lat="45.20153" lon="5.72467">
        <ele>500.79998779297</ele>
        <time>2022-06-02T03:04:38.000Z</time>
      </trkpt>
      <trkpt lat="45.20153" lon="5.72468">
        <ele>500.39999389648</ele>
        <time>2022-06-02T03:04:39.000Z</time>
      </trkpt>
      <trkpt lat="45.20154" lon="5.72468">
        <ele>501</ele>
        <time>2022-06-02T03:04:40.000Z</time>
      </trkpt>
      <trkpt lat="45.20154" lon="5.72469">
        <ele>501.39999389648</ele>
        <time>2022-06-02T03:04:41.000Z</time>
      </trkpt>
      <trkpt lat="45.20155" lon="5.7247">
        <ele>501.60000610352</ele>
        <time>2022-06-02T03:04:42.000Z</time>
      </trkpt>
      <trkpt lat="45.20156" lon="5.72471">
        <ele>501.79998779297</ele>
        <time>2022-06-02T03:04:43.000Z</time>
      </trkpt>
      <trkpt lat="45.20156" lon="5.72472">
        <ele>502</ele>
        <time>2022-06-02T03:04:44.000Z</time>
      </trkpt>
      <trkpt lat="45.20157" lon="5.72473">
        <ele>502.39999389648</ele>
        <time>2022-06-02T03:04:45.000Z</time>
      </trkpt>
      <trkpt lat="45.20157" lon="5.72473">
        <ele>502.39999389648</ele>
        <time>2022-06-02T03:04:46.000Z</time>
      </trkpt>
      <trkpt lat="45.20158" lon="5.72474">
        <ele>502.79998779297</ele>
        <time>2022-06-02T03:04:47.000Z</time>
      </trkpt>
      <trkpt lat="45.20158" lon="5.72474">
        <ele>502.79998779297</ele>
        <time>2022-06-02T03:04:48.000Z</time>
      </trkpt>
      <trkpt lat="45.20159" lon="5.72474">
        <ele>503.20001220703</ele>
        <time>2022-06-02T03:04:49.000Z</time>
      </trkpt>
      <trkpt lat="45.20159" lon="5.72474">
        <ele>503.39999389648</ele>
        <time>2022-06-02T03:04:50.000Z</time>
      </trkpt>
      <trkpt lat="45.20159" lon="5.72475">
        <ele>503.79998779297</ele>
        <time>2022-06-02T03:04:51.000Z</time>
      </trkpt>
      <trkpt lat="45.2016" lon="5.72475">
        <ele>504</ele>
        <time>2022-06-02T03:04:52.000Z</time>
      </trkpt>
      <trkpt lat="45.20161" lon="5.72476">
        <ele>504.20001220703</ele>
        <time>2022-06-02T03:04:53.000Z</time>
      </trkpt>
      <trkpt lat="45.20162" lon="5.72476">
        <ele>504.60000610352</ele>
        <time>2022-06-02T03:04:54.000Z</time>
      </trkpt>
      <trkpt lat="45.20162" lon="5.72477">
        <ele>504.79998779297</ele>
        <time>2022-06-02T03:04:55.000Z</time>
      </trkpt>
      <trkpt lat="45.20163" lon="5.72477">
        <ele>505</ele>
        <time>2022-06-02T03:04:56.000Z</time>
      </trkpt>
      <trkpt lat="45.20163" lon="5.72476">
        <ele>505.39999389648</ele>
        <time>2022-06-02T03:04:57.000Z</time>
      </trkpt>
      <trkpt lat="45.20163" lon="5.72477">
        <ele>505.79998779297</ele>
        <time>2022-06-02T03:04:58.000Z</time>
      </trkpt>
      <trkpt lat="45.20164" lon="5.72478">
        <ele>505.79998779297</ele>
        <time>2022-06-02T03:04:59.000Z</time>
      </trkpt>
      <trkpt lat="45.20164" lon="5.72479">
        <ele>506.39999389648</ele>
        <time>2022-06-02T03:05:00.000Z</time>
      </trkpt>
      <trkpt lat="45.20165" lon="5.72481">
        <ele>506.60000610352</ele>
        <time>2022-06-02T03:05:01.000Z</time>
      </trkpt>
      <trkpt lat="45.20165" lon="5.72482">
        <ele>506.79998779297</ele>
        <time>2022-06-02T03:05:02.000Z</time>
      </trkpt>
      <trkpt lat="45.20166" lon="5.72483">
        <ele>507.39999389648</ele>
        <time>2022-06-02T03:05:03.000Z</time>
      </trkpt>
      <trkpt lat="45.20166" lon="5.72483">
        <ele>507.39999389648</ele>
        <time>2022-06-02T03:05:04.000Z</time>
      </trkpt>
      <trkpt lat="45.20167" lon="5.72484">
        <ele>507.60000610352</ele>
        <time>2022-06-02T03:05:05.000Z</time>
      </trkpt>
      <trkpt lat="45.20167" lon="5.72485">
        <ele>507.79998779297</ele>
        <time>2022-06-02T03:05:06.000Z</time>
      </trkpt>
      <trkpt lat="45.20168" lon="5.72485">
        <ele>508</ele>
        <time>2022-06-02T03:05:07.000Z</time>
      </trkpt>
      <trkpt lat="45.20169" lon="5.72485">
        <ele>508</ele>
        <time>2022-06-02T03:05:08.000Z</time>
      </trkpt>
      <trkpt lat="45.2017" lon="5.72485">
        <ele>508.39999389648</ele>
        <time>2022-06-02T03:05:09.000Z</time>
      </trkpt>
      <trkpt lat="45.2017" lon="5.72484">
        <ele>508.60000610352</ele>
        <time>2022-06-02T03:05:10.000Z</time>
      </trkpt>
      <trkpt lat="45.2017" lon="5.72482">
        <ele>509</ele>
        <time>2022-06-02T03:05:11.000Z</time>
      </trkpt>
      <trkpt lat="45.20171" lon="5.72481">
        <ele>509.39999389648</ele>
        <time>2022-06-02T03:05:12.000Z</time>
      </trkpt>
      <trkpt lat="45.20171" lon="5.7248">
        <ele>509.39999389648</ele>
        <time>2022-06-02T03:05:13.000Z</time>
      </trkpt>
      <trkpt lat="45.20171" lon="5.72479">
        <ele>509.79998779297</ele>
        <time>2022-06-02T03:05:14.000Z</time>
      </trkpt>
      <trkpt lat="45.20172" lon="5.72479">
        <ele>510</ele>
        <time>2022-06-02T03:05:15.000Z</time>
      </trkpt>
      <trkpt lat="45.20173" lon="5.72478">
        <ele>510.20001220703</ele>
        <time>2022-06-02T03:05:16.000Z</time>
      </trkpt>
      <trkpt lat="45.20173" lon="5.72478">
        <ele>510.39999389648</ele>
        <time>2022-06-02T03:05:17.000Z</time>
      </trkpt>
      <trkpt lat="45.20174" lon="5.72477">
        <ele>510.79998779297</ele>
        <time>2022-06-02T03:05:18.000Z</time>
      </trkpt>
      <trkpt lat="45.20174" lon="5.72476">
        <ele>510.79998779297</ele>
        <time>2022-06-02T03:05:19.000Z</time>
      </trkpt>
      <trkpt lat="45.20174" lon="5.72475">
        <ele>511.20001220703</ele>
        <time>2022-06-02T03:05:20.000Z</time>
      </trkpt>
      <trkpt lat="45.20175" lon="5.72474">
        <ele>511.60000610352</ele>
        <time>2022-06-02T03:05:21.000Z</time>
      </trkpt>
      <trkpt lat="45.20175" lon="5.72473">
        <ele>511.79998779297</ele>
        <time>2022-06-02T03:05:22.000Z</time>
      </trkpt>
      <trkpt lat="45.20176" lon="5.72472">
        <ele>512.40002441406</ele>
        <time>2022-06-02T03:05:23.000Z</time>
      </trkpt>
      <trkpt lat="45.20176" lon="5.72472">
        <ele>512.40002441406</ele>
        <time>2022-06-02T03:05:24.000Z</time>
      </trkpt>
      <trkpt lat="45.20176" lon="5.72473">
        <ele>512.79998779297</ele>
        <time>2022-06-02T03:05:25.000Z</time>
      </trkpt>
      <trkpt lat="45.20177" lon="5.72473">
        <ele>513</ele>
        <time>2022-06-02T03:05:26.000Z</time>
      </trkpt>
      <trkpt lat="45.20177" lon="5.72473">
        <ele>513.20001220703</ele>
        <time>2022-06-02T03:05:27.000Z</time>
      </trkpt>
      <trkpt lat="45.20178" lon="5.72472">
        <ele>513.59997558594</ele>
        <time>2022-06-02T03:05:28.000Z</time>
      </trkpt>
      <trkpt lat="45.20179" lon="5.72471">
        <ele>514</ele>
        <time>2022-06-02T03:05:29.000Z</time>
      </trkpt>
      <trkpt lat="45.20179" lon="5.7247">
        <ele>513.79998779297</ele>
        <time>2022-06-02T03:05:30.000Z</time>
      </trkpt>
      <trkpt lat="45.20179" lon="5.7247">
        <ele>514</ele>
        <time>2022-06-02T03:05:31.000Z</time>
      </trkpt>
      <trkpt lat="45.20179" lon="5.7247">
        <ele>514.40002441406</ele>
        <time>2022-06-02T03:05:32.000Z</time>
      </trkpt>
      <trkpt lat="45.2018" lon="5.72469">
        <ele>514.59997558594</ele>
        <time>2022-06-02T03:05:33.000Z</time>
      </trkpt>
      <trkpt lat="45.2018" lon="5.72469">
        <ele>515.20001220703</ele>
        <time>2022-06-02T03:05:34.000Z</time>
      </trkpt>
      <trkpt lat="45.20181" lon="5.72468">
        <ele>515.40002441406</ele>
        <time>2022-06-02T03:05:35.000Z</time>
      </trkpt>
      <trkpt lat="45.20181" lon="5.72468">
        <ele>515.79998779297</ele>
        <time>2022-06-02T03:05:36.000Z</time>
      </trkpt>
      <trkpt lat="45.20181" lon="5.72468">
        <ele>516</ele>
        <time>2022-06-02T03:05:37.000Z</time>
      </trkpt>
      <trkpt lat="45.20182" lon="5.72469">
        <ele>516.20001220703</ele>
        <time>2022-06-02T03:05:38.000Z</time>
      </trkpt>
      <trkpt lat="45.20182" lon="5.72469">
        <ele>516.59997558594</ele>
        <time>2022-06-02T03:05:39.000Z</time>
      </trkpt>
      <trkpt lat="45.20183" lon="5.7247">
        <ele>516.59997558594</ele>
        <time>2022-06-02T03:05:40.000Z</time>
      </trkpt>
      <trkpt lat="45.20183" lon="5.72472">
        <ele>516.79998779297</ele>
        <time>2022-06-02T03:05:41.000Z</time>
      </trkpt>
      <trkpt lat="45.20184" lon="5.72472">
        <ele>517.20001220703</ele>
        <time>2022-06-02T03:05:42.000Z</time>
      </trkpt>
      <trkpt lat="45.20184" lon="5.72473">
        <ele>517.59997558594</ele>
        <time>2022-06-02T03:05:43.000Z</time>
      </trkpt>
      <trkpt lat="45.20185" lon="5.72473">
        <ele>517.59997558594</ele>
        <time>2022-06-02T03:05:44.000Z</time>
      </trkpt>
      <trkpt lat="45.20185" lon="5.72473">
        <ele>518</ele>
        <time>2022-06-02T03:05:45.000Z</time>
      </trkpt>
      <trkpt lat="45.20185" lon="5.72474">
        <ele>518.20001220703</ele>
        <time>2022-06-02T03:05:46.000Z</time>
      </trkpt>
      <trkpt lat="45.20186" lon="5.72474">
        <ele>518.59997558594</ele>
        <time>2022-06-02T03:05:47.000Z</time>
      </trkpt>
      <trkpt lat="45.20187" lon="5.72474">
        <ele>518.79998779297</ele>
        <time>2022-06-02T03:05:48.000Z</time>
      </trkpt>
      <trkpt lat="45.20188" lon="5.72474">
        <ele>519.20001220703</ele>
        <time>2022-06-02T03:05:49.000Z</time>
      </trkpt>
      <trkpt lat="45.20188" lon="5.72475">
        <ele>519.40002441406</ele>
        <time>2022-06-02T03:05:50.000Z</time>
      </trkpt>
      <trkpt lat="45.20189" lon="5.72475">
        <ele>519.79998779297</ele>
        <time>2022-06-02T03:05:51.000Z</time>
      </trkpt>
      <trkpt lat="45.2019" lon="5.72476">
        <ele>520.20001220703</ele>
        <time>2022-06-02T03:05:52.000Z</time>
      </trkpt>
      <trkpt lat="45.20191" lon="5.72476">
        <ele>520.40002441406</ele>
        <time>2022-06-02T03:05:53.000Z</time>
      </trkpt>
      <trkpt lat="45.20191" lon="5.72477">
        <ele>520.20001220703</ele>
        <time>2022-06-02T03:05:54.000Z</time>
      </trkpt>
      <trkpt lat="45.20192" lon="5.72477">
        <ele>520.20001220703</ele>
        <time>2022-06-02T03:05:55.000Z</time>
      </trkpt>
      <trkpt lat="45.20192" lon="5.72477">
        <ele>520.79998779297</ele>
        <time>2022-06-02T03:05:56.000Z</time>
      </trkpt>
      <trkpt lat="45.20193" lon="5.72477">
        <ele>520.79998779297</ele>
        <time>2022-06-02T03:05:57.000Z</time>
      </trkpt>
      <trkpt lat="45.20194" lon="5.72477">
        <ele>521</ele>
        <time>2022-06-02T03:05:58.000Z</time>
      </trkpt>
      <trkpt lat="45.20195" lon="5.72476">
        <ele>521.40002441406</ele>
        <time>2022-06-02T03:05:59.000Z</time>
      </trkpt>
      <trkpt lat="45.20195" lon="5.72475">
        <ele>522.20001220703</ele>
        <time>2022-06-02T03:06:00.000Z</time>
      </trkpt>
      <trkpt lat="45.20195" lon="5.72474">
        <ele>522.59997558594</ele>
        <time>2022-06-02T03:06:01.000Z</time>
      </trkpt>
      <trkpt lat="45.20195" lon="5.72473">
        <ele>522.40002441406</ele>
        <time>2022-06-02T03:06:02.000Z</time>
      </trkpt>
      <trkpt lat="45.20196" lon="5.72472">
        <ele>522.40002441406</ele>
        <time>2022-06-02T03:06:03.000Z</time>
      </trkpt>
      <trkpt lat="45.20196" lon="5.72471">
        <ele>522.79998779297</ele>
        <time>2022-06-02T03:06:04.000Z</time>
      </trkpt>
      <trkpt lat="45.20197" lon="5.72471">
        <ele>523.20001220703</ele>
        <time>2022-06-02T03:06:05.000Z</time>
      </trkpt>
      <trkpt lat="45.20197" lon="5.7247">
        <ele>523.59997558594</ele>
        <time>2022-06-02T03:06:06.000Z</time>
      </trkpt>
      <trkpt lat="45.20198" lon="5.7247">
        <ele>523.59997558594</ele>
        <time>2022-06-02T03:06:07.000Z</time>
      </trkpt>
      <trkpt lat="45.20198" lon="5.7247">
        <ele>524</ele>
        <time>2022-06-02T03:06:08.000Z</time>
      </trkpt>
      <trkpt lat="45.20197" lon="5.7247">
        <ele>524.40002441406</ele>
        <time>2022-06-02T03:06:09.000Z</time>
      </trkpt>
      <trkpt lat="45.20196" lon="5.7247">
        <ele>524.59997558594</ele>
        <time>2022-06-02T03:06:10.000Z</time>
      </trkpt>
      <trkpt lat="45.20196" lon="5.72469">
        <ele>524.59997558594</ele>
        <time>2022-06-02T03:06:11.000Z</time>
      </trkpt>
      <trkpt lat="45.20197" lon="5.72468">
        <ele>524.79998779297</ele>
        <time>2022-06-02T03:06:12.000Z</time>
      </trkpt>
      <trkpt lat="45.20197" lon="5.72468">
        <ele>525.20001220703</ele>
        <time>2022-06-02T03:06:13.000Z</time>
      </trkpt>
      <trkpt lat="45.20197" lon="5.72467">
        <ele>525.40002441406</ele>
        <time>2022-06-02T03:06:14.000Z</time>
      </trkpt>
      <trkpt lat="45.20197" lon="5.72466">
        <ele>525.40002441406</ele>
        <time>2022-06-02T03:06:15.000Z</time>
      </trkpt>
      <trkpt lat="45.20197" lon="5.72465">
        <ele>525.79998779297</ele>
        <time>2022-06-02T03:06:16.000Z</time>
      </trkpt>
      <trkpt lat="45.20197" lon="5.72464">
        <ele>525.79998779297</ele>
        <time>2022-06-02T03:06:17.000Z</time>
      </trkpt>
      <trkpt lat="45.20197" lon="5.72464">
        <ele>526.59997558594</ele>
        <time>2022-06-02T03:06:18.000Z</time>
      </trkpt>
      <trkpt lat="45.20197" lon="5.72463">
        <ele>526.59997558594</ele>
        <time>2022-06-02T03:06:19.000Z</time>
      </trkpt>
      <trkpt lat="45.20198" lon="5.72462">
        <ele>526.40002441406</ele>
        <time>2022-06-02T03:06:20.000Z</time>
      </trkpt>
      <trkpt lat="45.20198" lon="5.72462">
        <ele>526.59997558594</ele>
        <time>2022-06-02T03:06:21.000Z</time>
      </trkpt>
      <trkpt lat="45.20197" lon="5.72462">
        <ele>526.40002441406</ele>
        <time>2022-06-02T03:06:22.000Z</time>
      </trkpt>
      <trkpt lat="45.20198" lon="5.72462">
        <ele>526.40002441406</ele>
        <time>2022-06-02T03:06:23.000Z</time>
      </trkpt>
      <trkpt lat="45.20198" lon="5.72461">
        <ele>526.40002441406</ele>
        <time>2022-06-02T03:06:24.000Z</time>
      </trkpt>
      <trkpt lat="45.20198" lon="5.7246">
        <ele>526.79998779297</ele>
        <time>2022-06-02T03:06:25.000Z</time>
      </trkpt>
      <trkpt lat="45.20199" lon="5.7246">
        <ele>526.79998779297</ele>
        <time>2022-06-02T03:06:26.000Z</time>
      </trkpt>
      <trkpt lat="45.20199" lon="5.7246">
        <ele>527.20001220703</ele>
        <time>2022-06-02T03:06:27.000Z</time>
      </trkpt>
      <trkpt lat="45.202" lon="5.72459">
        <ele>527.20001220703</ele>
        <time>2022-06-02T03:06:28.000Z</time>
      </trkpt>
      <trkpt lat="45.202" lon="5.72459">
        <ele>527.20001220703</ele>
        <time>2022-06-02T03:06:29.000Z</time>
      </trkpt>
      <trkpt lat="45.202" lon="5.72459">
        <ele>527.79998779297</ele>
        <time>2022-06-02T03:06:30.000Z</time>
      </trkpt>
      <trkpt lat="45.202" lon="5.72459">
        <ele>528.20001220703</ele>
        <time>2022-06-02T03:06:31.000Z</time>
      </trkpt>
      <trkpt lat="45.202" lon="5.72459">
        <ele>528.20001220703</ele>
        <time>2022-06-02T03:06:32.000Z</time>
      </trkpt>
      <trkpt lat="45.202" lon="5.72459">
        <ele>528.20001220703</ele>
        <time>2022-06-02T03:06:33.000Z</time>
      </trkpt>
      <trkpt lat="45.202" lon="5.72459">
        <ele>528.40002441406</ele>
        <time>2022-06-02T03:06:34.000Z</time>
      </trkpt>
      <trkpt lat="45.202" lon="5.72459">
        <ele>528.40002441406</ele>
        <time>2022-06-02T03:06:35.000Z</time>
      </trkpt>
      <trkpt lat="45.202" lon="5.72459">
        <ele>528.59997558594</ele>
        <time>2022-06-02T03:06:36.000Z</time>
      </trkpt>
      <trkpt lat="45.202" lon="5.72458">
        <ele>528.59997558594</ele>
        <time>2022-06-02T03:06:37.000Z</time>
      </trkpt>
      <trkpt lat="45.202" lon="5.72458">
        <ele>529</ele>
        <time>2022-06-02T03:06:38.000Z</time>
      </trkpt>
      <trkpt lat="45.202" lon="5.72457">
        <ele>529</ele>
        <time>2022-06-02T03:06:39.000Z</time>
      </trkpt>
      <trkpt lat="45.202" lon="5.72457">
        <ele>529</ele>
        <time>2022-06-02T03:06:40.000Z</time>
      </trkpt>
      <trkpt lat="45.202" lon="5.72457">
        <ele>529</ele>
        <time>2022-06-02T03:06:41.000Z</time>
      </trkpt>
      <trkpt lat="45.202" lon="5.72457">
        <ele>529.20001220703</ele>
        <time>2022-06-02T03:06:42.000Z</time>
      </trkpt>
      <trkpt lat="45.202" lon="5.72457">
        <ele>529.20001220703</ele>
        <time>2022-06-02T03:06:43.000Z</time>
      </trkpt>
      <trkpt lat="45.202" lon="5.72457">
        <ele>529.20001220703</ele>
        <time>2022-06-02T03:06:44.000Z</time>
      </trkpt>
      <trkpt lat="45.202" lon="5.72457">
        <ele>529.20001220703</ele>
        <time>2022-06-02T03:06:45.000Z</time>
      </trkpt>
      <trkpt lat="45.202" lon="5.72457">
        <ele>529</ele>
        <time>2022-06-02T03:06:46.000Z</time>
      </trkpt>
      <trkpt lat="45.202" lon="5.72457">
        <ele>528.79998779297</ele>
        <time>2022-06-02T03:06:47.000Z</time>
      </trkpt>
      <trkpt lat="45.20199" lon="5.72457">
        <ele>529</ele>
        <time>2022-06-02T03:06:48.000Z</time>
      </trkpt>
      <trkpt lat="45.20199" lon="5.72458">
        <ele>529.20001220703</ele>
        <time>2022-06-02T03:06:49.000Z</time>
      </trkpt>
      <trkpt lat="45.20199" lon="5.72458">
        <ele>529.20001220703</ele>
        <time>2022-06-02T03:06:50.000Z</time>
      </trkpt>
      <trkpt lat="45.20199" lon="5.72458">
        <ele>529.20001220703</ele>
        <time>2022-06-02T03:06:51.000Z</time>
      </trkpt>
      <trkpt lat="45.20199" lon="5.72458">
        <ele>529.20001220703</ele>
        <time>2022-06-02T03:06:52.000Z</time>
      </trkpt>
      <trkpt lat="45.20199" lon="5.72458">
        <ele>529.20001220703</ele>
        <time>2022-06-02T03:06:53.000Z</time>
      </trkpt>
      <trkpt lat="45.20199" lon="5.72458">
        <ele>529.40002441406</ele>
        <time>2022-06-02T03:06:54.000Z</time>
      </trkpt>
      <trkpt lat="45.20199" lon="5.72458">
        <ele>529.20001220703</ele>
        <time>2022-06-02T03:06:55.000Z</time>
      </trkpt>
      <trkpt lat="45.20199" lon="5.72458">
        <ele>529.20001220703</ele>
        <time>2022-06-02T03:06:56.000Z</time>
      </trkpt>
      <trkpt lat="45.20199" lon="5.72458">
        <ele>529.20001220703</ele>
        <time>2022-06-02T03:06:57.000Z</time>
      </trkpt>
      <trkpt lat="45.20199" lon="5.72458">
        <ele>529.20001220703</ele>
        <time>2022-06-02T03:06:58.000Z</time>
      </trkpt>
      <trkpt lat="45.20199" lon="5.72458">
        <ele>529.20001220703</ele>
        <time>2022-06-02T03:06:59.000Z</time>
      </trkpt>
      <trkpt lat="45.20199" lon="5.72458">
        <ele>529.20001220703</ele>
        <time>2022-06-02T03:07:00.000Z</time>
      </trkpt>
      <trkpt lat="45.20199" lon="5.72458">
        <ele>529.40002441406</ele>
        <time>2022-06-02T03:07:01.000Z</time>
      </trkpt>
      <trkpt lat="45.20199" lon="5.72458">
        <ele>529.40002441406</ele>
        <time>2022-06-02T03:07:02.000Z</time>
      </trkpt>
      <trkpt lat="45.20199" lon="5.72458">
        <ele>529.20001220703</ele>
        <time>2022-06-02T03:07:03.000Z</time>
      </trkpt>
      <trkpt lat="45.20199" lon="5.72458">
        <ele>529.59997558594</ele>
        <time>2022-06-02T03:07:04.000Z</time>
      </trkpt>
      <trkpt lat="45.20199" lon="5.72458">
        <ele>529.20001220703</ele>
        <time>2022-06-02T03:07:05.000Z</time>
      </trkpt>
      <trkpt lat="45.20199" lon="5.72458">
        <ele>529</ele>
        <time>2022-06-02T03:07:06.000Z</time>
      </trkpt>
      <trkpt lat="45.20199" lon="5.72458">
        <ele>529</ele>
        <time>2022-06-02T03:07:07.000Z</time>
      </trkpt>
      <trkpt lat="45.20199" lon="5.72458">
        <ele>529.40002441406</ele>
        <time>2022-06-02T03:07:08.000Z</time>
      </trkpt>
      <trkpt lat="45.20199" lon="5.72458">
        <ele>529.40002441406</ele>
        <time>2022-06-02T03:07:09.000Z</time>
      </trkpt>
      <trkpt lat="45.20199" lon="5.72458">
        <ele>529.20001220703</ele>
        <time>2022-06-02T03:07:10.000Z</time>
      </trkpt>
      <trkpt lat="45.20199" lon="5.72458">
        <ele>529.20001220703</ele>
        <time>2022-06-02T03:07:11.000Z</time>
      </trkpt>
      <trkpt lat="45.20199" lon="5.72458">
        <ele>529.20001220703</ele>
        <time>2022-06-02T03:07:12.000Z</time>
      </trkpt>
      <trkpt lat="45.20199" lon="5.72458">
        <ele>529.40002441406</ele>
        <time>2022-06-02T03:07:13.000Z</time>
      </trkpt>
      <trkpt lat="45.20199" lon="5.72457">
        <ele>529.20001220703</ele>
        <time>2022-06-02T03:07:14.000Z</time>
      </trkpt>
      <trkpt lat="45.20199" lon="5.72457">
        <ele>529.40002441406</ele>
        <time>2022-06-02T03:07:15.000Z</time>
      </trkpt>
      <trkpt lat="45.20199" lon="5.72457">
        <ele>529.40002441406</ele>
        <time>2022-06-02T03:07:16.000Z</time>
      </trkpt>
      <trkpt lat="45.20199" lon="5.72457">
        <ele>529.40002441406</ele>
        <time>2022-06-02T03:07:17.000Z</time>
      </trkpt>
      <trkpt lat="45.20199" lon="5.72457">
        <ele>529.20001220703</ele>
        <time>2022-06-02T03:07:18.000Z</time>
      </trkpt>
      <trkpt lat="45.20199" lon="5.72457">
        <ele>529.20001220703</ele>
        <time>2022-06-02T03:07:19.000Z</time>
      </trkpt>
      <trkpt lat="45.20199" lon="5.72457">
        <ele>529.40002441406</ele>
        <time>2022-06-02T03:07:20.000Z</time>
      </trkpt>
      <trkpt lat="45.20199" lon="5.72457">
        <ele>529.40002441406</ele>
        <time>2022-06-02T03:07:21.000Z</time>
      </trkpt>
      <trkpt lat="45.20199" lon="5.72457">
        <ele>529.40002441406</ele>
        <time>2022-06-02T03:07:22.000Z</time>
      </trkpt>
      <trkpt lat="45.20199" lon="5.72457">
        <ele>529.40002441406</ele>
        <time>2022-06-02T03:07:23.000Z</time>
      </trkpt>
      <trkpt lat="45.20199" lon="5.72457">
        <ele>529.20001220703</ele>
        <time>2022-06-02T03:07:24.000Z</time>
      </trkpt>
      <trkpt lat="45.20199" lon="5.72457">
        <ele>529.40002441406</ele>
        <time>2022-06-02T03:07:25.000Z</time>
      </trkpt>
      <trkpt lat="45.20199" lon="5.72457">
        <ele>529.40002441406</ele>
        <time>2022-06-02T03:07:26.000Z</time>
      </trkpt>
      <trkpt lat="45.20199" lon="5.72457">
        <ele>529.59997558594</ele>
        <time>2022-06-02T03:07:27.000Z</time>
      </trkpt>
      <trkpt lat="45.20199" lon="5.72457">
        <ele>529.59997558594</ele>
        <time>2022-06-02T03:07:28.000Z</time>
      </trkpt>
      <trkpt lat="45.20199" lon="5.72457">
        <ele>529.40002441406</ele>
        <time>2022-06-02T03:07:29.000Z</time>
      </trkpt>
      <trkpt lat="45.20199" lon="5.72457">
        <ele>529.40002441406</ele>
        <time>2022-06-02T03:07:30.000Z</time>
      </trkpt>
      <trkpt lat="45.20199" lon="5.72457">
        <ele>529.40002441406</ele>
        <time>2022-06-02T03:07:31.000Z</time>
      </trkpt>
      <trkpt lat="45.20199" lon="5.72457">
        <ele>529.40002441406</ele>
        <time>2022-06-02T03:07:32.000Z</time>
      </trkpt>
      <trkpt lat="45.202" lon="5.72457">
        <ele>529.40002441406</ele>
        <time>2022-06-02T03:07:33.000Z</time>
      </trkpt>
      <trkpt lat="45.202" lon="5.72457">
        <ele>529.40002441406</ele>
        <time>2022-06-02T03:07:34.000Z</time>
      </trkpt>
      <trkpt lat="45.202" lon="5.72457">
        <ele>529.40002441406</ele>
        <time>2022-06-02T03:07:35.000Z</time>
      </trkpt>
      <trkpt lat="45.202" lon="5.72457">
        <ele>529.40002441406</ele>
        <time>2022-06-02T03:07:36.000Z</time>
      </trkpt>
      <trkpt lat="45.202" lon="5.72457">
        <ele>529.20001220703</ele>
        <time>2022-06-02T03:07:37.000Z</time>
      </trkpt>
      <trkpt lat="45.202" lon="5.72456">
        <ele>529.20001220703</ele>
        <time>2022-06-02T03:07:38.000Z</time>
      </trkpt>
      <trkpt lat="45.202" lon="5.72456">
        <ele>529.40002441406</ele>
        <time>2022-06-02T03:07:39.000Z</time>
      </trkpt>
      <trkpt lat="45.202" lon="5.72456">
        <ele>529.40002441406</ele>
        <time>2022-06-02T03:07:40.000Z</time>
      </trkpt>
      <trkpt lat="45.202" lon="5.72456">
        <ele>529.40002441406</ele>
        <time>2022-06-02T03:07:41.000Z</time>
      </trkpt>
      <trkpt lat="45.202" lon="5.72456">
        <ele>529.40002441406</ele>
        <time>2022-06-02T03:07:42.000Z</time>
      </trkpt>
      <trkpt lat="45.202" lon="5.72456">
        <ele>529.40002441406</ele>
        <time>2022-06-02T03:07:43.000Z</time>
      </trkpt>
      <trkpt lat="45.202" lon="5.72456">
        <ele>529.59997558594</ele>
        <time>2022-06-02T03:07:44.000Z</time>
      </trkpt>
      <trkpt lat="45.202" lon="5.72457">
        <ele>529.40002441406</ele>
        <time>2022-06-02T03:07:45.000Z</time>
      </trkpt>
      <trkpt lat="45.202" lon="5.72457">
        <ele>529.59997558594</ele>
        <time>2022-06-02T03:07:46.000Z</time>
      </trkpt>
      <trkpt lat="45.202" lon="5.72457">
        <ele>529.40002441406</ele>
        <time>2022-06-02T03:07:47.000Z</time>
      </trkpt>
      <trkpt lat="45.202" lon="5.72456">
        <ele>529.40002441406</ele>
        <time>2022-06-02T03:07:48.000Z</time>
      </trkpt>
      <trkpt lat="45.20199" lon="5.72456">
        <ele>529.79998779297</ele>
        <time>2022-06-02T03:07:49.000Z</time>
      </trkpt>
      <trkpt lat="45.20199" lon="5.72454">
        <ele>530</ele>
        <time>2022-06-02T03:07:50.000Z</time>
      </trkpt>
      <trkpt lat="45.20199" lon="5.72455">
        <ele>530.40002441406</ele>
        <time>2022-06-02T03:07:51.000Z</time>
      </trkpt>
      <trkpt lat="45.202" lon="5.72454">
        <ele>531</ele>
        <time>2022-06-02T03:07:52.000Z</time>
      </trkpt>
      <trkpt lat="45.202" lon="5.72454">
        <ele>531</ele>
        <time>2022-06-02T03:07:53.000Z</time>
      </trkpt>
      <trkpt lat="45.202" lon="5.72454">
        <ele>530.79998779297</ele>
        <time>2022-06-02T03:07:54.000Z</time>
      </trkpt>
      <trkpt lat="45.20201" lon="5.72453">
        <ele>531.20001220703</ele>
        <time>2022-06-02T03:07:55.000Z</time>
      </trkpt>
      <trkpt lat="45.20201" lon="5.72452">
        <ele>531.79998779297</ele>
        <time>2022-06-02T03:07:56.000Z</time>
      </trkpt>
      <trkpt lat="45.20202" lon="5.72451">
        <ele>531.79998779297</ele>
        <time>2022-06-02T03:07:57.000Z</time>
      </trkpt>
      <trkpt lat="45.20202" lon="5.72451">
        <ele>532</ele>
        <time>2022-06-02T03:07:58.000Z</time>
      </trkpt>
      <trkpt lat="45.20203" lon="5.72451">
        <ele>532.40002441406</ele>
        <time>2022-06-02T03:07:59.000Z</time>
      </trkpt>
      <trkpt lat="45.20203" lon="5.72451">
        <ele>532.59997558594</ele>
        <time>2022-06-02T03:08:00.000Z</time>
      </trkpt>
      <trkpt lat="45.20203" lon="5.72451">
        <ele>532.79998779297</ele>
        <time>2022-06-02T03:08:01.000Z</time>
      </trkpt>
      <trkpt lat="45.20204" lon="5.72451">
        <ele>533.20001220703</ele>
        <time>2022-06-02T03:08:02.000Z</time>
      </trkpt>
      <trkpt lat="45.20204" lon="5.72451">
        <ele>533.59997558594</ele>
        <time>2022-06-02T03:08:03.000Z</time>
      </trkpt>
      <trkpt lat="45.20205" lon="5.7245">
        <ele>533.59997558594</ele>
        <time>2022-06-02T03:08:04.000Z</time>
      </trkpt>
      <trkpt lat="45.20206" lon="5.7245">
        <ele>534</ele>
        <time>2022-06-02T03:08:05.000Z</time>
      </trkpt>
      <trkpt lat="45.20206" lon="5.72449">
        <ele>534.20001220703</ele>
        <time>2022-06-02T03:08:06.000Z</time>
      </trkpt>
      <trkpt lat="45.20207" lon="5.72449">
        <ele>534.40002441406</ele>
        <time>2022-06-02T03:08:07.000Z</time>
      </trkpt>
      <trkpt lat="45.20208" lon="5.72448">
        <ele>535</ele>
        <time>2022-06-02T03:08:08.000Z</time>
      </trkpt>
      <trkpt lat="45.20209" lon="5.72447">
        <ele>535.59997558594</ele>
        <time>2022-06-02T03:08:09.000Z</time>
      </trkpt>
      <trkpt lat="45.20209" lon="5.72446">
        <ele>536</ele>
        <time>2022-06-02T03:08:10.000Z</time>
      </trkpt>
      <trkpt lat="45.2021" lon="5.72445">
        <ele>536</ele>
        <time>2022-06-02T03:08:11.000Z</time>
      </trkpt>
      <trkpt lat="45.2021" lon="5.72446">
        <ele>536.20001220703</ele>
        <time>2022-06-02T03:08:12.000Z</time>
      </trkpt>
      <trkpt lat="45.20211" lon="5.72445">
        <ele>537</ele>
        <time>2022-06-02T03:08:13.000Z</time>
      </trkpt>
      <trkpt lat="45.20212" lon="5.72445">
        <ele>537</ele>
        <time>2022-06-02T03:08:14.000Z</time>
      </trkpt>
      <trkpt lat="45.20212" lon="5.72444">
        <ele>537.20001220703</ele>
        <time>2022-06-02T03:08:15.000Z</time>
      </trkpt>
      <trkpt lat="45.20213" lon="5.72444">
        <ele>537.40002441406</ele>
        <time>2022-06-02T03:08:16.000Z</time>
      </trkpt>
      <trkpt lat="45.20213" lon="5.72444">
        <ele>537.40002441406</ele>
        <time>2022-06-02T03:08:17.000Z</time>
      </trkpt>
      <trkpt lat="45.20214" lon="5.72444">
        <ele>537.79998779297</ele>
        <time>2022-06-02T03:08:18.000Z</time>
      </trkpt>
      <trkpt lat="45.20214" lon="5.72445">
        <ele>538.20001220703</ele>
        <time>2022-06-02T03:08:19.000Z</time>
      </trkpt>
      <trkpt lat="45.20215" lon="5.72445">
        <ele>538.59997558594</ele>
        <time>2022-06-02T03:08:20.000Z</time>
      </trkpt>
      <trkpt lat="45.20215" lon="5.72445">
        <ele>538.59997558594</ele>
        <time>2022-06-02T03:08:21.000Z</time>
      </trkpt>
      <trkpt lat="45.20216" lon="5.72445">
        <ele>539</ele>
        <time>2022-06-02T03:08:22.000Z</time>
      </trkpt>
      <trkpt lat="45.20217" lon="5.72445">
        <ele>539.20001220703</ele>
        <time>2022-06-02T03:08:23.000Z</time>
      </trkpt>
      <trkpt lat="45.20217" lon="5.72445">
        <ele>539.40002441406</ele>
        <time>2022-06-02T03:08:24.000Z</time>
      </trkpt>
      <trkpt lat="45.20218" lon="5.72445">
        <ele>539.79998779297</ele>
        <time>2022-06-02T03:08:25.000Z</time>
      </trkpt>
      <trkpt lat="45.20219" lon="5.72444">
        <ele>540.20001220703</ele>
        <time>2022-06-02T03:08:26.000Z</time>
      </trkpt>
      <trkpt lat="45.20219" lon="5.72444">
        <ele>540.40002441406</ele>
        <time>2022-06-02T03:08:27.000Z</time>
      </trkpt>
      <trkpt lat="45.2022" lon="5.72442">
        <ele>540.40002441406</ele>
        <time>2022-06-02T03:08:28.000Z</time>
      </trkpt>
      <trkpt lat="45.20221" lon="5.72442">
        <ele>540.79998779297</ele>
        <time>2022-06-02T03:08:29.000Z</time>
      </trkpt>
      <trkpt lat="45.20222" lon="5.72441">
        <ele>541.40002441406</ele>
        <time>2022-06-02T03:08:30.000Z</time>
      </trkpt>
      <trkpt lat="45.20222" lon="5.7244">
        <ele>541.40002441406</ele>
        <time>2022-06-02T03:08:31.000Z</time>
      </trkpt>
      <trkpt lat="45.20223" lon="5.7244">
        <ele>541.79998779297</ele>
        <time>2022-06-02T03:08:32.000Z</time>
      </trkpt>
      <trkpt lat="45.20224" lon="5.7244">
        <ele>542.20001220703</ele>
        <time>2022-06-02T03:08:33.000Z</time>
      </trkpt>
      <trkpt lat="45.20224" lon="5.72439">
        <ele>542.20001220703</ele>
        <time>2022-06-02T03:08:34.000Z</time>
      </trkpt>
      <trkpt lat="45.20225" lon="5.72439">
        <ele>542.59997558594</ele>
        <time>2022-06-02T03:08:35.000Z</time>
      </trkpt>
      <trkpt lat="45.20226" lon="5.72438">
        <ele>542.59997558594</ele>
        <time>2022-06-02T03:08:36.000Z</time>
      </trkpt>
      <trkpt lat="45.20227" lon="5.72438">
        <ele>542.79998779297</ele>
        <time>2022-06-02T03:08:37.000Z</time>
      </trkpt>
      <trkpt lat="45.20228" lon="5.72438">
        <ele>543.59997558594</ele>
        <time>2022-06-02T03:08:38.000Z</time>
      </trkpt>
      <trkpt lat="45.2023" lon="5.72438">
        <ele>543.79998779297</ele>
        <time>2022-06-02T03:08:39.000Z</time>
      </trkpt>
      <trkpt lat="45.2023" lon="5.72437">
        <ele>543.79998779297</ele>
        <time>2022-06-02T03:08:40.000Z</time>
      </trkpt>
      <trkpt lat="45.20231" lon="5.72437">
        <ele>544</ele>
        <time>2022-06-02T03:08:41.000Z</time>
      </trkpt>
      <trkpt lat="45.20232" lon="5.72437">
        <ele>544.59997558594</ele>
        <time>2022-06-02T03:08:42.000Z</time>
      </trkpt>
      <trkpt lat="45.20233" lon="5.72437">
        <ele>545</ele>
        <time>2022-06-02T03:08:43.000Z</time>
      </trkpt>
      <trkpt lat="45.20234" lon="5.72437">
        <ele>545</ele>
        <time>2022-06-02T03:08:44.000Z</time>
      </trkpt>
      <trkpt lat="45.20235" lon="5.72437">
        <ele>545.40002441406</ele>
        <time>2022-06-02T03:08:45.000Z</time>
      </trkpt>
      <trkpt lat="45.20235" lon="5.72438">
        <ele>545.59997558594</ele>
        <time>2022-06-02T03:08:46.000Z</time>
      </trkpt>
      <trkpt lat="45.20236" lon="5.72439">
        <ele>545.59997558594</ele>
        <time>2022-06-02T03:08:47.000Z</time>
      </trkpt>
      <trkpt lat="45.20237" lon="5.72439">
        <ele>546</ele>
        <time>2022-06-02T03:08:48.000Z</time>
      </trkpt>
      <trkpt lat="45.20239" lon="5.7244">
        <ele>546.40002441406</ele>
        <time>2022-06-02T03:08:49.000Z</time>
      </trkpt>
      <trkpt lat="45.2024" lon="5.72441">
        <ele>546.79998779297</ele>
        <time>2022-06-02T03:08:50.000Z</time>
      </trkpt>
      <trkpt lat="45.2024" lon="5.72441">
        <ele>546.79998779297</ele>
        <time>2022-06-02T03:08:51.000Z</time>
      </trkpt>
      <trkpt lat="45.20241" lon="5.72441">
        <ele>547</ele>
        <time>2022-06-02T03:08:52.000Z</time>
      </trkpt>
      <trkpt lat="45.20242" lon="5.72442">
        <ele>547</ele>
        <time>2022-06-02T03:08:53.000Z</time>
      </trkpt>
      <trkpt lat="45.20243" lon="5.72442">
        <ele>547.20001220703</ele>
        <time>2022-06-02T03:08:54.000Z</time>
      </trkpt>
      <trkpt lat="45.20244" lon="5.72443">
        <ele>547.40002441406</ele>
        <time>2022-06-02T03:08:55.000Z</time>
      </trkpt>
      <trkpt lat="45.20245" lon="5.72444">
        <ele>548</ele>
        <time>2022-06-02T03:08:56.000Z</time>
      </trkpt>
      <trkpt lat="45.20245" lon="5.72445">
        <ele>548</ele>
        <time>2022-06-02T03:08:57.000Z</time>
      </trkpt>
      <trkpt lat="45.20246" lon="5.72445">
        <ele>548</ele>
        <time>2022-06-02T03:08:58.000Z</time>
      </trkpt>
      <trkpt lat="45.20247" lon="5.72446">
        <ele>548.40002441406</ele>
        <time>2022-06-02T03:08:59.000Z</time>
      </trkpt>
      <trkpt lat="45.20248" lon="5.72446">
        <ele>548.59997558594</ele>
        <time>2022-06-02T03:09:00.000Z</time>
      </trkpt>
      <trkpt lat="45.20249" lon="5.72446">
        <ele>548.79998779297</ele>
        <time>2022-06-02T03:09:01.000Z</time>
      </trkpt>
      <trkpt lat="45.2025" lon="5.72446">
        <ele>549.20001220703</ele>
        <time>2022-06-02T03:09:02.000Z</time>
      </trkpt>
      <trkpt lat="45.20251" lon="5.72447">
        <ele>549.40002441406</ele>
        <time>2022-06-02T03:09:03.000Z</time>
      </trkpt>
      <trkpt lat="45.20252" lon="5.72447">
        <ele>549.59997558594</ele>
        <time>2022-06-02T03:09:04.000Z</time>
      </trkpt>
      <trkpt lat="45.20253" lon="5.72448">
        <ele>549.59997558594</ele>
        <time>2022-06-02T03:09:05.000Z</time>
      </trkpt>
      <trkpt lat="45.20254" lon="5.72449">
        <ele>550.20001220703</ele>
        <time>2022-06-02T03:09:06.000Z</time>
      </trkpt>
      <trkpt lat="45.20255" lon="5.7245">
        <ele>550.40002441406</ele>
        <time>2022-06-02T03:09:07.000Z</time>
      </trkpt>
      <trkpt lat="45.20256" lon="5.72451">
        <ele>550.59997558594</ele>
        <time>2022-06-02T03:09:08.000Z</time>
      </trkpt>
      <trkpt lat="45.20257" lon="5.72451">
        <ele>550.79998779297</ele>
        <time>2022-06-02T03:09:09.000Z</time>
      </trkpt>
      <trkpt lat="45.20259" lon="5.72451">
        <ele>551.20001220703</ele>
        <time>2022-06-02T03:09:10.000Z</time>
      </trkpt>
      <trkpt lat="45.2026" lon="5.7245">
        <ele>551.40002441406</ele>
        <time>2022-06-02T03:09:11.000Z</time>
      </trkpt>
      <trkpt lat="45.20261" lon="5.7245">
        <ele>552</ele>
        <time>2022-06-02T03:09:12.000Z</time>
      </trkpt>
      <trkpt lat="45.20262" lon="5.72449">
        <ele>552</ele>
        <time>2022-06-02T03:09:13.000Z</time>
      </trkpt>
      <trkpt lat="45.20263" lon="5.72449">
        <ele>552</ele>
        <time>2022-06-02T03:09:14.000Z</time>
      </trkpt>
      <trkpt lat="45.20264" lon="5.72448">
        <ele>552.79998779297</ele>
        <time>2022-06-02T03:09:15.000Z</time>
      </trkpt>
      <trkpt lat="45.20266" lon="5.72447">
        <ele>552.79998779297</ele>
        <time>2022-06-02T03:09:16.000Z</time>
      </trkpt>
      <trkpt lat="45.20267" lon="5.72446">
        <ele>553</ele>
        <time>2022-06-02T03:09:17.000Z</time>
      </trkpt>
      <trkpt lat="45.20268" lon="5.72445">
        <ele>553</ele>
        <time>2022-06-02T03:09:18.000Z</time>
      </trkpt>
      <trkpt lat="45.20269" lon="5.72445">
        <ele>553.40002441406</ele>
        <time>2022-06-02T03:09:19.000Z</time>
      </trkpt>
      <trkpt lat="45.2027" lon="5.72444">
        <ele>553.59997558594</ele>
        <time>2022-06-02T03:09:20.000Z</time>
      </trkpt>
      <trkpt lat="45.20271" lon="5.72444">
        <ele>553.79998779297</ele>
        <time>2022-06-02T03:09:21.000Z</time>
      </trkpt>
      <trkpt lat="45.20272" lon="5.72444">
        <ele>554</ele>
        <time>2022-06-02T03:09:22.000Z</time>
      </trkpt>
      <trkpt lat="45.20273" lon="5.72444">
        <ele>554.20001220703</ele>
        <time>2022-06-02T03:09:23.000Z</time>
      </trkpt>
      <trkpt lat="45.20274" lon="5.72443">
        <ele>554.40002441406</ele>
        <time>2022-06-02T03:09:24.000Z</time>
      </trkpt>
      <trkpt lat="45.20275" lon="5.72443">
        <ele>554.79998779297</ele>
        <time>2022-06-02T03:09:25.000Z</time>
      </trkpt>
      <trkpt lat="45.20277" lon="5.72443">
        <ele>554.79998779297</ele>
        <time>2022-06-02T03:09:26.000Z</time>
      </trkpt>
      <trkpt lat="45.20278" lon="5.72443">
        <ele>555.40002441406</ele>
        <time>2022-06-02T03:09:27.000Z</time>
      </trkpt>
      <trkpt lat="45.2028" lon="5.72443">
        <ele>555.40002441406</ele>
        <time>2022-06-02T03:09:28.000Z</time>
      </trkpt>
      <trkpt lat="45.20281" lon="5.72443">
        <ele>555.40002441406</ele>
        <time>2022-06-02T03:09:29.000Z</time>
      </trkpt>
      <trkpt lat="45.20282" lon="5.72443">
        <ele>556</ele>
        <time>2022-06-02T03:09:30.000Z</time>
      </trkpt>
      <trkpt lat="45.20283" lon="5.72442">
        <ele>556.20001220703</ele>
        <time>2022-06-02T03:09:31.000Z</time>
      </trkpt>
      <trkpt lat="45.20284" lon="5.72442">
        <ele>556.40002441406</ele>
        <time>2022-06-02T03:09:32.000Z</time>
      </trkpt>
      <trkpt lat="45.20285" lon="5.72442">
        <ele>556.59997558594</ele>
        <time>2022-06-02T03:09:33.000Z</time>
      </trkpt>
      <trkpt lat="45.20286" lon="5.72443">
        <ele>556.79998779297</ele>
        <time>2022-06-02T03:09:34.000Z</time>
      </trkpt>
      <trkpt lat="45.20287" lon="5.72443">
        <ele>556.79998779297</ele>
        <time>2022-06-02T03:09:35.000Z</time>
      </trkpt>
      <trkpt lat="45.20287" lon="5.72443">
        <ele>557.20001220703</ele>
        <time>2022-06-02T03:09:36.000Z</time>
      </trkpt>
      <trkpt lat="45.20288" lon="5.72443">
        <ele>557.40002441406</ele>
        <time>2022-06-02T03:09:37.000Z</time>
      </trkpt>
      <trkpt lat="45.20288" lon="5.72443">
        <ele>557.79998779297</ele>
        <time>2022-06-02T03:09:38.000Z</time>
      </trkpt>
      <trkpt lat="45.20289" lon="5.72443">
        <ele>557.79998779297</ele>
        <time>2022-06-02T03:09:39.000Z</time>
      </trkpt>
      <trkpt lat="45.20289" lon="5.72443">
        <ele>558</ele>
        <time>2022-06-02T03:09:40.000Z</time>
      </trkpt>
      <trkpt lat="45.20289" lon="5.72442">
        <ele>558.79998779297</ele>
        <time>2022-06-02T03:09:41.000Z</time>
      </trkpt>
      <trkpt lat="45.2029" lon="5.72442">
        <ele>558.79998779297</ele>
        <time>2022-06-02T03:09:42.000Z</time>
      </trkpt>
      <trkpt lat="45.2029" lon="5.72442">
        <ele>559.20001220703</ele>
        <time>2022-06-02T03:09:43.000Z</time>
      </trkpt>
      <trkpt lat="45.20291" lon="5.72441">
        <ele>559.40002441406</ele>
        <time>2022-06-02T03:09:44.000Z</time>
      </trkpt>
      <trkpt lat="45.20292" lon="5.72441">
        <ele>559.40002441406</ele>
        <time>2022-06-02T03:09:45.000Z</time>
      </trkpt>
      <trkpt lat="45.20293" lon="5.72441">
        <ele>560</ele>
        <time>2022-06-02T03:09:46.000Z</time>
      </trkpt>
      <trkpt lat="45.20293" lon="5.72441">
        <ele>560.20001220703</ele>
        <time>2022-06-02T03:09:47.000Z</time>
      </trkpt>
      <trkpt lat="45.20293" lon="5.72441">
        <ele>560.59997558594</ele>
        <time>2022-06-02T03:09:48.000Z</time>
      </trkpt>
      <trkpt lat="45.20294" lon="5.72442">
        <ele>560.79998779297</ele>
        <time>2022-06-02T03:09:49.000Z</time>
      </trkpt>
      <trkpt lat="45.20295" lon="5.72442">
        <ele>560.79998779297</ele>
        <time>2022-06-02T03:09:50.000Z</time>
      </trkpt>
      <trkpt lat="45.20295" lon="5.72443">
        <ele>561.20001220703</ele>
        <time>2022-06-02T03:09:51.000Z</time>
      </trkpt>
      <trkpt lat="45.20296" lon="5.72443">
        <ele>561.40002441406</ele>
        <time>2022-06-02T03:09:52.000Z</time>
      </trkpt>
      <trkpt lat="45.20296" lon="5.72443">
        <ele>561.59997558594</ele>
        <time>2022-06-02T03:09:53.000Z</time>
      </trkpt>
      <trkpt lat="45.20297" lon="5.72443">
        <ele>562</ele>
        <time>2022-06-02T03:09:54.000Z</time>
      </trkpt>
      <trkpt lat="45.20297" lon="5.72443">
        <ele>562.20001220703</ele>
        <time>2022-06-02T03:09:55.000Z</time>
      </trkpt>
      <trkpt lat="45.20297" lon="5.72443">
        <ele>562.59997558594</ele>
        <time>2022-06-02T03:09:56.000Z</time>
      </trkpt>
      <trkpt lat="45.20298" lon="5.72444">
        <ele>562.79998779297</ele>
        <time>2022-06-02T03:09:57.000Z</time>
      </trkpt>
      <trkpt lat="45.20299" lon="5.72445">
        <ele>563.20001220703</ele>
        <time>2022-06-02T03:09:58.000Z</time>
      </trkpt>
      <trkpt lat="45.203" lon="5.72446">
        <ele>563.20001220703</ele>
        <time>2022-06-02T03:09:59.000Z</time>
      </trkpt>
      <trkpt lat="45.203" lon="5.72447">
        <ele>563.59997558594</ele>
        <time>2022-06-02T03:10:00.000Z</time>
      </trkpt>
      <trkpt lat="45.20302" lon="5.72448">
        <ele>563.79998779297</ele>
        <time>2022-06-02T03:10:01.000Z</time>
      </trkpt>
      <trkpt lat="45.20303" lon="5.72449">
        <ele>564.40002441406</ele>
        <time>2022-06-02T03:10:02.000Z</time>
      </trkpt>
      <trkpt lat="45.20304" lon="5.72449">
        <ele>565</ele>
        <time>2022-06-02T03:10:03.000Z</time>
      </trkpt>
      <trkpt lat="45.20304" lon="5.72449">
        <ele>564.79998779297</ele>
        <time>2022-06-02T03:10:04.000Z</time>
      </trkpt>
      <trkpt lat="45.20305" lon="5.7245">
        <ele>565</ele>
        <time>2022-06-02T03:10:05.000Z</time>
      </trkpt>
      <trkpt lat="45.20305" lon="5.7245">
        <ele>565.40002441406</ele>
        <time>2022-06-02T03:10:06.000Z</time>
      </trkpt>
      <trkpt lat="45.20307" lon="5.7245">
        <ele>565.59997558594</ele>
        <time>2022-06-02T03:10:07.000Z</time>
      </trkpt>
      <trkpt lat="45.20308" lon="5.7245">
        <ele>565.79998779297</ele>
        <time>2022-06-02T03:10:08.000Z</time>
      </trkpt>
      <trkpt lat="45.20308" lon="5.72451">
        <ele>565.79998779297</ele>
        <time>2022-06-02T03:10:09.000Z</time>
      </trkpt>
      <trkpt lat="45.20309" lon="5.72451">
        <ele>566.40002441406</ele>
        <time>2022-06-02T03:10:10.000Z</time>
      </trkpt>
      <trkpt lat="45.2031" lon="5.72451">
        <ele>566.20001220703</ele>
        <time>2022-06-02T03:10:11.000Z</time>
      </trkpt>
      <trkpt lat="45.20311" lon="5.72451">
        <ele>566.79998779297</ele>
        <time>2022-06-02T03:10:12.000Z</time>
      </trkpt>
      <trkpt lat="45.20312" lon="5.72451">
        <ele>566.79998779297</ele>
        <time>2022-06-02T03:10:13.000Z</time>
      </trkpt>
      <trkpt lat="45.20312" lon="5.72451">
        <ele>566.79998779297</ele>
        <time>2022-06-02T03:10:14.000Z</time>
      </trkpt>
      <trkpt lat="45.20313" lon="5.72451">
        <ele>566.79998779297</ele>
        <time>2022-06-02T03:10:15.000Z</time>
      </trkpt>
      <trkpt lat="45.20314" lon="5.72451">
        <ele>567</ele>
        <time>2022-06-02T03:10:16.000Z</time>
      </trkpt>
      <trkpt lat="45.20314" lon="5.72451">
        <ele>567.20001220703</ele>
        <time>2022-06-02T03:10:17.000Z</time>
      </trkpt>
      <trkpt lat="45.20314" lon="5.7245">
        <ele>568</ele>
        <time>2022-06-02T03:10:18.000Z</time>
      </trkpt>
      <trkpt lat="45.20315" lon="5.7245">
        <ele>568.20001220703</ele>
        <time>2022-06-02T03:10:19.000Z</time>
      </trkpt>
      <trkpt lat="45.20315" lon="5.72449">
        <ele>568.40002441406</ele>
        <time>2022-06-02T03:10:20.000Z</time>
      </trkpt>
      <trkpt lat="45.20316" lon="5.72448">
        <ele>568.59997558594</ele>
        <time>2022-06-02T03:10:21.000Z</time>
      </trkpt>
      <trkpt lat="45.20317" lon="5.72447">
        <ele>568.59997558594</ele>
        <time>2022-06-02T03:10:22.000Z</time>
      </trkpt>
      <trkpt lat="45.20318" lon="5.72447">
        <ele>569</ele>
        <time>2022-06-02T03:10:23.000Z</time>
      </trkpt>
      <trkpt lat="45.20318" lon="5.72447">
        <ele>569.40002441406</ele>
        <time>2022-06-02T03:10:24.000Z</time>
      </trkpt>
      <trkpt lat="45.20319" lon="5.72447">
        <ele>569.59997558594</ele>
        <time>2022-06-02T03:10:25.000Z</time>
      </trkpt>
      <trkpt lat="45.20319" lon="5.72446">
        <ele>569.59997558594</ele>
        <time>2022-06-02T03:10:26.000Z</time>
      </trkpt>
      <trkpt lat="45.2032" lon="5.72446">
        <ele>569.79998779297</ele>
        <time>2022-06-02T03:10:27.000Z</time>
      </trkpt>
      <trkpt lat="45.20322" lon="5.72446">
        <ele>570</ele>
        <time>2022-06-02T03:10:28.000Z</time>
      </trkpt>
      <trkpt lat="45.20323" lon="5.72446">
        <ele>570.20001220703</ele>
        <time>2022-06-02T03:10:29.000Z</time>
      </trkpt>
      <trkpt lat="45.20323" lon="5.72446">
        <ele>570.59997558594</ele>
        <time>2022-06-02T03:10:30.000Z</time>
      </trkpt>
      <trkpt lat="45.20324" lon="5.72446">
        <ele>570.59997558594</ele>
        <time>2022-06-02T03:10:31.000Z</time>
      </trkpt>
      <trkpt lat="45.20325" lon="5.72446">
        <ele>570.79998779297</ele>
        <time>2022-06-02T03:10:32.000Z</time>
      </trkpt>
      <trkpt lat="45.20326" lon="5.72447">
        <ele>571</ele>
        <time>2022-06-02T03:10:33.000Z</time>
      </trkpt>
      <trkpt lat="45.20327" lon="5.72447">
        <ele>571.40002441406</ele>
        <time>2022-06-02T03:10:34.000Z</time>
      </trkpt>
      <trkpt lat="45.20328" lon="5.72448">
        <ele>571.79998779297</ele>
        <time>2022-06-02T03:10:35.000Z</time>
      </trkpt>
      <trkpt lat="45.20328" lon="5.72449">
        <ele>572</ele>
        <time>2022-06-02T03:10:36.000Z</time>
      </trkpt>
      <trkpt lat="45.20329" lon="5.7245">
        <ele>572.20001220703</ele>
        <time>2022-06-02T03:10:37.000Z</time>
      </trkpt>
      <trkpt lat="45.20329" lon="5.72451">
        <ele>572.40002441406</ele>
        <time>2022-06-02T03:10:38.000Z</time>
      </trkpt>
      <trkpt lat="45.20329" lon="5.72451">
        <ele>572.59997558594</ele>
        <time>2022-06-02T03:10:39.000Z</time>
      </trkpt>
      <trkpt lat="45.2033" lon="5.72452">
        <ele>572.79998779297</ele>
        <time>2022-06-02T03:10:40.000Z</time>
      </trkpt>
      <trkpt lat="45.20331" lon="5.72452">
        <ele>573.20001220703</ele>
        <time>2022-06-02T03:10:41.000Z</time>
      </trkpt>
      <trkpt lat="45.20332" lon="5.72453">
        <ele>573.40002441406</ele>
        <time>2022-06-02T03:10:42.000Z</time>
      </trkpt>
      <trkpt lat="45.20333" lon="5.72453">
        <ele>573.79998779297</ele>
        <time>2022-06-02T03:10:43.000Z</time>
      </trkpt>
      <trkpt lat="45.20333" lon="5.72452">
        <ele>573.79998779297</ele>
        <time>2022-06-02T03:10:44.000Z</time>
      </trkpt>
      <trkpt lat="45.20334" lon="5.72452">
        <ele>574</ele>
        <time>2022-06-02T03:10:45.000Z</time>
      </trkpt>
      <trkpt lat="45.20334" lon="5.72452">
        <ele>574.20001220703</ele>
        <time>2022-06-02T03:10:46.000Z</time>
      </trkpt>
      <trkpt lat="45.20334" lon="5.72452">
        <ele>574.40002441406</ele>
        <time>2022-06-02T03:10:47.000Z</time>
      </trkpt>
      <trkpt lat="45.20335" lon="5.72452">
        <ele>574.79998779297</ele>
        <time>2022-06-02T03:10:48.000Z</time>
      </trkpt>
      <trkpt lat="45.20335" lon="5.72452">
        <ele>575.40002441406</ele>
        <time>2022-06-02T03:10:49.000Z</time>
      </trkpt>
      <trkpt lat="45.20336" lon="5.72452">
        <ele>575.59997558594</ele>
        <time>2022-06-02T03:10:50.000Z</time>
      </trkpt>
      <trkpt lat="45.20336" lon="5.72453">
        <ele>575.59997558594</ele>
        <time>2022-06-02T03:10:51.000Z</time>
      </trkpt>
      <trkpt lat="45.20336" lon="5.72453">
        <ele>575.79998779297</ele>
        <time>2022-06-02T03:10:52.000Z</time>
      </trkpt>
      <trkpt lat="45.20337" lon="5.72453">
        <ele>576.20001220703</ele>
        <time>2022-06-02T03:10:53.000Z</time>
      </trkpt>
      <trkpt lat="45.20338" lon="5.72454">
        <ele>576.59997558594</ele>
        <time>2022-06-02T03:10:54.000Z</time>
      </trkpt>
      <trkpt lat="45.20339" lon="5.72453">
        <ele>576.40002441406</ele>
        <time>2022-06-02T03:10:55.000Z</time>
      </trkpt>
      <trkpt lat="45.20339" lon="5.72453">
        <ele>576.40002441406</ele>
        <time>2022-06-02T03:10:56.000Z</time>
      </trkpt>
      <trkpt lat="45.20341" lon="5.72452">
        <ele>577</ele>
        <time>2022-06-02T03:10:57.000Z</time>
      </trkpt>
      <trkpt lat="45.20342" lon="5.72452">
        <ele>577.40002441406</ele>
        <time>2022-06-02T03:10:58.000Z</time>
      </trkpt>
      <trkpt lat="45.20343" lon="5.72452">
        <ele>577.59997558594</ele>
        <time>2022-06-02T03:10:59.000Z</time>
      </trkpt>
      <trkpt lat="45.20344" lon="5.72451">
        <ele>578</ele>
        <time>2022-06-02T03:11:00.000Z</time>
      </trkpt>
      <trkpt lat="45.20345" lon="5.72451">
        <ele>578</ele>
        <time>2022-06-02T03:11:01.000Z</time>
      </trkpt>
      <trkpt lat="45.20345" lon="5.7245">
        <ele>578.40002441406</ele>
        <time>2022-06-02T03:11:02.000Z</time>
      </trkpt>
      <trkpt lat="45.20346" lon="5.7245">
        <ele>578.59997558594</ele>
        <time>2022-06-02T03:11:03.000Z</time>
      </trkpt>
      <trkpt lat="45.20346" lon="5.7245">
        <ele>578.79998779297</ele>
        <time>2022-06-02T03:11:04.000Z</time>
      </trkpt>
      <trkpt lat="45.20346" lon="5.7245">
        <ele>579.20001220703</ele>
        <time>2022-06-02T03:11:05.000Z</time>
      </trkpt>
      <trkpt lat="45.20347" lon="5.7245">
        <ele>579.59997558594</ele>
        <time>2022-06-02T03:11:06.000Z</time>
      </trkpt>
      <trkpt lat="45.20347" lon="5.7245">
        <ele>579.79998779297</ele>
        <time>2022-06-02T03:11:07.000Z</time>
      </trkpt>
      <trkpt lat="45.20348" lon="5.7245">
        <ele>579.79998779297</ele>
        <time>2022-06-02T03:11:08.000Z</time>
      </trkpt>
      <trkpt lat="45.20348" lon="5.7245">
        <ele>580.20001220703</ele>
        <time>2022-06-02T03:11:09.000Z</time>
      </trkpt>
      <trkpt lat="45.20349" lon="5.7245">
        <ele>580.59997558594</ele>
        <time>2022-06-02T03:11:10.000Z</time>
      </trkpt>
      <trkpt lat="45.20349" lon="5.7245">
        <ele>580.79998779297</ele>
        <time>2022-06-02T03:11:11.000Z</time>
      </trkpt>
      <trkpt lat="45.2035" lon="5.7245">
        <ele>581.20001220703</ele>
        <time>2022-06-02T03:11:12.000Z</time>
      </trkpt>
      <trkpt lat="45.20351" lon="5.7245">
        <ele>581.20001220703</ele>
        <time>2022-06-02T03:11:13.000Z</time>
      </trkpt>
      <trkpt lat="45.20351" lon="5.72449">
        <ele>581.59997558594</ele>
        <time>2022-06-02T03:11:14.000Z</time>
      </trkpt>
      <trkpt lat="45.20352" lon="5.72449">
        <ele>582</ele>
        <time>2022-06-02T03:11:15.000Z</time>
      </trkpt>
      <trkpt lat="45.20352" lon="5.72449">
        <ele>582</ele>
        <time>2022-06-02T03:11:16.000Z</time>
      </trkpt>
      <trkpt lat="45.20353" lon="5.72449">
        <ele>582</ele>
        <time>2022-06-02T03:11:17.000Z</time>
      </trkpt>
      <trkpt lat="45.20353" lon="5.72448">
        <ele>582.20001220703</ele>
        <time>2022-06-02T03:11:18.000Z</time>
      </trkpt>
      <trkpt lat="45.20354" lon="5.72448">
        <ele>582.59997558594</ele>
        <time>2022-06-02T03:11:19.000Z</time>
      </trkpt>
      <trkpt lat="45.20354" lon="5.72447">
        <ele>583</ele>
        <time>2022-06-02T03:11:20.000Z</time>
      </trkpt>
      <trkpt lat="45.20355" lon="5.72447">
        <ele>583</ele>
        <time>2022-06-02T03:11:21.000Z</time>
      </trkpt>
      <trkpt lat="45.20354" lon="5.72447">
        <ele>583.20001220703</ele>
        <time>2022-06-02T03:11:22.000Z</time>
      </trkpt>
      <trkpt lat="45.20355" lon="5.72447">
        <ele>583.40002441406</ele>
        <time>2022-06-02T03:11:23.000Z</time>
      </trkpt>
      <trkpt lat="45.20355" lon="5.72448">
        <ele>583.59997558594</ele>
        <time>2022-06-02T03:11:24.000Z</time>
      </trkpt>
      <trkpt lat="45.20355" lon="5.72448">
        <ele>583.40002441406</ele>
        <time>2022-06-02T03:11:25.000Z</time>
      </trkpt>
      <trkpt lat="45.20355" lon="5.72447">
        <ele>583.79998779297</ele>
        <time>2022-06-02T03:11:26.000Z</time>
      </trkpt>
      <trkpt lat="45.20356" lon="5.72448">
        <ele>583.79998779297</ele>
        <time>2022-06-02T03:11:27.000Z</time>
      </trkpt>
      <trkpt lat="45.20356" lon="5.72448">
        <ele>584</ele>
        <time>2022-06-02T03:11:28.000Z</time>
      </trkpt>
      <trkpt lat="45.20356" lon="5.72448">
        <ele>584.20001220703</ele>
        <time>2022-06-02T03:11:29.000Z</time>
      </trkpt>
      <trkpt lat="45.20357" lon="5.72448">
        <ele>584.79998779297</ele>
        <time>2022-06-02T03:11:30.000Z</time>
      </trkpt>
      <trkpt lat="45.20357" lon="5.72449">
        <ele>584.79998779297</ele>
        <time>2022-06-02T03:11:31.000Z</time>
      </trkpt>
      <trkpt lat="45.20358" lon="5.72449">
        <ele>585</ele>
        <time>2022-06-02T03:11:32.000Z</time>
      </trkpt>
      <trkpt lat="45.20358" lon="5.72449">
        <ele>585</ele>
        <time>2022-06-02T03:11:33.000Z</time>
      </trkpt>
      <trkpt lat="45.20358" lon="5.72449">
        <ele>585.20001220703</ele>
        <time>2022-06-02T03:11:34.000Z</time>
      </trkpt>
      <trkpt lat="45.20359" lon="5.7245">
        <ele>585.79998779297</ele>
        <time>2022-06-02T03:11:35.000Z</time>
      </trkpt>
      <trkpt lat="45.20359" lon="5.7245">
        <ele>586.59997558594</ele>
        <time>2022-06-02T03:11:36.000Z</time>
      </trkpt>
      <trkpt lat="45.20359" lon="5.7245">
        <ele>586.59997558594</ele>
        <time>2022-06-02T03:11:37.000Z</time>
      </trkpt>
      <trkpt lat="45.20359" lon="5.7245">
        <ele>586.59997558594</ele>
        <time>2022-06-02T03:11:38.000Z</time>
      </trkpt>
      <trkpt lat="45.20359" lon="5.72451">
        <ele>587</ele>
        <time>2022-06-02T03:11:39.000Z</time>
      </trkpt>
      <trkpt lat="45.2036" lon="5.72452">
        <ele>587.20001220703</ele>
        <time>2022-06-02T03:11:40.000Z</time>
      </trkpt>
      <trkpt lat="45.20361" lon="5.72452">
        <ele>587.59997558594</ele>
        <time>2022-06-02T03:11:41.000Z</time>
      </trkpt>
      <trkpt lat="45.2036" lon="5.72453">
        <ele>588.20001220703</ele>
        <time>2022-06-02T03:11:42.000Z</time>
      </trkpt>
      <trkpt lat="45.2036" lon="5.72453">
        <ele>588.20001220703</ele>
        <time>2022-06-02T03:11:43.000Z</time>
      </trkpt>
      <trkpt lat="45.2036" lon="5.72454">
        <ele>588.79998779297</ele>
        <time>2022-06-02T03:11:44.000Z</time>
      </trkpt>
      <trkpt lat="45.2036" lon="5.72454">
        <ele>589</ele>
        <time>2022-06-02T03:11:45.000Z</time>
      </trkpt>
      <trkpt lat="45.20361" lon="5.72454">
        <ele>589.20001220703</ele>
        <time>2022-06-02T03:11:46.000Z</time>
      </trkpt>
      <trkpt lat="45.20361" lon="5.72454">
        <ele>589.40002441406</ele>
        <time>2022-06-02T03:11:47.000Z</time>
      </trkpt>
      <trkpt lat="45.20362" lon="5.72455">
        <ele>589.59997558594</ele>
        <time>2022-06-02T03:11:48.000Z</time>
      </trkpt>
      <trkpt lat="45.20362" lon="5.72455">
        <ele>589.79998779297</ele>
        <time>2022-06-02T03:11:49.000Z</time>
      </trkpt>
      <trkpt lat="45.20362" lon="5.72455">
        <ele>589.79998779297</ele>
        <time>2022-06-02T03:11:50.000Z</time>
      </trkpt>
      <trkpt lat="45.20363" lon="5.72455">
        <ele>590.40002441406</ele>
        <time>2022-06-02T03:11:51.000Z</time>
      </trkpt>
      <trkpt lat="45.20364" lon="5.72456">
        <ele>590.40002441406</ele>
        <time>2022-06-02T03:11:52.000Z</time>
      </trkpt>
      <trkpt lat="45.20365" lon="5.72456">
        <ele>590.59997558594</ele>
        <time>2022-06-02T03:11:53.000Z</time>
      </trkpt>
      <trkpt lat="45.20365" lon="5.72456">
        <ele>590.79998779297</ele>
        <time>2022-06-02T03:11:54.000Z</time>
      </trkpt>
      <trkpt lat="45.20366" lon="5.72456">
        <ele>591.20001220703</ele>
        <time>2022-06-02T03:11:55.000Z</time>
      </trkpt>
      <trkpt lat="45.20366" lon="5.72456">
        <ele>591.40002441406</ele>
        <time>2022-06-02T03:11:56.000Z</time>
      </trkpt>
      <trkpt lat="45.20366" lon="5.72456">
        <ele>591.59997558594</ele>
        <time>2022-06-02T03:11:57.000Z</time>
      </trkpt>
      <trkpt lat="45.20367" lon="5.72456">
        <ele>592</ele>
        <time>2022-06-02T03:11:58.000Z</time>
      </trkpt>
      <trkpt lat="45.20367" lon="5.72455">
        <ele>592.20001220703</ele>
        <time>2022-06-02T03:11:59.000Z</time>
      </trkpt>
      <trkpt lat="45.20367" lon="5.72455">
        <ele>592.79998779297</ele>
        <time>2022-06-02T03:12:00.000Z</time>
      </trkpt>
      <trkpt lat="45.20368" lon="5.72455">
        <ele>592.59997558594</ele>
        <time>2022-06-02T03:12:01.000Z</time>
      </trkpt>
      <trkpt lat="45.20368" lon="5.72455">
        <ele>593</ele>
        <time>2022-06-02T03:12:02.000Z</time>
      </trkpt>
      <trkpt lat="45.2037" lon="5.72455">
        <ele>593</ele>
        <time>2022-06-02T03:12:03.000Z</time>
      </trkpt>
      <trkpt lat="45.2037" lon="5.72455">
        <ele>593.20001220703</ele>
        <time>2022-06-02T03:12:04.000Z</time>
      </trkpt>
      <trkpt lat="45.2037" lon="5.72455">
        <ele>593.79998779297</ele>
        <time>2022-06-02T03:12:05.000Z</time>
      </trkpt>
      <trkpt lat="45.2037" lon="5.72454">
        <ele>594.40002441406</ele>
        <time>2022-06-02T03:12:06.000Z</time>
      </trkpt>
      <trkpt lat="45.20371" lon="5.72454">
        <ele>594.59997558594</ele>
        <time>2022-06-02T03:12:07.000Z</time>
      </trkpt>
      <trkpt lat="45.20371" lon="5.72454">
        <ele>595</ele>
        <time>2022-06-02T03:12:08.000Z</time>
      </trkpt>
      <trkpt lat="45.20372" lon="5.72454">
        <ele>595</ele>
        <time>2022-06-02T03:12:09.000Z</time>
      </trkpt>
      <trkpt lat="45.20372" lon="5.72453">
        <ele>595</ele>
        <time>2022-06-02T03:12:10.000Z</time>
      </trkpt>
      <trkpt lat="45.20373" lon="5.72454">
        <ele>595.40002441406</ele>
        <time>2022-06-02T03:12:11.000Z</time>
      </trkpt>
      <trkpt lat="45.20373" lon="5.72453">
        <ele>595.59997558594</ele>
        <time>2022-06-02T03:12:12.000Z</time>
      </trkpt>
      <trkpt lat="45.20374" lon="5.72453">
        <ele>595.79998779297</ele>
        <time>2022-06-02T03:12:13.000Z</time>
      </trkpt>
      <trkpt lat="45.20374" lon="5.72453">
        <ele>596.20001220703</ele>
        <time>2022-06-02T03:12:14.000Z</time>
      </trkpt>
      <trkpt lat="45.20374" lon="5.72452">
        <ele>596.79998779297</ele>
        <time>2022-06-02T03:12:15.000Z</time>
      </trkpt>
      <trkpt lat="45.20375" lon="5.72452">
        <ele>597</ele>
        <time>2022-06-02T03:12:16.000Z</time>
      </trkpt>
      <trkpt lat="45.20375" lon="5.72452">
        <ele>597</ele>
        <time>2022-06-02T03:12:17.000Z</time>
      </trkpt>
      <trkpt lat="45.20376" lon="5.72452">
        <ele>597.20001220703</ele>
        <time>2022-06-02T03:12:18.000Z</time>
      </trkpt>
      <trkpt lat="45.20377" lon="5.72451">
        <ele>597.40002441406</ele>
        <time>2022-06-02T03:12:19.000Z</time>
      </trkpt>
      <trkpt lat="45.20378" lon="5.72452">
        <ele>597.40002441406</ele>
        <time>2022-06-02T03:12:20.000Z</time>
      </trkpt>
      <trkpt lat="45.20379" lon="5.72452">
        <ele>597.59997558594</ele>
        <time>2022-06-02T03:12:21.000Z</time>
      </trkpt>
      <trkpt lat="45.20379" lon="5.72452">
        <ele>597.79998779297</ele>
        <time>2022-06-02T03:12:22.000Z</time>
      </trkpt>
      <trkpt lat="45.2038" lon="5.72453">
        <ele>598.40002441406</ele>
        <time>2022-06-02T03:12:23.000Z</time>
      </trkpt>
      <trkpt lat="45.20381" lon="5.72454">
        <ele>598.40002441406</ele>
        <time>2022-06-02T03:12:24.000Z</time>
      </trkpt>
      <trkpt lat="45.20382" lon="5.72454">
        <ele>598.20001220703</ele>
        <time>2022-06-02T03:12:25.000Z</time>
      </trkpt>
      <trkpt lat="45.20383" lon="5.72455">
        <ele>598.79998779297</ele>
        <time>2022-06-02T03:12:26.000Z</time>
      </trkpt>
      <trkpt lat="45.20384" lon="5.72455">
        <ele>599</ele>
        <time>2022-06-02T03:12:27.000Z</time>
      </trkpt>
      <trkpt lat="45.20384" lon="5.72455">
        <ele>599.40002441406</ele>
        <time>2022-06-02T03:12:28.000Z</time>
      </trkpt>
      <trkpt lat="45.20385" lon="5.72455">
        <ele>599.79998779297</ele>
        <time>2022-06-02T03:12:29.000Z</time>
      </trkpt>
      <trkpt lat="45.20385" lon="5.72455">
        <ele>599.79998779297</ele>
        <time>2022-06-02T03:12:30.000Z</time>
      </trkpt>
      <trkpt lat="45.20386" lon="5.72456">
        <ele>600</ele>
        <time>2022-06-02T03:12:31.000Z</time>
      </trkpt>
      <trkpt lat="45.20386" lon="5.72456">
        <ele>600</ele>
        <time>2022-06-02T03:12:32.000Z</time>
      </trkpt>
      <trkpt lat="45.20387" lon="5.72456">
        <ele>600.20001220703</ele>
        <time>2022-06-02T03:12:33.000Z</time>
      </trkpt>
      <trkpt lat="45.20387" lon="5.72456">
        <ele>600.59997558594</ele>
        <time>2022-06-02T03:12:34.000Z</time>
      </trkpt>
      <trkpt lat="45.20387" lon="5.72456">
        <ele>600.59997558594</ele>
        <time>2022-06-02T03:12:35.000Z</time>
      </trkpt>
      <trkpt lat="45.20387" lon="5.72456">
        <ele>601.20001220703</ele>
        <time>2022-06-02T03:12:36.000Z</time>
      </trkpt>
      <trkpt lat="45.20388" lon="5.72455">
        <ele>601.20001220703</ele>
        <time>2022-06-02T03:12:37.000Z</time>
      </trkpt>
      <trkpt lat="45.20388" lon="5.72454">
        <ele>601.40002441406</ele>
        <time>2022-06-02T03:12:38.000Z</time>
      </trkpt>
      <trkpt lat="45.20388" lon="5.72453">
        <ele>601.79998779297</ele>
        <time>2022-06-02T03:12:39.000Z</time>
      </trkpt>
      <trkpt lat="45.20388" lon="5.72453">
        <ele>602</ele>
        <time>2022-06-02T03:12:40.000Z</time>
      </trkpt>
      <trkpt lat="45.20389" lon="5.72453">
        <ele>602.40002441406</ele>
        <time>2022-06-02T03:12:41.000Z</time>
      </trkpt>
      <trkpt lat="45.20389" lon="5.72452">
        <ele>602.79998779297</ele>
        <time>2022-06-02T03:12:42.000Z</time>
      </trkpt>
      <trkpt lat="45.2039" lon="5.72453">
        <ele>602.79998779297</ele>
        <time>2022-06-02T03:12:43.000Z</time>
      </trkpt>
      <trkpt lat="45.20391" lon="5.72453">
        <ele>602.79998779297</ele>
        <time>2022-06-02T03:12:44.000Z</time>
      </trkpt>
      <trkpt lat="45.20392" lon="5.72453">
        <ele>602.79998779297</ele>
        <time>2022-06-02T03:12:45.000Z</time>
      </trkpt>
      <trkpt lat="45.20392" lon="5.72453">
        <ele>602.79998779297</ele>
        <time>2022-06-02T03:12:46.000Z</time>
      </trkpt>
      <trkpt lat="45.20393" lon="5.72453">
        <ele>602.59997558594</ele>
        <time>2022-06-02T03:12:47.000Z</time>
      </trkpt>
      <trkpt lat="45.20393" lon="5.72453">
        <ele>602.79998779297</ele>
        <time>2022-06-02T03:12:48.000Z</time>
      </trkpt>
      <trkpt lat="45.20393" lon="5.72453">
        <ele>603</ele>
        <time>2022-06-02T03:12:49.000Z</time>
      </trkpt>
      <trkpt lat="45.20394" lon="5.72453">
        <ele>603</ele>
        <time>2022-06-02T03:12:50.000Z</time>
      </trkpt>
      <trkpt lat="45.20394" lon="5.72453">
        <ele>603.20001220703</ele>
        <time>2022-06-02T03:12:51.000Z</time>
      </trkpt>
      <trkpt lat="45.20395" lon="5.72453">
        <ele>603.40002441406</ele>
        <time>2022-06-02T03:12:52.000Z</time>
      </trkpt>
      <trkpt lat="45.20396" lon="5.72454">
        <ele>603.59997558594</ele>
        <time>2022-06-02T03:12:53.000Z</time>
      </trkpt>
      <trkpt lat="45.20396" lon="5.72454">
        <ele>604</ele>
        <time>2022-06-02T03:12:54.000Z</time>
      </trkpt>
      <trkpt lat="45.20396" lon="5.72454">
        <ele>604.20001220703</ele>
        <time>2022-06-02T03:12:55.000Z</time>
      </trkpt>
      <trkpt lat="45.20397" lon="5.72455">
        <ele>604.79998779297</ele>
        <time>2022-06-02T03:12:56.000Z</time>
      </trkpt>
      <trkpt lat="45.20398" lon="5.72455">
        <ele>604.79998779297</ele>
        <time>2022-06-02T03:12:57.000Z</time>
      </trkpt>
      <trkpt lat="45.20399" lon="5.72455">
        <ele>605.40002441406</ele>
        <time>2022-06-02T03:12:58.000Z</time>
      </trkpt>
      <trkpt lat="45.20399" lon="5.72455">
        <ele>605.40002441406</ele>
        <time>2022-06-02T03:12:59.000Z</time>
      </trkpt>
      <trkpt lat="45.204" lon="5.72455">
        <ele>605.79998779297</ele>
        <time>2022-06-02T03:13:00.000Z</time>
      </trkpt>
      <trkpt lat="45.204" lon="5.72455">
        <ele>606</ele>
        <time>2022-06-02T03:13:01.000Z</time>
      </trkpt>
      <trkpt lat="45.20401" lon="5.72455">
        <ele>606.40002441406</ele>
        <time>2022-06-02T03:13:02.000Z</time>
      </trkpt>
      <trkpt lat="45.20401" lon="5.72455">
        <ele>606.59997558594</ele>
        <time>2022-06-02T03:13:03.000Z</time>
      </trkpt>
      <trkpt lat="45.20401" lon="5.72455">
        <ele>606.59997558594</ele>
        <time>2022-06-02T03:13:04.000Z</time>
      </trkpt>
      <trkpt lat="45.20401" lon="5.72454">
        <ele>606.79998779297</ele>
        <time>2022-06-02T03:13:05.000Z</time>
      </trkpt>
      <trkpt lat="45.20401" lon="5.72454">
        <ele>606.79998779297</ele>
        <time>2022-06-02T03:13:06.000Z</time>
      </trkpt>
      <trkpt lat="45.20401" lon="5.72454">
        <ele>606.79998779297</ele>
        <time>2022-06-02T03:13:07.000Z</time>
      </trkpt>
      <trkpt lat="45.20401" lon="5.72453">
        <ele>606.79998779297</ele>
        <time>2022-06-02T03:13:08.000Z</time>
      </trkpt>
      <trkpt lat="45.204" lon="5.72454">
        <ele>607</ele>
        <time>2022-06-02T03:13:09.000Z</time>
      </trkpt>
      <trkpt lat="45.204" lon="5.72454">
        <ele>607</ele>
        <time>2022-06-02T03:13:10.000Z</time>
      </trkpt>
      <trkpt lat="45.204" lon="5.72454">
        <ele>607</ele>
        <time>2022-06-02T03:13:11.000Z</time>
      </trkpt>
      <trkpt lat="45.20399" lon="5.72454">
        <ele>607.20001220703</ele>
        <time>2022-06-02T03:13:12.000Z</time>
      </trkpt>
      <trkpt lat="45.20399" lon="5.72454">
        <ele>607.40002441406</ele>
        <time>2022-06-02T03:13:13.000Z</time>
      </trkpt>
      <trkpt lat="45.20399" lon="5.72454">
        <ele>600</ele>
        <time>2022-06-02T03:13:14.000Z</time>
      </trkpt>
      <trkpt lat="45.20399" lon="5.72453">
        <ele>607.79998779297</ele>
        <time>2022-06-02T03:13:15.000Z</time>
      </trkpt>
      <trkpt lat="45.20398" lon="5.72452">
        <ele>608.40002441406</ele>
        <time>2022-06-02T03:13:16.000Z</time>
      </trkpt>
      <trkpt lat="45.20398" lon="5.72452">
        <ele>608.40002441406</ele>
        <time>2022-06-02T03:13:17.000Z</time>
      </trkpt>
      <trkpt lat="45.20398" lon="5.72451">
        <ele>608.20001220703</ele>
        <time>2022-06-02T03:13:18.000Z</time>
      </trkpt>
      <trkpt lat="45.20397" lon="5.72451">
        <ele>608.20001220703</ele>
        <time>2022-06-02T03:13:19.000Z</time>
      </trkpt>
      <trkpt lat="45.20397" lon="5.72451">
        <ele>608.20001220703</ele>
        <time>2022-06-02T03:13:20.000Z</time>
      </trkpt>
      <trkpt lat="45.20396" lon="5.72451">
        <ele>608</ele>
        <time>2022-06-02T03:13:21.000Z</time>
      </trkpt>
      <trkpt lat="45.20396" lon="5.72451">
        <ele>608</ele>
        <time>2022-06-02T03:13:22.000Z</time>
      </trkpt>
      <trkpt lat="45.20395" lon="5.72451">
        <ele>607.79998779297</ele>
        <time>2022-06-02T03:13:23.000Z</time>
      </trkpt>
      <trkpt lat="45.20395" lon="5.72451">
        <ele>608</ele>
        <time>2022-06-02T03:13:24.000Z</time>
      </trkpt>
      <trkpt lat="45.20395" lon="5.72451">
        <ele>608.79998779297</ele>
        <time>2022-06-02T03:13:25.000Z</time>
      </trkpt>
      <trkpt lat="45.20394" lon="5.7245">
        <ele>608.79998779297</ele>
        <time>2022-06-02T03:13:26.000Z</time>
      </trkpt>
      <trkpt lat="45.20393" lon="5.7245">
        <ele>608.79998779297</ele>
        <time>2022-06-02T03:13:27.000Z</time>
      </trkpt>
      <trkpt lat="45.20393" lon="5.7245">
        <ele>609.20001220703</ele>
        <time>2022-06-02T03:13:28.000Z</time>
      </trkpt>
      <trkpt lat="45.20393" lon="5.72449">
        <ele>609.20001220703</ele>
        <time>2022-06-02T03:13:29.000Z</time>
      </trkpt>
      <trkpt lat="45.20392" lon="5.72449">
        <ele>609.20001220703</ele>
        <time>2022-06-02T03:13:30.000Z</time>
      </trkpt>
      <trkpt lat="45.20391" lon="5.72449">
        <ele>609.40002441406</ele>
        <time>2022-06-02T03:13:31.000Z</time>
      </trkpt>
      <trkpt lat="45.2039" lon="5.72448">
        <ele>609.20001220703</ele>
        <time>2022-06-02T03:13:32.000Z</time>
      </trkpt>
      <trkpt lat="45.20389" lon="5.72448">
        <ele>609.20001220703</ele>
        <time>2022-06-02T03:13:33.000Z</time>
      </trkpt>
      <trkpt lat="45.20388" lon="5.72447">
        <ele>609</ele>
        <time>2022-06-02T03:13:34.000Z</time>
      </trkpt>
      <trkpt lat="45.20388" lon="5.72445">
        <ele>608.59997558594</ele>
        <time>2022-06-02T03:13:35.000Z</time>
      </trkpt>
      <trkpt lat="45.20388" lon="5.72444">
        <ele>608.59997558594</ele>
        <time>2022-06-02T03:13:36.000Z</time>
      </trkpt>
      <trkpt lat="45.20388" lon="5.72443">
        <ele>608.79998779297</ele>
        <time>2022-06-02T03:13:37.000Z</time>
      </trkpt>
      <trkpt lat="45.20388" lon="5.72443">
        <ele>609</ele>
        <time>2022-06-02T03:13:38.000Z</time>
      </trkpt>
      <trkpt lat="45.20389" lon="5.72443">
        <ele>609</ele>
        <time>2022-06-02T03:13:39.000Z</time>
      </trkpt>
      <trkpt lat="45.20389" lon="5.72443">
        <ele>609</ele>
        <time>2022-06-02T03:13:40.000Z</time>
      </trkpt>
      <trkpt lat="45.20389" lon="5.72442">
        <ele>609.20001220703</ele>
        <time>2022-06-02T03:13:41.000Z</time>
      </trkpt>
      <trkpt lat="45.20388" lon="5.72442">
        <ele>609.20001220703</ele>
        <time>2022-06-02T03:13:42.000Z</time>
      </trkpt>
      <trkpt lat="45.20387" lon="5.72441">
        <ele>609.20001220703</ele>
        <time>2022-06-02T03:13:43.000Z</time>
      </trkpt>
      <trkpt lat="45.20386" lon="5.7244">
        <ele>609.40002441406</ele>
        <time>2022-06-02T03:13:44.000Z</time>
      </trkpt>
      <trkpt lat="45.20385" lon="5.72439">
        <ele>609.20001220703</ele>
        <time>2022-06-02T03:13:45.000Z</time>
      </trkpt>
      <trkpt lat="45.20384" lon="5.72439">
        <ele>608.79998779297</ele>
        <time>2022-06-02T03:13:46.000Z</time>
      </trkpt>
      <trkpt lat="45.20384" lon="5.72437">
        <ele>609</ele>
        <time>2022-06-02T03:13:47.000Z</time>
      </trkpt>
      <trkpt lat="45.20384" lon="5.72435">
        <ele>609</ele>
        <time>2022-06-02T03:13:48.000Z</time>
      </trkpt>
      <trkpt lat="45.20384" lon="5.72433">
        <ele>608.79998779297</ele>
        <time>2022-06-02T03:13:49.000Z</time>
      </trkpt>
      <trkpt lat="45.20385" lon="5.72432">
        <ele>608.59997558594</ele>
        <time>2022-06-02T03:13:50.000Z</time>
      </trkpt>
      <trkpt lat="45.20386" lon="5.72431">
        <ele>609</ele>
        <time>2022-06-02T03:13:51.000Z</time>
      </trkpt>
      <trkpt lat="45.20387" lon="5.7243">
        <ele>609.40002441406</ele>
        <time>2022-06-02T03:13:52.000Z</time>
      </trkpt>
      <trkpt lat="45.20388" lon="5.7243">
        <ele>609.40002441406</ele>
        <time>2022-06-02T03:13:53.000Z</time>
      </trkpt>
      <trkpt lat="45.20389" lon="5.72429">
        <ele>609.79998779297</ele>
        <time>2022-06-02T03:13:54.000Z</time>
      </trkpt>
      <trkpt lat="45.2039" lon="5.72429">
        <ele>609.79998779297</ele>
        <time>2022-06-02T03:13:55.000Z</time>
      </trkpt>
      <trkpt lat="45.20392" lon="5.72429">
        <ele>610.20001220703</ele>
        <time>2022-06-02T03:13:56.000Z</time>
      </trkpt>
      <trkpt lat="45.20393" lon="5.72429">
        <ele>610.20001220703</ele>
        <time>2022-06-02T03:13:57.000Z</time>
      </trkpt>
      <trkpt lat="45.20395" lon="5.72429">
        <ele>610.20001220703</ele>
        <time>2022-06-02T03:13:58.000Z</time>
      </trkpt>
      <trkpt lat="45.20396" lon="5.72429">
        <ele>610.59997558594</ele>
        <time>2022-06-02T03:13:59.000Z</time>
      </trkpt>
      <trkpt lat="45.20397" lon="5.72428">
        <ele>610.59997558594</ele>
        <time>2022-06-02T03:14:00.000Z</time>
      </trkpt>
      <trkpt lat="45.20399" lon="5.72428">
        <ele>610.59997558594</ele>
        <time>2022-06-02T03:14:01.000Z</time>
      </trkpt>
      <trkpt lat="45.204" lon="5.72428">
        <ele>610.59997558594</ele>
        <time>2022-06-02T03:14:02.000Z</time>
      </trkpt>
      <trkpt lat="45.20402" lon="5.72429">
        <ele>610.40002441406</ele>
        <time>2022-06-02T03:14:03.000Z</time>
      </trkpt>
      <trkpt lat="45.20402" lon="5.7243">
        <ele>610.79998779297</ele>
        <time>2022-06-02T03:14:04.000Z</time>
      </trkpt>
      <trkpt lat="45.20403" lon="5.72431">
        <ele>610.40002441406</ele>
        <time>2022-06-02T03:14:05.000Z</time>
      </trkpt>
      <trkpt lat="45.20403" lon="5.72431">
        <ele>610.40002441406</ele>
        <time>2022-06-02T03:14:06.000Z</time>
      </trkpt>
      <trkpt lat="45.20403" lon="5.72431">
        <ele>610.59997558594</ele>
        <time>2022-06-02T03:14:07.000Z</time>
      </trkpt>
      <trkpt lat="45.20403" lon="5.72431">
        <ele>610.40002441406</ele>
        <time>2022-06-02T03:14:08.000Z</time>
      </trkpt>
      <trkpt lat="45.20403" lon="5.72431">
        <ele>610.40002441406</ele>
        <time>2022-06-02T03:14:09.000Z</time>
      </trkpt>
      <trkpt lat="45.20403" lon="5.72431">
        <ele>610.59997558594</ele>
        <time>2022-06-02T03:14:10.000Z</time>
      </trkpt>
      <trkpt lat="45.20404" lon="5.72431">
        <ele>610.59997558594</ele>
        <time>2022-06-02T03:14:11.000Z</time>
      </trkpt>
      <trkpt lat="45.20404" lon="5.72431">
        <ele>610.59997558594</ele>
        <time>2022-06-02T03:14:12.000Z</time>
      </trkpt>
      <trkpt lat="45.20403" lon="5.72431">
        <ele>610.59997558594</ele>
        <time>2022-06-02T03:14:13.000Z</time>
      </trkpt>
      <trkpt lat="45.20403" lon="5.72431">
        <ele>610.59997558594</ele>
        <time>2022-06-02T03:14:14.000Z</time>
      </trkpt>
      <trkpt lat="45.20403" lon="5.72431">
        <ele>610.59997558594</ele>
        <time>2022-06-02T03:14:15.000Z</time>
      </trkpt>
      <trkpt lat="45.20403" lon="5.72431">
        <ele>610.40002441406</ele>
        <time>2022-06-02T03:14:16.000Z</time>
      </trkpt>
      <trkpt lat="45.20403" lon="5.72431">
        <ele>610.40002441406</ele>
        <time>2022-06-02T03:14:17.000Z</time>
      </trkpt>
      <trkpt lat="45.20403" lon="5.72431">
        <ele>610.40002441406</ele>
        <time>2022-06-02T03:14:18.000Z</time>
      </trkpt>
      <trkpt lat="45.20403" lon="5.72431">
        <ele>610.40002441406</ele>
        <time>2022-06-02T03:14:19.000Z</time>
      </trkpt>
      <trkpt lat="45.20403" lon="5.72431">
        <ele>610.40002441406</ele>
        <time>2022-06-02T03:14:20.000Z</time>
      </trkpt>
      <trkpt lat="45.20403" lon="5.72431">
        <ele>610.40002441406</ele>
        <time>2022-06-02T03:14:21.000Z</time>
      </trkpt>
      <trkpt lat="45.20403" lon="5.72431">
        <ele>610.40002441406</ele>
        <time>2022-06-02T03:14:22.000Z</time>
      </trkpt>
      <trkpt lat="45.20403" lon="5.72431">
        <ele>610.40002441406</ele>
        <time>2022-06-02T03:14:23.000Z</time>
      </trkpt>
      <trkpt lat="45.20403" lon="5.72431">
        <ele>610.40002441406</ele>
        <time>2022-06-02T03:14:24.000Z</time>
      </trkpt>
      <trkpt lat="45.20403" lon="5.72431">
        <ele>610.59997558594</ele>
        <time>2022-06-02T03:14:25.000Z</time>
      </trkpt>
      <trkpt lat="45.20403" lon="5.72431">
        <ele>610.40002441406</ele>
        <time>2022-06-02T03:14:26.000Z</time>
      </trkpt>
      <trkpt lat="45.20403" lon="5.72431">
        <ele>610.20001220703</ele>
        <time>2022-06-02T03:14:27.000Z</time>
      </trkpt>
      <trkpt lat="45.20402" lon="5.72432">
        <ele>610.40002441406</ele>
        <time>2022-06-02T03:14:28.000Z</time>
      </trkpt>
      <trkpt lat="45.20402" lon="5.72432">
        <ele>610.40002441406</ele>
        <time>2022-06-02T03:14:29.000Z</time>
      </trkpt>
      <trkpt lat="45.20402" lon="5.72432">
        <ele>610.40002441406</ele>
        <time>2022-06-02T03:14:30.000Z</time>
      </trkpt>
      <trkpt lat="45.20402" lon="5.72432">
        <ele>610.40002441406</ele>
        <time>2022-06-02T03:14:31.000Z</time>
      </trkpt>
      <trkpt lat="45.20402" lon="5.72432">
        <ele>610.40002441406</ele>
        <time>2022-06-02T03:14:32.000Z</time>
      </trkpt>
      <trkpt lat="45.20402" lon="5.72432">
        <ele>610.59997558594</ele>
        <time>2022-06-02T03:14:33.000Z</time>
      </trkpt>
      <trkpt lat="45.20402" lon="5.72432">
        <ele>610.59997558594</ele>
        <time>2022-06-02T03:14:34.000Z</time>
      </trkpt>
      <trkpt lat="45.20402" lon="5.72432">
        <ele>610.40002441406</ele>
        <time>2022-06-02T03:14:35.000Z</time>
      </trkpt>
      <trkpt lat="45.20402" lon="5.72432">
        <ele>610.40002441406</ele>
        <time>2022-06-02T03:14:36.000Z</time>
      </trkpt>
      <trkpt lat="45.20402" lon="5.72432">
        <ele>610.40002441406</ele>
        <time>2022-06-02T03:14:37.000Z</time>
      </trkpt>
      <trkpt lat="45.20402" lon="5.72432">
        <ele>610.40002441406</ele>
        <time>2022-06-02T03:14:38.000Z</time>
      </trkpt>
      <trkpt lat="45.20402" lon="5.72432">
        <ele>610.40002441406</ele>
        <time>2022-06-02T03:14:39.000Z</time>
      </trkpt>
      <trkpt lat="45.20402" lon="5.72432">
        <ele>610.40002441406</ele>
        <time>2022-06-02T03:14:40.000Z</time>
      </trkpt>
      <trkpt lat="45.20402" lon="5.72432">
        <ele>610.40002441406</ele>
        <time>2022-06-02T03:14:41.000Z</time>
      </trkpt>
      <trkpt lat="45.20402" lon="5.72432">
        <ele>610.40002441406</ele>
        <time>2022-06-02T03:14:42.000Z</time>
      </trkpt>
      <trkpt lat="45.20402" lon="5.72432">
        <ele>610.20001220703</ele>
        <time>2022-06-02T03:14:43.000Z</time>
      </trkpt>
      <trkpt lat="45.20402" lon="5.72432">
        <ele>610.20001220703</ele>
        <time>2022-06-02T03:14:44.000Z</time>
      </trkpt>
      <trkpt lat="45.20402" lon="5.72432">
        <ele>610.20001220703</ele>
        <time>2022-06-02T03:14:45.000Z</time>
      </trkpt>
      <trkpt lat="45.20402" lon="5.72432">
        <ele>610</ele>
        <time>2022-06-02T03:14:46.000Z</time>
      </trkpt>
      <trkpt lat="45.20402" lon="5.72432">
        <ele>610</ele>
        <time>2022-06-02T03:14:47.000Z</time>
      </trkpt>
      <trkpt lat="45.20402" lon="5.72432">
        <ele>610</ele>
        <time>2022-06-02T03:14:48.000Z</time>
      </trkpt>
      <trkpt lat="45.20402" lon="5.72432">
        <ele>610.20001220703</ele>
        <time>2022-06-02T03:14:49.000Z</time>
      </trkpt>
      <trkpt lat="45.20402" lon="5.72432">
        <ele>610.20001220703</ele>
        <time>2022-06-02T03:14:50.000Z</time>
      </trkpt>
      <trkpt lat="45.20402" lon="5.72432">
        <ele>610</ele>
        <time>2022-06-02T03:14:51.000Z</time>
      </trkpt>
      <trkpt lat="45.20402" lon="5.72432">
        <ele>610</ele>
        <time>2022-06-02T03:14:52.000Z</time>
      </trkpt>
      <trkpt lat="45.20402" lon="5.72432">
        <ele>610</ele>
        <time>2022-06-02T03:14:53.000Z</time>
      </trkpt>
      <trkpt lat="45.20402" lon="5.72432">
        <ele>610</ele>
        <time>2022-06-02T03:14:54.000Z</time>
      </trkpt>
      <trkpt lat="45.20402" lon="5.72432">
        <ele>610.20001220703</ele>
        <time>2022-06-02T03:14:55.000Z</time>
      </trkpt>
      <trkpt lat="45.20402" lon="5.72432">
        <ele>610.20001220703</ele>
        <time>2022-06-02T03:14:56.000Z</time>
      </trkpt>
      <trkpt lat="45.20402" lon="5.72432">
        <ele>610.20001220703</ele>
        <time>2022-06-02T03:14:57.000Z</time>
      </trkpt>
      <trkpt lat="45.20402" lon="5.72432">
        <ele>610</ele>
        <time>2022-06-02T03:14:58.000Z</time>
      </trkpt>
      <trkpt lat="45.20402" lon="5.72432">
        <ele>610.20001220703</ele>
        <time>2022-06-02T03:14:59.000Z</time>
      </trkpt>
      <trkpt lat="45.20402" lon="5.72432">
        <ele>610.20001220703</ele>
        <time>2022-06-02T03:15:00.000Z</time>
      </trkpt>
      <trkpt lat="45.20402" lon="5.72431">
        <ele>610.20001220703</ele>
        <time>2022-06-02T03:15:01.000Z</time>
      </trkpt>
      <trkpt lat="45.20402" lon="5.72431">
        <ele>610</ele>
        <time>2022-06-02T03:15:02.000Z</time>
      </trkpt>
      <trkpt lat="45.20402" lon="5.72431">
        <ele>610</ele>
        <time>2022-06-02T03:15:03.000Z</time>
      </trkpt>
      <trkpt lat="45.20402" lon="5.72431">
        <ele>610</ele>
        <time>2022-06-02T03:15:04.000Z</time>
      </trkpt>
      <trkpt lat="45.20402" lon="5.72431">
        <ele>610</ele>
        <time>2022-06-02T03:15:05.000Z</time>
      </trkpt>
      <trkpt lat="45.20402" lon="5.72431">
        <ele>610.20001220703</ele>
        <time>2022-06-02T03:15:06.000Z</time>
      </trkpt>
      <trkpt lat="45.20402" lon="5.72431">
        <ele>610</ele>
        <time>2022-06-02T03:15:07.000Z</time>
      </trkpt>
      <trkpt lat="45.20402" lon="5.72431">
        <ele>610</ele>
        <time>2022-06-02T03:15:08.000Z</time>
      </trkpt>
      <trkpt lat="45.20402" lon="5.72431">
        <ele>610</ele>
        <time>2022-06-02T03:15:09.000Z</time>
      </trkpt>
      <trkpt lat="45.20402" lon="5.72431">
        <ele>610.20001220703</ele>
        <time>2022-06-02T03:15:10.000Z</time>
      </trkpt>
      <trkpt lat="45.20402" lon="5.72431">
        <ele>610</ele>
        <time>2022-06-02T03:15:11.000Z</time>
      </trkpt>
      <trkpt lat="45.20403" lon="5.72431">
        <ele>610</ele>
        <time>2022-06-02T03:15:12.000Z</time>
      </trkpt>
      <trkpt lat="45.20403" lon="5.72431">
        <ele>610</ele>
        <time>2022-06-02T03:15:13.000Z</time>
      </trkpt>
      <trkpt lat="45.20403" lon="5.72431">
        <ele>610</ele>
        <time>2022-06-02T03:15:14.000Z</time>
      </trkpt>
      <trkpt lat="45.20403" lon="5.72432">
        <ele>610</ele>
        <time>2022-06-02T03:15:15.000Z</time>
      </trkpt>
      <trkpt lat="45.20403" lon="5.72432">
        <ele>610</ele>
        <time>2022-06-02T03:15:16.000Z</time>
      </trkpt>
      <trkpt lat="45.20403" lon="5.72432">
        <ele>610</ele>
        <time>2022-06-02T03:15:17.000Z</time>
      </trkpt>
      <trkpt lat="45.20403" lon="5.72432">
        <ele>610</ele>
        <time>2022-06-02T03:15:18.000Z</time>
      </trkpt>
      <trkpt lat="45.20402" lon="5.72432">
        <ele>609.79998779297</ele>
        <time>2022-06-02T03:15:19.000Z</time>
      </trkpt>
      <trkpt lat="45.20402" lon="5.72432">
        <ele>610</ele>
        <time>2022-06-02T03:15:20.000Z</time>
      </trkpt>
      <trkpt lat="45.20402" lon="5.72432">
        <ele>610</ele>
        <time>2022-06-02T03:15:21.000Z</time>
      </trkpt>
      <trkpt lat="45.20402" lon="5.72432">
        <ele>609.79998779297</ele>
        <time>2022-06-02T03:15:22.000Z</time>
      </trkpt>
      <trkpt lat="45.20402" lon="5.72432">
        <ele>609.79998779297</ele>
        <time>2022-06-02T03:15:23.000Z</time>
      </trkpt>
      <trkpt lat="45.20402" lon="5.72432">
        <ele>609.79998779297</ele>
        <time>2022-06-02T03:15:24.000Z</time>
      </trkpt>
      <trkpt lat="45.20402" lon="5.72432">
        <ele>609.59997558594</ele>
        <time>2022-06-02T03:15:25.000Z</time>
      </trkpt>
      <trkpt lat="45.20402" lon="5.72432">
        <ele>609.59997558594</ele>
        <time>2022-06-02T03:15:26.000Z</time>
      </trkpt>
      <trkpt lat="45.20403" lon="5.72432">
        <ele>609.79998779297</ele>
        <time>2022-06-02T03:15:27.000Z</time>
      </trkpt>
      <trkpt lat="45.20403" lon="5.72432">
        <ele>609.79998779297</ele>
        <time>2022-06-02T03:15:28.000Z</time>
      </trkpt>
      <trkpt lat="45.20403" lon="5.72432">
        <ele>609.79998779297</ele>
        <time>2022-06-02T03:15:29.000Z</time>
      </trkpt>
      <trkpt lat="45.20403" lon="5.72432">
        <ele>609.59997558594</ele>
        <time>2022-06-02T03:15:30.000Z</time>
      </trkpt>
      <trkpt lat="45.20403" lon="5.72432">
        <ele>609.59997558594</ele>
        <time>2022-06-02T03:15:31.000Z</time>
      </trkpt>
      <trkpt lat="45.20403" lon="5.72432">
        <ele>609.59997558594</ele>
        <time>2022-06-02T03:15:32.000Z</time>
      </trkpt>
      <trkpt lat="45.20403" lon="5.72432">
        <ele>609.59997558594</ele>
        <time>2022-06-02T03:15:33.000Z</time>
      </trkpt>
      <trkpt lat="45.20403" lon="5.72432">
        <ele>609.59997558594</ele>
        <time>2022-06-02T03:15:34.000Z</time>
      </trkpt>
      <trkpt lat="45.20403" lon="5.72432">
        <ele>609.79998779297</ele>
        <time>2022-06-02T03:15:35.000Z</time>
      </trkpt>
      <trkpt lat="45.20403" lon="5.72432">
        <ele>609.79998779297</ele>
        <time>2022-06-02T03:15:36.000Z</time>
      </trkpt>
      <trkpt lat="45.20403" lon="5.72432">
        <ele>609.79998779297</ele>
        <time>2022-06-02T03:15:37.000Z</time>
      </trkpt>
      <trkpt lat="45.20403" lon="5.72432">
        <ele>609.79998779297</ele>
        <time>2022-06-02T03:15:38.000Z</time>
      </trkpt>
      <trkpt lat="45.20403" lon="5.72432">
        <ele>609.59997558594</ele>
        <time>2022-06-02T03:15:39.000Z</time>
      </trkpt>
      <trkpt lat="45.20403" lon="5.72432">
        <ele>609.59997558594</ele>
        <time>2022-06-02T03:15:40.000Z</time>
      </trkpt>
      <trkpt lat="45.20403" lon="5.72432">
        <ele>609.59997558594</ele>
        <time>2022-06-02T03:15:41.000Z</time>
      </trkpt>
      <trkpt lat="45.20402" lon="5.72432">
        <ele>609.59997558594</ele>
        <time>2022-06-02T03:15:42.000Z</time>
      </trkpt>
      <trkpt lat="45.20402" lon="5.72433">
        <ele>609.59997558594</ele>
        <time>2022-06-02T03:15:43.000Z</time>
      </trkpt>
      <trkpt lat="45.20402" lon="5.72433">
        <ele>609.59997558594</ele>
        <time>2022-06-02T03:15:44.000Z</time>
      </trkpt>
      <trkpt lat="45.20402" lon="5.72433">
        <ele>609.79998779297</ele>
        <time>2022-06-02T03:15:45.000Z</time>
      </trkpt>
      <trkpt lat="45.20402" lon="5.72433">
        <ele>609.79998779297</ele>
        <time>2022-06-02T03:15:46.000Z</time>
      </trkpt>
      <trkpt lat="45.20402" lon="5.72433">
        <ele>609.59997558594</ele>
        <time>2022-06-02T03:15:47.000Z</time>
      </trkpt>
      <trkpt lat="45.20402" lon="5.72432">
        <ele>609.59997558594</ele>
        <time>2022-06-02T03:15:48.000Z</time>
      </trkpt>
      <trkpt lat="45.20402" lon="5.72432">
        <ele>609.79998779297</ele>
        <time>2022-06-02T03:15:49.000Z</time>
      </trkpt>
      <trkpt lat="45.20402" lon="5.72432">
        <ele>609.79998779297</ele>
        <time>2022-06-02T03:15:50.000Z</time>
      </trkpt>
      <trkpt lat="45.20402" lon="5.72432">
        <ele>609.59997558594</ele>
        <time>2022-06-02T03:15:51.000Z</time>
      </trkpt>
      <trkpt lat="45.20402" lon="5.72432">
        <ele>609.59997558594</ele>
        <time>2022-06-02T03:15:52.000Z</time>
      </trkpt>
      <trkpt lat="45.20402" lon="5.72432">
        <ele>609.40002441406</ele>
        <time>2022-06-02T03:15:53.000Z</time>
      </trkpt>
      <trkpt lat="45.20402" lon="5.72432">
        <ele>609.40002441406</ele>
        <time>2022-06-02T03:15:54.000Z</time>
      </trkpt>
      <trkpt lat="45.20402" lon="5.72432">
        <ele>609.59997558594</ele>
        <time>2022-06-02T03:15:55.000Z</time>
      </trkpt>
      <trkpt lat="45.20402" lon="5.72432">
        <ele>609.59997558594</ele>
        <time>2022-06-02T03:15:56.000Z</time>
      </trkpt>
      <trkpt lat="45.20402" lon="5.72432">
        <ele>609.59997558594</ele>
        <time>2022-06-02T03:15:57.000Z</time>
      </trkpt>
      <trkpt lat="45.20402" lon="5.72432">
        <ele>609.59997558594</ele>
        <time>2022-06-02T03:15:58.000Z</time>
      </trkpt>
      <trkpt lat="45.20402" lon="5.72432">
        <ele>609.59997558594</ele>
        <time>2022-06-02T03:15:59.000Z</time>
      </trkpt>
      <trkpt lat="45.20402" lon="5.72432">
        <ele>609.59997558594</ele>
        <time>2022-06-02T03:16:00.000Z</time>
      </trkpt>
      <trkpt lat="45.20402" lon="5.72432">
        <ele>609.59997558594</ele>
        <time>2022-06-02T03:16:01.000Z</time>
      </trkpt>
      <trkpt lat="45.20402" lon="5.72432">
        <ele>609.59997558594</ele>
        <time>2022-06-02T03:16:02.000Z</time>
      </trkpt>
      <trkpt lat="45.20402" lon="5.72432">
        <ele>609.79998779297</ele>
        <time>2022-06-02T03:16:03.000Z</time>
      </trkpt>
      <trkpt lat="45.20402" lon="5.72432">
        <ele>609.59997558594</ele>
        <time>2022-06-02T03:16:04.000Z</time>
      </trkpt>
      <trkpt lat="45.20402" lon="5.72432">
        <ele>609.59997558594</ele>
        <time>2022-06-02T03:16:05.000Z</time>
      </trkpt>
      <trkpt lat="45.20402" lon="5.72432">
        <ele>609.59997558594</ele>
        <time>2022-06-02T03:16:06.000Z</time>
      </trkpt>
      <trkpt lat="45.20402" lon="5.72432">
        <ele>609.59997558594</ele>
        <time>2022-06-02T03:16:07.000Z</time>
      </trkpt>
      <trkpt lat="45.20402" lon="5.72432">
        <ele>609.59997558594</ele>
        <time>2022-06-02T03:16:08.000Z</time>
      </trkpt>
      <trkpt lat="45.20402" lon="5.72432">
        <ele>609.59997558594</ele>
        <time>2022-06-02T03:16:09.000Z</time>
      </trkpt>
      <trkpt lat="45.20402" lon="5.72432">
        <ele>609.40002441406</ele>
        <time>2022-06-02T03:16:10.000Z</time>
      </trkpt>
      <trkpt lat="45.20402" lon="5.72432">
        <ele>609.40002441406</ele>
        <time>2022-06-02T03:16:11.000Z</time>
      </trkpt>
      <trkpt lat="45.20402" lon="5.72432">
        <ele>609.40002441406</ele>
        <time>2022-06-02T03:16:12.000Z</time>
      </trkpt>
      <trkpt lat="45.20402" lon="5.72432">
        <ele>609.59997558594</ele>
        <time>2022-06-02T03:16:13.000Z</time>
      </trkpt>
      <trkpt lat="45.20402" lon="5.72432">
        <ele>609.59997558594</ele>
        <time>2022-06-02T03:16:14.000Z</time>
      </trkpt>
      <trkpt lat="45.20402" lon="5.72432">
        <ele>609.40002441406</ele>
        <time>2022-06-02T03:16:15.000Z</time>
      </trkpt>
      <trkpt lat="45.20402" lon="5.72432">
        <ele>609.59997558594</ele>
        <time>2022-06-02T03:16:16.000Z</time>
      </trkpt>
      <trkpt lat="45.20402" lon="5.72433">
        <ele>609.59997558594</ele>
        <time>2022-06-02T03:16:17.000Z</time>
      </trkpt>
      <trkpt lat="45.20402" lon="5.72433">
        <ele>609.40002441406</ele>
        <time>2022-06-02T03:16:18.000Z</time>
      </trkpt>
      <trkpt lat="45.20402" lon="5.72433">
        <ele>609.59997558594</ele>
        <time>2022-06-02T03:16:19.000Z</time>
      </trkpt>
      <trkpt lat="45.20402" lon="5.72433">
        <ele>609.59997558594</ele>
        <time>2022-06-02T03:16:20.000Z</time>
      </trkpt>
      <trkpt lat="45.20402" lon="5.72433">
        <ele>609.59997558594</ele>
        <time>2022-06-02T03:16:21.000Z</time>
      </trkpt>
      <trkpt lat="45.20402" lon="5.72433">
        <ele>609.59997558594</ele>
        <time>2022-06-02T03:16:22.000Z</time>
      </trkpt>
      <trkpt lat="45.20402" lon="5.72433">
        <ele>609.40002441406</ele>
        <time>2022-06-02T03:16:23.000Z</time>
      </trkpt>
      <trkpt lat="45.20402" lon="5.72433">
        <ele>609.40002441406</ele>
        <time>2022-06-02T03:16:24.000Z</time>
      </trkpt>
      <trkpt lat="45.20402" lon="5.72433">
        <ele>609.59997558594</ele>
        <time>2022-06-02T03:16:25.000Z</time>
      </trkpt>
      <trkpt lat="45.20402" lon="5.72433">
        <ele>609.40002441406</ele>
        <time>2022-06-02T03:16:26.000Z</time>
      </trkpt>
      <trkpt lat="45.20402" lon="5.72432">
        <ele>609.40002441406</ele>
        <time>2022-06-02T03:16:27.000Z</time>
      </trkpt>
      <trkpt lat="45.20402" lon="5.72432">
        <ele>609.59997558594</ele>
        <time>2022-06-02T03:16:28.000Z</time>
      </trkpt>
      <trkpt lat="45.20402" lon="5.72432">
        <ele>609.59997558594</ele>
        <time>2022-06-02T03:16:29.000Z</time>
      </trkpt>
      <trkpt lat="45.20402" lon="5.72432">
        <ele>609.59997558594</ele>
        <time>2022-06-02T03:16:30.000Z</time>
      </trkpt>
      <trkpt lat="45.20402" lon="5.72432">
        <ele>609.40002441406</ele>
        <time>2022-06-02T03:16:31.000Z</time>
      </trkpt>
      <trkpt lat="45.20402" lon="5.72432">
        <ele>609.40002441406</ele>
        <time>2022-06-02T03:16:32.000Z</time>
      </trkpt>
      <trkpt lat="45.20402" lon="5.72432">
        <ele>609.79998779297</ele>
        <time>2022-06-02T03:16:33.000Z</time>
      </trkpt>
      <trkpt lat="45.20402" lon="5.72432">
        <ele>609.40002441406</ele>
        <time>2022-06-02T03:16:34.000Z</time>
      </trkpt>
      <trkpt lat="45.20402" lon="5.72432">
        <ele>609.20001220703</ele>
        <time>2022-06-02T03:16:35.000Z</time>
      </trkpt>
      <trkpt lat="45.20402" lon="5.72432">
        <ele>609.59997558594</ele>
        <time>2022-06-02T03:16:36.000Z</time>
      </trkpt>
      <trkpt lat="45.20403" lon="5.72432">
        <ele>609.40002441406</ele>
        <time>2022-06-02T03:16:37.000Z</time>
      </trkpt>
      <trkpt lat="45.20403" lon="5.72432">
        <ele>609.40002441406</ele>
        <time>2022-06-02T03:16:38.000Z</time>
      </trkpt>
      <trkpt lat="45.20403" lon="5.72432">
        <ele>609.40002441406</ele>
        <time>2022-06-02T03:16:39.000Z</time>
      </trkpt>
      <trkpt lat="45.20403" lon="5.72432">
        <ele>609.20001220703</ele>
        <time>2022-06-02T03:16:40.000Z</time>
      </trkpt>
      <trkpt lat="45.20403" lon="5.72432">
        <ele>609.20001220703</ele>
        <time>2022-06-02T03:16:41.000Z</time>
      </trkpt>
      <trkpt lat="45.20402" lon="5.72432">
        <ele>609.20001220703</ele>
        <time>2022-06-02T03:16:42.000Z</time>
      </trkpt>
      <trkpt lat="45.20402" lon="5.72432">
        <ele>609.20001220703</ele>
        <time>2022-06-02T03:16:43.000Z</time>
      </trkpt>
      <trkpt lat="45.20402" lon="5.72432">
        <ele>609.20001220703</ele>
        <time>2022-06-02T03:16:44.000Z</time>
      </trkpt>
      <trkpt lat="45.20402" lon="5.72432">
        <ele>609.40002441406</ele>
        <time>2022-06-02T03:16:45.000Z</time>
      </trkpt>
      <trkpt lat="45.20402" lon="5.72432">
        <ele>609.59997558594</ele>
        <time>2022-06-02T03:16:46.000Z</time>
      </trkpt>
      <trkpt lat="45.20402" lon="5.72432">
        <ele>609.40002441406</ele>
        <time>2022-06-02T03:16:47.000Z</time>
      </trkpt>
      <trkpt lat="45.20402" lon="5.72432">
        <ele>609.40002441406</ele>
        <time>2022-06-02T03:16:48.000Z</time>
      </trkpt>
      <trkpt lat="45.20402" lon="5.72432">
        <ele>609.40002441406</ele>
        <time>2022-06-02T03:16:49.000Z</time>
      </trkpt>
      <trkpt lat="45.20402" lon="5.72432">
        <ele>609.20001220703</ele>
        <time>2022-06-02T03:16:50.000Z</time>
      </trkpt>
      <trkpt lat="45.20402" lon="5.72432">
        <ele>609.40002441406</ele>
        <time>2022-06-02T03:16:51.000Z</time>
      </trkpt>
      <trkpt lat="45.20402" lon="5.72433">
        <ele>609.40002441406</ele>
        <time>2022-06-02T03:16:52.000Z</time>
      </trkpt>
      <trkpt lat="45.20402" lon="5.72433">
        <ele>609.40002441406</ele>
        <time>2022-06-02T03:16:53.000Z</time>
      </trkpt>
      <trkpt lat="45.20402" lon="5.72433">
        <ele>609.59997558594</ele>
        <time>2022-06-02T03:16:54.000Z</time>
      </trkpt>
      <trkpt lat="45.20402" lon="5.72433">
        <ele>609.40002441406</ele>
        <time>2022-06-02T03:16:55.000Z</time>
      </trkpt>
      <trkpt lat="45.20402" lon="5.72432">
        <ele>609.40002441406</ele>
        <time>2022-06-02T03:16:56.000Z</time>
      </trkpt>
      <trkpt lat="45.20402" lon="5.72432">
        <ele>609.20001220703</ele>
        <time>2022-06-02T03:16:57.000Z</time>
      </trkpt>
      <trkpt lat="45.20402" lon="5.72432">
        <ele>609</ele>
        <time>2022-06-02T03:16:58.000Z</time>
      </trkpt>
      <trkpt lat="45.20402" lon="5.72432">
        <ele>608.79998779297</ele>
        <time>2022-06-02T03:16:59.000Z</time>
      </trkpt>
      <trkpt lat="45.20402" lon="5.72431">
        <ele>609.20001220703</ele>
        <time>2022-06-02T03:17:00.000Z</time>
      </trkpt>
      <trkpt lat="45.20401" lon="5.7243">
        <ele>609.20001220703</ele>
        <time>2022-06-02T03:17:01.000Z</time>
      </trkpt>
      <trkpt lat="45.20401" lon="5.7243">
        <ele>609.40002441406</ele>
        <time>2022-06-02T03:17:02.000Z</time>
      </trkpt>
      <trkpt lat="45.204" lon="5.72429">
        <ele>609</ele>
        <time>2022-06-02T03:17:03.000Z</time>
      </trkpt>
      <trkpt lat="45.204" lon="5.72428">
        <ele>609.20001220703</ele>
        <time>2022-06-02T03:17:04.000Z</time>
      </trkpt>
      <trkpt lat="45.204" lon="5.72428">
        <ele>609.20001220703</ele>
        <time>2022-06-02T03:17:05.000Z</time>
      </trkpt>
      <trkpt lat="45.204" lon="5.72427">
        <ele>609.40002441406</ele>
        <time>2022-06-02T03:17:06.000Z</time>
      </trkpt>
      <trkpt lat="45.204" lon="5.72427">
        <ele>609.40002441406</ele>
        <time>2022-06-02T03:17:07.000Z</time>
      </trkpt>
      <trkpt lat="45.204" lon="5.72427">
        <ele>609.40002441406</ele>
        <time>2022-06-02T03:17:08.000Z</time>
      </trkpt>
      <trkpt lat="45.204" lon="5.72427">
        <ele>609.40002441406</ele>
        <time>2022-06-02T03:17:09.000Z</time>
      </trkpt>
      <trkpt lat="45.204" lon="5.72427">
        <ele>609.59997558594</ele>
        <time>2022-06-02T03:17:10.000Z</time>
      </trkpt>
      <trkpt lat="45.204" lon="5.72427">
        <ele>609.40002441406</ele>
        <time>2022-06-02T03:17:11.000Z</time>
      </trkpt>
      <trkpt lat="45.204" lon="5.72426">
        <ele>609.20001220703</ele>
        <time>2022-06-02T03:17:12.000Z</time>
      </trkpt>
      <trkpt lat="45.20399" lon="5.72425">
        <ele>609.40002441406</ele>
        <time>2022-06-02T03:17:13.000Z</time>
      </trkpt>
      <trkpt lat="45.20399" lon="5.72425">
        <ele>609.40002441406</ele>
        <time>2022-06-02T03:17:14.000Z</time>
      </trkpt>
      <trkpt lat="45.20398" lon="5.72423">
        <ele>609.20001220703</ele>
        <time>2022-06-02T03:17:15.000Z</time>
      </trkpt>
      <trkpt lat="45.20397" lon="5.72421">
        <ele>609.20001220703</ele>
        <time>2022-06-02T03:17:16.000Z</time>
      </trkpt>
      <trkpt lat="45.20396" lon="5.72419">
        <ele>609.40002441406</ele>
        <time>2022-06-02T03:17:17.000Z</time>
      </trkpt>
      <trkpt lat="45.20395" lon="5.72417">
        <ele>609.59997558594</ele>
        <time>2022-06-02T03:17:18.000Z</time>
      </trkpt>
      <trkpt lat="45.20393" lon="5.72416">
        <ele>610</ele>
        <time>2022-06-02T03:17:19.000Z</time>
      </trkpt>
      <trkpt lat="45.20392" lon="5.72417">
        <ele>610</ele>
        <time>2022-06-02T03:17:20.000Z</time>
      </trkpt>
      <trkpt lat="45.2039" lon="5.72419">
        <ele>609.40002441406</ele>
        <time>2022-06-02T03:17:21.000Z</time>
      </trkpt>
      <trkpt lat="45.20389" lon="5.72422">
        <ele>609.20001220703</ele>
        <time>2022-06-02T03:17:22.000Z</time>
      </trkpt>
      <trkpt lat="45.20388" lon="5.72423">
        <ele>608.79998779297</ele>
        <time>2022-06-02T03:17:23.000Z</time>
      </trkpt>
      <trkpt lat="45.20387" lon="5.72424">
        <ele>608.40002441406</ele>
        <time>2022-06-02T03:17:24.000Z</time>
      </trkpt>
      <trkpt lat="45.20386" lon="5.72424">
        <ele>608.20001220703</ele>
        <time>2022-06-02T03:17:25.000Z</time>
      </trkpt>
      <trkpt lat="45.20385" lon="5.72424">
        <ele>607.79998779297</ele>
        <time>2022-06-02T03:17:26.000Z</time>
      </trkpt>
      <trkpt lat="45.20384" lon="5.72424">
        <ele>607.59997558594</ele>
        <time>2022-06-02T03:17:27.000Z</time>
      </trkpt>
      <trkpt lat="45.20383" lon="5.72424">
        <ele>607.40002441406</ele>
        <time>2022-06-02T03:17:28.000Z</time>
      </trkpt>
      <trkpt lat="45.20383" lon="5.72423">
        <ele>607.20001220703</ele>
        <time>2022-06-02T03:17:29.000Z</time>
      </trkpt>
      <trkpt lat="45.20382" lon="5.72422">
        <ele>606.79998779297</ele>
        <time>2022-06-02T03:17:30.000Z</time>
      </trkpt>
      <trkpt lat="45.20381" lon="5.72421">
        <ele>606.79998779297</ele>
        <time>2022-06-02T03:17:31.000Z</time>
      </trkpt>
      <trkpt lat="45.20381" lon="5.7242">
        <ele>606.20001220703</ele>
        <time>2022-06-02T03:17:32.000Z</time>
      </trkpt>
      <trkpt lat="45.2038" lon="5.72419">
        <ele>606</ele>
        <time>2022-06-02T03:17:33.000Z</time>
      </trkpt>
      <trkpt lat="45.2038" lon="5.72417">
        <ele>605.40002441406</ele>
        <time>2022-06-02T03:17:34.000Z</time>
      </trkpt>
      <trkpt lat="45.20379" lon="5.72416">
        <ele>605.20001220703</ele>
        <time>2022-06-02T03:17:35.000Z</time>
      </trkpt>
      <trkpt lat="45.20379" lon="5.72415">
        <ele>605.20001220703</ele>
        <time>2022-06-02T03:17:36.000Z</time>
      </trkpt>
      <trkpt lat="45.20379" lon="5.72413">
        <ele>604.79998779297</ele>
        <time>2022-06-02T03:17:37.000Z</time>
      </trkpt>
      <trkpt lat="45.20379" lon="5.72411">
        <ele>604.40002441406</ele>
        <time>2022-06-02T03:17:38.000Z</time>
      </trkpt>
      <trkpt lat="45.20378" lon="5.72408">
        <ele>604.20001220703</ele>
        <time>2022-06-02T03:17:39.000Z</time>
      </trkpt>
      <trkpt lat="45.20377" lon="5.72406">
        <ele>604</ele>
        <time>2022-06-02T03:17:40.000Z</time>
      </trkpt>
      <trkpt lat="45.20377" lon="5.72403">
        <ele>604</ele>
        <time>2022-06-02T03:17:41.000Z</time>
      </trkpt>
      <trkpt lat="45.20378" lon="5.72401">
        <ele>604</ele>
        <time>2022-06-02T03:17:42.000Z</time>
      </trkpt>
      <trkpt lat="45.20379" lon="5.72398">
        <ele>603.79998779297</ele>
        <time>2022-06-02T03:17:43.000Z</time>
      </trkpt>
      <trkpt lat="45.20381" lon="5.72395">
        <ele>603.79998779297</ele>
        <time>2022-06-02T03:17:44.000Z</time>
      </trkpt>
      <trkpt lat="45.20383" lon="5.72393">
        <ele>604.20001220703</ele>
        <time>2022-06-02T03:17:45.000Z</time>
      </trkpt>
      <trkpt lat="45.20385" lon="5.72391">
        <ele>604.40002441406</ele>
        <time>2022-06-02T03:17:46.000Z</time>
      </trkpt>
      <trkpt lat="45.20387" lon="5.7239">
        <ele>604.40002441406</ele>
        <time>2022-06-02T03:17:47.000Z</time>
      </trkpt>
      <trkpt lat="45.20389" lon="5.72389">
        <ele>604.79998779297</ele>
        <time>2022-06-02T03:17:48.000Z</time>
      </trkpt>
      <trkpt lat="45.20391" lon="5.72389">
        <ele>604.20001220703</ele>
        <time>2022-06-02T03:17:49.000Z</time>
      </trkpt>
      <trkpt lat="45.20394" lon="5.72388">
        <ele>604.40002441406</ele>
        <time>2022-06-02T03:17:50.000Z</time>
      </trkpt>
      <trkpt lat="45.20397" lon="5.72388">
        <ele>604.79998779297</ele>
        <time>2022-06-02T03:17:51.000Z</time>
      </trkpt>
      <trkpt lat="45.204" lon="5.72387">
        <ele>604.20001220703</ele>
        <time>2022-06-02T03:17:52.000Z</time>
      </trkpt>
      <trkpt lat="45.20403" lon="5.72387">
        <ele>604.40002441406</ele>
        <time>2022-06-02T03:17:53.000Z</time>
      </trkpt>
      <trkpt lat="45.20405" lon="5.72387">
        <ele>604.40002441406</ele>
        <time>2022-06-02T03:17:54.000Z</time>
      </trkpt>
      <trkpt lat="45.20408" lon="5.72387">
        <ele>604.40002441406</ele>
        <time>2022-06-02T03:17:55.000Z</time>
      </trkpt>
      <trkpt lat="45.2041" lon="5.72388">
        <ele>604.40002441406</ele>
        <time>2022-06-02T03:17:56.000Z</time>
      </trkpt>
      <trkpt lat="45.20413" lon="5.72388">
        <ele>604.79998779297</ele>
        <time>2022-06-02T03:17:57.000Z</time>
      </trkpt>
      <trkpt lat="45.20416" lon="5.7239">
        <ele>604.20001220703</ele>
        <time>2022-06-02T03:17:58.000Z</time>
      </trkpt>
      <trkpt lat="45.20419" lon="5.72391">
        <ele>604.20001220703</ele>
        <time>2022-06-02T03:17:59.000Z</time>
      </trkpt>
      <trkpt lat="45.20422" lon="5.72392">
        <ele>604.59997558594</ele>
        <time>2022-06-02T03:18:00.000Z</time>
      </trkpt>
      <trkpt lat="45.20424" lon="5.72394">
        <ele>604.40002441406</ele>
        <time>2022-06-02T03:18:01.000Z</time>
      </trkpt>
      <trkpt lat="45.20427" lon="5.72395">
        <ele>604.59997558594</ele>
        <time>2022-06-02T03:18:02.000Z</time>
      </trkpt>
      <trkpt lat="45.20429" lon="5.72396">
        <ele>604.59997558594</ele>
        <time>2022-06-02T03:18:03.000Z</time>
      </trkpt>
      <trkpt lat="45.20432" lon="5.72398">
        <ele>604.59997558594</ele>
        <time>2022-06-02T03:18:04.000Z</time>
      </trkpt>
      <trkpt lat="45.20434" lon="5.72399">
        <ele>605</ele>
        <time>2022-06-02T03:18:05.000Z</time>
      </trkpt>
      <trkpt lat="45.20436" lon="5.724">
        <ele>605.20001220703</ele>
        <time>2022-06-02T03:18:06.000Z</time>
      </trkpt>
      <trkpt lat="45.20438" lon="5.724">
        <ele>605.20001220703</ele>
        <time>2022-06-02T03:18:07.000Z</time>
      </trkpt>
      <trkpt lat="45.20439" lon="5.72401">
        <ele>605.40002441406</ele>
        <time>2022-06-02T03:18:08.000Z</time>
      </trkpt>
      <trkpt lat="45.20441" lon="5.72402">
        <ele>605.59997558594</ele>
        <time>2022-06-02T03:18:09.000Z</time>
      </trkpt>
      <trkpt lat="45.20442" lon="5.72403">
        <ele>605.79998779297</ele>
        <time>2022-06-02T03:18:10.000Z</time>
      </trkpt>
      <trkpt lat="45.20443" lon="5.72404">
        <ele>606.40002441406</ele>
        <time>2022-06-02T03:18:11.000Z</time>
      </trkpt>
      <trkpt lat="45.20445" lon="5.72405">
        <ele>606.59997558594</ele>
        <time>2022-06-02T03:18:12.000Z</time>
      </trkpt>
      <trkpt lat="45.20447" lon="5.72406">
        <ele>606.59997558594</ele>
        <time>2022-06-02T03:18:13.000Z</time>
      </trkpt>
      <trkpt lat="45.20449" lon="5.72407">
        <ele>607.59997558594</ele>
        <time>2022-06-02T03:18:14.000Z</time>
      </trkpt>
      <trkpt lat="45.20451" lon="5.72408">
        <ele>607.59997558594</ele>
        <time>2022-06-02T03:18:15.000Z</time>
      </trkpt>
      <trkpt lat="45.20452" lon="5.72409">
        <ele>607.79998779297</ele>
        <time>2022-06-02T03:18:16.000Z</time>
      </trkpt>
      <trkpt lat="45.20454" lon="5.72411">
        <ele>608.40002441406</ele>
        <time>2022-06-02T03:18:17.000Z</time>
      </trkpt>
      <trkpt lat="45.20457" lon="5.72413">
        <ele>608</ele>
        <time>2022-06-02T03:18:18.000Z</time>
      </trkpt>
      <trkpt lat="45.20458" lon="5.72416">
        <ele>608</ele>
        <time>2022-06-02T03:18:19.000Z</time>
      </trkpt>
      <trkpt lat="45.2046" lon="5.72419">
        <ele>608.59997558594</ele>
        <time>2022-06-02T03:18:20.000Z</time>
      </trkpt>
      <trkpt lat="45.20462" lon="5.72421">
        <ele>609</ele>
        <time>2022-06-02T03:18:21.000Z</time>
      </trkpt>
      <trkpt lat="45.20463" lon="5.72423">
        <ele>608.79998779297</ele>
        <time>2022-06-02T03:18:22.000Z</time>
      </trkpt>
      <trkpt lat="45.20465" lon="5.72426">
        <ele>608.59997558594</ele>
        <time>2022-06-02T03:18:23.000Z</time>
      </trkpt>
      <trkpt lat="45.20466" lon="5.72428">
        <ele>609</ele>
        <time>2022-06-02T03:18:24.000Z</time>
      </trkpt>
      <trkpt lat="45.20467" lon="5.72432">
        <ele>609.20001220703</ele>
        <time>2022-06-02T03:18:25.000Z</time>
      </trkpt>
      <trkpt lat="45.20469" lon="5.72435">
        <ele>609.59997558594</ele>
        <time>2022-06-02T03:18:26.000Z</time>
      </trkpt>
      <trkpt lat="45.2047" lon="5.72438">
        <ele>609.59997558594</ele>
        <time>2022-06-02T03:18:27.000Z</time>
      </trkpt>
      <trkpt lat="45.20471" lon="5.72441">
        <ele>609.59997558594</ele>
        <time>2022-06-02T03:18:28.000Z</time>
      </trkpt>
      <trkpt lat="45.20472" lon="5.72445">
        <ele>609.20001220703</ele>
        <time>2022-06-02T03:18:29.000Z</time>
      </trkpt>
      <trkpt lat="45.20472" lon="5.72448">
        <ele>609.20001220703</ele>
        <time>2022-06-02T03:18:30.000Z</time>
      </trkpt>
      <trkpt lat="45.20473" lon="5.7245">
        <ele>608.79998779297</ele>
        <time>2022-06-02T03:18:31.000Z</time>
      </trkpt>
      <trkpt lat="45.20473" lon="5.72453">
        <ele>608.79998779297</ele>
        <time>2022-06-02T03:18:32.000Z</time>
      </trkpt>
      <trkpt lat="45.20474" lon="5.72455">
        <ele>608.40002441406</ele>
        <time>2022-06-02T03:18:33.000Z</time>
      </trkpt>
      <trkpt lat="45.20475" lon="5.72456">
        <ele>607.59997558594</ele>
        <time>2022-06-02T03:18:34.000Z</time>
      </trkpt>
      <trkpt lat="45.20475" lon="5.72458">
        <ele>607.59997558594</ele>
        <time>2022-06-02T03:18:35.000Z</time>
      </trkpt>
      <trkpt lat="45.20475" lon="5.7246">
        <ele>607.40002441406</ele>
        <time>2022-06-02T03:18:36.000Z</time>
      </trkpt>
      <trkpt lat="45.20476" lon="5.72462">
        <ele>607.20001220703</ele>
        <time>2022-06-02T03:18:37.000Z</time>
      </trkpt>
      <trkpt lat="45.20476" lon="5.72464">
        <ele>607.59997558594</ele>
        <time>2022-06-02T03:18:38.000Z</time>
      </trkpt>
      <trkpt lat="45.20476" lon="5.72467">
        <ele>606.79998779297</ele>
        <time>2022-06-02T03:18:39.000Z</time>
      </trkpt>
      <trkpt lat="45.20476" lon="5.72469">
        <ele>606.79998779297</ele>
        <time>2022-06-02T03:18:40.000Z</time>
      </trkpt>
      <trkpt lat="45.20476" lon="5.72472">
        <ele>605.59997558594</ele>
        <time>2022-06-02T03:18:41.000Z</time>
      </trkpt>
      <trkpt lat="45.20477" lon="5.72475">
        <ele>605.59997558594</ele>
        <time>2022-06-02T03:18:42.000Z</time>
      </trkpt>
      <trkpt lat="45.20477" lon="5.72478">
        <ele>605.59997558594</ele>
        <time>2022-06-02T03:18:43.000Z</time>
      </trkpt>
      <trkpt lat="45.20477" lon="5.72481">
        <ele>605</ele>
        <time>2022-06-02T03:18:44.000Z</time>
      </trkpt>
      <trkpt lat="45.20478" lon="5.72485">
        <ele>605</ele>
        <time>2022-06-02T03:18:45.000Z</time>
      </trkpt>
      <trkpt lat="45.20478" lon="5.72488">
        <ele>604.59997558594</ele>
        <time>2022-06-02T03:18:46.000Z</time>
      </trkpt>
      <trkpt lat="45.20479" lon="5.72492">
        <ele>604.40002441406</ele>
        <time>2022-06-02T03:18:47.000Z</time>
      </trkpt>
      <trkpt lat="45.2048" lon="5.72496">
        <ele>605</ele>
        <time>2022-06-02T03:18:48.000Z</time>
      </trkpt>
      <trkpt lat="45.20481" lon="5.72499">
        <ele>604.59997558594</ele>
        <time>2022-06-02T03:18:49.000Z</time>
      </trkpt>
      <trkpt lat="45.20482" lon="5.72503">
        <ele>604.59997558594</ele>
        <time>2022-06-02T03:18:50.000Z</time>
      </trkpt>
      <trkpt lat="45.20483" lon="5.72507">
        <ele>605</ele>
        <time>2022-06-02T03:18:51.000Z</time>
      </trkpt>
      <trkpt lat="45.20483" lon="5.7251">
        <ele>605</ele>
        <time>2022-06-02T03:18:52.000Z</time>
      </trkpt>
      <trkpt lat="45.20484" lon="5.72514">
        <ele>605.20001220703</ele>
        <time>2022-06-02T03:18:53.000Z</time>
      </trkpt>
      <trkpt lat="45.20484" lon="5.72518">
        <ele>605.20001220703</ele>
        <time>2022-06-02T03:18:54.000Z</time>
      </trkpt>
      <trkpt lat="45.20484" lon="5.72522">
        <ele>605.40002441406</ele>
        <time>2022-06-02T03:18:55.000Z</time>
      </trkpt>
      <trkpt lat="45.20483" lon="5.72526">
        <ele>605</ele>
        <time>2022-06-02T03:18:56.000Z</time>
      </trkpt>
      <trkpt lat="45.20483" lon="5.72528">
        <ele>604.59997558594</ele>
        <time>2022-06-02T03:18:57.000Z</time>
      </trkpt>
      <trkpt lat="45.20483" lon="5.7253">
        <ele>604.59997558594</ele>
        <time>2022-06-02T03:18:58.000Z</time>
      </trkpt>
      <trkpt lat="45.20483" lon="5.72532">
        <ele>604.20001220703</ele>
        <time>2022-06-02T03:18:59.000Z</time>
      </trkpt>
      <trkpt lat="45.20484" lon="5.72534">
        <ele>604.20001220703</ele>
        <time>2022-06-02T03:19:00.000Z</time>
      </trkpt>
      <trkpt lat="45.20485" lon="5.72536">
        <ele>603.79998779297</ele>
        <time>2022-06-02T03:19:01.000Z</time>
      </trkpt>
      <trkpt lat="45.20486" lon="5.72539">
        <ele>603</ele>
        <time>2022-06-02T03:19:02.000Z</time>
      </trkpt>
      <trkpt lat="45.20487" lon="5.72541">
        <ele>603.40002441406</ele>
        <time>2022-06-02T03:19:03.000Z</time>
      </trkpt>
      <trkpt lat="45.20487" lon="5.72544">
        <ele>603.20001220703</ele>
        <time>2022-06-02T03:19:04.000Z</time>
      </trkpt>
      <trkpt lat="45.20488" lon="5.72546">
        <ele>602.40002441406</ele>
        <time>2022-06-02T03:19:05.000Z</time>
      </trkpt>
      <trkpt lat="45.20489" lon="5.72547">
        <ele>602.40002441406</ele>
        <time>2022-06-02T03:19:06.000Z</time>
      </trkpt>
      <trkpt lat="45.20489" lon="5.72549">
        <ele>602.20001220703</ele>
        <time>2022-06-02T03:19:07.000Z</time>
      </trkpt>
      <trkpt lat="45.2049" lon="5.72551">
        <ele>601.79998779297</ele>
        <time>2022-06-02T03:19:08.000Z</time>
      </trkpt>
      <trkpt lat="45.2049" lon="5.72553">
        <ele>601.40002441406</ele>
        <time>2022-06-02T03:19:09.000Z</time>
      </trkpt>
      <trkpt lat="45.20491" lon="5.72556">
        <ele>601.20001220703</ele>
        <time>2022-06-02T03:19:10.000Z</time>
      </trkpt>
      <trkpt lat="45.20491" lon="5.72558">
        <ele>600.59997558594</ele>
        <time>2022-06-02T03:19:11.000Z</time>
      </trkpt>
      <trkpt lat="45.20492" lon="5.72561">
        <ele>600.59997558594</ele>
        <time>2022-06-02T03:19:12.000Z</time>
      </trkpt>
      <trkpt lat="45.20492" lon="5.72563">
        <ele>600</ele>
        <time>2022-06-02T03:19:13.000Z</time>
      </trkpt>
      <trkpt lat="45.20491" lon="5.72565">
        <ele>599.59997558594</ele>
        <time>2022-06-02T03:19:14.000Z</time>
      </trkpt>
      <trkpt lat="45.20489" lon="5.72566">
        <ele>599.59997558594</ele>
        <time>2022-06-02T03:19:15.000Z</time>
      </trkpt>
      <trkpt lat="45.20486" lon="5.72565">
        <ele>599.20001220703</ele>
        <time>2022-06-02T03:19:16.000Z</time>
      </trkpt>
      <trkpt lat="45.20483" lon="5.72564">
        <ele>599.40002441406</ele>
        <time>2022-06-02T03:19:17.000Z</time>
      </trkpt>
      <trkpt lat="45.20481" lon="5.72563">
        <ele>599</ele>
        <time>2022-06-02T03:19:18.000Z</time>
      </trkpt>
      <trkpt lat="45.20479" lon="5.72561">
        <ele>599</ele>
        <time>2022-06-02T03:19:19.000Z</time>
      </trkpt>
      <trkpt lat="45.20477" lon="5.72559">
        <ele>599</ele>
        <time>2022-06-02T03:19:20.000Z</time>
      </trkpt>
      <trkpt lat="45.20475" lon="5.72557">
        <ele>597.79998779297</ele>
        <time>2022-06-02T03:19:21.000Z</time>
      </trkpt>
      <trkpt lat="45.20473" lon="5.72555">
        <ele>598.20001220703</ele>
        <time>2022-06-02T03:19:22.000Z</time>
      </trkpt>
      <trkpt lat="45.20472" lon="5.72554">
        <ele>597.79998779297</ele>
        <time>2022-06-02T03:19:23.000Z</time>
      </trkpt>
      <trkpt lat="45.2047" lon="5.72552">
        <ele>597.79998779297</ele>
        <time>2022-06-02T03:19:24.000Z</time>
      </trkpt>
      <trkpt lat="45.20469" lon="5.7255">
        <ele>597.40002441406</ele>
        <time>2022-06-02T03:19:25.000Z</time>
      </trkpt>
      <trkpt lat="45.20468" lon="5.72548">
        <ele>597.59997558594</ele>
        <time>2022-06-02T03:19:26.000Z</time>
      </trkpt>
      <trkpt lat="45.20466" lon="5.72546">
        <ele>597.20001220703</ele>
        <time>2022-06-02T03:19:27.000Z</time>
      </trkpt>
      <trkpt lat="45.20465" lon="5.72544">
        <ele>597.20001220703</ele>
        <time>2022-06-02T03:19:28.000Z</time>
      </trkpt>
      <trkpt lat="45.20464" lon="5.72542">
        <ele>596.59997558594</ele>
        <time>2022-06-02T03:19:29.000Z</time>
      </trkpt>
      <trkpt lat="45.20462" lon="5.7254">
        <ele>596</ele>
        <time>2022-06-02T03:19:30.000Z</time>
      </trkpt>
      <trkpt lat="45.20461" lon="5.72538">
        <ele>596.20001220703</ele>
        <time>2022-06-02T03:19:31.000Z</time>
      </trkpt>
      <trkpt lat="45.20459" lon="5.72536">
        <ele>596</ele>
        <time>2022-06-02T03:19:32.000Z</time>
      </trkpt>
      <trkpt lat="45.20458" lon="5.72534">
        <ele>595.59997558594</ele>
        <time>2022-06-02T03:19:33.000Z</time>
      </trkpt>
      <trkpt lat="45.20456" lon="5.72532">
        <ele>595.59997558594</ele>
        <time>2022-06-02T03:19:34.000Z</time>
      </trkpt>
      <trkpt lat="45.20454" lon="5.72529">
        <ele>595.59997558594</ele>
        <time>2022-06-02T03:19:35.000Z</time>
      </trkpt>
      <trkpt lat="45.20453" lon="5.72527">
        <ele>595.40002441406</ele>
        <time>2022-06-02T03:19:36.000Z</time>
      </trkpt>
      <trkpt lat="45.20451" lon="5.72525">
        <ele>595.40002441406</ele>
        <time>2022-06-02T03:19:37.000Z</time>
      </trkpt>
      <trkpt lat="45.2045" lon="5.72522">
        <ele>595.40002441406</ele>
        <time>2022-06-02T03:19:38.000Z</time>
      </trkpt>
      <trkpt lat="45.20448" lon="5.7252">
        <ele>594.20001220703</ele>
        <time>2022-06-02T03:19:39.000Z</time>
      </trkpt>
      <trkpt lat="45.20447" lon="5.72518">
        <ele>593.79998779297</ele>
        <time>2022-06-02T03:19:40.000Z</time>
      </trkpt>
      <trkpt lat="45.20445" lon="5.72517">
        <ele>594</ele>
        <time>2022-06-02T03:19:41.000Z</time>
      </trkpt>
      <trkpt lat="45.20442" lon="5.72516">
        <ele>594.40002441406</ele>
        <time>2022-06-02T03:19:42.000Z</time>
      </trkpt>
      <trkpt lat="45.2044" lon="5.72517">
        <ele>593.59997558594</ele>
        <time>2022-06-02T03:19:43.000Z</time>
      </trkpt>
      <trkpt lat="45.20438" lon="5.72518">
        <ele>592.79998779297</ele>
        <time>2022-06-02T03:19:44.000Z</time>
      </trkpt>
      <trkpt lat="45.20437" lon="5.72519">
        <ele>593.40002441406</ele>
        <time>2022-06-02T03:19:45.000Z</time>
      </trkpt>
      <trkpt lat="45.20436" lon="5.72521">
        <ele>592.79998779297</ele>
        <time>2022-06-02T03:19:46.000Z</time>
      </trkpt>
      <trkpt lat="45.20436" lon="5.72521">
        <ele>592.79998779297</ele>
        <time>2022-06-02T03:19:47.000Z</time>
      </trkpt>
      <trkpt lat="45.20435" lon="5.72521">
        <ele>592.20001220703</ele>
        <time>2022-06-02T03:19:48.000Z</time>
      </trkpt>
      <trkpt lat="45.20435" lon="5.7252">
        <ele>592.20001220703</ele>
        <time>2022-06-02T03:19:49.000Z</time>
      </trkpt>
      <trkpt lat="45.20435" lon="5.72521">
        <ele>591.79998779297</ele>
        <time>2022-06-02T03:19:50.000Z</time>
      </trkpt>
      <trkpt lat="45.20435" lon="5.72521">
        <ele>591.59997558594</ele>
        <time>2022-06-02T03:19:51.000Z</time>
      </trkpt>
      <trkpt lat="45.20436" lon="5.72521">
        <ele>591.40002441406</ele>
        <time>2022-06-02T03:19:52.000Z</time>
      </trkpt>
      <trkpt lat="45.20435" lon="5.7252">
        <ele>590.79998779297</ele>
        <time>2022-06-02T03:19:53.000Z</time>
      </trkpt>
      <trkpt lat="45.20434" lon="5.72521">
        <ele>590.59997558594</ele>
        <time>2022-06-02T03:19:54.000Z</time>
      </trkpt>
      <trkpt lat="45.20433" lon="5.72521">
        <ele>589.59997558594</ele>
        <time>2022-06-02T03:19:55.000Z</time>
      </trkpt>
      <trkpt lat="45.20432" lon="5.72521">
        <ele>589.40002441406</ele>
        <time>2022-06-02T03:19:56.000Z</time>
      </trkpt>
      <trkpt lat="45.20432" lon="5.72521">
        <ele>589</ele>
        <time>2022-06-02T03:19:57.000Z</time>
      </trkpt>
      <trkpt lat="45.20431" lon="5.7252">
        <ele>588.59997558594</ele>
        <time>2022-06-02T03:19:58.000Z</time>
      </trkpt>
      <trkpt lat="45.2043" lon="5.7252">
        <ele>588.59997558594</ele>
        <time>2022-06-02T03:19:59.000Z</time>
      </trkpt>
      <trkpt lat="45.20429" lon="5.72519">
        <ele>588</ele>
        <time>2022-06-02T03:20:00.000Z</time>
      </trkpt>
      <trkpt lat="45.20429" lon="5.72519">
        <ele>587.59997558594</ele>
        <time>2022-06-02T03:20:01.000Z</time>
      </trkpt>
      <trkpt lat="45.20429" lon="5.72519">
        <ele>587.40002441406</ele>
        <time>2022-06-02T03:20:02.000Z</time>
      </trkpt>
      <trkpt lat="45.20428" lon="5.72519">
        <ele>587.40002441406</ele>
        <time>2022-06-02T03:20:03.000Z</time>
      </trkpt>
      <trkpt lat="45.20428" lon="5.72519">
        <ele>586.79998779297</ele>
        <time>2022-06-02T03:20:04.000Z</time>
      </trkpt>
      <trkpt lat="45.20428" lon="5.72519">
        <ele>586.79998779297</ele>
        <time>2022-06-02T03:20:05.000Z</time>
      </trkpt>
      <trkpt lat="45.20427" lon="5.7252">
        <ele>586.20001220703</ele>
        <time>2022-06-02T03:20:06.000Z</time>
      </trkpt>
      <trkpt lat="45.20427" lon="5.7252">
        <ele>585.79998779297</ele>
        <time>2022-06-02T03:20:07.000Z</time>
      </trkpt>
      <trkpt lat="45.20426" lon="5.72521">
        <ele>586</ele>
        <time>2022-06-02T03:20:08.000Z</time>
      </trkpt>
      <trkpt lat="45.20426" lon="5.72521">
        <ele>586</ele>
        <time>2022-06-02T03:20:09.000Z</time>
      </trkpt>
      <trkpt lat="45.20425" lon="5.72522">
        <ele>584.59997558594</ele>
        <time>2022-06-02T03:20:10.000Z</time>
      </trkpt>
      <trkpt lat="45.20424" lon="5.72523">
        <ele>584.20001220703</ele>
        <time>2022-06-02T03:20:11.000Z</time>
      </trkpt>
      <trkpt lat="45.20423" lon="5.72525">
        <ele>584.20001220703</ele>
        <time>2022-06-02T03:20:12.000Z</time>
      </trkpt>
      <trkpt lat="45.20423" lon="5.72526">
        <ele>584.20001220703</ele>
        <time>2022-06-02T03:20:13.000Z</time>
      </trkpt>
      <trkpt lat="45.20422" lon="5.72527">
        <ele>584.20001220703</ele>
        <time>2022-06-02T03:20:14.000Z</time>
      </trkpt>
      <trkpt lat="45.20422" lon="5.72528">
        <ele>583.79998779297</ele>
        <time>2022-06-02T03:20:15.000Z</time>
      </trkpt>
      <trkpt lat="45.20421" lon="5.72529">
        <ele>583.59997558594</ele>
        <time>2022-06-02T03:20:16.000Z</time>
      </trkpt>
      <trkpt lat="45.20421" lon="5.72529">
        <ele>583</ele>
        <time>2022-06-02T03:20:17.000Z</time>
      </trkpt>
      <trkpt lat="45.20421" lon="5.7253">
        <ele>583</ele>
        <time>2022-06-02T03:20:18.000Z</time>
      </trkpt>
      <trkpt lat="45.2042" lon="5.72531">
        <ele>582.20001220703</ele>
        <time>2022-06-02T03:20:19.000Z</time>
      </trkpt>
      <trkpt lat="45.2042" lon="5.72531">
        <ele>581.79998779297</ele>
        <time>2022-06-02T03:20:20.000Z</time>
      </trkpt>
      <trkpt lat="45.20419" lon="5.72531">
        <ele>582</ele>
        <time>2022-06-02T03:20:21.000Z</time>
      </trkpt>
      <trkpt lat="45.20418" lon="5.72532">
        <ele>582</ele>
        <time>2022-06-02T03:20:22.000Z</time>
      </trkpt>
      <trkpt lat="45.20417" lon="5.72532">
        <ele>581</ele>
        <time>2022-06-02T03:20:23.000Z</time>
      </trkpt>
      <trkpt lat="45.20416" lon="5.72533">
        <ele>581</ele>
        <time>2022-06-02T03:20:24.000Z</time>
      </trkpt>
      <trkpt lat="45.20416" lon="5.72534">
        <ele>581.20001220703</ele>
        <time>2022-06-02T03:20:25.000Z</time>
      </trkpt>
      <trkpt lat="45.20415" lon="5.72534">
        <ele>580.79998779297</ele>
        <time>2022-06-02T03:20:26.000Z</time>
      </trkpt>
      <trkpt lat="45.20415" lon="5.72535">
        <ele>580.40002441406</ele>
        <time>2022-06-02T03:20:27.000Z</time>
      </trkpt>
      <trkpt lat="45.20414" lon="5.72535">
        <ele>580.20001220703</ele>
        <time>2022-06-02T03:20:28.000Z</time>
      </trkpt>
      <trkpt lat="45.20413" lon="5.72536">
        <ele>580</ele>
        <time>2022-06-02T03:20:29.000Z</time>
      </trkpt>
      <trkpt lat="45.20412" lon="5.72537">
        <ele>579.59997558594</ele>
        <time>2022-06-02T03:20:30.000Z</time>
      </trkpt>
      <trkpt lat="45.20411" lon="5.72537">
        <ele>579.59997558594</ele>
        <time>2022-06-02T03:20:31.000Z</time>
      </trkpt>
      <trkpt lat="45.2041" lon="5.72538">
        <ele>579.20001220703</ele>
        <time>2022-06-02T03:20:32.000Z</time>
      </trkpt>
      <trkpt lat="45.2041" lon="5.72539">
        <ele>579.20001220703</ele>
        <time>2022-06-02T03:20:33.000Z</time>
      </trkpt>
      <trkpt lat="45.20409" lon="5.72539">
        <ele>578.79998779297</ele>
        <time>2022-06-02T03:20:34.000Z</time>
      </trkpt>
      <trkpt lat="45.20408" lon="5.7254">
        <ele>578.40002441406</ele>
        <time>2022-06-02T03:20:35.000Z</time>
      </trkpt>
      <trkpt lat="45.20407" lon="5.72541">
        <ele>578.59997558594</ele>
        <time>2022-06-02T03:20:36.000Z</time>
      </trkpt>
      <trkpt lat="45.20407" lon="5.72542">
        <ele>577.59997558594</ele>
        <time>2022-06-02T03:20:37.000Z</time>
      </trkpt>
      <trkpt lat="45.20407" lon="5.72543">
        <ele>577.59997558594</ele>
        <time>2022-06-02T03:20:38.000Z</time>
      </trkpt>
      <trkpt lat="45.20406" lon="5.72543">
        <ele>577.79998779297</ele>
        <time>2022-06-02T03:20:39.000Z</time>
      </trkpt>
      <trkpt lat="45.20405" lon="5.72544">
        <ele>577.79998779297</ele>
        <time>2022-06-02T03:20:40.000Z</time>
      </trkpt>
      <trkpt lat="45.20403" lon="5.72544">
        <ele>577.59997558594</ele>
        <time>2022-06-02T03:20:41.000Z</time>
      </trkpt>
      <trkpt lat="45.20401" lon="5.72542">
        <ele>576.59997558594</ele>
        <time>2022-06-02T03:20:42.000Z</time>
      </trkpt>
      <trkpt lat="45.204" lon="5.72541">
        <ele>576.59997558594</ele>
        <time>2022-06-02T03:20:43.000Z</time>
      </trkpt>
      <trkpt lat="45.20399" lon="5.7254">
        <ele>576</ele>
        <time>2022-06-02T03:20:44.000Z</time>
      </trkpt>
      <trkpt lat="45.20398" lon="5.72541">
        <ele>576</ele>
        <time>2022-06-02T03:20:45.000Z</time>
      </trkpt>
      <trkpt lat="45.20397" lon="5.72541">
        <ele>575.59997558594</ele>
        <time>2022-06-02T03:20:46.000Z</time>
      </trkpt>
      <trkpt lat="45.20396" lon="5.72541">
        <ele>575.40002441406</ele>
        <time>2022-06-02T03:20:47.000Z</time>
      </trkpt>
      <trkpt lat="45.20395" lon="5.72541">
        <ele>575.40002441406</ele>
        <time>2022-06-02T03:20:48.000Z</time>
      </trkpt>
      <trkpt lat="45.20394" lon="5.72542">
        <ele>574.79998779297</ele>
        <time>2022-06-02T03:20:49.000Z</time>
      </trkpt>
      <trkpt lat="45.20394" lon="5.72542">
        <ele>574.59997558594</ele>
        <time>2022-06-02T03:20:50.000Z</time>
      </trkpt>
      <trkpt lat="45.20393" lon="5.72543">
        <ele>574.40002441406</ele>
        <time>2022-06-02T03:20:51.000Z</time>
      </trkpt>
      <trkpt lat="45.20393" lon="5.72543">
        <ele>573.79998779297</ele>
        <time>2022-06-02T03:20:52.000Z</time>
      </trkpt>
      <trkpt lat="45.20393" lon="5.72544">
        <ele>573.79998779297</ele>
        <time>2022-06-02T03:20:53.000Z</time>
      </trkpt>
      <trkpt lat="45.20393" lon="5.72544">
        <ele>573.59997558594</ele>
        <time>2022-06-02T03:20:54.000Z</time>
      </trkpt>
      <trkpt lat="45.20392" lon="5.72545">
        <ele>573.20001220703</ele>
        <time>2022-06-02T03:20:55.000Z</time>
      </trkpt>
      <trkpt lat="45.20391" lon="5.72545">
        <ele>572.40002441406</ele>
        <time>2022-06-02T03:20:56.000Z</time>
      </trkpt>
      <trkpt lat="45.2039" lon="5.72545">
        <ele>572.40002441406</ele>
        <time>2022-06-02T03:20:57.000Z</time>
      </trkpt>
      <trkpt lat="45.20388" lon="5.72545">
        <ele>572</ele>
        <time>2022-06-02T03:20:58.000Z</time>
      </trkpt>
      <trkpt lat="45.20387" lon="5.72544">
        <ele>571.79998779297</ele>
        <time>2022-06-02T03:20:59.000Z</time>
      </trkpt>
      <trkpt lat="45.20386" lon="5.72543">
        <ele>571.59997558594</ele>
        <time>2022-06-02T03:21:00.000Z</time>
      </trkpt>
      <trkpt lat="45.20385" lon="5.72542">
        <ele>571.59997558594</ele>
        <time>2022-06-02T03:21:01.000Z</time>
      </trkpt>
      <trkpt lat="45.20384" lon="5.72541">
        <ele>571.40002441406</ele>
        <time>2022-06-02T03:21:02.000Z</time>
      </trkpt>
      <trkpt lat="45.20384" lon="5.72541">
        <ele>570.59997558594</ele>
        <time>2022-06-02T03:21:03.000Z</time>
      </trkpt>
      <trkpt lat="45.20383" lon="5.72541">
        <ele>570.40002441406</ele>
        <time>2022-06-02T03:21:04.000Z</time>
      </trkpt>
      <trkpt lat="45.20382" lon="5.7254">
        <ele>570.20001220703</ele>
        <time>2022-06-02T03:21:05.000Z</time>
      </trkpt>
      <trkpt lat="45.20381" lon="5.7254">
        <ele>569.79998779297</ele>
        <time>2022-06-02T03:21:06.000Z</time>
      </trkpt>
      <trkpt lat="45.20381" lon="5.72539">
        <ele>569.79998779297</ele>
        <time>2022-06-02T03:21:07.000Z</time>
      </trkpt>
      <trkpt lat="45.2038" lon="5.72538">
        <ele>569.20001220703</ele>
        <time>2022-06-02T03:21:08.000Z</time>
      </trkpt>
      <trkpt lat="45.20379" lon="5.72538">
        <ele>568.79998779297</ele>
        <time>2022-06-02T03:21:09.000Z</time>
      </trkpt>
      <trkpt lat="45.20379" lon="5.72538">
        <ele>568.59997558594</ele>
        <time>2022-06-02T03:21:10.000Z</time>
      </trkpt>
      <trkpt lat="45.20379" lon="5.72538">
        <ele>568.79998779297</ele>
        <time>2022-06-02T03:21:11.000Z</time>
      </trkpt>
      <trkpt lat="45.20378" lon="5.72538">
        <ele>568.40002441406</ele>
        <time>2022-06-02T03:21:12.000Z</time>
      </trkpt>
      <trkpt lat="45.20377" lon="5.72538">
        <ele>568</ele>
        <time>2022-06-02T03:21:13.000Z</time>
      </trkpt>
      <trkpt lat="45.20377" lon="5.72538">
        <ele>567.59997558594</ele>
        <time>2022-06-02T03:21:14.000Z</time>
      </trkpt>
      <trkpt lat="45.20376" lon="5.72538">
        <ele>567.20001220703</ele>
        <time>2022-06-02T03:21:15.000Z</time>
      </trkpt>
      <trkpt lat="45.20376" lon="5.72536">
        <ele>567</ele>
        <time>2022-06-02T03:21:16.000Z</time>
      </trkpt>
      <trkpt lat="45.20376" lon="5.72535">
        <ele>567</ele>
        <time>2022-06-02T03:21:17.000Z</time>
      </trkpt>
      <trkpt lat="45.20375" lon="5.72533">
        <ele>566.79998779297</ele>
        <time>2022-06-02T03:21:18.000Z</time>
      </trkpt>
      <trkpt lat="45.20374" lon="5.72532">
        <ele>566.40002441406</ele>
        <time>2022-06-02T03:21:19.000Z</time>
      </trkpt>
      <trkpt lat="45.20372" lon="5.72531">
        <ele>565.79998779297</ele>
        <time>2022-06-02T03:21:20.000Z</time>
      </trkpt>
      <trkpt lat="45.20371" lon="5.7253">
        <ele>566</ele>
        <time>2022-06-02T03:21:21.000Z</time>
      </trkpt>
      <trkpt lat="45.20369" lon="5.72529">
        <ele>565.59997558594</ele>
        <time>2022-06-02T03:21:22.000Z</time>
      </trkpt>
      <trkpt lat="45.20368" lon="5.72529">
        <ele>564.79998779297</ele>
        <time>2022-06-02T03:21:23.000Z</time>
      </trkpt>
      <trkpt lat="45.20367" lon="5.72529">
        <ele>564.79998779297</ele>
        <time>2022-06-02T03:21:24.000Z</time>
      </trkpt>
      <trkpt lat="45.20366" lon="5.72529">
        <ele>564.59997558594</ele>
        <time>2022-06-02T03:21:25.000Z</time>
      </trkpt>
      <trkpt lat="45.20366" lon="5.72528">
        <ele>564.20001220703</ele>
        <time>2022-06-02T03:21:26.000Z</time>
      </trkpt>
      <trkpt lat="45.20365" lon="5.72528">
        <ele>563.79998779297</ele>
        <time>2022-06-02T03:21:27.000Z</time>
      </trkpt>
      <trkpt lat="45.20364" lon="5.72528">
        <ele>563.79998779297</ele>
        <time>2022-06-02T03:21:28.000Z</time>
      </trkpt>
      <trkpt lat="45.20364" lon="5.72527">
        <ele>563.79998779297</ele>
        <time>2022-06-02T03:21:29.000Z</time>
      </trkpt>
      <trkpt lat="45.20363" lon="5.72527">
        <ele>563.59997558594</ele>
        <time>2022-06-02T03:21:30.000Z</time>
      </trkpt>
      <trkpt lat="45.20362" lon="5.72526">
        <ele>563.59997558594</ele>
        <time>2022-06-02T03:21:31.000Z</time>
      </trkpt>
      <trkpt lat="45.20362" lon="5.72526">
        <ele>563.40002441406</ele>
        <time>2022-06-02T03:21:32.000Z</time>
      </trkpt>
      <trkpt lat="45.20362" lon="5.72525">
        <ele>563</ele>
        <time>2022-06-02T03:21:33.000Z</time>
      </trkpt>
      <trkpt lat="45.20361" lon="5.72525">
        <ele>562.59997558594</ele>
        <time>2022-06-02T03:21:34.000Z</time>
      </trkpt>
      <trkpt lat="45.20361" lon="5.72524">
        <ele>562.20001220703</ele>
        <time>2022-06-02T03:21:35.000Z</time>
      </trkpt>
      <trkpt lat="45.2036" lon="5.72523">
        <ele>562.59997558594</ele>
        <time>2022-06-02T03:21:36.000Z</time>
      </trkpt>
      <trkpt lat="45.20359" lon="5.72523">
        <ele>561.59997558594</ele>
        <time>2022-06-02T03:21:37.000Z</time>
      </trkpt>
      <trkpt lat="45.20359" lon="5.72523">
        <ele>561</ele>
        <time>2022-06-02T03:21:38.000Z</time>
      </trkpt>
      <trkpt lat="45.20359" lon="5.72524">
        <ele>561.40002441406</ele>
        <time>2022-06-02T03:21:39.000Z</time>
      </trkpt>
      <trkpt lat="45.20359" lon="5.72524">
        <ele>561</ele>
        <time>2022-06-02T03:21:40.000Z</time>
      </trkpt>
      <trkpt lat="45.20358" lon="5.72525">
        <ele>560.59997558594</ele>
        <time>2022-06-02T03:21:41.000Z</time>
      </trkpt>
      <trkpt lat="45.20358" lon="5.72525">
        <ele>560</ele>
        <time>2022-06-02T03:21:42.000Z</time>
      </trkpt>
      <trkpt lat="45.20357" lon="5.72526">
        <ele>559.79998779297</ele>
        <time>2022-06-02T03:21:43.000Z</time>
      </trkpt>
      <trkpt lat="45.20357" lon="5.72526">
        <ele>559.79998779297</ele>
        <time>2022-06-02T03:21:44.000Z</time>
      </trkpt>
      <trkpt lat="45.20356" lon="5.72526">
        <ele>559.59997558594</ele>
        <time>2022-06-02T03:21:45.000Z</time>
      </trkpt>
      <trkpt lat="45.20355" lon="5.72526">
        <ele>559</ele>
        <time>2022-06-02T03:21:46.000Z</time>
      </trkpt>
      <trkpt lat="45.20354" lon="5.72526">
        <ele>558.79998779297</ele>
        <time>2022-06-02T03:21:47.000Z</time>
      </trkpt>
      <trkpt lat="45.20353" lon="5.72525">
        <ele>558</ele>
        <time>2022-06-02T03:21:48.000Z</time>
      </trkpt>
      <trkpt lat="45.20352" lon="5.72524">
        <ele>558</ele>
        <time>2022-06-02T03:21:49.000Z</time>
      </trkpt>
      <trkpt lat="45.20351" lon="5.72524">
        <ele>557.79998779297</ele>
        <time>2022-06-02T03:21:50.000Z</time>
      </trkpt>
      <trkpt lat="45.2035" lon="5.72523">
        <ele>557.79998779297</ele>
        <time>2022-06-02T03:21:51.000Z</time>
      </trkpt>
      <trkpt lat="45.2035" lon="5.72524">
        <ele>558</ele>
        <time>2022-06-02T03:21:52.000Z</time>
      </trkpt>
      <trkpt lat="45.20348" lon="5.72524">
        <ele>557.79998779297</ele>
        <time>2022-06-02T03:21:53.000Z</time>
      </trkpt>
      <trkpt lat="45.20347" lon="5.72524">
        <ele>557.59997558594</ele>
        <time>2022-06-02T03:21:54.000Z</time>
      </trkpt>
      <trkpt lat="45.20345" lon="5.72524">
        <ele>556.79998779297</ele>
        <time>2022-06-02T03:21:55.000Z</time>
      </trkpt>
      <trkpt lat="45.20344" lon="5.72523">
        <ele>557</ele>
        <time>2022-06-02T03:21:56.000Z</time>
      </trkpt>
      <trkpt lat="45.20344" lon="5.72523">
        <ele>557</ele>
        <time>2022-06-02T03:21:57.000Z</time>
      </trkpt>
      <trkpt lat="45.20343" lon="5.72523">
        <ele>556.59997558594</ele>
        <time>2022-06-02T03:21:58.000Z</time>
      </trkpt>
      <trkpt lat="45.20343" lon="5.72523">
        <ele>556.20001220703</ele>
        <time>2022-06-02T03:21:59.000Z</time>
      </trkpt>
      <trkpt lat="45.20343" lon="5.72524">
        <ele>556</ele>
        <time>2022-06-02T03:22:00.000Z</time>
      </trkpt>
      <trkpt lat="45.20342" lon="5.72525">
        <ele>555.79998779297</ele>
        <time>2022-06-02T03:22:01.000Z</time>
      </trkpt>
      <trkpt lat="45.20341" lon="5.72525">
        <ele>555.59997558594</ele>
        <time>2022-06-02T03:22:02.000Z</time>
      </trkpt>
      <trkpt lat="45.2034" lon="5.72526">
        <ele>555.20001220703</ele>
        <time>2022-06-02T03:22:03.000Z</time>
      </trkpt>
      <trkpt lat="45.2034" lon="5.72527">
        <ele>555.20001220703</ele>
        <time>2022-06-02T03:22:04.000Z</time>
      </trkpt>
      <trkpt lat="45.20339" lon="5.72527">
        <ele>554.79998779297</ele>
        <time>2022-06-02T03:22:05.000Z</time>
      </trkpt>
      <trkpt lat="45.20338" lon="5.72527">
        <ele>554.20001220703</ele>
        <time>2022-06-02T03:22:06.000Z</time>
      </trkpt>
      <trkpt lat="45.20338" lon="5.72527">
        <ele>554.20001220703</ele>
        <time>2022-06-02T03:22:07.000Z</time>
      </trkpt>
      <trkpt lat="45.20338" lon="5.72526">
        <ele>554</ele>
        <time>2022-06-02T03:22:08.000Z</time>
      </trkpt>
      <trkpt lat="45.20337" lon="5.72526">
        <ele>553.59997558594</ele>
        <time>2022-06-02T03:22:09.000Z</time>
      </trkpt>
      <trkpt lat="45.20337" lon="5.72526">
        <ele>553.20001220703</ele>
        <time>2022-06-02T03:22:10.000Z</time>
      </trkpt>
      <trkpt lat="45.20337" lon="5.72526">
        <ele>553.20001220703</ele>
        <time>2022-06-02T03:22:11.000Z</time>
      </trkpt>
      <trkpt lat="45.20337" lon="5.72526">
        <ele>553</ele>
        <time>2022-06-02T03:22:12.000Z</time>
      </trkpt>
      <trkpt lat="45.20337" lon="5.72526">
        <ele>552.79998779297</ele>
        <time>2022-06-02T03:22:13.000Z</time>
      </trkpt>
      <trkpt lat="45.20337" lon="5.72525">
        <ele>552.79998779297</ele>
        <time>2022-06-02T03:22:14.000Z</time>
      </trkpt>
      <trkpt lat="45.20337" lon="5.72525">
        <ele>552.59997558594</ele>
        <time>2022-06-02T03:22:15.000Z</time>
      </trkpt>
      <trkpt lat="45.20336" lon="5.72524">
        <ele>552.59997558594</ele>
        <time>2022-06-02T03:22:16.000Z</time>
      </trkpt>
      <trkpt lat="45.20336" lon="5.72524">
        <ele>552.40002441406</ele>
        <time>2022-06-02T03:22:17.000Z</time>
      </trkpt>
      <trkpt lat="45.20335" lon="5.72524">
        <ele>552.40002441406</ele>
        <time>2022-06-02T03:22:18.000Z</time>
      </trkpt>
      <trkpt lat="45.20335" lon="5.72524">
        <ele>552.20001220703</ele>
        <time>2022-06-02T03:22:19.000Z</time>
      </trkpt>
      <trkpt lat="45.20334" lon="5.72524">
        <ele>551.59997558594</ele>
        <time>2022-06-02T03:22:20.000Z</time>
      </trkpt>
      <trkpt lat="45.20333" lon="5.72524">
        <ele>551.40002441406</ele>
        <time>2022-06-02T03:22:21.000Z</time>
      </trkpt>
      <trkpt lat="45.20333" lon="5.72524">
        <ele>551.20001220703</ele>
        <time>2022-06-02T03:22:22.000Z</time>
      </trkpt>
      <trkpt lat="45.20332" lon="5.72523">
        <ele>551.20001220703</ele>
        <time>2022-06-02T03:22:23.000Z</time>
      </trkpt>
      <trkpt lat="45.20331" lon="5.72523">
        <ele>550.79998779297</ele>
        <time>2022-06-02T03:22:24.000Z</time>
      </trkpt>
      <trkpt lat="45.2033" lon="5.72523">
        <ele>550.59997558594</ele>
        <time>2022-06-02T03:22:25.000Z</time>
      </trkpt>
      <trkpt lat="45.20329" lon="5.72524">
        <ele>550.59997558594</ele>
        <time>2022-06-02T03:22:26.000Z</time>
      </trkpt>
      <trkpt lat="45.20328" lon="5.72524">
        <ele>549.79998779297</ele>
        <time>2022-06-02T03:22:27.000Z</time>
      </trkpt>
      <trkpt lat="45.20327" lon="5.72523">
        <ele>550</ele>
        <time>2022-06-02T03:22:28.000Z</time>
      </trkpt>
      <trkpt lat="45.20326" lon="5.72523">
        <ele>548.79998779297</ele>
        <time>2022-06-02T03:22:29.000Z</time>
      </trkpt>
      <trkpt lat="45.20325" lon="5.72523">
        <ele>549</ele>
        <time>2022-06-02T03:22:30.000Z</time>
      </trkpt>
      <trkpt lat="45.20324" lon="5.72523">
        <ele>548.59997558594</ele>
        <time>2022-06-02T03:22:31.000Z</time>
      </trkpt>
      <trkpt lat="45.20323" lon="5.72523">
        <ele>548.40002441406</ele>
        <time>2022-06-02T03:22:32.000Z</time>
      </trkpt>
      <trkpt lat="45.20322" lon="5.72523">
        <ele>548.20001220703</ele>
        <time>2022-06-02T03:22:33.000Z</time>
      </trkpt>
      <trkpt lat="45.20321" lon="5.72523">
        <ele>548.20001220703</ele>
        <time>2022-06-02T03:22:34.000Z</time>
      </trkpt>
      <trkpt lat="45.2032" lon="5.72523">
        <ele>547.20001220703</ele>
        <time>2022-06-02T03:22:35.000Z</time>
      </trkpt>
      <trkpt lat="45.20319" lon="5.72522">
        <ele>546.79998779297</ele>
        <time>2022-06-02T03:22:36.000Z</time>
      </trkpt>
      <trkpt lat="45.20318" lon="5.72522">
        <ele>546.59997558594</ele>
        <time>2022-06-02T03:22:37.000Z</time>
      </trkpt>
      <trkpt lat="45.20317" lon="5.72522">
        <ele>546.40002441406</ele>
        <time>2022-06-02T03:22:38.000Z</time>
      </trkpt>
      <trkpt lat="45.20317" lon="5.72522">
        <ele>545.79998779297</ele>
        <time>2022-06-02T03:22:39.000Z</time>
      </trkpt>
      <trkpt lat="45.20316" lon="5.72522">
        <ele>545.79998779297</ele>
        <time>2022-06-02T03:22:40.000Z</time>
      </trkpt>
      <trkpt lat="45.20315" lon="5.72522">
        <ele>545.79998779297</ele>
        <time>2022-06-02T03:22:41.000Z</time>
      </trkpt>
      <trkpt lat="45.20314" lon="5.72522">
        <ele>545.59997558594</ele>
        <time>2022-06-02T03:22:42.000Z</time>
      </trkpt>
      <trkpt lat="45.20313" lon="5.72522">
        <ele>545.20001220703</ele>
        <time>2022-06-02T03:22:43.000Z</time>
      </trkpt>
      <trkpt lat="45.20312" lon="5.72522">
        <ele>544.59997558594</ele>
        <time>2022-06-02T03:22:44.000Z</time>
      </trkpt>
      <trkpt lat="45.20311" lon="5.72522">
        <ele>544.59997558594</ele>
        <time>2022-06-02T03:22:45.000Z</time>
      </trkpt>
      <trkpt lat="45.2031" lon="5.72523">
        <ele>544.20001220703</ele>
        <time>2022-06-02T03:22:46.000Z</time>
      </trkpt>
      <trkpt lat="45.20308" lon="5.72523">
        <ele>543.79998779297</ele>
        <time>2022-06-02T03:22:47.000Z</time>
      </trkpt>
      <trkpt lat="45.20307" lon="5.72523">
        <ele>544</ele>
        <time>2022-06-02T03:22:48.000Z</time>
      </trkpt>
      <trkpt lat="45.20306" lon="5.72523">
        <ele>543.79998779297</ele>
        <time>2022-06-02T03:22:49.000Z</time>
      </trkpt>
      <trkpt lat="45.20304" lon="5.72523">
        <ele>543.40002441406</ele>
        <time>2022-06-02T03:22:50.000Z</time>
      </trkpt>
      <trkpt lat="45.20304" lon="5.72523">
        <ele>542.59997558594</ele>
        <time>2022-06-02T03:22:51.000Z</time>
      </trkpt>
      <trkpt lat="45.20302" lon="5.72523">
        <ele>542.40002441406</ele>
        <time>2022-06-02T03:22:52.000Z</time>
      </trkpt>
      <trkpt lat="45.20301" lon="5.72523">
        <ele>542</ele>
        <time>2022-06-02T03:22:53.000Z</time>
      </trkpt>
      <trkpt lat="45.20299" lon="5.72524">
        <ele>542.40002441406</ele>
        <time>2022-06-02T03:22:54.000Z</time>
      </trkpt>
      <trkpt lat="45.20298" lon="5.72524">
        <ele>541.59997558594</ele>
        <time>2022-06-02T03:22:55.000Z</time>
      </trkpt>
      <trkpt lat="45.20297" lon="5.72525">
        <ele>541.79998779297</ele>
        <time>2022-06-02T03:22:56.000Z</time>
      </trkpt>
      <trkpt lat="45.20295" lon="5.72525">
        <ele>541.59997558594</ele>
        <time>2022-06-02T03:22:57.000Z</time>
      </trkpt>
      <trkpt lat="45.20294" lon="5.72525">
        <ele>541.59997558594</ele>
        <time>2022-06-02T03:22:58.000Z</time>
      </trkpt>
      <trkpt lat="45.20292" lon="5.72525">
        <ele>541.20001220703</ele>
        <time>2022-06-02T03:22:59.000Z</time>
      </trkpt>
      <trkpt lat="45.2029" lon="5.72525">
        <ele>540.40002441406</ele>
        <time>2022-06-02T03:23:00.000Z</time>
      </trkpt>
      <trkpt lat="45.20288" lon="5.72525">
        <ele>541</ele>
        <time>2022-06-02T03:23:01.000Z</time>
      </trkpt>
      <trkpt lat="45.20286" lon="5.72525">
        <ele>540.20001220703</ele>
        <time>2022-06-02T03:23:02.000Z</time>
      </trkpt>
      <trkpt lat="45.20285" lon="5.72525">
        <ele>540</ele>
        <time>2022-06-02T03:23:03.000Z</time>
      </trkpt>
      <trkpt lat="45.20283" lon="5.72525">
        <ele>540</ele>
        <time>2022-06-02T03:23:04.000Z</time>
      </trkpt>
      <trkpt lat="45.20281" lon="5.72525">
        <ele>538.79998779297</ele>
        <time>2022-06-02T03:23:05.000Z</time>
      </trkpt>
      <trkpt lat="45.2028" lon="5.72525">
        <ele>538.79998779297</ele>
        <time>2022-06-02T03:23:06.000Z</time>
      </trkpt>
      <trkpt lat="45.20279" lon="5.72525">
        <ele>538.79998779297</ele>
        <time>2022-06-02T03:23:07.000Z</time>
      </trkpt>
      <trkpt lat="45.20277" lon="5.72524">
        <ele>538.40002441406</ele>
        <time>2022-06-02T03:23:08.000Z</time>
      </trkpt>
      <trkpt lat="45.20276" lon="5.72524">
        <ele>538.40002441406</ele>
        <time>2022-06-02T03:23:09.000Z</time>
      </trkpt>
      <trkpt lat="45.20275" lon="5.72524">
        <ele>538.59997558594</ele>
        <time>2022-06-02T03:23:10.000Z</time>
      </trkpt>
      <trkpt lat="45.20273" lon="5.72524">
        <ele>537.59997558594</ele>
        <time>2022-06-02T03:23:11.000Z</time>
      </trkpt>
      <trkpt lat="45.20272" lon="5.72524">
        <ele>537.59997558594</ele>
        <time>2022-06-02T03:23:12.000Z</time>
      </trkpt>
      <trkpt lat="45.20271" lon="5.72524">
        <ele>537.20001220703</ele>
        <time>2022-06-02T03:23:13.000Z</time>
      </trkpt>
      <trkpt lat="45.20269" lon="5.72524">
        <ele>536.20001220703</ele>
        <time>2022-06-02T03:23:14.000Z</time>
      </trkpt>
      <trkpt lat="45.20267" lon="5.72525">
        <ele>536.20001220703</ele>
        <time>2022-06-02T03:23:15.000Z</time>
      </trkpt>
      <trkpt lat="45.20266" lon="5.72525">
        <ele>535.59997558594</ele>
        <time>2022-06-02T03:23:16.000Z</time>
      </trkpt>
      <trkpt lat="45.20265" lon="5.72526">
        <ele>535.59997558594</ele>
        <time>2022-06-02T03:23:17.000Z</time>
      </trkpt>
      <trkpt lat="45.20263" lon="5.72526">
        <ele>535.40002441406</ele>
        <time>2022-06-02T03:23:18.000Z</time>
      </trkpt>
      <trkpt lat="45.20262" lon="5.72527">
        <ele>535</ele>
        <time>2022-06-02T03:23:19.000Z</time>
      </trkpt>
      <trkpt lat="45.2026" lon="5.72527">
        <ele>535</ele>
        <time>2022-06-02T03:23:20.000Z</time>
      </trkpt>
      <trkpt lat="45.20259" lon="5.72526">
        <ele>534.20001220703</ele>
        <time>2022-06-02T03:23:21.000Z</time>
      </trkpt>
      <trkpt lat="45.20258" lon="5.72525">
        <ele>534</ele>
        <time>2022-06-02T03:23:22.000Z</time>
      </trkpt>
      <trkpt lat="45.20256" lon="5.72525">
        <ele>534</ele>
        <time>2022-06-02T03:23:23.000Z</time>
      </trkpt>
      <trkpt lat="45.20255" lon="5.72524">
        <ele>533.79998779297</ele>
        <time>2022-06-02T03:23:24.000Z</time>
      </trkpt>
      <trkpt lat="45.20254" lon="5.72524">
        <ele>533.79998779297</ele>
        <time>2022-06-02T03:23:25.000Z</time>
      </trkpt>
      <trkpt lat="45.20253" lon="5.72523">
        <ele>533.20001220703</ele>
        <time>2022-06-02T03:23:26.000Z</time>
      </trkpt>
      <trkpt lat="45.20252" lon="5.72523">
        <ele>533</ele>
        <time>2022-06-02T03:23:27.000Z</time>
      </trkpt>
      <trkpt lat="45.20252" lon="5.72523">
        <ele>533</ele>
        <time>2022-06-02T03:23:28.000Z</time>
      </trkpt>
      <trkpt lat="45.20252" lon="5.72523">
        <ele>532.79998779297</ele>
        <time>2022-06-02T03:23:29.000Z</time>
      </trkpt>
      <trkpt lat="45.20251" lon="5.72524">
        <ele>532</ele>
        <time>2022-06-02T03:23:30.000Z</time>
      </trkpt>
      <trkpt lat="45.2025" lon="5.72524">
        <ele>531.79998779297</ele>
        <time>2022-06-02T03:23:31.000Z</time>
      </trkpt>
      <trkpt lat="45.20249" lon="5.72524">
        <ele>531.20001220703</ele>
        <time>2022-06-02T03:23:32.000Z</time>
      </trkpt>
      <trkpt lat="45.20248" lon="5.72524">
        <ele>530.59997558594</ele>
        <time>2022-06-02T03:23:33.000Z</time>
      </trkpt>
      <trkpt lat="45.20247" lon="5.72524">
        <ele>530.59997558594</ele>
        <time>2022-06-02T03:23:34.000Z</time>
      </trkpt>
      <trkpt lat="45.20246" lon="5.72524">
        <ele>530.20001220703</ele>
        <time>2022-06-02T03:23:35.000Z</time>
      </trkpt>
      <trkpt lat="45.20245" lon="5.72524">
        <ele>529.79998779297</ele>
        <time>2022-06-02T03:23:36.000Z</time>
      </trkpt>
      <trkpt lat="45.20245" lon="5.72525">
        <ele>529.59997558594</ele>
        <time>2022-06-02T03:23:37.000Z</time>
      </trkpt>
      <trkpt lat="45.20243" lon="5.72525">
        <ele>529.20001220703</ele>
        <time>2022-06-02T03:23:38.000Z</time>
      </trkpt>
      <trkpt lat="45.20242" lon="5.72525">
        <ele>528.79998779297</ele>
        <time>2022-06-02T03:23:39.000Z</time>
      </trkpt>
      <trkpt lat="45.20241" lon="5.72525">
        <ele>528.79998779297</ele>
        <time>2022-06-02T03:23:40.000Z</time>
      </trkpt>
      <trkpt lat="45.20239" lon="5.72524">
        <ele>527.79998779297</ele>
        <time>2022-06-02T03:23:41.000Z</time>
      </trkpt>
      <trkpt lat="45.20238" lon="5.72524">
        <ele>528.40002441406</ele>
        <time>2022-06-02T03:23:42.000Z</time>
      </trkpt>
      <trkpt lat="45.20237" lon="5.72523">
        <ele>527.20001220703</ele>
        <time>2022-06-02T03:23:43.000Z</time>
      </trkpt>
      <trkpt lat="45.20236" lon="5.72524">
        <ele>527.40002441406</ele>
        <time>2022-06-02T03:23:44.000Z</time>
      </trkpt>
      <trkpt lat="45.20235" lon="5.72524">
        <ele>526.79998779297</ele>
        <time>2022-06-02T03:23:45.000Z</time>
      </trkpt>
      <trkpt lat="45.20234" lon="5.72524">
        <ele>526.79998779297</ele>
        <time>2022-06-02T03:23:46.000Z</time>
      </trkpt>
      <trkpt lat="45.20234" lon="5.72525">
        <ele>526.20001220703</ele>
        <time>2022-06-02T03:23:47.000Z</time>
      </trkpt>
      <trkpt lat="45.20232" lon="5.72526">
        <ele>526.20001220703</ele>
        <time>2022-06-02T03:23:48.000Z</time>
      </trkpt>
      <trkpt lat="45.20231" lon="5.72526">
        <ele>525.79998779297</ele>
        <time>2022-06-02T03:23:49.000Z</time>
      </trkpt>
      <trkpt lat="45.20229" lon="5.72526">
        <ele>525.20001220703</ele>
        <time>2022-06-02T03:23:50.000Z</time>
      </trkpt>
      <trkpt lat="45.20228" lon="5.72526">
        <ele>525</ele>
        <time>2022-06-02T03:23:51.000Z</time>
      </trkpt>
      <trkpt lat="45.20227" lon="5.72526">
        <ele>524.79998779297</ele>
        <time>2022-06-02T03:23:52.000Z</time>
      </trkpt>
      <trkpt lat="45.20225" lon="5.72526">
        <ele>524.59997558594</ele>
        <time>2022-06-02T03:23:53.000Z</time>
      </trkpt>
      <trkpt lat="45.20224" lon="5.72526">
        <ele>524.20001220703</ele>
        <time>2022-06-02T03:23:54.000Z</time>
      </trkpt>
      <trkpt lat="45.20223" lon="5.72526">
        <ele>524.20001220703</ele>
        <time>2022-06-02T03:23:55.000Z</time>
      </trkpt>
      <trkpt lat="45.20221" lon="5.72526">
        <ele>523.20001220703</ele>
        <time>2022-06-02T03:23:56.000Z</time>
      </trkpt>
      <trkpt lat="45.20221" lon="5.72526">
        <ele>523.20001220703</ele>
        <time>2022-06-02T03:23:57.000Z</time>
      </trkpt>
      <trkpt lat="45.2022" lon="5.72526">
        <ele>523.20001220703</ele>
        <time>2022-06-02T03:23:58.000Z</time>
      </trkpt>
      <trkpt lat="45.20219" lon="5.72526">
        <ele>522.59997558594</ele>
        <time>2022-06-02T03:23:59.000Z</time>
      </trkpt>
      <trkpt lat="45.20218" lon="5.72526">
        <ele>522.40002441406</ele>
        <time>2022-06-02T03:24:00.000Z</time>
      </trkpt>
      <trkpt lat="45.20217" lon="5.72525">
        <ele>522.20001220703</ele>
        <time>2022-06-02T03:24:01.000Z</time>
      </trkpt>
      <trkpt lat="45.20216" lon="5.72525">
        <ele>521.59997558594</ele>
        <time>2022-06-02T03:24:02.000Z</time>
      </trkpt>
      <trkpt lat="45.20215" lon="5.72525">
        <ele>521.59997558594</ele>
        <time>2022-06-02T03:24:03.000Z</time>
      </trkpt>
      <trkpt lat="45.20214" lon="5.72525">
        <ele>521.59997558594</ele>
        <time>2022-06-02T03:24:04.000Z</time>
      </trkpt>
      <trkpt lat="45.20213" lon="5.72525">
        <ele>520.79998779297</ele>
        <time>2022-06-02T03:24:05.000Z</time>
      </trkpt>
      <trkpt lat="45.20212" lon="5.72525">
        <ele>520</ele>
        <time>2022-06-02T03:24:06.000Z</time>
      </trkpt>
      <trkpt lat="45.20211" lon="5.72525">
        <ele>520</ele>
        <time>2022-06-02T03:24:07.000Z</time>
      </trkpt>
      <trkpt lat="45.2021" lon="5.72525">
        <ele>519.59997558594</ele>
        <time>2022-06-02T03:24:08.000Z</time>
      </trkpt>
      <trkpt lat="45.20208" lon="5.72524">
        <ele>519.59997558594</ele>
        <time>2022-06-02T03:24:09.000Z</time>
      </trkpt>
      <trkpt lat="45.20207" lon="5.72524">
        <ele>519.20001220703</ele>
        <time>2022-06-02T03:24:10.000Z</time>
      </trkpt>
      <trkpt lat="45.20206" lon="5.72523">
        <ele>519.20001220703</ele>
        <time>2022-06-02T03:24:11.000Z</time>
      </trkpt>
      <trkpt lat="45.20205" lon="5.72521">
        <ele>519</ele>
        <time>2022-06-02T03:24:12.000Z</time>
      </trkpt>
      <trkpt lat="45.20203" lon="5.7252">
        <ele>518.59997558594</ele>
        <time>2022-06-02T03:24:13.000Z</time>
      </trkpt>
      <trkpt lat="45.20202" lon="5.72519">
        <ele>518</ele>
        <time>2022-06-02T03:24:14.000Z</time>
      </trkpt>
      <trkpt lat="45.20201" lon="5.72518">
        <ele>517.40002441406</ele>
        <time>2022-06-02T03:24:15.000Z</time>
      </trkpt>
      <trkpt lat="45.20199" lon="5.72516">
        <ele>517</ele>
        <time>2022-06-02T03:24:16.000Z</time>
      </trkpt>
      <trkpt lat="45.20198" lon="5.72515">
        <ele>517</ele>
        <time>2022-06-02T03:24:17.000Z</time>
      </trkpt>
      <trkpt lat="45.20197" lon="5.72514">
        <ele>517</ele>
        <time>2022-06-02T03:24:18.000Z</time>
      </trkpt>
      <trkpt lat="45.20196" lon="5.72513">
        <ele>516.79998779297</ele>
        <time>2022-06-02T03:24:19.000Z</time>
      </trkpt>
      <trkpt lat="45.20195" lon="5.72513">
        <ele>516.40002441406</ele>
        <time>2022-06-02T03:24:20.000Z</time>
      </trkpt>
      <trkpt lat="45.20194" lon="5.72512">
        <ele>516</ele>
        <time>2022-06-02T03:24:21.000Z</time>
      </trkpt>
      <trkpt lat="45.20192" lon="5.72511">
        <ele>515.59997558594</ele>
        <time>2022-06-02T03:24:22.000Z</time>
      </trkpt>
      <trkpt lat="45.20191" lon="5.7251">
        <ele>515.59997558594</ele>
        <time>2022-06-02T03:24:23.000Z</time>
      </trkpt>
      <trkpt lat="45.2019" lon="5.72509">
        <ele>515.59997558594</ele>
        <time>2022-06-02T03:24:24.000Z</time>
      </trkpt>
      <trkpt lat="45.20189" lon="5.72508">
        <ele>515.20001220703</ele>
        <time>2022-06-02T03:24:25.000Z</time>
      </trkpt>
      <trkpt lat="45.20189" lon="5.72507">
        <ele>515</ele>
        <time>2022-06-02T03:24:26.000Z</time>
      </trkpt>
      <trkpt lat="45.20188" lon="5.72506">
        <ele>514.79998779297</ele>
        <time>2022-06-02T03:24:27.000Z</time>
      </trkpt>
      <trkpt lat="45.20187" lon="5.72505">
        <ele>514.40002441406</ele>
        <time>2022-06-02T03:24:28.000Z</time>
      </trkpt>
      <trkpt lat="45.20186" lon="5.72504">
        <ele>514</ele>
        <time>2022-06-02T03:24:29.000Z</time>
      </trkpt>
      <trkpt lat="45.20184" lon="5.72502">
        <ele>513.79998779297</ele>
        <time>2022-06-02T03:24:30.000Z</time>
      </trkpt>
      <trkpt lat="45.20183" lon="5.725">
        <ele>513.79998779297</ele>
        <time>2022-06-02T03:24:31.000Z</time>
      </trkpt>
      <trkpt lat="45.20181" lon="5.72498">
        <ele>513.59997558594</ele>
        <time>2022-06-02T03:24:32.000Z</time>
      </trkpt>
      <trkpt lat="45.2018" lon="5.72498">
        <ele>513.20001220703</ele>
        <time>2022-06-02T03:24:33.000Z</time>
      </trkpt>
      <trkpt lat="45.2018" lon="5.72497">
        <ele>513.20001220703</ele>
        <time>2022-06-02T03:24:34.000Z</time>
      </trkpt>
      <trkpt lat="45.20179" lon="5.72497">
        <ele>512.79998779297</ele>
        <time>2022-06-02T03:24:35.000Z</time>
      </trkpt>
      <trkpt lat="45.20178" lon="5.72497">
        <ele>512.59997558594</ele>
        <time>2022-06-02T03:24:36.000Z</time>
      </trkpt>
      <trkpt lat="45.20177" lon="5.72497">
        <ele>513</ele>
        <time>2022-06-02T03:24:37.000Z</time>
      </trkpt>
      <trkpt lat="45.20176" lon="5.72497">
        <ele>512.20001220703</ele>
        <time>2022-06-02T03:24:38.000Z</time>
      </trkpt>
      <trkpt lat="45.20174" lon="5.72496">
        <ele>511.79998779297</ele>
        <time>2022-06-02T03:24:39.000Z</time>
      </trkpt>
      <trkpt lat="45.20173" lon="5.72495">
        <ele>511.20001220703</ele>
        <time>2022-06-02T03:24:40.000Z</time>
      </trkpt>
      <trkpt lat="45.20172" lon="5.72494">
        <ele>511.20001220703</ele>
        <time>2022-06-02T03:24:41.000Z</time>
      </trkpt>
      <trkpt lat="45.2017" lon="5.72493">
        <ele>511.39999389648</ele>
        <time>2022-06-02T03:24:42.000Z</time>
      </trkpt>
      <trkpt lat="45.20169" lon="5.72491">
        <ele>510.79998779297</ele>
        <time>2022-06-02T03:24:43.000Z</time>
      </trkpt>
      <trkpt lat="45.20168" lon="5.7249">
        <ele>510.79998779297</ele>
        <time>2022-06-02T03:24:44.000Z</time>
      </trkpt>
      <trkpt lat="45.20167" lon="5.72489">
        <ele>510.60000610352</ele>
        <time>2022-06-02T03:24:45.000Z</time>
      </trkpt>
      <trkpt lat="45.20167" lon="5.72489">
        <ele>510</ele>
        <time>2022-06-02T03:24:46.000Z</time>
      </trkpt>
      <trkpt lat="45.20166" lon="5.72488">
        <ele>509.79998779297</ele>
        <time>2022-06-02T03:24:47.000Z</time>
      </trkpt>
      <trkpt lat="45.20165" lon="5.72488">
        <ele>509.60000610352</ele>
        <time>2022-06-02T03:24:48.000Z</time>
      </trkpt>
      <trkpt lat="45.20165" lon="5.72488">
        <ele>509.20001220703</ele>
        <time>2022-06-02T03:24:49.000Z</time>
      </trkpt>
      <trkpt lat="45.20164" lon="5.72487">
        <ele>508.79998779297</ele>
        <time>2022-06-02T03:24:50.000Z</time>
      </trkpt>
      <trkpt lat="45.20164" lon="5.72486">
        <ele>508.60000610352</ele>
        <time>2022-06-02T03:24:51.000Z</time>
      </trkpt>
      <trkpt lat="45.20164" lon="5.72484">
        <ele>508.60000610352</ele>
        <time>2022-06-02T03:24:52.000Z</time>
      </trkpt>
      <trkpt lat="45.20164" lon="5.72482">
        <ele>508.60000610352</ele>
        <time>2022-06-02T03:24:53.000Z</time>
      </trkpt>
      <trkpt lat="45.20164" lon="5.72481">
        <ele>507.79998779297</ele>
        <time>2022-06-02T03:24:54.000Z</time>
      </trkpt>
      <trkpt lat="45.20164" lon="5.7248">
        <ele>507.60000610352</ele>
        <time>2022-06-02T03:24:55.000Z</time>
      </trkpt>
      <trkpt lat="45.20163" lon="5.72479">
        <ele>507.60000610352</ele>
        <time>2022-06-02T03:24:56.000Z</time>
      </trkpt>
      <trkpt lat="45.20162" lon="5.72479">
        <ele>507</ele>
        <time>2022-06-02T03:24:57.000Z</time>
      </trkpt>
      <trkpt lat="45.20162" lon="5.72478">
        <ele>506.39999389648</ele>
        <time>2022-06-02T03:24:58.000Z</time>
      </trkpt>
      <trkpt lat="45.20161" lon="5.72477">
        <ele>506.39999389648</ele>
        <time>2022-06-02T03:24:59.000Z</time>
      </trkpt>
      <trkpt lat="45.2016" lon="5.72476">
        <ele>505.60000610352</ele>
        <time>2022-06-02T03:25:00.000Z</time>
      </trkpt>
      <trkpt lat="45.2016" lon="5.72476">
        <ele>505.79998779297</ele>
        <time>2022-06-02T03:25:01.000Z</time>
      </trkpt>
      <trkpt lat="45.20159" lon="5.72476">
        <ele>505.20001220703</ele>
        <time>2022-06-02T03:25:02.000Z</time>
      </trkpt>
      <trkpt lat="45.20159" lon="5.72476">
        <ele>505.20001220703</ele>
        <time>2022-06-02T03:25:03.000Z</time>
      </trkpt>
      <trkpt lat="45.20158" lon="5.72475">
        <ele>505</ele>
        <time>2022-06-02T03:25:04.000Z</time>
      </trkpt>
      <trkpt lat="45.20157" lon="5.72474">
        <ele>504.20001220703</ele>
        <time>2022-06-02T03:25:05.000Z</time>
      </trkpt>
      <trkpt lat="45.20156" lon="5.72473">
        <ele>504</ele>
        <time>2022-06-02T03:25:06.000Z</time>
      </trkpt>
      <trkpt lat="45.20155" lon="5.72472">
        <ele>503.39999389648</ele>
        <time>2022-06-02T03:25:07.000Z</time>
      </trkpt>
      <trkpt lat="45.20155" lon="5.72471">
        <ele>503.39999389648</ele>
        <time>2022-06-02T03:25:08.000Z</time>
      </trkpt>
      <trkpt lat="45.20154" lon="5.7247">
        <ele>503.39999389648</ele>
        <time>2022-06-02T03:25:09.000Z</time>
      </trkpt>
      <trkpt lat="45.20154" lon="5.72469">
        <ele>503.20001220703</ele>
        <time>2022-06-02T03:25:10.000Z</time>
      </trkpt>
      <trkpt lat="45.20154" lon="5.72469">
        <ele>502.79998779297</ele>
        <time>2022-06-02T03:25:11.000Z</time>
      </trkpt>
      <trkpt lat="45.20153" lon="5.72468">
        <ele>502.39999389648</ele>
        <time>2022-06-02T03:25:12.000Z</time>
      </trkpt>
      <trkpt lat="45.20153" lon="5.72468">
        <ele>502.20001220703</ele>
        <time>2022-06-02T03:25:13.000Z</time>
      </trkpt>
      <trkpt lat="45.20152" lon="5.72468">
        <ele>502.20001220703</ele>
        <time>2022-06-02T03:25:14.000Z</time>
      </trkpt>
      <trkpt lat="45.20152" lon="5.72467">
        <ele>501.79998779297</ele>
        <time>2022-06-02T03:25:15.000Z</time>
      </trkpt>
      <trkpt lat="45.20152" lon="5.72467">
        <ele>501.60000610352</ele>
        <time>2022-06-02T03:25:16.000Z</time>
      </trkpt>
      <trkpt lat="45.20152" lon="5.72466">
        <ele>501.39999389648</ele>
        <time>2022-06-02T03:25:17.000Z</time>
      </trkpt>
      <trkpt lat="45.20151" lon="5.72466">
        <ele>501.20001220703</ele>
        <time>2022-06-02T03:25:18.000Z</time>
      </trkpt>
      <trkpt lat="45.20151" lon="5.72465">
        <ele>501</ele>
        <time>2022-06-02T03:25:19.000Z</time>
      </trkpt>
      <trkpt lat="45.2015" lon="5.72465">
        <ele>500.60000610352</ele>
        <time>2022-06-02T03:25:20.000Z</time>
      </trkpt>
      <trkpt lat="45.2015" lon="5.72465">
        <ele>500.60000610352</ele>
        <time>2022-06-02T03:25:21.000Z</time>
      </trkpt>
      <trkpt lat="45.20149" lon="5.72464">
        <ele>499.79998779297</ele>
        <time>2022-06-02T03:25:22.000Z</time>
      </trkpt>
      <trkpt lat="45.20149" lon="5.72464">
        <ele>500.20001220703</ele>
        <time>2022-06-02T03:25:23.000Z</time>
      </trkpt>
      <trkpt lat="45.20148" lon="5.72463">
        <ele>499.60000610352</ele>
        <time>2022-06-02T03:25:24.000Z</time>
      </trkpt>
      <trkpt lat="45.20147" lon="5.72463">
        <ele>499</ele>
        <time>2022-06-02T03:25:25.000Z</time>
      </trkpt>
      <trkpt lat="45.20147" lon="5.72462">
        <ele>498.79998779297</ele>
        <time>2022-06-02T03:25:26.000Z</time>
      </trkpt>
      <trkpt lat="45.20146" lon="5.72463">
        <ele>498.60000610352</ele>
        <time>2022-06-02T03:25:27.000Z</time>
      </trkpt>
      <trkpt lat="45.20146" lon="5.72462">
        <ele>498.39999389648</ele>
        <time>2022-06-02T03:25:28.000Z</time>
      </trkpt>
      <trkpt lat="45.20145" lon="5.72462">
        <ele>498.20001220703</ele>
        <time>2022-06-02T03:25:29.000Z</time>
      </trkpt>
      <trkpt lat="45.20144" lon="5.72461">
        <ele>498.20001220703</ele>
        <time>2022-06-02T03:25:30.000Z</time>
      </trkpt>
      <trkpt lat="45.20144" lon="5.7246">
        <ele>497.20001220703</ele>
        <time>2022-06-02T03:25:31.000Z</time>
      </trkpt>
      <trkpt lat="45.20144" lon="5.72459">
        <ele>497.20001220703</ele>
        <time>2022-06-02T03:25:32.000Z</time>
      </trkpt>
      <trkpt lat="45.20144" lon="5.72459">
        <ele>496.60000610352</ele>
        <time>2022-06-02T03:25:33.000Z</time>
      </trkpt>
      <trkpt lat="45.20144" lon="5.72458">
        <ele>496</ele>
        <time>2022-06-02T03:25:34.000Z</time>
      </trkpt>
      <trkpt lat="45.20144" lon="5.72459">
        <ele>496</ele>
        <time>2022-06-02T03:25:35.000Z</time>
      </trkpt>
      <trkpt lat="45.20144" lon="5.72459">
        <ele>496.60000610352</ele>
        <time>2022-06-02T03:25:36.000Z</time>
      </trkpt>
      <trkpt lat="45.20144" lon="5.72459">
        <ele>496.60000610352</ele>
        <time>2022-06-02T03:25:37.000Z</time>
      </trkpt>
      <trkpt lat="45.20143" lon="5.72459">
        <ele>496.60000610352</ele>
        <time>2022-06-02T03:25:38.000Z</time>
      </trkpt>
      <trkpt lat="45.20143" lon="5.72459">
        <ele>496.79998779297</ele>
        <time>2022-06-02T03:25:39.000Z</time>
      </trkpt>
      <trkpt lat="45.20143" lon="5.72459">
        <ele>496.60000610352</ele>
        <time>2022-06-02T03:25:40.000Z</time>
      </trkpt>
      <trkpt lat="45.20142" lon="5.72461">
        <ele>496.60000610352</ele>
        <time>2022-06-02T03:25:41.000Z</time>
      </trkpt>
      <trkpt lat="45.20141" lon="5.72462">
        <ele>496.20001220703</ele>
        <time>2022-06-02T03:25:42.000Z</time>
      </trkpt>
      <trkpt lat="45.20141" lon="5.72463">
        <ele>496</ele>
        <time>2022-06-02T03:25:43.000Z</time>
      </trkpt>
      <trkpt lat="45.2014" lon="5.72465">
        <ele>495.79998779297</ele>
        <time>2022-06-02T03:25:44.000Z</time>
      </trkpt>
      <trkpt lat="45.2014" lon="5.72466">
        <ele>495.60000610352</ele>
        <time>2022-06-02T03:25:45.000Z</time>
      </trkpt>
      <trkpt lat="45.2014" lon="5.72467">
        <ele>495.60000610352</ele>
        <time>2022-06-02T03:25:46.000Z</time>
      </trkpt>
      <trkpt lat="45.2014" lon="5.72468">
        <ele>495</ele>
        <time>2022-06-02T03:25:47.000Z</time>
      </trkpt>
      <trkpt lat="45.2014" lon="5.72468">
        <ele>494.79998779297</ele>
        <time>2022-06-02T03:25:48.000Z</time>
      </trkpt>
      <trkpt lat="45.20139" lon="5.72469">
        <ele>494.60000610352</ele>
        <time>2022-06-02T03:25:49.000Z</time>
      </trkpt>
      <trkpt lat="45.20138" lon="5.72469">
        <ele>494.20001220703</ele>
        <time>2022-06-02T03:25:50.000Z</time>
      </trkpt>
      <trkpt lat="45.20138" lon="5.72469">
        <ele>493.79998779297</ele>
        <time>2022-06-02T03:25:51.000Z</time>
      </trkpt>
      <trkpt lat="45.20137" lon="5.72469">
        <ele>493.39999389648</ele>
        <time>2022-06-02T03:25:52.000Z</time>
      </trkpt>
      <trkpt lat="45.20136" lon="5.7247">
        <ele>493.20001220703</ele>
        <time>2022-06-02T03:25:53.000Z</time>
      </trkpt>
      <trkpt lat="45.20136" lon="5.7247">
        <ele>493</ele>
        <time>2022-06-02T03:25:54.000Z</time>
      </trkpt>
      <trkpt lat="45.20136" lon="5.72472">
        <ele>492.79998779297</ele>
        <time>2022-06-02T03:25:55.000Z</time>
      </trkpt>
      <trkpt lat="45.20135" lon="5.72472">
        <ele>492.60000610352</ele>
        <time>2022-06-02T03:25:56.000Z</time>
      </trkpt>
      <trkpt lat="45.20135" lon="5.72472">
        <ele>492.39999389648</ele>
        <time>2022-06-02T03:25:57.000Z</time>
      </trkpt>
      <trkpt lat="45.20135" lon="5.72472">
        <ele>492.20001220703</ele>
        <time>2022-06-02T03:25:58.000Z</time>
      </trkpt>
      <trkpt lat="45.20134" lon="5.72472">
        <ele>492.20001220703</ele>
        <time>2022-06-02T03:25:59.000Z</time>
      </trkpt>
      <trkpt lat="45.20133" lon="5.72473">
        <ele>491.79998779297</ele>
        <time>2022-06-02T03:26:00.000Z</time>
      </trkpt>
      <trkpt lat="45.20132" lon="5.72474">
        <ele>491.79998779297</ele>
        <time>2022-06-02T03:26:01.000Z</time>
      </trkpt>
      <trkpt lat="45.20132" lon="5.72476">
        <ele>491</ele>
        <time>2022-06-02T03:26:02.000Z</time>
      </trkpt>
      <trkpt lat="45.20131" lon="5.72478">
        <ele>490.60000610352</ele>
        <time>2022-06-02T03:26:03.000Z</time>
      </trkpt>
      <trkpt lat="45.20131" lon="5.7248">
        <ele>490.60000610352</ele>
        <time>2022-06-02T03:26:04.000Z</time>
      </trkpt>
      <trkpt lat="45.20131" lon="5.72481">
        <ele>490.60000610352</ele>
        <time>2022-06-02T03:26:05.000Z</time>
      </trkpt>
      <trkpt lat="45.2013" lon="5.72483">
        <ele>490</ele>
        <time>2022-06-02T03:26:06.000Z</time>
      </trkpt>
      <trkpt lat="45.2013" lon="5.72484">
        <ele>489.60000610352</ele>
        <time>2022-06-02T03:26:07.000Z</time>
      </trkpt>
      <trkpt lat="45.2013" lon="5.72485">
        <ele>489.39999389648</ele>
        <time>2022-06-02T03:26:08.000Z</time>
      </trkpt>
      <trkpt lat="45.20129" lon="5.72486">
        <ele>489.39999389648</ele>
        <time>2022-06-02T03:26:09.000Z</time>
      </trkpt>
      <trkpt lat="45.20129" lon="5.72487">
        <ele>488.79998779297</ele>
        <time>2022-06-02T03:26:10.000Z</time>
      </trkpt>
      <trkpt lat="45.20128" lon="5.72489">
        <ele>488.20001220703</ele>
        <time>2022-06-02T03:26:11.000Z</time>
      </trkpt>
      <trkpt lat="45.20128" lon="5.72491">
        <ele>488.20001220703</ele>
        <time>2022-06-02T03:26:12.000Z</time>
      </trkpt>
      <trkpt lat="45.20128" lon="5.72493">
        <ele>487.39999389648</ele>
        <time>2022-06-02T03:26:13.000Z</time>
      </trkpt>
      <trkpt lat="45.20127" lon="5.72494">
        <ele>487.60000610352</ele>
        <time>2022-06-02T03:26:14.000Z</time>
      </trkpt>
      <trkpt lat="45.20127" lon="5.72496">
        <ele>487.39999389648</ele>
        <time>2022-06-02T03:26:15.000Z</time>
      </trkpt>
      <trkpt lat="45.20126" lon="5.72498">
        <ele>487</ele>
        <time>2022-06-02T03:26:16.000Z</time>
      </trkpt>
      <trkpt lat="45.20125" lon="5.72499">
        <ele>486.39999389648</ele>
        <time>2022-06-02T03:26:17.000Z</time>
      </trkpt>
      <trkpt lat="45.20123" lon="5.725">
        <ele>486.20001220703</ele>
        <time>2022-06-02T03:26:18.000Z</time>
      </trkpt>
      <trkpt lat="45.20122" lon="5.72502">
        <ele>485.79998779297</ele>
        <time>2022-06-02T03:26:19.000Z</time>
      </trkpt>
      <trkpt lat="45.20121" lon="5.72503">
        <ele>485.79998779297</ele>
        <time>2022-06-02T03:26:20.000Z</time>
      </trkpt>
      <trkpt lat="45.2012" lon="5.72504">
        <ele>485.20001220703</ele>
        <time>2022-06-02T03:26:21.000Z</time>
      </trkpt>
      <trkpt lat="45.20119" lon="5.72506">
        <ele>485</ele>
        <time>2022-06-02T03:26:22.000Z</time>
      </trkpt>
      <trkpt lat="45.20118" lon="5.72508">
        <ele>485</ele>
        <time>2022-06-02T03:26:23.000Z</time>
      </trkpt>
      <trkpt lat="45.20117" lon="5.7251">
        <ele>484.60000610352</ele>
        <time>2022-06-02T03:26:24.000Z</time>
      </trkpt>
      <trkpt lat="45.20116" lon="5.72512">
        <ele>483.60000610352</ele>
        <time>2022-06-02T03:26:25.000Z</time>
      </trkpt>
      <trkpt lat="45.20115" lon="5.72513">
        <ele>483.60000610352</ele>
        <time>2022-06-02T03:26:26.000Z</time>
      </trkpt>
      <trkpt lat="45.20114" lon="5.72514">
        <ele>483.39999389648</ele>
        <time>2022-06-02T03:26:27.000Z</time>
      </trkpt>
      <trkpt lat="45.20112" lon="5.72516">
        <ele>483</ele>
        <time>2022-06-02T03:26:28.000Z</time>
      </trkpt>
      <trkpt lat="45.20111" lon="5.72517">
        <ele>482.60000610352</ele>
        <time>2022-06-02T03:26:29.000Z</time>
      </trkpt>
      <trkpt lat="45.20111" lon="5.72519">
        <ele>482.20001220703</ele>
        <time>2022-06-02T03:26:30.000Z</time>
      </trkpt>
      <trkpt lat="45.2011" lon="5.7252">
        <ele>481.79998779297</ele>
        <time>2022-06-02T03:26:31.000Z</time>
      </trkpt>
      <trkpt lat="45.20109" lon="5.72522">
        <ele>481.60000610352</ele>
        <time>2022-06-02T03:26:32.000Z</time>
      </trkpt>
      <trkpt lat="45.2011" lon="5.72524">
        <ele>481.39999389648</ele>
        <time>2022-06-02T03:26:33.000Z</time>
      </trkpt>
      <trkpt lat="45.2011" lon="5.72526">
        <ele>480.60000610352</ele>
        <time>2022-06-02T03:26:34.000Z</time>
      </trkpt>
      <trkpt lat="45.2011" lon="5.72528">
        <ele>480.60000610352</ele>
        <time>2022-06-02T03:26:35.000Z</time>
      </trkpt>
      <trkpt lat="45.2011" lon="5.72528">
        <ele>480.39999389648</ele>
        <time>2022-06-02T03:26:36.000Z</time>
      </trkpt>
      <trkpt lat="45.20109" lon="5.72529">
        <ele>480</ele>
        <time>2022-06-02T03:26:37.000Z</time>
      </trkpt>
      <trkpt lat="45.20109" lon="5.72532">
        <ele>479.79998779297</ele>
        <time>2022-06-02T03:26:38.000Z</time>
      </trkpt>
      <trkpt lat="45.20109" lon="5.72534">
        <ele>479.60000610352</ele>
        <time>2022-06-02T03:26:39.000Z</time>
      </trkpt>
      <trkpt lat="45.2011" lon="5.72536">
        <ele>479.60000610352</ele>
        <time>2022-06-02T03:26:40.000Z</time>
      </trkpt>
      <trkpt lat="45.2011" lon="5.72539">
        <ele>479.39999389648</ele>
        <time>2022-06-02T03:26:41.000Z</time>
      </trkpt>
      <trkpt lat="45.20111" lon="5.7254">
        <ele>479.20001220703</ele>
        <time>2022-06-02T03:26:42.000Z</time>
      </trkpt>
      <trkpt lat="45.20111" lon="5.72541">
        <ele>479.20001220703</ele>
        <time>2022-06-02T03:26:43.000Z</time>
      </trkpt>
      <trkpt lat="45.20112" lon="5.72543">
        <ele>479.20001220703</ele>
        <time>2022-06-02T03:26:44.000Z</time>
      </trkpt>
      <trkpt lat="45.20113" lon="5.72545">
        <ele>478.79998779297</ele>
        <time>2022-06-02T03:26:45.000Z</time>
      </trkpt>
      <trkpt lat="45.20114" lon="5.72547">
        <ele>478.39999389648</ele>
        <time>2022-06-02T03:26:46.000Z</time>
      </trkpt>
      <trkpt lat="45.20114" lon="5.72548">
        <ele>477.60000610352</ele>
        <time>2022-06-02T03:26:47.000Z</time>
      </trkpt>
      <trkpt lat="45.20114" lon="5.72549">
        <ele>477.60000610352</ele>
        <time>2022-06-02T03:26:48.000Z</time>
      </trkpt>
      <trkpt lat="45.20113" lon="5.72548">
        <ele>477.60000610352</ele>
        <time>2022-06-02T03:26:49.000Z</time>
      </trkpt>
      <trkpt lat="45.20112" lon="5.72548">
        <ele>477.60000610352</ele>
        <time>2022-06-02T03:26:50.000Z</time>
      </trkpt>
      <trkpt lat="45.20111" lon="5.72548">
        <ele>477</ele>
        <time>2022-06-02T03:26:51.000Z</time>
      </trkpt>
      <trkpt lat="45.2011" lon="5.72547">
        <ele>476.79998779297</ele>
        <time>2022-06-02T03:26:52.000Z</time>
      </trkpt>
      <trkpt lat="45.2011" lon="5.72546">
        <ele>476.39999389648</ele>
        <time>2022-06-02T03:26:53.000Z</time>
      </trkpt>
      <trkpt lat="45.20109" lon="5.72545">
        <ele>476.20001220703</ele>
        <time>2022-06-02T03:26:54.000Z</time>
      </trkpt>
      <trkpt lat="45.20108" lon="5.72545">
        <ele>476.20001220703</ele>
        <time>2022-06-02T03:26:55.000Z</time>
      </trkpt>
      <trkpt lat="45.20107" lon="5.72545">
        <ele>475.60000610352</ele>
        <time>2022-06-02T03:26:56.000Z</time>
      </trkpt>
      <trkpt lat="45.20105" lon="5.72545">
        <ele>475.60000610352</ele>
        <time>2022-06-02T03:26:57.000Z</time>
      </trkpt>
      <trkpt lat="45.20103" lon="5.72544">
        <ele>475.39999389648</ele>
        <time>2022-06-02T03:26:58.000Z</time>
      </trkpt>
      <trkpt lat="45.20101" lon="5.72544">
        <ele>475.20001220703</ele>
        <time>2022-06-02T03:26:59.000Z</time>
      </trkpt>
      <trkpt lat="45.201" lon="5.72544">
        <ele>474.20001220703</ele>
        <time>2022-06-02T03:27:00.000Z</time>
      </trkpt>
      <trkpt lat="45.20099" lon="5.72544">
        <ele>474</ele>
        <time>2022-06-02T03:27:01.000Z</time>
      </trkpt>
      <trkpt lat="45.20098" lon="5.72544">
        <ele>473.79998779297</ele>
        <time>2022-06-02T03:27:02.000Z</time>
      </trkpt>
      <trkpt lat="45.20096" lon="5.72543">
        <ele>473.60000610352</ele>
        <time>2022-06-02T03:27:03.000Z</time>
      </trkpt>
      <trkpt lat="45.20094" lon="5.72543">
        <ele>472.79998779297</ele>
        <time>2022-06-02T03:27:04.000Z</time>
      </trkpt>
      <trkpt lat="45.20091" lon="5.72543">
        <ele>472.60000610352</ele>
        <time>2022-06-02T03:27:05.000Z</time>
      </trkpt>
      <trkpt lat="45.2009" lon="5.72543">
        <ele>471.79998779297</ele>
        <time>2022-06-02T03:27:06.000Z</time>
      </trkpt>
      <trkpt lat="45.20089" lon="5.72543">
        <ele>470</ele>
        <time>2022-06-02T03:27:07.000Z</time>
      </trkpt>
      <trkpt lat="45.20088" lon="5.72544">
        <ele>470.20001220703</ele>
        <time>2022-06-02T03:27:08.000Z</time>
      </trkpt>
      <trkpt lat="45.20087" lon="5.72544">
        <ele>470.20001220703</ele>
        <time>2022-06-02T03:27:09.000Z</time>
      </trkpt>
      <trkpt lat="45.20084" lon="5.72544">
        <ele>469.60000610352</ele>
        <time>2022-06-02T03:27:10.000Z</time>
      </trkpt>
      <trkpt lat="45.20082" lon="5.72543">
        <ele>469.39999389648</ele>
        <time>2022-06-02T03:27:11.000Z</time>
      </trkpt>
      <trkpt lat="45.2008" lon="5.72543">
        <ele>469.79998779297</ele>
        <time>2022-06-02T03:27:12.000Z</time>
      </trkpt>
      <trkpt lat="45.20078" lon="5.72542">
        <ele>469.39999389648</ele>
        <time>2022-06-02T03:27:13.000Z</time>
      </trkpt>
      <trkpt lat="45.20075" lon="5.7254">
        <ele>469.20001220703</ele>
        <time>2022-06-02T03:27:14.000Z</time>
      </trkpt>
      <trkpt lat="45.20073" lon="5.72537">
        <ele>469.20001220703</ele>
        <time>2022-06-02T03:27:15.000Z</time>
      </trkpt>
      <trkpt lat="45.20071" lon="5.72534">
        <ele>469.20001220703</ele>
        <time>2022-06-02T03:27:16.000Z</time>
      </trkpt>
      <trkpt lat="45.2007" lon="5.72532">
        <ele>469</ele>
        <time>2022-06-02T03:27:17.000Z</time>
      </trkpt>
      <trkpt lat="45.20068" lon="5.72529">
        <ele>469</ele>
        <time>2022-06-02T03:27:18.000Z</time>
      </trkpt>
      <trkpt lat="45.20067" lon="5.72525">
        <ele>468.60000610352</ele>
        <time>2022-06-02T03:27:19.000Z</time>
      </trkpt>
      <trkpt lat="45.20066" lon="5.72521">
        <ele>468.60000610352</ele>
        <time>2022-06-02T03:27:20.000Z</time>
      </trkpt>
      <trkpt lat="45.20066" lon="5.72518">
        <ele>468.60000610352</ele>
        <time>2022-06-02T03:27:21.000Z</time>
      </trkpt>
      <trkpt lat="45.20067" lon="5.72514">
        <ele>468.79998779297</ele>
        <time>2022-06-02T03:27:22.000Z</time>
      </trkpt>
      <trkpt lat="45.20068" lon="5.72511">
        <ele>468.79998779297</ele>
        <time>2022-06-02T03:27:23.000Z</time>
      </trkpt>
      <trkpt lat="45.20068" lon="5.72507">
        <ele>468.20001220703</ele>
        <time>2022-06-02T03:27:24.000Z</time>
      </trkpt>
      <trkpt lat="45.20069" lon="5.72504">
        <ele>468.20001220703</ele>
        <time>2022-06-02T03:27:25.000Z</time>
      </trkpt>
      <trkpt lat="45.2007" lon="5.725">
        <ele>467.79998779297</ele>
        <time>2022-06-02T03:27:26.000Z</time>
      </trkpt>
      <trkpt lat="45.20071" lon="5.72497">
        <ele>467.79998779297</ele>
        <time>2022-06-02T03:27:27.000Z</time>
      </trkpt>
      <trkpt lat="45.20073" lon="5.72493">
        <ele>467.79998779297</ele>
        <time>2022-06-02T03:27:28.000Z</time>
      </trkpt>
      <trkpt lat="45.20074" lon="5.7249">
        <ele>468</ele>
        <time>2022-06-02T03:27:29.000Z</time>
      </trkpt>
      <trkpt lat="45.20074" lon="5.72486">
        <ele>467.60000610352</ele>
        <time>2022-06-02T03:27:30.000Z</time>
      </trkpt>
      <trkpt lat="45.20075" lon="5.72483">
        <ele>467.60000610352</ele>
        <time>2022-06-02T03:27:31.000Z</time>
      </trkpt>
      <trkpt lat="45.20075" lon="5.72479">
        <ele>467.60000610352</ele>
        <time>2022-06-02T03:27:32.000Z</time>
      </trkpt>
      <trkpt lat="45.20075" lon="5.72475">
        <ele>467.60000610352</ele>
        <time>2022-06-02T03:27:33.000Z</time>
      </trkpt>
      <trkpt lat="45.20075" lon="5.72472">
        <ele>467</ele>
        <time>2022-06-02T03:27:34.000Z</time>
      </trkpt>
      <trkpt lat="45.20074" lon="5.72469">
        <ele>466.60000610352</ele>
        <time>2022-06-02T03:27:35.000Z</time>
      </trkpt>
      <trkpt lat="45.20074" lon="5.72465">
        <ele>466.60000610352</ele>
        <time>2022-06-02T03:27:36.000Z</time>
      </trkpt>
      <trkpt lat="45.20073" lon="5.72462">
        <ele>466.39999389648</ele>
        <time>2022-06-02T03:27:37.000Z</time>
      </trkpt>
      <trkpt lat="45.20073" lon="5.72459">
        <ele>466</ele>
        <time>2022-06-02T03:27:38.000Z</time>
      </trkpt>
      <trkpt lat="45.20073" lon="5.72456">
        <ele>466.20001220703</ele>
        <time>2022-06-02T03:27:39.000Z</time>
      </trkpt>
      <trkpt lat="45.20072" lon="5.72453">
        <ele>465.60000610352</ele>
        <time>2022-06-02T03:27:40.000Z</time>
      </trkpt>
      <trkpt lat="45.20071" lon="5.7245">
        <ele>465.20001220703</ele>
        <time>2022-06-02T03:27:41.000Z</time>
      </trkpt>
      <trkpt lat="45.2007" lon="5.72446">
        <ele>465</ele>
        <time>2022-06-02T03:27:42.000Z</time>
      </trkpt>
      <trkpt lat="45.20068" lon="5.72443">
        <ele>464.60000610352</ele>
        <time>2022-06-02T03:27:43.000Z</time>
      </trkpt>
      <trkpt lat="45.20067" lon="5.72439">
        <ele>464.20001220703</ele>
        <time>2022-06-02T03:27:44.000Z</time>
      </trkpt>
      <trkpt lat="45.20066" lon="5.72437">
        <ele>464</ele>
        <time>2022-06-02T03:27:45.000Z</time>
      </trkpt>
      <trkpt lat="45.20064" lon="5.72435">
        <ele>464</ele>
        <time>2022-06-02T03:27:46.000Z</time>
      </trkpt>
      <trkpt lat="45.20062" lon="5.72433">
        <ele>464</ele>
        <time>2022-06-02T03:27:47.000Z</time>
      </trkpt>
      <trkpt lat="45.2006" lon="5.72432">
        <ele>463.39999389648</ele>
        <time>2022-06-02T03:27:48.000Z</time>
      </trkpt>
      <trkpt lat="45.20058" lon="5.72431">
        <ele>463.39999389648</ele>
        <time>2022-06-02T03:27:49.000Z</time>
      </trkpt>
      <trkpt lat="45.20055" lon="5.7243">
        <ele>463</ele>
        <time>2022-06-02T03:27:50.000Z</time>
      </trkpt>
      <trkpt lat="45.20053" lon="5.72429">
        <ele>462.39999389648</ele>
        <time>2022-06-02T03:27:51.000Z</time>
      </trkpt>
      <trkpt lat="45.20051" lon="5.72429">
        <ele>462.20001220703</ele>
        <time>2022-06-02T03:27:52.000Z</time>
      </trkpt>
      <trkpt lat="45.20049" lon="5.72429">
        <ele>461.79998779297</ele>
        <time>2022-06-02T03:27:53.000Z</time>
      </trkpt>
      <trkpt lat="45.20046" lon="5.72428">
        <ele>461.20001220703</ele>
        <time>2022-06-02T03:27:54.000Z</time>
      </trkpt>
      <trkpt lat="45.20044" lon="5.72428">
        <ele>461.20001220703</ele>
        <time>2022-06-02T03:27:55.000Z</time>
      </trkpt>
      <trkpt lat="45.20041" lon="5.72428">
        <ele>460.79998779297</ele>
        <time>2022-06-02T03:27:56.000Z</time>
      </trkpt>
      <trkpt lat="45.20039" lon="5.72428">
        <ele>460.60000610352</ele>
        <time>2022-06-02T03:27:57.000Z</time>
      </trkpt>
      <trkpt lat="45.20036" lon="5.72427">
        <ele>460.60000610352</ele>
        <time>2022-06-02T03:27:58.000Z</time>
      </trkpt>
      <trkpt lat="45.20034" lon="5.72427">
        <ele>460</ele>
        <time>2022-06-02T03:27:59.000Z</time>
      </trkpt>
      <trkpt lat="45.20031" lon="5.72427">
        <ele>460</ele>
        <time>2022-06-02T03:28:00.000Z</time>
      </trkpt>
      <trkpt lat="45.20029" lon="5.72427">
        <ele>459.39999389648</ele>
        <time>2022-06-02T03:28:01.000Z</time>
      </trkpt>
      <trkpt lat="45.20027" lon="5.72426">
        <ele>460</ele>
        <time>2022-06-02T03:28:02.000Z</time>
      </trkpt>
      <trkpt lat="45.20024" lon="5.72426">
        <ele>459.39999389648</ele>
        <time>2022-06-02T03:28:03.000Z</time>
      </trkpt>
      <trkpt lat="45.20022" lon="5.72426">
        <ele>459.39999389648</ele>
        <time>2022-06-02T03:28:04.000Z</time>
      </trkpt>
      <trkpt lat="45.20019" lon="5.72426">
        <ele>458.39999389648</ele>
        <time>2022-06-02T03:28:05.000Z</time>
      </trkpt>
      <trkpt lat="45.20016" lon="5.72425">
        <ele>458.39999389648</ele>
        <time>2022-06-02T03:28:06.000Z</time>
      </trkpt>
      <trkpt lat="45.20014" lon="5.72425">
        <ele>458.60000610352</ele>
        <time>2022-06-02T03:28:07.000Z</time>
      </trkpt>
      <trkpt lat="45.20011" lon="5.72425">
        <ele>458</ele>
        <time>2022-06-02T03:28:08.000Z</time>
      </trkpt>
      <trkpt lat="45.20009" lon="5.72425">
        <ele>457.79998779297</ele>
        <time>2022-06-02T03:28:09.000Z</time>
      </trkpt>
      <trkpt lat="45.20007" lon="5.72425">
        <ele>457.60000610352</ele>
        <time>2022-06-02T03:28:10.000Z</time>
      </trkpt>
      <trkpt lat="45.20005" lon="5.72425">
        <ele>457.20001220703</ele>
        <time>2022-06-02T03:28:11.000Z</time>
      </trkpt>
      <trkpt lat="45.20003" lon="5.72425">
        <ele>456.79998779297</ele>
        <time>2022-06-02T03:28:12.000Z</time>
      </trkpt>
      <trkpt lat="45.2" lon="5.72424">
        <ele>456.79998779297</ele>
        <time>2022-06-02T03:28:13.000Z</time>
      </trkpt>
      <trkpt lat="45.19998" lon="5.72424">
        <ele>456</ele>
        <time>2022-06-02T03:28:14.000Z</time>
      </trkpt>
      <trkpt lat="45.19997" lon="5.72424">
        <ele>455.60000610352</ele>
        <time>2022-06-02T03:28:15.000Z</time>
      </trkpt>
      <trkpt lat="45.19995" lon="5.72424">
        <ele>455.60000610352</ele>
        <time>2022-06-02T03:28:16.000Z</time>
      </trkpt>
      <trkpt lat="45.19994" lon="5.72424">
        <ele>455.60000610352</ele>
        <time>2022-06-02T03:28:17.000Z</time>
      </trkpt>
      <trkpt lat="45.19994" lon="5.72424">
        <ele>455.39999389648</ele>
        <time>2022-06-02T03:28:18.000Z</time>
      </trkpt>
      <trkpt lat="45.19993" lon="5.72424">
        <ele>455.20001220703</ele>
        <time>2022-06-02T03:28:19.000Z</time>
      </trkpt>
      <trkpt lat="45.19993" lon="5.72425">
        <ele>455.39999389648</ele>
        <time>2022-06-02T03:28:20.000Z</time>
      </trkpt>
      <trkpt lat="45.19993" lon="5.72425">
        <ele>455.39999389648</ele>
        <time>2022-06-02T03:28:21.000Z</time>
      </trkpt>
      <trkpt lat="45.19993" lon="5.72425">
        <ele>455.39999389648</ele>
        <time>2022-06-02T03:28:22.000Z</time>
      </trkpt>
      <trkpt lat="45.19993" lon="5.72425">
        <ele>455.39999389648</ele>
        <time>2022-06-02T03:28:23.000Z</time>
      </trkpt>
      <trkpt lat="45.19992" lon="5.72425">
        <ele>455.39999389648</ele>
        <time>2022-06-02T03:28:24.000Z</time>
      </trkpt>
      <trkpt lat="45.19992" lon="5.72425">
        <ele>455.39999389648</ele>
        <time>2022-06-02T03:28:25.000Z</time>
      </trkpt>
      <trkpt lat="45.19992" lon="5.72425">
        <ele>455.39999389648</ele>
        <time>2022-06-02T03:28:26.000Z</time>
      </trkpt>
      <trkpt lat="45.19992" lon="5.72425">
        <ele>455.39999389648</ele>
        <time>2022-06-02T03:28:27.000Z</time>
      </trkpt>
      <trkpt lat="45.19992" lon="5.72425">
        <ele>455.39999389648</ele>
        <time>2022-06-02T03:28:28.000Z</time>
      </trkpt>
      <trkpt lat="45.19992" lon="5.72425">
        <ele>455.39999389648</ele>
        <time>2022-06-02T03:28:29.000Z</time>
      </trkpt>
      <trkpt lat="45.19992" lon="5.72425">
        <ele>455.60000610352</ele>
        <time>2022-06-02T03:28:30.000Z</time>
      </trkpt>
      <trkpt lat="45.19992" lon="5.72425">
        <ele>455.39999389648</ele>
        <time>2022-06-02T03:28:31.000Z</time>
      </trkpt>
      <trkpt lat="45.19992" lon="5.72425">
        <ele>455.60000610352</ele>
        <time>2022-06-02T03:28:32.000Z</time>
      </trkpt>
      <trkpt lat="45.19992" lon="5.72425">
        <ele>455.60000610352</ele>
        <time>2022-06-02T03:28:33.000Z</time>
      </trkpt>
      <trkpt lat="45.19992" lon="5.72424">
        <ele>455.39999389648</ele>
        <time>2022-06-02T03:28:34.000Z</time>
      </trkpt>
      <trkpt lat="45.19992" lon="5.72425">
        <ele>455.20001220703</ele>
        <time>2022-06-02T03:28:35.000Z</time>
      </trkpt>
      <trkpt lat="45.19992" lon="5.72425">
        <ele>455.20001220703</ele>
        <time>2022-06-02T03:28:36.000Z</time>
      </trkpt>
      <trkpt lat="45.19992" lon="5.72424">
        <ele>455.20001220703</ele>
        <time>2022-06-02T03:28:37.000Z</time>
      </trkpt>
      <trkpt lat="45.19992" lon="5.72425">
        <ele>455.20001220703</ele>
        <time>2022-06-02T03:28:38.000Z</time>
      </trkpt>
      <trkpt lat="45.19992" lon="5.72425">
        <ele>455.20001220703</ele>
        <time>2022-06-02T03:28:39.000Z</time>
      </trkpt>
      <trkpt lat="45.19992" lon="5.72425">
        <ele>455.20001220703</ele>
        <time>2022-06-02T03:28:40.000Z</time>
      </trkpt>
      <trkpt lat="45.19992" lon="5.72424">
        <ele>455.20001220703</ele>
        <time>2022-06-02T03:28:41.000Z</time>
      </trkpt>
      <trkpt lat="45.19992" lon="5.72424">
        <ele>455.39999389648</ele>
        <time>2022-06-02T03:28:42.000Z</time>
      </trkpt>
      <trkpt lat="45.19992" lon="5.72424">
        <ele>455.20001220703</ele>
        <time>2022-06-02T03:28:43.000Z</time>
      </trkpt>
      <trkpt lat="45.19992" lon="5.72424">
        <ele>455.20001220703</ele>
        <time>2022-06-02T03:28:44.000Z</time>
      </trkpt>
      <trkpt lat="45.19992" lon="5.72424">
        <ele>455.20001220703</ele>
        <time>2022-06-02T03:28:45.000Z</time>
      </trkpt>
      <trkpt lat="45.19992" lon="5.72424">
        <ele>455.39999389648</ele>
        <time>2022-06-02T03:28:46.000Z</time>
      </trkpt>
      <trkpt lat="45.19992" lon="5.72424">
        <ele>455.39999389648</ele>
        <time>2022-06-02T03:28:47.000Z</time>
      </trkpt>
      <trkpt lat="45.19992" lon="5.72424">
        <ele>455.20001220703</ele>
        <time>2022-06-02T03:28:48.000Z</time>
      </trkpt>
      <trkpt lat="45.19992" lon="5.72424">
        <ele>455.20001220703</ele>
        <time>2022-06-02T03:28:49.000Z</time>
      </trkpt>
      <trkpt lat="45.19992" lon="5.72424">
        <ele>455.20001220703</ele>
        <time>2022-06-02T03:28:50.000Z</time>
      </trkpt>
      <trkpt lat="45.19992" lon="5.72424">
        <ele>455.39999389648</ele>
        <time>2022-06-02T03:28:51.000Z</time>
      </trkpt>
      <trkpt lat="45.19992" lon="5.72423">
        <ele>455.39999389648</ele>
        <time>2022-06-02T03:28:52.000Z</time>
      </trkpt>
      <trkpt lat="45.19992" lon="5.72423">
        <ele>455.20001220703</ele>
        <time>2022-06-02T03:28:53.000Z</time>
      </trkpt>
      <trkpt lat="45.19992" lon="5.72423">
        <ele>455.20001220703</ele>
        <time>2022-06-02T03:28:54.000Z</time>
      </trkpt>
      <trkpt lat="45.19992" lon="5.72423">
        <ele>455.20001220703</ele>
        <time>2022-06-02T03:28:55.000Z</time>
      </trkpt>
      <trkpt lat="45.19991" lon="5.72423">
        <ele>454.79998779297</ele>
        <time>2022-06-02T03:28:56.000Z</time>
      </trkpt>
      <trkpt lat="45.1999" lon="5.72423">
        <ele>454.79998779297</ele>
        <time>2022-06-02T03:28:57.000Z</time>
      </trkpt>
      <trkpt lat="45.19989" lon="5.72423">
        <ele>454.60000610352</ele>
        <time>2022-06-02T03:28:58.000Z</time>
      </trkpt>
      <trkpt lat="45.19987" lon="5.72423">
        <ele>454.60000610352</ele>
        <time>2022-06-02T03:28:59.000Z</time>
      </trkpt>
      <trkpt lat="45.19987" lon="5.72423">
        <ele>454.39999389648</ele>
        <time>2022-06-02T03:29:00.000Z</time>
      </trkpt>
      <trkpt lat="45.19987" lon="5.72422">
        <ele>454.20001220703</ele>
        <time>2022-06-02T03:29:01.000Z</time>
      </trkpt>
      <trkpt lat="45.19986" lon="5.72422">
        <ele>454.20001220703</ele>
        <time>2022-06-02T03:29:02.000Z</time>
      </trkpt>
      <trkpt lat="45.19985" lon="5.72422">
        <ele>454.20001220703</ele>
        <time>2022-06-02T03:29:03.000Z</time>
      </trkpt>
      <trkpt lat="45.19985" lon="5.72422">
        <ele>454</ele>
        <time>2022-06-02T03:29:04.000Z</time>
      </trkpt>
      <trkpt lat="45.19984" lon="5.72422">
        <ele>453.79998779297</ele>
        <time>2022-06-02T03:29:05.000Z</time>
      </trkpt>
      <trkpt lat="45.19983" lon="5.72422">
        <ele>453.60000610352</ele>
        <time>2022-06-02T03:29:06.000Z</time>
      </trkpt>
      <trkpt lat="45.19983" lon="5.72422">
        <ele>453.60000610352</ele>
        <time>2022-06-02T03:29:07.000Z</time>
      </trkpt>
      <trkpt lat="45.19983" lon="5.72422">
        <ele>453.60000610352</ele>
        <time>2022-06-02T03:29:08.000Z</time>
      </trkpt>
      <trkpt lat="45.19982" lon="5.72422">
        <ele>453.79998779297</ele>
        <time>2022-06-02T03:29:09.000Z</time>
      </trkpt>
      <trkpt lat="45.19982" lon="5.72422">
        <ele>453.60000610352</ele>
        <time>2022-06-02T03:29:10.000Z</time>
      </trkpt>
      <trkpt lat="45.19982" lon="5.72422">
        <ele>453.60000610352</ele>
        <time>2022-06-02T03:29:11.000Z</time>
      </trkpt>
      <trkpt lat="45.19982" lon="5.72422">
        <ele>453.60000610352</ele>
        <time>2022-06-02T03:29:12.000Z</time>
      </trkpt>
      <trkpt lat="45.19982" lon="5.72422">
        <ele>453.79998779297</ele>
        <time>2022-06-02T03:29:13.000Z</time>
      </trkpt>
      <trkpt lat="45.19982" lon="5.72422">
        <ele>453.79998779297</ele>
        <time>2022-06-02T03:29:14.000Z</time>
      </trkpt>
      <trkpt lat="45.19982" lon="5.72422">
        <ele>453.60000610352</ele>
        <time>2022-06-02T03:29:15.000Z</time>
      </trkpt>
      <trkpt lat="45.19983" lon="5.72422">
        <ele>453.60000610352</ele>
        <time>2022-06-02T03:29:16.000Z</time>
      </trkpt>
      <trkpt lat="45.19982" lon="5.72422">
        <ele>453.39999389648</ele>
        <time>2022-06-02T03:29:17.000Z</time>
      </trkpt>
      <trkpt lat="45.19981" lon="5.72422">
        <ele>453.39999389648</ele>
        <time>2022-06-02T03:29:18.000Z</time>
      </trkpt>
      <trkpt lat="45.1998" lon="5.72422">
        <ele>453.39999389648</ele>
        <time>2022-06-02T03:29:19.000Z</time>
      </trkpt>
      <trkpt lat="45.1998" lon="5.72422">
        <ele>453.39999389648</ele>
        <time>2022-06-02T03:29:20.000Z</time>
      </trkpt>
      <trkpt lat="45.19979" lon="5.72421">
        <ele>453.20001220703</ele>
        <time>2022-06-02T03:29:21.000Z</time>
      </trkpt>
      <trkpt lat="45.19978" lon="5.72421">
        <ele>453.20001220703</ele>
        <time>2022-06-02T03:29:22.000Z</time>
      </trkpt>
      <trkpt lat="45.19976" lon="5.72421">
        <ele>453.20001220703</ele>
        <time>2022-06-02T03:29:23.000Z</time>
      </trkpt>
      <trkpt lat="45.19975" lon="5.72421">
        <ele>453</ele>
        <time>2022-06-02T03:29:24.000Z</time>
      </trkpt>
      <trkpt lat="45.19975" lon="5.72421">
        <ele>452.79998779297</ele>
        <time>2022-06-02T03:29:25.000Z</time>
      </trkpt>
      <trkpt lat="45.19974" lon="5.72421">
        <ele>452.60000610352</ele>
        <time>2022-06-02T03:29:26.000Z</time>
      </trkpt>
      <trkpt lat="45.19973" lon="5.7242">
        <ele>452.79998779297</ele>
        <time>2022-06-02T03:29:27.000Z</time>
      </trkpt>
      <trkpt lat="45.19972" lon="5.7242">
        <ele>452.60000610352</ele>
        <time>2022-06-02T03:29:28.000Z</time>
      </trkpt>
      <trkpt lat="45.19971" lon="5.7242">
        <ele>452.39999389648</ele>
        <time>2022-06-02T03:29:29.000Z</time>
      </trkpt>
      <trkpt lat="45.1997" lon="5.7242">
        <ele>452.39999389648</ele>
        <time>2022-06-02T03:29:30.000Z</time>
      </trkpt>
      <trkpt lat="45.19969" lon="5.7242">
        <ele>452</ele>
        <time>2022-06-02T03:29:31.000Z</time>
      </trkpt>
      <trkpt lat="45.19967" lon="5.7242">
        <ele>452</ele>
        <time>2022-06-02T03:29:32.000Z</time>
      </trkpt>
      <trkpt lat="45.19965" lon="5.72419">
        <ele>451.60000610352</ele>
        <time>2022-06-02T03:29:33.000Z</time>
      </trkpt>
      <trkpt lat="45.19964" lon="5.72419">
        <ele>451.39999389648</ele>
        <time>2022-06-02T03:29:34.000Z</time>
      </trkpt>
      <trkpt lat="45.19962" lon="5.72419">
        <ele>451.20001220703</ele>
        <time>2022-06-02T03:29:35.000Z</time>
      </trkpt>
      <trkpt lat="45.19961" lon="5.7242">
        <ele>451</ele>
        <time>2022-06-02T03:29:36.000Z</time>
      </trkpt>
      <trkpt lat="45.19959" lon="5.7242">
        <ele>450.79998779297</ele>
        <time>2022-06-02T03:29:37.000Z</time>
      </trkpt>
      <trkpt lat="45.19957" lon="5.7242">
        <ele>450.79998779297</ele>
        <time>2022-06-02T03:29:38.000Z</time>
      </trkpt>
      <trkpt lat="45.19955" lon="5.7242">
        <ele>450.79998779297</ele>
        <time>2022-06-02T03:29:39.000Z</time>
      </trkpt>
      <trkpt lat="45.19953" lon="5.72421">
        <ele>450.79998779297</ele>
        <time>2022-06-02T03:29:40.000Z</time>
      </trkpt>
      <trkpt lat="45.19951" lon="5.72421">
        <ele>450.60000610352</ele>
        <time>2022-06-02T03:29:41.000Z</time>
      </trkpt>
      <trkpt lat="45.1995" lon="5.72421">
        <ele>450.60000610352</ele>
        <time>2022-06-02T03:29:42.000Z</time>
      </trkpt>
      <trkpt lat="45.19948" lon="5.72421">
        <ele>450.20001220703</ele>
        <time>2022-06-02T03:29:43.000Z</time>
      </trkpt>
      <trkpt lat="45.19945" lon="5.72422">
        <ele>450</ele>
        <time>2022-06-02T03:29:44.000Z</time>
      </trkpt>
      <trkpt lat="45.19943" lon="5.72421">
        <ele>450</ele>
        <time>2022-06-02T03:29:45.000Z</time>
      </trkpt>
      <trkpt lat="45.1994" lon="5.72421">
        <ele>450</ele>
        <time>2022-06-02T03:29:46.000Z</time>
      </trkpt>
      <trkpt lat="45.19938" lon="5.72422">
        <ele>450</ele>
        <time>2022-06-02T03:29:47.000Z</time>
      </trkpt>
      <trkpt lat="45.19936" lon="5.72422">
        <ele>450</ele>
        <time>2022-06-02T03:29:48.000Z</time>
      </trkpt>
      <trkpt lat="45.19933" lon="5.72423">
        <ele>449.79998779297</ele>
        <time>2022-06-02T03:29:49.000Z</time>
      </trkpt>
      <trkpt lat="45.19931" lon="5.72424">
        <ele>450</ele>
        <time>2022-06-02T03:29:50.000Z</time>
      </trkpt>
      <trkpt lat="45.1993" lon="5.72425">
        <ele>450.20001220703</ele>
        <time>2022-06-02T03:29:51.000Z</time>
      </trkpt>
      <trkpt lat="45.19927" lon="5.72426">
        <ele>450.60000610352</ele>
        <time>2022-06-02T03:29:52.000Z</time>
      </trkpt>
      <trkpt lat="45.19925" lon="5.72427">
        <ele>451.20001220703</ele>
        <time>2022-06-02T03:29:53.000Z</time>
      </trkpt>
      <trkpt lat="45.19922" lon="5.72428">
        <ele>451</ele>
        <time>2022-06-02T03:29:54.000Z</time>
      </trkpt>
      <trkpt lat="45.1992" lon="5.7243">
        <ele>451.60000610352</ele>
        <time>2022-06-02T03:29:55.000Z</time>
      </trkpt>
      <trkpt lat="45.19917" lon="5.72431">
        <ele>451.60000610352</ele>
        <time>2022-06-02T03:29:56.000Z</time>
      </trkpt>
      <trkpt lat="45.19914" lon="5.72432">
        <ele>452.39999389648</ele>
        <time>2022-06-02T03:29:57.000Z</time>
      </trkpt>
      <trkpt lat="45.19912" lon="5.72433">
        <ele>452.39999389648</ele>
        <time>2022-06-02T03:29:58.000Z</time>
      </trkpt>
      <trkpt lat="45.19909" lon="5.72434">
        <ele>452</ele>
        <time>2022-06-02T03:29:59.000Z</time>
      </trkpt>
      <trkpt lat="45.19906" lon="5.72435">
        <ele>452.20001220703</ele>
        <time>2022-06-02T03:30:00.000Z</time>
      </trkpt>
      <trkpt lat="45.19903" lon="5.72436">
        <ele>453</ele>
        <time>2022-06-02T03:30:01.000Z</time>
      </trkpt>
      <trkpt lat="45.19901" lon="5.72436">
        <ele>452.79998779297</ele>
        <time>2022-06-02T03:30:02.000Z</time>
      </trkpt>
      <trkpt lat="45.19897" lon="5.72437">
        <ele>452.79998779297</ele>
        <time>2022-06-02T03:30:03.000Z</time>
      </trkpt>
      <trkpt lat="45.19896" lon="5.72438">
        <ele>453.20001220703</ele>
        <time>2022-06-02T03:30:04.000Z</time>
      </trkpt>
      <trkpt lat="45.19893" lon="5.72439">
        <ele>453.79998779297</ele>
        <time>2022-06-02T03:30:05.000Z</time>
      </trkpt>
      <trkpt lat="45.1989" lon="5.7244">
        <ele>453.60000610352</ele>
        <time>2022-06-02T03:30:06.000Z</time>
      </trkpt>
      <trkpt lat="45.19887" lon="5.72442">
        <ele>454.20001220703</ele>
        <time>2022-06-02T03:30:07.000Z</time>
      </trkpt>
      <trkpt lat="45.19885" lon="5.72445">
        <ele>454.39999389648</ele>
        <time>2022-06-02T03:30:08.000Z</time>
      </trkpt>
      <trkpt lat="45.19884" lon="5.72447">
        <ele>454.39999389648</ele>
        <time>2022-06-02T03:30:09.000Z</time>
      </trkpt>
      <trkpt lat="45.19883" lon="5.7245">
        <ele>454.39999389648</ele>
        <time>2022-06-02T03:30:10.000Z</time>
      </trkpt>
      <trkpt lat="45.19883" lon="5.72452">
        <ele>454.39999389648</ele>
        <time>2022-06-02T03:30:11.000Z</time>
      </trkpt>
      <trkpt lat="45.19883" lon="5.72453">
        <ele>455</ele>
        <time>2022-06-02T03:30:12.000Z</time>
      </trkpt>
      <trkpt lat="45.19884" lon="5.72454">
        <ele>454.79998779297</ele>
        <time>2022-06-02T03:30:13.000Z</time>
      </trkpt>
      <trkpt lat="45.19884" lon="5.72454">
        <ele>454.79998779297</ele>
        <time>2022-06-02T03:30:14.000Z</time>
      </trkpt>
      <trkpt lat="45.19885" lon="5.72456">
        <ele>454.60000610352</ele>
        <time>2022-06-02T03:30:15.000Z</time>
      </trkpt>
      <trkpt lat="45.19885" lon="5.72458">
        <ele>454.60000610352</ele>
        <time>2022-06-02T03:30:16.000Z</time>
      </trkpt>
      <trkpt lat="45.19884" lon="5.72462">
        <ele>455</ele>
        <time>2022-06-02T03:30:17.000Z</time>
      </trkpt>
      <trkpt lat="45.19884" lon="5.72466">
        <ele>455.20001220703</ele>
        <time>2022-06-02T03:30:18.000Z</time>
      </trkpt>
      <trkpt lat="45.19884" lon="5.72467">
        <ele>455.20001220703</ele>
        <time>2022-06-02T03:30:19.000Z</time>
      </trkpt>
      <trkpt lat="45.19884" lon="5.72471">
        <ele>455.39999389648</ele>
        <time>2022-06-02T03:30:20.000Z</time>
      </trkpt>
      <trkpt lat="45.19883" lon="5.72475">
        <ele>455.79998779297</ele>
        <time>2022-06-02T03:30:21.000Z</time>
      </trkpt>
      <trkpt lat="45.19881" lon="5.72477">
        <ele>455.39999389648</ele>
        <time>2022-06-02T03:30:22.000Z</time>
      </trkpt>
      <trkpt lat="45.1988" lon="5.72479">
        <ele>455.39999389648</ele>
        <time>2022-06-02T03:30:23.000Z</time>
      </trkpt>
      <trkpt lat="45.19879" lon="5.7248">
        <ele>455.20001220703</ele>
        <time>2022-06-02T03:30:24.000Z</time>
      </trkpt>
      <trkpt lat="45.19877" lon="5.7248">
        <ele>454.79998779297</ele>
        <time>2022-06-02T03:30:25.000Z</time>
      </trkpt>
      <trkpt lat="45.19875" lon="5.72481">
        <ele>454.79998779297</ele>
        <time>2022-06-02T03:30:26.000Z</time>
      </trkpt>
      <trkpt lat="45.19872" lon="5.72482">
        <ele>454.39999389648</ele>
        <time>2022-06-02T03:30:27.000Z</time>
      </trkpt>
      <trkpt lat="45.19869" lon="5.72483">
        <ele>454.39999389648</ele>
        <time>2022-06-02T03:30:28.000Z</time>
      </trkpt>
      <trkpt lat="45.19867" lon="5.72485">
        <ele>454.39999389648</ele>
        <time>2022-06-02T03:30:29.000Z</time>
      </trkpt>
      <trkpt lat="45.19865" lon="5.72486">
        <ele>454.60000610352</ele>
        <time>2022-06-02T03:30:30.000Z</time>
      </trkpt>
      <trkpt lat="45.19862" lon="5.7249">
        <ele>453.79998779297</ele>
        <time>2022-06-02T03:30:31.000Z</time>
      </trkpt>
      <trkpt lat="45.19859" lon="5.72494">
        <ele>454.20001220703</ele>
        <time>2022-06-02T03:30:32.000Z</time>
      </trkpt>
      <trkpt lat="45.19857" lon="5.72498">
        <ele>454.20001220703</ele>
        <time>2022-06-02T03:30:33.000Z</time>
      </trkpt>
      <trkpt lat="45.19857" lon="5.72502">
        <ele>453.79998779297</ele>
        <time>2022-06-02T03:30:34.000Z</time>
      </trkpt>
      <trkpt lat="45.19856" lon="5.72506">
        <ele>454.20001220703</ele>
        <time>2022-06-02T03:30:35.000Z</time>
      </trkpt>
      <trkpt lat="45.19856" lon="5.7251">
        <ele>453.60000610352</ele>
        <time>2022-06-02T03:30:36.000Z</time>
      </trkpt>
      <trkpt lat="45.19856" lon="5.72513">
        <ele>453.60000610352</ele>
        <time>2022-06-02T03:30:37.000Z</time>
      </trkpt>
      <trkpt lat="45.19856" lon="5.72517">
        <ele>453.39999389648</ele>
        <time>2022-06-02T03:30:38.000Z</time>
      </trkpt>
      <trkpt lat="45.19856" lon="5.7252">
        <ele>453.60000610352</ele>
        <time>2022-06-02T03:30:39.000Z</time>
      </trkpt>
      <trkpt lat="45.19857" lon="5.72523">
        <ele>453.20001220703</ele>
        <time>2022-06-02T03:30:40.000Z</time>
      </trkpt>
      <trkpt lat="45.19857" lon="5.72526">
        <ele>452.79998779297</ele>
        <time>2022-06-02T03:30:41.000Z</time>
      </trkpt>
      <trkpt lat="45.19857" lon="5.7253">
        <ele>452.60000610352</ele>
        <time>2022-06-02T03:30:42.000Z</time>
      </trkpt>
      <trkpt lat="45.19857" lon="5.72534">
        <ele>452</ele>
        <time>2022-06-02T03:30:43.000Z</time>
      </trkpt>
      <trkpt lat="45.19857" lon="5.72537">
        <ele>452</ele>
        <time>2022-06-02T03:30:44.000Z</time>
      </trkpt>
      <trkpt lat="45.19857" lon="5.72539">
        <ele>451.79998779297</ele>
        <time>2022-06-02T03:30:45.000Z</time>
      </trkpt>
      <trkpt lat="45.19858" lon="5.72543">
        <ele>451.39999389648</ele>
        <time>2022-06-02T03:30:46.000Z</time>
      </trkpt>
      <trkpt lat="45.19858" lon="5.72546">
        <ele>451.20001220703</ele>
        <time>2022-06-02T03:30:47.000Z</time>
      </trkpt>
      <trkpt lat="45.19858" lon="5.7255">
        <ele>451.39999389648</ele>
        <time>2022-06-02T03:30:48.000Z</time>
      </trkpt>
      <trkpt lat="45.19858" lon="5.72554">
        <ele>451.20001220703</ele>
        <time>2022-06-02T03:30:49.000Z</time>
      </trkpt>
      <trkpt lat="45.19857" lon="5.72554">
        <ele>450.79998779297</ele>
        <time>2022-06-02T03:30:50.000Z</time>
      </trkpt>
      <trkpt lat="45.19856" lon="5.72552">
        <ele>450.39999389648</ele>
        <time>2022-06-02T03:30:51.000Z</time>
      </trkpt>
      <trkpt lat="45.19855" lon="5.72549">
        <ele>450</ele>
        <time>2022-06-02T03:30:52.000Z</time>
      </trkpt>
      <trkpt lat="45.19854" lon="5.72545">
        <ele>450</ele>
        <time>2022-06-02T03:30:53.000Z</time>
      </trkpt>
      <trkpt lat="45.19854" lon="5.72541">
        <ele>450</ele>
        <time>2022-06-02T03:30:54.000Z</time>
      </trkpt>
      <trkpt lat="45.19853" lon="5.72538">
        <ele>449.79998779297</ele>
        <time>2022-06-02T03:30:55.000Z</time>
      </trkpt>
      <trkpt lat="45.19853" lon="5.72534">
        <ele>449.20001220703</ele>
        <time>2022-06-02T03:30:56.000Z</time>
      </trkpt>
      <trkpt lat="45.19853" lon="5.7253">
        <ele>449</ele>
        <time>2022-06-02T03:30:57.000Z</time>
      </trkpt>
      <trkpt lat="45.19852" lon="5.72527">
        <ele>448.79998779297</ele>
        <time>2022-06-02T03:30:58.000Z</time>
      </trkpt>
      <trkpt lat="45.19852" lon="5.72524">
        <ele>448.60000610352</ele>
        <time>2022-06-02T03:30:59.000Z</time>
      </trkpt>
      <trkpt lat="45.19852" lon="5.7252">
        <ele>448.60000610352</ele>
        <time>2022-06-02T03:31:00.000Z</time>
      </trkpt>
      <trkpt lat="45.19851" lon="5.72517">
        <ele>448.20001220703</ele>
        <time>2022-06-02T03:31:01.000Z</time>
      </trkpt>
      <trkpt lat="45.19851" lon="5.72513">
        <ele>448.20001220703</ele>
        <time>2022-06-02T03:31:02.000Z</time>
      </trkpt>
      <trkpt lat="45.1985" lon="5.7251">
        <ele>447.79998779297</ele>
        <time>2022-06-02T03:31:03.000Z</time>
      </trkpt>
      <trkpt lat="45.19849" lon="5.72506">
        <ele>447.39999389648</ele>
        <time>2022-06-02T03:31:04.000Z</time>
      </trkpt>
      <trkpt lat="45.19849" lon="5.72502">
        <ele>447.60000610352</ele>
        <time>2022-06-02T03:31:05.000Z</time>
      </trkpt>
      <trkpt lat="45.19849" lon="5.72498">
        <ele>447.39999389648</ele>
        <time>2022-06-02T03:31:06.000Z</time>
      </trkpt>
      <trkpt lat="45.19849" lon="5.72494">
        <ele>447</ele>
        <time>2022-06-02T03:31:07.000Z</time>
      </trkpt>
      <trkpt lat="45.19849" lon="5.7249">
        <ele>446.79998779297</ele>
        <time>2022-06-02T03:31:08.000Z</time>
      </trkpt>
      <trkpt lat="45.19849" lon="5.72487">
        <ele>446.60000610352</ele>
        <time>2022-06-02T03:31:09.000Z</time>
      </trkpt>
      <trkpt lat="45.19849" lon="5.72483">
        <ele>446.20001220703</ele>
        <time>2022-06-02T03:31:10.000Z</time>
      </trkpt>
      <trkpt lat="45.19849" lon="5.72479">
        <ele>446</ele>
        <time>2022-06-02T03:31:11.000Z</time>
      </trkpt>
      <trkpt lat="45.19848" lon="5.72475">
        <ele>445.79998779297</ele>
        <time>2022-06-02T03:31:12.000Z</time>
      </trkpt>
      <trkpt lat="45.19848" lon="5.72471">
        <ele>445.20001220703</ele>
        <time>2022-06-02T03:31:13.000Z</time>
      </trkpt>
      <trkpt lat="45.19848" lon="5.72468">
        <ele>445</ele>
        <time>2022-06-02T03:31:14.000Z</time>
      </trkpt>
      <trkpt lat="45.19848" lon="5.72465">
        <ele>444.79998779297</ele>
        <time>2022-06-02T03:31:15.000Z</time>
      </trkpt>
      <trkpt lat="45.19847" lon="5.72461">
        <ele>444.20001220703</ele>
        <time>2022-06-02T03:31:16.000Z</time>
      </trkpt>
      <trkpt lat="45.19847" lon="5.72457">
        <ele>444.20001220703</ele>
        <time>2022-06-02T03:31:17.000Z</time>
      </trkpt>
      <trkpt lat="45.19847" lon="5.72454">
        <ele>443.79998779297</ele>
        <time>2022-06-02T03:31:18.000Z</time>
      </trkpt>
      <trkpt lat="45.19846" lon="5.72451">
        <ele>443.60000610352</ele>
        <time>2022-06-02T03:31:19.000Z</time>
      </trkpt>
      <trkpt lat="45.19846" lon="5.72447">
        <ele>443.39999389648</ele>
        <time>2022-06-02T03:31:20.000Z</time>
      </trkpt>
      <trkpt lat="45.19845" lon="5.72442">
        <ele>442.79998779297</ele>
        <time>2022-06-02T03:31:21.000Z</time>
      </trkpt>
      <trkpt lat="45.19843" lon="5.72439">
        <ele>442.79998779297</ele>
        <time>2022-06-02T03:31:22.000Z</time>
      </trkpt>
      <trkpt lat="45.19842" lon="5.72438">
        <ele>443</ele>
        <time>2022-06-02T03:31:23.000Z</time>
      </trkpt>
      <trkpt lat="45.19841" lon="5.72439">
        <ele>442.60000610352</ele>
        <time>2022-06-02T03:31:24.000Z</time>
      </trkpt>
      <trkpt lat="45.19839" lon="5.72439">
        <ele>441.60000610352</ele>
        <time>2022-06-02T03:31:25.000Z</time>
      </trkpt>
      <trkpt lat="45.19837" lon="5.72442">
        <ele>442</ele>
        <time>2022-06-02T03:31:26.000Z</time>
      </trkpt>
      <trkpt lat="45.19835" lon="5.72444">
        <ele>442.20001220703</ele>
        <time>2022-06-02T03:31:27.000Z</time>
      </trkpt>
      <trkpt lat="45.19834" lon="5.72447">
        <ele>441.60000610352</ele>
        <time>2022-06-02T03:31:28.000Z</time>
      </trkpt>
      <trkpt lat="45.19833" lon="5.7245">
        <ele>441</ele>
        <time>2022-06-02T03:31:29.000Z</time>
      </trkpt>
      <trkpt lat="45.19832" lon="5.72454">
        <ele>441</ele>
        <time>2022-06-02T03:31:30.000Z</time>
      </trkpt>
      <trkpt lat="45.19831" lon="5.72458">
        <ele>440.79998779297</ele>
        <time>2022-06-02T03:31:31.000Z</time>
      </trkpt>
      <trkpt lat="45.19831" lon="5.72461">
        <ele>440.79998779297</ele>
        <time>2022-06-02T03:31:32.000Z</time>
      </trkpt>
      <trkpt lat="45.1983" lon="5.72465">
        <ele>440.20001220703</ele>
        <time>2022-06-02T03:31:33.000Z</time>
      </trkpt>
      <trkpt lat="45.1983" lon="5.72468">
        <ele>440.20001220703</ele>
        <time>2022-06-02T03:31:34.000Z</time>
      </trkpt>
      <trkpt lat="45.1983" lon="5.72471">
        <ele>439.79998779297</ele>
        <time>2022-06-02T03:31:35.000Z</time>
      </trkpt>
      <trkpt lat="45.19829" lon="5.72474">
        <ele>439.20001220703</ele>
        <time>2022-06-02T03:31:36.000Z</time>
      </trkpt>
      <trkpt lat="45.19829" lon="5.72477">
        <ele>439.20001220703</ele>
        <time>2022-06-02T03:31:37.000Z</time>
      </trkpt>
      <trkpt lat="45.19829" lon="5.7248">
        <ele>439</ele>
        <time>2022-06-02T03:31:38.000Z</time>
      </trkpt>
      <trkpt lat="45.19828" lon="5.72484">
        <ele>438.60000610352</ele>
        <time>2022-06-02T03:31:39.000Z</time>
      </trkpt>
      <trkpt lat="45.19827" lon="5.72487">
        <ele>438.60000610352</ele>
        <time>2022-06-02T03:31:40.000Z</time>
      </trkpt>
      <trkpt lat="45.19827" lon="5.72491">
        <ele>438.39999389648</ele>
        <time>2022-06-02T03:31:41.000Z</time>
      </trkpt>
      <trkpt lat="45.19827" lon="5.72494">
        <ele>438.39999389648</ele>
        <time>2022-06-02T03:31:42.000Z</time>
      </trkpt>
      <trkpt lat="45.19826" lon="5.72497">
        <ele>437.39999389648</ele>
        <time>2022-06-02T03:31:43.000Z</time>
      </trkpt>
      <trkpt lat="45.19826" lon="5.72499">
        <ele>437.39999389648</ele>
        <time>2022-06-02T03:31:44.000Z</time>
      </trkpt>
      <trkpt lat="45.19825" lon="5.72502">
        <ele>436.79998779297</ele>
        <time>2022-06-02T03:31:45.000Z</time>
      </trkpt>
      <trkpt lat="45.19825" lon="5.72505">
        <ele>436.60000610352</ele>
        <time>2022-06-02T03:31:46.000Z</time>
      </trkpt>
      <trkpt lat="45.19824" lon="5.72509">
        <ele>436.60000610352</ele>
        <time>2022-06-02T03:31:47.000Z</time>
      </trkpt>
      <trkpt lat="45.19824" lon="5.72512">
        <ele>435.79998779297</ele>
        <time>2022-06-02T03:31:48.000Z</time>
      </trkpt>
      <trkpt lat="45.19823" lon="5.72515">
        <ele>435.60000610352</ele>
        <time>2022-06-02T03:31:49.000Z</time>
      </trkpt>
      <trkpt lat="45.19823" lon="5.72519">
        <ele>436</ele>
        <time>2022-06-02T03:31:50.000Z</time>
      </trkpt>
      <trkpt lat="45.19822" lon="5.72522">
        <ele>435</ele>
        <time>2022-06-02T03:31:51.000Z</time>
      </trkpt>
      <trkpt lat="45.19822" lon="5.72525">
        <ele>434.79998779297</ele>
        <time>2022-06-02T03:31:52.000Z</time>
      </trkpt>
      <trkpt lat="45.19821" lon="5.72529">
        <ele>434.79998779297</ele>
        <time>2022-06-02T03:31:53.000Z</time>
      </trkpt>
      <trkpt lat="45.19821" lon="5.72532">
        <ele>434.60000610352</ele>
        <time>2022-06-02T03:31:54.000Z</time>
      </trkpt>
      <trkpt lat="45.19821" lon="5.72535">
        <ele>434</ele>
        <time>2022-06-02T03:31:55.000Z</time>
      </trkpt>
      <trkpt lat="45.19822" lon="5.72539">
        <ele>434</ele>
        <time>2022-06-02T03:31:56.000Z</time>
      </trkpt>
      <trkpt lat="45.19822" lon="5.72543">
        <ele>434</ele>
        <time>2022-06-02T03:31:57.000Z</time>
      </trkpt>
      <trkpt lat="45.19822" lon="5.72546">
        <ele>433.79998779297</ele>
        <time>2022-06-02T03:31:58.000Z</time>
      </trkpt>
      <trkpt lat="45.19822" lon="5.7255">
        <ele>433.79998779297</ele>
        <time>2022-06-02T03:31:59.000Z</time>
      </trkpt>
      <trkpt lat="45.19822" lon="5.72554">
        <ele>432.79998779297</ele>
        <time>2022-06-02T03:32:00.000Z</time>
      </trkpt>
      <trkpt lat="45.19822" lon="5.72557">
        <ele>433.20001220703</ele>
        <time>2022-06-02T03:32:01.000Z</time>
      </trkpt>
      <trkpt lat="45.19823" lon="5.72561">
        <ele>432.79998779297</ele>
        <time>2022-06-02T03:32:02.000Z</time>
      </trkpt>
      <trkpt lat="45.19822" lon="5.72564">
        <ele>432.39999389648</ele>
        <time>2022-06-02T03:32:03.000Z</time>
      </trkpt>
      <trkpt lat="45.19822" lon="5.72568">
        <ele>432.20001220703</ele>
        <time>2022-06-02T03:32:04.000Z</time>
      </trkpt>
      <trkpt lat="45.19822" lon="5.72571">
        <ele>432.39999389648</ele>
        <time>2022-06-02T03:32:05.000Z</time>
      </trkpt>
      <trkpt lat="45.19822" lon="5.72575">
        <ele>431</ele>
        <time>2022-06-02T03:32:06.000Z</time>
      </trkpt>
      <trkpt lat="45.19822" lon="5.72579">
        <ele>431.39999389648</ele>
        <time>2022-06-02T03:32:07.000Z</time>
      </trkpt>
      <trkpt lat="45.19821" lon="5.72583">
        <ele>431</ele>
        <time>2022-06-02T03:32:08.000Z</time>
      </trkpt>
      <trkpt lat="45.19821" lon="5.72586">
        <ele>430.60000610352</ele>
        <time>2022-06-02T03:32:09.000Z</time>
      </trkpt>
      <trkpt lat="45.19821" lon="5.7259">
        <ele>430.79998779297</ele>
        <time>2022-06-02T03:32:10.000Z</time>
      </trkpt>
      <trkpt lat="45.19822" lon="5.72593">
        <ele>430.60000610352</ele>
        <time>2022-06-02T03:32:11.000Z</time>
      </trkpt>
      <trkpt lat="45.19822" lon="5.72596">
        <ele>430.60000610352</ele>
        <time>2022-06-02T03:32:12.000Z</time>
      </trkpt>
      <trkpt lat="45.19822" lon="5.72599">
        <ele>429.39999389648</ele>
        <time>2022-06-02T03:32:13.000Z</time>
      </trkpt>
      <trkpt lat="45.19822" lon="5.72602">
        <ele>429.79998779297</ele>
        <time>2022-06-02T03:32:14.000Z</time>
      </trkpt>
      <trkpt lat="45.19823" lon="5.72604">
        <ele>430</ele>
        <time>2022-06-02T03:32:15.000Z</time>
      </trkpt>
      <trkpt lat="45.19823" lon="5.72608">
        <ele>429.20001220703</ele>
        <time>2022-06-02T03:32:16.000Z</time>
      </trkpt>
      <trkpt lat="45.19824" lon="5.72612">
        <ele>429.20001220703</ele>
        <time>2022-06-02T03:32:17.000Z</time>
      </trkpt>
      <trkpt lat="45.19825" lon="5.72615">
        <ele>428.79998779297</ele>
        <time>2022-06-02T03:32:18.000Z</time>
      </trkpt>
      <trkpt lat="45.19826" lon="5.72618">
        <ele>428.60000610352</ele>
        <time>2022-06-02T03:32:19.000Z</time>
      </trkpt>
      <trkpt lat="45.19827" lon="5.72621">
        <ele>428.20001220703</ele>
        <time>2022-06-02T03:32:20.000Z</time>
      </trkpt>
      <trkpt lat="45.19828" lon="5.72624">
        <ele>428.60000610352</ele>
        <time>2022-06-02T03:32:21.000Z</time>
      </trkpt>
      <trkpt lat="45.19829" lon="5.72627">
        <ele>428.39999389648</ele>
        <time>2022-06-02T03:32:22.000Z</time>
      </trkpt>
      <trkpt lat="45.1983" lon="5.7263">
        <ele>427.60000610352</ele>
        <time>2022-06-02T03:32:23.000Z</time>
      </trkpt>
      <trkpt lat="45.19831" lon="5.72633">
        <ele>427.60000610352</ele>
        <time>2022-06-02T03:32:24.000Z</time>
      </trkpt>
      <trkpt lat="45.19833" lon="5.72636">
        <ele>427.60000610352</ele>
        <time>2022-06-02T03:32:25.000Z</time>
      </trkpt>
      <trkpt lat="45.19834" lon="5.7264">
        <ele>427</ele>
        <time>2022-06-02T03:32:26.000Z</time>
      </trkpt>
      <trkpt lat="45.19834" lon="5.72642">
        <ele>426.79998779297</ele>
        <time>2022-06-02T03:32:27.000Z</time>
      </trkpt>
      <trkpt lat="45.19836" lon="5.72646">
        <ele>427</ele>
        <time>2022-06-02T03:32:28.000Z</time>
      </trkpt>
      <trkpt lat="45.19837" lon="5.72648">
        <ele>426.20001220703</ele>
        <time>2022-06-02T03:32:29.000Z</time>
      </trkpt>
      <trkpt lat="45.19839" lon="5.72651">
        <ele>426.60000610352</ele>
        <time>2022-06-02T03:32:30.000Z</time>
      </trkpt>
      <trkpt lat="45.19841" lon="5.72654">
        <ele>426.20001220703</ele>
        <time>2022-06-02T03:32:31.000Z</time>
      </trkpt>
      <trkpt lat="45.19843" lon="5.72656">
        <ele>426.20001220703</ele>
        <time>2022-06-02T03:32:32.000Z</time>
      </trkpt>
      <trkpt lat="45.19845" lon="5.72658">
        <ele>426</ele>
        <time>2022-06-02T03:32:33.000Z</time>
      </trkpt>
      <trkpt lat="45.19846" lon="5.72661">
        <ele>425.60000610352</ele>
        <time>2022-06-02T03:32:34.000Z</time>
      </trkpt>
      <trkpt lat="45.19848" lon="5.72664">
        <ele>425.20001220703</ele>
        <time>2022-06-02T03:32:35.000Z</time>
      </trkpt>
      <trkpt lat="45.19849" lon="5.72666">
        <ele>424.79998779297</ele>
        <time>2022-06-02T03:32:36.000Z</time>
      </trkpt>
      <trkpt lat="45.19851" lon="5.72669">
        <ele>424.60000610352</ele>
        <time>2022-06-02T03:32:37.000Z</time>
      </trkpt>
      <trkpt lat="45.19852" lon="5.72671">
        <ele>424.79998779297</ele>
        <time>2022-06-02T03:32:38.000Z</time>
      </trkpt>
      <trkpt lat="45.19853" lon="5.72673">
        <ele>424.79998779297</ele>
        <time>2022-06-02T03:32:39.000Z</time>
      </trkpt>
      <trkpt lat="45.19855" lon="5.72675">
        <ele>423.39999389648</ele>
        <time>2022-06-02T03:32:40.000Z</time>
      </trkpt>
      <trkpt lat="45.19857" lon="5.72678">
        <ele>423.60000610352</ele>
        <time>2022-06-02T03:32:41.000Z</time>
      </trkpt>
      <trkpt lat="45.19858" lon="5.7268">
        <ele>423.79998779297</ele>
        <time>2022-06-02T03:32:42.000Z</time>
      </trkpt>
      <trkpt lat="45.19859" lon="5.72682">
        <ele>423.20001220703</ele>
        <time>2022-06-02T03:32:43.000Z</time>
      </trkpt>
      <trkpt lat="45.1986" lon="5.72684">
        <ele>422.60000610352</ele>
        <time>2022-06-02T03:32:44.000Z</time>
      </trkpt>
      <trkpt lat="45.19859" lon="5.72683">
        <ele>423.20001220703</ele>
        <time>2022-06-02T03:32:45.000Z</time>
      </trkpt>
      <trkpt lat="45.19858" lon="5.72683">
        <ele>422.60000610352</ele>
        <time>2022-06-02T03:32:46.000Z</time>
      </trkpt>
      <trkpt lat="45.19855" lon="5.72682">
        <ele>422.20001220703</ele>
        <time>2022-06-02T03:32:47.000Z</time>
      </trkpt>
      <trkpt lat="45.19853" lon="5.72681">
        <ele>422.20001220703</ele>
        <time>2022-06-02T03:32:48.000Z</time>
      </trkpt>
      <trkpt lat="45.19851" lon="5.72679">
        <ele>422</ele>
        <time>2022-06-02T03:32:49.000Z</time>
      </trkpt>
      <trkpt lat="45.19849" lon="5.72678">
        <ele>421.79998779297</ele>
        <time>2022-06-02T03:32:50.000Z</time>
      </trkpt>
      <trkpt lat="45.19847" lon="5.72676">
        <ele>421.20001220703</ele>
        <time>2022-06-02T03:32:51.000Z</time>
      </trkpt>
      <trkpt lat="45.19845" lon="5.72675">
        <ele>421.39999389648</ele>
        <time>2022-06-02T03:32:52.000Z</time>
      </trkpt>
      <trkpt lat="45.19843" lon="5.72673">
        <ele>421</ele>
        <time>2022-06-02T03:32:53.000Z</time>
      </trkpt>
      <trkpt lat="45.19841" lon="5.72671">
        <ele>420.60000610352</ele>
        <time>2022-06-02T03:32:54.000Z</time>
      </trkpt>
      <trkpt lat="45.19839" lon="5.7267">
        <ele>421</ele>
        <time>2022-06-02T03:32:55.000Z</time>
      </trkpt>
      <trkpt lat="45.19837" lon="5.72668">
        <ele>420.39999389648</ele>
        <time>2022-06-02T03:32:56.000Z</time>
      </trkpt>
      <trkpt lat="45.19835" lon="5.72666">
        <ele>420.39999389648</ele>
        <time>2022-06-02T03:32:57.000Z</time>
      </trkpt>
      <trkpt lat="45.19833" lon="5.72664">
        <ele>420.39999389648</ele>
        <time>2022-06-02T03:32:58.000Z</time>
      </trkpt>
      <trkpt lat="45.19832" lon="5.72661">
        <ele>420.20001220703</ele>
        <time>2022-06-02T03:32:59.000Z</time>
      </trkpt>
      <trkpt lat="45.1983" lon="5.72659">
        <ele>419.60000610352</ele>
        <time>2022-06-02T03:33:00.000Z</time>
      </trkpt>
      <trkpt lat="45.19828" lon="5.72658">
        <ele>419.60000610352</ele>
        <time>2022-06-02T03:33:01.000Z</time>
      </trkpt>
      <trkpt lat="45.19826" lon="5.72656">
        <ele>419.20001220703</ele>
        <time>2022-06-02T03:33:02.000Z</time>
      </trkpt>
      <trkpt lat="45.19824" lon="5.72655">
        <ele>418.79998779297</ele>
        <time>2022-06-02T03:33:03.000Z</time>
      </trkpt>
      <trkpt lat="45.19822" lon="5.72653">
        <ele>419.20001220703</ele>
        <time>2022-06-02T03:33:04.000Z</time>
      </trkpt>
      <trkpt lat="45.1982" lon="5.72652">
        <ele>418.39999389648</ele>
        <time>2022-06-02T03:33:05.000Z</time>
      </trkpt>
      <trkpt lat="45.19818" lon="5.7265">
        <ele>418.39999389648</ele>
        <time>2022-06-02T03:33:06.000Z</time>
      </trkpt>
      <trkpt lat="45.19816" lon="5.72649">
        <ele>417.60000610352</ele>
        <time>2022-06-02T03:33:07.000Z</time>
      </trkpt>
      <trkpt lat="45.19814" lon="5.72647">
        <ele>418</ele>
        <time>2022-06-02T03:33:08.000Z</time>
      </trkpt>
      <trkpt lat="45.19812" lon="5.72646">
        <ele>417.60000610352</ele>
        <time>2022-06-02T03:33:09.000Z</time>
      </trkpt>
      <trkpt lat="45.1981" lon="5.72644">
        <ele>417.60000610352</ele>
        <time>2022-06-02T03:33:10.000Z</time>
      </trkpt>
      <trkpt lat="45.19808" lon="5.72642">
        <ele>416.79998779297</ele>
        <time>2022-06-02T03:33:11.000Z</time>
      </trkpt>
      <trkpt lat="45.19805" lon="5.7264">
        <ele>416.79998779297</ele>
        <time>2022-06-02T03:33:12.000Z</time>
      </trkpt>
      <trkpt lat="45.19803" lon="5.72637">
        <ele>416.60000610352</ele>
        <time>2022-06-02T03:33:13.000Z</time>
      </trkpt>
      <trkpt lat="45.19801" lon="5.72635">
        <ele>416.20001220703</ele>
        <time>2022-06-02T03:33:14.000Z</time>
      </trkpt>
      <trkpt lat="45.19799" lon="5.72633">
        <ele>416.20001220703</ele>
        <time>2022-06-02T03:33:15.000Z</time>
      </trkpt>
      <trkpt lat="45.19797" lon="5.72631">
        <ele>415.60000610352</ele>
        <time>2022-06-02T03:33:16.000Z</time>
      </trkpt>
      <trkpt lat="45.19795" lon="5.72628">
        <ele>415.60000610352</ele>
        <time>2022-06-02T03:33:17.000Z</time>
      </trkpt>
      <trkpt lat="45.19793" lon="5.72626">
        <ele>415.79998779297</ele>
        <time>2022-06-02T03:33:18.000Z</time>
      </trkpt>
      <trkpt lat="45.19792" lon="5.72623">
        <ele>415</ele>
        <time>2022-06-02T03:33:19.000Z</time>
      </trkpt>
      <trkpt lat="45.1979" lon="5.72621">
        <ele>415</ele>
        <time>2022-06-02T03:33:20.000Z</time>
      </trkpt>
      <trkpt lat="45.19789" lon="5.72619">
        <ele>415</ele>
        <time>2022-06-02T03:33:21.000Z</time>
      </trkpt>
      <trkpt lat="45.19787" lon="5.72616">
        <ele>414.20001220703</ele>
        <time>2022-06-02T03:33:22.000Z</time>
      </trkpt>
      <trkpt lat="45.19786" lon="5.72613">
        <ele>414.20001220703</ele>
        <time>2022-06-02T03:33:23.000Z</time>
      </trkpt>
      <trkpt lat="45.19786" lon="5.72609">
        <ele>414.39999389648</ele>
        <time>2022-06-02T03:33:24.000Z</time>
      </trkpt>
      <trkpt lat="45.19785" lon="5.72606">
        <ele>414</ele>
        <time>2022-06-02T03:33:25.000Z</time>
      </trkpt>
      <trkpt lat="45.19785" lon="5.72602">
        <ele>413.79998779297</ele>
        <time>2022-06-02T03:33:26.000Z</time>
      </trkpt>
      <trkpt lat="45.19785" lon="5.72599">
        <ele>413.60000610352</ele>
        <time>2022-06-02T03:33:27.000Z</time>
      </trkpt>
      <trkpt lat="45.19785" lon="5.72596">
        <ele>413.20001220703</ele>
        <time>2022-06-02T03:33:28.000Z</time>
      </trkpt>
      <trkpt lat="45.19785" lon="5.72593">
        <ele>412.79998779297</ele>
        <time>2022-06-02T03:33:29.000Z</time>
      </trkpt>
      <trkpt lat="45.19786" lon="5.72589">
        <ele>413.39999389648</ele>
        <time>2022-06-02T03:33:30.000Z</time>
      </trkpt>
      <trkpt lat="45.19787" lon="5.72585">
        <ele>412.39999389648</ele>
        <time>2022-06-02T03:33:31.000Z</time>
      </trkpt>
      <trkpt lat="45.19787" lon="5.72582">
        <ele>412.39999389648</ele>
        <time>2022-06-02T03:33:32.000Z</time>
      </trkpt>
      <trkpt lat="45.19787" lon="5.72579">
        <ele>411.20001220703</ele>
        <time>2022-06-02T03:33:33.000Z</time>
      </trkpt>
      <trkpt lat="45.19787" lon="5.72576">
        <ele>411</ele>
        <time>2022-06-02T03:33:34.000Z</time>
      </trkpt>
      <trkpt lat="45.19788" lon="5.72572">
        <ele>411</ele>
        <time>2022-06-02T03:33:35.000Z</time>
      </trkpt>
      <trkpt lat="45.19788" lon="5.72568">
        <ele>410.79998779297</ele>
        <time>2022-06-02T03:33:36.000Z</time>
      </trkpt>
      <trkpt lat="45.19788" lon="5.72564">
        <ele>410.79998779297</ele>
        <time>2022-06-02T03:33:37.000Z</time>
      </trkpt>
      <trkpt lat="45.19788" lon="5.72561">
        <ele>409.79998779297</ele>
        <time>2022-06-02T03:33:38.000Z</time>
      </trkpt>
      <trkpt lat="45.19789" lon="5.72557">
        <ele>409.60000610352</ele>
        <time>2022-06-02T03:33:39.000Z</time>
      </trkpt>
      <trkpt lat="45.19789" lon="5.72554">
        <ele>409.20001220703</ele>
        <time>2022-06-02T03:33:40.000Z</time>
      </trkpt>
      <trkpt lat="45.19789" lon="5.7255">
        <ele>409</ele>
        <time>2022-06-02T03:33:41.000Z</time>
      </trkpt>
      <trkpt lat="45.19789" lon="5.72546">
        <ele>409</ele>
        <time>2022-06-02T03:33:42.000Z</time>
      </trkpt>
      <trkpt lat="45.19789" lon="5.72543">
        <ele>409</ele>
        <time>2022-06-02T03:33:43.000Z</time>
      </trkpt>
      <trkpt lat="45.1979" lon="5.7254">
        <ele>408.20001220703</ele>
        <time>2022-06-02T03:33:44.000Z</time>
      </trkpt>
      <trkpt lat="45.1979" lon="5.72537">
        <ele>408.39999389648</ele>
        <time>2022-06-02T03:33:45.000Z</time>
      </trkpt>
      <trkpt lat="45.19791" lon="5.72534">
        <ele>408.20001220703</ele>
        <time>2022-06-02T03:33:46.000Z</time>
      </trkpt>
      <trkpt lat="45.1979" lon="5.72531">
        <ele>407.60000610352</ele>
        <time>2022-06-02T03:33:47.000Z</time>
      </trkpt>
      <trkpt lat="45.1979" lon="5.72528">
        <ele>407.60000610352</ele>
        <time>2022-06-02T03:33:48.000Z</time>
      </trkpt>
      <trkpt lat="45.19789" lon="5.72528">
        <ele>408</ele>
        <time>2022-06-02T03:33:49.000Z</time>
      </trkpt>
      <trkpt lat="45.19787" lon="5.72528">
        <ele>406.79998779297</ele>
        <time>2022-06-02T03:33:50.000Z</time>
      </trkpt>
      <trkpt lat="45.19785" lon="5.72529">
        <ele>406.39999389648</ele>
        <time>2022-06-02T03:33:51.000Z</time>
      </trkpt>
      <trkpt lat="45.19784" lon="5.7253">
        <ele>406.60000610352</ele>
        <time>2022-06-02T03:33:52.000Z</time>
      </trkpt>
      <trkpt lat="45.19783" lon="5.72533">
        <ele>406.60000610352</ele>
        <time>2022-06-02T03:33:53.000Z</time>
      </trkpt>
      <trkpt lat="45.19782" lon="5.72536">
        <ele>406</ele>
        <time>2022-06-02T03:33:54.000Z</time>
      </trkpt>
      <trkpt lat="45.1978" lon="5.72539">
        <ele>405.60000610352</ele>
        <time>2022-06-02T03:33:55.000Z</time>
      </trkpt>
      <trkpt lat="45.19779" lon="5.72543">
        <ele>405.60000610352</ele>
        <time>2022-06-02T03:33:56.000Z</time>
      </trkpt>
      <trkpt lat="45.19778" lon="5.72546">
        <ele>405.60000610352</ele>
        <time>2022-06-02T03:33:57.000Z</time>
      </trkpt>
      <trkpt lat="45.19777" lon="5.72549">
        <ele>405.20001220703</ele>
        <time>2022-06-02T03:33:58.000Z</time>
      </trkpt>
      <trkpt lat="45.19776" lon="5.72552">
        <ele>405</ele>
        <time>2022-06-02T03:33:59.000Z</time>
      </trkpt>
      <trkpt lat="45.19775" lon="5.72555">
        <ele>405</ele>
        <time>2022-06-02T03:34:00.000Z</time>
      </trkpt>
      <trkpt lat="45.19774" lon="5.72558">
        <ele>405</ele>
        <time>2022-06-02T03:34:01.000Z</time>
      </trkpt>
      <trkpt lat="45.19773" lon="5.72561">
        <ele>404.20001220703</ele>
        <time>2022-06-02T03:34:02.000Z</time>
      </trkpt>
      <trkpt lat="45.19773" lon="5.72564">
        <ele>404.20001220703</ele>
        <time>2022-06-02T03:34:03.000Z</time>
      </trkpt>
      <trkpt lat="45.19772" lon="5.72567">
        <ele>404.20001220703</ele>
        <time>2022-06-02T03:34:04.000Z</time>
      </trkpt>
      <trkpt lat="45.19771" lon="5.72571">
        <ele>403.39999389648</ele>
        <time>2022-06-02T03:34:05.000Z</time>
      </trkpt>
      <trkpt lat="45.19771" lon="5.72574">
        <ele>403.39999389648</ele>
        <time>2022-06-02T03:34:06.000Z</time>
      </trkpt>
      <trkpt lat="45.1977" lon="5.72577">
        <ele>403.60000610352</ele>
        <time>2022-06-02T03:34:07.000Z</time>
      </trkpt>
      <trkpt lat="45.1977" lon="5.72579">
        <ele>403</ele>
        <time>2022-06-02T03:34:08.000Z</time>
      </trkpt>
      <trkpt lat="45.19769" lon="5.72581">
        <ele>402.79998779297</ele>
        <time>2022-06-02T03:34:09.000Z</time>
      </trkpt>
      <trkpt lat="45.19768" lon="5.72584">
        <ele>402.79998779297</ele>
        <time>2022-06-02T03:34:10.000Z</time>
      </trkpt>
      <trkpt lat="45.19767" lon="5.72585">
        <ele>402.60000610352</ele>
        <time>2022-06-02T03:34:11.000Z</time>
      </trkpt>
      <trkpt lat="45.19766" lon="5.72584">
        <ele>402.39999389648</ele>
        <time>2022-06-02T03:34:12.000Z</time>
      </trkpt>
      <trkpt lat="45.19765" lon="5.72581">
        <ele>402.20001220703</ele>
        <time>2022-06-02T03:34:13.000Z</time>
      </trkpt>
      <trkpt lat="45.19764" lon="5.72578">
        <ele>402</ele>
        <time>2022-06-02T03:34:14.000Z</time>
      </trkpt>
      <trkpt lat="45.19764" lon="5.72575">
        <ele>401.20001220703</ele>
        <time>2022-06-02T03:34:15.000Z</time>
      </trkpt>
      <trkpt lat="45.19764" lon="5.72572">
        <ele>401.20001220703</ele>
        <time>2022-06-02T03:34:16.000Z</time>
      </trkpt>
      <trkpt lat="45.19764" lon="5.72569">
        <ele>401.20001220703</ele>
        <time>2022-06-02T03:34:17.000Z</time>
      </trkpt>
      <trkpt lat="45.19763" lon="5.72566">
        <ele>400.39999389648</ele>
        <time>2022-06-02T03:34:18.000Z</time>
      </trkpt>
      <trkpt lat="45.19764" lon="5.72563">
        <ele>400.39999389648</ele>
        <time>2022-06-02T03:34:19.000Z</time>
      </trkpt>
      <trkpt lat="45.19764" lon="5.7256">
        <ele>400.20001220703</ele>
        <time>2022-06-02T03:34:20.000Z</time>
      </trkpt>
      <trkpt lat="45.19763" lon="5.72557">
        <ele>399.79998779297</ele>
        <time>2022-06-02T03:34:21.000Z</time>
      </trkpt>
      <trkpt lat="45.19763" lon="5.72554">
        <ele>399.79998779297</ele>
        <time>2022-06-02T03:34:22.000Z</time>
      </trkpt>
      <trkpt lat="45.19763" lon="5.7255">
        <ele>399.79998779297</ele>
        <time>2022-06-02T03:34:23.000Z</time>
      </trkpt>
      <trkpt lat="45.19762" lon="5.72547">
        <ele>398.79998779297</ele>
        <time>2022-06-02T03:34:24.000Z</time>
      </trkpt>
      <trkpt lat="45.19762" lon="5.72543">
        <ele>399.20001220703</ele>
        <time>2022-06-02T03:34:25.000Z</time>
      </trkpt>
      <trkpt lat="45.19762" lon="5.7254">
        <ele>398.60000610352</ele>
        <time>2022-06-02T03:34:26.000Z</time>
      </trkpt>
      <trkpt lat="45.19762" lon="5.72536">
        <ele>398.39999389648</ele>
        <time>2022-06-02T03:34:27.000Z</time>
      </trkpt>
      <trkpt lat="45.19762" lon="5.72532">
        <ele>398</ele>
        <time>2022-06-02T03:34:28.000Z</time>
      </trkpt>
      <trkpt lat="45.19762" lon="5.72529">
        <ele>397.79998779297</ele>
        <time>2022-06-02T03:34:29.000Z</time>
      </trkpt>
      <trkpt lat="45.19763" lon="5.72526">
        <ele>397.60000610352</ele>
        <time>2022-06-02T03:34:30.000Z</time>
      </trkpt>
      <trkpt lat="45.19764" lon="5.72523">
        <ele>397.39999389648</ele>
        <time>2022-06-02T03:34:31.000Z</time>
      </trkpt>
      <trkpt lat="45.19765" lon="5.7252">
        <ele>397.20001220703</ele>
        <time>2022-06-02T03:34:32.000Z</time>
      </trkpt>
      <trkpt lat="45.19767" lon="5.72517">
        <ele>397.20001220703</ele>
        <time>2022-06-02T03:34:33.000Z</time>
      </trkpt>
      <trkpt lat="45.19768" lon="5.72514">
        <ele>396.60000610352</ele>
        <time>2022-06-02T03:34:34.000Z</time>
      </trkpt>
      <trkpt lat="45.19771" lon="5.72511">
        <ele>396.60000610352</ele>
        <time>2022-06-02T03:34:35.000Z</time>
      </trkpt>
      <trkpt lat="45.19772" lon="5.72507">
        <ele>396.60000610352</ele>
        <time>2022-06-02T03:34:36.000Z</time>
      </trkpt>
      <trkpt lat="45.19773" lon="5.72504">
        <ele>396.79998779297</ele>
        <time>2022-06-02T03:34:37.000Z</time>
      </trkpt>
      <trkpt lat="45.19772" lon="5.72503">
        <ele>395.39999389648</ele>
        <time>2022-06-02T03:34:38.000Z</time>
      </trkpt>
      <trkpt lat="45.19771" lon="5.72504">
        <ele>395.60000610352</ele>
        <time>2022-06-02T03:34:39.000Z</time>
      </trkpt>
      <trkpt lat="45.1977" lon="5.72505">
        <ele>395.60000610352</ele>
        <time>2022-06-02T03:34:40.000Z</time>
      </trkpt>
      <trkpt lat="45.19767" lon="5.72507">
        <ele>395</ele>
        <time>2022-06-02T03:34:41.000Z</time>
      </trkpt>
      <trkpt lat="45.19765" lon="5.72509">
        <ele>395</ele>
        <time>2022-06-02T03:34:42.000Z</time>
      </trkpt>
      <trkpt lat="45.19763" lon="5.72511">
        <ele>394</ele>
        <time>2022-06-02T03:34:43.000Z</time>
      </trkpt>
      <trkpt lat="45.19761" lon="5.72514">
        <ele>393.60000610352</ele>
        <time>2022-06-02T03:34:44.000Z</time>
      </trkpt>
      <trkpt lat="45.19759" lon="5.72516">
        <ele>394.20001220703</ele>
        <time>2022-06-02T03:34:45.000Z</time>
      </trkpt>
      <trkpt lat="45.19757" lon="5.72518">
        <ele>393.60000610352</ele>
        <time>2022-06-02T03:34:46.000Z</time>
      </trkpt>
      <trkpt lat="45.19755" lon="5.7252">
        <ele>393.39999389648</ele>
        <time>2022-06-02T03:34:47.000Z</time>
      </trkpt>
      <trkpt lat="45.19753" lon="5.72523">
        <ele>394</ele>
        <time>2022-06-02T03:34:48.000Z</time>
      </trkpt>
      <trkpt lat="45.19751" lon="5.72526">
        <ele>393.39999389648</ele>
        <time>2022-06-02T03:34:49.000Z</time>
      </trkpt>
      <trkpt lat="45.1975" lon="5.72529">
        <ele>393.39999389648</ele>
        <time>2022-06-02T03:34:50.000Z</time>
      </trkpt>
      <trkpt lat="45.19749" lon="5.72532">
        <ele>392.79998779297</ele>
        <time>2022-06-02T03:34:51.000Z</time>
      </trkpt>
      <trkpt lat="45.19749" lon="5.72535">
        <ele>393.60000610352</ele>
        <time>2022-06-02T03:34:52.000Z</time>
      </trkpt>
      <trkpt lat="45.19747" lon="5.72538">
        <ele>393.20001220703</ele>
        <time>2022-06-02T03:34:53.000Z</time>
      </trkpt>
      <trkpt lat="45.19747" lon="5.72541">
        <ele>392.79998779297</ele>
        <time>2022-06-02T03:34:54.000Z</time>
      </trkpt>
      <trkpt lat="45.19746" lon="5.72545">
        <ele>393.39999389648</ele>
        <time>2022-06-02T03:34:55.000Z</time>
      </trkpt>
      <trkpt lat="45.19746" lon="5.72548">
        <ele>393.20001220703</ele>
        <time>2022-06-02T03:34:56.000Z</time>
      </trkpt>
      <trkpt lat="45.19745" lon="5.72551">
        <ele>393.39999389648</ele>
        <time>2022-06-02T03:34:57.000Z</time>
      </trkpt>
      <trkpt lat="45.19745" lon="5.72554">
        <ele>393.39999389648</ele>
        <time>2022-06-02T03:34:58.000Z</time>
      </trkpt>
      <trkpt lat="45.19744" lon="5.72557">
        <ele>393.60000610352</ele>
        <time>2022-06-02T03:34:59.000Z</time>
      </trkpt>
      <trkpt lat="45.19744" lon="5.72561">
        <ele>393.39999389648</ele>
        <time>2022-06-02T03:35:00.000Z</time>
      </trkpt>
      <trkpt lat="45.19743" lon="5.72564">
        <ele>393.20001220703</ele>
        <time>2022-06-02T03:35:01.000Z</time>
      </trkpt>
      <trkpt lat="45.19743" lon="5.72567">
        <ele>393.20001220703</ele>
        <time>2022-06-02T03:35:02.000Z</time>
      </trkpt>
      <trkpt lat="45.19743" lon="5.7257">
        <ele>393</ele>
        <time>2022-06-02T03:35:03.000Z</time>
      </trkpt>
      <trkpt lat="45.19742" lon="5.72572">
        <ele>393.20001220703</ele>
        <time>2022-06-02T03:35:04.000Z</time>
      </trkpt>
      <trkpt lat="45.19742" lon="5.72572">
        <ele>393</ele>
        <time>2022-06-02T03:35:05.000Z</time>
      </trkpt>
      <trkpt lat="45.19742" lon="5.72573">
        <ele>393.20001220703</ele>
        <time>2022-06-02T03:35:06.000Z</time>
      </trkpt>
      <trkpt lat="45.19742" lon="5.72573">
        <ele>393.20001220703</ele>
        <time>2022-06-02T03:35:07.000Z</time>
      </trkpt>
      <trkpt lat="45.19742" lon="5.72573">
        <ele>393.20001220703</ele>
        <time>2022-06-02T03:35:08.000Z</time>
      </trkpt>
      <trkpt lat="45.19742" lon="5.72573">
        <ele>393</ele>
        <time>2022-06-02T03:35:09.000Z</time>
      </trkpt>
      <trkpt lat="45.19742" lon="5.72573">
        <ele>393.39999389648</ele>
        <time>2022-06-02T03:35:10.000Z</time>
      </trkpt>
      <trkpt lat="45.19742" lon="5.72573">
        <ele>393.39999389648</ele>
        <time>2022-06-02T03:35:11.000Z</time>
      </trkpt>
      <trkpt lat="45.19741" lon="5.72574">
        <ele>393.20001220703</ele>
        <time>2022-06-02T03:35:12.000Z</time>
      </trkpt>
      <trkpt lat="45.19741" lon="5.72574">
        <ele>393</ele>
        <time>2022-06-02T03:35:13.000Z</time>
      </trkpt>
      <trkpt lat="45.19741" lon="5.72574">
        <ele>393</ele>
        <time>2022-06-02T03:35:14.000Z</time>
      </trkpt>
      <trkpt lat="45.19741" lon="5.72574">
        <ele>393.20001220703</ele>
        <time>2022-06-02T03:35:15.000Z</time>
      </trkpt>
      <trkpt lat="45.19741" lon="5.72574">
        <ele>393.20001220703</ele>
        <time>2022-06-02T03:35:16.000Z</time>
      </trkpt>
      <trkpt lat="45.19741" lon="5.72574">
        <ele>393.20001220703</ele>
        <time>2022-06-02T03:35:17.000Z</time>
      </trkpt>
      <trkpt lat="45.19741" lon="5.72574">
        <ele>393.20001220703</ele>
        <time>2022-06-02T03:35:18.000Z</time>
      </trkpt>
      <trkpt lat="45.19741" lon="5.72574">
        <ele>393.20001220703</ele>
        <time>2022-06-02T03:35:19.000Z</time>
      </trkpt>
      <trkpt lat="45.19742" lon="5.72574">
        <ele>393.20001220703</ele>
        <time>2022-06-02T03:35:20.000Z</time>
      </trkpt>
      <trkpt lat="45.19742" lon="5.72574">
        <ele>393.20001220703</ele>
        <time>2022-06-02T03:35:21.000Z</time>
      </trkpt>
      <trkpt lat="45.19741" lon="5.72574">
        <ele>393.20001220703</ele>
        <time>2022-06-02T03:35:22.000Z</time>
      </trkpt>
      <trkpt lat="45.19741" lon="5.72574">
        <ele>393.20001220703</ele>
        <time>2022-06-02T03:35:23.000Z</time>
      </trkpt>
      <trkpt lat="45.19741" lon="5.72574">
        <ele>393</ele>
        <time>2022-06-02T03:35:24.000Z</time>
      </trkpt>
      <trkpt lat="45.19741" lon="5.72574">
        <ele>393</ele>
        <time>2022-06-02T03:35:25.000Z</time>
      </trkpt>
      <trkpt lat="45.19742" lon="5.72574">
        <ele>393.20001220703</ele>
        <time>2022-06-02T03:35:26.000Z</time>
      </trkpt>
      <trkpt lat="45.19742" lon="5.72574">
        <ele>393.20001220703</ele>
        <time>2022-06-02T03:35:27.000Z</time>
      </trkpt>
      <trkpt lat="45.19742" lon="5.72574">
        <ele>393.20001220703</ele>
        <time>2022-06-02T03:35:28.000Z</time>
      </trkpt>
      <trkpt lat="45.19742" lon="5.72574">
        <ele>393.20001220703</ele>
        <time>2022-06-02T03:35:29.000Z</time>
      </trkpt>
      <trkpt lat="45.19742" lon="5.72574">
        <ele>393.20001220703</ele>
        <time>2022-06-02T03:35:30.000Z</time>
      </trkpt>
      <trkpt lat="45.19742" lon="5.72574">
        <ele>393.20001220703</ele>
        <time>2022-06-02T03:35:31.000Z</time>
      </trkpt>
      <trkpt lat="45.19742" lon="5.72574">
        <ele>393.20001220703</ele>
        <time>2022-06-02T03:35:32.000Z</time>
      </trkpt>
      <trkpt lat="45.19742" lon="5.72574">
        <ele>393.20001220703</ele>
        <time>2022-06-02T03:35:33.000Z</time>
      </trkpt>
      <trkpt lat="45.19742" lon="5.72575">
        <ele>393</ele>
        <time>2022-06-02T03:35:34.000Z</time>
      </trkpt>
      <trkpt lat="45.19742" lon="5.72575">
        <ele>393.20001220703</ele>
        <time>2022-06-02T03:35:35.000Z</time>
      </trkpt>
      <trkpt lat="45.19742" lon="5.72575">
        <ele>393.20001220703</ele>
        <time>2022-06-02T03:35:36.000Z</time>
      </trkpt>
      <trkpt lat="45.19742" lon="5.72575">
        <ele>393.20001220703</ele>
        <time>2022-06-02T03:35:37.000Z</time>
      </trkpt>
      <trkpt lat="45.19742" lon="5.72576">
        <ele>393.20001220703</ele>
        <time>2022-06-02T03:35:38.000Z</time>
      </trkpt>
      <trkpt lat="45.19742" lon="5.72576">
        <ele>393</ele>
        <time>2022-06-02T03:35:39.000Z</time>
      </trkpt>
      <trkpt lat="45.19742" lon="5.72576">
        <ele>393.20001220703</ele>
        <time>2022-06-02T03:35:40.000Z</time>
      </trkpt>
      <trkpt lat="45.19742" lon="5.72576">
        <ele>393.20001220703</ele>
        <time>2022-06-02T03:35:41.000Z</time>
      </trkpt>
      <trkpt lat="45.19742" lon="5.72576">
        <ele>393.39999389648</ele>
        <time>2022-06-02T03:35:42.000Z</time>
      </trkpt>
      <trkpt lat="45.19743" lon="5.72576">
        <ele>393.39999389648</ele>
        <time>2022-06-02T03:35:43.000Z</time>
      </trkpt>
      <trkpt lat="45.19743" lon="5.72576">
        <ele>393.39999389648</ele>
        <time>2022-06-02T03:35:44.000Z</time>
      </trkpt>
      <trkpt lat="45.19743" lon="5.72576">
        <ele>393.20001220703</ele>
        <time>2022-06-02T03:35:45.000Z</time>
      </trkpt>
      <trkpt lat="45.19743" lon="5.72576">
        <ele>393.20001220703</ele>
        <time>2022-06-02T03:35:46.000Z</time>
      </trkpt>
      <trkpt lat="45.19744" lon="5.72576">
        <ele>393.20001220703</ele>
        <time>2022-06-02T03:35:47.000Z</time>
      </trkpt>
      <trkpt lat="45.19743" lon="5.72577">
        <ele>393</ele>
        <time>2022-06-02T03:35:48.000Z</time>
      </trkpt>
      <trkpt lat="45.19743" lon="5.7258">
        <ele>392.79998779297</ele>
        <time>2022-06-02T03:35:49.000Z</time>
      </trkpt>
      <trkpt lat="45.19743" lon="5.72583">
        <ele>392.79998779297</ele>
        <time>2022-06-02T03:35:50.000Z</time>
      </trkpt>
      <trkpt lat="45.19744" lon="5.72585">
        <ele>392.60000610352</ele>
        <time>2022-06-02T03:35:51.000Z</time>
      </trkpt>
      <trkpt lat="45.19744" lon="5.72586">
        <ele>392.60000610352</ele>
        <time>2022-06-02T03:35:52.000Z</time>
      </trkpt>
      <trkpt lat="45.19745" lon="5.72588">
        <ele>392.79998779297</ele>
        <time>2022-06-02T03:35:53.000Z</time>
      </trkpt>
      <trkpt lat="45.19745" lon="5.7259">
        <ele>392.79998779297</ele>
        <time>2022-06-02T03:35:54.000Z</time>
      </trkpt>
      <trkpt lat="45.19746" lon="5.72592">
        <ele>392.60000610352</ele>
        <time>2022-06-02T03:35:55.000Z</time>
      </trkpt>
      <trkpt lat="45.19746" lon="5.72594">
        <ele>392.60000610352</ele>
        <time>2022-06-02T03:35:56.000Z</time>
      </trkpt>
      <trkpt lat="45.19746" lon="5.72597">
        <ele>392.60000610352</ele>
        <time>2022-06-02T03:35:57.000Z</time>
      </trkpt>
      <trkpt lat="45.19747" lon="5.72599">
        <ele>392.60000610352</ele>
        <time>2022-06-02T03:35:58.000Z</time>
      </trkpt>
      <trkpt lat="45.19748" lon="5.72602">
        <ele>392.60000610352</ele>
        <time>2022-06-02T03:35:59.000Z</time>
      </trkpt>
      <trkpt lat="45.19748" lon="5.72604">
        <ele>392.60000610352</ele>
        <time>2022-06-02T03:36:00.000Z</time>
      </trkpt>
      <trkpt lat="45.19749" lon="5.72607">
        <ele>392.60000610352</ele>
        <time>2022-06-02T03:36:01.000Z</time>
      </trkpt>
      <trkpt lat="45.1975" lon="5.72609">
        <ele>392.79998779297</ele>
        <time>2022-06-02T03:36:02.000Z</time>
      </trkpt>
      <trkpt lat="45.19751" lon="5.72612">
        <ele>393</ele>
        <time>2022-06-02T03:36:03.000Z</time>
      </trkpt>
      <trkpt lat="45.19751" lon="5.72614">
        <ele>392.79998779297</ele>
        <time>2022-06-02T03:36:04.000Z</time>
      </trkpt>
      <trkpt lat="45.19752" lon="5.72617">
        <ele>392.79998779297</ele>
        <time>2022-06-02T03:36:05.000Z</time>
      </trkpt>
      <trkpt lat="45.19752" lon="5.7262">
        <ele>393.20001220703</ele>
        <time>2022-06-02T03:36:06.000Z</time>
      </trkpt>
      <trkpt lat="45.19753" lon="5.72622">
        <ele>393</ele>
        <time>2022-06-02T03:36:07.000Z</time>
      </trkpt>
      <trkpt lat="45.19753" lon="5.72624">
        <ele>393</ele>
        <time>2022-06-02T03:36:08.000Z</time>
      </trkpt>
      <trkpt lat="45.19754" lon="5.72627">
        <ele>392.79998779297</ele>
        <time>2022-06-02T03:36:09.000Z</time>
      </trkpt>
      <trkpt lat="45.19755" lon="5.72631">
        <ele>393.20001220703</ele>
        <time>2022-06-02T03:36:10.000Z</time>
      </trkpt>
      <trkpt lat="45.19756" lon="5.72634">
        <ele>393.79998779297</ele>
        <time>2022-06-02T03:36:11.000Z</time>
      </trkpt>
      <trkpt lat="45.19758" lon="5.72638">
        <ele>393.79998779297</ele>
        <time>2022-06-02T03:36:12.000Z</time>
      </trkpt>
      <trkpt lat="45.1976" lon="5.72641">
        <ele>393.79998779297</ele>
        <time>2022-06-02T03:36:13.000Z</time>
      </trkpt>
      <trkpt lat="45.19762" lon="5.72645">
        <ele>393.60000610352</ele>
        <time>2022-06-02T03:36:14.000Z</time>
      </trkpt>
      <trkpt lat="45.19764" lon="5.7265">
        <ele>393.60000610352</ele>
        <time>2022-06-02T03:36:15.000Z</time>
      </trkpt>
      <trkpt lat="45.19767" lon="5.72654">
        <ele>394.20001220703</ele>
        <time>2022-06-02T03:36:16.000Z</time>
      </trkpt>
      <trkpt lat="45.19769" lon="5.72657">
        <ele>394.39999389648</ele>
        <time>2022-06-02T03:36:17.000Z</time>
      </trkpt>
      <trkpt lat="45.19771" lon="5.7266">
        <ele>394</ele>
        <time>2022-06-02T03:36:18.000Z</time>
      </trkpt>
      <trkpt lat="45.19773" lon="5.72663">
        <ele>394.20001220703</ele>
        <time>2022-06-02T03:36:19.000Z</time>
      </trkpt>
      <trkpt lat="45.19775" lon="5.72666">
        <ele>394.39999389648</ele>
        <time>2022-06-02T03:36:20.000Z</time>
      </trkpt>
      <trkpt lat="45.19777" lon="5.72668">
        <ele>394</ele>
        <time>2022-06-02T03:36:21.000Z</time>
      </trkpt>
      <trkpt lat="45.19779" lon="5.72671">
        <ele>394</ele>
        <time>2022-06-02T03:36:22.000Z</time>
      </trkpt>
      <trkpt lat="45.19781" lon="5.72673">
        <ele>394.39999389648</ele>
        <time>2022-06-02T03:36:23.000Z</time>
      </trkpt>
      <trkpt lat="45.19783" lon="5.72675">
        <ele>394.20001220703</ele>
        <time>2022-06-02T03:36:24.000Z</time>
      </trkpt>
      <trkpt lat="45.19786" lon="5.72677">
        <ele>393.79998779297</ele>
        <time>2022-06-02T03:36:25.000Z</time>
      </trkpt>
      <trkpt lat="45.19788" lon="5.7268">
        <ele>394.39999389648</ele>
        <time>2022-06-02T03:36:26.000Z</time>
      </trkpt>
      <trkpt lat="45.1979" lon="5.72682">
        <ele>394.60000610352</ele>
        <time>2022-06-02T03:36:27.000Z</time>
      </trkpt>
      <trkpt lat="45.19792" lon="5.72684">
        <ele>394.20001220703</ele>
        <time>2022-06-02T03:36:28.000Z</time>
      </trkpt>
      <trkpt lat="45.19794" lon="5.72686">
        <ele>394.20001220703</ele>
        <time>2022-06-02T03:36:29.000Z</time>
      </trkpt>
      <trkpt lat="45.19796" lon="5.72688">
        <ele>394.60000610352</ele>
        <time>2022-06-02T03:36:30.000Z</time>
      </trkpt>
      <trkpt lat="45.19798" lon="5.7269">
        <ele>394.20001220703</ele>
        <time>2022-06-02T03:36:31.000Z</time>
      </trkpt>
      <trkpt lat="45.198" lon="5.72692">
        <ele>393.79998779297</ele>
        <time>2022-06-02T03:36:32.000Z</time>
      </trkpt>
      <trkpt lat="45.19802" lon="5.72694">
        <ele>394.20001220703</ele>
        <time>2022-06-02T03:36:33.000Z</time>
      </trkpt>
      <trkpt lat="45.19804" lon="5.72695">
        <ele>394.39999389648</ele>
        <time>2022-06-02T03:36:34.000Z</time>
      </trkpt>
      <trkpt lat="45.19805" lon="5.72697">
        <ele>393.79998779297</ele>
        <time>2022-06-02T03:36:35.000Z</time>
      </trkpt>
      <trkpt lat="45.19806" lon="5.72698">
        <ele>393.79998779297</ele>
        <time>2022-06-02T03:36:36.000Z</time>
      </trkpt>
      <trkpt lat="45.19806" lon="5.72699">
        <ele>394</ele>
        <time>2022-06-02T03:36:37.000Z</time>
      </trkpt>
      <trkpt lat="45.19807" lon="5.727">
        <ele>394</ele>
        <time>2022-06-02T03:36:38.000Z</time>
      </trkpt>
      <trkpt lat="45.19807" lon="5.72701">
        <ele>394</ele>
        <time>2022-06-02T03:36:39.000Z</time>
      </trkpt>
      <trkpt lat="45.19807" lon="5.72701">
        <ele>394</ele>
        <time>2022-06-02T03:36:40.000Z</time>
      </trkpt>
      <trkpt lat="45.19808" lon="5.72702">
        <ele>394</ele>
        <time>2022-06-02T03:36:41.000Z</time>
      </trkpt>
      <trkpt lat="45.19808" lon="5.72702">
        <ele>394.20001220703</ele>
        <time>2022-06-02T03:36:42.000Z</time>
      </trkpt>
      <trkpt lat="45.19808" lon="5.72702">
        <ele>394.20001220703</ele>
        <time>2022-06-02T03:36:43.000Z</time>
      </trkpt>
      <trkpt lat="45.19808" lon="5.72703">
        <ele>394.20001220703</ele>
        <time>2022-06-02T03:36:44.000Z</time>
      </trkpt>
      <trkpt lat="45.19809" lon="5.72703">
        <ele>394</ele>
        <time>2022-06-02T03:36:45.000Z</time>
      </trkpt>
      <trkpt lat="45.19809" lon="5.72703">
        <ele>394</ele>
        <time>2022-06-02T03:36:46.000Z</time>
      </trkpt>
      <trkpt lat="45.19809" lon="5.72703">
        <ele>394</ele>
        <time>2022-06-02T03:36:47.000Z</time>
      </trkpt>
      <trkpt lat="45.19809" lon="5.72703">
        <ele>394</ele>
        <time>2022-06-02T03:36:48.000Z</time>
      </trkpt>
      <trkpt lat="45.19809" lon="5.72704">
        <ele>394</ele>
        <time>2022-06-02T03:36:49.000Z</time>
      </trkpt>
      <trkpt lat="45.19809" lon="5.72703">
        <ele>394</ele>
        <time>2022-06-02T03:36:50.000Z</time>
      </trkpt>
      <trkpt lat="45.19809" lon="5.72703">
        <ele>394</ele>
        <time>2022-06-02T03:36:51.000Z</time>
      </trkpt>
      <trkpt lat="45.19809" lon="5.72703">
        <ele>394</ele>
        <time>2022-06-02T03:36:52.000Z</time>
      </trkpt>
      <trkpt lat="45.19809" lon="5.72703">
        <ele>394</ele>
        <time>2022-06-02T03:36:53.000Z</time>
      </trkpt>
      <trkpt lat="45.19809" lon="5.72704">
        <ele>393.79998779297</ele>
        <time>2022-06-02T03:36:54.000Z</time>
      </trkpt>
      <trkpt lat="45.19809" lon="5.72704">
        <ele>393.79998779297</ele>
        <time>2022-06-02T03:36:55.000Z</time>
      </trkpt>
      <trkpt lat="45.19809" lon="5.72704">
        <ele>393.79998779297</ele>
        <time>2022-06-02T03:36:56.000Z</time>
      </trkpt>
      <trkpt lat="45.19809" lon="5.72704">
        <ele>393.79998779297</ele>
        <time>2022-06-02T03:36:57.000Z</time>
      </trkpt>
      <trkpt lat="45.19809" lon="5.72704">
        <ele>393.79998779297</ele>
        <time>2022-06-02T03:36:58.000Z</time>
      </trkpt>
      <trkpt lat="45.19809" lon="5.72704">
        <ele>393.79998779297</ele>
        <time>2022-06-02T03:36:59.000Z</time>
      </trkpt>
      <trkpt lat="45.19809" lon="5.72704">
        <ele>394</ele>
        <time>2022-06-02T03:37:00.000Z</time>
      </trkpt>
      <trkpt lat="45.19809" lon="5.72704">
        <ele>393.79998779297</ele>
        <time>2022-06-02T03:37:01.000Z</time>
      </trkpt>
      <trkpt lat="45.19809" lon="5.72704">
        <ele>394</ele>
        <time>2022-06-02T03:37:02.000Z</time>
      </trkpt>
      <trkpt lat="45.19809" lon="5.72704">
        <ele>393.79998779297</ele>
        <time>2022-06-02T03:37:03.000Z</time>
      </trkpt>
      <trkpt lat="45.19809" lon="5.72704">
        <ele>393.79998779297</ele>
        <time>2022-06-02T03:37:04.000Z</time>
      </trkpt>
      <trkpt lat="45.19809" lon="5.72704">
        <ele>393.79998779297</ele>
        <time>2022-06-02T03:37:05.000Z</time>
      </trkpt>
      <trkpt lat="45.19809" lon="5.72704">
        <ele>393.79998779297</ele>
        <time>2022-06-02T03:37:06.000Z</time>
      </trkpt>
      <trkpt lat="45.19809" lon="5.72704">
        <ele>394</ele>
        <time>2022-06-02T03:37:07.000Z</time>
      </trkpt>
      <trkpt lat="45.19809" lon="5.72704">
        <ele>394.20001220703</ele>
        <time>2022-06-02T03:37:08.000Z</time>
      </trkpt>
      <trkpt lat="45.19809" lon="5.72704">
        <ele>394</ele>
        <time>2022-06-02T03:37:09.000Z</time>
      </trkpt>
      <trkpt lat="45.19809" lon="5.72704">
        <ele>393.79998779297</ele>
        <time>2022-06-02T03:37:10.000Z</time>
      </trkpt>
      <trkpt lat="45.19809" lon="5.72704">
        <ele>393.79998779297</ele>
        <time>2022-06-02T03:37:11.000Z</time>
      </trkpt>
      <trkpt lat="45.19809" lon="5.72704">
        <ele>393.79998779297</ele>
        <time>2022-06-02T03:37:12.000Z</time>
      </trkpt>
      <trkpt lat="45.19809" lon="5.72704">
        <ele>394</ele>
        <time>2022-06-02T03:37:13.000Z</time>
      </trkpt>
      <trkpt lat="45.19809" lon="5.72704">
        <ele>394</ele>
        <time>2022-06-02T03:37:14.000Z</time>
      </trkpt>
      <trkpt lat="45.19809" lon="5.72704">
        <ele>394</ele>
        <time>2022-06-02T03:37:15.000Z</time>
      </trkpt>
      <trkpt lat="45.19809" lon="5.72704">
        <ele>394</ele>
        <time>2022-06-02T03:37:16.000Z</time>
      </trkpt>
      <trkpt lat="45.19809" lon="5.72704">
        <ele>393.79998779297</ele>
        <time>2022-06-02T03:37:17.000Z</time>
      </trkpt>
      <trkpt lat="45.19809" lon="5.72705">
        <ele>393.79998779297</ele>
        <time>2022-06-02T03:37:18.000Z</time>
      </trkpt>
      <trkpt lat="45.19809" lon="5.72705">
        <ele>394</ele>
        <time>2022-06-02T03:37:19.000Z</time>
      </trkpt>
      <trkpt lat="45.19809" lon="5.72705">
        <ele>394</ele>
        <time>2022-06-02T03:37:20.000Z</time>
      </trkpt>
      <trkpt lat="45.1981" lon="5.72705">
        <ele>393.79998779297</ele>
        <time>2022-06-02T03:37:21.000Z</time>
      </trkpt>
      <trkpt lat="45.1981" lon="5.72705">
        <ele>394</ele>
        <time>2022-06-02T03:37:22.000Z</time>
      </trkpt>
      <trkpt lat="45.19809" lon="5.72705">
        <ele>394</ele>
        <time>2022-06-02T03:37:23.000Z</time>
      </trkpt>
      <trkpt lat="45.19809" lon="5.72705">
        <ele>394</ele>
        <time>2022-06-02T03:37:24.000Z</time>
      </trkpt>
      <trkpt lat="45.19809" lon="5.72705">
        <ele>394</ele>
        <time>2022-06-02T03:37:25.000Z</time>
      </trkpt>
      <trkpt lat="45.19809" lon="5.72705">
        <ele>394</ele>
        <time>2022-06-02T03:37:26.000Z</time>
      </trkpt>
      <trkpt lat="45.19809" lon="5.72704">
        <ele>394</ele>
        <time>2022-06-02T03:37:27.000Z</time>
      </trkpt>
      <trkpt lat="45.19809" lon="5.72704">
        <ele>394</ele>
        <time>2022-06-02T03:37:28.000Z</time>
      </trkpt>
      <trkpt lat="45.1981" lon="5.72704">
        <ele>394</ele>
        <time>2022-06-02T03:37:29.000Z</time>
      </trkpt>
      <trkpt lat="45.19809" lon="5.72704">
        <ele>393.79998779297</ele>
        <time>2022-06-02T03:37:30.000Z</time>
      </trkpt>
      <trkpt lat="45.1981" lon="5.72704">
        <ele>393.79998779297</ele>
        <time>2022-06-02T03:37:31.000Z</time>
      </trkpt>
      <trkpt lat="45.1981" lon="5.72704">
        <ele>393.79998779297</ele>
        <time>2022-06-02T03:37:32.000Z</time>
      </trkpt>
      <trkpt lat="45.1981" lon="5.72704">
        <ele>393.79998779297</ele>
        <time>2022-06-02T03:37:33.000Z</time>
      </trkpt>
      <trkpt lat="45.1981" lon="5.72704">
        <ele>393.79998779297</ele>
        <time>2022-06-02T03:37:34.000Z</time>
      </trkpt>
      <trkpt lat="45.1981" lon="5.72704">
        <ele>393.79998779297</ele>
        <time>2022-06-02T03:37:35.000Z</time>
      </trkpt>
      <trkpt lat="45.1981" lon="5.72704">
        <ele>393.79998779297</ele>
        <time>2022-06-02T03:37:36.000Z</time>
      </trkpt>
      <trkpt lat="45.1981" lon="5.72704">
        <ele>393.79998779297</ele>
        <time>2022-06-02T03:37:37.000Z</time>
      </trkpt>
      <trkpt lat="45.1981" lon="5.72703">
        <ele>394</ele>
        <time>2022-06-02T03:37:38.000Z</time>
      </trkpt>
      <trkpt lat="45.1981" lon="5.72704">
        <ele>394</ele>
        <time>2022-06-02T03:37:39.000Z</time>
      </trkpt>
      <trkpt lat="45.1981" lon="5.72704">
        <ele>394</ele>
        <time>2022-06-02T03:37:40.000Z</time>
      </trkpt>
      <trkpt lat="45.1981" lon="5.72704">
        <ele>394</ele>
        <time>2022-06-02T03:37:41.000Z</time>
      </trkpt>
      <trkpt lat="45.1981" lon="5.72704">
        <ele>393.79998779297</ele>
        <time>2022-06-02T03:37:42.000Z</time>
      </trkpt>
      <trkpt lat="45.19809" lon="5.72704">
        <ele>393.79998779297</ele>
        <time>2022-06-02T03:37:43.000Z</time>
      </trkpt>
      <trkpt lat="45.19809" lon="5.72704">
        <ele>393.79998779297</ele>
        <time>2022-06-02T03:37:44.000Z</time>
      </trkpt>
      <trkpt lat="45.1981" lon="5.72704">
        <ele>394.20001220703</ele>
        <time>2022-06-02T03:37:45.000Z</time>
      </trkpt>
      <trkpt lat="45.1981" lon="5.72704">
        <ele>394</ele>
        <time>2022-06-02T03:37:46.000Z</time>
      </trkpt>
      <trkpt lat="45.1981" lon="5.72704">
        <ele>394</ele>
        <time>2022-06-02T03:37:47.000Z</time>
      </trkpt>
      <trkpt lat="45.1981" lon="5.72704">
        <ele>394</ele>
        <time>2022-06-02T03:37:48.000Z</time>
      </trkpt>
      <trkpt lat="45.19809" lon="5.72704">
        <ele>393.79998779297</ele>
        <time>2022-06-02T03:37:49.000Z</time>
      </trkpt>
      <trkpt lat="45.19809" lon="5.72704">
        <ele>394</ele>
        <time>2022-06-02T03:37:50.000Z</time>
      </trkpt>
      <trkpt lat="45.19809" lon="5.72704">
        <ele>393.79998779297</ele>
        <time>2022-06-02T03:37:51.000Z</time>
      </trkpt>
      <trkpt lat="45.19809" lon="5.72704">
        <ele>394</ele>
        <time>2022-06-02T03:37:52.000Z</time>
      </trkpt>
      <trkpt lat="45.19809" lon="5.72704">
        <ele>394</ele>
        <time>2022-06-02T03:37:53.000Z</time>
      </trkpt>
      <trkpt lat="45.19809" lon="5.72704">
        <ele>394.20001220703</ele>
        <time>2022-06-02T03:37:54.000Z</time>
      </trkpt>
      <trkpt lat="45.19809" lon="5.72704">
        <ele>394</ele>
        <time>2022-06-02T03:37:55.000Z</time>
      </trkpt>
      <trkpt lat="45.19809" lon="5.72704">
        <ele>394</ele>
        <time>2022-06-02T03:37:56.000Z</time>
      </trkpt>
      <trkpt lat="45.19809" lon="5.72704">
        <ele>394.20001220703</ele>
        <time>2022-06-02T03:37:57.000Z</time>
      </trkpt>
      <trkpt lat="45.19809" lon="5.72704">
        <ele>394.20001220703</ele>
        <time>2022-06-02T03:37:58.000Z</time>
      </trkpt>
      <trkpt lat="45.19809" lon="5.72704">
        <ele>394</ele>
        <time>2022-06-02T03:37:59.000Z</time>
      </trkpt>
      <trkpt lat="45.19809" lon="5.72704">
        <ele>394.20001220703</ele>
        <time>2022-06-02T03:38:00.000Z</time>
      </trkpt>
      <trkpt lat="45.19809" lon="5.72704">
        <ele>394</ele>
        <time>2022-06-02T03:38:01.000Z</time>
      </trkpt>
      <trkpt lat="45.19809" lon="5.72703">
        <ele>394</ele>
        <time>2022-06-02T03:38:02.000Z</time>
      </trkpt>
      <trkpt lat="45.19809" lon="5.72702">
        <ele>394</ele>
        <time>2022-06-02T03:38:03.000Z</time>
      </trkpt>
      <trkpt lat="45.19809" lon="5.72702">
        <ele>393.79998779297</ele>
        <time>2022-06-02T03:38:04.000Z</time>
      </trkpt>
      <trkpt lat="45.19809" lon="5.72701">
        <ele>394</ele>
        <time>2022-06-02T03:38:05.000Z</time>
      </trkpt>
      <trkpt lat="45.19809" lon="5.72701">
        <ele>394.20001220703</ele>
        <time>2022-06-02T03:38:06.000Z</time>
      </trkpt>
      <trkpt lat="45.19809" lon="5.72701">
        <ele>394.20001220703</ele>
        <time>2022-06-02T03:38:07.000Z</time>
      </trkpt>
      <trkpt lat="45.19809" lon="5.72701">
        <ele>394.20001220703</ele>
        <time>2022-06-02T03:38:08.000Z</time>
      </trkpt>
      <trkpt lat="45.19809" lon="5.72701">
        <ele>394.20001220703</ele>
        <time>2022-06-02T03:38:09.000Z</time>
      </trkpt>
      <trkpt lat="45.19809" lon="5.72701">
        <ele>394.20001220703</ele>
        <time>2022-06-02T03:38:10.000Z</time>
      </trkpt>
      <trkpt lat="45.19809" lon="5.72701">
        <ele>394.39999389648</ele>
        <time>2022-06-02T03:38:11.000Z</time>
      </trkpt>
      <trkpt lat="45.19809" lon="5.72701">
        <ele>394.20001220703</ele>
        <time>2022-06-02T03:38:12.000Z</time>
      </trkpt>
      <trkpt lat="45.19809" lon="5.72701">
        <ele>394.39999389648</ele>
        <time>2022-06-02T03:38:13.000Z</time>
      </trkpt>
      <trkpt lat="45.19809" lon="5.72701">
        <ele>394.39999389648</ele>
        <time>2022-06-02T03:38:14.000Z</time>
      </trkpt>
      <trkpt lat="45.19809" lon="5.72701">
        <ele>394.20001220703</ele>
        <time>2022-06-02T03:38:15.000Z</time>
      </trkpt>
      <trkpt lat="45.19809" lon="5.72701">
        <ele>394.20001220703</ele>
        <time>2022-06-02T03:38:16.000Z</time>
      </trkpt>
      <trkpt lat="45.19809" lon="5.72701">
        <ele>394</ele>
        <time>2022-06-02T03:38:17.000Z</time>
      </trkpt>
      <trkpt lat="45.19809" lon="5.72701">
        <ele>394</ele>
        <time>2022-06-02T03:38:18.000Z</time>
      </trkpt>
      <trkpt lat="45.19809" lon="5.72701">
        <ele>394.20001220703</ele>
        <time>2022-06-02T03:38:19.000Z</time>
      </trkpt>
      <trkpt lat="45.19809" lon="5.72701">
        <ele>394.20001220703</ele>
        <time>2022-06-02T03:38:20.000Z</time>
      </trkpt>
      <trkpt lat="45.19809" lon="5.72701">
        <ele>394.20001220703</ele>
        <time>2022-06-02T03:38:21.000Z</time>
      </trkpt>
      <trkpt lat="45.19809" lon="5.72701">
        <ele>394.20001220703</ele>
        <time>2022-06-02T03:38:22.000Z</time>
      </trkpt>
      <trkpt lat="45.19809" lon="5.72701">
        <ele>394.20001220703</ele>
        <time>2022-06-02T03:38:23.000Z</time>
      </trkpt>
      <trkpt lat="45.19809" lon="5.72701">
        <ele>394</ele>
        <time>2022-06-02T03:38:24.000Z</time>
      </trkpt>
      <trkpt lat="45.19809" lon="5.72701">
        <ele>394.20001220703</ele>
        <time>2022-06-02T03:38:25.000Z</time>
      </trkpt>
      <trkpt lat="45.19809" lon="5.72701">
        <ele>394.20001220703</ele>
        <time>2022-06-02T03:38:26.000Z</time>
      </trkpt>
      <trkpt lat="45.19809" lon="5.72701">
        <ele>394.39999389648</ele>
        <time>2022-06-02T03:38:27.000Z</time>
      </trkpt>
      <trkpt lat="45.19809" lon="5.72701">
        <ele>394.20001220703</ele>
        <time>2022-06-02T03:38:28.000Z</time>
      </trkpt>
      <trkpt lat="45.19809" lon="5.72701">
        <ele>394.20001220703</ele>
        <time>2022-06-02T03:38:29.000Z</time>
      </trkpt>
      <trkpt lat="45.19809" lon="5.72701">
        <ele>394.20001220703</ele>
        <time>2022-06-02T03:38:30.000Z</time>
      </trkpt>
      <trkpt lat="45.19809" lon="5.72701">
        <ele>394.20001220703</ele>
        <time>2022-06-02T03:38:31.000Z</time>
      </trkpt>
      <trkpt lat="45.19809" lon="5.72701">
        <ele>394.39999389648</ele>
        <time>2022-06-02T03:38:32.000Z</time>
      </trkpt>
      <trkpt lat="45.19809" lon="5.72701">
        <ele>394.20001220703</ele>
        <time>2022-06-02T03:38:33.000Z</time>
      </trkpt>
      <trkpt lat="45.19809" lon="5.72701">
        <ele>394.20001220703</ele>
        <time>2022-06-02T03:38:34.000Z</time>
      </trkpt>
      <trkpt lat="45.19809" lon="5.72701">
        <ele>394.20001220703</ele>
        <time>2022-06-02T03:38:35.000Z</time>
      </trkpt>
      <trkpt lat="45.19809" lon="5.72701">
        <ele>394.39999389648</ele>
        <time>2022-06-02T03:38:36.000Z</time>
      </trkpt>
      <trkpt lat="45.19809" lon="5.72701">
        <ele>394.20001220703</ele>
        <time>2022-06-02T03:38:37.000Z</time>
      </trkpt>
      <trkpt lat="45.19809" lon="5.72701">
        <ele>394.20001220703</ele>
        <time>2022-06-02T03:38:38.000Z</time>
      </trkpt>
      <trkpt lat="45.19809" lon="5.72701">
        <ele>394.39999389648</ele>
        <time>2022-06-02T03:38:39.000Z</time>
      </trkpt>
      <trkpt lat="45.19809" lon="5.72701">
        <ele>394.39999389648</ele>
        <time>2022-06-02T03:38:40.000Z</time>
      </trkpt>
      <trkpt lat="45.19809" lon="5.72701">
        <ele>394.20001220703</ele>
        <time>2022-06-02T03:38:41.000Z</time>
      </trkpt>
      <trkpt lat="45.19809" lon="5.72701">
        <ele>394.39999389648</ele>
        <time>2022-06-02T03:38:42.000Z</time>
      </trkpt>
      <trkpt lat="45.19809" lon="5.72701">
        <ele>394.39999389648</ele>
        <time>2022-06-02T03:38:43.000Z</time>
      </trkpt>
      <trkpt lat="45.19809" lon="5.72701">
        <ele>394.20001220703</ele>
        <time>2022-06-02T03:38:44.000Z</time>
      </trkpt>
      <trkpt lat="45.19809" lon="5.72701">
        <ele>394.20001220703</ele>
        <time>2022-06-02T03:38:45.000Z</time>
      </trkpt>
      <trkpt lat="45.19809" lon="5.72701">
        <ele>394.20001220703</ele>
        <time>2022-06-02T03:38:46.000Z</time>
      </trkpt>
      <trkpt lat="45.19809" lon="5.72701">
        <ele>394.20001220703</ele>
        <time>2022-06-02T03:38:47.000Z</time>
      </trkpt>
      <trkpt lat="45.19809" lon="5.72701">
        <ele>394.20001220703</ele>
        <time>2022-06-02T03:38:48.000Z</time>
      </trkpt>
      <trkpt lat="45.19809" lon="5.72701">
        <ele>394.20001220703</ele>
        <time>2022-06-02T03:38:49.000Z</time>
      </trkpt>
      <trkpt lat="45.19808" lon="5.72701">
        <ele>394.20001220703</ele>
        <time>2022-06-02T03:38:50.000Z</time>
      </trkpt>
      <trkpt lat="45.19809" lon="5.72701">
        <ele>394.20001220703</ele>
        <time>2022-06-02T03:38:51.000Z</time>
      </trkpt>
      <trkpt lat="45.19809" lon="5.72701">
        <ele>394.39999389648</ele>
        <time>2022-06-02T03:38:52.000Z</time>
      </trkpt>
      <trkpt lat="45.19809" lon="5.72702">
        <ele>394.20001220703</ele>
        <time>2022-06-02T03:38:53.000Z</time>
      </trkpt>
      <trkpt lat="45.19809" lon="5.72702">
        <ele>394.20001220703</ele>
        <time>2022-06-02T03:38:54.000Z</time>
      </trkpt>
      <trkpt lat="45.19809" lon="5.72702">
        <ele>394.20001220703</ele>
        <time>2022-06-02T03:38:55.000Z</time>
      </trkpt>
      <trkpt lat="45.19808" lon="5.72703">
        <ele>394.20001220703</ele>
        <time>2022-06-02T03:38:56.000Z</time>
      </trkpt>
      <trkpt lat="45.19808" lon="5.72704">
        <ele>394.20001220703</ele>
        <time>2022-06-02T03:38:57.000Z</time>
      </trkpt>
      <trkpt lat="45.19808" lon="5.72704">
        <ele>394.20001220703</ele>
        <time>2022-06-02T03:38:58.000Z</time>
      </trkpt>
      <trkpt lat="45.19808" lon="5.72704">
        <ele>394.20001220703</ele>
        <time>2022-06-02T03:38:59.000Z</time>
      </trkpt>
      <trkpt lat="45.19808" lon="5.72704">
        <ele>394.20001220703</ele>
        <time>2022-06-02T03:39:00.000Z</time>
      </trkpt>
      <trkpt lat="45.19808" lon="5.72703">
        <ele>394.20001220703</ele>
        <time>2022-06-02T03:39:01.000Z</time>
      </trkpt>
      <trkpt lat="45.19808" lon="5.72703">
        <ele>394.20001220703</ele>
        <time>2022-06-02T03:39:02.000Z</time>
      </trkpt>
      <trkpt lat="45.19808" lon="5.72703">
        <ele>394.20001220703</ele>
        <time>2022-06-02T03:39:03.000Z</time>
      </trkpt>
      <trkpt lat="45.19808" lon="5.72703">
        <ele>394.39999389648</ele>
        <time>2022-06-02T03:39:04.000Z</time>
      </trkpt>
      <trkpt lat="45.19809" lon="5.72703">
        <ele>394.60000610352</ele>
        <time>2022-06-02T03:39:05.000Z</time>
      </trkpt>
      <trkpt lat="45.19809" lon="5.72702">
        <ele>394.20001220703</ele>
        <time>2022-06-02T03:39:06.000Z</time>
      </trkpt>
      <trkpt lat="45.19809" lon="5.72703">
        <ele>394.20001220703</ele>
        <time>2022-06-02T03:39:07.000Z</time>
      </trkpt>
      <trkpt lat="45.19809" lon="5.72703">
        <ele>394.39999389648</ele>
        <time>2022-06-02T03:39:08.000Z</time>
      </trkpt>
      <trkpt lat="45.19809" lon="5.72703">
        <ele>394.39999389648</ele>
        <time>2022-06-02T03:39:09.000Z</time>
      </trkpt>
      <trkpt lat="45.19809" lon="5.72703">
        <ele>394.60000610352</ele>
        <time>2022-06-02T03:39:10.000Z</time>
      </trkpt>
      <trkpt lat="45.1981" lon="5.72703">
        <ele>394.39999389648</ele>
        <time>2022-06-02T03:39:11.000Z</time>
      </trkpt>
      <trkpt lat="45.19811" lon="5.72704">
        <ele>394.20001220703</ele>
        <time>2022-06-02T03:39:12.000Z</time>
      </trkpt>
      <trkpt lat="45.19813" lon="5.72705">
        <ele>394.20001220703</ele>
        <time>2022-06-02T03:39:13.000Z</time>
      </trkpt>
      <trkpt lat="45.19814" lon="5.72706">
        <ele>394.20001220703</ele>
        <time>2022-06-02T03:39:14.000Z</time>
      </trkpt>
      <trkpt lat="45.19815" lon="5.72707">
        <ele>394.20001220703</ele>
        <time>2022-06-02T03:39:15.000Z</time>
      </trkpt>
      <trkpt lat="45.19817" lon="5.72708">
        <ele>394.39999389648</ele>
        <time>2022-06-02T03:39:16.000Z</time>
      </trkpt>
      <trkpt lat="45.19818" lon="5.72709">
        <ele>394.60000610352</ele>
        <time>2022-06-02T03:39:17.000Z</time>
      </trkpt>
      <trkpt lat="45.19819" lon="5.72709">
        <ele>394.60000610352</ele>
        <time>2022-06-02T03:39:18.000Z</time>
      </trkpt>
      <trkpt lat="45.19821" lon="5.72711">
        <ele>394.39999389648</ele>
        <time>2022-06-02T03:39:19.000Z</time>
      </trkpt>
      <trkpt lat="45.19823" lon="5.72712">
        <ele>394.39999389648</ele>
        <time>2022-06-02T03:39:20.000Z</time>
      </trkpt>
      <trkpt lat="45.19824" lon="5.72714">
        <ele>394.60000610352</ele>
        <time>2022-06-02T03:39:21.000Z</time>
      </trkpt>
      <trkpt lat="45.19826" lon="5.72716">
        <ele>394.60000610352</ele>
        <time>2022-06-02T03:39:22.000Z</time>
      </trkpt>
      <trkpt lat="45.19829" lon="5.72718">
        <ele>394.79998779297</ele>
        <time>2022-06-02T03:39:23.000Z</time>
      </trkpt>
      <trkpt lat="45.1983" lon="5.7272">
        <ele>394.79998779297</ele>
        <time>2022-06-02T03:39:24.000Z</time>
      </trkpt>
      <trkpt lat="45.19832" lon="5.72722">
        <ele>394.79998779297</ele>
        <time>2022-06-02T03:39:25.000Z</time>
      </trkpt>
      <trkpt lat="45.19833" lon="5.72725">
        <ele>395.20001220703</ele>
        <time>2022-06-02T03:39:26.000Z</time>
      </trkpt>
      <trkpt lat="45.19835" lon="5.72728">
        <ele>395.60000610352</ele>
        <time>2022-06-02T03:39:27.000Z</time>
      </trkpt>
      <trkpt lat="45.19836" lon="5.72732">
        <ele>395.79998779297</ele>
        <time>2022-06-02T03:39:28.000Z</time>
      </trkpt>
      <trkpt lat="45.19837" lon="5.72735">
        <ele>395.79998779297</ele>
        <time>2022-06-02T03:39:29.000Z</time>
      </trkpt>
      <trkpt lat="45.19838" lon="5.72737">
        <ele>395.79998779297</ele>
        <time>2022-06-02T03:39:30.000Z</time>
      </trkpt>
      <trkpt lat="45.19839" lon="5.7274">
        <ele>395.60000610352</ele>
        <time>2022-06-02T03:39:31.000Z</time>
      </trkpt>
      <trkpt lat="45.19841" lon="5.72742">
        <ele>395.39999389648</ele>
        <time>2022-06-02T03:39:32.000Z</time>
      </trkpt>
      <trkpt lat="45.19841" lon="5.72744">
        <ele>395.39999389648</ele>
        <time>2022-06-02T03:39:33.000Z</time>
      </trkpt>
      <trkpt lat="45.19842" lon="5.72745">
        <ele>395.60000610352</ele>
        <time>2022-06-02T03:39:34.000Z</time>
      </trkpt>
      <trkpt lat="45.19843" lon="5.72745">
        <ele>395.39999389648</ele>
        <time>2022-06-02T03:39:35.000Z</time>
      </trkpt>
      <trkpt lat="45.19844" lon="5.72745">
        <ele>395.20001220703</ele>
        <time>2022-06-02T03:39:36.000Z</time>
      </trkpt>
      <trkpt lat="45.19845" lon="5.72745">
        <ele>395.39999389648</ele>
        <time>2022-06-02T03:39:37.000Z</time>
      </trkpt>
      <trkpt lat="45.19846" lon="5.72744">
        <ele>395.39999389648</ele>
        <time>2022-06-02T03:39:38.000Z</time>
      </trkpt>
      <trkpt lat="45.19848" lon="5.72743">
        <ele>394.60000610352</ele>
        <time>2022-06-02T03:39:39.000Z</time>
      </trkpt>
      <trkpt lat="45.19849" lon="5.72743">
        <ele>394</ele>
        <time>2022-06-02T03:39:40.000Z</time>
      </trkpt>
      <trkpt lat="45.1985" lon="5.72742">
        <ele>393.79998779297</ele>
        <time>2022-06-02T03:39:41.000Z</time>
      </trkpt>
      <trkpt lat="45.19854" lon="5.72738">
        <ele>393.39999389648</ele>
        <time>2022-06-02T03:39:44.000Z</time>
      </trkpt>
      <trkpt lat="45.19853" lon="5.7274">
        <ele>392.79998779297</ele>
        <time>2022-06-02T03:39:45.000Z</time>
      </trkpt>
      <trkpt lat="45.19853" lon="5.72739">
        <ele>392.20001220703</ele>
        <time>2022-06-02T03:39:46.000Z</time>
      </trkpt>
      <trkpt lat="45.19854" lon="5.72738">
        <ele>391.79998779297</ele>
        <time>2022-06-02T03:39:47.000Z</time>
      </trkpt>
      <trkpt lat="45.19854" lon="5.72738">
        <ele>391.79998779297</ele>
        <time>2022-06-02T03:39:48.000Z</time>
      </trkpt>
      <trkpt lat="45.19855" lon="5.72738">
        <ele>391.39999389648</ele>
        <time>2022-06-02T03:39:49.000Z</time>
      </trkpt>
      <trkpt lat="45.19856" lon="5.72739">
        <ele>391.20001220703</ele>
        <time>2022-06-02T03:39:50.000Z</time>
      </trkpt>
      <trkpt lat="45.19856" lon="5.7274">
        <ele>391.20001220703</ele>
        <time>2022-06-02T03:39:51.000Z</time>
      </trkpt>
      <trkpt lat="45.19857" lon="5.72743">
        <ele>391</ele>
        <time>2022-06-02T03:39:52.000Z</time>
      </trkpt>
      <trkpt lat="45.19857" lon="5.72746">
        <ele>391</ele>
        <time>2022-06-02T03:39:53.000Z</time>
      </trkpt>
      <trkpt lat="45.19857" lon="5.72748">
        <ele>390.60000610352</ele>
        <time>2022-06-02T03:39:54.000Z</time>
      </trkpt>
      <trkpt lat="45.19857" lon="5.72751">
        <ele>390.60000610352</ele>
        <time>2022-06-02T03:39:55.000Z</time>
      </trkpt>
      <trkpt lat="45.19857" lon="5.72754">
        <ele>390.60000610352</ele>
        <time>2022-06-02T03:39:56.000Z</time>
      </trkpt>
      <trkpt lat="45.19856" lon="5.72757">
        <ele>390.39999389648</ele>
        <time>2022-06-02T03:39:57.000Z</time>
      </trkpt>
      <trkpt lat="45.19856" lon="5.72759">
        <ele>390</ele>
        <time>2022-06-02T03:39:58.000Z</time>
      </trkpt>
      <trkpt lat="45.19856" lon="5.7276">
        <ele>389.39999389648</ele>
        <time>2022-06-02T03:39:59.000Z</time>
      </trkpt>
      <trkpt lat="45.19856" lon="5.72761">
        <ele>389.39999389648</ele>
        <time>2022-06-02T03:40:00.000Z</time>
      </trkpt>
      <trkpt lat="45.19855" lon="5.7276">
        <ele>389.20001220703</ele>
        <time>2022-06-02T03:40:01.000Z</time>
      </trkpt>
      <trkpt lat="45.19855" lon="5.7276">
        <ele>388.39999389648</ele>
        <time>2022-06-02T03:40:02.000Z</time>
      </trkpt>
      <trkpt lat="45.19855" lon="5.72759">
        <ele>388</ele>
        <time>2022-06-02T03:40:03.000Z</time>
      </trkpt>
      <trkpt lat="45.19855" lon="5.72758">
        <ele>387.60000610352</ele>
        <time>2022-06-02T03:40:04.000Z</time>
      </trkpt>
      <trkpt lat="45.19856" lon="5.72757">
        <ele>386.79998779297</ele>
        <time>2022-06-02T03:40:05.000Z</time>
      </trkpt>
      <trkpt lat="45.19856" lon="5.72757">
        <ele>386.39999389648</ele>
        <time>2022-06-02T03:40:06.000Z</time>
      </trkpt>
      <trkpt lat="45.19856" lon="5.72756">
        <ele>386</ele>
        <time>2022-06-02T03:40:07.000Z</time>
      </trkpt>
      <trkpt lat="45.19855" lon="5.72755">
        <ele>386</ele>
        <time>2022-06-02T03:40:08.000Z</time>
      </trkpt>
      <trkpt lat="45.19854" lon="5.72755">
        <ele>386</ele>
        <time>2022-06-02T03:40:09.000Z</time>
      </trkpt>
      <trkpt lat="45.19852" lon="5.72755">
        <ele>385.60000610352</ele>
        <time>2022-06-02T03:40:10.000Z</time>
      </trkpt>
      <trkpt lat="45.19852" lon="5.72756">
        <ele>384.79998779297</ele>
        <time>2022-06-02T03:40:11.000Z</time>
      </trkpt>
      <trkpt lat="45.19852" lon="5.72757">
        <ele>384.60000610352</ele>
        <time>2022-06-02T03:40:12.000Z</time>
      </trkpt>
      <trkpt lat="45.19852" lon="5.72758">
        <ele>384.39999389648</ele>
        <time>2022-06-02T03:40:13.000Z</time>
      </trkpt>
      <trkpt lat="45.19852" lon="5.72758">
        <ele>384.39999389648</ele>
        <time>2022-06-02T03:40:14.000Z</time>
      </trkpt>
      <trkpt lat="45.19851" lon="5.7276">
        <ele>384.39999389648</ele>
        <time>2022-06-02T03:40:15.000Z</time>
      </trkpt>
      <trkpt lat="45.19851" lon="5.72761">
        <ele>384.39999389648</ele>
        <time>2022-06-02T03:40:16.000Z</time>
      </trkpt>
      <trkpt lat="45.19851" lon="5.72762">
        <ele>384.60000610352</ele>
        <time>2022-06-02T03:40:17.000Z</time>
      </trkpt>
      <trkpt lat="45.19851" lon="5.72763">
        <ele>384.39999389648</ele>
        <time>2022-06-02T03:40:18.000Z</time>
      </trkpt>
      <trkpt lat="45.19851" lon="5.72764">
        <ele>384</ele>
        <time>2022-06-02T03:40:19.000Z</time>
      </trkpt>
      <trkpt lat="45.1985" lon="5.72765">
        <ele>383.39999389648</ele>
        <time>2022-06-02T03:40:20.000Z</time>
      </trkpt>
      <trkpt lat="45.19851" lon="5.72764">
        <ele>383.20001220703</ele>
        <time>2022-06-02T03:40:21.000Z</time>
      </trkpt>
      <trkpt lat="45.19851" lon="5.72764">
        <ele>382.39999389648</ele>
        <time>2022-06-02T03:40:22.000Z</time>
      </trkpt>
      <trkpt lat="45.19854" lon="5.72762">
        <ele>380.39999389648</ele>
        <time>2022-06-02T03:40:26.000Z</time>
      </trkpt>
      <trkpt lat="45.19854" lon="5.72763">
        <ele>379.79998779297</ele>
        <time>2022-06-02T03:40:27.000Z</time>
      </trkpt>
      <trkpt lat="45.19851" lon="5.72764">
        <ele>379.60000610352</ele>
        <time>2022-06-02T03:40:28.000Z</time>
      </trkpt>
      <trkpt lat="45.19849" lon="5.72762">
        <ele>378.79998779297</ele>
        <time>2022-06-02T03:40:29.000Z</time>
      </trkpt>
      <trkpt lat="45.19863" lon="5.72736">
        <ele>373</ele>
        <time>2022-06-02T03:40:40.000Z</time>
      </trkpt>
      <trkpt lat="45.19871" lon="5.72737">
        <ele>372.60000610352</ele>
        <time>2022-06-02T03:40:41.000Z</time>
      </trkpt>
      <trkpt lat="45.19871" lon="5.72737">
        <ele>372.39999389648</ele>
        <time>2022-06-02T03:40:42.000Z</time>
      </trkpt>
      <trkpt lat="45.1987" lon="5.72741">
        <ele>372</ele>
        <time>2022-06-02T03:40:43.000Z</time>
      </trkpt>
      <trkpt lat="45.19869" lon="5.72745">
        <ele>372</ele>
        <time>2022-06-02T03:40:44.000Z</time>
      </trkpt>
      <trkpt lat="45.19866" lon="5.72747">
        <ele>371.60000610352</ele>
        <time>2022-06-02T03:40:45.000Z</time>
      </trkpt>
      <trkpt lat="45.19861" lon="5.72749">
        <ele>371.39999389648</ele>
        <time>2022-06-02T03:40:46.000Z</time>
      </trkpt>
      <trkpt lat="45.19858" lon="5.72752">
        <ele>371</ele>
        <time>2022-06-02T03:40:47.000Z</time>
      </trkpt>
      <trkpt lat="45.19856" lon="5.72755">
        <ele>370.39999389648</ele>
        <time>2022-06-02T03:40:48.000Z</time>
      </trkpt>
      <trkpt lat="45.19855" lon="5.72757">
        <ele>370.20001220703</ele>
        <time>2022-06-02T03:40:49.000Z</time>
      </trkpt>
      <trkpt lat="45.19853" lon="5.72758">
        <ele>369.60000610352</ele>
        <time>2022-06-02T03:40:50.000Z</time>
      </trkpt>
      <trkpt lat="45.19853" lon="5.72759">
        <ele>369</ele>
        <time>2022-06-02T03:40:51.000Z</time>
      </trkpt>
      <trkpt lat="45.19852" lon="5.7276">
        <ele>368.60000610352</ele>
        <time>2022-06-02T03:40:52.000Z</time>
      </trkpt>
      <trkpt lat="45.19851" lon="5.7276">
        <ele>367.60000610352</ele>
        <time>2022-06-02T03:40:53.000Z</time>
      </trkpt>
      <trkpt lat="45.19849" lon="5.7276">
        <ele>367.20001220703</ele>
        <time>2022-06-02T03:40:54.000Z</time>
      </trkpt>
      <trkpt lat="45.19848" lon="5.72761">
        <ele>367</ele>
        <time>2022-06-02T03:40:55.000Z</time>
      </trkpt>
      <trkpt lat="45.19849" lon="5.72763">
        <ele>367</ele>
        <time>2022-06-02T03:40:56.000Z</time>
      </trkpt>
      <trkpt lat="45.1985" lon="5.72767">
        <ele>367</ele>
        <time>2022-06-02T03:40:57.000Z</time>
      </trkpt>
      <trkpt lat="45.19852" lon="5.7277">
        <ele>367</ele>
        <time>2022-06-02T03:40:58.000Z</time>
      </trkpt>
      <trkpt lat="45.19853" lon="5.72772">
        <ele>367.20001220703</ele>
        <time>2022-06-02T03:40:59.000Z</time>
      </trkpt>
      <trkpt lat="45.19854" lon="5.72775">
        <ele>367.20001220703</ele>
        <time>2022-06-02T03:41:00.000Z</time>
      </trkpt>
      <trkpt lat="45.19854" lon="5.72777">
        <ele>367.20001220703</ele>
        <time>2022-06-02T03:41:01.000Z</time>
      </trkpt>
      <trkpt lat="45.19853" lon="5.72777">
        <ele>365.79998779297</ele>
        <time>2022-06-02T03:41:02.000Z</time>
      </trkpt>
      <trkpt lat="45.19851" lon="5.72776">
        <ele>365.60000610352</ele>
        <time>2022-06-02T03:41:03.000Z</time>
      </trkpt>
      <trkpt lat="45.19849" lon="5.72775">
        <ele>365.79998779297</ele>
        <time>2022-06-02T03:41:04.000Z</time>
      </trkpt>
      <trkpt lat="45.19846" lon="5.72774">
        <ele>365.60000610352</ele>
        <time>2022-06-02T03:41:05.000Z</time>
      </trkpt>
      <trkpt lat="45.19844" lon="5.72772">
        <ele>365.20001220703</ele>
        <time>2022-06-02T03:41:06.000Z</time>
      </trkpt>
      <trkpt lat="45.19842" lon="5.72771">
        <ele>365.20001220703</ele>
        <time>2022-06-02T03:41:07.000Z</time>
      </trkpt>
      <trkpt lat="45.19839" lon="5.72769">
        <ele>365</ele>
        <time>2022-06-02T03:41:08.000Z</time>
      </trkpt>
      <trkpt lat="45.19837" lon="5.72767">
        <ele>364.60000610352</ele>
        <time>2022-06-02T03:41:09.000Z</time>
      </trkpt>
      <trkpt lat="45.19835" lon="5.72766">
        <ele>363.79998779297</ele>
        <time>2022-06-02T03:41:10.000Z</time>
      </trkpt>
      <trkpt lat="45.19833" lon="5.72764">
        <ele>363.60000610352</ele>
        <time>2022-06-02T03:41:11.000Z</time>
      </trkpt>
      <trkpt lat="45.19831" lon="5.72762">
        <ele>363.20001220703</ele>
        <time>2022-06-02T03:41:12.000Z</time>
      </trkpt>
      <trkpt lat="45.19829" lon="5.72761">
        <ele>363.20001220703</ele>
        <time>2022-06-02T03:41:13.000Z</time>
      </trkpt>
      <trkpt lat="45.19826" lon="5.72761">
        <ele>363.20001220703</ele>
        <time>2022-06-02T03:41:14.000Z</time>
      </trkpt>
      <trkpt lat="45.19824" lon="5.7276">
        <ele>363.39999389648</ele>
        <time>2022-06-02T03:41:15.000Z</time>
      </trkpt>
      <trkpt lat="45.19821" lon="5.72758">
        <ele>362.79998779297</ele>
        <time>2022-06-02T03:41:16.000Z</time>
      </trkpt>
      <trkpt lat="45.19818" lon="5.72757">
        <ele>362.39999389648</ele>
        <time>2022-06-02T03:41:17.000Z</time>
      </trkpt>
      <trkpt lat="45.19816" lon="5.72755">
        <ele>362.79998779297</ele>
        <time>2022-06-02T03:41:18.000Z</time>
      </trkpt>
      <trkpt lat="45.19814" lon="5.72753">
        <ele>362</ele>
        <time>2022-06-02T03:41:19.000Z</time>
      </trkpt>
      <trkpt lat="45.19812" lon="5.7275">
        <ele>362</ele>
        <time>2022-06-02T03:41:20.000Z</time>
      </trkpt>
      <trkpt lat="45.1981" lon="5.72748">
        <ele>361.79998779297</ele>
        <time>2022-06-02T03:41:21.000Z</time>
      </trkpt>
      <trkpt lat="45.19808" lon="5.72746">
        <ele>361.39999389648</ele>
        <time>2022-06-02T03:41:22.000Z</time>
      </trkpt>
      <trkpt lat="45.19806" lon="5.72744">
        <ele>361</ele>
        <time>2022-06-02T03:41:23.000Z</time>
      </trkpt>
      <trkpt lat="45.19804" lon="5.72742">
        <ele>361.60000610352</ele>
        <time>2022-06-02T03:41:24.000Z</time>
      </trkpt>
      <trkpt lat="45.19802" lon="5.72741">
        <ele>360.79998779297</ele>
        <time>2022-06-02T03:41:25.000Z</time>
      </trkpt>
      <trkpt lat="45.198" lon="5.72739">
        <ele>360.79998779297</ele>
        <time>2022-06-02T03:41:26.000Z</time>
      </trkpt>
      <trkpt lat="45.19798" lon="5.72737">
        <ele>360</ele>
        <time>2022-06-02T03:41:27.000Z</time>
      </trkpt>
      <trkpt lat="45.19795" lon="5.72735">
        <ele>359.79998779297</ele>
        <time>2022-06-02T03:41:28.000Z</time>
      </trkpt>
      <trkpt lat="45.19793" lon="5.72734">
        <ele>360</ele>
        <time>2022-06-02T03:41:29.000Z</time>
      </trkpt>
      <trkpt lat="45.19791" lon="5.72732">
        <ele>359</ele>
        <time>2022-06-02T03:41:30.000Z</time>
      </trkpt>
      <trkpt lat="45.19789" lon="5.72731">
        <ele>359</ele>
        <time>2022-06-02T03:41:31.000Z</time>
      </trkpt>
      <trkpt lat="45.19789" lon="5.72732">
        <ele>358.79998779297</ele>
        <time>2022-06-02T03:41:32.000Z</time>
      </trkpt>
      <trkpt lat="45.19788" lon="5.72734">
        <ele>358.39999389648</ele>
        <time>2022-06-02T03:41:33.000Z</time>
      </trkpt>
      <trkpt lat="45.19789" lon="5.72736">
        <ele>357.79998779297</ele>
        <time>2022-06-02T03:41:34.000Z</time>
      </trkpt>
      <trkpt lat="45.1979" lon="5.72739">
        <ele>358.20001220703</ele>
        <time>2022-06-02T03:41:35.000Z</time>
      </trkpt>
      <trkpt lat="45.19791" lon="5.72742">
        <ele>357.39999389648</ele>
        <time>2022-06-02T03:41:36.000Z</time>
      </trkpt>
      <trkpt lat="45.19792" lon="5.72744">
        <ele>357.20001220703</ele>
        <time>2022-06-02T03:41:37.000Z</time>
      </trkpt>
      <trkpt lat="45.19794" lon="5.72746">
        <ele>357.60000610352</ele>
        <time>2022-06-02T03:41:38.000Z</time>
      </trkpt>
      <trkpt lat="45.19796" lon="5.72748">
        <ele>357</ele>
        <time>2022-06-02T03:41:39.000Z</time>
      </trkpt>
      <trkpt lat="45.19798" lon="5.7275">
        <ele>356.79998779297</ele>
        <time>2022-06-02T03:41:40.000Z</time>
      </trkpt>
      <trkpt lat="45.198" lon="5.72752">
        <ele>356.20001220703</ele>
        <time>2022-06-02T03:41:41.000Z</time>
      </trkpt>
      <trkpt lat="45.19802" lon="5.72754">
        <ele>356.20001220703</ele>
        <time>2022-06-02T03:41:42.000Z</time>
      </trkpt>
      <trkpt lat="45.19803" lon="5.72756">
        <ele>355.20001220703</ele>
        <time>2022-06-02T03:41:43.000Z</time>
      </trkpt>
      <trkpt lat="45.19805" lon="5.72758">
        <ele>355.60000610352</ele>
        <time>2022-06-02T03:41:44.000Z</time>
      </trkpt>
      <trkpt lat="45.19807" lon="5.72761">
        <ele>355.20001220703</ele>
        <time>2022-06-02T03:41:45.000Z</time>
      </trkpt>
      <trkpt lat="45.19809" lon="5.72763">
        <ele>355</ele>
        <time>2022-06-02T03:41:46.000Z</time>
      </trkpt>
      <trkpt lat="45.19811" lon="5.72766">
        <ele>354.20001220703</ele>
        <time>2022-06-02T03:41:47.000Z</time>
      </trkpt>
      <trkpt lat="45.19812" lon="5.72768">
        <ele>354.20001220703</ele>
        <time>2022-06-02T03:41:48.000Z</time>
      </trkpt>
      <trkpt lat="45.19813" lon="5.7277">
        <ele>353.60000610352</ele>
        <time>2022-06-02T03:41:49.000Z</time>
      </trkpt>
      <trkpt lat="45.19815" lon="5.72772">
        <ele>353.60000610352</ele>
        <time>2022-06-02T03:41:50.000Z</time>
      </trkpt>
      <trkpt lat="45.19817" lon="5.72774">
        <ele>353.60000610352</ele>
        <time>2022-06-02T03:41:51.000Z</time>
      </trkpt>
      <trkpt lat="45.19819" lon="5.72776">
        <ele>352.79998779297</ele>
        <time>2022-06-02T03:41:52.000Z</time>
      </trkpt>
      <trkpt lat="45.19821" lon="5.72778">
        <ele>352.60000610352</ele>
        <time>2022-06-02T03:41:53.000Z</time>
      </trkpt>
      <trkpt lat="45.19823" lon="5.72779">
        <ele>352.60000610352</ele>
        <time>2022-06-02T03:41:54.000Z</time>
      </trkpt>
      <trkpt lat="45.19824" lon="5.72781">
        <ele>352</ele>
        <time>2022-06-02T03:41:55.000Z</time>
      </trkpt>
      <trkpt lat="45.19826" lon="5.72782">
        <ele>352</ele>
        <time>2022-06-02T03:41:56.000Z</time>
      </trkpt>
      <trkpt lat="45.19828" lon="5.72784">
        <ele>351.60000610352</ele>
        <time>2022-06-02T03:41:57.000Z</time>
      </trkpt>
      <trkpt lat="45.1983" lon="5.72786">
        <ele>350.79998779297</ele>
        <time>2022-06-02T03:41:58.000Z</time>
      </trkpt>
      <trkpt lat="45.19832" lon="5.72787">
        <ele>351.20001220703</ele>
        <time>2022-06-02T03:41:59.000Z</time>
      </trkpt>
      <trkpt lat="45.19835" lon="5.72788">
        <ele>350.60000610352</ele>
        <time>2022-06-02T03:42:00.000Z</time>
      </trkpt>
      <trkpt lat="45.19837" lon="5.7279">
        <ele>350.39999389648</ele>
        <time>2022-06-02T03:42:01.000Z</time>
      </trkpt>
      <trkpt lat="45.19838" lon="5.72791">
        <ele>350.39999389648</ele>
        <time>2022-06-02T03:42:02.000Z</time>
      </trkpt>
      <trkpt lat="45.1984" lon="5.72793">
        <ele>349.79998779297</ele>
        <time>2022-06-02T03:42:03.000Z</time>
      </trkpt>
      <trkpt lat="45.19841" lon="5.72795">
        <ele>349.60000610352</ele>
        <time>2022-06-02T03:42:04.000Z</time>
      </trkpt>
      <trkpt lat="45.19842" lon="5.72797">
        <ele>349.39999389648</ele>
        <time>2022-06-02T03:42:05.000Z</time>
      </trkpt>
      <trkpt lat="45.19844" lon="5.72799">
        <ele>348.20001220703</ele>
        <time>2022-06-02T03:42:06.000Z</time>
      </trkpt>
      <trkpt lat="45.19843" lon="5.728">
        <ele>348.20001220703</ele>
        <time>2022-06-02T03:42:07.000Z</time>
      </trkpt>
      <trkpt lat="45.19842" lon="5.728">
        <ele>348.39999389648</ele>
        <time>2022-06-02T03:42:08.000Z</time>
      </trkpt>
      <trkpt lat="45.1984" lon="5.728">
        <ele>348.39999389648</ele>
        <time>2022-06-02T03:42:09.000Z</time>
      </trkpt>
      <trkpt lat="45.19838" lon="5.72799">
        <ele>347.20001220703</ele>
        <time>2022-06-02T03:42:10.000Z</time>
      </trkpt>
      <trkpt lat="45.19835" lon="5.72798">
        <ele>347.39999389648</ele>
        <time>2022-06-02T03:42:11.000Z</time>
      </trkpt>
      <trkpt lat="45.19833" lon="5.72797">
        <ele>347</ele>
        <time>2022-06-02T03:42:12.000Z</time>
      </trkpt>
      <trkpt lat="45.19831" lon="5.72796">
        <ele>346.79998779297</ele>
        <time>2022-06-02T03:42:13.000Z</time>
      </trkpt>
      <trkpt lat="45.19829" lon="5.72794">
        <ele>346.60000610352</ele>
        <time>2022-06-02T03:42:14.000Z</time>
      </trkpt>
      <trkpt lat="45.19826" lon="5.72793">
        <ele>346.20001220703</ele>
        <time>2022-06-02T03:42:15.000Z</time>
      </trkpt>
      <trkpt lat="45.19824" lon="5.72792">
        <ele>345.79998779297</ele>
        <time>2022-06-02T03:42:16.000Z</time>
      </trkpt>
      <trkpt lat="45.19822" lon="5.72791">
        <ele>346</ele>
        <time>2022-06-02T03:42:17.000Z</time>
      </trkpt>
      <trkpt lat="45.1982" lon="5.7279">
        <ele>345.20001220703</ele>
        <time>2022-06-02T03:42:18.000Z</time>
      </trkpt>
      <trkpt lat="45.19818" lon="5.72789">
        <ele>345</ele>
        <time>2022-06-02T03:42:19.000Z</time>
      </trkpt>
      <trkpt lat="45.19816" lon="5.72788">
        <ele>344.60000610352</ele>
        <time>2022-06-02T03:42:20.000Z</time>
      </trkpt>
      <trkpt lat="45.19814" lon="5.72788">
        <ele>345</ele>
        <time>2022-06-02T03:42:21.000Z</time>
      </trkpt>
      <trkpt lat="45.19811" lon="5.72786">
        <ele>343.79998779297</ele>
        <time>2022-06-02T03:42:22.000Z</time>
      </trkpt>
      <trkpt lat="45.19809" lon="5.72785">
        <ele>344.20001220703</ele>
        <time>2022-06-02T03:42:23.000Z</time>
      </trkpt>
      <trkpt lat="45.19806" lon="5.72783">
        <ele>343.39999389648</ele>
        <time>2022-06-02T03:42:24.000Z</time>
      </trkpt>
      <trkpt lat="45.19804" lon="5.72782">
        <ele>343.20001220703</ele>
        <time>2022-06-02T03:42:25.000Z</time>
      </trkpt>
      <trkpt lat="45.19802" lon="5.7278">
        <ele>342.60000610352</ele>
        <time>2022-06-02T03:42:26.000Z</time>
      </trkpt>
      <trkpt lat="45.198" lon="5.72779">
        <ele>342.60000610352</ele>
        <time>2022-06-02T03:42:27.000Z</time>
      </trkpt>
      <trkpt lat="45.19798" lon="5.72778">
        <ele>342.39999389648</ele>
        <time>2022-06-02T03:42:28.000Z</time>
      </trkpt>
      <trkpt lat="45.19797" lon="5.72779">
        <ele>341.79998779297</ele>
        <time>2022-06-02T03:42:29.000Z</time>
      </trkpt>
      <trkpt lat="45.19797" lon="5.72779">
        <ele>341.39999389648</ele>
        <time>2022-06-02T03:42:30.000Z</time>
      </trkpt>
      <trkpt lat="45.19797" lon="5.72781">
        <ele>341.39999389648</ele>
        <time>2022-06-02T03:42:31.000Z</time>
      </trkpt>
      <trkpt lat="45.19797" lon="5.72785">
        <ele>341.79998779297</ele>
        <time>2022-06-02T03:42:32.000Z</time>
      </trkpt>
      <trkpt lat="45.19798" lon="5.72788">
        <ele>341.20001220703</ele>
        <time>2022-06-02T03:42:33.000Z</time>
      </trkpt>
      <trkpt lat="45.198" lon="5.72789">
        <ele>341.20001220703</ele>
        <time>2022-06-02T03:42:34.000Z</time>
      </trkpt>
      <trkpt lat="45.19802" lon="5.72791">
        <ele>340.79998779297</ele>
        <time>2022-06-02T03:42:35.000Z</time>
      </trkpt>
      <trkpt lat="45.19804" lon="5.72792">
        <ele>340.60000610352</ele>
        <time>2022-06-02T03:42:36.000Z</time>
      </trkpt>
      <trkpt lat="45.19806" lon="5.72793">
        <ele>340.60000610352</ele>
        <time>2022-06-02T03:42:37.000Z</time>
      </trkpt>
      <trkpt lat="45.19808" lon="5.72795">
        <ele>340.20001220703</ele>
        <time>2022-06-02T03:42:38.000Z</time>
      </trkpt>
      <trkpt lat="45.1981" lon="5.72797">
        <ele>339.60000610352</ele>
        <time>2022-06-02T03:42:39.000Z</time>
      </trkpt>
      <trkpt lat="45.19812" lon="5.72798">
        <ele>339.20001220703</ele>
        <time>2022-06-02T03:42:40.000Z</time>
      </trkpt>
      <trkpt lat="45.19814" lon="5.728">
        <ele>339.20001220703</ele>
        <time>2022-06-02T03:42:41.000Z</time>
      </trkpt>
      <trkpt lat="45.19816" lon="5.72801">
        <ele>338.60000610352</ele>
        <time>2022-06-02T03:42:42.000Z</time>
      </trkpt>
      <trkpt lat="45.19819" lon="5.72802">
        <ele>338.60000610352</ele>
        <time>2022-06-02T03:42:43.000Z</time>
      </trkpt>
      <trkpt lat="45.19821" lon="5.72804">
        <ele>338.39999389648</ele>
        <time>2022-06-02T03:42:44.000Z</time>
      </trkpt>
      <trkpt lat="45.19823" lon="5.72806">
        <ele>337.79998779297</ele>
        <time>2022-06-02T03:42:45.000Z</time>
      </trkpt>
      <trkpt lat="45.19824" lon="5.72807">
        <ele>336.79998779297</ele>
        <time>2022-06-02T03:42:46.000Z</time>
      </trkpt>
      <trkpt lat="45.19826" lon="5.72809">
        <ele>336.79998779297</ele>
        <time>2022-06-02T03:42:47.000Z</time>
      </trkpt>
      <trkpt lat="45.19829" lon="5.72811">
        <ele>337.20001220703</ele>
        <time>2022-06-02T03:42:48.000Z</time>
      </trkpt>
      <trkpt lat="45.1983" lon="5.72813">
        <ele>336.39999389648</ele>
        <time>2022-06-02T03:42:49.000Z</time>
      </trkpt>
      <trkpt lat="45.19832" lon="5.72814">
        <ele>336.39999389648</ele>
        <time>2022-06-02T03:42:50.000Z</time>
      </trkpt>
      <trkpt lat="45.19834" lon="5.72816">
        <ele>335.60000610352</ele>
        <time>2022-06-02T03:42:51.000Z</time>
      </trkpt>
      <trkpt lat="45.19836" lon="5.72817">
        <ele>335.60000610352</ele>
        <time>2022-06-02T03:42:52.000Z</time>
      </trkpt>
      <trkpt lat="45.19838" lon="5.72819">
        <ele>335.39999389648</ele>
        <time>2022-06-02T03:42:53.000Z</time>
      </trkpt>
      <trkpt lat="45.19839" lon="5.7282">
        <ele>335.20001220703</ele>
        <time>2022-06-02T03:42:54.000Z</time>
      </trkpt>
      <trkpt lat="45.19841" lon="5.72821">
        <ele>334.79998779297</ele>
        <time>2022-06-02T03:42:55.000Z</time>
      </trkpt>
      <trkpt lat="45.19842" lon="5.72822">
        <ele>334.39999389648</ele>
        <time>2022-06-02T03:42:56.000Z</time>
      </trkpt>
      <trkpt lat="45.19844" lon="5.72823">
        <ele>334</ele>
        <time>2022-06-02T03:42:57.000Z</time>
      </trkpt>
      <trkpt lat="45.19844" lon="5.72826">
        <ele>333.79998779297</ele>
        <time>2022-06-02T03:42:58.000Z</time>
      </trkpt>
      <trkpt lat="45.19844" lon="5.72826">
        <ele>333.60000610352</ele>
        <time>2022-06-02T03:42:59.000Z</time>
      </trkpt>
      <trkpt lat="45.19842" lon="5.72826">
        <ele>333.79998779297</ele>
        <time>2022-06-02T03:43:00.000Z</time>
      </trkpt>
      <trkpt lat="45.1984" lon="5.72825">
        <ele>333.60000610352</ele>
        <time>2022-06-02T03:43:01.000Z</time>
      </trkpt>
      <trkpt lat="45.19837" lon="5.72824">
        <ele>333</ele>
        <time>2022-06-02T03:43:02.000Z</time>
      </trkpt>
      <trkpt lat="45.19835" lon="5.72823">
        <ele>332.79998779297</ele>
        <time>2022-06-02T03:43:03.000Z</time>
      </trkpt>
      <trkpt lat="45.19833" lon="5.72822">
        <ele>333.20001220703</ele>
        <time>2022-06-02T03:43:04.000Z</time>
      </trkpt>
      <trkpt lat="45.19831" lon="5.72821">
        <ele>332.20001220703</ele>
        <time>2022-06-02T03:43:05.000Z</time>
      </trkpt>
      <trkpt lat="45.1983" lon="5.7282">
        <ele>332</ele>
        <time>2022-06-02T03:43:06.000Z</time>
      </trkpt>
      <trkpt lat="45.19828" lon="5.72819">
        <ele>332.20001220703</ele>
        <time>2022-06-02T03:43:07.000Z</time>
      </trkpt>
      <trkpt lat="45.19826" lon="5.72819">
        <ele>332.20001220703</ele>
        <time>2022-06-02T03:43:08.000Z</time>
      </trkpt>
      <trkpt lat="45.19823" lon="5.72818">
        <ele>331</ele>
        <time>2022-06-02T03:43:09.000Z</time>
      </trkpt>
      <trkpt lat="45.19821" lon="5.72817">
        <ele>331</ele>
        <time>2022-06-02T03:43:10.000Z</time>
      </trkpt>
      <trkpt lat="45.19818" lon="5.72816">
        <ele>330.39999389648</ele>
        <time>2022-06-02T03:43:11.000Z</time>
      </trkpt>
      <trkpt lat="45.19816" lon="5.72815">
        <ele>330</ele>
        <time>2022-06-02T03:43:12.000Z</time>
      </trkpt>
      <trkpt lat="45.19815" lon="5.72816">
        <ele>329.79998779297</ele>
        <time>2022-06-02T03:43:13.000Z</time>
      </trkpt>
      <trkpt lat="45.19815" lon="5.72816">
        <ele>329.79998779297</ele>
        <time>2022-06-02T03:43:14.000Z</time>
      </trkpt>
      <trkpt lat="45.19816" lon="5.72818">
        <ele>330</ele>
        <time>2022-06-02T03:43:15.000Z</time>
      </trkpt>
      <trkpt lat="45.19818" lon="5.7282">
        <ele>330</ele>
        <time>2022-06-02T03:43:16.000Z</time>
      </trkpt>
      <trkpt lat="45.1982" lon="5.72821">
        <ele>329.39999389648</ele>
        <time>2022-06-02T03:43:17.000Z</time>
      </trkpt>
      <trkpt lat="45.19822" lon="5.72822">
        <ele>329.20001220703</ele>
        <time>2022-06-02T03:43:18.000Z</time>
      </trkpt>
      <trkpt lat="45.19824" lon="5.72824">
        <ele>329.20001220703</ele>
        <time>2022-06-02T03:43:19.000Z</time>
      </trkpt>
      <trkpt lat="45.19826" lon="5.72826">
        <ele>328.79998779297</ele>
        <time>2022-06-02T03:43:20.000Z</time>
      </trkpt>
      <trkpt lat="45.19827" lon="5.72827">
        <ele>328.20001220703</ele>
        <time>2022-06-02T03:43:21.000Z</time>
      </trkpt>
      <trkpt lat="45.1983" lon="5.72829">
        <ele>328.20001220703</ele>
        <time>2022-06-02T03:43:22.000Z</time>
      </trkpt>
      <trkpt lat="45.19832" lon="5.7283">
        <ele>327.60000610352</ele>
        <time>2022-06-02T03:43:23.000Z</time>
      </trkpt>
      <trkpt lat="45.19834" lon="5.72831">
        <ele>327.20001220703</ele>
        <time>2022-06-02T03:43:24.000Z</time>
      </trkpt>
      <trkpt lat="45.19834" lon="5.72833">
        <ele>327.60000610352</ele>
        <time>2022-06-02T03:43:25.000Z</time>
      </trkpt>
      <trkpt lat="45.19834" lon="5.72833">
        <ele>326.79998779297</ele>
        <time>2022-06-02T03:43:26.000Z</time>
      </trkpt>
      <trkpt lat="45.19832" lon="5.72834">
        <ele>326.79998779297</ele>
        <time>2022-06-02T03:43:27.000Z</time>
      </trkpt>
      <trkpt lat="45.1983" lon="5.72833">
        <ele>326.79998779297</ele>
        <time>2022-06-02T03:43:28.000Z</time>
      </trkpt>
      <trkpt lat="45.19828" lon="5.72832">
        <ele>327</ele>
        <time>2022-06-02T03:43:29.000Z</time>
      </trkpt>
      <trkpt lat="45.19826" lon="5.7283">
        <ele>325.79998779297</ele>
        <time>2022-06-02T03:43:30.000Z</time>
      </trkpt>
      <trkpt lat="45.19824" lon="5.72829">
        <ele>325.79998779297</ele>
        <time>2022-06-02T03:43:31.000Z</time>
      </trkpt>
      <trkpt lat="45.19822" lon="5.72828">
        <ele>325.60000610352</ele>
        <time>2022-06-02T03:43:32.000Z</time>
      </trkpt>
      <trkpt lat="45.1982" lon="5.72827">
        <ele>325.39999389648</ele>
        <time>2022-06-02T03:43:33.000Z</time>
      </trkpt>
      <trkpt lat="45.19817" lon="5.72826">
        <ele>325</ele>
        <time>2022-06-02T03:43:34.000Z</time>
      </trkpt>
      <trkpt lat="45.19816" lon="5.72825">
        <ele>325.20001220703</ele>
        <time>2022-06-02T03:43:35.000Z</time>
      </trkpt>
      <trkpt lat="45.19813" lon="5.72824">
        <ele>324.39999389648</ele>
        <time>2022-06-02T03:43:36.000Z</time>
      </trkpt>
      <trkpt lat="45.19811" lon="5.72823">
        <ele>324.20001220703</ele>
        <time>2022-06-02T03:43:37.000Z</time>
      </trkpt>
      <trkpt lat="45.19808" lon="5.72822">
        <ele>323.79998779297</ele>
        <time>2022-06-02T03:43:38.000Z</time>
      </trkpt>
      <trkpt lat="45.19806" lon="5.7282">
        <ele>323.20001220703</ele>
        <time>2022-06-02T03:43:39.000Z</time>
      </trkpt>
      <trkpt lat="45.19804" lon="5.72819">
        <ele>323.39999389648</ele>
        <time>2022-06-02T03:43:40.000Z</time>
      </trkpt>
      <trkpt lat="45.19802" lon="5.72818">
        <ele>322.79998779297</ele>
        <time>2022-06-02T03:43:41.000Z</time>
      </trkpt>
      <trkpt lat="45.198" lon="5.72817">
        <ele>322.60000610352</ele>
        <time>2022-06-02T03:43:42.000Z</time>
      </trkpt>
      <trkpt lat="45.19798" lon="5.72815">
        <ele>322.79998779297</ele>
        <time>2022-06-02T03:43:43.000Z</time>
      </trkpt>
      <trkpt lat="45.19796" lon="5.72814">
        <ele>321.79998779297</ele>
        <time>2022-06-02T03:43:44.000Z</time>
      </trkpt>
      <trkpt lat="45.19793" lon="5.72812">
        <ele>321.79998779297</ele>
        <time>2022-06-02T03:43:45.000Z</time>
      </trkpt>
      <trkpt lat="45.19791" lon="5.72811">
        <ele>321.79998779297</ele>
        <time>2022-06-02T03:43:46.000Z</time>
      </trkpt>
      <trkpt lat="45.19791" lon="5.72812">
        <ele>321.60000610352</ele>
        <time>2022-06-02T03:43:47.000Z</time>
      </trkpt>
      <trkpt lat="45.19792" lon="5.72814">
        <ele>320.79998779297</ele>
        <time>2022-06-02T03:43:48.000Z</time>
      </trkpt>
      <trkpt lat="45.19793" lon="5.72816">
        <ele>320.39999389648</ele>
        <time>2022-06-02T03:43:49.000Z</time>
      </trkpt>
      <trkpt lat="45.19794" lon="5.72818">
        <ele>320</ele>
        <time>2022-06-02T03:43:50.000Z</time>
      </trkpt>
      <trkpt lat="45.19796" lon="5.72821">
        <ele>320</ele>
        <time>2022-06-02T03:43:51.000Z</time>
      </trkpt>
      <trkpt lat="45.19797" lon="5.72822">
        <ele>319.79998779297</ele>
        <time>2022-06-02T03:43:52.000Z</time>
      </trkpt>
      <trkpt lat="45.19798" lon="5.72823">
        <ele>319.60000610352</ele>
        <time>2022-06-02T03:43:53.000Z</time>
      </trkpt>
      <trkpt lat="45.198" lon="5.72824">
        <ele>319.79998779297</ele>
        <time>2022-06-02T03:43:54.000Z</time>
      </trkpt>
      <trkpt lat="45.19803" lon="5.72826">
        <ele>319.79998779297</ele>
        <time>2022-06-02T03:43:55.000Z</time>
      </trkpt>
      <trkpt lat="45.19805" lon="5.72827">
        <ele>320</ele>
        <time>2022-06-02T03:43:56.000Z</time>
      </trkpt>
      <trkpt lat="45.19807" lon="5.72829">
        <ele>319.60000610352</ele>
        <time>2022-06-02T03:43:57.000Z</time>
      </trkpt>
      <trkpt lat="45.1981" lon="5.72831">
        <ele>319.79998779297</ele>
        <time>2022-06-02T03:43:58.000Z</time>
      </trkpt>
      <trkpt lat="45.19812" lon="5.72834">
        <ele>319.79998779297</ele>
        <time>2022-06-02T03:43:59.000Z</time>
      </trkpt>
      <trkpt lat="45.19815" lon="5.72836">
        <ele>319.20001220703</ele>
        <time>2022-06-02T03:44:00.000Z</time>
      </trkpt>
      <trkpt lat="45.19817" lon="5.72838">
        <ele>319</ele>
        <time>2022-06-02T03:44:01.000Z</time>
      </trkpt>
      <trkpt lat="45.19819" lon="5.72839">
        <ele>318.79998779297</ele>
        <time>2022-06-02T03:44:02.000Z</time>
      </trkpt>
      <trkpt lat="45.1982" lon="5.7284">
        <ele>319</ele>
        <time>2022-06-02T03:44:03.000Z</time>
      </trkpt>
      <trkpt lat="45.19822" lon="5.72842">
        <ele>318.60000610352</ele>
        <time>2022-06-02T03:44:04.000Z</time>
      </trkpt>
      <trkpt lat="45.19823" lon="5.72844">
        <ele>318</ele>
        <time>2022-06-02T03:44:05.000Z</time>
      </trkpt>
      <trkpt lat="45.19822" lon="5.72844">
        <ele>318.20001220703</ele>
        <time>2022-06-02T03:44:06.000Z</time>
      </trkpt>
      <trkpt lat="45.1982" lon="5.72843">
        <ele>317.60000610352</ele>
        <time>2022-06-02T03:44:07.000Z</time>
      </trkpt>
      <trkpt lat="45.19818" lon="5.72842">
        <ele>317.60000610352</ele>
        <time>2022-06-02T03:44:08.000Z</time>
      </trkpt>
      <trkpt lat="45.19816" lon="5.72842">
        <ele>317.20001220703</ele>
        <time>2022-06-02T03:44:09.000Z</time>
      </trkpt>
      <trkpt lat="45.19813" lon="5.72841">
        <ele>316.79998779297</ele>
        <time>2022-06-02T03:44:10.000Z</time>
      </trkpt>
      <trkpt lat="45.19811" lon="5.7284">
        <ele>316.79998779297</ele>
        <time>2022-06-02T03:44:11.000Z</time>
      </trkpt>
      <trkpt lat="45.19809" lon="5.72839">
        <ele>316.79998779297</ele>
        <time>2022-06-02T03:44:12.000Z</time>
      </trkpt>
      <trkpt lat="45.19807" lon="5.72838">
        <ele>316</ele>
        <time>2022-06-02T03:44:13.000Z</time>
      </trkpt>
      <trkpt lat="45.19805" lon="5.72837">
        <ele>315.79998779297</ele>
        <time>2022-06-02T03:44:14.000Z</time>
      </trkpt>
      <trkpt lat="45.19803" lon="5.72836">
        <ele>315.60000610352</ele>
        <time>2022-06-02T03:44:15.000Z</time>
      </trkpt>
      <trkpt lat="45.19801" lon="5.72834">
        <ele>315</ele>
        <time>2022-06-02T03:44:16.000Z</time>
      </trkpt>
      <trkpt lat="45.19799" lon="5.72833">
        <ele>314.60000610352</ele>
        <time>2022-06-02T03:44:17.000Z</time>
      </trkpt>
      <trkpt lat="45.19797" lon="5.72832">
        <ele>314.60000610352</ele>
        <time>2022-06-02T03:44:18.000Z</time>
      </trkpt>
      <trkpt lat="45.19794" lon="5.72831">
        <ele>313.79998779297</ele>
        <time>2022-06-02T03:44:19.000Z</time>
      </trkpt>
      <trkpt lat="45.19792" lon="5.7283">
        <ele>314</ele>
        <time>2022-06-02T03:44:20.000Z</time>
      </trkpt>
      <trkpt lat="45.1979" lon="5.72829">
        <ele>314.39999389648</ele>
        <time>2022-06-02T03:44:21.000Z</time>
      </trkpt>
      <trkpt lat="45.19788" lon="5.72828">
        <ele>313.39999389648</ele>
        <time>2022-06-02T03:44:22.000Z</time>
      </trkpt>
      <trkpt lat="45.19786" lon="5.72827">
        <ele>313.39999389648</ele>
        <time>2022-06-02T03:44:23.000Z</time>
      </trkpt>
      <trkpt lat="45.19784" lon="5.72826">
        <ele>313</ele>
        <time>2022-06-02T03:44:24.000Z</time>
      </trkpt>
      <trkpt lat="45.19781" lon="5.72825">
        <ele>312.79998779297</ele>
        <time>2022-06-02T03:44:25.000Z</time>
      </trkpt>
      <trkpt lat="45.19779" lon="5.72824">
        <ele>312.60000610352</ele>
        <time>2022-06-02T03:44:26.000Z</time>
      </trkpt>
      <trkpt lat="45.19777" lon="5.72823">
        <ele>311.79998779297</ele>
        <time>2022-06-02T03:44:27.000Z</time>
      </trkpt>
      <trkpt lat="45.19774" lon="5.72821">
        <ele>311.39999389648</ele>
        <time>2022-06-02T03:44:28.000Z</time>
      </trkpt>
      <trkpt lat="45.19772" lon="5.7282">
        <ele>311.39999389648</ele>
        <time>2022-06-02T03:44:29.000Z</time>
      </trkpt>
      <trkpt lat="45.19771" lon="5.72819">
        <ele>311.20001220703</ele>
        <time>2022-06-02T03:44:30.000Z</time>
      </trkpt>
      <trkpt lat="45.19769" lon="5.72818">
        <ele>310.60000610352</ele>
        <time>2022-06-02T03:44:31.000Z</time>
      </trkpt>
      <trkpt lat="45.19767" lon="5.72817">
        <ele>311</ele>
        <time>2022-06-02T03:44:32.000Z</time>
      </trkpt>
      <trkpt lat="45.19765" lon="5.72816">
        <ele>310</ele>
        <time>2022-06-02T03:44:33.000Z</time>
      </trkpt>
      <trkpt lat="45.19763" lon="5.72814">
        <ele>310</ele>
        <time>2022-06-02T03:44:34.000Z</time>
      </trkpt>
      <trkpt lat="45.19761" lon="5.72812">
        <ele>309.20001220703</ele>
        <time>2022-06-02T03:44:35.000Z</time>
      </trkpt>
      <trkpt lat="45.19759" lon="5.7281">
        <ele>309.20001220703</ele>
        <time>2022-06-02T03:44:36.000Z</time>
      </trkpt>
      <trkpt lat="45.19756" lon="5.72808">
        <ele>308.79998779297</ele>
        <time>2022-06-02T03:44:37.000Z</time>
      </trkpt>
      <trkpt lat="45.19755" lon="5.72808">
        <ele>308.20001220703</ele>
        <time>2022-06-02T03:44:38.000Z</time>
      </trkpt>
      <trkpt lat="45.19756" lon="5.72809">
        <ele>308.20001220703</ele>
        <time>2022-06-02T03:44:39.000Z</time>
      </trkpt>
      <trkpt lat="45.19755" lon="5.72813">
        <ele>308.60000610352</ele>
        <time>2022-06-02T03:44:40.000Z</time>
      </trkpt>
      <trkpt lat="45.19756" lon="5.72817">
        <ele>308.20001220703</ele>
        <time>2022-06-02T03:44:41.000Z</time>
      </trkpt>
      <trkpt lat="45.19757" lon="5.72819">
        <ele>307.60000610352</ele>
        <time>2022-06-02T03:44:42.000Z</time>
      </trkpt>
      <trkpt lat="45.19758" lon="5.72822">
        <ele>307.39999389648</ele>
        <time>2022-06-02T03:44:43.000Z</time>
      </trkpt>
      <trkpt lat="45.19759" lon="5.72823">
        <ele>307.20001220703</ele>
        <time>2022-06-02T03:44:44.000Z</time>
      </trkpt>
      <trkpt lat="45.1976" lon="5.72825">
        <ele>307.20001220703</ele>
        <time>2022-06-02T03:44:45.000Z</time>
      </trkpt>
      <trkpt lat="45.19762" lon="5.72826">
        <ele>306.20001220703</ele>
        <time>2022-06-02T03:44:46.000Z</time>
      </trkpt>
      <trkpt lat="45.19764" lon="5.72827">
        <ele>306.20001220703</ele>
        <time>2022-06-02T03:44:47.000Z</time>
      </trkpt>
      <trkpt lat="45.19766" lon="5.72829">
        <ele>306.20001220703</ele>
        <time>2022-06-02T03:44:48.000Z</time>
      </trkpt>
      <trkpt lat="45.19767" lon="5.72831">
        <ele>305.60000610352</ele>
        <time>2022-06-02T03:44:49.000Z</time>
      </trkpt>
      <trkpt lat="45.19768" lon="5.72833">
        <ele>306</ele>
        <time>2022-06-02T03:44:50.000Z</time>
      </trkpt>
      <trkpt lat="45.1977" lon="5.72834">
        <ele>305</ele>
        <time>2022-06-02T03:44:51.000Z</time>
      </trkpt>
      <trkpt lat="45.19771" lon="5.72836">
        <ele>305</ele>
        <time>2022-06-02T03:44:52.000Z</time>
      </trkpt>
      <trkpt lat="45.19773" lon="5.72838">
        <ele>304.60000610352</ele>
        <time>2022-06-02T03:44:53.000Z</time>
      </trkpt>
      <trkpt lat="45.19775" lon="5.72839">
        <ele>304.20001220703</ele>
        <time>2022-06-02T03:44:54.000Z</time>
      </trkpt>
      <trkpt lat="45.19777" lon="5.72842">
        <ele>304.20001220703</ele>
        <time>2022-06-02T03:44:55.000Z</time>
      </trkpt>
      <trkpt lat="45.19778" lon="5.72843">
        <ele>303.79998779297</ele>
        <time>2022-06-02T03:44:56.000Z</time>
      </trkpt>
      <trkpt lat="45.1978" lon="5.72845">
        <ele>303.39999389648</ele>
        <time>2022-06-02T03:44:57.000Z</time>
      </trkpt>
      <trkpt lat="45.19782" lon="5.72847">
        <ele>303.20001220703</ele>
        <time>2022-06-02T03:44:58.000Z</time>
      </trkpt>
      <trkpt lat="45.19784" lon="5.72849">
        <ele>302.39999389648</ele>
        <time>2022-06-02T03:44:59.000Z</time>
      </trkpt>
      <trkpt lat="45.19786" lon="5.72851">
        <ele>302.39999389648</ele>
        <time>2022-06-02T03:45:00.000Z</time>
      </trkpt>
      <trkpt lat="45.19788" lon="5.72852">
        <ele>302</ele>
        <time>2022-06-02T03:45:01.000Z</time>
      </trkpt>
      <trkpt lat="45.1979" lon="5.72854">
        <ele>301.79998779297</ele>
        <time>2022-06-02T03:45:02.000Z</time>
      </trkpt>
      <trkpt lat="45.19791" lon="5.72855">
        <ele>302</ele>
        <time>2022-06-02T03:45:03.000Z</time>
      </trkpt>
      <trkpt lat="45.19793" lon="5.72857">
        <ele>301.79998779297</ele>
        <time>2022-06-02T03:45:04.000Z</time>
      </trkpt>
      <trkpt lat="45.19794" lon="5.72859">
        <ele>300.79998779297</ele>
        <time>2022-06-02T03:45:05.000Z</time>
      </trkpt>
      <trkpt lat="45.19795" lon="5.72861">
        <ele>300.79998779297</ele>
        <time>2022-06-02T03:45:06.000Z</time>
      </trkpt>
      <trkpt lat="45.19796" lon="5.72863">
        <ele>300.60000610352</ele>
        <time>2022-06-02T03:45:07.000Z</time>
      </trkpt>
      <trkpt lat="45.19797" lon="5.72864">
        <ele>300</ele>
        <time>2022-06-02T03:45:08.000Z</time>
      </trkpt>
      <trkpt lat="45.19799" lon="5.72866">
        <ele>300.20001220703</ele>
        <time>2022-06-02T03:45:09.000Z</time>
      </trkpt>
      <trkpt lat="45.198" lon="5.72867">
        <ele>300</ele>
        <time>2022-06-02T03:45:10.000Z</time>
      </trkpt>
      <trkpt lat="45.19801" lon="5.72869">
        <ele>299.20001220703</ele>
        <time>2022-06-02T03:45:11.000Z</time>
      </trkpt>
      <trkpt lat="45.19803" lon="5.72872">
        <ele>299.79998779297</ele>
        <time>2022-06-02T03:45:12.000Z</time>
      </trkpt>
      <trkpt lat="45.19804" lon="5.72874">
        <ele>299</ele>
        <time>2022-06-02T03:45:13.000Z</time>
      </trkpt>
      <trkpt lat="45.19805" lon="5.72875">
        <ele>299.20001220703</ele>
        <time>2022-06-02T03:45:14.000Z</time>
      </trkpt>
      <trkpt lat="45.19805" lon="5.72876">
        <ele>298.20001220703</ele>
        <time>2022-06-02T03:45:15.000Z</time>
      </trkpt>
      <trkpt lat="45.19804" lon="5.72876">
        <ele>298</ele>
        <time>2022-06-02T03:45:16.000Z</time>
      </trkpt>
      <trkpt lat="45.19803" lon="5.72875">
        <ele>297.79998779297</ele>
        <time>2022-06-02T03:45:17.000Z</time>
      </trkpt>
      <trkpt lat="45.19801" lon="5.72874">
        <ele>297.79998779297</ele>
        <time>2022-06-02T03:45:18.000Z</time>
      </trkpt>
      <trkpt lat="45.19799" lon="5.72873">
        <ele>297.20001220703</ele>
        <time>2022-06-02T03:45:19.000Z</time>
      </trkpt>
      <trkpt lat="45.19798" lon="5.72872">
        <ele>297.60000610352</ele>
        <time>2022-06-02T03:45:20.000Z</time>
      </trkpt>
      <trkpt lat="45.19795" lon="5.72871">
        <ele>296.79998779297</ele>
        <time>2022-06-02T03:45:21.000Z</time>
      </trkpt>
      <trkpt lat="45.19794" lon="5.7287">
        <ele>296.60000610352</ele>
        <time>2022-06-02T03:45:22.000Z</time>
      </trkpt>
      <trkpt lat="45.19792" lon="5.72869">
        <ele>296.20001220703</ele>
        <time>2022-06-02T03:45:23.000Z</time>
      </trkpt>
      <trkpt lat="45.1979" lon="5.72868">
        <ele>295.20001220703</ele>
        <time>2022-06-02T03:45:24.000Z</time>
      </trkpt>
      <trkpt lat="45.19788" lon="5.72867">
        <ele>295.60000610352</ele>
        <time>2022-06-02T03:45:25.000Z</time>
      </trkpt>
      <trkpt lat="45.19786" lon="5.72867">
        <ele>295.79998779297</ele>
        <time>2022-06-02T03:45:26.000Z</time>
      </trkpt>
      <trkpt lat="45.19783" lon="5.72866">
        <ele>295</ele>
        <time>2022-06-02T03:45:27.000Z</time>
      </trkpt>
      <trkpt lat="45.19781" lon="5.72865">
        <ele>294.79998779297</ele>
        <time>2022-06-02T03:45:28.000Z</time>
      </trkpt>
      <trkpt lat="45.19778" lon="5.72864">
        <ele>294.79998779297</ele>
        <time>2022-06-02T03:45:29.000Z</time>
      </trkpt>
      <trkpt lat="45.19776" lon="5.72863">
        <ele>293.79998779297</ele>
        <time>2022-06-02T03:45:30.000Z</time>
      </trkpt>
      <trkpt lat="45.19774" lon="5.72861">
        <ele>293.39999389648</ele>
        <time>2022-06-02T03:45:31.000Z</time>
      </trkpt>
      <trkpt lat="45.19772" lon="5.7286">
        <ele>293</ele>
        <time>2022-06-02T03:45:32.000Z</time>
      </trkpt>
      <trkpt lat="45.1977" lon="5.72859">
        <ele>293</ele>
        <time>2022-06-02T03:45:33.000Z</time>
      </trkpt>
      <trkpt lat="45.19768" lon="5.72858">
        <ele>293.39999389648</ele>
        <time>2022-06-02T03:45:34.000Z</time>
      </trkpt>
      <trkpt lat="45.19766" lon="5.72856">
        <ele>292.60000610352</ele>
        <time>2022-06-02T03:45:35.000Z</time>
      </trkpt>
      <trkpt lat="45.19764" lon="5.72855">
        <ele>292.60000610352</ele>
        <time>2022-06-02T03:45:36.000Z</time>
      </trkpt>
      <trkpt lat="45.19761" lon="5.72854">
        <ele>292.60000610352</ele>
        <time>2022-06-02T03:45:37.000Z</time>
      </trkpt>
      <trkpt lat="45.19759" lon="5.72852">
        <ele>291.79998779297</ele>
        <time>2022-06-02T03:45:38.000Z</time>
      </trkpt>
      <trkpt lat="45.19757" lon="5.7285">
        <ele>291.79998779297</ele>
        <time>2022-06-02T03:45:39.000Z</time>
      </trkpt>
      <trkpt lat="45.19755" lon="5.72849">
        <ele>292</ele>
        <time>2022-06-02T03:45:40.000Z</time>
      </trkpt>
      <trkpt lat="45.19752" lon="5.72847">
        <ele>290.79998779297</ele>
        <time>2022-06-02T03:45:41.000Z</time>
      </trkpt>
      <trkpt lat="45.1975" lon="5.72846">
        <ele>290.60000610352</ele>
        <time>2022-06-02T03:45:42.000Z</time>
      </trkpt>
      <trkpt lat="45.19747" lon="5.72845">
        <ele>289.79998779297</ele>
        <time>2022-06-02T03:45:43.000Z</time>
      </trkpt>
      <trkpt lat="45.19745" lon="5.72843">
        <ele>289.60000610352</ele>
        <time>2022-06-02T03:45:44.000Z</time>
      </trkpt>
      <trkpt lat="45.19745" lon="5.72844">
        <ele>289.60000610352</ele>
        <time>2022-06-02T03:45:45.000Z</time>
      </trkpt>
      <trkpt lat="45.19744" lon="5.72845">
        <ele>289.39999389648</ele>
        <time>2022-06-02T03:45:46.000Z</time>
      </trkpt>
      <trkpt lat="45.19745" lon="5.72846">
        <ele>289.79998779297</ele>
        <time>2022-06-02T03:45:47.000Z</time>
      </trkpt>
      <trkpt lat="45.19745" lon="5.72848">
        <ele>289</ele>
        <time>2022-06-02T03:45:48.000Z</time>
      </trkpt>
      <trkpt lat="45.19746" lon="5.72849">
        <ele>288.79998779297</ele>
        <time>2022-06-02T03:45:49.000Z</time>
      </trkpt>
      <trkpt lat="45.19748" lon="5.72851">
        <ele>288.20001220703</ele>
        <time>2022-06-02T03:45:50.000Z</time>
      </trkpt>
      <trkpt lat="45.19749" lon="5.72853">
        <ele>288</ele>
        <time>2022-06-02T03:45:51.000Z</time>
      </trkpt>
      <trkpt lat="45.1975" lon="5.72854">
        <ele>288</ele>
        <time>2022-06-02T03:45:52.000Z</time>
      </trkpt>
      <trkpt lat="45.19751" lon="5.72856">
        <ele>287.20001220703</ele>
        <time>2022-06-02T03:45:53.000Z</time>
      </trkpt>
      <trkpt lat="45.19753" lon="5.72857">
        <ele>287.20001220703</ele>
        <time>2022-06-02T03:45:54.000Z</time>
      </trkpt>
      <trkpt lat="45.19754" lon="5.72858">
        <ele>287.39999389648</ele>
        <time>2022-06-02T03:45:55.000Z</time>
      </trkpt>
      <trkpt lat="45.19755" lon="5.72859">
        <ele>286.39999389648</ele>
        <time>2022-06-02T03:45:56.000Z</time>
      </trkpt>
      <trkpt lat="45.19757" lon="5.7286">
        <ele>286.39999389648</ele>
        <time>2022-06-02T03:45:57.000Z</time>
      </trkpt>
      <trkpt lat="45.19759" lon="5.72862">
        <ele>287</ele>
        <time>2022-06-02T03:45:58.000Z</time>
      </trkpt>
      <trkpt lat="45.1976" lon="5.72864">
        <ele>285.79998779297</ele>
        <time>2022-06-02T03:45:59.000Z</time>
      </trkpt>
      <trkpt lat="45.19761" lon="5.72867">
        <ele>285.79998779297</ele>
        <time>2022-06-02T03:46:00.000Z</time>
      </trkpt>
      <trkpt lat="45.19763" lon="5.7287">
        <ele>285.79998779297</ele>
        <time>2022-06-02T03:46:01.000Z</time>
      </trkpt>
      <trkpt lat="45.19764" lon="5.72872">
        <ele>284.79998779297</ele>
        <time>2022-06-02T03:46:02.000Z</time>
      </trkpt>
      <trkpt lat="45.19766" lon="5.72874">
        <ele>285.20001220703</ele>
        <time>2022-06-02T03:46:03.000Z</time>
      </trkpt>
      <trkpt lat="45.19767" lon="5.72878">
        <ele>284.79998779297</ele>
        <time>2022-06-02T03:46:04.000Z</time>
      </trkpt>
      <trkpt lat="45.19768" lon="5.7288">
        <ele>284.60000610352</ele>
        <time>2022-06-02T03:46:05.000Z</time>
      </trkpt>
      <trkpt lat="45.19769" lon="5.72882">
        <ele>284.39999389648</ele>
        <time>2022-06-02T03:46:06.000Z</time>
      </trkpt>
      <trkpt lat="45.19771" lon="5.72884">
        <ele>284</ele>
        <time>2022-06-02T03:46:07.000Z</time>
      </trkpt>
      <trkpt lat="45.19772" lon="5.72887">
        <ele>283.60000610352</ele>
        <time>2022-06-02T03:46:08.000Z</time>
      </trkpt>
      <trkpt lat="45.19774" lon="5.72889">
        <ele>283</ele>
        <time>2022-06-02T03:46:09.000Z</time>
      </trkpt>
      <trkpt lat="45.19776" lon="5.72891">
        <ele>283.39999389648</ele>
        <time>2022-06-02T03:46:10.000Z</time>
      </trkpt>
      <trkpt lat="45.19777" lon="5.72893">
        <ele>282.39999389648</ele>
        <time>2022-06-02T03:46:11.000Z</time>
      </trkpt>
      <trkpt lat="45.19779" lon="5.72896">
        <ele>282.79998779297</ele>
        <time>2022-06-02T03:46:12.000Z</time>
      </trkpt>
      <trkpt lat="45.19781" lon="5.72898">
        <ele>282.39999389648</ele>
        <time>2022-06-02T03:46:13.000Z</time>
      </trkpt>
      <trkpt lat="45.19783" lon="5.72901">
        <ele>282</ele>
        <time>2022-06-02T03:46:14.000Z</time>
      </trkpt>
      <trkpt lat="45.19784" lon="5.72903">
        <ele>282</ele>
        <time>2022-06-02T03:46:15.000Z</time>
      </trkpt>
      <trkpt lat="45.19785" lon="5.72905">
        <ele>281.39999389648</ele>
        <time>2022-06-02T03:46:16.000Z</time>
      </trkpt>
      <trkpt lat="45.19787" lon="5.72907">
        <ele>281</ele>
        <time>2022-06-02T03:46:17.000Z</time>
      </trkpt>
      <trkpt lat="45.19788" lon="5.72909">
        <ele>281</ele>
        <time>2022-06-02T03:46:18.000Z</time>
      </trkpt>
      <trkpt lat="45.1979" lon="5.72911">
        <ele>280.79998779297</ele>
        <time>2022-06-02T03:46:19.000Z</time>
      </trkpt>
      <trkpt lat="45.19791" lon="5.72913">
        <ele>280.60000610352</ele>
        <time>2022-06-02T03:46:20.000Z</time>
      </trkpt>
      <trkpt lat="45.19793" lon="5.72916">
        <ele>280.39999389648</ele>
        <time>2022-06-02T03:46:21.000Z</time>
      </trkpt>
      <trkpt lat="45.19794" lon="5.72918">
        <ele>279.20001220703</ele>
        <time>2022-06-02T03:46:22.000Z</time>
      </trkpt>
      <trkpt lat="45.19794" lon="5.72918">
        <ele>279.20001220703</ele>
        <time>2022-06-02T03:46:23.000Z</time>
      </trkpt>
      <trkpt lat="45.19793" lon="5.72918">
        <ele>279.20001220703</ele>
        <time>2022-06-02T03:46:24.000Z</time>
      </trkpt>
      <trkpt lat="45.19792" lon="5.72919">
        <ele>279.39999389648</ele>
        <time>2022-06-02T03:46:25.000Z</time>
      </trkpt>
      <trkpt lat="45.19791" lon="5.72918">
        <ele>278.39999389648</ele>
        <time>2022-06-02T03:46:26.000Z</time>
      </trkpt>
      <trkpt lat="45.19789" lon="5.72918">
        <ele>278.39999389648</ele>
        <time>2022-06-02T03:46:27.000Z</time>
      </trkpt>
      <trkpt lat="45.19787" lon="5.72917">
        <ele>278.60000610352</ele>
        <time>2022-06-02T03:46:28.000Z</time>
      </trkpt>
      <trkpt lat="45.19785" lon="5.72916">
        <ele>277.39999389648</ele>
        <time>2022-06-02T03:46:29.000Z</time>
      </trkpt>
      <trkpt lat="45.19784" lon="5.72915">
        <ele>277.60000610352</ele>
        <time>2022-06-02T03:46:30.000Z</time>
      </trkpt>
      <trkpt lat="45.19782" lon="5.72914">
        <ele>277.39999389648</ele>
        <time>2022-06-02T03:46:31.000Z</time>
      </trkpt>
      <trkpt lat="45.1978" lon="5.72913">
        <ele>277</ele>
        <time>2022-06-02T03:46:32.000Z</time>
      </trkpt>
      <trkpt lat="45.19778" lon="5.72912">
        <ele>276.60000610352</ele>
        <time>2022-06-02T03:46:33.000Z</time>
      </trkpt>
      <trkpt lat="45.19776" lon="5.72911">
        <ele>276.20001220703</ele>
        <time>2022-06-02T03:46:34.000Z</time>
      </trkpt>
      <trkpt lat="45.19774" lon="5.72909">
        <ele>275.79998779297</ele>
        <time>2022-06-02T03:46:35.000Z</time>
      </trkpt>
      <trkpt lat="45.19771" lon="5.72908">
        <ele>276.20001220703</ele>
        <time>2022-06-02T03:46:36.000Z</time>
      </trkpt>
      <trkpt lat="45.19769" lon="5.72906">
        <ele>275.39999389648</ele>
        <time>2022-06-02T03:46:37.000Z</time>
      </trkpt>
      <trkpt lat="45.19767" lon="5.72905">
        <ele>275.39999389648</ele>
        <time>2022-06-02T03:46:38.000Z</time>
      </trkpt>
      <trkpt lat="45.19765" lon="5.72904">
        <ele>274.79998779297</ele>
        <time>2022-06-02T03:46:39.000Z</time>
      </trkpt>
      <trkpt lat="45.19763" lon="5.72903">
        <ele>274.60000610352</ele>
        <time>2022-06-02T03:46:40.000Z</time>
      </trkpt>
      <trkpt lat="45.19761" lon="5.72902">
        <ele>274.60000610352</ele>
        <time>2022-06-02T03:46:41.000Z</time>
      </trkpt>
      <trkpt lat="45.19759" lon="5.72902">
        <ele>273.60000610352</ele>
        <time>2022-06-02T03:46:42.000Z</time>
      </trkpt>
      <trkpt lat="45.19757" lon="5.72901">
        <ele>273.60000610352</ele>
        <time>2022-06-02T03:46:43.000Z</time>
      </trkpt>
      <trkpt lat="45.19754" lon="5.72899">
        <ele>273.79998779297</ele>
        <time>2022-06-02T03:46:44.000Z</time>
      </trkpt>
      <trkpt lat="45.19751" lon="5.72898">
        <ele>273.39999389648</ele>
        <time>2022-06-02T03:46:45.000Z</time>
      </trkpt>
      <trkpt lat="45.19749" lon="5.72896">
        <ele>273</ele>
        <time>2022-06-02T03:46:46.000Z</time>
      </trkpt>
      <trkpt lat="45.19747" lon="5.72895">
        <ele>273</ele>
        <time>2022-06-02T03:46:47.000Z</time>
      </trkpt>
      <trkpt lat="45.19745" lon="5.72894">
        <ele>272.39999389648</ele>
        <time>2022-06-02T03:46:48.000Z</time>
      </trkpt>
      <trkpt lat="45.19743" lon="5.72893">
        <ele>272.39999389648</ele>
        <time>2022-06-02T03:46:49.000Z</time>
      </trkpt>
      <trkpt lat="45.1974" lon="5.72892">
        <ele>271.60000610352</ele>
        <time>2022-06-02T03:46:50.000Z</time>
      </trkpt>
      <trkpt lat="45.19738" lon="5.72891">
        <ele>271.39999389648</ele>
        <time>2022-06-02T03:46:51.000Z</time>
      </trkpt>
      <trkpt lat="45.19736" lon="5.72889">
        <ele>271.39999389648</ele>
        <time>2022-06-02T03:46:52.000Z</time>
      </trkpt>
      <trkpt lat="45.19734" lon="5.72888">
        <ele>270.39999389648</ele>
        <time>2022-06-02T03:46:53.000Z</time>
      </trkpt>
      <trkpt lat="45.19731" lon="5.72886">
        <ele>270.60000610352</ele>
        <time>2022-06-02T03:46:54.000Z</time>
      </trkpt>
      <trkpt lat="45.19729" lon="5.72885">
        <ele>270.20001220703</ele>
        <time>2022-06-02T03:46:55.000Z</time>
      </trkpt>
      <trkpt lat="45.19726" lon="5.72884">
        <ele>270.20001220703</ele>
        <time>2022-06-02T03:46:56.000Z</time>
      </trkpt>
      <trkpt lat="45.19724" lon="5.72882">
        <ele>269.20001220703</ele>
        <time>2022-06-02T03:46:57.000Z</time>
      </trkpt>
      <trkpt lat="45.19722" lon="5.72881">
        <ele>269.39999389648</ele>
        <time>2022-06-02T03:46:58.000Z</time>
      </trkpt>
      <trkpt lat="45.19721" lon="5.72879">
        <ele>269.60000610352</ele>
        <time>2022-06-02T03:46:59.000Z</time>
      </trkpt>
      <trkpt lat="45.19718" lon="5.72878">
        <ele>269</ele>
        <time>2022-06-02T03:47:00.000Z</time>
      </trkpt>
      <trkpt lat="45.19716" lon="5.72876">
        <ele>268.79998779297</ele>
        <time>2022-06-02T03:47:01.000Z</time>
      </trkpt>
      <trkpt lat="45.19714" lon="5.72874">
        <ele>268</ele>
        <time>2022-06-02T03:47:02.000Z</time>
      </trkpt>
      <trkpt lat="45.19712" lon="5.72873">
        <ele>267.79998779297</ele>
        <time>2022-06-02T03:47:03.000Z</time>
      </trkpt>
      <trkpt lat="45.1971" lon="5.72871">
        <ele>268</ele>
        <time>2022-06-02T03:47:04.000Z</time>
      </trkpt>
      <trkpt lat="45.19708" lon="5.72869">
        <ele>267.20001220703</ele>
        <time>2022-06-02T03:47:05.000Z</time>
      </trkpt>
      <trkpt lat="45.19706" lon="5.72867">
        <ele>267.20001220703</ele>
        <time>2022-06-02T03:47:06.000Z</time>
      </trkpt>
      <trkpt lat="45.19705" lon="5.72865">
        <ele>267</ele>
        <time>2022-06-02T03:47:07.000Z</time>
      </trkpt>
      <trkpt lat="45.19703" lon="5.72863">
        <ele>266.60000610352</ele>
        <time>2022-06-02T03:47:08.000Z</time>
      </trkpt>
      <trkpt lat="45.19702" lon="5.72861">
        <ele>267</ele>
        <time>2022-06-02T03:47:09.000Z</time>
      </trkpt>
      <trkpt lat="45.197" lon="5.72859">
        <ele>265.60000610352</ele>
        <time>2022-06-02T03:47:10.000Z</time>
      </trkpt>
      <trkpt lat="45.19698" lon="5.72857">
        <ele>266</ele>
        <time>2022-06-02T03:47:11.000Z</time>
      </trkpt>
      <trkpt lat="45.19695" lon="5.72855">
        <ele>265.39999389648</ele>
        <time>2022-06-02T03:47:12.000Z</time>
      </trkpt>
      <trkpt lat="45.19694" lon="5.72854">
        <ele>265.39999389648</ele>
        <time>2022-06-02T03:47:13.000Z</time>
      </trkpt>
      <trkpt lat="45.19693" lon="5.72854">
        <ele>265</ele>
        <time>2022-06-02T03:47:14.000Z</time>
      </trkpt>
      <trkpt lat="45.19692" lon="5.72855">
        <ele>265</ele>
        <time>2022-06-02T03:47:15.000Z</time>
      </trkpt>
      <trkpt lat="45.19692" lon="5.72859">
        <ele>264.60000610352</ele>
        <time>2022-06-02T03:47:16.000Z</time>
      </trkpt>
      <trkpt lat="45.19693" lon="5.72861">
        <ele>264.60000610352</ele>
        <time>2022-06-02T03:47:17.000Z</time>
      </trkpt>
      <trkpt lat="45.19694" lon="5.72864">
        <ele>264.39999389648</ele>
        <time>2022-06-02T03:47:18.000Z</time>
      </trkpt>
      <trkpt lat="45.19695" lon="5.72866">
        <ele>264.39999389648</ele>
        <time>2022-06-02T03:47:19.000Z</time>
      </trkpt>
      <trkpt lat="45.19696" lon="5.72868">
        <ele>264</ele>
        <time>2022-06-02T03:47:20.000Z</time>
      </trkpt>
      <trkpt lat="45.19697" lon="5.7287">
        <ele>263.39999389648</ele>
        <time>2022-06-02T03:47:21.000Z</time>
      </trkpt>
      <trkpt lat="45.19699" lon="5.72872">
        <ele>263.39999389648</ele>
        <time>2022-06-02T03:47:22.000Z</time>
      </trkpt>
      <trkpt lat="45.197" lon="5.72873">
        <ele>263.20001220703</ele>
        <time>2022-06-02T03:47:23.000Z</time>
      </trkpt>
      <trkpt lat="45.19702" lon="5.72875">
        <ele>262.60000610352</ele>
        <time>2022-06-02T03:47:24.000Z</time>
      </trkpt>
      <trkpt lat="45.19704" lon="5.72878">
        <ele>262.60000610352</ele>
        <time>2022-06-02T03:47:25.000Z</time>
      </trkpt>
      <trkpt lat="45.19705" lon="5.7288">
        <ele>262.39999389648</ele>
        <time>2022-06-02T03:47:26.000Z</time>
      </trkpt>
      <trkpt lat="45.19707" lon="5.72882">
        <ele>262</ele>
        <time>2022-06-02T03:47:27.000Z</time>
      </trkpt>
      <trkpt lat="45.19708" lon="5.72884">
        <ele>262</ele>
        <time>2022-06-02T03:47:28.000Z</time>
      </trkpt>
      <trkpt lat="45.1971" lon="5.72886">
        <ele>261</ele>
        <time>2022-06-02T03:47:29.000Z</time>
      </trkpt>
      <trkpt lat="45.19711" lon="5.72888">
        <ele>261.20001220703</ele>
        <time>2022-06-02T03:47:30.000Z</time>
      </trkpt>
      <trkpt lat="45.19712" lon="5.72891">
        <ele>261.20001220703</ele>
        <time>2022-06-02T03:47:31.000Z</time>
      </trkpt>
      <trkpt lat="45.19714" lon="5.72893">
        <ele>260.39999389648</ele>
        <time>2022-06-02T03:47:32.000Z</time>
      </trkpt>
      <trkpt lat="45.19715" lon="5.72896">
        <ele>260</ele>
        <time>2022-06-02T03:47:33.000Z</time>
      </trkpt>
      <trkpt lat="45.19717" lon="5.72899">
        <ele>259.60000610352</ele>
        <time>2022-06-02T03:47:34.000Z</time>
      </trkpt>
      <trkpt lat="45.19718" lon="5.72902">
        <ele>259.79998779297</ele>
        <time>2022-06-02T03:47:35.000Z</time>
      </trkpt>
      <trkpt lat="45.1972" lon="5.72904">
        <ele>259.79998779297</ele>
        <time>2022-06-02T03:47:36.000Z</time>
      </trkpt>
      <trkpt lat="45.19721" lon="5.72906">
        <ele>259.60000610352</ele>
        <time>2022-06-02T03:47:37.000Z</time>
      </trkpt>
      <trkpt lat="45.19722" lon="5.7291">
        <ele>259.20001220703</ele>
        <time>2022-06-02T03:47:38.000Z</time>
      </trkpt>
      <trkpt lat="45.19724" lon="5.72912">
        <ele>259.39999389648</ele>
        <time>2022-06-02T03:47:39.000Z</time>
      </trkpt>
      <trkpt lat="45.19726" lon="5.72914">
        <ele>258.39999389648</ele>
        <time>2022-06-02T03:47:40.000Z</time>
      </trkpt>
      <trkpt lat="45.19727" lon="5.72917">
        <ele>258.39999389648</ele>
        <time>2022-06-02T03:47:41.000Z</time>
      </trkpt>
      <trkpt lat="45.19729" lon="5.7292">
        <ele>258.39999389648</ele>
        <time>2022-06-02T03:47:42.000Z</time>
      </trkpt>
      <trkpt lat="45.1973" lon="5.72922">
        <ele>257.60000610352</ele>
        <time>2022-06-02T03:47:43.000Z</time>
      </trkpt>
      <trkpt lat="45.19733" lon="5.72924">
        <ele>257.60000610352</ele>
        <time>2022-06-02T03:47:44.000Z</time>
      </trkpt>
      <trkpt lat="45.19735" lon="5.72927">
        <ele>257.20001220703</ele>
        <time>2022-06-02T03:47:45.000Z</time>
      </trkpt>
      <trkpt lat="45.19736" lon="5.72929">
        <ele>256.60000610352</ele>
        <time>2022-06-02T03:47:46.000Z</time>
      </trkpt>
      <trkpt lat="45.19738" lon="5.72932">
        <ele>256.60000610352</ele>
        <time>2022-06-02T03:47:47.000Z</time>
      </trkpt>
      <trkpt lat="45.1974" lon="5.72934">
        <ele>256.20001220703</ele>
        <time>2022-06-02T03:47:48.000Z</time>
      </trkpt>
      <trkpt lat="45.19741" lon="5.72936">
        <ele>256.20001220703</ele>
        <time>2022-06-02T03:47:49.000Z</time>
      </trkpt>
      <trkpt lat="45.19743" lon="5.72939">
        <ele>256</ele>
        <time>2022-06-02T03:47:50.000Z</time>
      </trkpt>
      <trkpt lat="45.19744" lon="5.72941">
        <ele>255</ele>
        <time>2022-06-02T03:47:51.000Z</time>
      </trkpt>
      <trkpt lat="45.19746" lon="5.72943">
        <ele>255</ele>
        <time>2022-06-02T03:47:52.000Z</time>
      </trkpt>
      <trkpt lat="45.19747" lon="5.72946">
        <ele>255.19999694824</ele>
        <time>2022-06-02T03:47:53.000Z</time>
      </trkpt>
      <trkpt lat="45.19749" lon="5.72948">
        <ele>254.39999389648</ele>
        <time>2022-06-02T03:47:54.000Z</time>
      </trkpt>
      <trkpt lat="45.1975" lon="5.72951">
        <ele>253.80000305176</ele>
        <time>2022-06-02T03:47:55.000Z</time>
      </trkpt>
      <trkpt lat="45.19753" lon="5.72953">
        <ele>254.19999694824</ele>
        <time>2022-06-02T03:47:56.000Z</time>
      </trkpt>
      <trkpt lat="45.19754" lon="5.72956">
        <ele>253.80000305176</ele>
        <time>2022-06-02T03:47:57.000Z</time>
      </trkpt>
      <trkpt lat="45.19756" lon="5.72958">
        <ele>253.80000305176</ele>
        <time>2022-06-02T03:47:58.000Z</time>
      </trkpt>
      <trkpt lat="45.19758" lon="5.72961">
        <ele>253.39999389648</ele>
        <time>2022-06-02T03:47:59.000Z</time>
      </trkpt>
      <trkpt lat="45.1976" lon="5.72963">
        <ele>253.39999389648</ele>
        <time>2022-06-02T03:48:00.000Z</time>
      </trkpt>
      <trkpt lat="45.19762" lon="5.72965">
        <ele>252.19999694824</ele>
        <time>2022-06-02T03:48:01.000Z</time>
      </trkpt>
      <trkpt lat="45.19764" lon="5.72967">
        <ele>252</ele>
        <time>2022-06-02T03:48:02.000Z</time>
      </trkpt>
      <trkpt lat="45.19766" lon="5.72969">
        <ele>251.80000305176</ele>
        <time>2022-06-02T03:48:03.000Z</time>
      </trkpt>
      <trkpt lat="45.19767" lon="5.72971">
        <ele>251.60000610352</ele>
        <time>2022-06-02T03:48:04.000Z</time>
      </trkpt>
      <trkpt lat="45.19769" lon="5.72972">
        <ele>252</ele>
        <time>2022-06-02T03:48:05.000Z</time>
      </trkpt>
      <trkpt lat="45.19771" lon="5.72974">
        <ele>251.39999389648</ele>
        <time>2022-06-02T03:48:06.000Z</time>
      </trkpt>
      <trkpt lat="45.19773" lon="5.72976">
        <ele>251.19999694824</ele>
        <time>2022-06-02T03:48:07.000Z</time>
      </trkpt>
      <trkpt lat="45.19774" lon="5.72978">
        <ele>251.19999694824</ele>
        <time>2022-06-02T03:48:08.000Z</time>
      </trkpt>
      <trkpt lat="45.19776" lon="5.7298">
        <ele>250.60000610352</ele>
        <time>2022-06-02T03:48:09.000Z</time>
      </trkpt>
      <trkpt lat="45.19778" lon="5.72983">
        <ele>250.19999694824</ele>
        <time>2022-06-02T03:48:10.000Z</time>
      </trkpt>
      <trkpt lat="45.1978" lon="5.72986">
        <ele>250.39999389648</ele>
        <time>2022-06-02T03:48:11.000Z</time>
      </trkpt>
      <trkpt lat="45.19782" lon="5.72987">
        <ele>249.60000610352</ele>
        <time>2022-06-02T03:48:12.000Z</time>
      </trkpt>
      <trkpt lat="45.19784" lon="5.72989">
        <ele>249.60000610352</ele>
        <time>2022-06-02T03:48:13.000Z</time>
      </trkpt>
      <trkpt lat="45.19785" lon="5.72992">
        <ele>248.80000305176</ele>
        <time>2022-06-02T03:48:14.000Z</time>
      </trkpt>
      <trkpt lat="45.19787" lon="5.72993">
        <ele>248.60000610352</ele>
        <time>2022-06-02T03:48:15.000Z</time>
      </trkpt>
      <trkpt lat="45.19789" lon="5.72995">
        <ele>249.19999694824</ele>
        <time>2022-06-02T03:48:16.000Z</time>
      </trkpt>
      <trkpt lat="45.19791" lon="5.72996">
        <ele>247.80000305176</ele>
        <time>2022-06-02T03:48:17.000Z</time>
      </trkpt>
      <trkpt lat="45.19793" lon="5.72997">
        <ele>248.19999694824</ele>
        <time>2022-06-02T03:48:18.000Z</time>
      </trkpt>
      <trkpt lat="45.19795" lon="5.72997">
        <ele>247.80000305176</ele>
        <time>2022-06-02T03:48:19.000Z</time>
      </trkpt>
      <trkpt lat="45.19797" lon="5.72999">
        <ele>247.80000305176</ele>
        <time>2022-06-02T03:48:20.000Z</time>
      </trkpt>
      <trkpt lat="45.19799" lon="5.73">
        <ele>247.39999389648</ele>
        <time>2022-06-02T03:48:21.000Z</time>
      </trkpt>
      <trkpt lat="45.19801" lon="5.73001">
        <ele>247.39999389648</ele>
        <time>2022-06-02T03:48:22.000Z</time>
      </trkpt>
      <trkpt lat="45.19803" lon="5.73003">
        <ele>247</ele>
        <time>2022-06-02T03:48:23.000Z</time>
      </trkpt>
      <trkpt lat="45.19806" lon="5.73005">
        <ele>247</ele>
        <time>2022-06-02T03:48:24.000Z</time>
      </trkpt>
      <trkpt lat="45.19808" lon="5.73007">
        <ele>246.60000610352</ele>
        <time>2022-06-02T03:48:25.000Z</time>
      </trkpt>
      <trkpt lat="45.1981" lon="5.7301">
        <ele>246.39999389648</ele>
        <time>2022-06-02T03:48:26.000Z</time>
      </trkpt>
      <trkpt lat="45.1981" lon="5.73013">
        <ele>246</ele>
        <time>2022-06-02T03:48:27.000Z</time>
      </trkpt>
      <trkpt lat="45.1981" lon="5.73012">
        <ele>245.39999389648</ele>
        <time>2022-06-02T03:48:28.000Z</time>
      </trkpt>
      <trkpt lat="45.19808" lon="5.73013">
        <ele>245.39999389648</ele>
        <time>2022-06-02T03:48:29.000Z</time>
      </trkpt>
      <trkpt lat="45.19805" lon="5.73013">
        <ele>244.80000305176</ele>
        <time>2022-06-02T03:48:30.000Z</time>
      </trkpt>
      <trkpt lat="45.19803" lon="5.73014">
        <ele>244.60000610352</ele>
        <time>2022-06-02T03:48:31.000Z</time>
      </trkpt>
      <trkpt lat="45.198" lon="5.73014">
        <ele>244.39999389648</ele>
        <time>2022-06-02T03:48:32.000Z</time>
      </trkpt>
      <trkpt lat="45.19798" lon="5.73014">
        <ele>244.39999389648</ele>
        <time>2022-06-02T03:48:33.000Z</time>
      </trkpt>
      <trkpt lat="45.19796" lon="5.73013">
        <ele>244.39999389648</ele>
        <time>2022-06-02T03:48:34.000Z</time>
      </trkpt>
      <trkpt lat="45.19793" lon="5.73013">
        <ele>244</ele>
        <time>2022-06-02T03:48:35.000Z</time>
      </trkpt>
      <trkpt lat="45.19791" lon="5.73013">
        <ele>243.39999389648</ele>
        <time>2022-06-02T03:48:36.000Z</time>
      </trkpt>
      <trkpt lat="45.19788" lon="5.73013">
        <ele>243</ele>
        <time>2022-06-02T03:48:37.000Z</time>
      </trkpt>
      <trkpt lat="45.19786" lon="5.73012">
        <ele>243.19999694824</ele>
        <time>2022-06-02T03:48:38.000Z</time>
      </trkpt>
      <trkpt lat="45.19783" lon="5.73011">
        <ele>242.60000610352</ele>
        <time>2022-06-02T03:48:39.000Z</time>
      </trkpt>
      <trkpt lat="45.19781" lon="5.73011">
        <ele>243</ele>
        <time>2022-06-02T03:48:40.000Z</time>
      </trkpt>
      <trkpt lat="45.19779" lon="5.7301">
        <ele>243</ele>
        <time>2022-06-02T03:48:41.000Z</time>
      </trkpt>
      <trkpt lat="45.19776" lon="5.73009">
        <ele>242.19999694824</ele>
        <time>2022-06-02T03:48:42.000Z</time>
      </trkpt>
      <trkpt lat="45.19773" lon="5.73008">
        <ele>242.19999694824</ele>
        <time>2022-06-02T03:48:43.000Z</time>
      </trkpt>
      <trkpt lat="45.19771" lon="5.73007">
        <ele>241.39999389648</ele>
        <time>2022-06-02T03:48:44.000Z</time>
      </trkpt>
      <trkpt lat="45.19769" lon="5.73006">
        <ele>241.39999389648</ele>
        <time>2022-06-02T03:48:45.000Z</time>
      </trkpt>
      <trkpt lat="45.19767" lon="5.73006">
        <ele>241.19999694824</ele>
        <time>2022-06-02T03:48:46.000Z</time>
      </trkpt>
      <trkpt lat="45.19767" lon="5.73007">
        <ele>240.19999694824</ele>
        <time>2022-06-02T03:48:47.000Z</time>
      </trkpt>
      <trkpt lat="45.19767" lon="5.73009">
        <ele>240.19999694824</ele>
        <time>2022-06-02T03:48:48.000Z</time>
      </trkpt>
      <trkpt lat="45.19767" lon="5.73011">
        <ele>240.19999694824</ele>
        <time>2022-06-02T03:48:49.000Z</time>
      </trkpt>
      <trkpt lat="45.19769" lon="5.73013">
        <ele>239.80000305176</ele>
        <time>2022-06-02T03:48:50.000Z</time>
      </trkpt>
      <trkpt lat="45.1977" lon="5.73015">
        <ele>239.80000305176</ele>
        <time>2022-06-02T03:48:51.000Z</time>
      </trkpt>
      <trkpt lat="45.19771" lon="5.73016">
        <ele>239.80000305176</ele>
        <time>2022-06-02T03:48:52.000Z</time>
      </trkpt>
      <trkpt lat="45.19773" lon="5.73017">
        <ele>238.80000305176</ele>
        <time>2022-06-02T03:48:53.000Z</time>
      </trkpt>
      <trkpt lat="45.19774" lon="5.73019">
        <ele>238.80000305176</ele>
        <time>2022-06-02T03:48:54.000Z</time>
      </trkpt>
      <trkpt lat="45.19777" lon="5.7302">
        <ele>238.80000305176</ele>
        <time>2022-06-02T03:48:55.000Z</time>
      </trkpt>
      <trkpt lat="45.19779" lon="5.73021">
        <ele>238.60000610352</ele>
        <time>2022-06-02T03:48:56.000Z</time>
      </trkpt>
      <trkpt lat="45.19781" lon="5.73023">
        <ele>238.19999694824</ele>
        <time>2022-06-02T03:48:57.000Z</time>
      </trkpt>
      <trkpt lat="45.19783" lon="5.73023">
        <ele>238.39999389648</ele>
        <time>2022-06-02T03:48:58.000Z</time>
      </trkpt>
      <trkpt lat="45.19786" lon="5.73024">
        <ele>237.80000305176</ele>
        <time>2022-06-02T03:48:59.000Z</time>
      </trkpt>
      <trkpt lat="45.19787" lon="5.73026">
        <ele>237.60000610352</ele>
        <time>2022-06-02T03:49:00.000Z</time>
      </trkpt>
      <trkpt lat="45.19789" lon="5.73027">
        <ele>237.60000610352</ele>
        <time>2022-06-02T03:49:01.000Z</time>
      </trkpt>
      <trkpt lat="45.19792" lon="5.73029">
        <ele>237</ele>
        <time>2022-06-02T03:49:02.000Z</time>
      </trkpt>
      <trkpt lat="45.19794" lon="5.7303">
        <ele>236</ele>
        <time>2022-06-02T03:49:03.000Z</time>
      </trkpt>
      <trkpt lat="45.19796" lon="5.73031">
        <ele>236</ele>
        <time>2022-06-02T03:49:04.000Z</time>
      </trkpt>
      <trkpt lat="45.19798" lon="5.73033">
        <ele>236.39999389648</ele>
        <time>2022-06-02T03:49:05.000Z</time>
      </trkpt>
      <trkpt lat="45.19799" lon="5.73035">
        <ele>235.39999389648</ele>
        <time>2022-06-02T03:49:06.000Z</time>
      </trkpt>
      <trkpt lat="45.19801" lon="5.73036">
        <ele>235.39999389648</ele>
        <time>2022-06-02T03:49:07.000Z</time>
      </trkpt>
      <trkpt lat="45.19802" lon="5.73038">
        <ele>235.19999694824</ele>
        <time>2022-06-02T03:49:08.000Z</time>
      </trkpt>
      <trkpt lat="45.19802" lon="5.73039">
        <ele>235.19999694824</ele>
        <time>2022-06-02T03:49:09.000Z</time>
      </trkpt>
      <trkpt lat="45.19802" lon="5.7304">
        <ele>235.19999694824</ele>
        <time>2022-06-02T03:49:10.000Z</time>
      </trkpt>
      <trkpt lat="45.19801" lon="5.73039">
        <ele>235.19999694824</ele>
        <time>2022-06-02T03:49:11.000Z</time>
      </trkpt>
      <trkpt lat="45.19799" lon="5.73039">
        <ele>234.80000305176</ele>
        <time>2022-06-02T03:49:12.000Z</time>
      </trkpt>
      <trkpt lat="45.19797" lon="5.73039">
        <ele>234.39999389648</ele>
        <time>2022-06-02T03:49:13.000Z</time>
      </trkpt>
      <trkpt lat="45.19795" lon="5.73038">
        <ele>234.39999389648</ele>
        <time>2022-06-02T03:49:14.000Z</time>
      </trkpt>
      <trkpt lat="45.19793" lon="5.73037">
        <ele>233.19999694824</ele>
        <time>2022-06-02T03:49:15.000Z</time>
      </trkpt>
      <trkpt lat="45.19791" lon="5.73037">
        <ele>233.19999694824</ele>
        <time>2022-06-02T03:49:16.000Z</time>
      </trkpt>
      <trkpt lat="45.19789" lon="5.73036">
        <ele>233.39999389648</ele>
        <time>2022-06-02T03:49:17.000Z</time>
      </trkpt>
      <trkpt lat="45.19787" lon="5.73035">
        <ele>232.19999694824</ele>
        <time>2022-06-02T03:49:18.000Z</time>
      </trkpt>
      <trkpt lat="45.19786" lon="5.73035">
        <ele>232.80000305176</ele>
        <time>2022-06-02T03:49:19.000Z</time>
      </trkpt>
      <trkpt lat="45.19784" lon="5.73035">
        <ele>231.60000610352</ele>
        <time>2022-06-02T03:49:20.000Z</time>
      </trkpt>
      <trkpt lat="45.19783" lon="5.73034">
        <ele>232</ele>
        <time>2022-06-02T03:49:21.000Z</time>
      </trkpt>
      <trkpt lat="45.19781" lon="5.73034">
        <ele>232.19999694824</ele>
        <time>2022-06-02T03:49:22.000Z</time>
      </trkpt>
      <trkpt lat="45.19778" lon="5.73034">
        <ele>231.19999694824</ele>
        <time>2022-06-02T03:49:23.000Z</time>
      </trkpt>
      <trkpt lat="45.19776" lon="5.73034">
        <ele>231</ele>
        <time>2022-06-02T03:49:24.000Z</time>
      </trkpt>
      <trkpt lat="45.19773" lon="5.73033">
        <ele>231.39999389648</ele>
        <time>2022-06-02T03:49:25.000Z</time>
      </trkpt>
      <trkpt lat="45.19771" lon="5.73033">
        <ele>230.60000610352</ele>
        <time>2022-06-02T03:49:26.000Z</time>
      </trkpt>
      <trkpt lat="45.19768" lon="5.73033">
        <ele>230.39999389648</ele>
        <time>2022-06-02T03:49:27.000Z</time>
      </trkpt>
      <trkpt lat="45.19765" lon="5.73032">
        <ele>229.60000610352</ele>
        <time>2022-06-02T03:49:28.000Z</time>
      </trkpt>
      <trkpt lat="45.19763" lon="5.7303">
        <ele>229.60000610352</ele>
        <time>2022-06-02T03:49:29.000Z</time>
      </trkpt>
      <trkpt lat="45.1976" lon="5.7303">
        <ele>229.39999389648</ele>
        <time>2022-06-02T03:49:30.000Z</time>
      </trkpt>
      <trkpt lat="45.19758" lon="5.73029">
        <ele>229.39999389648</ele>
        <time>2022-06-02T03:49:31.000Z</time>
      </trkpt>
      <trkpt lat="45.19757" lon="5.73029">
        <ele>229</ele>
        <time>2022-06-02T03:49:32.000Z</time>
      </trkpt>
      <trkpt lat="45.19756" lon="5.7303">
        <ele>228.80000305176</ele>
        <time>2022-06-02T03:49:33.000Z</time>
      </trkpt>
      <trkpt lat="45.19756" lon="5.73031">
        <ele>229</ele>
        <time>2022-06-02T03:49:34.000Z</time>
      </trkpt>
      <trkpt lat="45.19756" lon="5.73034">
        <ele>228</ele>
        <time>2022-06-02T03:49:35.000Z</time>
      </trkpt>
      <trkpt lat="45.19757" lon="5.73035">
        <ele>228</ele>
        <time>2022-06-02T03:49:36.000Z</time>
      </trkpt>
      <trkpt lat="45.19758" lon="5.73037">
        <ele>227.60000610352</ele>
        <time>2022-06-02T03:49:37.000Z</time>
      </trkpt>
      <trkpt lat="45.1976" lon="5.73038">
        <ele>227.60000610352</ele>
        <time>2022-06-02T03:49:38.000Z</time>
      </trkpt>
      <trkpt lat="45.19762" lon="5.7304">
        <ele>227.39999389648</ele>
        <time>2022-06-02T03:49:39.000Z</time>
      </trkpt>
      <trkpt lat="45.19764" lon="5.73041">
        <ele>227</ele>
        <time>2022-06-02T03:49:40.000Z</time>
      </trkpt>
      <trkpt lat="45.19766" lon="5.73041">
        <ele>227</ele>
        <time>2022-06-02T03:49:41.000Z</time>
      </trkpt>
      <trkpt lat="45.19768" lon="5.73043">
        <ele>226.39999389648</ele>
        <time>2022-06-02T03:49:42.000Z</time>
      </trkpt>
      <trkpt lat="45.1977" lon="5.73044">
        <ele>226.39999389648</ele>
        <time>2022-06-02T03:49:43.000Z</time>
      </trkpt>
      <trkpt lat="45.19772" lon="5.73046">
        <ele>226.19999694824</ele>
        <time>2022-06-02T03:49:44.000Z</time>
      </trkpt>
      <trkpt lat="45.19773" lon="5.73047">
        <ele>225.80000305176</ele>
        <time>2022-06-02T03:49:45.000Z</time>
      </trkpt>
      <trkpt lat="45.19775" lon="5.73048">
        <ele>225.19999694824</ele>
        <time>2022-06-02T03:49:46.000Z</time>
      </trkpt>
      <trkpt lat="45.19778" lon="5.73049">
        <ele>225.39999389648</ele>
        <time>2022-06-02T03:49:47.000Z</time>
      </trkpt>
      <trkpt lat="45.19779" lon="5.7305">
        <ele>224.80000305176</ele>
        <time>2022-06-02T03:49:48.000Z</time>
      </trkpt>
      <trkpt lat="45.19782" lon="5.73051">
        <ele>224.80000305176</ele>
        <time>2022-06-02T03:49:49.000Z</time>
      </trkpt>
      <trkpt lat="45.19784" lon="5.73053">
        <ele>224.60000610352</ele>
        <time>2022-06-02T03:49:50.000Z</time>
      </trkpt>
      <trkpt lat="45.19787" lon="5.73054">
        <ele>223.60000610352</ele>
        <time>2022-06-02T03:49:51.000Z</time>
      </trkpt>
      <trkpt lat="45.19788" lon="5.73055">
        <ele>223.80000305176</ele>
        <time>2022-06-02T03:49:52.000Z</time>
      </trkpt>
      <trkpt lat="45.19791" lon="5.73055">
        <ele>224</ele>
        <time>2022-06-02T03:49:53.000Z</time>
      </trkpt>
      <trkpt lat="45.19793" lon="5.73057">
        <ele>223.39999389648</ele>
        <time>2022-06-02T03:49:54.000Z</time>
      </trkpt>
      <trkpt lat="45.19795" lon="5.73059">
        <ele>223</ele>
        <time>2022-06-02T03:49:55.000Z</time>
      </trkpt>
      <trkpt lat="45.19795" lon="5.73062">
        <ele>223</ele>
        <time>2022-06-02T03:49:56.000Z</time>
      </trkpt>
      <trkpt lat="45.19794" lon="5.73063">
        <ele>222</ele>
        <time>2022-06-02T03:49:57.000Z</time>
      </trkpt>
      <trkpt lat="45.19793" lon="5.73063">
        <ele>222</ele>
        <time>2022-06-02T03:49:58.000Z</time>
      </trkpt>
      <trkpt lat="45.19791" lon="5.73063">
        <ele>222.39999389648</ele>
        <time>2022-06-02T03:49:59.000Z</time>
      </trkpt>
      <trkpt lat="45.19788" lon="5.73063">
        <ele>221.60000610352</ele>
        <time>2022-06-02T03:50:00.000Z</time>
      </trkpt>
      <trkpt lat="45.19786" lon="5.73062">
        <ele>221.60000610352</ele>
        <time>2022-06-02T03:50:01.000Z</time>
      </trkpt>
      <trkpt lat="45.19784" lon="5.73062">
        <ele>221</ele>
        <time>2022-06-02T03:50:02.000Z</time>
      </trkpt>
      <trkpt lat="45.19782" lon="5.73061">
        <ele>220.80000305176</ele>
        <time>2022-06-02T03:50:03.000Z</time>
      </trkpt>
      <trkpt lat="45.1978" lon="5.73061">
        <ele>220.80000305176</ele>
        <time>2022-06-02T03:50:04.000Z</time>
      </trkpt>
      <trkpt lat="45.19777" lon="5.7306">
        <ele>220.19999694824</ele>
        <time>2022-06-02T03:50:05.000Z</time>
      </trkpt>
      <trkpt lat="45.19775" lon="5.73059">
        <ele>220.19999694824</ele>
        <time>2022-06-02T03:50:06.000Z</time>
      </trkpt>
      <trkpt lat="45.19773" lon="5.73058">
        <ele>220.39999389648</ele>
        <time>2022-06-02T03:50:07.000Z</time>
      </trkpt>
      <trkpt lat="45.19772" lon="5.73058">
        <ele>219.60000610352</ele>
        <time>2022-06-02T03:50:08.000Z</time>
      </trkpt>
      <trkpt lat="45.1977" lon="5.73057">
        <ele>219</ele>
        <time>2022-06-02T03:50:09.000Z</time>
      </trkpt>
      <trkpt lat="45.19769" lon="5.73056">
        <ele>219.39999389648</ele>
        <time>2022-06-02T03:50:10.000Z</time>
      </trkpt>
      <trkpt lat="45.19766" lon="5.73055">
        <ele>218.39999389648</ele>
        <time>2022-06-02T03:50:11.000Z</time>
      </trkpt>
      <trkpt lat="45.19764" lon="5.73055">
        <ele>218.60000610352</ele>
        <time>2022-06-02T03:50:12.000Z</time>
      </trkpt>
      <trkpt lat="45.19761" lon="5.73054">
        <ele>217.80000305176</ele>
        <time>2022-06-02T03:50:13.000Z</time>
      </trkpt>
      <trkpt lat="45.19758" lon="5.73054">
        <ele>217.80000305176</ele>
        <time>2022-06-02T03:50:14.000Z</time>
      </trkpt>
      <trkpt lat="45.19756" lon="5.73054">
        <ele>217.80000305176</ele>
        <time>2022-06-02T03:50:15.000Z</time>
      </trkpt>
      <trkpt lat="45.19754" lon="5.73054">
        <ele>217</ele>
        <time>2022-06-02T03:50:16.000Z</time>
      </trkpt>
      <trkpt lat="45.19752" lon="5.73056">
        <ele>216.80000305176</ele>
        <time>2022-06-02T03:50:17.000Z</time>
      </trkpt>
      <trkpt lat="45.19751" lon="5.73058">
        <ele>216.80000305176</ele>
        <time>2022-06-02T03:50:18.000Z</time>
      </trkpt>
      <trkpt lat="45.19752" lon="5.73058">
        <ele>216.80000305176</ele>
        <time>2022-06-02T03:50:19.000Z</time>
      </trkpt>
      <trkpt lat="45.19755" lon="5.73057">
        <ele>216</ele>
        <time>2022-06-02T03:50:20.000Z</time>
      </trkpt>
      <trkpt lat="45.19757" lon="5.73059">
        <ele>215.60000610352</ele>
        <time>2022-06-02T03:50:21.000Z</time>
      </trkpt>
      <trkpt lat="45.19758" lon="5.7306">
        <ele>215.60000610352</ele>
        <time>2022-06-02T03:50:22.000Z</time>
      </trkpt>
      <trkpt lat="45.1976" lon="5.73062">
        <ele>215.39999389648</ele>
        <time>2022-06-02T03:50:23.000Z</time>
      </trkpt>
      <trkpt lat="45.19762" lon="5.73063">
        <ele>215.39999389648</ele>
        <time>2022-06-02T03:50:24.000Z</time>
      </trkpt>
      <trkpt lat="45.19764" lon="5.73064">
        <ele>215.60000610352</ele>
        <time>2022-06-02T03:50:25.000Z</time>
      </trkpt>
      <trkpt lat="45.19765" lon="5.73065">
        <ele>214.60000610352</ele>
        <time>2022-06-02T03:50:26.000Z</time>
      </trkpt>
      <trkpt lat="45.19767" lon="5.73066">
        <ele>214.60000610352</ele>
        <time>2022-06-02T03:50:27.000Z</time>
      </trkpt>
      <trkpt lat="45.19769" lon="5.73067">
        <ele>214.60000610352</ele>
        <time>2022-06-02T03:50:28.000Z</time>
      </trkpt>
      <trkpt lat="45.19771" lon="5.73068">
        <ele>213.80000305176</ele>
        <time>2022-06-02T03:50:29.000Z</time>
      </trkpt>
      <trkpt lat="45.19773" lon="5.73069">
        <ele>213.80000305176</ele>
        <time>2022-06-02T03:50:30.000Z</time>
      </trkpt>
      <trkpt lat="45.19775" lon="5.7307">
        <ele>214.19999694824</ele>
        <time>2022-06-02T03:50:31.000Z</time>
      </trkpt>
      <trkpt lat="45.19776" lon="5.73071">
        <ele>212.80000305176</ele>
        <time>2022-06-02T03:50:32.000Z</time>
      </trkpt>
      <trkpt lat="45.19778" lon="5.73072">
        <ele>212.80000305176</ele>
        <time>2022-06-02T03:50:33.000Z</time>
      </trkpt>
      <trkpt lat="45.1978" lon="5.73074">
        <ele>212.60000610352</ele>
        <time>2022-06-02T03:50:34.000Z</time>
      </trkpt>
      <trkpt lat="45.19782" lon="5.73076">
        <ele>212.19999694824</ele>
        <time>2022-06-02T03:50:35.000Z</time>
      </trkpt>
      <trkpt lat="45.19784" lon="5.73078">
        <ele>212.19999694824</ele>
        <time>2022-06-02T03:50:36.000Z</time>
      </trkpt>
      <trkpt lat="45.19786" lon="5.7308">
        <ele>212.19999694824</ele>
        <time>2022-06-02T03:50:37.000Z</time>
      </trkpt>
      <trkpt lat="45.19788" lon="5.73081">
        <ele>211.19999694824</ele>
        <time>2022-06-02T03:50:38.000Z</time>
      </trkpt>
      <trkpt lat="45.1979" lon="5.73083">
        <ele>210.80000305176</ele>
        <time>2022-06-02T03:50:39.000Z</time>
      </trkpt>
      <trkpt lat="45.19791" lon="5.73084">
        <ele>211</ele>
        <time>2022-06-02T03:50:40.000Z</time>
      </trkpt>
      <trkpt lat="45.19793" lon="5.73085">
        <ele>210.39999389648</ele>
        <time>2022-06-02T03:50:41.000Z</time>
      </trkpt>
      <trkpt lat="45.19795" lon="5.73087">
        <ele>210.19999694824</ele>
        <time>2022-06-02T03:50:42.000Z</time>
      </trkpt>
      <trkpt lat="45.19797" lon="5.7309">
        <ele>210.39999389648</ele>
        <time>2022-06-02T03:50:43.000Z</time>
      </trkpt>
      <trkpt lat="45.19799" lon="5.73093">
        <ele>210</ele>
        <time>2022-06-02T03:50:44.000Z</time>
      </trkpt>
      <trkpt lat="45.19799" lon="5.73094">
        <ele>210</ele>
        <time>2022-06-02T03:50:45.000Z</time>
      </trkpt>
      <trkpt lat="45.19799" lon="5.73094">
        <ele>209.39999389648</ele>
        <time>2022-06-02T03:50:46.000Z</time>
      </trkpt>
      <trkpt lat="45.19798" lon="5.73094">
        <ele>209.39999389648</ele>
        <time>2022-06-02T03:50:47.000Z</time>
      </trkpt>
      <trkpt lat="45.19797" lon="5.73093">
        <ele>209.39999389648</ele>
        <time>2022-06-02T03:50:48.000Z</time>
      </trkpt>
      <trkpt lat="45.19795" lon="5.73093">
        <ele>208.60000610352</ele>
        <time>2022-06-02T03:50:49.000Z</time>
      </trkpt>
      <trkpt lat="45.19793" lon="5.73092">
        <ele>208.60000610352</ele>
        <time>2022-06-02T03:50:50.000Z</time>
      </trkpt>
      <trkpt lat="45.19791" lon="5.73092">
        <ele>208</ele>
        <time>2022-06-02T03:50:51.000Z</time>
      </trkpt>
      <trkpt lat="45.19789" lon="5.73091">
        <ele>208</ele>
        <time>2022-06-02T03:50:52.000Z</time>
      </trkpt>
      <trkpt lat="45.19787" lon="5.73091">
        <ele>207.80000305176</ele>
        <time>2022-06-02T03:50:53.000Z</time>
      </trkpt>
      <trkpt lat="45.19784" lon="5.73091">
        <ele>208.19999694824</ele>
        <time>2022-06-02T03:50:54.000Z</time>
      </trkpt>
      <trkpt lat="45.19782" lon="5.73091">
        <ele>207.19999694824</ele>
        <time>2022-06-02T03:50:55.000Z</time>
      </trkpt>
      <trkpt lat="45.19779" lon="5.7309">
        <ele>207</ele>
        <time>2022-06-02T03:50:56.000Z</time>
      </trkpt>
      <trkpt lat="45.19777" lon="5.7309">
        <ele>207</ele>
        <time>2022-06-02T03:50:57.000Z</time>
      </trkpt>
      <trkpt lat="45.19775" lon="5.73089">
        <ele>206.19999694824</ele>
        <time>2022-06-02T03:50:58.000Z</time>
      </trkpt>
      <trkpt lat="45.19772" lon="5.73089">
        <ele>206.39999389648</ele>
        <time>2022-06-02T03:50:59.000Z</time>
      </trkpt>
      <trkpt lat="45.1977" lon="5.73089">
        <ele>205.60000610352</ele>
        <time>2022-06-02T03:51:00.000Z</time>
      </trkpt>
      <trkpt lat="45.19768" lon="5.73089">
        <ele>205.80000305176</ele>
        <time>2022-06-02T03:51:01.000Z</time>
      </trkpt>
      <trkpt lat="45.19765" lon="5.73089">
        <ele>205.80000305176</ele>
        <time>2022-06-02T03:51:02.000Z</time>
      </trkpt>
      <trkpt lat="45.19763" lon="5.73089">
        <ele>205.80000305176</ele>
        <time>2022-06-02T03:51:03.000Z</time>
      </trkpt>
      <trkpt lat="45.19761" lon="5.73089">
        <ele>204.60000610352</ele>
        <time>2022-06-02T03:51:04.000Z</time>
      </trkpt>
      <trkpt lat="45.19759" lon="5.7309">
        <ele>204.39999389648</ele>
        <time>2022-06-02T03:51:05.000Z</time>
      </trkpt>
      <trkpt lat="45.19759" lon="5.73091">
        <ele>204.39999389648</ele>
        <time>2022-06-02T03:51:06.000Z</time>
      </trkpt>
      <trkpt lat="45.19759" lon="5.73093">
        <ele>204</ele>
        <time>2022-06-02T03:51:07.000Z</time>
      </trkpt>
      <trkpt lat="45.19759" lon="5.73094">
        <ele>204.19999694824</ele>
        <time>2022-06-02T03:51:08.000Z</time>
      </trkpt>
      <trkpt lat="45.1976" lon="5.73095">
        <ele>203.80000305176</ele>
        <time>2022-06-02T03:51:09.000Z</time>
      </trkpt>
      <trkpt lat="45.19762" lon="5.73099">
        <ele>203.80000305176</ele>
        <time>2022-06-02T03:51:10.000Z</time>
      </trkpt>
      <trkpt lat="45.19763" lon="5.73099">
        <ele>203.39999389648</ele>
        <time>2022-06-02T03:51:11.000Z</time>
      </trkpt>
      <trkpt lat="45.19765" lon="5.73099">
        <ele>202.60000610352</ele>
        <time>2022-06-02T03:51:12.000Z</time>
      </trkpt>
      <trkpt lat="45.19766" lon="5.73099">
        <ele>202.60000610352</ele>
        <time>2022-06-02T03:51:13.000Z</time>
      </trkpt>
      <trkpt lat="45.19769" lon="5.731">
        <ele>202.60000610352</ele>
        <time>2022-06-02T03:51:14.000Z</time>
      </trkpt>
      <trkpt lat="45.19771" lon="5.73101">
        <ele>202</ele>
        <time>2022-06-02T03:51:15.000Z</time>
      </trkpt>
      <trkpt lat="45.19772" lon="5.73102">
        <ele>202</ele>
        <time>2022-06-02T03:51:16.000Z</time>
      </trkpt>
      <trkpt lat="45.19773" lon="5.73103">
        <ele>202</ele>
        <time>2022-06-02T03:51:17.000Z</time>
      </trkpt>
      <trkpt lat="45.19774" lon="5.73104">
        <ele>201.39999389648</ele>
        <time>2022-06-02T03:51:18.000Z</time>
      </trkpt>
      <trkpt lat="45.19774" lon="5.73105">
        <ele>201</ele>
        <time>2022-06-02T03:51:19.000Z</time>
      </trkpt>
      <trkpt lat="45.19774" lon="5.73108">
        <ele>200.80000305176</ele>
        <time>2022-06-02T03:51:20.000Z</time>
      </trkpt>
      <trkpt lat="45.19775" lon="5.73112">
        <ele>200.60000610352</ele>
        <time>2022-06-02T03:51:21.000Z</time>
      </trkpt>
      <trkpt lat="45.19776" lon="5.73114">
        <ele>200.39999389648</ele>
        <time>2022-06-02T03:51:22.000Z</time>
      </trkpt>
      <trkpt lat="45.19777" lon="5.73115">
        <ele>200</ele>
        <time>2022-06-02T03:51:23.000Z</time>
      </trkpt>
      <trkpt lat="45.1978" lon="5.73117">
        <ele>199.60000610352</ele>
        <time>2022-06-02T03:51:24.000Z</time>
      </trkpt>
      <trkpt lat="45.19787" lon="5.73119">
        <ele>198.80000305176</ele>
        <time>2022-06-02T03:51:25.000Z</time>
      </trkpt>
      <trkpt lat="45.19792" lon="5.73119">
        <ele>198.80000305176</ele>
        <time>2022-06-02T03:51:26.000Z</time>
      </trkpt>
      <trkpt lat="45.19796" lon="5.73119">
        <ele>199.39999389648</ele>
        <time>2022-06-02T03:51:27.000Z</time>
      </trkpt>
      <trkpt lat="45.198" lon="5.7312">
        <ele>198.80000305176</ele>
        <time>2022-06-02T03:51:28.000Z</time>
      </trkpt>
      <trkpt lat="45.19802" lon="5.73122">
        <ele>198.19999694824</ele>
        <time>2022-06-02T03:51:29.000Z</time>
      </trkpt>
      <trkpt lat="45.19802" lon="5.73123">
        <ele>198</ele>
        <time>2022-06-02T03:51:30.000Z</time>
      </trkpt>
      <trkpt lat="45.198" lon="5.73124">
        <ele>198</ele>
        <time>2022-06-02T03:51:31.000Z</time>
      </trkpt>
      <trkpt lat="45.19798" lon="5.73124">
        <ele>198</ele>
        <time>2022-06-02T03:51:32.000Z</time>
      </trkpt>
      <trkpt lat="45.19796" lon="5.73125">
        <ele>197.19999694824</ele>
        <time>2022-06-02T03:51:33.000Z</time>
      </trkpt>
      <trkpt lat="45.19793" lon="5.73125">
        <ele>197.60000610352</ele>
        <time>2022-06-02T03:51:34.000Z</time>
      </trkpt>
      <trkpt lat="45.19791" lon="5.73126">
        <ele>196.80000305176</ele>
        <time>2022-06-02T03:51:35.000Z</time>
      </trkpt>
      <trkpt lat="45.19789" lon="5.73127">
        <ele>196.19999694824</ele>
        <time>2022-06-02T03:51:36.000Z</time>
      </trkpt>
      <trkpt lat="45.19787" lon="5.73129">
        <ele>196</ele>
        <time>2022-06-02T03:51:37.000Z</time>
      </trkpt>
      <trkpt lat="45.19786" lon="5.73131">
        <ele>195.80000305176</ele>
        <time>2022-06-02T03:51:38.000Z</time>
      </trkpt>
      <trkpt lat="45.19785" lon="5.73132">
        <ele>195.80000305176</ele>
        <time>2022-06-02T03:51:39.000Z</time>
      </trkpt>
      <trkpt lat="45.19781" lon="5.73137">
        <ele>195.60000610352</ele>
        <time>2022-06-02T03:51:40.000Z</time>
      </trkpt>
      <trkpt lat="45.19778" lon="5.7314">
        <ele>194.60000610352</ele>
        <time>2022-06-02T03:51:41.000Z</time>
      </trkpt>
      <trkpt lat="45.19777" lon="5.73142">
        <ele>194.60000610352</ele>
        <time>2022-06-02T03:51:42.000Z</time>
      </trkpt>
      <trkpt lat="45.19775" lon="5.73145">
        <ele>194.80000305176</ele>
        <time>2022-06-02T03:51:43.000Z</time>
      </trkpt>
      <trkpt lat="45.19774" lon="5.73147">
        <ele>194.19999694824</ele>
        <time>2022-06-02T03:51:44.000Z</time>
      </trkpt>
      <trkpt lat="45.19773" lon="5.73149">
        <ele>194</ele>
        <time>2022-06-02T03:51:45.000Z</time>
      </trkpt>
      <trkpt lat="45.19772" lon="5.73151">
        <ele>193.80000305176</ele>
        <time>2022-06-02T03:51:46.000Z</time>
      </trkpt>
      <trkpt lat="45.1977" lon="5.73155">
        <ele>193.80000305176</ele>
        <time>2022-06-02T03:51:47.000Z</time>
      </trkpt>
      <trkpt lat="45.19769" lon="5.73158">
        <ele>192.39999389648</ele>
        <time>2022-06-02T03:51:48.000Z</time>
      </trkpt>
      <trkpt lat="45.19769" lon="5.73161">
        <ele>191.60000610352</ele>
        <time>2022-06-02T03:51:49.000Z</time>
      </trkpt>
      <trkpt lat="45.19769" lon="5.73165">
        <ele>191.60000610352</ele>
        <time>2022-06-02T03:51:50.000Z</time>
      </trkpt>
      <trkpt lat="45.1977" lon="5.73167">
        <ele>191.60000610352</ele>
        <time>2022-06-02T03:51:51.000Z</time>
      </trkpt>
      <trkpt lat="45.19771" lon="5.7317">
        <ele>191.80000305176</ele>
        <time>2022-06-02T03:51:52.000Z</time>
      </trkpt>
      <trkpt lat="45.19772" lon="5.73173">
        <ele>191.80000305176</ele>
        <time>2022-06-02T03:51:53.000Z</time>
      </trkpt>
      <trkpt lat="45.19773" lon="5.73176">
        <ele>190.80000305176</ele>
        <time>2022-06-02T03:51:54.000Z</time>
      </trkpt>
      <trkpt lat="45.19775" lon="5.73178">
        <ele>190.80000305176</ele>
        <time>2022-06-02T03:51:55.000Z</time>
      </trkpt>
      <trkpt lat="45.19775" lon="5.73178">
        <ele>191</ele>
        <time>2022-06-02T03:51:56.000Z</time>
      </trkpt>
      <trkpt lat="45.19776" lon="5.73177">
        <ele>191</ele>
        <time>2022-06-02T03:51:57.000Z</time>
      </trkpt>
      <trkpt lat="45.19776" lon="5.73177">
        <ele>190.80000305176</ele>
        <time>2022-06-02T03:51:58.000Z</time>
      </trkpt>
      <trkpt lat="45.19776" lon="5.73177">
        <ele>190.80000305176</ele>
        <time>2022-06-02T03:51:59.000Z</time>
      </trkpt>
      <trkpt lat="45.19776" lon="5.73178">
        <ele>190.80000305176</ele>
        <time>2022-06-02T03:52:00.000Z</time>
      </trkpt>
      <trkpt lat="45.19778" lon="5.73179">
        <ele>191.60000610352</ele>
        <time>2022-06-02T03:52:01.000Z</time>
      </trkpt>
      <trkpt lat="45.1978" lon="5.73182">
        <ele>191.19999694824</ele>
        <time>2022-06-02T03:52:02.000Z</time>
      </trkpt>
      <trkpt lat="45.19781" lon="5.73186">
        <ele>190.80000305176</ele>
        <time>2022-06-02T03:52:03.000Z</time>
      </trkpt>
      <trkpt lat="45.19781" lon="5.7319">
        <ele>191.19999694824</ele>
        <time>2022-06-02T03:52:04.000Z</time>
      </trkpt>
      <trkpt lat="45.19781" lon="5.73192">
        <ele>191.39999389648</ele>
        <time>2022-06-02T03:52:05.000Z</time>
      </trkpt>
      <trkpt lat="45.19782" lon="5.73195">
        <ele>192</ele>
        <time>2022-06-02T03:52:06.000Z</time>
      </trkpt>
      <trkpt lat="45.19782" lon="5.73199">
        <ele>191.19999694824</ele>
        <time>2022-06-02T03:52:07.000Z</time>
      </trkpt>
      <trkpt lat="45.19781" lon="5.73203">
        <ele>191.19999694824</ele>
        <time>2022-06-02T03:52:08.000Z</time>
      </trkpt>
      <trkpt lat="45.1978" lon="5.73206">
        <ele>191.60000610352</ele>
        <time>2022-06-02T03:52:09.000Z</time>
      </trkpt>
      <trkpt lat="45.19779" lon="5.7321">
        <ele>191</ele>
        <time>2022-06-02T03:52:10.000Z</time>
      </trkpt>
      <trkpt lat="45.19778" lon="5.73214">
        <ele>191.19999694824</ele>
        <time>2022-06-02T03:52:11.000Z</time>
      </trkpt>
      <trkpt lat="45.19778" lon="5.73218">
        <ele>191.39999389648</ele>
        <time>2022-06-02T03:52:12.000Z</time>
      </trkpt>
      <trkpt lat="45.19777" lon="5.73223">
        <ele>191.60000610352</ele>
        <time>2022-06-02T03:52:13.000Z</time>
      </trkpt>
      <trkpt lat="45.19776" lon="5.73227">
        <ele>191.60000610352</ele>
        <time>2022-06-02T03:52:14.000Z</time>
      </trkpt>
      <trkpt lat="45.19775" lon="5.73231">
        <ele>191.80000305176</ele>
        <time>2022-06-02T03:52:15.000Z</time>
      </trkpt>
      <trkpt lat="45.19774" lon="5.73235">
        <ele>191.60000610352</ele>
        <time>2022-06-02T03:52:16.000Z</time>
      </trkpt>
      <trkpt lat="45.19772" lon="5.73238">
        <ele>191.80000305176</ele>
        <time>2022-06-02T03:52:17.000Z</time>
      </trkpt>
      <trkpt lat="45.19771" lon="5.73242">
        <ele>192</ele>
        <time>2022-06-02T03:52:18.000Z</time>
      </trkpt>
      <trkpt lat="45.1977" lon="5.73245">
        <ele>191.80000305176</ele>
        <time>2022-06-02T03:52:19.000Z</time>
      </trkpt>
      <trkpt lat="45.19769" lon="5.73248">
        <ele>191.80000305176</ele>
        <time>2022-06-02T03:52:20.000Z</time>
      </trkpt>
      <trkpt lat="45.19767" lon="5.73251">
        <ele>192.39999389648</ele>
        <time>2022-06-02T03:52:21.000Z</time>
      </trkpt>
      <trkpt lat="45.19766" lon="5.73255">
        <ele>192.60000610352</ele>
        <time>2022-06-02T03:52:22.000Z</time>
      </trkpt>
      <trkpt lat="45.19764" lon="5.73258">
        <ele>192.39999389648</ele>
        <time>2022-06-02T03:52:23.000Z</time>
      </trkpt>
      <trkpt lat="45.19762" lon="5.7326">
        <ele>192</ele>
        <time>2022-06-02T03:52:24.000Z</time>
      </trkpt>
      <trkpt lat="45.1976" lon="5.73264">
        <ele>192.39999389648</ele>
        <time>2022-06-02T03:52:25.000Z</time>
      </trkpt>
      <trkpt lat="45.19759" lon="5.73267">
        <ele>192.80000305176</ele>
        <time>2022-06-02T03:52:26.000Z</time>
      </trkpt>
      <trkpt lat="45.19757" lon="5.7327">
        <ele>192.80000305176</ele>
        <time>2022-06-02T03:52:27.000Z</time>
      </trkpt>
      <trkpt lat="45.19756" lon="5.73274">
        <ele>192.60000610352</ele>
        <time>2022-06-02T03:52:28.000Z</time>
      </trkpt>
      <trkpt lat="45.19755" lon="5.73277">
        <ele>192.60000610352</ele>
        <time>2022-06-02T03:52:29.000Z</time>
      </trkpt>
      <trkpt lat="45.19754" lon="5.7328">
        <ele>193.39999389648</ele>
        <time>2022-06-02T03:52:30.000Z</time>
      </trkpt>
      <trkpt lat="45.19753" lon="5.73283">
        <ele>193.19999694824</ele>
        <time>2022-06-02T03:52:31.000Z</time>
      </trkpt>
      <trkpt lat="45.19751" lon="5.73287">
        <ele>192.60000610352</ele>
        <time>2022-06-02T03:52:32.000Z</time>
      </trkpt>
      <trkpt lat="45.1975" lon="5.7329">
        <ele>193.19999694824</ele>
        <time>2022-06-02T03:52:33.000Z</time>
      </trkpt>
      <trkpt lat="45.19749" lon="5.73294">
        <ele>193.39999389648</ele>
        <time>2022-06-02T03:52:34.000Z</time>
      </trkpt>
      <trkpt lat="45.19748" lon="5.73297">
        <ele>193.19999694824</ele>
        <time>2022-06-02T03:52:35.000Z</time>
      </trkpt>
      <trkpt lat="45.19747" lon="5.73301">
        <ele>193</ele>
        <time>2022-06-02T03:52:36.000Z</time>
      </trkpt>
      <trkpt lat="45.19746" lon="5.73305">
        <ele>192.80000305176</ele>
        <time>2022-06-02T03:52:37.000Z</time>
      </trkpt>
      <trkpt lat="45.19745" lon="5.73309">
        <ele>192.80000305176</ele>
        <time>2022-06-02T03:52:38.000Z</time>
      </trkpt>
      <trkpt lat="45.19744" lon="5.73312">
        <ele>193</ele>
        <time>2022-06-02T03:52:39.000Z</time>
      </trkpt>
      <trkpt lat="45.19743" lon="5.73315">
        <ele>193</ele>
        <time>2022-06-02T03:52:40.000Z</time>
      </trkpt>
      <trkpt lat="45.19743" lon="5.73318">
        <ele>192.80000305176</ele>
        <time>2022-06-02T03:52:41.000Z</time>
      </trkpt>
      <trkpt lat="45.19742" lon="5.73322">
        <ele>193.60000610352</ele>
        <time>2022-06-02T03:52:42.000Z</time>
      </trkpt>
      <trkpt lat="45.19741" lon="5.73325">
        <ele>192.80000305176</ele>
        <time>2022-06-02T03:52:43.000Z</time>
      </trkpt>
      <trkpt lat="45.19739" lon="5.7333">
        <ele>192.80000305176</ele>
        <time>2022-06-02T03:52:44.000Z</time>
      </trkpt>
      <trkpt lat="45.19738" lon="5.73333">
        <ele>192.80000305176</ele>
        <time>2022-06-02T03:52:45.000Z</time>
      </trkpt>
      <trkpt lat="45.19737" lon="5.73337">
        <ele>193.19999694824</ele>
        <time>2022-06-02T03:52:46.000Z</time>
      </trkpt>
      <trkpt lat="45.19736" lon="5.7334">
        <ele>193.19999694824</ele>
        <time>2022-06-02T03:52:47.000Z</time>
      </trkpt>
      <trkpt lat="45.19735" lon="5.73343">
        <ele>192.80000305176</ele>
        <time>2022-06-02T03:52:48.000Z</time>
      </trkpt>
      <trkpt lat="45.19734" lon="5.73347">
        <ele>193</ele>
        <time>2022-06-02T03:52:49.000Z</time>
      </trkpt>
      <trkpt lat="45.19733" lon="5.7335">
        <ele>192.39999389648</ele>
        <time>2022-06-02T03:52:50.000Z</time>
      </trkpt>
      <trkpt lat="45.19732" lon="5.73354">
        <ele>192.39999389648</ele>
        <time>2022-06-02T03:52:51.000Z</time>
      </trkpt>
      <trkpt lat="45.19731" lon="5.73357">
        <ele>192.60000610352</ele>
        <time>2022-06-02T03:52:52.000Z</time>
      </trkpt>
      <trkpt lat="45.1973" lon="5.7336">
        <ele>192.60000610352</ele>
        <time>2022-06-02T03:52:53.000Z</time>
      </trkpt>
      <trkpt lat="45.1973" lon="5.73362">
        <ele>192.39999389648</ele>
        <time>2022-06-02T03:52:54.000Z</time>
      </trkpt>
      <trkpt lat="45.19731" lon="5.73363">
        <ele>191.60000610352</ele>
        <time>2022-06-02T03:52:55.000Z</time>
      </trkpt>
      <trkpt lat="45.19733" lon="5.73364">
        <ele>191.60000610352</ele>
        <time>2022-06-02T03:52:56.000Z</time>
      </trkpt>
      <trkpt lat="45.19735" lon="5.73365">
        <ele>191.80000305176</ele>
        <time>2022-06-02T03:52:57.000Z</time>
      </trkpt>
      <trkpt lat="45.19738" lon="5.73366">
        <ele>191.80000305176</ele>
        <time>2022-06-02T03:52:58.000Z</time>
      </trkpt>
      <trkpt lat="45.1974" lon="5.73366">
        <ele>191.39999389648</ele>
        <time>2022-06-02T03:52:59.000Z</time>
      </trkpt>
      <trkpt lat="45.19742" lon="5.73367">
        <ele>190.60000610352</ele>
        <time>2022-06-02T03:53:00.000Z</time>
      </trkpt>
      <trkpt lat="45.19745" lon="5.73367">
        <ele>191.19999694824</ele>
        <time>2022-06-02T03:53:01.000Z</time>
      </trkpt>
      <trkpt lat="45.19747" lon="5.73368">
        <ele>191.19999694824</ele>
        <time>2022-06-02T03:53:02.000Z</time>
      </trkpt>
      <trkpt lat="45.1975" lon="5.73369">
        <ele>191.19999694824</ele>
        <time>2022-06-02T03:53:03.000Z</time>
      </trkpt>
      <trkpt lat="45.19752" lon="5.73369">
        <ele>190.80000305176</ele>
        <time>2022-06-02T03:53:04.000Z</time>
      </trkpt>
      <trkpt lat="45.19755" lon="5.7337">
        <ele>190.80000305176</ele>
        <time>2022-06-02T03:53:05.000Z</time>
      </trkpt>
      <trkpt lat="45.19758" lon="5.73371">
        <ele>190.19999694824</ele>
        <time>2022-06-02T03:53:06.000Z</time>
      </trkpt>
      <trkpt lat="45.1976" lon="5.73371">
        <ele>190.19999694824</ele>
        <time>2022-06-02T03:53:07.000Z</time>
      </trkpt>
      <trkpt lat="45.19763" lon="5.73372">
        <ele>190.19999694824</ele>
        <time>2022-06-02T03:53:08.000Z</time>
      </trkpt>
      <trkpt lat="45.19766" lon="5.73372">
        <ele>189.80000305176</ele>
        <time>2022-06-02T03:53:09.000Z</time>
      </trkpt>
      <trkpt lat="45.19768" lon="5.73373">
        <ele>190.39999389648</ele>
        <time>2022-06-02T03:53:10.000Z</time>
      </trkpt>
      <trkpt lat="45.19771" lon="5.73374">
        <ele>189.80000305176</ele>
        <time>2022-06-02T03:53:11.000Z</time>
      </trkpt>
      <trkpt lat="45.19773" lon="5.73374">
        <ele>190.19999694824</ele>
        <time>2022-06-02T03:53:12.000Z</time>
      </trkpt>
      <trkpt lat="45.19776" lon="5.73375">
        <ele>190</ele>
        <time>2022-06-02T03:53:13.000Z</time>
      </trkpt>
      <trkpt lat="45.19778" lon="5.73375">
        <ele>190.39999389648</ele>
        <time>2022-06-02T03:53:14.000Z</time>
      </trkpt>
      <trkpt lat="45.19781" lon="5.73376">
        <ele>190</ele>
        <time>2022-06-02T03:53:15.000Z</time>
      </trkpt>
      <trkpt lat="45.19783" lon="5.73376">
        <ele>190.39999389648</ele>
        <time>2022-06-02T03:53:16.000Z</time>
      </trkpt>
      <trkpt lat="45.19785" lon="5.73377">
        <ele>190.39999389648</ele>
        <time>2022-06-02T03:53:17.000Z</time>
      </trkpt>
      <trkpt lat="45.19788" lon="5.73378">
        <ele>189.80000305176</ele>
        <time>2022-06-02T03:53:18.000Z</time>
      </trkpt>
      <trkpt lat="45.19791" lon="5.73379">
        <ele>189.80000305176</ele>
        <time>2022-06-02T03:53:19.000Z</time>
      </trkpt>
      <trkpt lat="45.19793" lon="5.7338">
        <ele>189.80000305176</ele>
        <time>2022-06-02T03:53:20.000Z</time>
      </trkpt>
      <trkpt lat="45.19795" lon="5.73381">
        <ele>190.39999389648</ele>
        <time>2022-06-02T03:53:21.000Z</time>
      </trkpt>
      <trkpt lat="45.19798" lon="5.73381">
        <ele>190</ele>
        <time>2022-06-02T03:53:22.000Z</time>
      </trkpt>
      <trkpt lat="45.198" lon="5.73382">
        <ele>190.19999694824</ele>
        <time>2022-06-02T03:53:23.000Z</time>
      </trkpt>
      <trkpt lat="45.19802" lon="5.73383">
        <ele>190.60000610352</ele>
        <time>2022-06-02T03:53:24.000Z</time>
      </trkpt>
      <trkpt lat="45.19805" lon="5.73383">
        <ele>190</ele>
        <time>2022-06-02T03:53:25.000Z</time>
      </trkpt>
      <trkpt lat="45.19807" lon="5.73384">
        <ele>190</ele>
        <time>2022-06-02T03:53:26.000Z</time>
      </trkpt>
      <trkpt lat="45.19809" lon="5.73385">
        <ele>189.80000305176</ele>
        <time>2022-06-02T03:53:27.000Z</time>
      </trkpt>
      <trkpt lat="45.19811" lon="5.73385">
        <ele>190.60000610352</ele>
        <time>2022-06-02T03:53:28.000Z</time>
      </trkpt>
      <trkpt lat="45.19814" lon="5.73386">
        <ele>190.19999694824</ele>
        <time>2022-06-02T03:53:29.000Z</time>
      </trkpt>
      <trkpt lat="45.19816" lon="5.73387">
        <ele>190</ele>
        <time>2022-06-02T03:53:30.000Z</time>
      </trkpt>
      <trkpt lat="45.19819" lon="5.73388">
        <ele>190.60000610352</ele>
        <time>2022-06-02T03:53:31.000Z</time>
      </trkpt>
      <trkpt lat="45.19822" lon="5.73389">
        <ele>190.19999694824</ele>
        <time>2022-06-02T03:53:32.000Z</time>
      </trkpt>
      <trkpt lat="45.19824" lon="5.73389">
        <ele>190.19999694824</ele>
        <time>2022-06-02T03:53:33.000Z</time>
      </trkpt>
      <trkpt lat="45.19827" lon="5.7339">
        <ele>190.19999694824</ele>
        <time>2022-06-02T03:53:34.000Z</time>
      </trkpt>
      <trkpt lat="45.19829" lon="5.73391">
        <ele>190.39999389648</ele>
        <time>2022-06-02T03:53:35.000Z</time>
      </trkpt>
      <trkpt lat="45.19832" lon="5.73391">
        <ele>189.80000305176</ele>
        <time>2022-06-02T03:53:36.000Z</time>
      </trkpt>
      <trkpt lat="45.19835" lon="5.73392">
        <ele>190.39999389648</ele>
        <time>2022-06-02T03:53:37.000Z</time>
      </trkpt>
      <trkpt lat="45.19838" lon="5.73392">
        <ele>190.19999694824</ele>
        <time>2022-06-02T03:53:38.000Z</time>
      </trkpt>
      <trkpt lat="45.19841" lon="5.73393">
        <ele>190</ele>
        <time>2022-06-02T03:53:39.000Z</time>
      </trkpt>
      <trkpt lat="45.19844" lon="5.73394">
        <ele>190.39999389648</ele>
        <time>2022-06-02T03:53:40.000Z</time>
      </trkpt>
      <trkpt lat="45.19846" lon="5.73395">
        <ele>190.60000610352</ele>
        <time>2022-06-02T03:53:41.000Z</time>
      </trkpt>
      <trkpt lat="45.19849" lon="5.73395">
        <ele>190.60000610352</ele>
        <time>2022-06-02T03:53:42.000Z</time>
      </trkpt>
      <trkpt lat="45.19851" lon="5.73396">
        <ele>190.19999694824</ele>
        <time>2022-06-02T03:53:43.000Z</time>
      </trkpt>
      <trkpt lat="45.19853" lon="5.73397">
        <ele>190.39999389648</ele>
        <time>2022-06-02T03:53:44.000Z</time>
      </trkpt>
      <trkpt lat="45.19856" lon="5.73397">
        <ele>190.60000610352</ele>
        <time>2022-06-02T03:53:45.000Z</time>
      </trkpt>
      <trkpt lat="45.19858" lon="5.73398">
        <ele>190</ele>
        <time>2022-06-02T03:53:46.000Z</time>
      </trkpt>
      <trkpt lat="45.19861" lon="5.73398">
        <ele>190.19999694824</ele>
        <time>2022-06-02T03:53:47.000Z</time>
      </trkpt>
      <trkpt lat="45.19863" lon="5.73399">
        <ele>190.19999694824</ele>
        <time>2022-06-02T03:53:48.000Z</time>
      </trkpt>
      <trkpt lat="45.19866" lon="5.73399">
        <ele>190.60000610352</ele>
        <time>2022-06-02T03:53:49.000Z</time>
      </trkpt>
      <trkpt lat="45.19867" lon="5.73401">
        <ele>190</ele>
        <time>2022-06-02T03:53:50.000Z</time>
      </trkpt>
      <trkpt lat="45.1987" lon="5.73402">
        <ele>189.60000610352</ele>
        <time>2022-06-02T03:53:51.000Z</time>
      </trkpt>
      <trkpt lat="45.19873" lon="5.73402">
        <ele>190.60000610352</ele>
        <time>2022-06-02T03:53:52.000Z</time>
      </trkpt>
      <trkpt lat="45.19875" lon="5.73403">
        <ele>190.39999389648</ele>
        <time>2022-06-02T03:53:53.000Z</time>
      </trkpt>
      <trkpt lat="45.19878" lon="5.73404">
        <ele>190.39999389648</ele>
        <time>2022-06-02T03:53:54.000Z</time>
      </trkpt>
      <trkpt lat="45.1988" lon="5.73405">
        <ele>190.39999389648</ele>
        <time>2022-06-02T03:53:55.000Z</time>
      </trkpt>
      <trkpt lat="45.19883" lon="5.73406">
        <ele>190.19999694824</ele>
        <time>2022-06-02T03:53:56.000Z</time>
      </trkpt>
      <trkpt lat="45.19886" lon="5.73408">
        <ele>190.19999694824</ele>
        <time>2022-06-02T03:53:57.000Z</time>
      </trkpt>
      <trkpt lat="45.19888" lon="5.73409">
        <ele>190.80000305176</ele>
        <time>2022-06-02T03:53:58.000Z</time>
      </trkpt>
      <trkpt lat="45.19891" lon="5.7341">
        <ele>190.60000610352</ele>
        <time>2022-06-02T03:53:59.000Z</time>
      </trkpt>
      <trkpt lat="45.19894" lon="5.7341">
        <ele>189.80000305176</ele>
        <time>2022-06-02T03:54:00.000Z</time>
      </trkpt>
      <trkpt lat="45.19898" lon="5.73411">
        <ele>190.80000305176</ele>
        <time>2022-06-02T03:54:01.000Z</time>
      </trkpt>
      <trkpt lat="45.19901" lon="5.73411">
        <ele>190.39999389648</ele>
        <time>2022-06-02T03:54:02.000Z</time>
      </trkpt>
      <trkpt lat="45.19903" lon="5.73412">
        <ele>190.19999694824</ele>
        <time>2022-06-02T03:54:03.000Z</time>
      </trkpt>
      <trkpt lat="45.19906" lon="5.73413">
        <ele>190</ele>
        <time>2022-06-02T03:54:04.000Z</time>
      </trkpt>
      <trkpt lat="45.1991" lon="5.73414">
        <ele>190.39999389648</ele>
        <time>2022-06-02T03:54:05.000Z</time>
      </trkpt>
      <trkpt lat="45.19913" lon="5.73415">
        <ele>190.39999389648</ele>
        <time>2022-06-02T03:54:06.000Z</time>
      </trkpt>
      <trkpt lat="45.19917" lon="5.73416">
        <ele>190.39999389648</ele>
        <time>2022-06-02T03:54:07.000Z</time>
      </trkpt>
      <trkpt lat="45.19919" lon="5.73416">
        <ele>190.60000610352</ele>
        <time>2022-06-02T03:54:08.000Z</time>
      </trkpt>
      <trkpt lat="45.19923" lon="5.73417">
        <ele>190.80000305176</ele>
        <time>2022-06-02T03:54:09.000Z</time>
      </trkpt>
      <trkpt lat="45.19926" lon="5.73417">
        <ele>190.60000610352</ele>
        <time>2022-06-02T03:54:10.000Z</time>
      </trkpt>
      <trkpt lat="45.19929" lon="5.73418">
        <ele>190.19999694824</ele>
        <time>2022-06-02T03:54:11.000Z</time>
      </trkpt>
      <trkpt lat="45.19931" lon="5.73418">
        <ele>190.39999389648</ele>
        <time>2022-06-02T03:54:12.000Z</time>
      </trkpt>
      <trkpt lat="45.19934" lon="5.73419">
        <ele>190.19999694824</ele>
        <time>2022-06-02T03:54:13.000Z</time>
      </trkpt>
      <trkpt lat="45.19938" lon="5.73419">
        <ele>191</ele>
        <time>2022-06-02T03:54:14.000Z</time>
      </trkpt>
      <trkpt lat="45.19941" lon="5.7342">
        <ele>191</ele>
        <time>2022-06-02T03:54:15.000Z</time>
      </trkpt>
      <trkpt lat="45.19943" lon="5.73421">
        <ele>190.39999389648</ele>
        <time>2022-06-02T03:54:16.000Z</time>
      </trkpt>
      <trkpt lat="45.19946" lon="5.73422">
        <ele>190.60000610352</ele>
        <time>2022-06-02T03:54:17.000Z</time>
      </trkpt>
      <trkpt lat="45.19948" lon="5.73423">
        <ele>191.39999389648</ele>
        <time>2022-06-02T03:54:18.000Z</time>
      </trkpt>
      <trkpt lat="45.19951" lon="5.73424">
        <ele>191</ele>
        <time>2022-06-02T03:54:19.000Z</time>
      </trkpt>
      <trkpt lat="45.19954" lon="5.73425">
        <ele>190.39999389648</ele>
        <time>2022-06-02T03:54:20.000Z</time>
      </trkpt>
      <trkpt lat="45.19957" lon="5.73426">
        <ele>190.60000610352</ele>
        <time>2022-06-02T03:54:21.000Z</time>
      </trkpt>
      <trkpt lat="45.19959" lon="5.73427">
        <ele>190.60000610352</ele>
        <time>2022-06-02T03:54:22.000Z</time>
      </trkpt>
      <trkpt lat="45.19962" lon="5.73428">
        <ele>190.19999694824</ele>
        <time>2022-06-02T03:54:23.000Z</time>
      </trkpt>
      <trkpt lat="45.19965" lon="5.73428">
        <ele>191</ele>
        <time>2022-06-02T03:54:24.000Z</time>
      </trkpt>
      <trkpt lat="45.19968" lon="5.73429">
        <ele>190.39999389648</ele>
        <time>2022-06-02T03:54:25.000Z</time>
      </trkpt>
      <trkpt lat="45.19971" lon="5.73429">
        <ele>190.80000305176</ele>
        <time>2022-06-02T03:54:26.000Z</time>
      </trkpt>
      <trkpt lat="45.19974" lon="5.7343">
        <ele>190.80000305176</ele>
        <time>2022-06-02T03:54:27.000Z</time>
      </trkpt>
      <trkpt lat="45.19977" lon="5.73431">
        <ele>190.60000610352</ele>
        <time>2022-06-02T03:54:28.000Z</time>
      </trkpt>
      <trkpt lat="45.19979" lon="5.73431">
        <ele>190.60000610352</ele>
        <time>2022-06-02T03:54:29.000Z</time>
      </trkpt>
      <trkpt lat="45.19981" lon="5.73433">
        <ele>190.80000305176</ele>
        <time>2022-06-02T03:54:30.000Z</time>
      </trkpt>
      <trkpt lat="45.19984" lon="5.73434">
        <ele>190.60000610352</ele>
        <time>2022-06-02T03:54:31.000Z</time>
      </trkpt>
      <trkpt lat="45.19987" lon="5.73435">
        <ele>190.19999694824</ele>
        <time>2022-06-02T03:54:32.000Z</time>
      </trkpt>
      <trkpt lat="45.1999" lon="5.73436">
        <ele>191</ele>
        <time>2022-06-02T03:54:33.000Z</time>
      </trkpt>
      <trkpt lat="45.19993" lon="5.73437">
        <ele>190</ele>
        <time>2022-06-02T03:54:34.000Z</time>
      </trkpt>
      <trkpt lat="45.19996" lon="5.73439">
        <ele>190.39999389648</ele>
        <time>2022-06-02T03:54:35.000Z</time>
      </trkpt>
      <trkpt lat="45.19999" lon="5.73441">
        <ele>190.39999389648</ele>
        <time>2022-06-02T03:54:36.000Z</time>
      </trkpt>
      <trkpt lat="45.20001" lon="5.73442">
        <ele>190.60000610352</ele>
        <time>2022-06-02T03:54:37.000Z</time>
      </trkpt>
      <trkpt lat="45.20004" lon="5.73444">
        <ele>189.80000305176</ele>
        <time>2022-06-02T03:54:38.000Z</time>
      </trkpt>
      <trkpt lat="45.20006" lon="5.73445">
        <ele>189.80000305176</ele>
        <time>2022-06-02T03:54:39.000Z</time>
      </trkpt>
      <trkpt lat="45.20008" lon="5.73446">
        <ele>190.19999694824</ele>
        <time>2022-06-02T03:54:40.000Z</time>
      </trkpt>
      <trkpt lat="45.2001" lon="5.73448">
        <ele>189.19999694824</ele>
        <time>2022-06-02T03:54:41.000Z</time>
      </trkpt>
      <trkpt lat="45.20013" lon="5.73449">
        <ele>190</ele>
        <time>2022-06-02T03:54:42.000Z</time>
      </trkpt>
      <trkpt lat="45.20015" lon="5.7345">
        <ele>190</ele>
        <time>2022-06-02T03:54:43.000Z</time>
      </trkpt>
      <trkpt lat="45.20018" lon="5.73452">
        <ele>190</ele>
        <time>2022-06-02T03:54:44.000Z</time>
      </trkpt>
      <trkpt lat="45.2002" lon="5.73452">
        <ele>189.39999389648</ele>
        <time>2022-06-02T03:54:45.000Z</time>
      </trkpt>
      <trkpt lat="45.20023" lon="5.73453">
        <ele>190</ele>
        <time>2022-06-02T03:54:46.000Z</time>
      </trkpt>
      <trkpt lat="45.20025" lon="5.73455">
        <ele>189.39999389648</ele>
        <time>2022-06-02T03:54:47.000Z</time>
      </trkpt>
      <trkpt lat="45.20027" lon="5.73456">
        <ele>190</ele>
        <time>2022-06-02T03:54:48.000Z</time>
      </trkpt>
      <trkpt lat="45.20029" lon="5.73457">
        <ele>190</ele>
        <time>2022-06-02T03:54:49.000Z</time>
      </trkpt>
      <trkpt lat="45.20032" lon="5.73458">
        <ele>190.19999694824</ele>
        <time>2022-06-02T03:54:50.000Z</time>
      </trkpt>
      <trkpt lat="45.20034" lon="5.7346">
        <ele>190.60000610352</ele>
        <time>2022-06-02T03:54:51.000Z</time>
      </trkpt>
      <trkpt lat="45.20037" lon="5.73462">
        <ele>190.39999389648</ele>
        <time>2022-06-02T03:54:52.000Z</time>
      </trkpt>
      <trkpt lat="45.20039" lon="5.73464">
        <ele>190.39999389648</ele>
        <time>2022-06-02T03:54:53.000Z</time>
      </trkpt>
      <trkpt lat="45.20041" lon="5.73466">
        <ele>190.39999389648</ele>
        <time>2022-06-02T03:54:54.000Z</time>
      </trkpt>
      <trkpt lat="45.20044" lon="5.73468">
        <ele>190.60000610352</ele>
        <time>2022-06-02T03:54:55.000Z</time>
      </trkpt>
      <trkpt lat="45.20046" lon="5.7347">
        <ele>190.19999694824</ele>
        <time>2022-06-02T03:54:56.000Z</time>
      </trkpt>
      <trkpt lat="45.20049" lon="5.73472">
        <ele>190</ele>
        <time>2022-06-02T03:54:57.000Z</time>
      </trkpt>
      <trkpt lat="45.20052" lon="5.73475">
        <ele>191.19999694824</ele>
        <time>2022-06-02T03:54:58.000Z</time>
      </trkpt>
      <trkpt lat="45.20054" lon="5.73477">
        <ele>191</ele>
        <time>2022-06-02T03:54:59.000Z</time>
      </trkpt>
      <trkpt lat="45.20057" lon="5.7348">
        <ele>191</ele>
        <time>2022-06-02T03:55:00.000Z</time>
      </trkpt>
      <trkpt lat="45.2006" lon="5.73483">
        <ele>190.60000610352</ele>
        <time>2022-06-02T03:55:01.000Z</time>
      </trkpt>
      <trkpt lat="45.20063" lon="5.73486">
        <ele>190.80000305176</ele>
        <time>2022-06-02T03:55:02.000Z</time>
      </trkpt>
      <trkpt lat="45.20065" lon="5.73488">
        <ele>190.60000610352</ele>
        <time>2022-06-02T03:55:03.000Z</time>
      </trkpt>
      <trkpt lat="45.20068" lon="5.73492">
        <ele>190.80000305176</ele>
        <time>2022-06-02T03:55:04.000Z</time>
      </trkpt>
      <trkpt lat="45.20071" lon="5.73494">
        <ele>190.80000305176</ele>
        <time>2022-06-02T03:55:05.000Z</time>
      </trkpt>
      <trkpt lat="45.20074" lon="5.73497">
        <ele>190.60000610352</ele>
        <time>2022-06-02T03:55:06.000Z</time>
      </trkpt>
      <trkpt lat="45.20076" lon="5.735">
        <ele>191</ele>
        <time>2022-06-02T03:55:07.000Z</time>
      </trkpt>
      <trkpt lat="45.20078" lon="5.73503">
        <ele>190.60000610352</ele>
        <time>2022-06-02T03:55:08.000Z</time>
      </trkpt>
      <trkpt lat="45.2008" lon="5.73505">
        <ele>190.60000610352</ele>
        <time>2022-06-02T03:55:09.000Z</time>
      </trkpt>
      <trkpt lat="45.20082" lon="5.73508">
        <ele>190.60000610352</ele>
        <time>2022-06-02T03:55:10.000Z</time>
      </trkpt>
      <trkpt lat="45.20085" lon="5.7351">
        <ele>190.80000305176</ele>
        <time>2022-06-02T03:55:11.000Z</time>
      </trkpt>
      <trkpt lat="45.20087" lon="5.73513">
        <ele>190.39999389648</ele>
        <time>2022-06-02T03:55:12.000Z</time>
      </trkpt>
      <trkpt lat="45.20089" lon="5.73516">
        <ele>190.39999389648</ele>
        <time>2022-06-02T03:55:13.000Z</time>
      </trkpt>
      <trkpt lat="45.20091" lon="5.73519">
        <ele>190.60000610352</ele>
        <time>2022-06-02T03:55:14.000Z</time>
      </trkpt>
      <trkpt lat="45.20092" lon="5.73521">
        <ele>190.60000610352</ele>
        <time>2022-06-02T03:55:15.000Z</time>
      </trkpt>
      <trkpt lat="45.20095" lon="5.73524">
        <ele>190.80000305176</ele>
        <time>2022-06-02T03:55:16.000Z</time>
      </trkpt>
      <trkpt lat="45.20097" lon="5.73527">
        <ele>190.60000610352</ele>
        <time>2022-06-02T03:55:17.000Z</time>
      </trkpt>
      <trkpt lat="45.20098" lon="5.7353">
        <ele>190.60000610352</ele>
        <time>2022-06-02T03:55:18.000Z</time>
      </trkpt>
      <trkpt lat="45.201" lon="5.73532">
        <ele>190.39999389648</ele>
        <time>2022-06-02T03:55:19.000Z</time>
      </trkpt>
      <trkpt lat="45.20102" lon="5.73535">
        <ele>191</ele>
        <time>2022-06-02T03:55:20.000Z</time>
      </trkpt>
      <trkpt lat="45.20104" lon="5.73538">
        <ele>190.60000610352</ele>
        <time>2022-06-02T03:55:21.000Z</time>
      </trkpt>
      <trkpt lat="45.20105" lon="5.7354">
        <ele>190.60000610352</ele>
        <time>2022-06-02T03:55:22.000Z</time>
      </trkpt>
      <trkpt lat="45.20107" lon="5.73543">
        <ele>190.60000610352</ele>
        <time>2022-06-02T03:55:23.000Z</time>
      </trkpt>
      <trkpt lat="45.20109" lon="5.73545">
        <ele>190.60000610352</ele>
        <time>2022-06-02T03:55:24.000Z</time>
      </trkpt>
      <trkpt lat="45.20111" lon="5.73548">
        <ele>191</ele>
        <time>2022-06-02T03:55:25.000Z</time>
      </trkpt>
      <trkpt lat="45.20112" lon="5.73551">
        <ele>190.80000305176</ele>
        <time>2022-06-02T03:55:26.000Z</time>
      </trkpt>
      <trkpt lat="45.20114" lon="5.73553">
        <ele>190.80000305176</ele>
        <time>2022-06-02T03:55:27.000Z</time>
      </trkpt>
      <trkpt lat="45.20116" lon="5.73556">
        <ele>190.60000610352</ele>
        <time>2022-06-02T03:55:28.000Z</time>
      </trkpt>
      <trkpt lat="45.20118" lon="5.73558">
        <ele>190.80000305176</ele>
        <time>2022-06-02T03:55:29.000Z</time>
      </trkpt>
      <trkpt lat="45.2012" lon="5.73561">
        <ele>190.39999389648</ele>
        <time>2022-06-02T03:55:30.000Z</time>
      </trkpt>
      <trkpt lat="45.20122" lon="5.73564">
        <ele>191</ele>
        <time>2022-06-02T03:55:31.000Z</time>
      </trkpt>
      <trkpt lat="45.20124" lon="5.73567">
        <ele>190.60000610352</ele>
        <time>2022-06-02T03:55:32.000Z</time>
      </trkpt>
      <trkpt lat="45.20126" lon="5.73569">
        <ele>190.80000305176</ele>
        <time>2022-06-02T03:55:33.000Z</time>
      </trkpt>
      <trkpt lat="45.20128" lon="5.73572">
        <ele>190.80000305176</ele>
        <time>2022-06-02T03:55:34.000Z</time>
      </trkpt>
      <trkpt lat="45.2013" lon="5.73575">
        <ele>190.19999694824</ele>
        <time>2022-06-02T03:55:35.000Z</time>
      </trkpt>
      <trkpt lat="45.20132" lon="5.73578">
        <ele>190.39999389648</ele>
        <time>2022-06-02T03:55:36.000Z</time>
      </trkpt>
      <trkpt lat="45.20134" lon="5.73581">
        <ele>189.80000305176</ele>
        <time>2022-06-02T03:55:37.000Z</time>
      </trkpt>
      <trkpt lat="45.20135" lon="5.73584">
        <ele>190.60000610352</ele>
        <time>2022-06-02T03:55:38.000Z</time>
      </trkpt>
      <trkpt lat="45.20137" lon="5.73587">
        <ele>190.39999389648</ele>
        <time>2022-06-02T03:55:39.000Z</time>
      </trkpt>
      <trkpt lat="45.20138" lon="5.7359">
        <ele>190.39999389648</ele>
        <time>2022-06-02T03:55:40.000Z</time>
      </trkpt>
      <trkpt lat="45.20139" lon="5.73593">
        <ele>190.19999694824</ele>
        <time>2022-06-02T03:55:41.000Z</time>
      </trkpt>
      <trkpt lat="45.2014" lon="5.73596">
        <ele>190.39999389648</ele>
        <time>2022-06-02T03:55:42.000Z</time>
      </trkpt>
      <trkpt lat="45.20141" lon="5.736">
        <ele>190.39999389648</ele>
        <time>2022-06-02T03:55:43.000Z</time>
      </trkpt>
      <trkpt lat="45.20142" lon="5.73603">
        <ele>190.80000305176</ele>
        <time>2022-06-02T03:55:44.000Z</time>
      </trkpt>
      <trkpt lat="45.20143" lon="5.73606">
        <ele>190.60000610352</ele>
        <time>2022-06-02T03:55:45.000Z</time>
      </trkpt>
      <trkpt lat="45.20145" lon="5.7361">
        <ele>189.80000305176</ele>
        <time>2022-06-02T03:55:46.000Z</time>
      </trkpt>
      <trkpt lat="45.20146" lon="5.73613">
        <ele>190.60000610352</ele>
        <time>2022-06-02T03:55:47.000Z</time>
      </trkpt>
      <trkpt lat="45.20147" lon="5.73617">
        <ele>190.39999389648</ele>
        <time>2022-06-02T03:55:48.000Z</time>
      </trkpt>
      <trkpt lat="45.20148" lon="5.73621">
        <ele>190.39999389648</ele>
        <time>2022-06-02T03:55:49.000Z</time>
      </trkpt>
      <trkpt lat="45.2015" lon="5.73624">
        <ele>190.39999389648</ele>
        <time>2022-06-02T03:55:50.000Z</time>
      </trkpt>
      <trkpt lat="45.2015" lon="5.73628">
        <ele>190.39999389648</ele>
        <time>2022-06-02T03:55:51.000Z</time>
      </trkpt>
      <trkpt lat="45.20152" lon="5.73632">
        <ele>190</ele>
        <time>2022-06-02T03:55:52.000Z</time>
      </trkpt>
      <trkpt lat="45.20153" lon="5.73636">
        <ele>190.39999389648</ele>
        <time>2022-06-02T03:55:53.000Z</time>
      </trkpt>
      <trkpt lat="45.20154" lon="5.7364">
        <ele>189.80000305176</ele>
        <time>2022-06-02T03:55:54.000Z</time>
      </trkpt>
      <trkpt lat="45.20155" lon="5.73644">
        <ele>190.19999694824</ele>
        <time>2022-06-02T03:55:55.000Z</time>
      </trkpt>
      <trkpt lat="45.20156" lon="5.73648">
        <ele>190.39999389648</ele>
        <time>2022-06-02T03:55:56.000Z</time>
      </trkpt>
      <trkpt lat="45.20157" lon="5.73653">
        <ele>190.19999694824</ele>
        <time>2022-06-02T03:55:57.000Z</time>
      </trkpt>
      <trkpt lat="45.20159" lon="5.73657">
        <ele>190.39999389648</ele>
        <time>2022-06-02T03:55:58.000Z</time>
      </trkpt>
      <trkpt lat="45.20159" lon="5.73661">
        <ele>190.39999389648</ele>
        <time>2022-06-02T03:55:59.000Z</time>
      </trkpt>
      <trkpt lat="45.2016" lon="5.73664">
        <ele>190.19999694824</ele>
        <time>2022-06-02T03:56:00.000Z</time>
      </trkpt>
      <trkpt lat="45.20161" lon="5.73668">
        <ele>190.19999694824</ele>
        <time>2022-06-02T03:56:01.000Z</time>
      </trkpt>
      <trkpt lat="45.20162" lon="5.73671">
        <ele>190.60000610352</ele>
        <time>2022-06-02T03:56:02.000Z</time>
      </trkpt>
      <trkpt lat="45.20163" lon="5.73674">
        <ele>190.39999389648</ele>
        <time>2022-06-02T03:56:03.000Z</time>
      </trkpt>
      <trkpt lat="45.20164" lon="5.73677">
        <ele>189.80000305176</ele>
        <time>2022-06-02T03:56:04.000Z</time>
      </trkpt>
      <trkpt lat="45.20164" lon="5.7368">
        <ele>190.60000610352</ele>
        <time>2022-06-02T03:56:05.000Z</time>
      </trkpt>
      <trkpt lat="45.20165" lon="5.73684">
        <ele>190.19999694824</ele>
        <time>2022-06-02T03:56:06.000Z</time>
      </trkpt>
      <trkpt lat="45.20166" lon="5.73687">
        <ele>190.39999389648</ele>
        <time>2022-06-02T03:56:07.000Z</time>
      </trkpt>
      <trkpt lat="45.20167" lon="5.73691">
        <ele>190.39999389648</ele>
        <time>2022-06-02T03:56:08.000Z</time>
      </trkpt>
      <trkpt lat="45.20168" lon="5.73695">
        <ele>190.39999389648</ele>
        <time>2022-06-02T03:56:09.000Z</time>
      </trkpt>
      <trkpt lat="45.20169" lon="5.73699">
        <ele>190.39999389648</ele>
        <time>2022-06-02T03:56:10.000Z</time>
      </trkpt>
      <trkpt lat="45.2017" lon="5.73703">
        <ele>190.39999389648</ele>
        <time>2022-06-02T03:56:11.000Z</time>
      </trkpt>
      <trkpt lat="45.20171" lon="5.73707">
        <ele>190.39999389648</ele>
        <time>2022-06-02T03:56:12.000Z</time>
      </trkpt>
      <trkpt lat="45.20172" lon="5.7371">
        <ele>190.60000610352</ele>
        <time>2022-06-02T03:56:13.000Z</time>
      </trkpt>
      <trkpt lat="45.20172" lon="5.73713">
        <ele>190.60000610352</ele>
        <time>2022-06-02T03:56:14.000Z</time>
      </trkpt>
      <trkpt lat="45.20173" lon="5.73716">
        <ele>190</ele>
        <time>2022-06-02T03:56:15.000Z</time>
      </trkpt>
      <trkpt lat="45.20173" lon="5.73719">
        <ele>190.80000305176</ele>
        <time>2022-06-02T03:56:16.000Z</time>
      </trkpt>
      <trkpt lat="45.20174" lon="5.73723">
        <ele>190</ele>
        <time>2022-06-02T03:56:17.000Z</time>
      </trkpt>
      <trkpt lat="45.20175" lon="5.73726">
        <ele>190.19999694824</ele>
        <time>2022-06-02T03:56:18.000Z</time>
      </trkpt>
      <trkpt lat="45.20175" lon="5.7373">
        <ele>190.39999389648</ele>
        <time>2022-06-02T03:56:19.000Z</time>
      </trkpt>
      <trkpt lat="45.20176" lon="5.73734">
        <ele>190.39999389648</ele>
        <time>2022-06-02T03:56:20.000Z</time>
      </trkpt>
      <trkpt lat="45.20176" lon="5.73738">
        <ele>190</ele>
        <time>2022-06-02T03:56:21.000Z</time>
      </trkpt>
      <trkpt lat="45.20177" lon="5.73742">
        <ele>190.60000610352</ele>
        <time>2022-06-02T03:56:22.000Z</time>
      </trkpt>
      <trkpt lat="45.20178" lon="5.73745">
        <ele>190</ele>
        <time>2022-06-02T03:56:23.000Z</time>
      </trkpt>
      <trkpt lat="45.20178" lon="5.73749">
        <ele>190.39999389648</ele>
        <time>2022-06-02T03:56:24.000Z</time>
      </trkpt>
      <trkpt lat="45.20178" lon="5.73753">
        <ele>190.39999389648</ele>
        <time>2022-06-02T03:56:25.000Z</time>
      </trkpt>
      <trkpt lat="45.20178" lon="5.73757">
        <ele>190.39999389648</ele>
        <time>2022-06-02T03:56:26.000Z</time>
      </trkpt>
      <trkpt lat="45.20178" lon="5.73761">
        <ele>190.60000610352</ele>
        <time>2022-06-02T03:56:27.000Z</time>
      </trkpt>
      <trkpt lat="45.20178" lon="5.73764">
        <ele>190.19999694824</ele>
        <time>2022-06-02T03:56:28.000Z</time>
      </trkpt>
      <trkpt lat="45.20178" lon="5.73769">
        <ele>190.60000610352</ele>
        <time>2022-06-02T03:56:29.000Z</time>
      </trkpt>
      <trkpt lat="45.20178" lon="5.73773">
        <ele>190</ele>
        <time>2022-06-02T03:56:30.000Z</time>
      </trkpt>
      <trkpt lat="45.20178" lon="5.73777">
        <ele>190</ele>
        <time>2022-06-02T03:56:31.000Z</time>
      </trkpt>
      <trkpt lat="45.20177" lon="5.7378">
        <ele>189.60000610352</ele>
        <time>2022-06-02T03:56:32.000Z</time>
      </trkpt>
      <trkpt lat="45.20177" lon="5.73784">
        <ele>190</ele>
        <time>2022-06-02T03:56:33.000Z</time>
      </trkpt>
      <trkpt lat="45.20177" lon="5.73788">
        <ele>190</ele>
        <time>2022-06-02T03:56:34.000Z</time>
      </trkpt>
      <trkpt lat="45.20177" lon="5.73791">
        <ele>190.80000305176</ele>
        <time>2022-06-02T03:56:35.000Z</time>
      </trkpt>
      <trkpt lat="45.20177" lon="5.73795">
        <ele>190.19999694824</ele>
        <time>2022-06-02T03:56:36.000Z</time>
      </trkpt>
      <trkpt lat="45.20177" lon="5.73799">
        <ele>190.60000610352</ele>
        <time>2022-06-02T03:56:37.000Z</time>
      </trkpt>
      <trkpt lat="45.20177" lon="5.73804">
        <ele>190.60000610352</ele>
        <time>2022-06-02T03:56:38.000Z</time>
      </trkpt>
      <trkpt lat="45.20176" lon="5.73808">
        <ele>190.39999389648</ele>
        <time>2022-06-02T03:56:39.000Z</time>
      </trkpt>
      <trkpt lat="45.20176" lon="5.73812">
        <ele>190.80000305176</ele>
        <time>2022-06-02T03:56:40.000Z</time>
      </trkpt>
      <trkpt lat="45.20176" lon="5.73816">
        <ele>189.80000305176</ele>
        <time>2022-06-02T03:56:41.000Z</time>
      </trkpt>
      <trkpt lat="45.20176" lon="5.7382">
        <ele>189.80000305176</ele>
        <time>2022-06-02T03:56:42.000Z</time>
      </trkpt>
      <trkpt lat="45.20175" lon="5.73824">
        <ele>189.80000305176</ele>
        <time>2022-06-02T03:56:43.000Z</time>
      </trkpt>
      <trkpt lat="45.20174" lon="5.73828">
        <ele>190.19999694824</ele>
        <time>2022-06-02T03:56:44.000Z</time>
      </trkpt>
      <trkpt lat="45.20173" lon="5.73831">
        <ele>190</ele>
        <time>2022-06-02T03:56:45.000Z</time>
      </trkpt>
      <trkpt lat="45.20172" lon="5.73835">
        <ele>190.39999389648</ele>
        <time>2022-06-02T03:56:46.000Z</time>
      </trkpt>
      <trkpt lat="45.20171" lon="5.73838">
        <ele>190.60000610352</ele>
        <time>2022-06-02T03:56:47.000Z</time>
      </trkpt>
      <trkpt lat="45.2017" lon="5.73841">
        <ele>190</ele>
        <time>2022-06-02T03:56:48.000Z</time>
      </trkpt>
      <trkpt lat="45.20169" lon="5.73844">
        <ele>190.39999389648</ele>
        <time>2022-06-02T03:56:49.000Z</time>
      </trkpt>
      <trkpt lat="45.20167" lon="5.73847">
        <ele>190.19999694824</ele>
        <time>2022-06-02T03:56:50.000Z</time>
      </trkpt>
      <trkpt lat="45.20166" lon="5.73851">
        <ele>190.19999694824</ele>
        <time>2022-06-02T03:56:51.000Z</time>
      </trkpt>
      <trkpt lat="45.20165" lon="5.73854">
        <ele>189.80000305176</ele>
        <time>2022-06-02T03:56:52.000Z</time>
      </trkpt>
      <trkpt lat="45.20163" lon="5.73858">
        <ele>190.39999389648</ele>
        <time>2022-06-02T03:56:53.000Z</time>
      </trkpt>
      <trkpt lat="45.20162" lon="5.73861">
        <ele>190.60000610352</ele>
        <time>2022-06-02T03:56:54.000Z</time>
      </trkpt>
      <trkpt lat="45.20161" lon="5.73864">
        <ele>190.39999389648</ele>
        <time>2022-06-02T03:56:55.000Z</time>
      </trkpt>
      <trkpt lat="45.20159" lon="5.73866">
        <ele>190.39999389648</ele>
        <time>2022-06-02T03:56:56.000Z</time>
      </trkpt>
      <trkpt lat="45.20158" lon="5.73869">
        <ele>190.39999389648</ele>
        <time>2022-06-02T03:56:57.000Z</time>
      </trkpt>
      <trkpt lat="45.20157" lon="5.73872">
        <ele>190.19999694824</ele>
        <time>2022-06-02T03:56:58.000Z</time>
      </trkpt>
      <trkpt lat="45.20156" lon="5.73874">
        <ele>190</ele>
        <time>2022-06-02T03:56:59.000Z</time>
      </trkpt>
      <trkpt lat="45.20155" lon="5.73876">
        <ele>190.39999389648</ele>
        <time>2022-06-02T03:57:00.000Z</time>
      </trkpt>
      <trkpt lat="45.20153" lon="5.73879">
        <ele>190.19999694824</ele>
        <time>2022-06-02T03:57:01.000Z</time>
      </trkpt>
      <trkpt lat="45.20152" lon="5.73881">
        <ele>190.60000610352</ele>
        <time>2022-06-02T03:57:02.000Z</time>
      </trkpt>
      <trkpt lat="45.2015" lon="5.73884">
        <ele>190.19999694824</ele>
        <time>2022-06-02T03:57:03.000Z</time>
      </trkpt>
      <trkpt lat="45.20148" lon="5.73887">
        <ele>190.19999694824</ele>
        <time>2022-06-02T03:57:04.000Z</time>
      </trkpt>
      <trkpt lat="45.20146" lon="5.7389">
        <ele>190.60000610352</ele>
        <time>2022-06-02T03:57:05.000Z</time>
      </trkpt>
      <trkpt lat="45.20144" lon="5.73893">
        <ele>190.60000610352</ele>
        <time>2022-06-02T03:57:06.000Z</time>
      </trkpt>
      <trkpt lat="45.20142" lon="5.73897">
        <ele>190.19999694824</ele>
        <time>2022-06-02T03:57:07.000Z</time>
      </trkpt>
      <trkpt lat="45.2014" lon="5.739">
        <ele>190.60000610352</ele>
        <time>2022-06-02T03:57:08.000Z</time>
      </trkpt>
      <trkpt lat="45.20138" lon="5.73904">
        <ele>190.19999694824</ele>
        <time>2022-06-02T03:57:09.000Z</time>
      </trkpt>
      <trkpt lat="45.20136" lon="5.73906">
        <ele>190.19999694824</ele>
        <time>2022-06-02T03:57:10.000Z</time>
      </trkpt>
      <trkpt lat="45.20135" lon="5.73909">
        <ele>190.39999389648</ele>
        <time>2022-06-02T03:57:11.000Z</time>
      </trkpt>
      <trkpt lat="45.20133" lon="5.73913">
        <ele>190.19999694824</ele>
        <time>2022-06-02T03:57:12.000Z</time>
      </trkpt>
      <trkpt lat="45.2013" lon="5.73916">
        <ele>190.39999389648</ele>
        <time>2022-06-02T03:57:13.000Z</time>
      </trkpt>
      <trkpt lat="45.20129" lon="5.7392">
        <ele>190.39999389648</ele>
        <time>2022-06-02T03:57:14.000Z</time>
      </trkpt>
      <trkpt lat="45.20127" lon="5.73923">
        <ele>190.39999389648</ele>
        <time>2022-06-02T03:57:15.000Z</time>
      </trkpt>
      <trkpt lat="45.20125" lon="5.73926">
        <ele>189.80000305176</ele>
        <time>2022-06-02T03:57:16.000Z</time>
      </trkpt>
      <trkpt lat="45.20123" lon="5.73928">
        <ele>190.60000610352</ele>
        <time>2022-06-02T03:57:17.000Z</time>
      </trkpt>
      <trkpt lat="45.20121" lon="5.73931">
        <ele>189.80000305176</ele>
        <time>2022-06-02T03:57:18.000Z</time>
      </trkpt>
      <trkpt lat="45.20119" lon="5.73934">
        <ele>190.19999694824</ele>
        <time>2022-06-02T03:57:19.000Z</time>
      </trkpt>
      <trkpt lat="45.20118" lon="5.73936">
        <ele>190</ele>
        <time>2022-06-02T03:57:20.000Z</time>
      </trkpt>
      <trkpt lat="45.20116" lon="5.73939">
        <ele>189.80000305176</ele>
        <time>2022-06-02T03:57:21.000Z</time>
      </trkpt>
      <trkpt lat="45.20114" lon="5.73941">
        <ele>190.19999694824</ele>
        <time>2022-06-02T03:57:22.000Z</time>
      </trkpt>
      <trkpt lat="45.20112" lon="5.73944">
        <ele>189.80000305176</ele>
        <time>2022-06-02T03:57:23.000Z</time>
      </trkpt>
      <trkpt lat="45.2011" lon="5.73947">
        <ele>190.19999694824</ele>
        <time>2022-06-02T03:57:24.000Z</time>
      </trkpt>
      <trkpt lat="45.20109" lon="5.73949">
        <ele>190.19999694824</ele>
        <time>2022-06-02T03:57:25.000Z</time>
      </trkpt>
      <trkpt lat="45.20107" lon="5.73951">
        <ele>190.19999694824</ele>
        <time>2022-06-02T03:57:26.000Z</time>
      </trkpt>
      <trkpt lat="45.20105" lon="5.73954">
        <ele>190</ele>
        <time>2022-06-02T03:57:27.000Z</time>
      </trkpt>
      <trkpt lat="45.20103" lon="5.73957">
        <ele>189.39999389648</ele>
        <time>2022-06-02T03:57:28.000Z</time>
      </trkpt>
      <trkpt lat="45.20101" lon="5.73959">
        <ele>189.19999694824</ele>
        <time>2022-06-02T03:57:29.000Z</time>
      </trkpt>
      <trkpt lat="45.201" lon="5.73961">
        <ele>190</ele>
        <time>2022-06-02T03:57:30.000Z</time>
      </trkpt>
      <trkpt lat="45.20099" lon="5.73963">
        <ele>190.39999389648</ele>
        <time>2022-06-02T03:57:31.000Z</time>
      </trkpt>
      <trkpt lat="45.20097" lon="5.73966">
        <ele>190.19999694824</ele>
        <time>2022-06-02T03:57:32.000Z</time>
      </trkpt>
      <trkpt lat="45.20095" lon="5.73968">
        <ele>190.60000610352</ele>
        <time>2022-06-02T03:57:33.000Z</time>
      </trkpt>
      <trkpt lat="45.20093" lon="5.73971">
        <ele>190.19999694824</ele>
        <time>2022-06-02T03:57:34.000Z</time>
      </trkpt>
      <trkpt lat="45.20091" lon="5.73973">
        <ele>190.39999389648</ele>
        <time>2022-06-02T03:57:35.000Z</time>
      </trkpt>
      <trkpt lat="45.20089" lon="5.73975">
        <ele>190.39999389648</ele>
        <time>2022-06-02T03:57:36.000Z</time>
      </trkpt>
      <trkpt lat="45.20087" lon="5.73978">
        <ele>190.60000610352</ele>
        <time>2022-06-02T03:57:37.000Z</time>
      </trkpt>
      <trkpt lat="45.20085" lon="5.7398">
        <ele>190.19999694824</ele>
        <time>2022-06-02T03:57:38.000Z</time>
      </trkpt>
      <trkpt lat="45.20084" lon="5.73982">
        <ele>190.80000305176</ele>
        <time>2022-06-02T03:57:39.000Z</time>
      </trkpt>
      <trkpt lat="45.20082" lon="5.73984">
        <ele>190.60000610352</ele>
        <time>2022-06-02T03:57:40.000Z</time>
      </trkpt>
      <trkpt lat="45.20081" lon="5.73986">
        <ele>190.39999389648</ele>
        <time>2022-06-02T03:57:41.000Z</time>
      </trkpt>
      <trkpt lat="45.20079" lon="5.73988">
        <ele>191</ele>
        <time>2022-06-02T03:57:42.000Z</time>
      </trkpt>
      <trkpt lat="45.20078" lon="5.7399">
        <ele>190.60000610352</ele>
        <time>2022-06-02T03:57:43.000Z</time>
      </trkpt>
      <trkpt lat="45.20076" lon="5.73992">
        <ele>190.60000610352</ele>
        <time>2022-06-02T03:57:44.000Z</time>
      </trkpt>
      <trkpt lat="45.20074" lon="5.73994">
        <ele>190.80000305176</ele>
        <time>2022-06-02T03:57:45.000Z</time>
      </trkpt>
      <trkpt lat="45.20072" lon="5.73995">
        <ele>191</ele>
        <time>2022-06-02T03:57:46.000Z</time>
      </trkpt>
      <trkpt lat="45.2007" lon="5.73996">
        <ele>190.60000610352</ele>
        <time>2022-06-02T03:57:47.000Z</time>
      </trkpt>
      <trkpt lat="45.20068" lon="5.73998">
        <ele>190.60000610352</ele>
        <time>2022-06-02T03:57:48.000Z</time>
      </trkpt>
      <trkpt lat="45.20067" lon="5.73999">
        <ele>190.60000610352</ele>
        <time>2022-06-02T03:57:49.000Z</time>
      </trkpt>
      <trkpt lat="45.20066" lon="5.74">
        <ele>190.60000610352</ele>
        <time>2022-06-02T03:57:50.000Z</time>
      </trkpt>
      <trkpt lat="45.20065" lon="5.74001">
        <ele>190.80000305176</ele>
        <time>2022-06-02T03:57:51.000Z</time>
      </trkpt>
      <trkpt lat="45.20064" lon="5.74003">
        <ele>190.60000610352</ele>
        <time>2022-06-02T03:57:52.000Z</time>
      </trkpt>
      <trkpt lat="45.20063" lon="5.74004">
        <ele>191</ele>
        <time>2022-06-02T03:57:53.000Z</time>
      </trkpt>
      <trkpt lat="45.20062" lon="5.74005">
        <ele>191</ele>
        <time>2022-06-02T03:57:54.000Z</time>
      </trkpt>
      <trkpt lat="45.20061" lon="5.74007">
        <ele>191</ele>
        <time>2022-06-02T03:57:55.000Z</time>
      </trkpt>
      <trkpt lat="45.2006" lon="5.74008">
        <ele>190.80000305176</ele>
        <time>2022-06-02T03:57:56.000Z</time>
      </trkpt>
      <trkpt lat="45.20059" lon="5.74009">
        <ele>190.80000305176</ele>
        <time>2022-06-02T03:57:57.000Z</time>
      </trkpt>
      <trkpt lat="45.20058" lon="5.74011">
        <ele>190.80000305176</ele>
        <time>2022-06-02T03:57:58.000Z</time>
      </trkpt>
      <trkpt lat="45.20057" lon="5.74013">
        <ele>190.80000305176</ele>
        <time>2022-06-02T03:57:59.000Z</time>
      </trkpt>
      <trkpt lat="45.20056" lon="5.74014">
        <ele>190.80000305176</ele>
        <time>2022-06-02T03:58:00.000Z</time>
      </trkpt>
      <trkpt lat="45.20055" lon="5.74016">
        <ele>190.60000610352</ele>
        <time>2022-06-02T03:58:01.000Z</time>
      </trkpt>
      <trkpt lat="45.20054" lon="5.74018">
        <ele>190.39999389648</ele>
        <time>2022-06-02T03:58:02.000Z</time>
      </trkpt>
      <trkpt lat="45.20053" lon="5.74021">
        <ele>190.60000610352</ele>
        <time>2022-06-02T03:58:03.000Z</time>
      </trkpt>
      <trkpt lat="45.20052" lon="5.74023">
        <ele>190.60000610352</ele>
        <time>2022-06-02T03:58:04.000Z</time>
      </trkpt>
      <trkpt lat="45.20051" lon="5.74025">
        <ele>190.60000610352</ele>
        <time>2022-06-02T03:58:05.000Z</time>
      </trkpt>
      <trkpt lat="45.2005" lon="5.74027">
        <ele>189.80000305176</ele>
        <time>2022-06-02T03:58:06.000Z</time>
      </trkpt>
      <trkpt lat="45.20049" lon="5.7403">
        <ele>189.80000305176</ele>
        <time>2022-06-02T03:58:07.000Z</time>
      </trkpt>
      <trkpt lat="45.20048" lon="5.74031">
        <ele>189.80000305176</ele>
        <time>2022-06-02T03:58:08.000Z</time>
      </trkpt>
      <trkpt lat="45.20047" lon="5.74033">
        <ele>189.60000610352</ele>
        <time>2022-06-02T03:58:09.000Z</time>
      </trkpt>
      <trkpt lat="45.20046" lon="5.74034">
        <ele>189.19999694824</ele>
        <time>2022-06-02T03:58:10.000Z</time>
      </trkpt>
      <trkpt lat="45.20045" lon="5.74036">
        <ele>189.19999694824</ele>
        <time>2022-06-02T03:58:11.000Z</time>
      </trkpt>
      <trkpt lat="45.20045" lon="5.74037">
        <ele>189.19999694824</ele>
        <time>2022-06-02T03:58:12.000Z</time>
      </trkpt>
      <trkpt lat="45.20044" lon="5.74038">
        <ele>189.19999694824</ele>
        <time>2022-06-02T03:58:13.000Z</time>
      </trkpt>
      <trkpt lat="45.20043" lon="5.7404">
        <ele>189.19999694824</ele>
        <time>2022-06-02T03:58:14.000Z</time>
      </trkpt>
      <trkpt lat="45.20042" lon="5.74042">
        <ele>189.19999694824</ele>
        <time>2022-06-02T03:58:15.000Z</time>
      </trkpt>
      <trkpt lat="45.20041" lon="5.74045">
        <ele>188.39999389648</ele>
        <time>2022-06-02T03:58:16.000Z</time>
      </trkpt>
      <trkpt lat="45.2004" lon="5.74046">
        <ele>188.39999389648</ele>
        <time>2022-06-02T03:58:17.000Z</time>
      </trkpt>
      <trkpt lat="45.20038" lon="5.74048">
        <ele>188.19999694824</ele>
        <time>2022-06-02T03:58:18.000Z</time>
      </trkpt>
      <trkpt lat="45.20038" lon="5.7405">
        <ele>188.19999694824</ele>
        <time>2022-06-02T03:58:19.000Z</time>
      </trkpt>
      <trkpt lat="45.20037" lon="5.74052">
        <ele>188</ele>
        <time>2022-06-02T03:58:20.000Z</time>
      </trkpt>
      <trkpt lat="45.20036" lon="5.74053">
        <ele>187.60000610352</ele>
        <time>2022-06-02T03:58:21.000Z</time>
      </trkpt>
      <trkpt lat="45.20035" lon="5.74055">
        <ele>188</ele>
        <time>2022-06-02T03:58:22.000Z</time>
      </trkpt>
      <trkpt lat="45.20035" lon="5.74056">
        <ele>188</ele>
        <time>2022-06-02T03:58:23.000Z</time>
      </trkpt>
      <trkpt lat="45.20034" lon="5.74057">
        <ele>187.80000305176</ele>
        <time>2022-06-02T03:58:24.000Z</time>
      </trkpt>
      <trkpt lat="45.20033" lon="5.7406">
        <ele>188</ele>
        <time>2022-06-02T03:58:25.000Z</time>
      </trkpt>
      <trkpt lat="45.20033" lon="5.7406">
        <ele>188</ele>
        <time>2022-06-02T03:58:26.000Z</time>
      </trkpt>
      <trkpt lat="45.20032" lon="5.74061">
        <ele>188.19999694824</ele>
        <time>2022-06-02T03:58:27.000Z</time>
      </trkpt>
      <trkpt lat="45.20032" lon="5.74063">
        <ele>188</ele>
        <time>2022-06-02T03:58:28.000Z</time>
      </trkpt>
      <trkpt lat="45.20031" lon="5.74064">
        <ele>187.80000305176</ele>
        <time>2022-06-02T03:58:29.000Z</time>
      </trkpt>
      <trkpt lat="45.2003" lon="5.74065">
        <ele>187.80000305176</ele>
        <time>2022-06-02T03:58:30.000Z</time>
      </trkpt>
      <trkpt lat="45.20029" lon="5.74066">
        <ele>188.19999694824</ele>
        <time>2022-06-02T03:58:31.000Z</time>
      </trkpt>
      <trkpt lat="45.20027" lon="5.74068">
        <ele>188.19999694824</ele>
        <time>2022-06-02T03:58:32.000Z</time>
      </trkpt>
      <trkpt lat="45.20026" lon="5.74069">
        <ele>188</ele>
        <time>2022-06-02T03:58:33.000Z</time>
      </trkpt>
      <trkpt lat="45.20024" lon="5.74071">
        <ele>188</ele>
        <time>2022-06-02T03:58:34.000Z</time>
      </trkpt>
      <trkpt lat="45.20022" lon="5.74073">
        <ele>188</ele>
        <time>2022-06-02T03:58:35.000Z</time>
      </trkpt>
      <trkpt lat="45.2002" lon="5.74075">
        <ele>188</ele>
        <time>2022-06-02T03:58:36.000Z</time>
      </trkpt>
      <trkpt lat="45.20018" lon="5.74076">
        <ele>188</ele>
        <time>2022-06-02T03:58:37.000Z</time>
      </trkpt>
      <trkpt lat="45.20016" lon="5.74078">
        <ele>188</ele>
        <time>2022-06-02T03:58:38.000Z</time>
      </trkpt>
      <trkpt lat="45.20016" lon="5.7408">
        <ele>188</ele>
        <time>2022-06-02T03:58:39.000Z</time>
      </trkpt>
      <trkpt lat="45.20015" lon="5.7408">
        <ele>188</ele>
        <time>2022-06-02T03:58:40.000Z</time>
      </trkpt>
      <trkpt lat="45.20015" lon="5.74082">
        <ele>188.19999694824</ele>
        <time>2022-06-02T03:58:41.000Z</time>
      </trkpt>
      <trkpt lat="45.20014" lon="5.74084">
        <ele>188.39999389648</ele>
        <time>2022-06-02T03:58:42.000Z</time>
      </trkpt>
      <trkpt lat="45.20013" lon="5.74087">
        <ele>188.39999389648</ele>
        <time>2022-06-02T03:58:43.000Z</time>
      </trkpt>
      <trkpt lat="45.20011" lon="5.74089">
        <ele>188.39999389648</ele>
        <time>2022-06-02T03:58:44.000Z</time>
      </trkpt>
      <trkpt lat="45.20009" lon="5.74092">
        <ele>188.39999389648</ele>
        <time>2022-06-02T03:58:45.000Z</time>
      </trkpt>
      <trkpt lat="45.20008" lon="5.74094">
        <ele>188.39999389648</ele>
        <time>2022-06-02T03:58:46.000Z</time>
      </trkpt>
      <trkpt lat="45.20007" lon="5.74096">
        <ele>188.39999389648</ele>
        <time>2022-06-02T03:58:47.000Z</time>
      </trkpt>
      <trkpt lat="45.20006" lon="5.74098">
        <ele>188.39999389648</ele>
        <time>2022-06-02T03:58:48.000Z</time>
      </trkpt>
      <trkpt lat="45.20005" lon="5.741">
        <ele>188.39999389648</ele>
        <time>2022-06-02T03:58:49.000Z</time>
      </trkpt>
      <trkpt lat="45.20003" lon="5.74103">
        <ele>188.39999389648</ele>
        <time>2022-06-02T03:58:50.000Z</time>
      </trkpt>
      <trkpt lat="45.20002" lon="5.74105">
        <ele>188.39999389648</ele>
        <time>2022-06-02T03:58:51.000Z</time>
      </trkpt>
      <trkpt lat="45.20001" lon="5.74106">
        <ele>188.39999389648</ele>
        <time>2022-06-02T03:58:52.000Z</time>
      </trkpt>
      <trkpt lat="45.2" lon="5.74108">
        <ele>189</ele>
        <time>2022-06-02T03:58:53.000Z</time>
      </trkpt>
      <trkpt lat="45.19999" lon="5.7411">
        <ele>189</ele>
        <time>2022-06-02T03:58:54.000Z</time>
      </trkpt>
      <trkpt lat="45.19997" lon="5.74112">
        <ele>189</ele>
        <time>2022-06-02T03:58:55.000Z</time>
      </trkpt>
      <trkpt lat="45.19996" lon="5.74114">
        <ele>189.19999694824</ele>
        <time>2022-06-02T03:58:56.000Z</time>
      </trkpt>
      <trkpt lat="45.19994" lon="5.74117">
        <ele>189.19999694824</ele>
        <time>2022-06-02T03:58:57.000Z</time>
      </trkpt>
      <trkpt lat="45.19993" lon="5.74119">
        <ele>189.60000610352</ele>
        <time>2022-06-02T03:58:58.000Z</time>
      </trkpt>
      <trkpt lat="45.19991" lon="5.74121">
        <ele>189.60000610352</ele>
        <time>2022-06-02T03:58:59.000Z</time>
      </trkpt>
      <trkpt lat="45.1999" lon="5.74122">
        <ele>189.80000305176</ele>
        <time>2022-06-02T03:59:00.000Z</time>
      </trkpt>
      <trkpt lat="45.19989" lon="5.74124">
        <ele>189.80000305176</ele>
        <time>2022-06-02T03:59:01.000Z</time>
      </trkpt>
      <trkpt lat="45.19988" lon="5.74125">
        <ele>190.19999694824</ele>
        <time>2022-06-02T03:59:02.000Z</time>
      </trkpt>
      <trkpt lat="45.19987" lon="5.74126">
        <ele>190.39999389648</ele>
        <time>2022-06-02T03:59:03.000Z</time>
      </trkpt>
      <trkpt lat="45.19985" lon="5.74127">
        <ele>190.39999389648</ele>
        <time>2022-06-02T03:59:04.000Z</time>
      </trkpt>
      <trkpt lat="45.19984" lon="5.74128">
        <ele>190.80000305176</ele>
        <time>2022-06-02T03:59:05.000Z</time>
      </trkpt>
      <trkpt lat="45.19983" lon="5.74129">
        <ele>190.80000305176</ele>
        <time>2022-06-02T03:59:06.000Z</time>
      </trkpt>
      <trkpt lat="45.19982" lon="5.7413">
        <ele>190.80000305176</ele>
        <time>2022-06-02T03:59:07.000Z</time>
      </trkpt>
      <trkpt lat="45.1998" lon="5.7413">
        <ele>190.80000305176</ele>
        <time>2022-06-02T03:59:08.000Z</time>
      </trkpt>
      <trkpt lat="45.19979" lon="5.74131">
        <ele>190.60000610352</ele>
        <time>2022-06-02T03:59:09.000Z</time>
      </trkpt>
      <trkpt lat="45.19977" lon="5.74132">
        <ele>190.60000610352</ele>
        <time>2022-06-02T03:59:10.000Z</time>
      </trkpt>
      <trkpt lat="45.19976" lon="5.74133">
        <ele>190.80000305176</ele>
        <time>2022-06-02T03:59:11.000Z</time>
      </trkpt>
      <trkpt lat="45.19974" lon="5.74134">
        <ele>190.80000305176</ele>
        <time>2022-06-02T03:59:12.000Z</time>
      </trkpt>
      <trkpt lat="45.19973" lon="5.74136">
        <ele>190.39999389648</ele>
        <time>2022-06-02T03:59:13.000Z</time>
      </trkpt>
      <trkpt lat="45.19971" lon="5.74137">
        <ele>190.39999389648</ele>
        <time>2022-06-02T03:59:14.000Z</time>
      </trkpt>
      <trkpt lat="45.1997" lon="5.74138">
        <ele>190</ele>
        <time>2022-06-02T03:59:15.000Z</time>
      </trkpt>
      <trkpt lat="45.19969" lon="5.74139">
        <ele>190</ele>
        <time>2022-06-02T03:59:16.000Z</time>
      </trkpt>
      <trkpt lat="45.19968" lon="5.74141">
        <ele>190.19999694824</ele>
        <time>2022-06-02T03:59:17.000Z</time>
      </trkpt>
      <trkpt lat="45.19967" lon="5.74142">
        <ele>190.39999389648</ele>
        <time>2022-06-02T03:59:18.000Z</time>
      </trkpt>
      <trkpt lat="45.19966" lon="5.74143">
        <ele>190.39999389648</ele>
        <time>2022-06-02T03:59:19.000Z</time>
      </trkpt>
      <trkpt lat="45.19965" lon="5.74145">
        <ele>190.39999389648</ele>
        <time>2022-06-02T03:59:20.000Z</time>
      </trkpt>
      <trkpt lat="45.19964" lon="5.74146">
        <ele>190.19999694824</ele>
        <time>2022-06-02T03:59:21.000Z</time>
      </trkpt>
      <trkpt lat="45.19963" lon="5.74147">
        <ele>190.19999694824</ele>
        <time>2022-06-02T03:59:22.000Z</time>
      </trkpt>
      <trkpt lat="45.19962" lon="5.74149">
        <ele>190.39999389648</ele>
        <time>2022-06-02T03:59:23.000Z</time>
      </trkpt>
      <trkpt lat="45.19961" lon="5.7415">
        <ele>190.39999389648</ele>
        <time>2022-06-02T03:59:24.000Z</time>
      </trkpt>
      <trkpt lat="45.1996" lon="5.7415">
        <ele>190.19999694824</ele>
        <time>2022-06-02T03:59:25.000Z</time>
      </trkpt>
      <trkpt lat="45.19959" lon="5.74151">
        <ele>190.19999694824</ele>
        <time>2022-06-02T03:59:26.000Z</time>
      </trkpt>
      <trkpt lat="45.19958" lon="5.74153">
        <ele>190.19999694824</ele>
        <time>2022-06-02T03:59:27.000Z</time>
      </trkpt>
      <trkpt lat="45.19956" lon="5.74154">
        <ele>190.19999694824</ele>
        <time>2022-06-02T03:59:28.000Z</time>
      </trkpt>
      <trkpt lat="45.19955" lon="5.74156">
        <ele>190.39999389648</ele>
        <time>2022-06-02T03:59:29.000Z</time>
      </trkpt>
      <trkpt lat="45.19953" lon="5.74157">
        <ele>190.39999389648</ele>
        <time>2022-06-02T03:59:30.000Z</time>
      </trkpt>
      <trkpt lat="45.19952" lon="5.74159">
        <ele>190.39999389648</ele>
        <time>2022-06-02T03:59:31.000Z</time>
      </trkpt>
      <trkpt lat="45.1995" lon="5.7416">
        <ele>190.39999389648</ele>
        <time>2022-06-02T03:59:32.000Z</time>
      </trkpt>
      <trkpt lat="45.19949" lon="5.74162">
        <ele>190.60000610352</ele>
        <time>2022-06-02T03:59:33.000Z</time>
      </trkpt>
      <trkpt lat="45.19948" lon="5.74163">
        <ele>190.60000610352</ele>
        <time>2022-06-02T03:59:34.000Z</time>
      </trkpt>
      <trkpt lat="45.19947" lon="5.74163">
        <ele>190.60000610352</ele>
        <time>2022-06-02T03:59:35.000Z</time>
      </trkpt>
      <trkpt lat="45.19945" lon="5.74164">
        <ele>190.39999389648</ele>
        <time>2022-06-02T03:59:36.000Z</time>
      </trkpt>
      <trkpt lat="45.19944" lon="5.74165">
        <ele>190.39999389648</ele>
        <time>2022-06-02T03:59:37.000Z</time>
      </trkpt>
      <trkpt lat="45.19943" lon="5.74166">
        <ele>190.60000610352</ele>
        <time>2022-06-02T03:59:38.000Z</time>
      </trkpt>
      <trkpt lat="45.19942" lon="5.74167">
        <ele>190.60000610352</ele>
        <time>2022-06-02T03:59:39.000Z</time>
      </trkpt>
      <trkpt lat="45.1994" lon="5.74168">
        <ele>190.39999389648</ele>
        <time>2022-06-02T03:59:40.000Z</time>
      </trkpt>
      <trkpt lat="45.19939" lon="5.74169">
        <ele>190.19999694824</ele>
        <time>2022-06-02T03:59:41.000Z</time>
      </trkpt>
      <trkpt lat="45.19938" lon="5.74169">
        <ele>190.19999694824</ele>
        <time>2022-06-02T03:59:42.000Z</time>
      </trkpt>
      <trkpt lat="45.19937" lon="5.7417">
        <ele>190.19999694824</ele>
        <time>2022-06-02T03:59:43.000Z</time>
      </trkpt>
      <trkpt lat="45.19935" lon="5.74171">
        <ele>190.39999389648</ele>
        <time>2022-06-02T03:59:44.000Z</time>
      </trkpt>
      <trkpt lat="45.19934" lon="5.74172">
        <ele>190.60000610352</ele>
        <time>2022-06-02T03:59:45.000Z</time>
      </trkpt>
      <trkpt lat="45.19932" lon="5.74173">
        <ele>190.39999389648</ele>
        <time>2022-06-02T03:59:46.000Z</time>
      </trkpt>
      <trkpt lat="45.19931" lon="5.74174">
        <ele>190.39999389648</ele>
        <time>2022-06-02T03:59:47.000Z</time>
      </trkpt>
      <trkpt lat="45.1993" lon="5.74175">
        <ele>190.39999389648</ele>
        <time>2022-06-02T03:59:48.000Z</time>
      </trkpt>
      <trkpt lat="45.19929" lon="5.74175">
        <ele>190.19999694824</ele>
        <time>2022-06-02T03:59:49.000Z</time>
      </trkpt>
      <trkpt lat="45.19928" lon="5.74176">
        <ele>190.19999694824</ele>
        <time>2022-06-02T03:59:50.000Z</time>
      </trkpt>
      <trkpt lat="45.19927" lon="5.74177">
        <ele>190.19999694824</ele>
        <time>2022-06-02T03:59:51.000Z</time>
      </trkpt>
      <trkpt lat="45.19926" lon="5.74178">
        <ele>190</ele>
        <time>2022-06-02T03:59:52.000Z</time>
      </trkpt>
      <trkpt lat="45.19925" lon="5.74178">
        <ele>190</ele>
        <time>2022-06-02T03:59:53.000Z</time>
      </trkpt>
      <trkpt lat="45.19924" lon="5.74179">
        <ele>190.19999694824</ele>
        <time>2022-06-02T03:59:54.000Z</time>
      </trkpt>
      <trkpt lat="45.19922" lon="5.7418">
        <ele>190.19999694824</ele>
        <time>2022-06-02T03:59:55.000Z</time>
      </trkpt>
      <trkpt lat="45.19921" lon="5.74181">
        <ele>190.19999694824</ele>
        <time>2022-06-02T03:59:56.000Z</time>
      </trkpt>
      <trkpt lat="45.1992" lon="5.74182">
        <ele>190.19999694824</ele>
        <time>2022-06-02T03:59:57.000Z</time>
      </trkpt>
      <trkpt lat="45.19919" lon="5.74184">
        <ele>190.39999389648</ele>
        <time>2022-06-02T03:59:58.000Z</time>
      </trkpt>
      <trkpt lat="45.19917" lon="5.74184">
        <ele>190.19999694824</ele>
        <time>2022-06-02T03:59:59.000Z</time>
      </trkpt>
      <trkpt lat="45.19916" lon="5.74185">
        <ele>190.19999694824</ele>
        <time>2022-06-02T04:00:00.000Z</time>
      </trkpt>
      <trkpt lat="45.19914" lon="5.74186">
        <ele>190.19999694824</ele>
        <time>2022-06-02T04:00:01.000Z</time>
      </trkpt>
      <trkpt lat="45.19913" lon="5.74187">
        <ele>190.19999694824</ele>
        <time>2022-06-02T04:00:02.000Z</time>
      </trkpt>
      <trkpt lat="45.19911" lon="5.74188">
        <ele>190.19999694824</ele>
        <time>2022-06-02T04:00:03.000Z</time>
      </trkpt>
      <trkpt lat="45.1991" lon="5.74189">
        <ele>190.19999694824</ele>
        <time>2022-06-02T04:00:04.000Z</time>
      </trkpt>
      <trkpt lat="45.1991" lon="5.74189">
        <ele>190.39999389648</ele>
        <time>2022-06-02T04:00:05.000Z</time>
      </trkpt>
      <trkpt lat="45.19908" lon="5.7419">
        <ele>190.39999389648</ele>
        <time>2022-06-02T04:00:06.000Z</time>
      </trkpt>
      <trkpt lat="45.19906" lon="5.74191">
        <ele>190.39999389648</ele>
        <time>2022-06-02T04:00:07.000Z</time>
      </trkpt>
      <trkpt lat="45.19905" lon="5.74192">
        <ele>190.39999389648</ele>
        <time>2022-06-02T04:00:08.000Z</time>
      </trkpt>
      <trkpt lat="45.19903" lon="5.74193">
        <ele>190.39999389648</ele>
        <time>2022-06-02T04:00:09.000Z</time>
      </trkpt>
      <trkpt lat="45.19902" lon="5.74194">
        <ele>190</ele>
        <time>2022-06-02T04:00:10.000Z</time>
      </trkpt>
      <trkpt lat="45.199" lon="5.74195">
        <ele>190.19999694824</ele>
        <time>2022-06-02T04:00:11.000Z</time>
      </trkpt>
      <trkpt lat="45.19899" lon="5.74196">
        <ele>190.60000610352</ele>
        <time>2022-06-02T04:00:12.000Z</time>
      </trkpt>
      <trkpt lat="45.19898" lon="5.74197">
        <ele>190.60000610352</ele>
        <time>2022-06-02T04:00:13.000Z</time>
      </trkpt>
      <trkpt lat="45.19897" lon="5.74197">
        <ele>190.39999389648</ele>
        <time>2022-06-02T04:00:14.000Z</time>
      </trkpt>
      <trkpt lat="45.19895" lon="5.74198">
        <ele>190.39999389648</ele>
        <time>2022-06-02T04:00:15.000Z</time>
      </trkpt>
      <trkpt lat="45.19894" lon="5.74199">
        <ele>190.60000610352</ele>
        <time>2022-06-02T04:00:16.000Z</time>
      </trkpt>
      <trkpt lat="45.19892" lon="5.742">
        <ele>190.60000610352</ele>
        <time>2022-06-02T04:00:17.000Z</time>
      </trkpt>
      <trkpt lat="45.1989" lon="5.74201">
        <ele>190.19999694824</ele>
        <time>2022-06-02T04:00:18.000Z</time>
      </trkpt>
      <trkpt lat="45.19888" lon="5.74202">
        <ele>190.19999694824</ele>
        <time>2022-06-02T04:00:19.000Z</time>
      </trkpt>
      <trkpt lat="45.19887" lon="5.74203">
        <ele>190.19999694824</ele>
        <time>2022-06-02T04:00:20.000Z</time>
      </trkpt>
      <trkpt lat="45.19885" lon="5.74203">
        <ele>190.39999389648</ele>
        <time>2022-06-02T04:00:21.000Z</time>
      </trkpt>
      <trkpt lat="45.19884" lon="5.74204">
        <ele>190.39999389648</ele>
        <time>2022-06-02T04:00:22.000Z</time>
      </trkpt>
      <trkpt lat="45.19882" lon="5.74205">
        <ele>190.39999389648</ele>
        <time>2022-06-02T04:00:23.000Z</time>
      </trkpt>
      <trkpt lat="45.1988" lon="5.74206">
        <ele>190.39999389648</ele>
        <time>2022-06-02T04:00:24.000Z</time>
      </trkpt>
      <trkpt lat="45.19879" lon="5.74207">
        <ele>190.60000610352</ele>
        <time>2022-06-02T04:00:25.000Z</time>
      </trkpt>
      <trkpt lat="45.19877" lon="5.74208">
        <ele>190.60000610352</ele>
        <time>2022-06-02T04:00:26.000Z</time>
      </trkpt>
      <trkpt lat="45.19876" lon="5.74209">
        <ele>190.39999389648</ele>
        <time>2022-06-02T04:00:27.000Z</time>
      </trkpt>
      <trkpt lat="45.19875" lon="5.7421">
        <ele>190.39999389648</ele>
        <time>2022-06-02T04:00:28.000Z</time>
      </trkpt>
      <trkpt lat="45.19874" lon="5.7421">
        <ele>190.19999694824</ele>
        <time>2022-06-02T04:00:29.000Z</time>
      </trkpt>
      <trkpt lat="45.19872" lon="5.74211">
        <ele>190.19999694824</ele>
        <time>2022-06-02T04:00:30.000Z</time>
      </trkpt>
      <trkpt lat="45.19871" lon="5.74212">
        <ele>190.19999694824</ele>
        <time>2022-06-02T04:00:31.000Z</time>
      </trkpt>
      <trkpt lat="45.1987" lon="5.74212">
        <ele>190.39999389648</ele>
        <time>2022-06-02T04:00:32.000Z</time>
      </trkpt>
      <trkpt lat="45.19868" lon="5.74213">
        <ele>190.39999389648</ele>
        <time>2022-06-02T04:00:33.000Z</time>
      </trkpt>
      <trkpt lat="45.19867" lon="5.74213">
        <ele>190.39999389648</ele>
        <time>2022-06-02T04:00:34.000Z</time>
      </trkpt>
      <trkpt lat="45.19865" lon="5.74214">
        <ele>190.60000610352</ele>
        <time>2022-06-02T04:00:35.000Z</time>
      </trkpt>
      <trkpt lat="45.19863" lon="5.74215">
        <ele>190.80000305176</ele>
        <time>2022-06-02T04:00:36.000Z</time>
      </trkpt>
      <trkpt lat="45.19862" lon="5.74215">
        <ele>190.39999389648</ele>
        <time>2022-06-02T04:00:37.000Z</time>
      </trkpt>
      <trkpt lat="45.1986" lon="5.74216">
        <ele>190.39999389648</ele>
        <time>2022-06-02T04:00:38.000Z</time>
      </trkpt>
      <trkpt lat="45.19859" lon="5.74217">
        <ele>190.39999389648</ele>
        <time>2022-06-02T04:00:39.000Z</time>
      </trkpt>
      <trkpt lat="45.19857" lon="5.74217">
        <ele>190.39999389648</ele>
        <time>2022-06-02T04:00:40.000Z</time>
      </trkpt>
      <trkpt lat="45.19856" lon="5.74218">
        <ele>190.60000610352</ele>
        <time>2022-06-02T04:00:41.000Z</time>
      </trkpt>
      <trkpt lat="45.19854" lon="5.74219">
        <ele>190.39999389648</ele>
        <time>2022-06-02T04:00:42.000Z</time>
      </trkpt>
      <trkpt lat="45.19853" lon="5.7422">
        <ele>190.39999389648</ele>
        <time>2022-06-02T04:00:43.000Z</time>
      </trkpt>
      <trkpt lat="45.19851" lon="5.7422">
        <ele>190.39999389648</ele>
        <time>2022-06-02T04:00:44.000Z</time>
      </trkpt>
      <trkpt lat="45.1985" lon="5.74221">
        <ele>190.39999389648</ele>
        <time>2022-06-02T04:00:45.000Z</time>
      </trkpt>
      <trkpt lat="45.19849" lon="5.74221">
        <ele>190.19999694824</ele>
        <time>2022-06-02T04:00:46.000Z</time>
      </trkpt>
      <trkpt lat="45.19848" lon="5.74222">
        <ele>190.60000610352</ele>
        <time>2022-06-02T04:00:47.000Z</time>
      </trkpt>
      <trkpt lat="45.19846" lon="5.74222">
        <ele>190.60000610352</ele>
        <time>2022-06-02T04:00:48.000Z</time>
      </trkpt>
      <trkpt lat="45.19845" lon="5.74223">
        <ele>190.60000610352</ele>
        <time>2022-06-02T04:00:49.000Z</time>
      </trkpt>
      <trkpt lat="45.19843" lon="5.74224">
        <ele>190.80000305176</ele>
        <time>2022-06-02T04:00:50.000Z</time>
      </trkpt>
      <trkpt lat="45.19841" lon="5.74225">
        <ele>190.19999694824</ele>
        <time>2022-06-02T04:00:51.000Z</time>
      </trkpt>
      <trkpt lat="45.19839" lon="5.74225">
        <ele>190.19999694824</ele>
        <time>2022-06-02T04:00:52.000Z</time>
      </trkpt>
      <trkpt lat="45.19838" lon="5.74225">
        <ele>190.80000305176</ele>
        <time>2022-06-02T04:00:53.000Z</time>
      </trkpt>
      <trkpt lat="45.19837" lon="5.74225">
        <ele>190.60000610352</ele>
        <time>2022-06-02T04:00:54.000Z</time>
      </trkpt>
      <trkpt lat="45.19836" lon="5.74225">
        <ele>190.60000610352</ele>
        <time>2022-06-02T04:00:55.000Z</time>
      </trkpt>
      <trkpt lat="45.19835" lon="5.74225">
        <ele>190.39999389648</ele>
        <time>2022-06-02T04:00:56.000Z</time>
      </trkpt>
      <trkpt lat="45.19834" lon="5.74224">
        <ele>190.19999694824</ele>
        <time>2022-06-02T04:00:57.000Z</time>
      </trkpt>
      <trkpt lat="45.19834" lon="5.74223">
        <ele>189.60000610352</ele>
        <time>2022-06-02T04:00:58.000Z</time>
      </trkpt>
      <trkpt lat="45.19834" lon="5.74222">
        <ele>189.60000610352</ele>
        <time>2022-06-02T04:00:59.000Z</time>
      </trkpt>
      <trkpt lat="45.19833" lon="5.74222">
        <ele>189.60000610352</ele>
        <time>2022-06-02T04:01:00.000Z</time>
      </trkpt>
      <trkpt lat="45.19832" lon="5.74221">
        <ele>189.39999389648</ele>
        <time>2022-06-02T04:01:01.000Z</time>
      </trkpt>
      <trkpt lat="45.19831" lon="5.7422">
        <ele>189.39999389648</ele>
        <time>2022-06-02T04:01:02.000Z</time>
      </trkpt>
      <trkpt lat="45.1983" lon="5.7422">
        <ele>189.39999389648</ele>
        <time>2022-06-02T04:01:03.000Z</time>
      </trkpt>
      <trkpt lat="45.19828" lon="5.7422">
        <ele>189.39999389648</ele>
        <time>2022-06-02T04:01:04.000Z</time>
      </trkpt>
      <trkpt lat="45.19827" lon="5.7422">
        <ele>189.39999389648</ele>
        <time>2022-06-02T04:01:05.000Z</time>
      </trkpt>
      <trkpt lat="45.19825" lon="5.7422">
        <ele>189.19999694824</ele>
        <time>2022-06-02T04:01:06.000Z</time>
      </trkpt>
      <trkpt lat="45.19823" lon="5.74221">
        <ele>189.19999694824</ele>
        <time>2022-06-02T04:01:07.000Z</time>
      </trkpt>
      <trkpt lat="45.19822" lon="5.74221">
        <ele>189</ele>
        <time>2022-06-02T04:01:08.000Z</time>
      </trkpt>
      <trkpt lat="45.19821" lon="5.74221">
        <ele>189</ele>
        <time>2022-06-02T04:01:09.000Z</time>
      </trkpt>
      <trkpt lat="45.19819" lon="5.74221">
        <ele>188.80000305176</ele>
        <time>2022-06-02T04:01:10.000Z</time>
      </trkpt>
      <trkpt lat="45.19818" lon="5.74222">
        <ele>188.80000305176</ele>
        <time>2022-06-02T04:01:11.000Z</time>
      </trkpt>
      <trkpt lat="45.19817" lon="5.74222">
        <ele>188.60000610352</ele>
        <time>2022-06-02T04:01:12.000Z</time>
      </trkpt>
      <trkpt lat="45.19815" lon="5.74221">
        <ele>188.60000610352</ele>
        <time>2022-06-02T04:01:13.000Z</time>
      </trkpt>
      <trkpt lat="45.19813" lon="5.74221">
        <ele>188.39999389648</ele>
        <time>2022-06-02T04:01:14.000Z</time>
      </trkpt>
      <trkpt lat="45.19812" lon="5.74221">
        <ele>188.39999389648</ele>
        <time>2022-06-02T04:01:15.000Z</time>
      </trkpt>
      <trkpt lat="45.19811" lon="5.74221">
        <ele>188.39999389648</ele>
        <time>2022-06-02T04:01:16.000Z</time>
      </trkpt>
      <trkpt lat="45.19809" lon="5.74221">
        <ele>188.60000610352</ele>
        <time>2022-06-02T04:01:17.000Z</time>
      </trkpt>
      <trkpt lat="45.19808" lon="5.74222">
        <ele>189</ele>
        <time>2022-06-02T04:01:18.000Z</time>
      </trkpt>
      <trkpt lat="45.19807" lon="5.74222">
        <ele>189</ele>
        <time>2022-06-02T04:01:19.000Z</time>
      </trkpt>
      <trkpt lat="45.19805" lon="5.74222">
        <ele>189</ele>
        <time>2022-06-02T04:01:20.000Z</time>
      </trkpt>
      <trkpt lat="45.19804" lon="5.74223">
        <ele>189</ele>
        <time>2022-06-02T04:01:21.000Z</time>
      </trkpt>
      <trkpt lat="45.19803" lon="5.74223">
        <ele>188.80000305176</ele>
        <time>2022-06-02T04:01:22.000Z</time>
      </trkpt>
      <trkpt lat="45.19801" lon="5.74224">
        <ele>188.80000305176</ele>
        <time>2022-06-02T04:01:23.000Z</time>
      </trkpt>
      <trkpt lat="45.198" lon="5.74224">
        <ele>188.80000305176</ele>
        <time>2022-06-02T04:01:24.000Z</time>
      </trkpt>
      <trkpt lat="45.19799" lon="5.74224">
        <ele>188.80000305176</ele>
        <time>2022-06-02T04:01:25.000Z</time>
      </trkpt>
      <trkpt lat="45.19798" lon="5.74224">
        <ele>188.80000305176</ele>
        <time>2022-06-02T04:01:26.000Z</time>
      </trkpt>
      <trkpt lat="45.19797" lon="5.74225">
        <ele>188.80000305176</ele>
        <time>2022-06-02T04:01:27.000Z</time>
      </trkpt>
      <trkpt lat="45.19795" lon="5.74225">
        <ele>188.80000305176</ele>
        <time>2022-06-02T04:01:28.000Z</time>
      </trkpt>
      <trkpt lat="45.19793" lon="5.74225">
        <ele>188.80000305176</ele>
        <time>2022-06-02T04:01:29.000Z</time>
      </trkpt>
      <trkpt lat="45.19792" lon="5.74226">
        <ele>188.80000305176</ele>
        <time>2022-06-02T04:01:30.000Z</time>
      </trkpt>
      <trkpt lat="45.19791" lon="5.74226">
        <ele>188.60000610352</ele>
        <time>2022-06-02T04:01:31.000Z</time>
      </trkpt>
      <trkpt lat="45.1979" lon="5.74226">
        <ele>188.60000610352</ele>
        <time>2022-06-02T04:01:32.000Z</time>
      </trkpt>
      <trkpt lat="45.19788" lon="5.74226">
        <ele>188.60000610352</ele>
        <time>2022-06-02T04:01:33.000Z</time>
      </trkpt>
      <trkpt lat="45.19787" lon="5.74227">
        <ele>188.80000305176</ele>
        <time>2022-06-02T04:01:34.000Z</time>
      </trkpt>
      <trkpt lat="45.19785" lon="5.74228">
        <ele>188.80000305176</ele>
        <time>2022-06-02T04:01:35.000Z</time>
      </trkpt>
      <trkpt lat="45.19783" lon="5.74228">
        <ele>188.80000305176</ele>
        <time>2022-06-02T04:01:36.000Z</time>
      </trkpt>
      <trkpt lat="45.19782" lon="5.74229">
        <ele>188.80000305176</ele>
        <time>2022-06-02T04:01:37.000Z</time>
      </trkpt>
      <trkpt lat="45.1978" lon="5.7423">
        <ele>188.80000305176</ele>
        <time>2022-06-02T04:01:38.000Z</time>
      </trkpt>
      <trkpt lat="45.19778" lon="5.74231">
        <ele>188.60000610352</ele>
        <time>2022-06-02T04:01:39.000Z</time>
      </trkpt>
      <trkpt lat="45.19775" lon="5.74232">
        <ele>188.60000610352</ele>
        <time>2022-06-02T04:01:40.000Z</time>
      </trkpt>
      <trkpt lat="45.19774" lon="5.74232">
        <ele>188.80000305176</ele>
        <time>2022-06-02T04:01:41.000Z</time>
      </trkpt>
      <trkpt lat="45.19772" lon="5.74232">
        <ele>188.60000610352</ele>
        <time>2022-06-02T04:01:42.000Z</time>
      </trkpt>
      <trkpt lat="45.1977" lon="5.74232">
        <ele>188.60000610352</ele>
        <time>2022-06-02T04:01:43.000Z</time>
      </trkpt>
      <trkpt lat="45.19769" lon="5.74233">
        <ele>188.39999389648</ele>
        <time>2022-06-02T04:01:44.000Z</time>
      </trkpt>
      <trkpt lat="45.19767" lon="5.74232">
        <ele>188.39999389648</ele>
        <time>2022-06-02T04:01:45.000Z</time>
      </trkpt>
      <trkpt lat="45.19767" lon="5.74232">
        <ele>188.39999389648</ele>
        <time>2022-06-02T04:01:46.000Z</time>
      </trkpt>
      <trkpt lat="45.19765" lon="5.74232">
        <ele>188.39999389648</ele>
        <time>2022-06-02T04:01:47.000Z</time>
      </trkpt>
      <trkpt lat="45.19764" lon="5.74232">
        <ele>188.39999389648</ele>
        <time>2022-06-02T04:01:48.000Z</time>
      </trkpt>
      <trkpt lat="45.19763" lon="5.74233">
        <ele>188.39999389648</ele>
        <time>2022-06-02T04:01:49.000Z</time>
      </trkpt>
      <trkpt lat="45.19762" lon="5.74233">
        <ele>188.39999389648</ele>
        <time>2022-06-02T04:01:50.000Z</time>
      </trkpt>
      <trkpt lat="45.1976" lon="5.74233">
        <ele>189</ele>
        <time>2022-06-02T04:01:51.000Z</time>
      </trkpt>
      <trkpt lat="45.19758" lon="5.74233">
        <ele>188.80000305176</ele>
        <time>2022-06-02T04:01:52.000Z</time>
      </trkpt>
      <trkpt lat="45.19757" lon="5.74233">
        <ele>188.60000610352</ele>
        <time>2022-06-02T04:01:53.000Z</time>
      </trkpt>
      <trkpt lat="45.19755" lon="5.74233">
        <ele>188.60000610352</ele>
        <time>2022-06-02T04:01:54.000Z</time>
      </trkpt>
      <trkpt lat="45.19754" lon="5.74234">
        <ele>188.60000610352</ele>
        <time>2022-06-02T04:01:55.000Z</time>
      </trkpt>
      <trkpt lat="45.19752" lon="5.74234">
        <ele>188.80000305176</ele>
        <time>2022-06-02T04:01:56.000Z</time>
      </trkpt>
      <trkpt lat="45.1975" lon="5.74234">
        <ele>188.80000305176</ele>
        <time>2022-06-02T04:01:57.000Z</time>
      </trkpt>
      <trkpt lat="45.19749" lon="5.74234">
        <ele>188.80000305176</ele>
        <time>2022-06-02T04:01:58.000Z</time>
      </trkpt>
      <trkpt lat="45.19747" lon="5.74234">
        <ele>189</ele>
        <time>2022-06-02T04:01:59.000Z</time>
      </trkpt>
      <trkpt lat="45.19745" lon="5.74235">
        <ele>188.80000305176</ele>
        <time>2022-06-02T04:02:00.000Z</time>
      </trkpt>
      <trkpt lat="45.19744" lon="5.74235">
        <ele>188.80000305176</ele>
        <time>2022-06-02T04:02:01.000Z</time>
      </trkpt>
      <trkpt lat="45.19743" lon="5.74235">
        <ele>188.39999389648</ele>
        <time>2022-06-02T04:02:02.000Z</time>
      </trkpt>
      <trkpt lat="45.19741" lon="5.74235">
        <ele>188.39999389648</ele>
        <time>2022-06-02T04:02:03.000Z</time>
      </trkpt>
      <trkpt lat="45.1974" lon="5.74235">
        <ele>188.80000305176</ele>
        <time>2022-06-02T04:02:04.000Z</time>
      </trkpt>
      <trkpt lat="45.19739" lon="5.74235">
        <ele>188.39999389648</ele>
        <time>2022-06-02T04:02:05.000Z</time>
      </trkpt>
      <trkpt lat="45.19737" lon="5.74236">
        <ele>188.60000610352</ele>
        <time>2022-06-02T04:02:06.000Z</time>
      </trkpt>
      <trkpt lat="45.19736" lon="5.74235">
        <ele>188.60000610352</ele>
        <time>2022-06-02T04:02:07.000Z</time>
      </trkpt>
      <trkpt lat="45.19734" lon="5.74235">
        <ele>188.60000610352</ele>
        <time>2022-06-02T04:02:08.000Z</time>
      </trkpt>
      <trkpt lat="45.19733" lon="5.74234">
        <ele>188.39999389648</ele>
        <time>2022-06-02T04:02:09.000Z</time>
      </trkpt>
      <trkpt lat="45.19732" lon="5.74234">
        <ele>188.60000610352</ele>
        <time>2022-06-02T04:02:10.000Z</time>
      </trkpt>
      <trkpt lat="45.1973" lon="5.74233">
        <ele>188.60000610352</ele>
        <time>2022-06-02T04:02:11.000Z</time>
      </trkpt>
      <trkpt lat="45.19729" lon="5.74231">
        <ele>188.80000305176</ele>
        <time>2022-06-02T04:02:12.000Z</time>
      </trkpt>
      <trkpt lat="45.19728" lon="5.7423">
        <ele>188.60000610352</ele>
        <time>2022-06-02T04:02:13.000Z</time>
      </trkpt>
      <trkpt lat="45.19727" lon="5.74229">
        <ele>188.60000610352</ele>
        <time>2022-06-02T04:02:14.000Z</time>
      </trkpt>
      <trkpt lat="45.19727" lon="5.74228">
        <ele>188.60000610352</ele>
        <time>2022-06-02T04:02:15.000Z</time>
      </trkpt>
      <trkpt lat="45.19726" lon="5.74227">
        <ele>188.39999389648</ele>
        <time>2022-06-02T04:02:16.000Z</time>
      </trkpt>
      <trkpt lat="45.19726" lon="5.74226">
        <ele>188.80000305176</ele>
        <time>2022-06-02T04:02:17.000Z</time>
      </trkpt>
      <trkpt lat="45.19725" lon="5.74223">
        <ele>188.60000610352</ele>
        <time>2022-06-02T04:02:18.000Z</time>
      </trkpt>
      <trkpt lat="45.19725" lon="5.74221">
        <ele>188.60000610352</ele>
        <time>2022-06-02T04:02:19.000Z</time>
      </trkpt>
      <trkpt lat="45.19724" lon="5.7422">
        <ele>188.60000610352</ele>
        <time>2022-06-02T04:02:20.000Z</time>
      </trkpt>
      <trkpt lat="45.19724" lon="5.74218">
        <ele>188.60000610352</ele>
        <time>2022-06-02T04:02:21.000Z</time>
      </trkpt>
      <trkpt lat="45.19724" lon="5.74216">
        <ele>188.60000610352</ele>
        <time>2022-06-02T04:02:22.000Z</time>
      </trkpt>
      <trkpt lat="45.19723" lon="5.74215">
        <ele>188.60000610352</ele>
        <time>2022-06-02T04:02:23.000Z</time>
      </trkpt>
      <trkpt lat="45.19723" lon="5.74214">
        <ele>188.39999389648</ele>
        <time>2022-06-02T04:02:24.000Z</time>
      </trkpt>
      <trkpt lat="45.19723" lon="5.74213">
        <ele>188.39999389648</ele>
        <time>2022-06-02T04:02:25.000Z</time>
      </trkpt>
      <trkpt lat="45.19723" lon="5.74212">
        <ele>188.39999389648</ele>
        <time>2022-06-02T04:02:26.000Z</time>
      </trkpt>
      <trkpt lat="45.19722" lon="5.7421">
        <ele>188.39999389648</ele>
        <time>2022-06-02T04:02:27.000Z</time>
      </trkpt>
      <trkpt lat="45.19722" lon="5.74208">
        <ele>188.39999389648</ele>
        <time>2022-06-02T04:02:28.000Z</time>
      </trkpt>
      <trkpt lat="45.19721" lon="5.74205">
        <ele>188.19999694824</ele>
        <time>2022-06-02T04:02:29.000Z</time>
      </trkpt>
      <trkpt lat="45.19721" lon="5.74203">
        <ele>188.19999694824</ele>
        <time>2022-06-02T04:02:30.000Z</time>
      </trkpt>
      <trkpt lat="45.1972" lon="5.74201">
        <ele>188.39999389648</ele>
        <time>2022-06-02T04:02:31.000Z</time>
      </trkpt>
      <trkpt lat="45.19719" lon="5.74198">
        <ele>188.39999389648</ele>
        <time>2022-06-02T04:02:32.000Z</time>
      </trkpt>
      <trkpt lat="45.19718" lon="5.74196">
        <ele>188.19999694824</ele>
        <time>2022-06-02T04:02:33.000Z</time>
      </trkpt>
      <trkpt lat="45.19718" lon="5.74194">
        <ele>188.60000610352</ele>
        <time>2022-06-02T04:02:34.000Z</time>
      </trkpt>
      <trkpt lat="45.19717" lon="5.74193">
        <ele>188.39999389648</ele>
        <time>2022-06-02T04:02:35.000Z</time>
      </trkpt>
      <trkpt lat="45.19717" lon="5.74191">
        <ele>188.19999694824</ele>
        <time>2022-06-02T04:02:36.000Z</time>
      </trkpt>
      <trkpt lat="45.19716" lon="5.74189">
        <ele>188.39999389648</ele>
        <time>2022-06-02T04:02:37.000Z</time>
      </trkpt>
      <trkpt lat="45.19716" lon="5.74187">
        <ele>188.39999389648</ele>
        <time>2022-06-02T04:02:38.000Z</time>
      </trkpt>
      <trkpt lat="45.19715" lon="5.74185">
        <ele>188.19999694824</ele>
        <time>2022-06-02T04:02:39.000Z</time>
      </trkpt>
      <trkpt lat="45.19715" lon="5.74184">
        <ele>188.19999694824</ele>
        <time>2022-06-02T04:02:40.000Z</time>
      </trkpt>
      <trkpt lat="45.19714" lon="5.74181">
        <ele>188</ele>
        <time>2022-06-02T04:02:41.000Z</time>
      </trkpt>
      <trkpt lat="45.19713" lon="5.74179">
        <ele>188.19999694824</ele>
        <time>2022-06-02T04:02:42.000Z</time>
      </trkpt>
      <trkpt lat="45.19713" lon="5.74176">
        <ele>188.19999694824</ele>
        <time>2022-06-02T04:02:43.000Z</time>
      </trkpt>
      <trkpt lat="45.19712" lon="5.74175">
        <ele>188.19999694824</ele>
        <time>2022-06-02T04:02:44.000Z</time>
      </trkpt>
      <trkpt lat="45.19712" lon="5.74173">
        <ele>188</ele>
        <time>2022-06-02T04:02:45.000Z</time>
      </trkpt>
      <trkpt lat="45.19711" lon="5.74171">
        <ele>188.19999694824</ele>
        <time>2022-06-02T04:02:46.000Z</time>
      </trkpt>
      <trkpt lat="45.19711" lon="5.74169">
        <ele>188.19999694824</ele>
        <time>2022-06-02T04:02:47.000Z</time>
      </trkpt>
      <trkpt lat="45.19711" lon="5.74168">
        <ele>188.19999694824</ele>
        <time>2022-06-02T04:02:48.000Z</time>
      </trkpt>
      <trkpt lat="45.1971" lon="5.74166">
        <ele>188</ele>
        <time>2022-06-02T04:02:49.000Z</time>
      </trkpt>
      <trkpt lat="45.1971" lon="5.74164">
        <ele>188</ele>
        <time>2022-06-02T04:02:50.000Z</time>
      </trkpt>
      <trkpt lat="45.19709" lon="5.74162">
        <ele>188</ele>
        <time>2022-06-02T04:02:51.000Z</time>
      </trkpt>
      <trkpt lat="45.19709" lon="5.7416">
        <ele>188</ele>
        <time>2022-06-02T04:02:52.000Z</time>
      </trkpt>
      <trkpt lat="45.19709" lon="5.74158">
        <ele>188.19999694824</ele>
        <time>2022-06-02T04:02:53.000Z</time>
      </trkpt>
      <trkpt lat="45.19708" lon="5.74156">
        <ele>188.19999694824</ele>
        <time>2022-06-02T04:02:54.000Z</time>
      </trkpt>
      <trkpt lat="45.19708" lon="5.74153">
        <ele>188.19999694824</ele>
        <time>2022-06-02T04:02:55.000Z</time>
      </trkpt>
      <trkpt lat="45.19708" lon="5.74151">
        <ele>188</ele>
        <time>2022-06-02T04:02:56.000Z</time>
      </trkpt>
      <trkpt lat="45.19708" lon="5.74149">
        <ele>188</ele>
        <time>2022-06-02T04:02:57.000Z</time>
      </trkpt>
      <trkpt lat="45.19707" lon="5.74148">
        <ele>188</ele>
        <time>2022-06-02T04:02:58.000Z</time>
      </trkpt>
      <trkpt lat="45.19707" lon="5.74146">
        <ele>188</ele>
        <time>2022-06-02T04:02:59.000Z</time>
      </trkpt>
      <trkpt lat="45.19707" lon="5.74144">
        <ele>188</ele>
        <time>2022-06-02T04:03:00.000Z</time>
      </trkpt>
      <trkpt lat="45.19707" lon="5.74141">
        <ele>188.19999694824</ele>
        <time>2022-06-02T04:03:01.000Z</time>
      </trkpt>
      <trkpt lat="45.19707" lon="5.74139">
        <ele>188.19999694824</ele>
        <time>2022-06-02T04:03:02.000Z</time>
      </trkpt>
      <trkpt lat="45.19707" lon="5.74138">
        <ele>188</ele>
        <time>2022-06-02T04:03:03.000Z</time>
      </trkpt>
      <trkpt lat="45.19706" lon="5.74136">
        <ele>188</ele>
        <time>2022-06-02T04:03:04.000Z</time>
      </trkpt>
      <trkpt lat="45.19706" lon="5.74134">
        <ele>188</ele>
        <time>2022-06-02T04:03:05.000Z</time>
      </trkpt>
      <trkpt lat="45.19705" lon="5.74133">
        <ele>188</ele>
        <time>2022-06-02T04:03:06.000Z</time>
      </trkpt>
      <trkpt lat="45.19705" lon="5.74131">
        <ele>188</ele>
        <time>2022-06-02T04:03:07.000Z</time>
      </trkpt>
      <trkpt lat="45.19705" lon="5.74129">
        <ele>188</ele>
        <time>2022-06-02T04:03:08.000Z</time>
      </trkpt>
      <trkpt lat="45.19704" lon="5.74127">
        <ele>188</ele>
        <time>2022-06-02T04:03:09.000Z</time>
      </trkpt>
      <trkpt lat="45.19704" lon="5.74126">
        <ele>188</ele>
        <time>2022-06-02T04:03:10.000Z</time>
      </trkpt>
      <trkpt lat="45.19704" lon="5.74123">
        <ele>188</ele>
        <time>2022-06-02T04:03:11.000Z</time>
      </trkpt>
      <trkpt lat="45.19703" lon="5.7412">
        <ele>188</ele>
        <time>2022-06-02T04:03:12.000Z</time>
      </trkpt>
      <trkpt lat="45.19703" lon="5.74118">
        <ele>188</ele>
        <time>2022-06-02T04:03:13.000Z</time>
      </trkpt>
      <trkpt lat="45.19703" lon="5.74115">
        <ele>187.80000305176</ele>
        <time>2022-06-02T04:03:14.000Z</time>
      </trkpt>
      <trkpt lat="45.19702" lon="5.74113">
        <ele>187.80000305176</ele>
        <time>2022-06-02T04:03:15.000Z</time>
      </trkpt>
      <trkpt lat="45.19702" lon="5.7411">
        <ele>187.80000305176</ele>
        <time>2022-06-02T04:03:16.000Z</time>
      </trkpt>
      <trkpt lat="45.19702" lon="5.74109">
        <ele>187.80000305176</ele>
        <time>2022-06-02T04:03:17.000Z</time>
      </trkpt>
      <trkpt lat="45.19701" lon="5.74107">
        <ele>187.80000305176</ele>
        <time>2022-06-02T04:03:18.000Z</time>
      </trkpt>
      <trkpt lat="45.197" lon="5.74105">
        <ele>187.80000305176</ele>
        <time>2022-06-02T04:03:19.000Z</time>
      </trkpt>
      <trkpt lat="45.197" lon="5.74103">
        <ele>187.80000305176</ele>
        <time>2022-06-02T04:03:20.000Z</time>
      </trkpt>
      <trkpt lat="45.19699" lon="5.74102">
        <ele>187.60000610352</ele>
        <time>2022-06-02T04:03:21.000Z</time>
      </trkpt>
      <trkpt lat="45.19699" lon="5.741">
        <ele>187.80000305176</ele>
        <time>2022-06-02T04:03:22.000Z</time>
      </trkpt>
      <trkpt lat="45.19698" lon="5.74098">
        <ele>187.60000610352</ele>
        <time>2022-06-02T04:03:23.000Z</time>
      </trkpt>
      <trkpt lat="45.19697" lon="5.74097">
        <ele>187.60000610352</ele>
        <time>2022-06-02T04:03:24.000Z</time>
      </trkpt>
      <trkpt lat="45.19697" lon="5.74095">
        <ele>187.60000610352</ele>
        <time>2022-06-02T04:03:25.000Z</time>
      </trkpt>
      <trkpt lat="45.19697" lon="5.74093">
        <ele>187.80000305176</ele>
        <time>2022-06-02T04:03:26.000Z</time>
      </trkpt>
      <trkpt lat="45.19696" lon="5.74091">
        <ele>187.80000305176</ele>
        <time>2022-06-02T04:03:27.000Z</time>
      </trkpt>
      <trkpt lat="45.19696" lon="5.74089">
        <ele>187.80000305176</ele>
        <time>2022-06-02T04:03:28.000Z</time>
      </trkpt>
      <trkpt lat="45.19695" lon="5.74087">
        <ele>187.60000610352</ele>
        <time>2022-06-02T04:03:29.000Z</time>
      </trkpt>
      <trkpt lat="45.19694" lon="5.74085">
        <ele>187.60000610352</ele>
        <time>2022-06-02T04:03:30.000Z</time>
      </trkpt>
      <trkpt lat="45.19693" lon="5.74083">
        <ele>187.60000610352</ele>
        <time>2022-06-02T04:03:31.000Z</time>
      </trkpt>
      <trkpt lat="45.19693" lon="5.74082">
        <ele>187.60000610352</ele>
        <time>2022-06-02T04:03:32.000Z</time>
      </trkpt>
      <trkpt lat="45.19692" lon="5.7408">
        <ele>187.60000610352</ele>
        <time>2022-06-02T04:03:33.000Z</time>
      </trkpt>
      <trkpt lat="45.19691" lon="5.74078">
        <ele>187.80000305176</ele>
        <time>2022-06-02T04:03:34.000Z</time>
      </trkpt>
      <trkpt lat="45.19691" lon="5.74076">
        <ele>187.60000610352</ele>
        <time>2022-06-02T04:03:35.000Z</time>
      </trkpt>
      <trkpt lat="45.19691" lon="5.74074">
        <ele>187.60000610352</ele>
        <time>2022-06-02T04:03:36.000Z</time>
      </trkpt>
      <trkpt lat="45.1969" lon="5.74073">
        <ele>187.60000610352</ele>
        <time>2022-06-02T04:03:37.000Z</time>
      </trkpt>
      <trkpt lat="45.1969" lon="5.74071">
        <ele>187.60000610352</ele>
        <time>2022-06-02T04:03:38.000Z</time>
      </trkpt>
      <trkpt lat="45.1969" lon="5.74068">
        <ele>187.60000610352</ele>
        <time>2022-06-02T04:03:39.000Z</time>
      </trkpt>
      <trkpt lat="45.1969" lon="5.74066">
        <ele>187.80000305176</ele>
        <time>2022-06-02T04:03:40.000Z</time>
      </trkpt>
      <trkpt lat="45.19689" lon="5.74064">
        <ele>187.39999389648</ele>
        <time>2022-06-02T04:03:41.000Z</time>
      </trkpt>
      <trkpt lat="45.19689" lon="5.74062">
        <ele>187.60000610352</ele>
        <time>2022-06-02T04:03:42.000Z</time>
      </trkpt>
      <trkpt lat="45.19688" lon="5.7406">
        <ele>187.60000610352</ele>
        <time>2022-06-02T04:03:43.000Z</time>
      </trkpt>
      <trkpt lat="45.19688" lon="5.74058">
        <ele>187.60000610352</ele>
        <time>2022-06-02T04:03:44.000Z</time>
      </trkpt>
      <trkpt lat="45.19687" lon="5.74056">
        <ele>187.60000610352</ele>
        <time>2022-06-02T04:03:45.000Z</time>
      </trkpt>
      <trkpt lat="45.19687" lon="5.74055">
        <ele>187.60000610352</ele>
        <time>2022-06-02T04:03:46.000Z</time>
      </trkpt>
      <trkpt lat="45.19687" lon="5.74053">
        <ele>187.39999389648</ele>
        <time>2022-06-02T04:03:47.000Z</time>
      </trkpt>
      <trkpt lat="45.19687" lon="5.74051">
        <ele>187.39999389648</ele>
        <time>2022-06-02T04:03:48.000Z</time>
      </trkpt>
      <trkpt lat="45.19687" lon="5.74049">
        <ele>187.19999694824</ele>
        <time>2022-06-02T04:03:49.000Z</time>
      </trkpt>
      <trkpt lat="45.19687" lon="5.74047">
        <ele>187.39999389648</ele>
        <time>2022-06-02T04:03:50.000Z</time>
      </trkpt>
      <trkpt lat="45.19687" lon="5.74045">
        <ele>187.39999389648</ele>
        <time>2022-06-02T04:03:51.000Z</time>
      </trkpt>
      <trkpt lat="45.19686" lon="5.74042">
        <ele>187.39999389648</ele>
        <time>2022-06-02T04:03:52.000Z</time>
      </trkpt>
      <trkpt lat="45.19686" lon="5.74041">
        <ele>187.19999694824</ele>
        <time>2022-06-02T04:03:53.000Z</time>
      </trkpt>
      <trkpt lat="45.19686" lon="5.74039">
        <ele>187.19999694824</ele>
        <time>2022-06-02T04:03:54.000Z</time>
      </trkpt>
      <trkpt lat="45.19686" lon="5.74038">
        <ele>187.39999389648</ele>
        <time>2022-06-02T04:03:55.000Z</time>
      </trkpt>
      <trkpt lat="45.19686" lon="5.74035">
        <ele>187.19999694824</ele>
        <time>2022-06-02T04:03:56.000Z</time>
      </trkpt>
      <trkpt lat="45.19686" lon="5.74033">
        <ele>187</ele>
        <time>2022-06-02T04:03:57.000Z</time>
      </trkpt>
      <trkpt lat="45.19685" lon="5.74032">
        <ele>187</ele>
        <time>2022-06-02T04:03:58.000Z</time>
      </trkpt>
      <trkpt lat="45.19685" lon="5.7403">
        <ele>187</ele>
        <time>2022-06-02T04:03:59.000Z</time>
      </trkpt>
      <trkpt lat="45.19684" lon="5.74028">
        <ele>187.39999389648</ele>
        <time>2022-06-02T04:04:00.000Z</time>
      </trkpt>
      <trkpt lat="45.19684" lon="5.74027">
        <ele>187.19999694824</ele>
        <time>2022-06-02T04:04:01.000Z</time>
      </trkpt>
      <trkpt lat="45.19683" lon="5.74024">
        <ele>187</ele>
        <time>2022-06-02T04:04:02.000Z</time>
      </trkpt>
      <trkpt lat="45.19683" lon="5.74021">
        <ele>187</ele>
        <time>2022-06-02T04:04:03.000Z</time>
      </trkpt>
      <trkpt lat="45.19682" lon="5.74018">
        <ele>187.19999694824</ele>
        <time>2022-06-02T04:04:04.000Z</time>
      </trkpt>
      <trkpt lat="45.19682" lon="5.74016">
        <ele>187.19999694824</ele>
        <time>2022-06-02T04:04:05.000Z</time>
      </trkpt>
      <trkpt lat="45.19682" lon="5.74014">
        <ele>187</ele>
        <time>2022-06-02T04:04:06.000Z</time>
      </trkpt>
      <trkpt lat="45.19682" lon="5.74012">
        <ele>187</ele>
        <time>2022-06-02T04:04:07.000Z</time>
      </trkpt>
      <trkpt lat="45.19681" lon="5.7401">
        <ele>187</ele>
        <time>2022-06-02T04:04:08.000Z</time>
      </trkpt>
      <trkpt lat="45.19681" lon="5.74009">
        <ele>187</ele>
        <time>2022-06-02T04:04:09.000Z</time>
      </trkpt>
      <trkpt lat="45.1968" lon="5.74007">
        <ele>186.80000305176</ele>
        <time>2022-06-02T04:04:10.000Z</time>
      </trkpt>
      <trkpt lat="45.19679" lon="5.74007">
        <ele>187</ele>
        <time>2022-06-02T04:04:11.000Z</time>
      </trkpt>
      <trkpt lat="45.19679" lon="5.74007">
        <ele>187</ele>
        <time>2022-06-02T04:04:12.000Z</time>
      </trkpt>
      <trkpt lat="45.19677" lon="5.74007">
        <ele>187</ele>
        <time>2022-06-02T04:04:13.000Z</time>
      </trkpt>
      <trkpt lat="45.19676" lon="5.74007">
        <ele>187</ele>
        <time>2022-06-02T04:04:14.000Z</time>
      </trkpt>
      <trkpt lat="45.19675" lon="5.74006">
        <ele>186.80000305176</ele>
        <time>2022-06-02T04:04:15.000Z</time>
      </trkpt>
      <trkpt lat="45.19673" lon="5.74006">
        <ele>186.80000305176</ele>
        <time>2022-06-02T04:04:16.000Z</time>
      </trkpt>
      <trkpt lat="45.19672" lon="5.74006">
        <ele>186.80000305176</ele>
        <time>2022-06-02T04:04:17.000Z</time>
      </trkpt>
      <trkpt lat="45.19671" lon="5.74005">
        <ele>187</ele>
        <time>2022-06-02T04:04:18.000Z</time>
      </trkpt>
      <trkpt lat="45.19671" lon="5.74005">
        <ele>186.80000305176</ele>
        <time>2022-06-02T04:04:19.000Z</time>
      </trkpt>
      <trkpt lat="45.1967" lon="5.74005">
        <ele>186.60000610352</ele>
        <time>2022-06-02T04:04:20.000Z</time>
      </trkpt>
      <trkpt lat="45.1967" lon="5.74005">
        <ele>186.60000610352</ele>
        <time>2022-06-02T04:04:21.000Z</time>
      </trkpt>
      <trkpt lat="45.19669" lon="5.74005">
        <ele>186.80000305176</ele>
        <time>2022-06-02T04:04:22.000Z</time>
      </trkpt>
      <trkpt lat="45.19668" lon="5.74005">
        <ele>186.80000305176</ele>
        <time>2022-06-02T04:04:23.000Z</time>
      </trkpt>
      <trkpt lat="45.19667" lon="5.74004">
        <ele>186.80000305176</ele>
        <time>2022-06-02T04:04:24.000Z</time>
      </trkpt>
      <trkpt lat="45.19666" lon="5.74004">
        <ele>186.80000305176</ele>
        <time>2022-06-02T04:04:25.000Z</time>
      </trkpt>
      <trkpt lat="45.19666" lon="5.74004">
        <ele>186.80000305176</ele>
        <time>2022-06-02T04:04:26.000Z</time>
      </trkpt>
      <trkpt lat="45.19665" lon="5.74003">
        <ele>186.80000305176</ele>
        <time>2022-06-02T04:04:27.000Z</time>
      </trkpt>
      <trkpt lat="45.19664" lon="5.74003">
        <ele>186.60000610352</ele>
        <time>2022-06-02T04:04:28.000Z</time>
      </trkpt>
      <trkpt lat="45.19662" lon="5.74003">
        <ele>186.60000610352</ele>
        <time>2022-06-02T04:04:29.000Z</time>
      </trkpt>
      <trkpt lat="45.19661" lon="5.74003">
        <ele>186.60000610352</ele>
        <time>2022-06-02T04:04:30.000Z</time>
      </trkpt>
      <trkpt lat="45.1966" lon="5.74003">
        <ele>186.60000610352</ele>
        <time>2022-06-02T04:04:31.000Z</time>
      </trkpt>
      <trkpt lat="45.19659" lon="5.74003">
        <ele>186.60000610352</ele>
        <time>2022-06-02T04:04:32.000Z</time>
      </trkpt>
      <trkpt lat="45.19658" lon="5.74003">
        <ele>186.80000305176</ele>
        <time>2022-06-02T04:04:33.000Z</time>
      </trkpt>
      <trkpt lat="45.19657" lon="5.74003">
        <ele>186.80000305176</ele>
        <time>2022-06-02T04:04:34.000Z</time>
      </trkpt>
      <trkpt lat="45.19655" lon="5.74002">
        <ele>186.39999389648</ele>
        <time>2022-06-02T04:04:35.000Z</time>
      </trkpt>
      <trkpt lat="45.19654" lon="5.74002">
        <ele>186.39999389648</ele>
        <time>2022-06-02T04:04:36.000Z</time>
      </trkpt>
      <trkpt lat="45.19652" lon="5.74002">
        <ele>186.60000610352</ele>
        <time>2022-06-02T04:04:37.000Z</time>
      </trkpt>
      <trkpt lat="45.1965" lon="5.74002">
        <ele>186.60000610352</ele>
        <time>2022-06-02T04:04:38.000Z</time>
      </trkpt>
      <trkpt lat="45.19649" lon="5.74002">
        <ele>186.60000610352</ele>
        <time>2022-06-02T04:04:39.000Z</time>
      </trkpt>
      <trkpt lat="45.19648" lon="5.74002">
        <ele>186.60000610352</ele>
        <time>2022-06-02T04:04:40.000Z</time>
      </trkpt>
      <trkpt lat="45.19646" lon="5.74002">
        <ele>186.60000610352</ele>
        <time>2022-06-02T04:04:41.000Z</time>
      </trkpt>
      <trkpt lat="45.19645" lon="5.74002">
        <ele>186.60000610352</ele>
        <time>2022-06-02T04:04:42.000Z</time>
      </trkpt>
      <trkpt lat="45.19644" lon="5.74002">
        <ele>186.60000610352</ele>
        <time>2022-06-02T04:04:43.000Z</time>
      </trkpt>
      <trkpt lat="45.19643" lon="5.74001">
        <ele>186.60000610352</ele>
        <time>2022-06-02T04:04:44.000Z</time>
      </trkpt>
      <trkpt lat="45.19641" lon="5.74001">
        <ele>186.60000610352</ele>
        <time>2022-06-02T04:04:45.000Z</time>
      </trkpt>
      <trkpt lat="45.1964" lon="5.74">
        <ele>186.60000610352</ele>
        <time>2022-06-02T04:04:46.000Z</time>
      </trkpt>
      <trkpt lat="45.19638" lon="5.74">
        <ele>186.60000610352</ele>
        <time>2022-06-02T04:04:47.000Z</time>
      </trkpt>
      <trkpt lat="45.19637" lon="5.73999">
        <ele>186.60000610352</ele>
        <time>2022-06-02T04:04:48.000Z</time>
      </trkpt>
      <trkpt lat="45.19635" lon="5.73999">
        <ele>186.19999694824</ele>
        <time>2022-06-02T04:04:49.000Z</time>
      </trkpt>
      <trkpt lat="45.19633" lon="5.73998">
        <ele>186.60000610352</ele>
        <time>2022-06-02T04:04:50.000Z</time>
      </trkpt>
      <trkpt lat="45.19632" lon="5.73997">
        <ele>186.39999389648</ele>
        <time>2022-06-02T04:04:51.000Z</time>
      </trkpt>
      <trkpt lat="45.19631" lon="5.73997">
        <ele>186.39999389648</ele>
        <time>2022-06-02T04:04:52.000Z</time>
      </trkpt>
      <trkpt lat="45.19629" lon="5.73996">
        <ele>186.39999389648</ele>
        <time>2022-06-02T04:04:53.000Z</time>
      </trkpt>
      <trkpt lat="45.19628" lon="5.73995">
        <ele>186.39999389648</ele>
        <time>2022-06-02T04:04:54.000Z</time>
      </trkpt>
      <trkpt lat="45.19627" lon="5.73994">
        <ele>186.39999389648</ele>
        <time>2022-06-02T04:04:55.000Z</time>
      </trkpt>
      <trkpt lat="45.19626" lon="5.73994">
        <ele>186.39999389648</ele>
        <time>2022-06-02T04:04:56.000Z</time>
      </trkpt>
      <trkpt lat="45.19624" lon="5.73993">
        <ele>186.39999389648</ele>
        <time>2022-06-02T04:04:57.000Z</time>
      </trkpt>
      <trkpt lat="45.19623" lon="5.73993">
        <ele>186.19999694824</ele>
        <time>2022-06-02T04:04:58.000Z</time>
      </trkpt>
      <trkpt lat="45.19621" lon="5.73992">
        <ele>186.39999389648</ele>
        <time>2022-06-02T04:04:59.000Z</time>
      </trkpt>
      <trkpt lat="45.1962" lon="5.73992">
        <ele>186.19999694824</ele>
        <time>2022-06-02T04:05:00.000Z</time>
      </trkpt>
      <trkpt lat="45.19618" lon="5.73991">
        <ele>186.19999694824</ele>
        <time>2022-06-02T04:05:01.000Z</time>
      </trkpt>
      <trkpt lat="45.19617" lon="5.7399">
        <ele>186.19999694824</ele>
        <time>2022-06-02T04:05:02.000Z</time>
      </trkpt>
      <trkpt lat="45.19616" lon="5.73988">
        <ele>186.39999389648</ele>
        <time>2022-06-02T04:05:03.000Z</time>
      </trkpt>
      <trkpt lat="45.19616" lon="5.73986">
        <ele>186.39999389648</ele>
        <time>2022-06-02T04:05:04.000Z</time>
      </trkpt>
      <trkpt lat="45.19616" lon="5.73984">
        <ele>186.19999694824</ele>
        <time>2022-06-02T04:05:05.000Z</time>
      </trkpt>
      <trkpt lat="45.19615" lon="5.73982">
        <ele>186.39999389648</ele>
        <time>2022-06-02T04:05:06.000Z</time>
      </trkpt>
      <trkpt lat="45.19615" lon="5.7398">
        <ele>186.39999389648</ele>
        <time>2022-06-02T04:05:07.000Z</time>
      </trkpt>
      <trkpt lat="45.19615" lon="5.73977">
        <ele>186.39999389648</ele>
        <time>2022-06-02T04:05:08.000Z</time>
      </trkpt>
      <trkpt lat="45.19615" lon="5.73975">
        <ele>186.39999389648</ele>
        <time>2022-06-02T04:05:09.000Z</time>
      </trkpt>
      <trkpt lat="45.19615" lon="5.73973">
        <ele>186.39999389648</ele>
        <time>2022-06-02T04:05:10.000Z</time>
      </trkpt>
      <trkpt lat="45.19615" lon="5.7397">
        <ele>186.39999389648</ele>
        <time>2022-06-02T04:05:11.000Z</time>
      </trkpt>
      <trkpt lat="45.19616" lon="5.73968">
        <ele>186.39999389648</ele>
        <time>2022-06-02T04:05:12.000Z</time>
      </trkpt>
      <trkpt lat="45.19616" lon="5.73966">
        <ele>186.60000610352</ele>
        <time>2022-06-02T04:05:13.000Z</time>
      </trkpt>
      <trkpt lat="45.19616" lon="5.73965">
        <ele>186.19999694824</ele>
        <time>2022-06-02T04:05:14.000Z</time>
      </trkpt>
      <trkpt lat="45.19617" lon="5.73963">
        <ele>186.19999694824</ele>
        <time>2022-06-02T04:05:15.000Z</time>
      </trkpt>
      <trkpt lat="45.19618" lon="5.73962">
        <ele>186.39999389648</ele>
        <time>2022-06-02T04:05:16.000Z</time>
      </trkpt>
      <trkpt lat="45.19619" lon="5.73961">
        <ele>186.39999389648</ele>
        <time>2022-06-02T04:05:17.000Z</time>
      </trkpt>
      <trkpt lat="45.1962" lon="5.7396">
        <ele>186.19999694824</ele>
        <time>2022-06-02T04:05:18.000Z</time>
      </trkpt>
      <trkpt lat="45.19621" lon="5.73959">
        <ele>186.39999389648</ele>
        <time>2022-06-02T04:05:19.000Z</time>
      </trkpt>
      <trkpt lat="45.19622" lon="5.73959">
        <ele>186.19999694824</ele>
        <time>2022-06-02T04:05:20.000Z</time>
      </trkpt>
      <trkpt lat="45.19623" lon="5.73957">
        <ele>186.19999694824</ele>
        <time>2022-06-02T04:05:21.000Z</time>
      </trkpt>
      <trkpt lat="45.19624" lon="5.73957">
        <ele>186.19999694824</ele>
        <time>2022-06-02T04:05:22.000Z</time>
      </trkpt>
      <trkpt lat="45.19625" lon="5.73956">
        <ele>186.19999694824</ele>
        <time>2022-06-02T04:05:23.000Z</time>
      </trkpt>
      <trkpt lat="45.19626" lon="5.73956">
        <ele>186.19999694824</ele>
        <time>2022-06-02T04:05:24.000Z</time>
      </trkpt>
      <trkpt lat="45.19627" lon="5.73956">
        <ele>186.19999694824</ele>
        <time>2022-06-02T04:05:25.000Z</time>
      </trkpt>
      <trkpt lat="45.19628" lon="5.73956">
        <ele>186</ele>
        <time>2022-06-02T04:05:26.000Z</time>
      </trkpt>
      <trkpt lat="45.19629" lon="5.73955">
        <ele>186.19999694824</ele>
        <time>2022-06-02T04:05:27.000Z</time>
      </trkpt>
      <trkpt lat="45.1963" lon="5.73955">
        <ele>186.19999694824</ele>
        <time>2022-06-02T04:05:28.000Z</time>
      </trkpt>
      <trkpt lat="45.1963" lon="5.73956">
        <ele>186</ele>
        <time>2022-06-02T04:05:29.000Z</time>
      </trkpt>
      <trkpt lat="45.19631" lon="5.73956">
        <ele>186</ele>
        <time>2022-06-02T04:05:30.000Z</time>
      </trkpt>
      <trkpt lat="45.19632" lon="5.73957">
        <ele>186.19999694824</ele>
        <time>2022-06-02T04:05:31.000Z</time>
      </trkpt>
      <trkpt lat="45.19633" lon="5.73957">
        <ele>186</ele>
        <time>2022-06-02T04:05:32.000Z</time>
      </trkpt>
      <trkpt lat="45.19634" lon="5.73957">
        <ele>186.19999694824</ele>
        <time>2022-06-02T04:05:33.000Z</time>
      </trkpt>
      <trkpt lat="45.19634" lon="5.73958">
        <ele>186</ele>
        <time>2022-06-02T04:05:34.000Z</time>
      </trkpt>
      <trkpt lat="45.19635" lon="5.73958">
        <ele>186</ele>
        <time>2022-06-02T04:05:35.000Z</time>
      </trkpt>
      <trkpt lat="45.19635" lon="5.73959">
        <ele>186.19999694824</ele>
        <time>2022-06-02T04:05:36.000Z</time>
      </trkpt>
      <trkpt lat="45.19634" lon="5.7396">
        <ele>186.19999694824</ele>
        <time>2022-06-02T04:05:37.000Z</time>
      </trkpt>
      <trkpt lat="45.19633" lon="5.73961">
        <ele>186</ele>
        <time>2022-06-02T04:05:38.000Z</time>
      </trkpt>
      <trkpt lat="45.19633" lon="5.73961">
        <ele>185.80000305176</ele>
        <time>2022-06-02T04:05:39.000Z</time>
      </trkpt>
      <trkpt lat="45.19633" lon="5.73961">
        <ele>186</ele>
        <time>2022-06-02T04:05:40.000Z</time>
      </trkpt>
      <trkpt lat="45.19632" lon="5.73962">
        <ele>186</ele>
        <time>2022-06-02T04:05:41.000Z</time>
      </trkpt>
      <trkpt lat="45.19632" lon="5.73962">
        <ele>186.19999694824</ele>
        <time>2022-06-02T04:05:42.000Z</time>
      </trkpt>
      <trkpt lat="45.19632" lon="5.73962">
        <ele>186.19999694824</ele>
        <time>2022-06-02T04:05:43.000Z</time>
      </trkpt>
      <trkpt lat="45.19632" lon="5.73962">
        <ele>186</ele>
        <time>2022-06-02T04:05:44.000Z</time>
      </trkpt>
      <trkpt lat="45.19632" lon="5.73962">
        <ele>186</ele>
        <time>2022-06-02T04:05:45.000Z</time>
      </trkpt>
      <trkpt lat="45.19632" lon="5.73962">
        <ele>186</ele>
        <time>2022-06-02T04:05:46.000Z</time>
      </trkpt>
      <trkpt lat="45.19632" lon="5.73961">
        <ele>186</ele>
        <time>2022-06-02T04:05:47.000Z</time>
      </trkpt>
      <trkpt lat="45.19633" lon="5.73962">
        <ele>186</ele>
        <time>2022-06-02T04:05:49.000Z</time>
      </trkpt>
      <trkpt lat="45.19634" lon="5.73962">
        <ele>186</ele>
        <time>2022-06-02T04:05:50.000Z</time>
      </trkpt>
      <trkpt lat="45.19634" lon="5.73963">
        <ele>186.19999694824</ele>
        <time>2022-06-02T04:05:51.000Z</time>
      </trkpt>
      <trkpt lat="45.19634" lon="5.73963">
        <ele>186.60000610352</ele>
        <time>2022-06-02T04:05:52.000Z</time>
      </trkpt>
      <trkpt lat="45.19635" lon="5.73963">
        <ele>186.80000305176</ele>
        <time>2022-06-02T04:05:53.000Z</time>
      </trkpt>
      <trkpt lat="45.19635" lon="5.73963">
        <ele>187.19999694824</ele>
        <time>2022-06-02T04:05:54.000Z</time>
      </trkpt>
      <trkpt lat="45.19636" lon="5.73963">
        <ele>187.39999389648</ele>
        <time>2022-06-02T04:05:55.000Z</time>
      </trkpt>
      <trkpt lat="45.19637" lon="5.73964">
        <ele>187.80000305176</ele>
        <time>2022-06-02T04:05:56.000Z</time>
      </trkpt>
      <trkpt lat="45.19637" lon="5.73964">
        <ele>187.80000305176</ele>
        <time>2022-06-02T04:05:57.000Z</time>
      </trkpt>
      <trkpt lat="45.19637" lon="5.73965">
        <ele>188</ele>
        <time>2022-06-02T04:05:58.000Z</time>
      </trkpt>
      <trkpt lat="45.19638" lon="5.73965">
        <ele>188.39999389648</ele>
        <time>2022-06-02T04:05:59.000Z</time>
      </trkpt>
      <trkpt lat="45.19637" lon="5.73966">
        <ele>188.39999389648</ele>
        <time>2022-06-02T04:06:00.000Z</time>
      </trkpt>
      <trkpt lat="45.19636" lon="5.73966">
        <ele>188.60000610352</ele>
        <time>2022-06-02T04:06:01.000Z</time>
      </trkpt>
      <trkpt lat="45.19636" lon="5.73966">
        <ele>188.80000305176</ele>
        <time>2022-06-02T04:06:02.000Z</time>
      </trkpt>
      <trkpt lat="45.19635" lon="5.73965">
        <ele>188.39999389648</ele>
        <time>2022-06-02T04:06:03.000Z</time>
      </trkpt>
      <trkpt lat="45.19633" lon="5.73963">
        <ele>188.39999389648</ele>
        <time>2022-06-02T04:06:04.000Z</time>
      </trkpt>
      <trkpt lat="45.19633" lon="5.73963">
        <ele>188.60000610352</ele>
        <time>2022-06-02T04:06:05.000Z</time>
      </trkpt>
      <trkpt lat="45.19633" lon="5.73964">
        <ele>188.60000610352</ele>
        <time>2022-06-02T04:06:06.000Z</time>
      </trkpt>
      <trkpt lat="45.19633" lon="5.73965">
        <ele>189.19999694824</ele>
        <time>2022-06-02T04:06:07.000Z</time>
      </trkpt>
      <trkpt lat="45.19634" lon="5.73965">
        <ele>189.39999389648</ele>
        <time>2022-06-02T04:06:08.000Z</time>
      </trkpt>
      <trkpt lat="45.19634" lon="5.73964">
        <ele>189.60000610352</ele>
        <time>2022-06-02T04:06:09.000Z</time>
      </trkpt>
      <trkpt lat="45.19634" lon="5.73964">
        <ele>189.80000305176</ele>
        <time>2022-06-02T04:06:10.000Z</time>
      </trkpt>
      <trkpt lat="45.19635" lon="5.73963">
        <ele>190.19999694824</ele>
        <time>2022-06-02T04:06:11.000Z</time>
      </trkpt>
      <trkpt lat="45.19635" lon="5.73964">
        <ele>190.39999389648</ele>
        <time>2022-06-02T04:06:12.000Z</time>
      </trkpt>
      <trkpt lat="45.19635" lon="5.73964">
        <ele>190.80000305176</ele>
        <time>2022-06-02T04:06:13.000Z</time>
      </trkpt>
      <trkpt lat="45.19636" lon="5.73964">
        <ele>191</ele>
        <time>2022-06-02T04:06:14.000Z</time>
      </trkpt>
      <trkpt lat="45.19636" lon="5.73964">
        <ele>191</ele>
        <time>2022-06-02T04:06:15.000Z</time>
      </trkpt>
      <trkpt lat="45.19637" lon="5.73962">
        <ele>190.80000305176</ele>
        <time>2022-06-02T04:06:16.000Z</time>
      </trkpt>
      <trkpt lat="45.19637" lon="5.73962">
        <ele>190.80000305176</ele>
        <time>2022-06-02T04:06:17.000Z</time>
      </trkpt>
      <trkpt lat="45.19636" lon="5.73962">
        <ele>191.19999694824</ele>
        <time>2022-06-02T04:06:18.000Z</time>
      </trkpt>
      <trkpt lat="45.19635" lon="5.73962">
        <ele>191.19999694824</ele>
        <time>2022-06-02T04:06:19.000Z</time>
      </trkpt>
      <trkpt lat="45.19635" lon="5.73962">
        <ele>191.60000610352</ele>
        <time>2022-06-02T04:06:20.000Z</time>
      </trkpt>
      <trkpt lat="45.19635" lon="5.73962">
        <ele>191.60000610352</ele>
        <time>2022-06-02T04:06:21.000Z</time>
      </trkpt>
      <trkpt lat="45.19635" lon="5.73962">
        <ele>192.19999694824</ele>
        <time>2022-06-02T04:06:22.000Z</time>
      </trkpt>
      <trkpt lat="45.19636" lon="5.73962">
        <ele>192.60000610352</ele>
        <time>2022-06-02T04:06:23.000Z</time>
      </trkpt>
      <trkpt lat="45.19635" lon="5.73961">
        <ele>192.60000610352</ele>
        <time>2022-06-02T04:06:24.000Z</time>
      </trkpt>
      <trkpt lat="45.19636" lon="5.73961">
        <ele>193</ele>
        <time>2022-06-02T04:06:25.000Z</time>
      </trkpt>
      <trkpt lat="45.19636" lon="5.73961">
        <ele>193.39999389648</ele>
        <time>2022-06-02T04:06:26.000Z</time>
      </trkpt>
      <trkpt lat="45.19636" lon="5.73961">
        <ele>193.60000610352</ele>
        <time>2022-06-02T04:06:27.000Z</time>
      </trkpt>
      <trkpt lat="45.19636" lon="5.7396">
        <ele>193.60000610352</ele>
        <time>2022-06-02T04:06:28.000Z</time>
      </trkpt>
      <trkpt lat="45.19636" lon="5.7396">
        <ele>193.60000610352</ele>
        <time>2022-06-02T04:06:29.000Z</time>
      </trkpt>
      <trkpt lat="45.19636" lon="5.7396">
        <ele>193.39999389648</ele>
        <time>2022-06-02T04:06:30.000Z</time>
      </trkpt>
      <trkpt lat="45.19636" lon="5.73961">
        <ele>193.60000610352</ele>
        <time>2022-06-02T04:06:31.000Z</time>
      </trkpt>
      <trkpt lat="45.19636" lon="5.73961">
        <ele>193.60000610352</ele>
        <time>2022-06-02T04:06:32.000Z</time>
      </trkpt>
      <trkpt lat="45.19638" lon="5.73961">
        <ele>193.80000305176</ele>
        <time>2022-06-02T04:06:33.000Z</time>
      </trkpt>
      <trkpt lat="45.19639" lon="5.7396">
        <ele>193.80000305176</ele>
        <time>2022-06-02T04:06:34.000Z</time>
      </trkpt>
      <trkpt lat="45.1964" lon="5.7396">
        <ele>193.60000610352</ele>
        <time>2022-06-02T04:06:35.000Z</time>
      </trkpt>
      <trkpt lat="45.19642" lon="5.7396">
        <ele>193.60000610352</ele>
        <time>2022-06-02T04:06:36.000Z</time>
      </trkpt>
      <trkpt lat="45.19643" lon="5.7396">
        <ele>193.60000610352</ele>
        <time>2022-06-02T04:06:37.000Z</time>
      </trkpt>
      <trkpt lat="45.19644" lon="5.73959">
        <ele>193.39999389648</ele>
        <time>2022-06-02T04:06:38.000Z</time>
      </trkpt>
      <trkpt lat="45.19645" lon="5.73959">
        <ele>193.39999389648</ele>
        <time>2022-06-02T04:06:39.000Z</time>
      </trkpt>
      <trkpt lat="45.19646" lon="5.73959">
        <ele>193.39999389648</ele>
        <time>2022-06-02T04:06:40.000Z</time>
      </trkpt>
      <trkpt lat="45.19647" lon="5.73959">
        <ele>193.39999389648</ele>
        <time>2022-06-02T04:06:41.000Z</time>
      </trkpt>
      <trkpt lat="45.19647" lon="5.73959">
        <ele>193.39999389648</ele>
        <time>2022-06-02T04:06:42.000Z</time>
      </trkpt>
      <trkpt lat="45.19648" lon="5.73959">
        <ele>193.39999389648</ele>
        <time>2022-06-02T04:06:43.000Z</time>
      </trkpt>
      <trkpt lat="45.19649" lon="5.73959">
        <ele>193.39999389648</ele>
        <time>2022-06-02T04:06:44.000Z</time>
      </trkpt>
      <trkpt lat="45.1965" lon="5.73959">
        <ele>193.39999389648</ele>
        <time>2022-06-02T04:06:45.000Z</time>
      </trkpt>
      <trkpt lat="45.19652" lon="5.73959">
        <ele>193.39999389648</ele>
        <time>2022-06-02T04:06:46.000Z</time>
      </trkpt>
      <trkpt lat="45.19652" lon="5.73959">
        <ele>193.39999389648</ele>
        <time>2022-06-02T04:06:47.000Z</time>
      </trkpt>
      <trkpt lat="45.19653" lon="5.73959">
        <ele>193.39999389648</ele>
        <time>2022-06-02T04:06:48.000Z</time>
      </trkpt>
      <trkpt lat="45.19653" lon="5.73959">
        <ele>193.19999694824</ele>
        <time>2022-06-02T04:06:49.000Z</time>
      </trkpt>
      <trkpt lat="45.19654" lon="5.73959">
        <ele>193</ele>
        <time>2022-06-02T04:06:50.000Z</time>
      </trkpt>
      <trkpt lat="45.19654" lon="5.73959">
        <ele>193.19999694824</ele>
        <time>2022-06-02T04:06:51.000Z</time>
      </trkpt>
      <trkpt lat="45.19653" lon="5.73959">
        <ele>193</ele>
        <time>2022-06-02T04:06:52.000Z</time>
      </trkpt>
      <trkpt lat="45.19653" lon="5.7396">
        <ele>193.19999694824</ele>
        <time>2022-06-02T04:06:53.000Z</time>
      </trkpt>
      <trkpt lat="45.19653" lon="5.7396">
        <ele>193.60000610352</ele>
        <time>2022-06-02T04:06:54.000Z</time>
      </trkpt>
      <trkpt lat="45.19653" lon="5.7396">
        <ele>193.19999694824</ele>
        <time>2022-06-02T04:06:55.000Z</time>
      </trkpt>
      <trkpt lat="45.19652" lon="5.7396">
        <ele>193.80000305176</ele>
        <time>2022-06-02T04:06:56.000Z</time>
      </trkpt>
      <trkpt lat="45.19653" lon="5.7396">
        <ele>193.39999389648</ele>
        <time>2022-06-02T04:06:57.000Z</time>
      </trkpt>
      <trkpt lat="45.19653" lon="5.7396">
        <ele>193.39999389648</ele>
        <time>2022-06-02T04:06:58.000Z</time>
      </trkpt>
      <trkpt lat="45.19654" lon="5.73959">
        <ele>193.60000610352</ele>
        <time>2022-06-02T04:06:59.000Z</time>
      </trkpt>
      <trkpt lat="45.19654" lon="5.73959">
        <ele>193.39999389648</ele>
        <time>2022-06-02T04:07:00.000Z</time>
      </trkpt>
      <trkpt lat="45.19654" lon="5.73958">
        <ele>193.39999389648</ele>
        <time>2022-06-02T04:07:01.000Z</time>
      </trkpt>
      <trkpt lat="45.19655" lon="5.73958">
        <ele>193.60000610352</ele>
        <time>2022-06-02T04:07:02.000Z</time>
      </trkpt>
      <trkpt lat="45.19656" lon="5.73957">
        <ele>193.60000610352</ele>
        <time>2022-06-02T04:07:03.000Z</time>
      </trkpt>
      <trkpt lat="45.19657" lon="5.73955">
        <ele>194.19999694824</ele>
        <time>2022-06-02T04:07:14.000Z</time>
      </trkpt>
      <trkpt lat="45.19658" lon="5.73954">
        <ele>194.19999694824</ele>
        <time>2022-06-02T04:07:15.000Z</time>
      </trkpt>
      <trkpt lat="45.19652" lon="5.7396">
        <ele>194.19999694824</ele>
        <time>2022-06-02T04:07:17.000Z</time>
      </trkpt>
    </trkseg>
  </trk>
</gpx>